<?xml version='1.0' encoding='UTF-8'?><gpx version="1.1" creator="JPX - https://github.com/jenetics/jpx" xmlns="http://www.topografix.com/GPX/1/1"><trk><trkseg><trkpt lat="-31.79799299811048" lon="115.7509957050577"><ele>24.0</ele><time>2026-04-12T02:47:33Z</time></trkpt><trkpt lat="-31.797990259218015" lon="115.75109691315079"><ele>25.0</ele><time>2026-04-12T02:47:35Z</time></trkpt><trkpt lat="-31.798011041646625" lon="115.75117710617651"><ele>26.0</ele><time>2026-04-12T02:47:36Z</time></trkpt><trkpt lat="-31.79803711649659" lon="115.75126710961179"><ele>27.0</ele><time>2026-04-12T02:47:37Z</time></trkpt><trkpt lat="-31.798065070783203" lon="115.751352673087"><ele>27.999999999999996</ele><time>2026-04-12T02:47:38Z</time></trkpt><trkpt lat="-31.798089790707504" lon="115.75143042888519"><ele>29.0</ele><time>2026-04-12T02:47:39Z</time></trkpt><trkpt lat="-31.79810902556557" lon="115.7515052698377"><ele>29.0</ele><time>2026-04-12T02:47:40Z</time></trkpt><trkpt lat="-31.798128208221517" lon="115.7516443977252"><ele>29.0</ele><time>2026-04-12T02:47:42Z</time></trkpt><trkpt lat="-31.798145728976557" lon="115.75178289154606"><ele>29.0</ele><time>2026-04-12T02:47:44Z</time></trkpt><trkpt lat="-31.798137339089656" lon="115.75186548967815"><ele>29.0</ele><time>2026-04-12T02:47:45Z</time></trkpt><trkpt lat="-31.79812194220339" lon="115.7519885677785"><ele>29.0</ele><time>2026-04-12T02:47:47Z</time></trkpt><trkpt lat="-31.798217231006795" lon="115.75204331011382"><ele>29.0</ele><time>2026-04-12T02:47:49Z</time></trkpt><trkpt lat="-31.798324713165297" lon="115.75199527023348"><ele>29.0</ele><time>2026-04-12T02:47:51Z</time></trkpt><trkpt lat="-31.798317227895303" lon="115.75191175147187"><ele>29.0</ele><time>2026-04-12T02:47:52Z</time></trkpt><trkpt lat="-31.798243854365598" lon="115.75178375489239"><ele>29.0</ele><time>2026-04-12T02:47:54Z</time></trkpt><trkpt lat="-31.79820640999954" lon="115.75169907803695"><ele>29.0</ele><time>2026-04-12T02:47:55Z</time></trkpt><trkpt lat="-31.798190011338995" lon="115.75159428982397"><ele>28.999999999999996</ele><time>2026-04-12T02:47:56Z</time></trkpt><trkpt lat="-31.79817505871499" lon="115.7514895449317"><ele>29.0</ele><time>2026-04-12T02:47:57Z</time></trkpt><trkpt lat="-31.798149450267776" lon="115.75140135029771"><ele>29.0</ele><time>2026-04-12T02:47:58Z</time></trkpt><trkpt lat="-31.798121320134165" lon="115.75131907223076"><ele>29.0</ele><time>2026-04-12T02:47:59Z</time></trkpt><trkpt lat="-31.79810050313968" lon="115.75123831110815"><ele>28.999999999999996</ele><time>2026-04-12T02:48:00Z</time></trkpt><trkpt lat="-31.79809237302708" lon="115.75115485853212"><ele>29.0</ele><time>2026-04-12T02:48:01Z</time></trkpt><trkpt lat="-31.798062207733203" lon="115.7510422434318"><ele>27.5</ele><time>2026-04-12T02:48:03Z</time></trkpt><trkpt lat="-31.79825617951206" lon="115.7509429803759"><ele>26.0</ele><time>2026-04-12T02:48:05Z</time></trkpt><trkpt lat="-31.798357762292667" lon="115.75091168270984"><ele>24.5</ele><time>2026-04-12T02:48:06Z</time></trkpt><trkpt lat="-31.798457246892923" lon="115.75086992173696"><ele>23.0</ele><time>2026-04-12T02:48:07Z</time></trkpt><trkpt lat="-31.798558690991864" lon="115.75082057889963"><ele>22.75</ele><time>2026-04-12T02:48:08Z</time></trkpt><trkpt lat="-31.79866293003082" lon="115.75076476996612"><ele>22.5</ele><time>2026-04-12T02:48:09Z</time></trkpt><trkpt lat="-31.798772669989003" lon="115.75069264580569"><ele>22.25</ele><time>2026-04-12T02:48:10Z</time></trkpt><trkpt lat="-31.798883637627664" lon="115.75060142251479"><ele>22.0</ele><time>2026-04-12T02:48:11Z</time></trkpt><trkpt lat="-31.798993519291727" lon="115.75049621039037"><ele>22.0</ele><time>2026-04-12T02:48:12Z</time></trkpt><trkpt lat="-31.799105823200755" lon="115.75038489888794"><ele>22.0</ele><time>2026-04-12T02:48:13Z</time></trkpt><trkpt lat="-31.799216543249347" lon="115.75027120714279"><ele>22.0</ele><time>2026-04-12T02:48:14Z</time></trkpt><trkpt lat="-31.799326109970384" lon="115.75014911405228"><ele>22.0</ele><time>2026-04-12T02:48:15Z</time></trkpt><trkpt lat="-31.799431134125385" lon="115.75001917258514"><ele>21.0</ele><time>2026-04-12T02:48:16Z</time></trkpt><trkpt lat="-31.799528429788268" lon="115.74989183064275"><ele>20.0</ele><time>2026-04-12T02:48:17Z</time></trkpt><trkpt lat="-31.799615698231168" lon="115.74977653331788"><ele>19.0</ele><time>2026-04-12T02:48:18Z</time></trkpt><trkpt lat="-31.79971311997402" lon="115.74968493949874"><ele>18.0</ele><time>2026-04-12T02:48:19Z</time></trkpt><trkpt lat="-31.799790736087452" lon="115.74956589247289"><ele>18.0</ele><time>2026-04-12T02:48:20Z</time></trkpt><trkpt lat="-31.79989515417371" lon="115.74945684676923"><ele>18.0</ele><time>2026-04-12T02:48:21Z</time></trkpt><trkpt lat="-31.799998239992384" lon="115.74933882123587"><ele>18.0</ele><time>2026-04-12T02:48:22Z</time></trkpt><trkpt lat="-31.800092710447732" lon="115.74922254883911"><ele>18.0</ele><time>2026-04-12T02:48:23Z</time></trkpt><trkpt lat="-31.800179381662595" lon="115.74910917465934"><ele>18.5</ele><time>2026-04-12T02:48:24Z</time></trkpt><trkpt lat="-31.80027164027867" lon="115.74899016614015"><ele>19.0</ele><time>2026-04-12T02:48:25Z</time></trkpt><trkpt lat="-31.800358201217463" lon="115.74887838106497"><ele>19.5</ele><time>2026-04-12T02:48:26Z</time></trkpt><trkpt lat="-31.800439417824" lon="115.7487774084167"><ele>20.0</ele><time>2026-04-12T02:48:27Z</time></trkpt><trkpt lat="-31.80051985753855" lon="115.74868450158647"><ele>20.0</ele><time>2026-04-12T02:48:28Z</time></trkpt><trkpt lat="-31.80059674520715" lon="115.74859851219455"><ele>20.0</ele><time>2026-04-12T02:48:29Z</time></trkpt><trkpt lat="-31.80066636886106" lon="115.74851859522691"><ele>20.0</ele><time>2026-04-12T02:48:30Z</time></trkpt><trkpt lat="-31.80073841327719" lon="115.74844760001803"><ele>20.0</ele><time>2026-04-12T02:48:31Z</time></trkpt><trkpt lat="-31.80081518062602" lon="115.74839868489902"><ele>20.0</ele><time>2026-04-12T02:48:32Z</time></trkpt><trkpt lat="-31.80089071915655" lon="115.74835937815861"><ele>20.0</ele><time>2026-04-12T02:48:33Z</time></trkpt><trkpt lat="-31.800956695725162" lon="115.74832974444115"><ele>20.0</ele><time>2026-04-12T02:48:34Z</time></trkpt><trkpt lat="-31.80106811327383" lon="115.74830654460578"><ele>20.0</ele><time>2026-04-12T02:48:36Z</time></trkpt><trkpt lat="-31.801159119608624" lon="115.74848765388519"><ele>20.0</ele><time>2026-04-12T02:48:38Z</time></trkpt><trkpt lat="-31.80118972392729" lon="115.74857537475057"><ele>20.0</ele><time>2026-04-12T02:48:38.999Z</time></trkpt><trkpt lat="-31.801222542257637" lon="115.74867676655201"><ele>19.8</ele><time>2026-04-12T02:48:39.999Z</time></trkpt><trkpt lat="-31.801259348608973" lon="115.74878835932242"><ele>19.6</ele><time>2026-04-12T02:48:40.999Z</time></trkpt><trkpt lat="-31.80129993263876" lon="115.7489006268839"><ele>19.4</ele><time>2026-04-12T02:48:41.999Z</time></trkpt><trkpt lat="-31.80133694627245" lon="115.74901789138339"><ele>19.2</ele><time>2026-04-12T02:48:42.999Z</time></trkpt><trkpt lat="-31.801369702984" lon="115.74914219428209"><ele>19.0</ele><time>2026-04-12T02:48:43.999Z</time></trkpt><trkpt lat="-31.80140391472796" lon="115.74925611483172"><ele>19.0</ele><time>2026-04-12T02:48:44.999Z</time></trkpt><trkpt lat="-31.80143920966134" lon="115.74934395296403"><ele>19.0</ele><time>2026-04-12T02:48:45.999Z</time></trkpt><trkpt lat="-31.80147319087249" lon="115.7494113012844"><ele>19.0</ele><time>2026-04-12T02:48:46.999Z</time></trkpt><trkpt lat="-31.801530944607315" lon="115.74952098234553"><ele>19.0</ele><time>2026-04-12T02:48:48.999Z</time></trkpt><trkpt lat="-31.80170240857075" lon="115.74951011271779"><ele>19.0</ele><time>2026-04-12T02:48:50.999Z</time></trkpt><trkpt lat="-31.801793271075212" lon="115.74947386060146"><ele>19.75</ele><time>2026-04-12T02:48:51.999Z</time></trkpt><trkpt lat="-31.80189885938184" lon="115.74942915790625"><ele>20.5</ele><time>2026-04-12T02:48:52.999Z</time></trkpt><trkpt lat="-31.80201871419726" lon="115.74938257705621"><ele>21.25</ele><time>2026-04-12T02:48:53.999Z</time></trkpt><trkpt lat="-31.80212923464091" lon="115.74934329509618"><ele>22.0</ele><time>2026-04-12T02:48:54.999Z</time></trkpt><trkpt lat="-31.80223939372141" lon="115.74929982280214"><ele>22.0</ele><time>2026-04-12T02:48:55.999Z</time></trkpt><trkpt lat="-31.80234015546883" lon="115.74925480577842"><ele>22.0</ele><time>2026-04-12T02:48:57Z</time></trkpt><trkpt lat="-31.802434883606836" lon="115.74921216506334"><ele>22.0</ele><time>2026-04-12T02:48:58Z</time></trkpt><trkpt lat="-31.802508835612255" lon="115.74918103962841"><ele>22.0</ele><time>2026-04-12T02:48:59Z</time></trkpt><trkpt lat="-31.8026046049344" lon="115.74916119684077"><ele>22.0</ele><time>2026-04-12T02:49:01Z</time></trkpt><trkpt lat="-31.80268509650319" lon="115.7491491626148"><ele>20.75</ele><time>2026-04-12T02:49:04Z</time></trkpt><trkpt lat="-31.802736367101815" lon="115.74934567619087"><ele>19.5</ele><time>2026-04-12T02:49:05Z</time></trkpt><trkpt lat="-31.80275400668583" lon="115.74946275796815"><ele>18.25</ele><time>2026-04-12T02:49:06Z</time></trkpt><trkpt lat="-31.80277049907906" lon="115.74960329005116"><ele>17.0</ele><time>2026-04-12T02:49:07Z</time></trkpt><trkpt lat="-31.802790533803734" lon="115.74976701558016"><ele>16.666666666666668</ele><time>2026-04-12T02:49:08Z</time></trkpt><trkpt lat="-31.802804008898995" lon="115.74994801690261"><ele>16.333333333333332</ele><time>2026-04-12T02:49:09Z</time></trkpt><trkpt lat="-31.80280814939358" lon="115.75012651333363"><ele>16.0</ele><time>2026-04-12T02:49:10Z</time></trkpt><trkpt lat="-31.80280319667156" lon="115.75031338898208"><ele>16.8</ele><time>2026-04-12T02:49:11Z</time></trkpt><trkpt lat="-31.80280910577416" lon="115.75048227135865"><ele>17.6</ele><time>2026-04-12T02:49:12Z</time></trkpt><trkpt lat="-31.80279516992141" lon="115.75062693368844"><ele>18.4</ele><time>2026-04-12T02:49:13Z</time></trkpt><trkpt lat="-31.80278280688084" lon="115.75073411958006"><ele>19.2</ele><time>2026-04-12T02:49:14Z</time></trkpt><trkpt lat="-31.802760356410335" lon="115.75081200804117"><ele>20.0</ele><time>2026-04-12T02:49:15Z</time></trkpt><trkpt lat="-31.802773219725633" lon="115.7509198585753"><ele>20.0</ele><time>2026-04-12T02:49:17Z</time></trkpt><trkpt lat="-31.80289707505362" lon="115.75096012400537"><ele>20.0</ele><time>2026-04-12T02:49:18Z</time></trkpt><trkpt lat="-31.80299422887328" lon="115.75098525865253"><ele>20.0</ele><time>2026-04-12T02:49:19Z</time></trkpt><trkpt lat="-31.803105882541377" lon="115.75100674681555"><ele>20.0</ele><time>2026-04-12T02:49:20Z</time></trkpt><trkpt lat="-31.803235503428308" lon="115.75103406395898"><ele>20.75</ele><time>2026-04-12T02:49:21Z</time></trkpt><trkpt lat="-31.80337155846134" lon="115.75106943815504"><ele>21.5</ele><time>2026-04-12T02:49:22Z</time></trkpt><trkpt lat="-31.803510270084892" lon="115.75111559472604"><ele>22.25</ele><time>2026-04-12T02:49:23Z</time></trkpt><trkpt lat="-31.803639651170673" lon="115.75117130479934"><ele>23.0</ele><time>2026-04-12T02:49:24Z</time></trkpt><trkpt lat="-31.803761398975634" lon="115.75123396553374"><ele>21.799999999999997</ele><time>2026-04-12T02:49:25Z</time></trkpt><trkpt lat="-31.803875364457838" lon="115.7512982768557"><ele>20.599999999999998</ele><time>2026-04-12T02:49:26Z</time></trkpt><trkpt lat="-31.803970821827523" lon="115.75135593997138"><ele>19.4</ele><time>2026-04-12T02:49:27Z</time></trkpt><trkpt lat="-31.804044604244538" lon="115.75140519627988"><ele>18.2</ele><time>2026-04-12T02:49:28Z</time></trkpt><trkpt lat="-31.804119883343" lon="115.75147317482882"><ele>17.0</ele><time>2026-04-12T02:49:30Z</time></trkpt><trkpt lat="-31.80410415306742" lon="115.75164462288058"><ele>17.0</ele><time>2026-04-12T02:49:32Z</time></trkpt><trkpt lat="-31.804072866842294" lon="115.75173423570708"><ele>17.0</ele><time>2026-04-12T02:49:33Z</time></trkpt><trkpt lat="-31.80403134295678" lon="115.75183720382459"><ele>17.0</ele><time>2026-04-12T02:49:34Z</time></trkpt><trkpt lat="-31.803989833856978" lon="115.75196335024889"><ele>17.0</ele><time>2026-04-12T02:49:35Z</time></trkpt><trkpt lat="-31.803956780980183" lon="115.75211233614611"><ele>17.0</ele><time>2026-04-12T02:49:36Z</time></trkpt><trkpt lat="-31.803934354159004" lon="115.75228069540375"><ele>19.333333333333336</ele><time>2026-04-12T02:49:37Z</time></trkpt><trkpt lat="-31.803925502254753" lon="115.75244984842666"><ele>21.666666666666668</ele><time>2026-04-12T02:49:38Z</time></trkpt><trkpt lat="-31.803916550227807" lon="115.75263464313198"><ele>24.0</ele><time>2026-04-12T02:49:39Z</time></trkpt><trkpt lat="-31.803917169957213" lon="115.75281837635701"><ele>25.333333333333336</ele><time>2026-04-12T02:49:40Z</time></trkpt><trkpt lat="-31.803929820814368" lon="115.75300234549746"><ele>26.666666666666668</ele><time>2026-04-12T02:49:41Z</time></trkpt><trkpt lat="-31.803953437167625" lon="115.75317289211462"><ele>28.0</ele><time>2026-04-12T02:49:42Z</time></trkpt><trkpt lat="-31.803987084243133" lon="115.75334164483465"><ele>28.0</ele><time>2026-04-12T02:49:43Z</time></trkpt><trkpt lat="-31.80403290154207" lon="115.75351036350794"><ele>28.0</ele><time>2026-04-12T02:49:44Z</time></trkpt><trkpt lat="-31.804097856255503" lon="115.75367671761923"><ele>28.0</ele><time>2026-04-12T02:49:45Z</time></trkpt><trkpt lat="-31.80418164450353" lon="115.75385894605786"><ele>29.0</ele><time>2026-04-12T02:49:46Z</time></trkpt><trkpt lat="-31.804264071283452" lon="115.75403265474243"><ele>30.0</ele><time>2026-04-12T02:49:47Z</time></trkpt><trkpt lat="-31.804336978036144" lon="115.75418459880461"><ele>31.0</ele><time>2026-04-12T02:49:48Z</time></trkpt><trkpt lat="-31.80441250772691" lon="115.75431720232709"><ele>32.5</ele><time>2026-04-12T02:49:49Z</time></trkpt><trkpt lat="-31.804496741930496" lon="115.754437003772"><ele>34.0</ele><time>2026-04-12T02:49:50Z</time></trkpt><trkpt lat="-31.804591297640542" lon="115.75454520571665"><ele>35.5</ele><time>2026-04-12T02:49:51Z</time></trkpt><trkpt lat="-31.80470118735957" lon="115.75464114473273"><ele>37.0</ele><time>2026-04-12T02:49:52Z</time></trkpt><trkpt lat="-31.804826934185677" lon="115.75472938110862"><ele>37.0</ele><time>2026-04-12T02:49:53Z</time></trkpt><trkpt lat="-31.80496341472815" lon="115.75480974299819"><ele>37.0</ele><time>2026-04-12T02:49:54Z</time></trkpt><trkpt lat="-31.805098866780117" lon="115.7548759924002"><ele>37.0</ele><time>2026-04-12T02:49:55Z</time></trkpt><trkpt lat="-31.805229103694614" lon="115.75491651041725"><ele>37.0</ele><time>2026-04-12T02:49:56Z</time></trkpt><trkpt lat="-31.805364795493375" lon="115.75493869621265"><ele>36.0</ele><time>2026-04-12T02:49:57Z</time></trkpt><trkpt lat="-31.805517910362166" lon="115.75494905384144"><ele>35.0</ele><time>2026-04-12T02:49:58Z</time></trkpt><trkpt lat="-31.80567560114525" lon="115.75494107633115"><ele>34.0</ele><time>2026-04-12T02:49:59Z</time></trkpt><trkpt lat="-31.805825916553985" lon="115.754914834385"><ele>34.0</ele><time>2026-04-12T02:50:00Z</time></trkpt><trkpt lat="-31.805968430072692" lon="115.75487546265823"><ele>34.0</ele><time>2026-04-12T02:50:01Z</time></trkpt><trkpt lat="-31.806099975528593" lon="115.75483084358999"><ele>34.0</ele><time>2026-04-12T02:50:02Z</time></trkpt><trkpt lat="-31.80621778740016" lon="115.75478459402372"><ele>34.0</ele><time>2026-04-12T02:50:03Z</time></trkpt><trkpt lat="-31.80632239070681" lon="115.75473669019729"><ele>33.833333333333336</ele><time>2026-04-12T02:50:04Z</time></trkpt><trkpt lat="-31.806402325529024" lon="115.75468984392295"><ele>33.66666666666667</ele><time>2026-04-12T02:50:05Z</time></trkpt><trkpt lat="-31.80646294394976" lon="115.75464818916655"><ele>33.5</ele><time>2026-04-12T02:50:06Z</time></trkpt><trkpt lat="-31.8065600693178" lon="115.7546141962936"><ele>33.333333333333336</ele><time>2026-04-12T02:50:08Z</time></trkpt><trkpt lat="-31.806622731456365" lon="115.75468265652451"><ele>33.166666666666664</ele><time>2026-04-12T02:50:09Z</time></trkpt><trkpt lat="-31.80667417930334" lon="115.75475364021344"><ele>33.0</ele><time>2026-04-12T02:50:10Z</time></trkpt><trkpt lat="-31.806716519162226" lon="115.75484909936523"><ele>33.0</ele><time>2026-04-12T02:50:11Z</time></trkpt><trkpt lat="-31.80673533246603" lon="115.75495293384206"><ele>33.0</ele><time>2026-04-12T02:50:12Z</time></trkpt><trkpt lat="-31.8067357747438" lon="115.755069742955"><ele>33.0</ele><time>2026-04-12T02:50:13Z</time></trkpt><trkpt lat="-31.806738220046928" lon="115.75517109724282"><ele>33.0</ele><time>2026-04-12T02:50:14Z</time></trkpt><trkpt lat="-31.80674614435715" lon="115.75526835839044"><ele>33.0</ele><time>2026-04-12T02:50:15Z</time></trkpt><trkpt lat="-31.806760122548287" lon="115.75535337297303"><ele>33.0</ele><time>2026-04-12T02:50:16Z</time></trkpt><trkpt lat="-31.806777009706796" lon="115.75547302444542"><ele>33.0</ele><time>2026-04-12T02:50:18Z</time></trkpt><trkpt lat="-31.806792933354558" lon="115.75556123475545"><ele>33.0</ele><time>2026-04-12T02:50:21.001Z</time></trkpt><trkpt lat="-31.806777830286283" lon="115.75543896290087"><ele>33.0</ele><time>2026-04-12T02:50:27.001Z</time></trkpt><trkpt lat="-31.806785130657037" lon="115.75535554205459"><ele>33.0</ele><time>2026-04-12T02:50:28.001Z</time></trkpt><trkpt lat="-31.806783020169764" lon="115.75527264813702"><ele>33.0</ele><time>2026-04-12T02:50:29.001Z</time></trkpt><trkpt lat="-31.806777663317387" lon="115.755180774722"><ele>33.0</ele><time>2026-04-12T02:50:30.001Z</time></trkpt><trkpt lat="-31.80676546926446" lon="115.75508008066633"><ele>33.0</ele><time>2026-04-12T02:50:31.001Z</time></trkpt><trkpt lat="-31.80675042893083" lon="115.75498096359514"><ele>33.0</ele><time>2026-04-12T02:50:32.001Z</time></trkpt><trkpt lat="-31.80673163575426" lon="115.7548893776453"><ele>33.0</ele><time>2026-04-12T02:50:33.001Z</time></trkpt><trkpt lat="-31.80670415686167" lon="115.75480328597004"><ele>33.0</ele><time>2026-04-12T02:50:34.001Z</time></trkpt><trkpt lat="-31.806673715699713" lon="115.75472533872147"><ele>33.0</ele><time>2026-04-12T02:50:35.001Z</time></trkpt><trkpt lat="-31.80664609093821" lon="115.7546565379843"><ele>33.0</ele><time>2026-04-12T02:50:36.001Z</time></trkpt><trkpt lat="-31.806617334483306" lon="115.75453584500974"><ele>33.0</ele><time>2026-04-12T02:50:38.001Z</time></trkpt><trkpt lat="-31.80663373253753" lon="115.75446426412593"><ele>33.0</ele><time>2026-04-12T02:50:39.001Z</time></trkpt><trkpt lat="-31.806699306623752" lon="115.75441692791718"><ele>33.0</ele><time>2026-04-12T02:50:40.001Z</time></trkpt><trkpt lat="-31.806735210782236" lon="115.75434872931217"><ele>33.0</ele><time>2026-04-12T02:50:41.001Z</time></trkpt><trkpt lat="-31.806756357249167" lon="115.75427141986364"><ele>33.0</ele><time>2026-04-12T02:50:42.001Z</time></trkpt><trkpt lat="-31.806810582609117" lon="115.75416436123801"><ele>33.0</ele><time>2026-04-12T02:50:44.001Z</time></trkpt><trkpt lat="-31.806865751441233" lon="115.75409881851371"><ele>31.4</ele><time>2026-04-12T02:50:46Z</time></trkpt><trkpt lat="-31.806969359750322" lon="115.75416423578154"><ele>29.799999999999997</ele><time>2026-04-12T02:50:47Z</time></trkpt><trkpt lat="-31.807043790494745" lon="115.75417551634236"><ele>28.2</ele><time>2026-04-12T02:50:48Z</time></trkpt><trkpt lat="-31.807123172708657" lon="115.7541853306059"><ele>26.6</ele><time>2026-04-12T02:50:49Z</time></trkpt><trkpt lat="-31.807208513761015" lon="115.75419480582869"><ele>25.0</ele><time>2026-04-12T02:50:50Z</time></trkpt><trkpt lat="-31.807304417965405" lon="115.75420273021939"><ele>25.0</ele><time>2026-04-12T02:50:51Z</time></trkpt><trkpt lat="-31.80740890896174" lon="115.75419104296309"><ele>25.0</ele><time>2026-04-12T02:50:52Z</time></trkpt><trkpt lat="-31.807516970123178" lon="115.75420422369768"><ele>25.0</ele><time>2026-04-12T02:50:53Z</time></trkpt><trkpt lat="-31.807617145826928" lon="115.75421329218696"><ele>25.0</ele><time>2026-04-12T02:50:54Z</time></trkpt><trkpt lat="-31.80771170351602" lon="115.75421674563785"><ele>25.0</ele><time>2026-04-12T02:50:55Z</time></trkpt><trkpt lat="-31.80780309283584" lon="115.75421359341473"><ele>25.500000000000004</ele><time>2026-04-12T02:50:56Z</time></trkpt><trkpt lat="-31.807886885331865" lon="115.75420930098872"><ele>26.0</ele><time>2026-04-12T02:50:57Z</time></trkpt><trkpt lat="-31.807966211205482" lon="115.75421103711754"><ele>26.5</ele><time>2026-04-12T02:50:58Z</time></trkpt><trkpt lat="-31.808040870915224" lon="115.75421835593251"><ele>27.0</ele><time>2026-04-12T02:50:59Z</time></trkpt><trkpt lat="-31.80811023697957" lon="115.75422331201025"><ele>27.500000000000004</ele><time>2026-04-12T02:51:00Z</time></trkpt><trkpt lat="-31.808212202957215" lon="115.75421215859853"><ele>28.0</ele><time>2026-04-12T02:51:02Z</time></trkpt><trkpt lat="-31.8082750214099" lon="115.75423729220078"><ele>28.0</ele><time>2026-04-12T02:51:05Z</time></trkpt><trkpt lat="-31.808055156211218" lon="115.75421714489242"><ele>28.0</ele><time>2026-04-12T02:51:09Z</time></trkpt><trkpt lat="-31.807945883019652" lon="115.75421138537253"><ele>28.0</ele><time>2026-04-12T02:51:10Z</time></trkpt><trkpt lat="-31.80782357943768" lon="115.754200620306"><ele>28.0</ele><time>2026-04-12T02:51:11Z</time></trkpt><trkpt lat="-31.807694804452197" lon="115.75419032626405"><ele>28.0</ele><time>2026-04-12T02:51:12Z</time></trkpt><trkpt lat="-31.807563530382613" lon="115.75418381879548"><ele>28.0</ele><time>2026-04-12T02:51:13Z</time></trkpt><trkpt lat="-31.807433388902318" lon="115.75417573058216"><ele>28.0</ele><time>2026-04-12T02:51:14Z</time></trkpt><trkpt lat="-31.807313938087745" lon="115.7541672500914"><ele>27.4</ele><time>2026-04-12T02:51:15Z</time></trkpt><trkpt lat="-31.80719461891202" lon="115.75415572090363"><ele>26.799999999999997</ele><time>2026-04-12T02:51:16Z</time></trkpt><trkpt lat="-31.80708483736836" lon="115.75414124241588"><ele>26.2</ele><time>2026-04-12T02:51:17Z</time></trkpt><trkpt lat="-31.806993261750222" lon="115.75412476508764"><ele>25.6</ele><time>2026-04-12T02:51:18Z</time></trkpt><trkpt lat="-31.80691675659627" lon="115.75410854920321"><ele>25.0</ele><time>2026-04-12T02:51:19Z</time></trkpt><trkpt lat="-31.806851728756396" lon="115.75402605374109"><ele>25.0</ele><time>2026-04-12T02:51:21Z</time></trkpt><trkpt lat="-31.80684556860611" lon="115.75394446764574"><ele>25.0</ele><time>2026-04-12T02:51:22Z</time></trkpt><trkpt lat="-31.80685662826525" lon="115.75384725908884"><ele>25.0</ele><time>2026-04-12T02:51:23Z</time></trkpt><trkpt lat="-31.806867144176454" lon="115.75373078962292"><ele>25.0</ele><time>2026-04-12T02:51:24Z</time></trkpt><trkpt lat="-31.806874585462747" lon="115.75359878770313"><ele>25.0</ele><time>2026-04-12T02:51:25Z</time></trkpt><trkpt lat="-31.80687202981286" lon="115.75346922602996"><ele>25.5</ele><time>2026-04-12T02:51:26Z</time></trkpt><trkpt lat="-31.806853307384515" lon="115.75332732705927"><ele>26.0</ele><time>2026-04-12T02:51:27Z</time></trkpt><trkpt lat="-31.806810737318344" lon="115.75317334161669"><ele>26.5</ele><time>2026-04-12T02:51:28Z</time></trkpt><trkpt lat="-31.806755099658595" lon="115.75300218793252"><ele>27.0</ele><time>2026-04-12T02:51:29Z</time></trkpt><trkpt lat="-31.806697903107796" lon="115.7528227850708"><ele>26.25</ele><time>2026-04-12T02:51:30Z</time></trkpt><trkpt lat="-31.80664325160025" lon="115.75264779837806"><ele>25.5</ele><time>2026-04-12T02:51:31Z</time></trkpt><trkpt lat="-31.806594132799002" lon="115.75248589777637"><ele>24.75</ele><time>2026-04-12T02:51:32Z</time></trkpt><trkpt lat="-31.806546456412637" lon="115.75232975965302"><ele>24.0</ele><time>2026-04-12T02:51:33Z</time></trkpt><trkpt lat="-31.8065005037339" lon="115.75218658619312"><ele>24.0</ele><time>2026-04-12T02:51:34Z</time></trkpt><trkpt lat="-31.80645627917077" lon="115.75204861989724"><ele>24.0</ele><time>2026-04-12T02:51:35Z</time></trkpt><trkpt lat="-31.80641110994721" lon="115.75191395104929"><ele>24.0</ele><time>2026-04-12T02:51:36Z</time></trkpt><trkpt lat="-31.80636777110825" lon="115.75177254082944"><ele>24.0</ele><time>2026-04-12T02:51:37Z</time></trkpt><trkpt lat="-31.806327528744156" lon="115.75163040725876"><ele>23.0</ele><time>2026-04-12T02:51:38Z</time></trkpt><trkpt lat="-31.80629309089226" lon="115.75149105872455"><ele>22.0</ele><time>2026-04-12T02:51:39Z</time></trkpt><trkpt lat="-31.80626849048382" lon="115.75136334599573"><ele>21.0</ele><time>2026-04-12T02:51:40Z</time></trkpt><trkpt lat="-31.806252115066037" lon="115.75125159187101"><ele>20.0</ele><time>2026-04-12T02:51:41Z</time></trkpt><trkpt lat="-31.806237710519426" lon="115.75115545220052"><ele>19.0</ele><time>2026-04-12T02:51:42Z</time></trkpt><trkpt lat="-31.806231601682036" lon="115.75107784532727"><ele>18.5</ele><time>2026-04-12T02:51:43Z</time></trkpt><trkpt lat="-31.806247396696016" lon="115.75097394729131"><ele>18.0</ele><time>2026-04-12T02:51:45Z</time></trkpt><trkpt lat="-31.80633335762776" lon="115.7509355396434"><ele>17.5</ele><time>2026-04-12T02:51:46Z</time></trkpt><trkpt lat="-31.80640232257949" lon="115.75092273900057"><ele>17.0</ele><time>2026-04-12T02:51:47Z</time></trkpt><trkpt lat="-31.80648650994447" lon="115.75091573087951"><ele>16.5</ele><time>2026-04-12T02:51:48.001Z</time></trkpt><trkpt lat="-31.806581668218595" lon="115.75089642462284"><ele>16.0</ele><time>2026-04-12T02:51:49.001Z</time></trkpt><trkpt lat="-31.80668612744416" lon="115.75085122788606"><ele>16.0</ele><time>2026-04-12T02:51:50.001Z</time></trkpt><trkpt lat="-31.806802652802826" lon="115.75080481342526"><ele>16.0</ele><time>2026-04-12T02:51:51.001Z</time></trkpt><trkpt lat="-31.8069230500495" lon="115.75076516926141"><ele>16.0</ele><time>2026-04-12T02:51:52.001Z</time></trkpt><trkpt lat="-31.807042444309268" lon="115.75071495476847"><ele>16.0</ele><time>2026-04-12T02:51:53.001Z</time></trkpt><trkpt lat="-31.807158874039978" lon="115.75066747354612"><ele>16.0</ele><time>2026-04-12T02:51:54.001Z</time></trkpt><trkpt lat="-31.807270724664313" lon="115.75061316330012"><ele>16.0</ele><time>2026-04-12T02:51:55.001Z</time></trkpt><trkpt lat="-31.807377029888737" lon="115.75055868322042"><ele>16.0</ele><time>2026-04-12T02:51:56.001Z</time></trkpt><trkpt lat="-31.807477689742502" lon="115.75050441940787"><ele>16.0</ele><time>2026-04-12T02:51:57.001Z</time></trkpt><trkpt lat="-31.807577605208646" lon="115.75044367683918"><ele>15.999999999999998</ele><time>2026-04-12T02:51:58.001Z</time></trkpt><trkpt lat="-31.807663968510198" lon="115.7503818393621"><ele>16.0</ele><time>2026-04-12T02:51:59.001Z</time></trkpt><trkpt lat="-31.80774254110926" lon="115.75031875716594"><ele>16.0</ele><time>2026-04-12T02:52:00.001Z</time></trkpt><trkpt lat="-31.807804973478248" lon="115.75026722218384"><ele>16.0</ele><time>2026-04-12T02:52:01.001Z</time></trkpt><trkpt lat="-31.807857425985535" lon="115.75021604499547"><ele>15.999999999999998</ele><time>2026-04-12T02:52:02.001Z</time></trkpt><trkpt lat="-31.807941503812774" lon="115.75016215750902"><ele>16.0</ele><time>2026-04-12T02:52:04.001Z</time></trkpt><trkpt lat="-31.80801856651511" lon="115.7501829735024"><ele>16.25</ele><time>2026-04-12T02:52:05.001Z</time></trkpt><trkpt lat="-31.808053469896667" lon="115.75031247971539"><ele>16.5</ele><time>2026-04-12T02:52:06.001Z</time></trkpt><trkpt lat="-31.808128119051236" lon="115.75039449563484"><ele>16.75</ele><time>2026-04-12T02:52:07.001Z</time></trkpt><trkpt lat="-31.808196673158946" lon="115.75050016015832"><ele>17.0</ele><time>2026-04-12T02:52:08.001Z</time></trkpt><trkpt lat="-31.808272843805142" lon="115.75062245518568"><ele>17.0</ele><time>2026-04-12T02:52:09.001Z</time></trkpt><trkpt lat="-31.80835472809356" lon="115.75075751947915"><ele>17.0</ele><time>2026-04-12T02:52:10.001Z</time></trkpt><trkpt lat="-31.80843368496085" lon="115.75088775405182"><ele>17.0</ele><time>2026-04-12T02:52:11.001Z</time></trkpt><trkpt lat="-31.808515692207628" lon="115.75102206931798"><ele>17.0</ele><time>2026-04-12T02:52:12.001Z</time></trkpt><trkpt lat="-31.808601213616214" lon="115.75116103303304"><ele>18.666666666666668</ele><time>2026-04-12T02:52:13.001Z</time></trkpt><trkpt lat="-31.808673395388876" lon="115.75132367030294"><ele>20.333333333333332</ele><time>2026-04-12T02:52:14.001Z</time></trkpt><trkpt lat="-31.808758942294723" lon="115.75148992490608"><ele>22.0</ele><time>2026-04-12T02:52:15.001Z</time></trkpt><trkpt lat="-31.808854455582168" lon="115.75166495855221"><ele>22.0</ele><time>2026-04-12T02:52:16.001Z</time></trkpt><trkpt lat="-31.808928858748835" lon="115.75185777911956"><ele>22.0</ele><time>2026-04-12T02:52:17.001Z</time></trkpt><trkpt lat="-31.808991052290043" lon="115.75206584550945"><ele>22.0</ele><time>2026-04-12T02:52:18.001Z</time></trkpt><trkpt lat="-31.809039597987525" lon="115.75226919159026"><ele>21.666666666666664</ele><time>2026-04-12T02:52:19.001Z</time></trkpt><trkpt lat="-31.8090793988399" lon="115.75247412728045"><ele>21.333333333333332</ele><time>2026-04-12T02:52:20.001Z</time></trkpt><trkpt lat="-31.809093942397137" lon="115.75267979406935"><ele>21.0</ele><time>2026-04-12T02:52:21.001Z</time></trkpt><trkpt lat="-31.809111627745597" lon="115.7528852905108"><ele>20.333333333333332</ele><time>2026-04-12T02:52:22.001Z</time></trkpt><trkpt lat="-31.80911583187561" lon="115.75307903003407"><ele>19.666666666666664</ele><time>2026-04-12T02:52:23.001Z</time></trkpt><trkpt lat="-31.809114357080677" lon="115.75325772407447"><ele>19.0</ele><time>2026-04-12T02:52:24.001Z</time></trkpt><trkpt lat="-31.809115996275764" lon="115.75341920886027"><ele>21.2</ele><time>2026-04-12T02:52:25.001Z</time></trkpt><trkpt lat="-31.809121675836945" lon="115.75356397558213"><ele>23.4</ele><time>2026-04-12T02:52:26.001Z</time></trkpt><trkpt lat="-31.809119011206548" lon="115.75369379799113"><ele>25.6</ele><time>2026-04-12T02:52:27.001Z</time></trkpt><trkpt lat="-31.80911661208613" lon="115.75381068468506"><ele>27.8</ele><time>2026-04-12T02:52:28.001Z</time></trkpt><trkpt lat="-31.809104519022586" lon="115.7539109573339"><ele>30.0</ele><time>2026-04-12T02:52:29.001Z</time></trkpt><trkpt lat="-31.80910049292205" lon="115.75400601101303"><ele>30.0</ele><time>2026-04-12T02:52:30.001Z</time></trkpt><trkpt lat="-31.8090981233893" lon="115.75409117241593"><ele>30.0</ele><time>2026-04-12T02:52:31.001Z</time></trkpt><trkpt lat="-31.809114068859703" lon="115.75417658081663"><ele>30.0</ele><time>2026-04-12T02:52:32.001Z</time></trkpt><trkpt lat="-31.809099446646602" lon="115.75426089920126"><ele>30.0</ele><time>2026-04-12T02:52:33.001Z</time></trkpt><trkpt lat="-31.809100897120786" lon="115.75435816315533"><ele>30.0</ele><time>2026-04-12T02:52:34.001Z</time></trkpt><trkpt lat="-31.809096520428323" lon="115.75446991848285"><ele>30.0</ele><time>2026-04-12T02:52:35.001Z</time></trkpt><trkpt lat="-31.80911023178989" lon="115.75458225257624"><ele>30.5</ele><time>2026-04-12T02:52:36.001Z</time></trkpt><trkpt lat="-31.80911023179243" lon="115.754688227016"><ele>31.0</ele><time>2026-04-12T02:52:37.001Z</time></trkpt><trkpt lat="-31.809110343200867" lon="115.7547896223589"><ele>31.5</ele><time>2026-04-12T02:52:38.001Z</time></trkpt><trkpt lat="-31.809111054934004" lon="115.75488966702827"><ele>32.0</ele><time>2026-04-12T02:52:39.001Z</time></trkpt><trkpt lat="-31.809111731219716" lon="115.75498472885378"><ele>32.5</ele><time>2026-04-12T02:52:40.001Z</time></trkpt><trkpt lat="-31.809112317032096" lon="115.75506707347644"><ele>33.0</ele><time>2026-04-12T02:52:41.001Z</time></trkpt><trkpt lat="-31.809113240798816" lon="115.75519692121446"><ele>33.5</ele><time>2026-04-12T02:52:43.001Z</time></trkpt><trkpt lat="-31.80911132589893" lon="115.75530850605385"><ele>34.0</ele><time>2026-04-12T02:52:45.001Z</time></trkpt><trkpt lat="-31.809047430081" lon="115.75536668117942"><ele>34.5</ele><time>2026-04-12T02:52:47.001Z</time></trkpt><trkpt lat="-31.80902680312686" lon="115.75543793319036"><ele>35.0</ele><time>2026-04-12T02:52:50.001Z</time></trkpt><trkpt lat="-31.808955159210175" lon="115.75553130020201"><ele>35.5</ele><time>2026-04-12T02:53:19Z</time></trkpt><trkpt lat="-31.808893567802876" lon="115.75555569056593"><ele>36.0</ele><time>2026-04-12T02:53:20Z</time></trkpt><trkpt lat="-31.808791733855976" lon="115.75557348790245"><ele>36.0</ele><time>2026-04-12T02:53:21Z</time></trkpt><trkpt lat="-31.808666399283627" lon="115.75559653131262"><ele>36.0</ele><time>2026-04-12T02:53:22Z</time></trkpt><trkpt lat="-31.80852161065618" lon="115.75561247817815"><ele>36.0</ele><time>2026-04-12T02:53:23Z</time></trkpt><trkpt lat="-31.808355163202684" lon="115.7556262775791"><ele>36.0</ele><time>2026-04-12T02:53:24Z</time></trkpt><trkpt lat="-31.808183046852424" lon="115.7556417721917"><ele>36.0</ele><time>2026-04-12T02:53:25.001Z</time></trkpt><trkpt lat="-31.80799084218989" lon="115.7556591917941"><ele>36.0</ele><time>2026-04-12T02:53:26.001Z</time></trkpt><trkpt lat="-31.80779369538921" lon="115.75568141447968"><ele>36.0</ele><time>2026-04-12T02:53:27.001Z</time></trkpt><trkpt lat="-31.807586627753587" lon="115.75570823160852"><ele>35.666666666666664</ele><time>2026-04-12T02:53:28.001Z</time></trkpt><trkpt lat="-31.80736652646998" lon="115.75573926817846"><ele>35.33333333333333</ele><time>2026-04-12T02:53:29.001Z</time></trkpt><trkpt lat="-31.80714273137806" lon="115.75577397103277"><ele>35.0</ele><time>2026-04-12T02:53:30.001Z</time></trkpt><trkpt lat="-31.806928129725026" lon="115.75580574760727"><ele>35.0</ele><time>2026-04-12T02:53:31.001Z</time></trkpt><trkpt lat="-31.806707709657854" lon="115.75583854319041"><ele>35.0</ele><time>2026-04-12T02:53:32.001Z</time></trkpt><trkpt lat="-31.806487320357004" lon="115.75587036643361"><ele>35.0</ele><time>2026-04-12T02:53:33.001Z</time></trkpt><trkpt lat="-31.806262332562394" lon="115.75589927446825"><ele>35.0</ele><time>2026-04-12T02:53:34.001Z</time></trkpt><trkpt lat="-31.806039043820093" lon="115.75592760789166"><ele>35.0</ele><time>2026-04-12T02:53:35.001Z</time></trkpt><trkpt lat="-31.805817671304535" lon="115.7559566657081"><ele>35.0</ele><time>2026-04-12T02:53:36.001Z</time></trkpt><trkpt lat="-31.805598707317248" lon="115.75598555106419"><ele>35.0</ele><time>2026-04-12T02:53:37.001Z</time></trkpt><trkpt lat="-31.80538123695938" lon="115.75601339692903"><ele>35.0</ele><time>2026-04-12T02:53:38.001Z</time></trkpt><trkpt lat="-31.805163501463817" lon="115.75603991893078"><ele>35.0</ele><time>2026-04-12T02:53:39.001Z</time></trkpt><trkpt lat="-31.804947689576608" lon="115.7560606955934"><ele>36.0</ele><time>2026-04-12T02:53:40.001Z</time></trkpt><trkpt lat="-31.804732226602997" lon="115.75606982209192"><ele>37.0</ele><time>2026-04-12T02:53:41.001Z</time></trkpt><trkpt lat="-31.804515592516438" lon="115.75606724464923"><ele>38.0</ele><time>2026-04-12T02:53:42.001Z</time></trkpt><trkpt lat="-31.8042987089687" lon="115.75605561454884"><ele>34.666666666666664</ele><time>2026-04-12T02:53:43.001Z</time></trkpt><trkpt lat="-31.804085303006918" lon="115.75603534121848"><ele>31.333333333333336</ele><time>2026-04-12T02:53:44.001Z</time></trkpt><trkpt lat="-31.803871003387037" lon="115.75600451742088"><ele>28.0</ele><time>2026-04-12T02:53:45.001Z</time></trkpt><trkpt lat="-31.803656145747397" lon="115.75595797990935"><ele>29.0</ele><time>2026-04-12T02:53:46.001Z</time></trkpt><trkpt lat="-31.803439379666926" lon="115.75589907851288"><ele>30.0</ele><time>2026-04-12T02:53:47.001Z</time></trkpt><trkpt lat="-31.80322453464037" lon="115.7558327907064"><ele>31.0</ele><time>2026-04-12T02:53:48.001Z</time></trkpt><trkpt lat="-31.80301275244984" lon="115.75575100317198"><ele>31.0</ele><time>2026-04-12T02:53:49.001Z</time></trkpt><trkpt lat="-31.802802856336307" lon="115.75566013985507"><ele>31.0</ele><time>2026-04-12T02:53:50.001Z</time></trkpt><trkpt lat="-31.802594049663824" lon="115.75555477067242"><ele>29.5</ele><time>2026-04-12T02:53:51.001Z</time></trkpt><trkpt lat="-31.802388037499014" lon="115.7554429820083"><ele>28.0</ele><time>2026-04-12T02:53:52.001Z</time></trkpt><trkpt lat="-31.802180604258762" lon="115.75532637778528"><ele>28.0</ele><time>2026-04-12T02:53:53.001Z</time></trkpt><trkpt lat="-31.80197471660272" lon="115.755205963139"><ele>28.0</ele><time>2026-04-12T02:53:54.001Z</time></trkpt><trkpt lat="-31.801767408442654" lon="115.75508176996864"><ele>27.5</ele><time>2026-04-12T02:53:55.001Z</time></trkpt><trkpt lat="-31.801558881786658" lon="115.75495953801415"><ele>27.0</ele><time>2026-04-12T02:53:56.001Z</time></trkpt><trkpt lat="-31.801354059856205" lon="115.75483716670784"><ele>27.0</ele><time>2026-04-12T02:53:57.001Z</time></trkpt><trkpt lat="-31.801155458994376" lon="115.75471835337619"><ele>27.0</ele><time>2026-04-12T02:53:58.001Z</time></trkpt><trkpt lat="-31.80096069901358" lon="115.75460482220983"><ele>27.0</ele><time>2026-04-12T02:53:59.001Z</time></trkpt><trkpt lat="-31.80076673052181" lon="115.7544978139731"><ele>27.333333333333336</ele><time>2026-04-12T02:54:00.001Z</time></trkpt><trkpt lat="-31.800575851259453" lon="115.75439526589952"><ele>27.666666666666668</ele><time>2026-04-12T02:54:01.001Z</time></trkpt><trkpt lat="-31.800388998377148" lon="115.75429937053018"><ele>28.0</ele><time>2026-04-12T02:54:02.001Z</time></trkpt><trkpt lat="-31.800212262853595" lon="115.75421133075666"><ele>28.0</ele><time>2026-04-12T02:54:03.001Z</time></trkpt><trkpt lat="-31.80004679842472" lon="115.7541352692425"><ele>28.0</ele><time>2026-04-12T02:54:04.001Z</time></trkpt><trkpt lat="-31.799885104481803" lon="115.75407309463297"><ele>28.0</ele><time>2026-04-12T02:54:05.001Z</time></trkpt><trkpt lat="-31.799727378940187" lon="115.75402522635157"><ele>28.0</ele><time>2026-04-12T02:54:06.001Z</time></trkpt><trkpt lat="-31.799568688496805" lon="115.75398664272412"><ele>28.0</ele><time>2026-04-12T02:54:07.001Z</time></trkpt><trkpt lat="-31.79941212174342" lon="115.75395067039688"><ele>28.0</ele><time>2026-04-12T02:54:08.001Z</time></trkpt><trkpt lat="-31.79925077387337" lon="115.75390923999184"><ele>27.333333333333336</ele><time>2026-04-12T02:54:09.001Z</time></trkpt><trkpt lat="-31.799090990952347" lon="115.75386883111207"><ele>26.666666666666664</ele><time>2026-04-12T02:54:10.001Z</time></trkpt><trkpt lat="-31.798923268859625" lon="115.75384270769304"><ele>26.0</ele><time>2026-04-12T02:54:11.001Z</time></trkpt><trkpt lat="-31.798755663168464" lon="115.7538241740051"><ele>26.0</ele><time>2026-04-12T02:54:12.001Z</time></trkpt><trkpt lat="-31.798583701953522" lon="115.75380570508018"><ele>26.0</ele><time>2026-04-12T02:54:13.001Z</time></trkpt><trkpt lat="-31.79841207968072" lon="115.75379332353715"><ele>26.0</ele><time>2026-04-12T02:54:14.001Z</time></trkpt><trkpt lat="-31.79823851459727" lon="115.75378908908665"><ele>27.0</ele><time>2026-04-12T02:54:15.001Z</time></trkpt><trkpt lat="-31.798063813226058" lon="115.75378974368444"><ele>28.0</ele><time>2026-04-12T02:54:16.001Z</time></trkpt><trkpt lat="-31.797886923798718" lon="115.753797050312"><ele>29.0</ele><time>2026-04-12T02:54:17.001Z</time></trkpt><trkpt lat="-31.797709978144535" lon="115.75381125127882"><ele>29.0</ele><time>2026-04-12T02:54:18.001Z</time></trkpt><trkpt lat="-31.797533437629703" lon="115.75383161506372"><ele>29.0</ele><time>2026-04-12T02:54:19.001Z</time></trkpt><trkpt lat="-31.797351771437263" lon="115.75385326406759"><ele>29.0</ele><time>2026-04-12T02:54:20.001Z</time></trkpt><trkpt lat="-31.797170499171052" lon="115.75387154224596"><ele>29.0</ele><time>2026-04-12T02:54:21.001Z</time></trkpt><trkpt lat="-31.79698720758749" lon="115.75388241337262"><ele>29.0</ele><time>2026-04-12T02:54:22.001Z</time></trkpt><trkpt lat="-31.796807496247215" lon="115.75388755272509"><ele>29.0</ele><time>2026-04-12T02:54:23.001Z</time></trkpt><trkpt lat="-31.796641826081856" lon="115.75389327070373"><ele>29.75</ele><time>2026-04-12T02:54:24.001Z</time></trkpt><trkpt lat="-31.796487171465383" lon="115.75390258042513"><ele>30.5</ele><time>2026-04-12T02:54:25.001Z</time></trkpt><trkpt lat="-31.7963430306181" lon="115.75391426014119"><ele>31.25</ele><time>2026-04-12T02:54:26.001Z</time></trkpt><trkpt lat="-31.796213382475237" lon="115.75392462349019"><ele>32.0</ele><time>2026-04-12T02:54:27.001Z</time></trkpt><trkpt lat="-31.796095477752605" lon="115.75392847663997"><ele>33.166666666666664</ele><time>2026-04-12T02:54:28.001Z</time></trkpt><trkpt lat="-31.795997111389596" lon="115.75392768772524"><ele>34.33333333333333</ele><time>2026-04-12T02:54:29.001Z</time></trkpt><trkpt lat="-31.79591452103964" lon="115.75393380082352"><ele>35.5</ele><time>2026-04-12T02:54:30.001Z</time></trkpt><trkpt lat="-31.795846405399086" lon="115.75394265488302"><ele>36.666666666666664</ele><time>2026-04-12T02:54:31.001Z</time></trkpt><trkpt lat="-31.79575019136156" lon="115.75395260038084"><ele>37.833333333333336</ele><time>2026-04-12T02:54:33.001Z</time></trkpt><trkpt lat="-31.795675940162102" lon="115.75395877444726"><ele>39.0</ele><time>2026-04-12T02:54:36.001Z</time></trkpt><trkpt lat="-31.795552186368457" lon="115.75398058970978"><ele>39.0</ele><time>2026-04-12T02:55:52.001Z</time></trkpt><trkpt lat="-31.79545556706213" lon="115.75399694195386"><ele>39.0</ele><time>2026-04-12T02:55:53.001Z</time></trkpt><trkpt lat="-31.795343630845014" lon="115.75401112678827"><ele>39.0</ele><time>2026-04-12T02:55:54.001Z</time></trkpt><trkpt lat="-31.795200766347044" lon="115.75402188555685"><ele>39.0</ele><time>2026-04-12T02:55:55.001Z</time></trkpt><trkpt lat="-31.795038746580357" lon="115.75403037000339"><ele>37.0</ele><time>2026-04-12T02:55:56.001Z</time></trkpt><trkpt lat="-31.79486118458637" lon="115.75404004624421"><ele>35.0</ele><time>2026-04-12T02:55:57.001Z</time></trkpt><trkpt lat="-31.79466492604167" lon="115.75405126941475"><ele>33.0</ele><time>2026-04-12T02:55:58.001Z</time></trkpt><trkpt lat="-31.794462724189692" lon="115.75406402582115"><ele>34.0</ele><time>2026-04-12T02:55:59.001Z</time></trkpt><trkpt lat="-31.794253552197947" lon="115.75407971466511"><ele>35.0</ele><time>2026-04-12T02:56:00.001Z</time></trkpt><trkpt lat="-31.794040855119043" lon="115.75409272312903"><ele>36.0</ele><time>2026-04-12T02:56:01.001Z</time></trkpt><trkpt lat="-31.79383780961743" lon="115.75410743628771"><ele>36.0</ele><time>2026-04-12T02:56:02.001Z</time></trkpt><trkpt lat="-31.793638347677746" lon="115.75412589387919"><ele>36.0</ele><time>2026-04-12T02:56:03.001Z</time></trkpt><trkpt lat="-31.793442475011442" lon="115.75414598818173"><ele>36.0</ele><time>2026-04-12T02:56:04.001Z</time></trkpt><trkpt lat="-31.793249093977245" lon="115.75416452569127"><ele>37.333333333333336</ele><time>2026-04-12T02:56:05.001Z</time></trkpt><trkpt lat="-31.793054557465133" lon="115.75418230639143"><ele>38.66666666666667</ele><time>2026-04-12T02:56:06.001Z</time></trkpt><trkpt lat="-31.792860175079973" lon="115.75420423832736"><ele>40.0</ele><time>2026-04-12T02:56:07.001Z</time></trkpt><trkpt lat="-31.7926690534731" lon="115.75423319642525"><ele>39.333333333333336</ele><time>2026-04-12T02:56:08.001Z</time></trkpt><trkpt lat="-31.792488219487105" lon="115.75427137244809"><ele>38.666666666666664</ele><time>2026-04-12T02:56:09.001Z</time></trkpt><trkpt lat="-31.79231096733093" lon="115.75431790587716"><ele>38.0</ele><time>2026-04-12T02:56:10.001Z</time></trkpt><trkpt lat="-31.792139377204204" lon="115.75437286734515"><ele>38.0</ele><time>2026-04-12T02:56:11.001Z</time></trkpt><trkpt lat="-31.79196272637988" lon="115.7544367312934"><ele>38.0</ele><time>2026-04-12T02:56:12.001Z</time></trkpt><trkpt lat="-31.791784089487788" lon="115.75450943577906"><ele>38.0</ele><time>2026-04-12T02:56:13.001Z</time></trkpt><trkpt lat="-31.791602583811173" lon="115.75459329573249"><ele>38.33333333333333</ele><time>2026-04-12T02:56:14.001Z</time></trkpt><trkpt lat="-31.791420482964487" lon="115.75469037373499"><ele>38.666666666666664</ele><time>2026-04-12T02:56:15.001Z</time></trkpt><trkpt lat="-31.791240052047442" lon="115.75480012650452"><ele>39.0</ele><time>2026-04-12T02:56:16.001Z</time></trkpt><trkpt lat="-31.7910581949157" lon="115.75492026626355"><ele>39.0</ele><time>2026-04-12T02:56:17.001Z</time></trkpt><trkpt lat="-31.79087051188188" lon="115.75504572174964"><ele>39.0</ele><time>2026-04-12T02:56:18.001Z</time></trkpt><trkpt lat="-31.790679195910496" lon="115.75517432763708"><ele>39.0</ele><time>2026-04-12T02:56:19.001Z</time></trkpt><trkpt lat="-31.790492275311408" lon="115.75530380946232"><ele>39.0</ele><time>2026-04-12T02:56:20.001Z</time></trkpt><trkpt lat="-31.79031821876717" lon="115.75542066989372"><ele>39.0</ele><time>2026-04-12T02:56:21.001Z</time></trkpt><trkpt lat="-31.790151618646377" lon="115.75553241921637"><ele>39.0</ele><time>2026-04-12T02:56:22.001Z</time></trkpt><trkpt lat="-31.7899880710914" lon="115.75563913083302"><ele>39.333333333333336</ele><time>2026-04-12T02:56:23.001Z</time></trkpt><trkpt lat="-31.789824679327726" lon="115.75574401884363"><ele>39.66666666666667</ele><time>2026-04-12T02:56:24.001Z</time></trkpt><trkpt lat="-31.789660717207102" lon="115.75585203252204"><ele>40.0</ele><time>2026-04-12T02:56:25.001Z</time></trkpt><trkpt lat="-31.789495891272978" lon="115.755962538906"><ele>39.66666666666667</ele><time>2026-04-12T02:56:26.001Z</time></trkpt><trkpt lat="-31.789326851065066" lon="115.75607190336886"><ele>39.333333333333336</ele><time>2026-04-12T02:56:27.001Z</time></trkpt><trkpt lat="-31.78915482726141" lon="115.7561780137577"><ele>39.0</ele><time>2026-04-12T02:56:28.001Z</time></trkpt><trkpt lat="-31.788978054638335" lon="115.75628053763633"><ele>39.0</ele><time>2026-04-12T02:56:29.001Z</time></trkpt><trkpt lat="-31.788793702702357" lon="115.75636878924507"><ele>39.0</ele><time>2026-04-12T02:56:30.001Z</time></trkpt><trkpt lat="-31.788608283222718" lon="115.7564465640374"><ele>39.0</ele><time>2026-04-12T02:56:31.001Z</time></trkpt><trkpt lat="-31.788427418964833" lon="115.75651141332328"><ele>39.333333333333336</ele><time>2026-04-12T02:56:32.001Z</time></trkpt><trkpt lat="-31.788253632071697" lon="115.7565634922939"><ele>39.66666666666667</ele><time>2026-04-12T02:56:33.001Z</time></trkpt><trkpt lat="-31.788089398649333" lon="115.75660660234875"><ele>40.0</ele><time>2026-04-12T02:56:34.001Z</time></trkpt><trkpt lat="-31.78793516252623" lon="115.75664209178652"><ele>40.0</ele><time>2026-04-12T02:56:35.001Z</time></trkpt><trkpt lat="-31.787796754540295" lon="115.75666751000063"><ele>40.0</ele><time>2026-04-12T02:56:36.001Z</time></trkpt><trkpt lat="-31.787672055317746" lon="115.75668748356057"><ele>40.0</ele><time>2026-04-12T02:56:37.001Z</time></trkpt><trkpt lat="-31.78757151085214" lon="115.75670924861296"><ele>40.0</ele><time>2026-04-12T02:56:38.001Z</time></trkpt><trkpt lat="-31.78749063091957" lon="115.75669329649978"><ele>40.0</ele><time>2026-04-12T02:56:39.001Z</time></trkpt><trkpt lat="-31.787426428408885" lon="115.7567981624516"><ele>40.0</ele><time>2026-04-12T02:56:40.001Z</time></trkpt><trkpt lat="-31.787371208277797" lon="115.7568817355602"><ele>40.0</ele><time>2026-04-12T02:56:41.001Z</time></trkpt><trkpt lat="-31.787335388544374" lon="115.75698511894487"><ele>40.0</ele><time>2026-04-12T02:56:42.001Z</time></trkpt><trkpt lat="-31.787320688659484" lon="115.75710559498837"><ele>40.0</ele><time>2026-04-12T02:56:43.001Z</time></trkpt><trkpt lat="-31.78732582166894" lon="115.75724820960609"><ele>39.5</ele><time>2026-04-12T02:56:44.001Z</time></trkpt><trkpt lat="-31.787335971353183" lon="115.75741570896994"><ele>39.0</ele><time>2026-04-12T02:56:45.001Z</time></trkpt><trkpt lat="-31.787341406291887" lon="115.75759597101022"><ele>38.5</ele><time>2026-04-12T02:56:46.001Z</time></trkpt><trkpt lat="-31.787343357635542" lon="115.75776574323167"><ele>38.0</ele><time>2026-04-12T02:56:47.001Z</time></trkpt><trkpt lat="-31.78734743220818" lon="115.75795343315124"><ele>38.8</ele><time>2026-04-12T02:56:48.001Z</time></trkpt><trkpt lat="-31.787351282510656" lon="115.7581134985239"><ele>39.599999999999994</ele><time>2026-04-12T02:56:49.001Z</time></trkpt><trkpt lat="-31.78735008362632" lon="115.75826132770682"><ele>40.400000000000006</ele><time>2026-04-12T02:56:50.001Z</time></trkpt><trkpt lat="-31.787350304911094" lon="115.75837982062599"><ele>41.2</ele><time>2026-04-12T02:56:51.001Z</time></trkpt><trkpt lat="-31.787349522860108" lon="115.75847042438356"><ele>42.0</ele><time>2026-04-12T02:56:52.001Z</time></trkpt><trkpt lat="-31.7873436999705" lon="115.7585745110858"><ele>42.25</ele><time>2026-04-12T02:56:54.001Z</time></trkpt><trkpt lat="-31.787198709108065" lon="115.75861558334978"><ele>42.5</ele><time>2026-04-12T02:56:56.001Z</time></trkpt><trkpt lat="-31.787104771289854" lon="115.75860917121419"><ele>42.75</ele><time>2026-04-12T02:56:57.001Z</time></trkpt><trkpt lat="-31.78699627261477" lon="115.75859784503834"><ele>43.0</ele><time>2026-04-12T02:56:58.001Z</time></trkpt><trkpt lat="-31.786876802905738" lon="115.75858949325988"><ele>43.0</ele><time>2026-04-12T02:56:59.001Z</time></trkpt><trkpt lat="-31.786755079657393" lon="115.75858983313795"><ele>43.0</ele><time>2026-04-12T02:57:00.001Z</time></trkpt><trkpt lat="-31.786639993200946" lon="115.75858589260723"><ele>43.0</ele><time>2026-04-12T02:57:01.001Z</time></trkpt><trkpt lat="-31.786525658663937" lon="115.75857804284385"><ele>43.0</ele><time>2026-04-12T02:57:02.001Z</time></trkpt><trkpt lat="-31.786408808851757" lon="115.7585770422098"><ele>43.0</ele><time>2026-04-12T02:57:03.001Z</time></trkpt><trkpt lat="-31.78630846825195" lon="115.75857896521732"><ele>43.0</ele><time>2026-04-12T02:57:04.001Z</time></trkpt><trkpt lat="-31.786198210342153" lon="115.75858429095159"><ele>43.0</ele><time>2026-04-12T02:57:05.001Z</time></trkpt><trkpt lat="-31.786086192261784" lon="115.75858913035849"><ele>43.0</ele><time>2026-04-12T02:57:06.001Z</time></trkpt><trkpt lat="-31.785968846907025" lon="115.75854446654064"><ele>43.0</ele><time>2026-04-12T02:57:07.001Z</time></trkpt><trkpt lat="-31.785843589377922" lon="115.75857505196743"><ele>43.333333333333336</ele><time>2026-04-12T02:57:08.001Z</time></trkpt><trkpt lat="-31.785709112744957" lon="115.75859484857442"><ele>43.666666666666664</ele><time>2026-04-12T02:57:09.001Z</time></trkpt><trkpt lat="-31.78555762828565" lon="115.7585716542067"><ele>44.0</ele><time>2026-04-12T02:57:10.001Z</time></trkpt><trkpt lat="-31.785383175747466" lon="115.75858378822768"><ele>44.0</ele><time>2026-04-12T02:57:11.001Z</time></trkpt><trkpt lat="-31.785204102600883" lon="115.75857902726814"><ele>44.0</ele><time>2026-04-12T02:57:12.001Z</time></trkpt><trkpt lat="-31.785034831246765" lon="115.75857946612663"><ele>44.0</ele><time>2026-04-12T02:57:13.001Z</time></trkpt><trkpt lat="-31.78487607590574" lon="115.75858689295285"><ele>43.5</ele><time>2026-04-12T02:57:14.001Z</time></trkpt><trkpt lat="-31.78473828178559" lon="115.75861482730504"><ele>43.0</ele><time>2026-04-12T02:57:15.001Z</time></trkpt><trkpt lat="-31.78459954604498" lon="115.7586598535245"><ele>42.5</ele><time>2026-04-12T02:57:16.001Z</time></trkpt><trkpt lat="-31.78444916771298" lon="115.75872585101325"><ele>42.0</ele><time>2026-04-12T02:57:17.001Z</time></trkpt><trkpt lat="-31.784310046226814" lon="115.75880972168589"><ele>38.0</ele><time>2026-04-12T02:57:18.001Z</time></trkpt><trkpt lat="-31.784179924472642" lon="115.75890332562867"><ele>34.0</ele><time>2026-04-12T02:57:19.001Z</time></trkpt><trkpt lat="-31.784048906025603" lon="115.7590168251658"><ele>30.0</ele><time>2026-04-12T02:57:20.001Z</time></trkpt><trkpt lat="-31.78392267977316" lon="115.75914533786896"><ele>30.0</ele><time>2026-04-12T02:57:21.001Z</time></trkpt><trkpt lat="-31.783816656836585" lon="115.75928499734643"><ele>30.0</ele><time>2026-04-12T02:57:22.001Z</time></trkpt><trkpt lat="-31.783741678108452" lon="115.75944044177518"><ele>30.0</ele><time>2026-04-12T02:57:23.001Z</time></trkpt><trkpt lat="-31.78366771262881" lon="115.759583770816"><ele>30.2</ele><time>2026-04-12T02:57:24.001Z</time></trkpt><trkpt lat="-31.783608374513655" lon="115.75972434468332"><ele>30.4</ele><time>2026-04-12T02:57:25.001Z</time></trkpt><trkpt lat="-31.783551195325163" lon="115.75984130458018"><ele>30.6</ele><time>2026-04-12T02:57:26.001Z</time></trkpt><trkpt lat="-31.783526288680328" lon="115.75994511638271"><ele>30.8</ele><time>2026-04-12T02:57:27.001Z</time></trkpt><trkpt lat="-31.783511834533826" lon="115.7600177338268"><ele>31.0</ele><time>2026-04-12T02:57:28.001Z</time></trkpt><trkpt lat="-31.78347172345457" lon="115.76013432252995"><ele>28.333333333333336</ele><time>2026-04-12T02:57:30.001Z</time></trkpt><trkpt lat="-31.783230613784504" lon="115.7600514969774"><ele>25.666666666666668</ele><time>2026-04-12T02:57:32.001Z</time></trkpt><trkpt lat="-31.78311234073654" lon="115.759995152121"><ele>23.0</ele><time>2026-04-12T02:57:33.001Z</time></trkpt><trkpt lat="-31.782963918670003" lon="115.75992262766155"><ele>23.0</ele><time>2026-04-12T02:57:34.001Z</time></trkpt><trkpt lat="-31.782795655437745" lon="115.75984838796481"><ele>23.0</ele><time>2026-04-12T02:57:35.001Z</time></trkpt><trkpt lat="-31.78260414719219" lon="115.75976690358537"><ele>23.0</ele><time>2026-04-12T02:57:36.001Z</time></trkpt><trkpt lat="-31.78239921091345" lon="115.75968066537642"><ele>23.666666666666668</ele><time>2026-04-12T02:57:37.001Z</time></trkpt><trkpt lat="-31.782199337981044" lon="115.75959484341516"><ele>24.333333333333336</ele><time>2026-04-12T02:57:38.001Z</time></trkpt><trkpt lat="-31.78201969373299" lon="115.75951615482496"><ele>25.0</ele><time>2026-04-12T02:57:39.001Z</time></trkpt><trkpt lat="-31.78186050113414" lon="115.7594440984488"><ele>25.4</ele><time>2026-04-12T02:57:40.001Z</time></trkpt><trkpt lat="-31.78172830591574" lon="115.75938232425152"><ele>25.8</ele><time>2026-04-12T02:57:41.001Z</time></trkpt><trkpt lat="-31.781618439257922" lon="115.75932910313091"><ele>26.200000000000003</ele><time>2026-04-12T02:57:42.001Z</time></trkpt><trkpt lat="-31.781533101021186" lon="115.75928465233324"><ele>26.6</ele><time>2026-04-12T02:57:43.001Z</time></trkpt><trkpt lat="-31.78147301069927" lon="115.7592428140499"><ele>27.0</ele><time>2026-04-12T02:57:44.001Z</time></trkpt><trkpt lat="-31.781380517780498" lon="115.7591495688339"><ele>27.0</ele><time>2026-04-12T02:57:46.001Z</time></trkpt><trkpt lat="-31.781270778785522" lon="115.75914160231999"><ele>27.000000000000004</ele><time>2026-04-12T02:57:48.001Z</time></trkpt><trkpt lat="-31.78121583527456" lon="115.7592160363384"><ele>27.000000000000004</ele><time>2026-04-12T02:57:49.001Z</time></trkpt><trkpt lat="-31.78119756671825" lon="115.75933504129428"><ele>27.0</ele><time>2026-04-12T02:57:50.001Z</time></trkpt><trkpt lat="-31.781174024505404" lon="115.75945453555771"><ele>27.0</ele><time>2026-04-12T02:57:51.001Z</time></trkpt><trkpt lat="-31.781140839683584" lon="115.75959232030031"><ele>27.0</ele><time>2026-04-12T02:57:52.001Z</time></trkpt><trkpt lat="-31.781088768981416" lon="115.75975476361486"><ele>27.0</ele><time>2026-04-12T02:57:53.001Z</time></trkpt><trkpt lat="-31.781029775015796" lon="115.75993587884369"><ele>27.0</ele><time>2026-04-12T02:57:54.001Z</time></trkpt><trkpt lat="-31.780968747941586" lon="115.76012450939673"><ele>28.666666666666664</ele><time>2026-04-12T02:57:55.001Z</time></trkpt><trkpt lat="-31.780905322369247" lon="115.76032452789754"><ele>30.333333333333332</ele><time>2026-04-12T02:57:56.001Z</time></trkpt><trkpt lat="-31.780837999671526" lon="115.76053227585324"><ele>32.0</ele><time>2026-04-12T02:57:57.001Z</time></trkpt><trkpt lat="-31.780773061938884" lon="115.76073664220505"><ele>32.0</ele><time>2026-04-12T02:57:58.001Z</time></trkpt><trkpt lat="-31.780709215282254" lon="115.76093109715283"><ele>32.0</ele><time>2026-04-12T02:57:59.001Z</time></trkpt><trkpt lat="-31.780648040103316" lon="115.76111356266806"><ele>32.0</ele><time>2026-04-12T02:58:00.001Z</time></trkpt><trkpt lat="-31.780585834414218" lon="115.76130243292447"><ele>33.0</ele><time>2026-04-12T02:58:01.001Z</time></trkpt><trkpt lat="-31.780525791719356" lon="115.76149644985072"><ele>34.0</ele><time>2026-04-12T02:58:02.001Z</time></trkpt><trkpt lat="-31.780466025332874" lon="115.76169144774593"><ele>35.0</ele><time>2026-04-12T02:58:03.001Z</time></trkpt><trkpt lat="-31.780406162601192" lon="115.7618815716313"><ele>36.0</ele><time>2026-04-12T02:58:04.001Z</time></trkpt><trkpt lat="-31.780341033092437" lon="115.76207311242412"><ele>37.0</ele><time>2026-04-12T02:58:05.001Z</time></trkpt><trkpt lat="-31.78027662750293" lon="115.76226917435271"><ele>38.0</ele><time>2026-04-12T02:58:06.001Z</time></trkpt><trkpt lat="-31.780210214436085" lon="115.76248051618064"><ele>36.666666666666664</ele><time>2026-04-12T02:58:07.001Z</time></trkpt><trkpt lat="-31.780142238984897" lon="115.76268807713394"><ele>35.333333333333336</ele><time>2026-04-12T02:58:08.001Z</time></trkpt><trkpt lat="-31.780074461697208" lon="115.7628949032777"><ele>34.0</ele><time>2026-04-12T02:58:09.001Z</time></trkpt><trkpt lat="-31.78001277254557" lon="115.76309875136461"><ele>34.0</ele><time>2026-04-12T02:58:10.001Z</time></trkpt><trkpt lat="-31.779948395250234" lon="115.76329699949169"><ele>34.0</ele><time>2026-04-12T02:58:11.001Z</time></trkpt><trkpt lat="-31.779887727586647" lon="115.76349088551969"><ele>34.0</ele><time>2026-04-12T02:58:12.001Z</time></trkpt><trkpt lat="-31.779823529841348" lon="115.76367537750544"><ele>35.0</ele><time>2026-04-12T02:58:13.001Z</time></trkpt><trkpt lat="-31.77976147939851" lon="115.76385670032914"><ele>36.0</ele><time>2026-04-12T02:58:14.001Z</time></trkpt><trkpt lat="-31.779705803395103" lon="115.76404041585582"><ele>37.0</ele><time>2026-04-12T02:58:15.001Z</time></trkpt><trkpt lat="-31.779651142093947" lon="115.76423349880254"><ele>35.333333333333336</ele><time>2026-04-12T02:58:16.001Z</time></trkpt><trkpt lat="-31.779591535085164" lon="115.76443696271888"><ele>33.666666666666664</ele><time>2026-04-12T02:58:17.001Z</time></trkpt><trkpt lat="-31.779523273958226" lon="115.76463865123887"><ele>32.0</ele><time>2026-04-12T02:58:18.001Z</time></trkpt><trkpt lat="-31.779451859165132" lon="115.76485824872726"><ele>32.0</ele><time>2026-04-12T02:58:19.001Z</time></trkpt><trkpt lat="-31.77938419859133" lon="115.76507029809208"><ele>32.0</ele><time>2026-04-12T02:58:20.001Z</time></trkpt><trkpt lat="-31.77931552826406" lon="115.76529053124031"><ele>32.0</ele><time>2026-04-12T02:58:21.001Z</time></trkpt><trkpt lat="-31.77925341158983" lon="115.76549671094759"><ele>30.333333333333332</ele><time>2026-04-12T02:58:22.001Z</time></trkpt><trkpt lat="-31.779194149173392" lon="115.76569038405619"><ele>28.666666666666664</ele><time>2026-04-12T02:58:23.001Z</time></trkpt><trkpt lat="-31.779138965759937" lon="115.7658737970898"><ele>27.0</ele><time>2026-04-12T02:58:24.001Z</time></trkpt><trkpt lat="-31.77909115650789" lon="115.76603474040967"><ele>26.666666666666668</ele><time>2026-04-12T02:58:25.001Z</time></trkpt><trkpt lat="-31.779050350329356" lon="115.76617066635266"><ele>26.333333333333336</ele><time>2026-04-12T02:58:26.001Z</time></trkpt><trkpt lat="-31.779014307606527" lon="115.76627428378657"><ele>26.0</ele><time>2026-04-12T02:58:27.001Z</time></trkpt><trkpt lat="-31.778983625242077" lon="115.76633954632783"><ele>25.666666666666668</ele><time>2026-04-12T02:58:28.001Z</time></trkpt><trkpt lat="-31.778932608392875" lon="115.7664068769207"><ele>25.333333333333336</ele><time>2026-04-12T02:58:34.001Z</time></trkpt><trkpt lat="-31.77887417371996" lon="115.76643740422784"><ele>25.0</ele><time>2026-04-12T02:58:35.001Z</time></trkpt><trkpt lat="-31.778803497071564" lon="115.76647906241688"><ele>25.0</ele><time>2026-04-12T02:58:36.001Z</time></trkpt><trkpt lat="-31.778687851318487" lon="115.76641114710529"><ele>25.0</ele><time>2026-04-12T02:58:37.001Z</time></trkpt><trkpt lat="-31.77857736875172" lon="115.76637209014652"><ele>25.0</ele><time>2026-04-12T02:58:38.001Z</time></trkpt><trkpt lat="-31.778475515969053" lon="115.76633505245688"><ele>25.0</ele><time>2026-04-12T02:58:39.001Z</time></trkpt><trkpt lat="-31.77838924748534" lon="115.76631502743005"><ele>25.0</ele><time>2026-04-12T02:58:40.001Z</time></trkpt><trkpt lat="-31.778303070073513" lon="115.76629995696351"><ele>26.2</ele><time>2026-04-12T02:58:41.001Z</time></trkpt><trkpt lat="-31.77821426158536" lon="115.76628400393439"><ele>27.4</ele><time>2026-04-12T02:58:42.001Z</time></trkpt><trkpt lat="-31.778125374098966" lon="115.76627415898884"><ele>28.6</ele><time>2026-04-12T02:58:43.001Z</time></trkpt><trkpt lat="-31.778034547783765" lon="115.7662760766901"><ele>29.8</ele><time>2026-04-12T02:58:44.001Z</time></trkpt><trkpt lat="-31.777938082448163" lon="115.76628459738554"><ele>31.0</ele><time>2026-04-12T02:58:45.001Z</time></trkpt><trkpt lat="-31.77783575863791" lon="115.766294927481"><ele>31.0</ele><time>2026-04-12T02:58:46.001Z</time></trkpt><trkpt lat="-31.77773317401192" lon="115.76630469246034"><ele>31.0</ele><time>2026-04-12T02:58:47.001Z</time></trkpt><trkpt lat="-31.77762690553669" lon="115.766318525907"><ele>31.0</ele><time>2026-04-12T02:58:48.001Z</time></trkpt><trkpt lat="-31.77751126888572" lon="115.76633924602275"><ele>31.0</ele><time>2026-04-12T02:58:49.001Z</time></trkpt><trkpt lat="-31.777391176090013" lon="115.76637023827286"><ele>31.75</ele><time>2026-04-12T02:58:50.001Z</time></trkpt><trkpt lat="-31.77727619279182" lon="115.76640791505955"><ele>32.5</ele><time>2026-04-12T02:58:51.001Z</time></trkpt><trkpt lat="-31.777164102710756" lon="115.7664541737378"><ele>33.25</ele><time>2026-04-12T02:58:52.001Z</time></trkpt><trkpt lat="-31.777054460836002" lon="115.76651069509994"><ele>34.0</ele><time>2026-04-12T02:58:53.001Z</time></trkpt><trkpt lat="-31.776943282340486" lon="115.76656915438748"><ele>33.0</ele><time>2026-04-12T02:58:54.001Z</time></trkpt><trkpt lat="-31.776832575473687" lon="115.76663117056779"><ele>32.0</ele><time>2026-04-12T02:58:55.001Z</time></trkpt><trkpt lat="-31.7767262225152" lon="115.7666966395701"><ele>31.0</ele><time>2026-04-12T02:58:56.001Z</time></trkpt><trkpt lat="-31.77662806609318" lon="115.76676681497845"><ele>30.0</ele><time>2026-04-12T02:58:57.001Z</time></trkpt><trkpt lat="-31.77652981626474" lon="115.76683726492497"><ele>29.5</ele><time>2026-04-12T02:58:58.001Z</time></trkpt><trkpt lat="-31.776427653981713" lon="115.76690940706524"><ele>29.0</ele><time>2026-04-12T02:58:59.001Z</time></trkpt><trkpt lat="-31.776322127934357" lon="115.76697623365484"><ele>28.5</ele><time>2026-04-12T02:59:00.001Z</time></trkpt><trkpt lat="-31.776216950335726" lon="115.76704587935822"><ele>28.0</ele><time>2026-04-12T02:59:01.001Z</time></trkpt><trkpt lat="-31.776110309598074" lon="115.76711286189773"><ele>27.0</ele><time>2026-04-12T02:59:02.001Z</time></trkpt><trkpt lat="-31.77600233287789" lon="115.76717796185282"><ele>26.0</ele><time>2026-04-12T02:59:03.001Z</time></trkpt><trkpt lat="-31.775889146392025" lon="115.76724629089638"><ele>25.0</ele><time>2026-04-12T02:59:04.001Z</time></trkpt><trkpt lat="-31.775768171301195" lon="115.7673194456309"><ele>24.0</ele><time>2026-04-12T02:59:05.001Z</time></trkpt><trkpt lat="-31.775643438447187" lon="115.76738617939661"><ele>24.0</ele><time>2026-04-12T02:59:06.001Z</time></trkpt><trkpt lat="-31.775521267781045" lon="115.76744521339278"><ele>24.0</ele><time>2026-04-12T02:59:07.001Z</time></trkpt><trkpt lat="-31.77539939719895" lon="115.76749484464015"><ele>24.0</ele><time>2026-04-12T02:59:08.001Z</time></trkpt><trkpt lat="-31.775270859366028" lon="115.76753514802996"><ele>24.0</ele><time>2026-04-12T02:59:09.001Z</time></trkpt><trkpt lat="-31.775138963379945" lon="115.76756976364484"><ele>23.25</ele><time>2026-04-12T02:59:10.001Z</time></trkpt><trkpt lat="-31.775002688390806" lon="115.76759336870559"><ele>22.5</ele><time>2026-04-12T02:59:11.001Z</time></trkpt><trkpt lat="-31.774862671617214" lon="115.7676051374706"><ele>21.75</ele><time>2026-04-12T02:59:12.001Z</time></trkpt><trkpt lat="-31.774721983129037" lon="115.76760676550475"><ele>21.0</ele><time>2026-04-12T02:59:13.001Z</time></trkpt><trkpt lat="-31.7745852883317" lon="115.76759950706473"><ele>21.0</ele><time>2026-04-12T02:59:14.001Z</time></trkpt><trkpt lat="-31.77446139475074" lon="115.76758398138166"><ele>21.0</ele><time>2026-04-12T02:59:15.001Z</time></trkpt><trkpt lat="-31.774340658922746" lon="115.76756438598706"><ele>21.0</ele><time>2026-04-12T02:59:16.001Z</time></trkpt><trkpt lat="-31.774229407080917" lon="115.76754375527533"><ele>21.0</ele><time>2026-04-12T02:59:17.001Z</time></trkpt><trkpt lat="-31.77412252061117" lon="115.76752367427444"><ele>20.8</ele><time>2026-04-12T02:59:18.001Z</time></trkpt><trkpt lat="-31.774021518567775" lon="115.76750500999988"><ele>20.6</ele><time>2026-04-12T02:59:19.001Z</time></trkpt><trkpt lat="-31.77391991700083" lon="115.76748681534387"><ele>20.4</ele><time>2026-04-12T02:59:20.001Z</time></trkpt><trkpt lat="-31.773811190149807" lon="115.76746759345981"><ele>20.2</ele><time>2026-04-12T02:59:21.001Z</time></trkpt><trkpt lat="-31.77369422029393" lon="115.76744942035444"><ele>20.0</ele><time>2026-04-12T02:59:22.001Z</time></trkpt><trkpt lat="-31.773567105225368" lon="115.76742489259027"><ele>20.0</ele><time>2026-04-12T02:59:23.001Z</time></trkpt><trkpt lat="-31.77343173599555" lon="115.76739673389662"><ele>20.0</ele><time>2026-04-12T02:59:24.001Z</time></trkpt><trkpt lat="-31.773293231597606" lon="115.76736134014722"><ele>20.0</ele><time>2026-04-12T02:59:25.001Z</time></trkpt><trkpt lat="-31.773155182892527" lon="115.76732602592163"><ele>20.0</ele><time>2026-04-12T02:59:26.001Z</time></trkpt><trkpt lat="-31.77302206011441" lon="115.76729765229577"><ele>20.0</ele><time>2026-04-12T02:59:27.001Z</time></trkpt><trkpt lat="-31.772890935181024" lon="115.76727339551313"><ele>20.0</ele><time>2026-04-12T02:59:28.001Z</time></trkpt><trkpt lat="-31.77275902323144" lon="115.76725123841875"><ele>20.0</ele><time>2026-04-12T02:59:29.001Z</time></trkpt><trkpt lat="-31.77262080874121" lon="115.76722529086554"><ele>20.0</ele><time>2026-04-12T02:59:30.001Z</time></trkpt><trkpt lat="-31.772485815265558" lon="115.76719920860168"><ele>20.75</ele><time>2026-04-12T02:59:31.001Z</time></trkpt><trkpt lat="-31.772360491201" lon="115.76717915991713"><ele>21.5</ele><time>2026-04-12T02:59:32.001Z</time></trkpt><trkpt lat="-31.772243217762565" lon="115.76716023024"><ele>22.25</ele><time>2026-04-12T02:59:33.001Z</time></trkpt><trkpt lat="-31.77213017753545" lon="115.76714594900128"><ele>23.0</ele><time>2026-04-12T02:59:34.001Z</time></trkpt><trkpt lat="-31.772018611907207" lon="115.76713720503932"><ele>23.0</ele><time>2026-04-12T02:59:35.001Z</time></trkpt><trkpt lat="-31.771902645375583" lon="115.76713875763521"><ele>23.0</ele><time>2026-04-12T02:59:36.001Z</time></trkpt><trkpt lat="-31.771778735415317" lon="115.76715222885466"><ele>23.0</ele><time>2026-04-12T02:59:37.001Z</time></trkpt><trkpt lat="-31.771660403884347" lon="115.7671668335392"><ele>23.0</ele><time>2026-04-12T02:59:38.001Z</time></trkpt><trkpt lat="-31.77154697685749" lon="115.76718251861347"><ele>22.75</ele><time>2026-04-12T02:59:39.001Z</time></trkpt><trkpt lat="-31.771428965753834" lon="115.76720811357374"><ele>22.5</ele><time>2026-04-12T02:59:40.001Z</time></trkpt><trkpt lat="-31.77130360313089" lon="115.76724387785468"><ele>22.25</ele><time>2026-04-12T02:59:41.001Z</time></trkpt><trkpt lat="-31.771186281121523" lon="115.76728995336106"><ele>22.0</ele><time>2026-04-12T02:59:42.001Z</time></trkpt><trkpt lat="-31.771077764263886" lon="115.76734030581753"><ele>21.8</ele><time>2026-04-12T02:59:43.001Z</time></trkpt><trkpt lat="-31.770975188351745" lon="115.76739446419448"><ele>21.6</ele><time>2026-04-12T02:59:44.001Z</time></trkpt><trkpt lat="-31.770878367117877" lon="115.76745190480608"><ele>21.400000000000002</ele><time>2026-04-12T02:59:45.001Z</time></trkpt><trkpt lat="-31.770784979284095" lon="115.76751041940797"><ele>21.200000000000003</ele><time>2026-04-12T02:59:46.001Z</time></trkpt><trkpt lat="-31.77069612161539" lon="115.76757034799623"><ele>21.0</ele><time>2026-04-12T02:59:47.001Z</time></trkpt><trkpt lat="-31.770611534769063" lon="115.76763173945275"><ele>21.0</ele><time>2026-04-12T02:59:48.001Z</time></trkpt><trkpt lat="-31.77053007646881" lon="115.76769327341245"><ele>21.0</ele><time>2026-04-12T02:59:49.001Z</time></trkpt><trkpt lat="-31.77045074806392" lon="115.76775295629378"><ele>21.0</ele><time>2026-04-12T02:59:50.001Z</time></trkpt><trkpt lat="-31.770375042660692" lon="115.76781032985598"><ele>21.0</ele><time>2026-04-12T02:59:51.001Z</time></trkpt><trkpt lat="-31.770309211895356" lon="115.76785995514312"><ele>21.0</ele><time>2026-04-12T02:59:52.001Z</time></trkpt><trkpt lat="-31.770233070305565" lon="115.76792478742014"><ele>20.400000000000002</ele><time>2026-04-12T02:59:54.001Z</time></trkpt><trkpt lat="-31.770130261879693" lon="115.7680026214987"><ele>19.8</ele><time>2026-04-12T03:00:58.001Z</time></trkpt><trkpt lat="-31.770071424127366" lon="115.76804969832693"><ele>19.200000000000003</ele><time>2026-04-12T03:00:59.001Z</time></trkpt><trkpt lat="-31.76999321598925" lon="115.7681078434232"><ele>18.6</ele><time>2026-04-12T03:01:00.001Z</time></trkpt><trkpt lat="-31.769906397714482" lon="115.76817223332297"><ele>18.0</ele><time>2026-04-12T03:01:01.001Z</time></trkpt><trkpt lat="-31.76982054780021" lon="115.76824041035978"><ele>18.0</ele><time>2026-04-12T03:01:02.001Z</time></trkpt><trkpt lat="-31.76973254110732" lon="115.7683139076185"><ele>18.0</ele><time>2026-04-12T03:01:03.001Z</time></trkpt><trkpt lat="-31.76963459810388" lon="115.76838891067445"><ele>18.0</ele><time>2026-04-12T03:01:04.001Z</time></trkpt><trkpt lat="-31.769535059231117" lon="115.76846704961636"><ele>18.0</ele><time>2026-04-12T03:01:05.001Z</time></trkpt><trkpt lat="-31.769429221164675" lon="115.76855314413103"><ele>17.0</ele><time>2026-04-12T03:01:06.001Z</time></trkpt><trkpt lat="-31.769225212036343" lon="115.76873481154597"><ele>16.0</ele><time>2026-04-12T03:01:08.001Z</time></trkpt><trkpt lat="-31.769124135382473" lon="115.7688233351324"><ele>15.0</ele><time>2026-04-12T03:01:09.001Z</time></trkpt><trkpt lat="-31.769018463881444" lon="115.76891652441277"><ele>15.0</ele><time>2026-04-12T03:01:10.001Z</time></trkpt><trkpt lat="-31.768916321881324" lon="115.76901582296695"><ele>15.0</ele><time>2026-04-12T03:01:11.001Z</time></trkpt><trkpt lat="-31.768809352163853" lon="115.76911335145094"><ele>15.0</ele><time>2026-04-12T03:01:12.001Z</time></trkpt><trkpt lat="-31.768685058579322" lon="115.76921731969067"><ele>15.0</ele><time>2026-04-12T03:01:13.001Z</time></trkpt><trkpt lat="-31.768563817017814" lon="115.76932496191853"><ele>14.75</ele><time>2026-04-12T03:01:14.001Z</time></trkpt><trkpt lat="-31.76844867996023" lon="115.76942462141427"><ele>14.5</ele><time>2026-04-12T03:01:15.001Z</time></trkpt><trkpt lat="-31.76833157634001" lon="115.76952308358948"><ele>14.25</ele><time>2026-04-12T03:01:16.001Z</time></trkpt><trkpt lat="-31.768219583220304" lon="115.76961633344132"><ele>14.0</ele><time>2026-04-12T03:01:17.001Z</time></trkpt><trkpt lat="-31.768109066189822" lon="115.76970785068427"><ele>14.0</ele><time>2026-04-12T03:01:18.001Z</time></trkpt><trkpt lat="-31.767997768303303" lon="115.7697981935576"><ele>14.0</ele><time>2026-04-12T03:01:19.001Z</time></trkpt><trkpt lat="-31.767890727288037" lon="115.76988530384155"><ele>14.0</ele><time>2026-04-12T03:01:20.001Z</time></trkpt><trkpt lat="-31.76779033893224" lon="115.76995740136212"><ele>14.0</ele><time>2026-04-12T03:01:21.001Z</time></trkpt><trkpt lat="-31.76768931224689" lon="115.7700222194007"><ele>14.5</ele><time>2026-04-12T03:01:22.001Z</time></trkpt><trkpt lat="-31.76758951079573" lon="115.77010081206008"><ele>15.0</ele><time>2026-04-12T03:01:23.001Z</time></trkpt><trkpt lat="-31.767480290162474" lon="115.77018744151002"><ele>15.5</ele><time>2026-04-12T03:01:24.001Z</time></trkpt><trkpt lat="-31.767361417178268" lon="115.77026472003502"><ele>16.0</ele><time>2026-04-12T03:01:25.001Z</time></trkpt><trkpt lat="-31.76722338887536" lon="115.77033785990457"><ele>16.333333333333332</ele><time>2026-04-12T03:01:26.001Z</time></trkpt><trkpt lat="-31.767072701933607" lon="115.77039855551155"><ele>16.666666666666668</ele><time>2026-04-12T03:01:27.001Z</time></trkpt><trkpt lat="-31.7669201880627" lon="115.77044367297876"><ele>17.0</ele><time>2026-04-12T03:01:28.001Z</time></trkpt><trkpt lat="-31.766779351737473" lon="115.77047083269433"><ele>17.5</ele><time>2026-04-12T03:01:29.001Z</time></trkpt><trkpt lat="-31.76664546202357" lon="115.77048948038303"><ele>18.0</ele><time>2026-04-12T03:01:30.001Z</time></trkpt><trkpt lat="-31.76651035219902" lon="115.77049785884417"><ele>18.5</ele><time>2026-04-12T03:01:31.001Z</time></trkpt><trkpt lat="-31.766370250149404" lon="115.77049472021574"><ele>19.0</ele><time>2026-04-12T03:01:32.001Z</time></trkpt><trkpt lat="-31.766231860388032" lon="115.77048642166592"><ele>19.0</ele><time>2026-04-12T03:01:33.001Z</time></trkpt><trkpt lat="-31.76610034631238" lon="115.77047877239397"><ele>19.0</ele><time>2026-04-12T03:01:34.001Z</time></trkpt><trkpt lat="-31.76597441003847" lon="115.77047065708922"><ele>19.0</ele><time>2026-04-12T03:01:35.001Z</time></trkpt><trkpt lat="-31.76584562514762" lon="115.77046253365182"><ele>19.0</ele><time>2026-04-12T03:01:36.001Z</time></trkpt><trkpt lat="-31.765714887715014" lon="115.77045579787864"><ele>18.8</ele><time>2026-04-12T03:01:37.001Z</time></trkpt><trkpt lat="-31.765587008498137" lon="115.77044692490429"><ele>18.599999999999998</ele><time>2026-04-12T03:01:38.001Z</time></trkpt><trkpt lat="-31.765478566263784" lon="115.77043658931973"><ele>18.4</ele><time>2026-04-12T03:01:39.001Z</time></trkpt><trkpt lat="-31.76538841655984" lon="115.77042970645317"><ele>18.2</ele><time>2026-04-12T03:01:40.001Z</time></trkpt><trkpt lat="-31.76530623660536" lon="115.77041872057242"><ele>18.0</ele><time>2026-04-12T03:01:41.001Z</time></trkpt><trkpt lat="-31.76523357484873" lon="115.77040221970337"><ele>19.333333333333332</ele><time>2026-04-12T03:01:42.001Z</time></trkpt><trkpt lat="-31.765167988860206" lon="115.77037569792584"><ele>20.666666666666664</ele><time>2026-04-12T03:01:43.001Z</time></trkpt><trkpt lat="-31.765090169831623" lon="115.77033143025803"><ele>22.0</ele><time>2026-04-12T03:01:44.001Z</time></trkpt><trkpt lat="-31.765007558012282" lon="115.77029118684375"><ele>23.333333333333332</ele><time>2026-04-12T03:01:45.001Z</time></trkpt><trkpt lat="-31.764916364521042" lon="115.77025531927171"><ele>24.666666666666664</ele><time>2026-04-12T03:01:46.001Z</time></trkpt><trkpt lat="-31.764816948105686" lon="115.77028556710869"><ele>26.0</ele><time>2026-04-12T03:01:47.001Z</time></trkpt><trkpt lat="-31.76470745004797" lon="115.77030403232276"><ele>26.0</ele><time>2026-04-12T03:01:48.001Z</time></trkpt><trkpt lat="-31.76459042074713" lon="115.77031358880079"><ele>26.0</ele><time>2026-04-12T03:01:49.001Z</time></trkpt><trkpt lat="-31.76446503233928" lon="115.77030947518574"><ele>26.0</ele><time>2026-04-12T03:01:50.001Z</time></trkpt><trkpt lat="-31.764357648258883" lon="115.77029539575408"><ele>26.0</ele><time>2026-04-12T03:01:51.001Z</time></trkpt><trkpt lat="-31.76425275179608" lon="115.77028428652221"><ele>27.25</ele><time>2026-04-12T03:01:52.001Z</time></trkpt><trkpt lat="-31.764146083659806" lon="115.77027757328997"><ele>28.5</ele><time>2026-04-12T03:01:53.001Z</time></trkpt><trkpt lat="-31.76403113867814" lon="115.7702736653021"><ele>29.75</ele><time>2026-04-12T03:01:54.001Z</time></trkpt><trkpt lat="-31.763906023664855" lon="115.77026994121697"><ele>31.0</ele><time>2026-04-12T03:01:55.001Z</time></trkpt><trkpt lat="-31.76377104014896" lon="115.770268123515"><ele>31.0</ele><time>2026-04-12T03:01:56.001Z</time></trkpt><trkpt lat="-31.763630746777185" lon="115.77027155808032"><ele>31.0</ele><time>2026-04-12T03:01:57.001Z</time></trkpt><trkpt lat="-31.76349328422591" lon="115.77028483871744"><ele>31.0</ele><time>2026-04-12T03:01:58.001Z</time></trkpt><trkpt lat="-31.763364622827396" lon="115.77031192688797"><ele>31.0</ele><time>2026-04-12T03:01:59.001Z</time></trkpt><trkpt lat="-31.76323752922651" lon="115.77034301360072"><ele>32.0</ele><time>2026-04-12T03:02:00.001Z</time></trkpt><trkpt lat="-31.7631101837608" lon="115.77037788251498"><ele>33.0</ele><time>2026-04-12T03:02:01.001Z</time></trkpt><trkpt lat="-31.76298172700263" lon="115.77042147082001"><ele>34.0</ele><time>2026-04-12T03:02:02.001Z</time></trkpt><trkpt lat="-31.762867572014848" lon="115.77046873769736"><ele>35.0</ele><time>2026-04-12T03:02:03.001Z</time></trkpt><trkpt lat="-31.762766824320245" lon="115.7705173438366"><ele>34.6</ele><time>2026-04-12T03:02:04.001Z</time></trkpt><trkpt lat="-31.762666702286946" lon="115.7705673872776"><ele>34.2</ele><time>2026-04-12T03:02:05.001Z</time></trkpt><trkpt lat="-31.7625761345661" lon="115.77061738506634"><ele>33.8</ele><time>2026-04-12T03:02:06.001Z</time></trkpt><trkpt lat="-31.762491132511386" lon="115.77067049828592"><ele>33.4</ele><time>2026-04-12T03:02:07.001Z</time></trkpt><trkpt lat="-31.762397445122474" lon="115.77073630369848"><ele>33.0</ele><time>2026-04-12T03:02:08.001Z</time></trkpt><trkpt lat="-31.762297114624545" lon="115.77080942922137"><ele>33.0</ele><time>2026-04-12T03:02:09.001Z</time></trkpt><trkpt lat="-31.762195781682188" lon="115.77088721836003"><ele>33.0</ele><time>2026-04-12T03:02:10.001Z</time></trkpt><trkpt lat="-31.762095112130194" lon="115.77097299080683"><ele>33.0</ele><time>2026-04-12T03:02:11.001Z</time></trkpt><trkpt lat="-31.76200113579806" lon="115.77106635703524"><ele>33.0</ele><time>2026-04-12T03:02:12.001Z</time></trkpt><trkpt lat="-31.761909773646213" lon="115.7711711030198"><ele>34.75</ele><time>2026-04-12T03:02:13.001Z</time></trkpt><trkpt lat="-31.76181513635976" lon="115.77128160324504"><ele>36.5</ele><time>2026-04-12T03:02:14.001Z</time></trkpt><trkpt lat="-31.761728385724865" lon="115.77138863527104"><ele>38.25</ele><time>2026-04-12T03:02:15.001Z</time></trkpt><trkpt lat="-31.7616530466307" lon="115.77149375283116"><ele>40.0</ele><time>2026-04-12T03:02:16.001Z</time></trkpt><trkpt lat="-31.761586544664258" lon="115.77160039974281"><ele>40.0</ele><time>2026-04-12T03:02:17.001Z</time></trkpt><trkpt lat="-31.76152437773077" lon="115.77170179097567"><ele>40.0</ele><time>2026-04-12T03:02:18.001Z</time></trkpt><trkpt lat="-31.761472651355096" lon="115.77179323697352"><ele>40.0</ele><time>2026-04-12T03:02:19.001Z</time></trkpt><trkpt lat="-31.76143642010605" lon="115.77186191460649"><ele>40.0</ele><time>2026-04-12T03:02:20.001Z</time></trkpt><trkpt lat="-31.761399665329655" lon="115.77193913236546"><ele>40.0</ele><time>2026-04-12T03:02:22.001Z</time></trkpt><trkpt lat="-31.761363096684523" lon="115.77201909802771"><ele>40.0</ele><time>2026-04-12T03:02:25.001Z</time></trkpt><trkpt lat="-31.76131946994388" lon="115.7720859227242"><ele>40.4</ele><time>2026-04-12T03:02:33.001Z</time></trkpt><trkpt lat="-31.76127612310197" lon="115.77214758427773"><ele>40.8</ele><time>2026-04-12T03:02:34.001Z</time></trkpt><trkpt lat="-31.76123291954214" lon="115.77223190393859"><ele>41.2</ele><time>2026-04-12T03:02:35.001Z</time></trkpt><trkpt lat="-31.761189607102207" lon="115.77233080015104"><ele>41.6</ele><time>2026-04-12T03:02:36.001Z</time></trkpt><trkpt lat="-31.76121069677708" lon="115.77245761291854"><ele>42.0</ele><time>2026-04-12T03:02:37.001Z</time></trkpt><trkpt lat="-31.761198658213583" lon="115.77256719020897"><ele>42.75</ele><time>2026-04-12T03:02:38.001Z</time></trkpt><trkpt lat="-31.76117076597781" lon="115.77269114868363"><ele>43.5</ele><time>2026-04-12T03:02:39.001Z</time></trkpt><trkpt lat="-31.76113727456041" lon="115.77281165696647"><ele>44.25</ele><time>2026-04-12T03:02:40.001Z</time></trkpt><trkpt lat="-31.761121876126136" lon="115.7729567989373"><ele>45.0</ele><time>2026-04-12T03:02:41.001Z</time></trkpt><trkpt lat="-31.76109958883644" lon="115.77312371023866"><ele>45.0</ele><time>2026-04-12T03:02:42.001Z</time></trkpt><trkpt lat="-31.761084239742356" lon="115.77328628883618"><ele>45.0</ele><time>2026-04-12T03:02:43.001Z</time></trkpt><trkpt lat="-31.761070030767495" lon="115.77342925495853"><ele>45.0</ele><time>2026-04-12T03:02:44.001Z</time></trkpt><trkpt lat="-31.761062521785036" lon="115.77354760470493"><ele>45.0</ele><time>2026-04-12T03:02:45.001Z</time></trkpt><trkpt lat="-31.76105417933639" lon="115.77365951942733"><ele>45.5</ele><time>2026-04-12T03:02:46.001Z</time></trkpt><trkpt lat="-31.760892168123306" lon="115.77373470868962"><ele>46.0</ele><time>2026-04-12T03:02:47.001Z</time></trkpt><trkpt lat="-31.760805436777442" lon="115.7738014003772"><ele>46.5</ele><time>2026-04-12T03:02:48.001Z</time></trkpt><trkpt lat="-31.760692244361014" lon="115.77384441974246"><ele>47.0</ele><time>2026-04-12T03:02:49.001Z</time></trkpt><trkpt lat="-31.760554399830173" lon="115.77386694744082"><ele>47.0</ele><time>2026-04-12T03:02:50.001Z</time></trkpt><trkpt lat="-31.760396905718366" lon="115.7738772023685"><ele>47.0</ele><time>2026-04-12T03:02:51.001Z</time></trkpt><trkpt lat="-31.760219395012346" lon="115.7738706708283"><ele>47.0</ele><time>2026-04-12T03:02:52.001Z</time></trkpt><trkpt lat="-31.760041640571608" lon="115.77385745085226"><ele>48.33333333333333</ele><time>2026-04-12T03:02:53.001Z</time></trkpt><trkpt lat="-31.759850249529272" lon="115.77383929225581"><ele>49.666666666666664</ele><time>2026-04-12T03:02:54.001Z</time></trkpt><trkpt lat="-31.759674383839084" lon="115.7738201211117"><ele>51.0</ele><time>2026-04-12T03:02:55.001Z</time></trkpt><trkpt lat="-31.75950862365821" lon="115.77379650376969"><ele>50.5</ele><time>2026-04-12T03:02:56.001Z</time></trkpt><trkpt lat="-31.75935689127887" lon="115.7737723580421"><ele>50.0</ele><time>2026-04-12T03:02:57.001Z</time></trkpt><trkpt lat="-31.759207676167055" lon="115.77374305560024"><ele>49.5</ele><time>2026-04-12T03:02:58.001Z</time></trkpt><trkpt lat="-31.759066173795183" lon="115.7737089257111"><ele>49.0</ele><time>2026-04-12T03:02:59.001Z</time></trkpt><trkpt lat="-31.75892789067831" lon="115.77367256848981"><ele>49.0</ele><time>2026-04-12T03:03:00.001Z</time></trkpt><trkpt lat="-31.758790325326064" lon="115.77362995299535"><ele>49.0</ele><time>2026-04-12T03:03:01.001Z</time></trkpt><trkpt lat="-31.758654026585912" lon="115.77359205769437"><ele>49.0</ele><time>2026-04-12T03:03:02.001Z</time></trkpt><trkpt lat="-31.758523070484543" lon="115.77354949504591"><ele>49.0</ele><time>2026-04-12T03:03:03.001Z</time></trkpt><trkpt lat="-31.75840215746198" lon="115.77350940112782"><ele>48.2</ele><time>2026-04-12T03:03:04.001Z</time></trkpt><trkpt lat="-31.758288317132802" lon="115.77346582074172"><ele>47.400000000000006</ele><time>2026-04-12T03:03:05.001Z</time></trkpt><trkpt lat="-31.75818344829536" lon="115.77342158785243"><ele>46.6</ele><time>2026-04-12T03:03:06.001Z</time></trkpt><trkpt lat="-31.75809007413606" lon="115.77338223004132"><ele>45.8</ele><time>2026-04-12T03:03:07.001Z</time></trkpt><trkpt lat="-31.75799727546303" lon="115.77333888624582"><ele>45.0</ele><time>2026-04-12T03:03:08.001Z</time></trkpt><trkpt lat="-31.757909331075886" lon="115.77329746078632"><ele>45.0</ele><time>2026-04-12T03:03:09.001Z</time></trkpt><trkpt lat="-31.757823592206687" lon="115.773259580707"><ele>45.0</ele><time>2026-04-12T03:03:10.001Z</time></trkpt><trkpt lat="-31.75774832024949" lon="115.7732238530786"><ele>45.0</ele><time>2026-04-12T03:03:11.001Z</time></trkpt><trkpt lat="-31.757682031252077" lon="115.77319008135687"><ele>45.0</ele><time>2026-04-12T03:03:12.001Z</time></trkpt><trkpt lat="-31.757623207391198" lon="115.77316021973982"><ele>45.0</ele><time>2026-04-12T03:03:13.001Z</time></trkpt><trkpt lat="-31.757532838865682" lon="115.77310995026954"><ele>45.0</ele><time>2026-04-12T03:03:15.001Z</time></trkpt><trkpt lat="-31.75747025899733" lon="115.77307243201267"><ele>45.4</ele><time>2026-04-12T03:03:17.001Z</time></trkpt><trkpt lat="-31.757363271292487" lon="115.77299816895022"><ele>45.8</ele><time>2026-04-12T03:04:36.001Z</time></trkpt><trkpt lat="-31.75729223946965" lon="115.77295096452647"><ele>46.2</ele><time>2026-04-12T03:04:37.001Z</time></trkpt><trkpt lat="-31.757200432416973" lon="115.7728868464091"><ele>46.6</ele><time>2026-04-12T03:04:38.001Z</time></trkpt><trkpt lat="-31.757092354946582" lon="115.77280420909284"><ele>47.0</ele><time>2026-04-12T03:04:39.001Z</time></trkpt><trkpt lat="-31.756973101094943" lon="115.77270967460858"><ele>46.33333333333333</ele><time>2026-04-12T03:04:40.001Z</time></trkpt><trkpt lat="-31.756846769878557" lon="115.7726079412574"><ele>45.666666666666664</ele><time>2026-04-12T03:04:41.001Z</time></trkpt><trkpt lat="-31.756714467680546" lon="115.77250026025081"><ele>45.0</ele><time>2026-04-12T03:04:42.001Z</time></trkpt><trkpt lat="-31.756583638210564" lon="115.77238749713746"><ele>45.0</ele><time>2026-04-12T03:04:43.001Z</time></trkpt><trkpt lat="-31.756455650886412" lon="115.77227377322185"><ele>45.0</ele><time>2026-04-12T03:04:44.001Z</time></trkpt><trkpt lat="-31.75633596257083" lon="115.77215832991313"><ele>45.0</ele><time>2026-04-12T03:04:45.001Z</time></trkpt><trkpt lat="-31.756214211311278" lon="115.77203208004786"><ele>45.0</ele><time>2026-04-12T03:04:46.001Z</time></trkpt><trkpt lat="-31.756091364273736" lon="115.7719020021194"><ele>45.0</ele><time>2026-04-12T03:04:47.001Z</time></trkpt><trkpt lat="-31.75596293956933" lon="115.77176844637629"><ele>45.0</ele><time>2026-04-12T03:04:48.001Z</time></trkpt><trkpt lat="-31.7558410883437" lon="115.77162361760833"><ele>45.0</ele><time>2026-04-12T03:04:49.001Z</time></trkpt><trkpt lat="-31.755715736403545" lon="115.77147763094318"><ele>45.0</ele><time>2026-04-12T03:04:50.001Z</time></trkpt><trkpt lat="-31.75559142551048" lon="115.7713255755414"><ele>45.0</ele><time>2026-04-12T03:04:51.001Z</time></trkpt><trkpt lat="-31.75546839671756" lon="115.77117462055837"><ele>44.333333333333336</ele><time>2026-04-12T03:04:52.001Z</time></trkpt><trkpt lat="-31.755345796082455" lon="115.77102362611397"><ele>43.66666666666667</ele><time>2026-04-12T03:04:53.001Z</time></trkpt><trkpt lat="-31.755221833432465" lon="115.77087008724949"><ele>43.0</ele><time>2026-04-12T03:04:54.001Z</time></trkpt><trkpt lat="-31.75509816411544" lon="115.77072142518294"><ele>43.0</ele><time>2026-04-12T03:04:55.001Z</time></trkpt><trkpt lat="-31.754974648068615" lon="115.77057102324672"><ele>43.0</ele><time>2026-04-12T03:04:56.001Z</time></trkpt><trkpt lat="-31.754852294000063" lon="115.7704205002249"><ele>43.0</ele><time>2026-04-12T03:04:57.001Z</time></trkpt><trkpt lat="-31.754732433996054" lon="115.77027256726738"><ele>43.333333333333336</ele><time>2026-04-12T03:04:58.001Z</time></trkpt><trkpt lat="-31.754614903809422" lon="115.77012888454337"><ele>43.666666666666664</ele><time>2026-04-12T03:04:59.001Z</time></trkpt><trkpt lat="-31.754499041267056" lon="115.76998900912324"><ele>44.0</ele><time>2026-04-12T03:05:00.001Z</time></trkpt><trkpt lat="-31.754386432103388" lon="115.76985068426768"><ele>43.33333333333333</ele><time>2026-04-12T03:05:01.001Z</time></trkpt><trkpt lat="-31.75427261111869" lon="115.76971069305694"><ele>42.666666666666664</ele><time>2026-04-12T03:05:02.001Z</time></trkpt><trkpt lat="-31.754161215953886" lon="115.76957099621558"><ele>42.0</ele><time>2026-04-12T03:05:03.001Z</time></trkpt><trkpt lat="-31.754049311828542" lon="115.76942990226894"><ele>42.333333333333336</ele><time>2026-04-12T03:05:04.001Z</time></trkpt><trkpt lat="-31.753934057778693" lon="115.76929114595939"><ele>42.66666666666667</ele><time>2026-04-12T03:05:05.001Z</time></trkpt><trkpt lat="-31.753816476962935" lon="115.76915539694531"><ele>43.0</ele><time>2026-04-12T03:05:06.001Z</time></trkpt><trkpt lat="-31.753699037203315" lon="115.76901248358847"><ele>43.0</ele><time>2026-04-12T03:05:07.001Z</time></trkpt><trkpt lat="-31.75358706215508" lon="115.76886668137017"><ele>43.0</ele><time>2026-04-12T03:05:08.001Z</time></trkpt><trkpt lat="-31.753473948421096" lon="115.76872981766134"><ele>43.0</ele><time>2026-04-12T03:05:09.001Z</time></trkpt><trkpt lat="-31.75336625398476" lon="115.76859335993944"><ele>43.75</ele><time>2026-04-12T03:05:10.001Z</time></trkpt><trkpt lat="-31.7532646170485" lon="115.76847047487796"><ele>44.5</ele><time>2026-04-12T03:05:11.001Z</time></trkpt><trkpt lat="-31.753168916167755" lon="115.76836019347846"><ele>45.25</ele><time>2026-04-12T03:05:12.001Z</time></trkpt><trkpt lat="-31.753075090395047" lon="115.76825611438633"><ele>46.0</ele><time>2026-04-12T03:05:13.001Z</time></trkpt><trkpt lat="-31.752986119430023" lon="115.76816482631888"><ele>46.0</ele><time>2026-04-12T03:05:14.001Z</time></trkpt><trkpt lat="-31.75290478785486" lon="115.76807982887806"><ele>46.0</ele><time>2026-04-12T03:05:15.001Z</time></trkpt><trkpt lat="-31.75283129553942" lon="115.7679962742566"><ele>46.0</ele><time>2026-04-12T03:05:16.001Z</time></trkpt><trkpt lat="-31.75276895635493" lon="115.76792276383107"><ele>46.0</ele><time>2026-04-12T03:05:17.001Z</time></trkpt><trkpt lat="-31.752711625044995" lon="115.76785687549355"><ele>46.0</ele><time>2026-04-12T03:05:18.001Z</time></trkpt><trkpt lat="-31.752662945079077" lon="115.76780250486362"><ele>46.0</ele><time>2026-04-12T03:05:19.001Z</time></trkpt><trkpt lat="-31.752609302743352" lon="115.76774113539865"><ele>46.199999999999996</ele><time>2026-04-12T03:05:21.001Z</time></trkpt><trkpt lat="-31.752540784215533" lon="115.76766068783606"><ele>46.4</ele><time>2026-04-12T03:05:33.001Z</time></trkpt><trkpt lat="-31.75248580473261" lon="115.76760370565138"><ele>46.6</ele><time>2026-04-12T03:05:34.001Z</time></trkpt><trkpt lat="-31.75241267857585" lon="115.76753352004681"><ele>46.8</ele><time>2026-04-12T03:05:35.001Z</time></trkpt><trkpt lat="-31.752324370472174" lon="115.76744072924076"><ele>47.0</ele><time>2026-04-12T03:05:36.001Z</time></trkpt><trkpt lat="-31.752228795643763" lon="115.76733819307125"><ele>47.0</ele><time>2026-04-12T03:05:37.001Z</time></trkpt><trkpt lat="-31.75211160927832" lon="115.76722342609081"><ele>47.0</ele><time>2026-04-12T03:05:38.001Z</time></trkpt><trkpt lat="-31.75198244359804" lon="115.76710339552938"><ele>47.0</ele><time>2026-04-12T03:05:39.001Z</time></trkpt><trkpt lat="-31.751843411584602" lon="115.76697742438797"><ele>47.666666666666664</ele><time>2026-04-12T03:05:40.001Z</time></trkpt><trkpt lat="-31.751694429466962" lon="115.76684216812207"><ele>48.33333333333333</ele><time>2026-04-12T03:05:41.001Z</time></trkpt><trkpt lat="-31.751550955037597" lon="115.76670360700344"><ele>49.0</ele><time>2026-04-12T03:05:42.001Z</time></trkpt><trkpt lat="-31.75140394328654" lon="115.76656902072001"><ele>49.0</ele><time>2026-04-12T03:05:43.001Z</time></trkpt><trkpt lat="-31.75125575484796" lon="115.76644832969212"><ele>49.0</ele><time>2026-04-12T03:05:44.001Z</time></trkpt><trkpt lat="-31.751106343876337" lon="115.76634407806623"><ele>49.0</ele><time>2026-04-12T03:05:45.001Z</time></trkpt><trkpt lat="-31.750951776419054" lon="115.76624678124152"><ele>49.0</ele><time>2026-04-12T03:05:46.001Z</time></trkpt><trkpt lat="-31.750793859685537" lon="115.76615044261862"><ele>49.0</ele><time>2026-04-12T03:05:47.001Z</time></trkpt><trkpt lat="-31.750629632321367" lon="115.76605232691819"><ele>49.0</ele><time>2026-04-12T03:05:48.001Z</time></trkpt><trkpt lat="-31.75045937418795" lon="115.76595588894739"><ele>49.0</ele><time>2026-04-12T03:05:49.001Z</time></trkpt><trkpt lat="-31.750296831786553" lon="115.76586213480557"><ele>49.0</ele><time>2026-04-12T03:05:50.001Z</time></trkpt><trkpt lat="-31.750129236658672" lon="115.76576608656585"><ele>49.0</ele><time>2026-04-12T03:05:51.001Z</time></trkpt><trkpt lat="-31.74995315545636" lon="115.76566942629844"><ele>49.0</ele><time>2026-04-12T03:05:52.001Z</time></trkpt><trkpt lat="-31.749773828116318" lon="115.76557029059299"><ele>49.0</ele><time>2026-04-12T03:05:53.001Z</time></trkpt><trkpt lat="-31.749594949895492" lon="115.76547582790555"><ele>49.0</ele><time>2026-04-12T03:05:54.001Z</time></trkpt><trkpt lat="-31.749413423867697" lon="115.76539156990333"><ele>49.33333333333333</ele><time>2026-04-12T03:05:55.001Z</time></trkpt><trkpt lat="-31.749229783711645" lon="115.76531204863097"><ele>49.66666666666667</ele><time>2026-04-12T03:05:56.001Z</time></trkpt><trkpt lat="-31.749045280919415" lon="115.76524310408074"><ele>50.0</ele><time>2026-04-12T03:05:57.001Z</time></trkpt><trkpt lat="-31.748862637215908" lon="115.76517504190114"><ele>48.66666666666667</ele><time>2026-04-12T03:05:58.001Z</time></trkpt><trkpt lat="-31.748678593986455" lon="115.76510906164737"><ele>47.333333333333336</ele><time>2026-04-12T03:05:59.001Z</time></trkpt><trkpt lat="-31.748492270191157" lon="115.76504487248515"><ele>46.0</ele><time>2026-04-12T03:06:00.001Z</time></trkpt><trkpt lat="-31.748305235609536" lon="115.76498091248239"><ele>45.66666666666667</ele><time>2026-04-12T03:06:01.001Z</time></trkpt><trkpt lat="-31.748120906848428" lon="115.7649154498722"><ele>45.333333333333336</ele><time>2026-04-12T03:06:02.001Z</time></trkpt><trkpt lat="-31.7479359707043" lon="115.76484896294586"><ele>45.0</ele><time>2026-04-12T03:06:03.001Z</time></trkpt><trkpt lat="-31.74775155333666" lon="115.76478441819863"><ele>45.0</ele><time>2026-04-12T03:06:04.001Z</time></trkpt><trkpt lat="-31.747569351049126" lon="115.76472213984773"><ele>45.0</ele><time>2026-04-12T03:06:05.001Z</time></trkpt><trkpt lat="-31.74738535355108" lon="115.76465988857922"><ele>45.0</ele><time>2026-04-12T03:06:06.001Z</time></trkpt><trkpt lat="-31.747202124341566" lon="115.76459438621231"><ele>45.0</ele><time>2026-04-12T03:06:07.001Z</time></trkpt><trkpt lat="-31.747019848654006" lon="115.76452792039933"><ele>45.0</ele><time>2026-04-12T03:06:08.001Z</time></trkpt><trkpt lat="-31.746836572309796" lon="115.76446106841509"><ele>45.0</ele><time>2026-04-12T03:06:09.001Z</time></trkpt><trkpt lat="-31.746651770604085" lon="115.76439495586952"><ele>45.0</ele><time>2026-04-12T03:06:10.001Z</time></trkpt><trkpt lat="-31.746463820236897" lon="115.76432984008726"><ele>45.0</ele><time>2026-04-12T03:06:11.001Z</time></trkpt><trkpt lat="-31.74627789295319" lon="115.76426585931995"><ele>45.0</ele><time>2026-04-12T03:06:12.001Z</time></trkpt><trkpt lat="-31.746090850431436" lon="115.7641994440149"><ele>43.333333333333336</ele><time>2026-04-12T03:06:13.001Z</time></trkpt><trkpt lat="-31.74590350340425" lon="115.76413181571449"><ele>41.66666666666667</ele><time>2026-04-12T03:06:14.001Z</time></trkpt><trkpt lat="-31.745713886415277" lon="115.7640654432406"><ele>40.0</ele><time>2026-04-12T03:06:15.001Z</time></trkpt><trkpt lat="-31.745522642534123" lon="115.76400153625833"><ele>40.0</ele><time>2026-04-12T03:06:16.001Z</time></trkpt><trkpt lat="-31.74533477174118" lon="115.76393844355384"><ele>40.0</ele><time>2026-04-12T03:06:17.001Z</time></trkpt><trkpt lat="-31.745155162876117" lon="115.7638814888161"><ele>40.0</ele><time>2026-04-12T03:06:18.001Z</time></trkpt><trkpt lat="-31.744988292763825" lon="115.76382677398685"><ele>40.25</ele><time>2026-04-12T03:06:19.001Z</time></trkpt><trkpt lat="-31.744834471864444" lon="115.76378112349029"><ele>40.5</ele><time>2026-04-12T03:06:20.001Z</time></trkpt><trkpt lat="-31.74471070670256" lon="115.7637479992534"><ele>40.75</ele><time>2026-04-12T03:06:21.001Z</time></trkpt><trkpt lat="-31.744605076318816" lon="115.76372042957487"><ele>41.0</ele><time>2026-04-12T03:06:22.001Z</time></trkpt><trkpt lat="-31.74451357680063" lon="115.76370023752318"><ele>41.0</ele><time>2026-04-12T03:06:23.001Z</time></trkpt><trkpt lat="-31.744444225371428" lon="115.76368939316382"><ele>41.0</ele><time>2026-04-12T03:06:24.001Z</time></trkpt><trkpt lat="-31.74434712366268" lon="115.76367170218649"><ele>41.0</ele><time>2026-04-12T03:06:26.001Z</time></trkpt><trkpt lat="-31.74426087668155" lon="115.76365186721323"><ele>41.0</ele><time>2026-04-12T03:06:28.001Z</time></trkpt><trkpt lat="-31.744189985943795" lon="115.76363879236442"><ele>41.0</ele><time>2026-04-12T03:06:30.001Z</time></trkpt><trkpt lat="-31.74412739878192" lon="115.76362774501322"><ele>41.0</ele><time>2026-04-12T03:07:23.001Z</time></trkpt><trkpt lat="-31.744001158344346" lon="115.76359791086664"><ele>41.5</ele><time>2026-04-12T03:07:25.001Z</time></trkpt><trkpt lat="-31.743910475511786" lon="115.76358533483575"><ele>42.0</ele><time>2026-04-12T03:07:26.001Z</time></trkpt><trkpt lat="-31.74379657921399" lon="115.76356962805143"><ele>42.5</ele><time>2026-04-12T03:07:27.001Z</time></trkpt><trkpt lat="-31.743676084148245" lon="115.76354874000481"><ele>43.0</ele><time>2026-04-12T03:07:28.001Z</time></trkpt><trkpt lat="-31.7435402322108" lon="115.76352430958251"><ele>43.333333333333336</ele><time>2026-04-12T03:07:29.001Z</time></trkpt><trkpt lat="-31.743383087856568" lon="115.76349932355107"><ele>43.666666666666664</ele><time>2026-04-12T03:07:30.001Z</time></trkpt><trkpt lat="-31.743213712105092" lon="115.76347698844556"><ele>44.0</ele><time>2026-04-12T03:07:31.001Z</time></trkpt><trkpt lat="-31.7430321647447" lon="115.76345723437132"><ele>44.0</ele><time>2026-04-12T03:07:32.001Z</time></trkpt><trkpt lat="-31.74283683847329" lon="115.76343622372815"><ele>44.0</ele><time>2026-04-12T03:07:33Z</time></trkpt><trkpt lat="-31.742645746188693" lon="115.76341909220024"><ele>44.0</ele><time>2026-04-12T03:07:34Z</time></trkpt><trkpt lat="-31.742440521577223" lon="115.76340918129894"><ele>44.666666666666664</ele><time>2026-04-12T03:07:35Z</time></trkpt><trkpt lat="-31.742228540353942" lon="115.76340027156346"><ele>45.333333333333336</ele><time>2026-04-12T03:07:36Z</time></trkpt><trkpt lat="-31.74202020793576" lon="115.76339665310613"><ele>46.0</ele><time>2026-04-12T03:07:37Z</time></trkpt><trkpt lat="-31.7418135249668" lon="115.76339657690681"><ele>47.0</ele><time>2026-04-12T03:07:38Z</time></trkpt><trkpt lat="-31.74160453092882" lon="115.76340100348203"><ele>48.0</ele><time>2026-04-12T03:07:39Z</time></trkpt><trkpt lat="-31.741396562021038" lon="115.76340739710749"><ele>49.0</ele><time>2026-04-12T03:07:40Z</time></trkpt><trkpt lat="-31.741195681088964" lon="115.76341549080487"><ele>49.666666666666664</ele><time>2026-04-12T03:07:41Z</time></trkpt><trkpt lat="-31.741006399647063" lon="115.76342502877215"><ele>50.33333333333333</ele><time>2026-04-12T03:07:42Z</time></trkpt><trkpt lat="-31.740834287898924" lon="115.76343763455183"><ele>51.0</ele><time>2026-04-12T03:07:43Z</time></trkpt><trkpt lat="-31.740670301514626" lon="115.76344890345116"><ele>51.0</ele><time>2026-04-12T03:07:44Z</time></trkpt><trkpt lat="-31.740507445772835" lon="115.76345680655686"><ele>51.0</ele><time>2026-04-12T03:07:45Z</time></trkpt><trkpt lat="-31.740355428059953" lon="115.76346608835934"><ele>51.0</ele><time>2026-04-12T03:07:46Z</time></trkpt><trkpt lat="-31.740202389817306" lon="115.76347552980737"><ele>51.25</ele><time>2026-04-12T03:07:47Z</time></trkpt><trkpt lat="-31.74006285777784" lon="115.76349558227119"><ele>51.5</ele><time>2026-04-12T03:07:48Z</time></trkpt><trkpt lat="-31.739933874149795" lon="115.76351469074358"><ele>51.75</ele><time>2026-04-12T03:07:49Z</time></trkpt><trkpt lat="-31.73980896979805" lon="115.76352650647982"><ele>52.0</ele><time>2026-04-12T03:07:50Z</time></trkpt><trkpt lat="-31.73968945168919" lon="115.76353381664615"><ele>51.99999999999999</ele><time>2026-04-12T03:07:51Z</time></trkpt><trkpt lat="-31.739580791563647" lon="115.76353921801321"><ele>52.0</ele><time>2026-04-12T03:07:52Z</time></trkpt><trkpt lat="-31.73948634037112" lon="115.76354375307636"><ele>52.0</ele><time>2026-04-12T03:07:53Z</time></trkpt><trkpt lat="-31.73941203135162" lon="115.76354757240128"><ele>52.0</ele><time>2026-04-12T03:07:54Z</time></trkpt><trkpt lat="-31.73934837494352" lon="115.7635518187955"><ele>51.99999999999999</ele><time>2026-04-12T03:07:56Z</time></trkpt><trkpt lat="-31.73926650769152" lon="115.76357081210702"><ele>52.0</ele><time>2026-04-12T03:08:16Z</time></trkpt><trkpt lat="-31.739200647610197" lon="115.76358028647911"><ele>51.5</ele><time>2026-04-12T03:08:17Z</time></trkpt><trkpt lat="-31.739104159968267" lon="115.7635869829601"><ele>51.0</ele><time>2026-04-12T03:08:18Z</time></trkpt><trkpt lat="-31.738981841267066" lon="115.7635931022169"><ele>50.5</ele><time>2026-04-12T03:08:19Z</time></trkpt><trkpt lat="-31.738853347352993" lon="115.76359608478884"><ele>50.0</ele><time>2026-04-12T03:08:20Z</time></trkpt><trkpt lat="-31.738708914828806" lon="115.76360195524205"><ele>50.0</ele><time>2026-04-12T03:08:21Z</time></trkpt><trkpt lat="-31.73855917906806" lon="115.76360522308791"><ele>50.0</ele><time>2026-04-12T03:08:22Z</time></trkpt><trkpt lat="-31.738391020142856" lon="115.76361336911494"><ele>50.0</ele><time>2026-04-12T03:08:23Z</time></trkpt><trkpt lat="-31.73821292072514" lon="115.76362115112461"><ele>50.66666666666667</ele><time>2026-04-12T03:08:24Z</time></trkpt><trkpt lat="-31.73803323224337" lon="115.76362726837593"><ele>51.33333333333333</ele><time>2026-04-12T03:08:25Z</time></trkpt><trkpt lat="-31.737851115082155" lon="115.76363550785751"><ele>52.0</ele><time>2026-04-12T03:08:26Z</time></trkpt><trkpt lat="-31.737667063625917" lon="115.76364698876455"><ele>50.33333333333333</ele><time>2026-04-12T03:08:27Z</time></trkpt><trkpt lat="-31.737477987257808" lon="115.76365978168171"><ele>48.666666666666664</ele><time>2026-04-12T03:08:28Z</time></trkpt><trkpt lat="-31.73728041895604" lon="115.76367357160272"><ele>47.0</ele><time>2026-04-12T03:08:29Z</time></trkpt><trkpt lat="-31.737068324084102" lon="115.76369195177516"><ele>46.666666666666664</ele><time>2026-04-12T03:08:30Z</time></trkpt><trkpt lat="-31.736862839102894" lon="115.76371664007145"><ele>46.333333333333336</ele><time>2026-04-12T03:08:31Z</time></trkpt><trkpt lat="-31.736653611288272" lon="115.76375344920109"><ele>46.0</ele><time>2026-04-12T03:08:32Z</time></trkpt><trkpt lat="-31.736444278000466" lon="115.76379664826862"><ele>46.0</ele><time>2026-04-12T03:08:33Z</time></trkpt><trkpt lat="-31.73623296044539" lon="115.76385058708793"><ele>46.0</ele><time>2026-04-12T03:08:34Z</time></trkpt><trkpt lat="-31.736022066457746" lon="115.76391925390908"><ele>46.0</ele><time>2026-04-12T03:08:35Z</time></trkpt><trkpt lat="-31.735817558392064" lon="115.76400141227174"><ele>45.66666666666667</ele><time>2026-04-12T03:08:36Z</time></trkpt><trkpt lat="-31.735621462736884" lon="115.76409788360009"><ele>45.333333333333336</ele><time>2026-04-12T03:08:37Z</time></trkpt><trkpt lat="-31.735428119928983" lon="115.76420194882179"><ele>45.0</ele><time>2026-04-12T03:08:38Z</time></trkpt><trkpt lat="-31.735241854596648" lon="115.7643112245569"><ele>46.0</ele><time>2026-04-12T03:08:39Z</time></trkpt><trkpt lat="-31.735063473957172" lon="115.76442596582488"><ele>47.0</ele><time>2026-04-12T03:08:40Z</time></trkpt><trkpt lat="-31.73489643666389" lon="115.76454607328178"><ele>48.0</ele><time>2026-04-12T03:08:41Z</time></trkpt><trkpt lat="-31.734747874969056" lon="115.76466985021375"><ele>48.0</ele><time>2026-04-12T03:08:42Z</time></trkpt><trkpt lat="-31.73461529483503" lon="115.76478893825897"><ele>48.0</ele><time>2026-04-12T03:08:43Z</time></trkpt><trkpt lat="-31.73450157506178" lon="115.76489763627157"><ele>48.0</ele><time>2026-04-12T03:08:44Z</time></trkpt><trkpt lat="-31.734397571471554" lon="115.76499935535581"><ele>48.0</ele><time>2026-04-12T03:08:45Z</time></trkpt><trkpt lat="-31.734310575497165" lon="115.76508824042685"><ele>48.0</ele><time>2026-04-12T03:08:46Z</time></trkpt><trkpt lat="-31.73422753047074" lon="115.76517704772199"><ele>48.0</ele><time>2026-04-12T03:08:47Z</time></trkpt><trkpt lat="-31.734146464165615" lon="115.76526305948138"><ele>48.0</ele><time>2026-04-12T03:08:48Z</time></trkpt><trkpt lat="-31.73406710440815" lon="115.76535378619586"><ele>48.0</ele><time>2026-04-12T03:08:49Z</time></trkpt><trkpt lat="-31.73399536096183" lon="115.76546030173145"><ele>48.0</ele><time>2026-04-12T03:08:50Z</time></trkpt><trkpt lat="-31.733928974242048" lon="115.76557883745976"><ele>48.25</ele><time>2026-04-12T03:08:51Z</time></trkpt><trkpt lat="-31.733861133007093" lon="115.76568604679066"><ele>48.5</ele><time>2026-04-12T03:08:52Z</time></trkpt><trkpt lat="-31.733774568507307" lon="115.76579281144113"><ele>48.75</ele><time>2026-04-12T03:08:53Z</time></trkpt><trkpt lat="-31.73367429788464" lon="115.76591426602658"><ele>49.0</ele><time>2026-04-12T03:08:54Z</time></trkpt><trkpt lat="-31.733575902894984" lon="115.76605663306135"><ele>50.33333333333333</ele><time>2026-04-12T03:08:55Z</time></trkpt><trkpt lat="-31.733472575746564" lon="115.76622241541637"><ele>51.66666666666667</ele><time>2026-04-12T03:08:56Z</time></trkpt><trkpt lat="-31.733368410285067" lon="115.76640710165594"><ele>53.0</ele><time>2026-04-12T03:08:57Z</time></trkpt><trkpt lat="-31.7332596627421" lon="115.76660508291565"><ele>53.0</ele><time>2026-04-12T03:08:58Z</time></trkpt><trkpt lat="-31.733147984100043" lon="115.76680446900272"><ele>53.0</ele><time>2026-04-12T03:08:59Z</time></trkpt><trkpt lat="-31.73302856694677" lon="115.76700678829734"><ele>53.0</ele><time>2026-04-12T03:09:00.001Z</time></trkpt><trkpt lat="-31.732902865098854" lon="115.76721107741825"><ele>53.0</ele><time>2026-04-12T03:09:01.001Z</time></trkpt><trkpt lat="-31.732771974200986" lon="115.76741053320275"><ele>53.0</ele><time>2026-04-12T03:09:02.001Z</time></trkpt><trkpt lat="-31.732633929998407" lon="115.7675943868558"><ele>53.0</ele><time>2026-04-12T03:09:03.001Z</time></trkpt><trkpt lat="-31.73248557099312" lon="115.76776805773869"><ele>53.0</ele><time>2026-04-12T03:09:04.001Z</time></trkpt><trkpt lat="-31.732329240755842" lon="115.76792954719863"><ele>53.0</ele><time>2026-04-12T03:09:05.001Z</time></trkpt><trkpt lat="-31.732179568822225" lon="115.76806957965441"><ele>53.0</ele><time>2026-04-12T03:09:06.001Z</time></trkpt><trkpt lat="-31.732036015359142" lon="115.76819197762953"><ele>53.0</ele><time>2026-04-12T03:09:07.001Z</time></trkpt><trkpt lat="-31.731892243600704" lon="115.76830104393837"><ele>53.0</ele><time>2026-04-12T03:09:08.001Z</time></trkpt><trkpt lat="-31.731738701364318" lon="115.76839691144359"><ele>53.0</ele><time>2026-04-12T03:09:09.001Z</time></trkpt><trkpt lat="-31.731583801739994" lon="115.76849298462669"><ele>53.333333333333336</ele><time>2026-04-12T03:09:10.001Z</time></trkpt><trkpt lat="-31.731422357599097" lon="115.7685895052492"><ele>53.66666666666667</ele><time>2026-04-12T03:09:11.001Z</time></trkpt><trkpt lat="-31.73125368446614" lon="115.76867951599228"><ele>54.0</ele><time>2026-04-12T03:09:12.001Z</time></trkpt><trkpt lat="-31.73107848924027" lon="115.76876325004471"><ele>53.66666666666667</ele><time>2026-04-12T03:09:13.001Z</time></trkpt><trkpt lat="-31.730894766879928" lon="115.7688397511567"><ele>53.333333333333336</ele><time>2026-04-12T03:09:14.001Z</time></trkpt><trkpt lat="-31.730706239746418" lon="115.76890809971775"><ele>53.0</ele><time>2026-04-12T03:09:15.001Z</time></trkpt><trkpt lat="-31.730521680086834" lon="115.76897711360535"><ele>53.0</ele><time>2026-04-12T03:09:16.001Z</time></trkpt><trkpt lat="-31.730336914187706" lon="115.76905072854372"><ele>53.0</ele><time>2026-04-12T03:09:17.001Z</time></trkpt><trkpt lat="-31.730146606836502" lon="115.76911531740306"><ele>53.0</ele><time>2026-04-12T03:09:18.001Z</time></trkpt><trkpt lat="-31.729946064014484" lon="115.7691564229424"><ele>53.0</ele><time>2026-04-12T03:09:19.001Z</time></trkpt><trkpt lat="-31.72973483752347" lon="115.76918374357872"><ele>53.0</ele><time>2026-04-12T03:09:20.001Z</time></trkpt><trkpt lat="-31.729517509636036" lon="115.76920185374782"><ele>53.0</ele><time>2026-04-12T03:09:21.001Z</time></trkpt><trkpt lat="-31.72929470658556" lon="115.76920622152224"><ele>52.0</ele><time>2026-04-12T03:09:22.001Z</time></trkpt><trkpt lat="-31.72906841005348" lon="115.76920725123396"><ele>51.0</ele><time>2026-04-12T03:09:23.001Z</time></trkpt><trkpt lat="-31.728836476035713" lon="115.76921135480295"><ele>51.0</ele><time>2026-04-12T03:09:24.001Z</time></trkpt><trkpt lat="-31.728610894306435" lon="115.7692176254911"><ele>51.0</ele><time>2026-04-12T03:09:25.001Z</time></trkpt><trkpt lat="-31.728384005388758" lon="115.76922370438977"><ele>50.5</ele><time>2026-04-12T03:09:26.001Z</time></trkpt><trkpt lat="-31.728154635160664" lon="115.7692284060533"><ele>50.0</ele><time>2026-04-12T03:09:27.001Z</time></trkpt><trkpt lat="-31.727922815476106" lon="115.76923391571601"><ele>53.0</ele><time>2026-04-12T03:09:28.001Z</time></trkpt><trkpt lat="-31.72768832425027" lon="115.76924196131604"><ele>56.0</ele><time>2026-04-12T03:09:29.001Z</time></trkpt><trkpt lat="-31.72745382272524" lon="115.76925200129334"><ele>56.0</ele><time>2026-04-12T03:09:30.001Z</time></trkpt><trkpt lat="-31.727222015863347" lon="115.76925961630056"><ele>56.0</ele><time>2026-04-12T03:09:31.001Z</time></trkpt><trkpt lat="-31.726989748485575" lon="115.76926652040001"><ele>56.5</ele><time>2026-04-12T03:09:32.001Z</time></trkpt><trkpt lat="-31.72675679028952" lon="115.7692735302247"><ele>57.0</ele><time>2026-04-12T03:09:33.001Z</time></trkpt><trkpt lat="-31.72652161525715" lon="115.76928300349222"><ele>57.0</ele><time>2026-04-12T03:09:34.001Z</time></trkpt><trkpt lat="-31.726292804428898" lon="115.7692883740537"><ele>57.0</ele><time>2026-04-12T03:09:35.001Z</time></trkpt><trkpt lat="-31.726063412681018" lon="115.76929289091062"><ele>58.0</ele><time>2026-04-12T03:09:36.001Z</time></trkpt><trkpt lat="-31.725833595149478" lon="115.76929832950701"><ele>59.0</ele><time>2026-04-12T03:09:37.001Z</time></trkpt><trkpt lat="-31.725605243106102" lon="115.76930650023485"><ele>59.0</ele><time>2026-04-12T03:09:38.001Z</time></trkpt><trkpt lat="-31.72537395884127" lon="115.76931608994524"><ele>59.0</ele><time>2026-04-12T03:09:39Z</time></trkpt><trkpt lat="-31.725141870320893" lon="115.7693244162886"><ele>57.5</ele><time>2026-04-12T03:09:40Z</time></trkpt><trkpt lat="-31.724909356872015" lon="115.76933140570367"><ele>56.0</ele><time>2026-04-12T03:09:41Z</time></trkpt><trkpt lat="-31.724674067700736" lon="115.76933803881542"><ele>56.0</ele><time>2026-04-12T03:09:42Z</time></trkpt><trkpt lat="-31.724438017304607" lon="115.76934454937653"><ele>56.0</ele><time>2026-04-12T03:09:43Z</time></trkpt><trkpt lat="-31.724197748105222" lon="115.76935152653104"><ele>49.5</ele><time>2026-04-12T03:09:44Z</time></trkpt><trkpt lat="-31.723960791165332" lon="115.76935910064051"><ele>43.0</ele><time>2026-04-12T03:09:45Z</time></trkpt><trkpt lat="-31.7237287208211" lon="115.7693660253807"><ele>42.66666666666667</ele><time>2026-04-12T03:09:46Z</time></trkpt><trkpt lat="-31.723512155064977" lon="115.76936879395865"><ele>42.333333333333336</ele><time>2026-04-12T03:09:47Z</time></trkpt><trkpt lat="-31.72330326014595" lon="115.76937151994802"><ele>42.0</ele><time>2026-04-12T03:09:48Z</time></trkpt><trkpt lat="-31.723094684675882" lon="115.76937760992139"><ele>42.0</ele><time>2026-04-12T03:09:49Z</time></trkpt><trkpt lat="-31.72288754664793" lon="115.76938213402562"><ele>42.0</ele><time>2026-04-12T03:09:50Z</time></trkpt><trkpt lat="-31.722676293092007" lon="115.76938826343697"><ele>42.0</ele><time>2026-04-12T03:09:51Z</time></trkpt><trkpt lat="-31.722459276746825" lon="115.76939668870268"><ele>41.0</ele><time>2026-04-12T03:09:52Z</time></trkpt><trkpt lat="-31.722233011239112" lon="115.76940437136913"><ele>40.0</ele><time>2026-04-12T03:09:53Z</time></trkpt><trkpt lat="-31.72200169472139" lon="115.76940867129304"><ele>36.5</ele><time>2026-04-12T03:09:54Z</time></trkpt><trkpt lat="-31.721764423149597" lon="115.7694131018154"><ele>33.0</ele><time>2026-04-12T03:09:55Z</time></trkpt><trkpt lat="-31.72152441974118" lon="115.76941993572102"><ele>33.0</ele><time>2026-04-12T03:09:56Z</time></trkpt><trkpt lat="-31.721282994658733" lon="115.76942916305751"><ele>33.0</ele><time>2026-04-12T03:09:57Z</time></trkpt><trkpt lat="-31.721043563645203" lon="115.76943748604415"><ele>33.5</ele><time>2026-04-12T03:09:58Z</time></trkpt><trkpt lat="-31.720802282112857" lon="115.76944739765152"><ele>34.0</ele><time>2026-04-12T03:09:59Z</time></trkpt><trkpt lat="-31.720564262700314" lon="115.76945970163202"><ele>34.0</ele><time>2026-04-12T03:10:00Z</time></trkpt><trkpt lat="-31.720331086391184" lon="115.76947452038173"><ele>34.0</ele><time>2026-04-12T03:10:01Z</time></trkpt><trkpt lat="-31.72010459112132" lon="115.76950121398737"><ele>32.333333333333336</ele><time>2026-04-12T03:10:02Z</time></trkpt><trkpt lat="-31.71988971767807" lon="115.76955017559179"><ele>30.666666666666664</ele><time>2026-04-12T03:10:03Z</time></trkpt><trkpt lat="-31.719685995393068" lon="115.76962208701602"><ele>29.0</ele><time>2026-04-12T03:10:04Z</time></trkpt><trkpt lat="-31.71949511193085" lon="115.7697015602934"><ele>28.333333333333332</ele><time>2026-04-12T03:10:05Z</time></trkpt><trkpt lat="-31.71931578537059" lon="115.76978968744227"><ele>27.666666666666664</ele><time>2026-04-12T03:10:06Z</time></trkpt><trkpt lat="-31.719143895677103" lon="115.76983121017753"><ele>27.0</ele><time>2026-04-12T03:10:07Z</time></trkpt><trkpt lat="-31.719017433630366" lon="115.76999370831041"><ele>27.0</ele><time>2026-04-12T03:10:08Z</time></trkpt><trkpt lat="-31.718887237565298" lon="115.77009782847544"><ele>27.0</ele><time>2026-04-12T03:10:09Z</time></trkpt><trkpt lat="-31.718768304871247" lon="115.77019964577656"><ele>27.0</ele><time>2026-04-12T03:10:10Z</time></trkpt><trkpt lat="-31.718662311841175" lon="115.77028649742866"><ele>27.0</ele><time>2026-04-12T03:10:11Z</time></trkpt><trkpt lat="-31.718582429918424" lon="115.7703423654922"><ele>26.0</ele><time>2026-04-12T03:10:12Z</time></trkpt><trkpt lat="-31.718503458403564" lon="115.77034332271661"><ele>25.000000000000004</ele><time>2026-04-12T03:10:24Z</time></trkpt><trkpt lat="-31.718424907954958" lon="115.77033485897611"><ele>24.0</ele><time>2026-04-12T03:10:25Z</time></trkpt><trkpt lat="-31.718327455620297" lon="115.77031838468552"><ele>23.0</ele><time>2026-04-12T03:10:26Z</time></trkpt><trkpt lat="-31.71822097757331" lon="115.77031913370585"><ele>22.0</ele><time>2026-04-12T03:10:27Z</time></trkpt><trkpt lat="-31.718128832988413" lon="115.77034401381177"><ele>22.0</ele><time>2026-04-12T03:10:28Z</time></trkpt><trkpt lat="-31.718058832256403" lon="115.77040661334593"><ele>22.0</ele><time>2026-04-12T03:10:29Z</time></trkpt><trkpt lat="-31.71801545724313" lon="115.77050012760141"><ele>22.0</ele><time>2026-04-12T03:10:30Z</time></trkpt><trkpt lat="-31.71797772828139" lon="115.77062871717548"><ele>22.0</ele><time>2026-04-12T03:10:31Z</time></trkpt><trkpt lat="-31.71794776481893" lon="115.77078206993853"><ele>22.0</ele><time>2026-04-12T03:10:32Z</time></trkpt><trkpt lat="-31.717901123612283" lon="115.77096195423702"><ele>22.0</ele><time>2026-04-12T03:10:33Z</time></trkpt><trkpt lat="-31.71782940611099" lon="115.7711382531709"><ele>22.0</ele><time>2026-04-12T03:10:34Z</time></trkpt><trkpt lat="-31.71773238475188" lon="115.77132498704609"><ele>22.0</ele><time>2026-04-12T03:10:35Z</time></trkpt><trkpt lat="-31.71761968849614" lon="115.77152220602362"><ele>22.333333333333332</ele><time>2026-04-12T03:10:36Z</time></trkpt><trkpt lat="-31.717514600746842" lon="115.7717278711017"><ele>22.666666666666668</ele><time>2026-04-12T03:10:37Z</time></trkpt><trkpt lat="-31.717419642907398" lon="115.7719494520012"><ele>23.0</ele><time>2026-04-12T03:10:38Z</time></trkpt><trkpt lat="-31.717331989948153" lon="115.77218661814823"><ele>23.666666666666668</ele><time>2026-04-12T03:10:39Z</time></trkpt><trkpt lat="-31.71725866273445" lon="115.77241840196595"><ele>24.333333333333336</ele><time>2026-04-12T03:10:40Z</time></trkpt><trkpt lat="-31.717195854966736" lon="115.77265818236074"><ele>25.0</ele><time>2026-04-12T03:10:41Z</time></trkpt><trkpt lat="-31.717148348740647" lon="115.77289970310068"><ele>25.333333333333336</ele><time>2026-04-12T03:10:42Z</time></trkpt><trkpt lat="-31.717112088765482" lon="115.77315315070257"><ele>25.666666666666664</ele><time>2026-04-12T03:10:43Z</time></trkpt><trkpt lat="-31.717085243939326" lon="115.77341572680284"><ele>26.0</ele><time>2026-04-12T03:10:44Z</time></trkpt><trkpt lat="-31.717063191300277" lon="115.77367708692688"><ele>26.666666666666664</ele><time>2026-04-12T03:10:45Z</time></trkpt><trkpt lat="-31.717043251424432" lon="115.77394036800021"><ele>27.333333333333336</ele><time>2026-04-12T03:10:46Z</time></trkpt><trkpt lat="-31.71702524469564" lon="115.77418787841899"><ele>28.0</ele><time>2026-04-12T03:10:47Z</time></trkpt><trkpt lat="-31.717005957928606" lon="115.77443360359123"><ele>28.0</ele><time>2026-04-12T03:10:48Z</time></trkpt><trkpt lat="-31.716978809036398" lon="115.77467490493127"><ele>28.0</ele><time>2026-04-12T03:10:49Z</time></trkpt><trkpt lat="-31.71695171860124" lon="115.7749160134227"><ele>28.0</ele><time>2026-04-12T03:10:50Z</time></trkpt><trkpt lat="-31.716927126100874" lon="115.77515570508577"><ele>29.0</ele><time>2026-04-12T03:10:51Z</time></trkpt><trkpt lat="-31.71690199289357" lon="115.77539296512512"><ele>30.0</ele><time>2026-04-12T03:10:52Z</time></trkpt><trkpt lat="-31.716877685303555" lon="115.7756298587308"><ele>31.0</ele><time>2026-04-12T03:10:53Z</time></trkpt><trkpt lat="-31.716855636104153" lon="115.7758699629534"><ele>31.666666666666668</ele><time>2026-04-12T03:10:54Z</time></trkpt><trkpt lat="-31.716834465786146" lon="115.77611634758433"><ele>32.333333333333336</ele><time>2026-04-12T03:10:55Z</time></trkpt><trkpt lat="-31.716812908491466" lon="115.77636537485094"><ele>33.0</ele><time>2026-04-12T03:10:56Z</time></trkpt><trkpt lat="-31.716793201543954" lon="115.77662671583822"><ele>33.5</ele><time>2026-04-12T03:10:57Z</time></trkpt><trkpt lat="-31.716774746746918" lon="115.77689632418372"><ele>34.0</ele><time>2026-04-12T03:10:58Z</time></trkpt><trkpt lat="-31.716757773292567" lon="115.77716203014062"><ele>34.0</ele><time>2026-04-12T03:10:59Z</time></trkpt><trkpt lat="-31.716740147025106" lon="115.77742028651676"><ele>34.0</ele><time>2026-04-12T03:11:00Z</time></trkpt><trkpt lat="-31.71671898608498" lon="115.77767380051054"><ele>34.0</ele><time>2026-04-12T03:11:01Z</time></trkpt><trkpt lat="-31.716697057533114" lon="115.77793267803727"><ele>34.0</ele><time>2026-04-12T03:11:02Z</time></trkpt><trkpt lat="-31.716675000979674" lon="115.77818769988878"><ele>34.0</ele><time>2026-04-12T03:11:03Z</time></trkpt><trkpt lat="-31.716654241438718" lon="115.77843228023362"><ele>34.0</ele><time>2026-04-12T03:11:04Z</time></trkpt><trkpt lat="-31.71663196300752" lon="115.77867808876464"><ele>34.0</ele><time>2026-04-12T03:11:05Z</time></trkpt><trkpt lat="-31.71660565388108" lon="115.77890586605956"><ele>34.0</ele><time>2026-04-12T03:11:06Z</time></trkpt><trkpt lat="-31.71657122251752" lon="115.77911555531094"><ele>34.0</ele><time>2026-04-12T03:11:07Z</time></trkpt><trkpt lat="-31.716529537017486" lon="115.77931069494237"><ele>33.0</ele><time>2026-04-12T03:11:08Z</time></trkpt><trkpt lat="-31.716487121430333" lon="115.77949808514778"><ele>32.0</ele><time>2026-04-12T03:11:09Z</time></trkpt><trkpt lat="-31.716446267758695" lon="115.77966606494161"><ele>31.0</ele><time>2026-04-12T03:11:10Z</time></trkpt><trkpt lat="-31.716407441596136" lon="115.779819768052"><ele>31.0</ele><time>2026-04-12T03:11:11Z</time></trkpt><trkpt lat="-31.716385280264337" lon="115.77994370051587"><ele>31.0</ele><time>2026-04-12T03:11:12Z</time></trkpt><trkpt lat="-31.716378313991942" lon="115.78002802094419"><ele>31.0</ele><time>2026-04-12T03:11:13Z</time></trkpt><trkpt lat="-31.716391284814907" lon="115.78012230095604"><ele>31.0</ele><time>2026-04-12T03:11:15Z</time></trkpt><trkpt lat="-31.716361540317056" lon="115.78027482708352"><ele>31.0</ele><time>2026-04-12T03:11:17Z</time></trkpt><trkpt lat="-31.716307824277006" lon="115.78036313351741"><ele>31.4</ele><time>2026-04-12T03:11:18Z</time></trkpt><trkpt lat="-31.716241410620032" lon="115.78044204615544"><ele>31.8</ele><time>2026-04-12T03:11:19Z</time></trkpt><trkpt lat="-31.7161892592134" lon="115.7805265878955"><ele>32.199999999999996</ele><time>2026-04-12T03:11:20Z</time></trkpt><trkpt lat="-31.716156829771638" lon="115.78063579085028"><ele>32.6</ele><time>2026-04-12T03:11:21Z</time></trkpt><trkpt lat="-31.71614506522285" lon="115.78078066659948"><ele>33.0</ele><time>2026-04-12T03:11:22Z</time></trkpt><trkpt lat="-31.716140551842837" lon="115.7809658860277"><ele>32.666666666666664</ele><time>2026-04-12T03:11:23Z</time></trkpt><trkpt lat="-31.716127114606856" lon="115.7811595123619"><ele>32.33333333333333</ele><time>2026-04-12T03:11:24Z</time></trkpt><trkpt lat="-31.716094173199746" lon="115.78135249491072"><ele>32.0</ele><time>2026-04-12T03:11:25Z</time></trkpt><trkpt lat="-31.71603099801479" lon="115.78156198593749"><ele>32.666666666666664</ele><time>2026-04-12T03:11:26Z</time></trkpt><trkpt lat="-31.715950895235647" lon="115.78178811089118"><ele>33.333333333333336</ele><time>2026-04-12T03:11:27Z</time></trkpt><trkpt lat="-31.715870501398637" lon="115.78201659633207"><ele>34.0</ele><time>2026-04-12T03:11:28Z</time></trkpt><trkpt lat="-31.715786827583035" lon="115.7822563656406"><ele>34.333333333333336</ele><time>2026-04-12T03:11:29Z</time></trkpt><trkpt lat="-31.71569803866222" lon="115.78248724315021"><ele>34.666666666666664</ele><time>2026-04-12T03:11:30Z</time></trkpt><trkpt lat="-31.7156070498074" lon="115.78271140148898"><ele>35.0</ele><time>2026-04-12T03:11:31Z</time></trkpt><trkpt lat="-31.71551095115235" lon="115.78293972559082"><ele>36.666666666666664</ele><time>2026-04-12T03:11:32Z</time></trkpt><trkpt lat="-31.715411711172028" lon="115.78316944069418"><ele>38.333333333333336</ele><time>2026-04-12T03:11:33Z</time></trkpt><trkpt lat="-31.715312831473916" lon="115.78340154070214"><ele>40.0</ele><time>2026-04-12T03:11:34Z</time></trkpt><trkpt lat="-31.71521152719169" lon="115.78363826129436"><ele>40.66666666666667</ele><time>2026-04-12T03:11:35Z</time></trkpt><trkpt lat="-31.7151262724456" lon="115.78388161383866"><ele>41.333333333333336</ele><time>2026-04-12T03:11:36Z</time></trkpt><trkpt lat="-31.715005481703333" lon="115.78408978544574"><ele>42.0</ele><time>2026-04-12T03:11:37Z</time></trkpt><trkpt lat="-31.71489993457579" lon="115.78430776387563"><ele>42.333333333333336</ele><time>2026-04-12T03:11:38Z</time></trkpt><trkpt lat="-31.714793291952773" lon="115.78452516635724"><ele>42.66666666666667</ele><time>2026-04-12T03:11:39Z</time></trkpt><trkpt lat="-31.71469246612647" lon="115.7847430416595"><ele>43.0</ele><time>2026-04-12T03:11:40Z</time></trkpt><trkpt lat="-31.71458881686182" lon="115.78496351357391"><ele>43.333333333333336</ele><time>2026-04-12T03:11:41Z</time></trkpt><trkpt lat="-31.714483160561116" lon="115.78518798062257"><ele>43.666666666666664</ele><time>2026-04-12T03:11:42Z</time></trkpt><trkpt lat="-31.71437793586568" lon="115.78541094630214"><ele>44.0</ele><time>2026-04-12T03:11:43Z</time></trkpt><trkpt lat="-31.714273446362682" lon="115.78563857517678"><ele>44.33333333333333</ele><time>2026-04-12T03:11:44Z</time></trkpt><trkpt lat="-31.714164929032798" lon="115.78586978607292"><ele>44.666666666666664</ele><time>2026-04-12T03:11:45Z</time></trkpt><trkpt lat="-31.714055103567052" lon="115.78609987537214"><ele>45.0</ele><time>2026-04-12T03:11:46Z</time></trkpt><trkpt lat="-31.713947399595433" lon="115.78632153180561"><ele>43.666666666666664</ele><time>2026-04-12T03:11:47Z</time></trkpt><trkpt lat="-31.71383985811269" lon="115.78654097057665"><ele>42.33333333333333</ele><time>2026-04-12T03:11:48Z</time></trkpt><trkpt lat="-31.713734014397563" lon="115.78675532462793"><ele>41.0</ele><time>2026-04-12T03:11:49Z</time></trkpt><trkpt lat="-31.713627942422242" lon="115.78697084988617"><ele>42.33333333333333</ele><time>2026-04-12T03:11:50Z</time></trkpt><trkpt lat="-31.713525172876505" lon="115.78718292933749"><ele>43.666666666666664</ele><time>2026-04-12T03:11:51Z</time></trkpt><trkpt lat="-31.71342419848634" lon="115.78740305813503"><ele>45.0</ele><time>2026-04-12T03:11:52Z</time></trkpt><trkpt lat="-31.713328595548067" lon="115.78762830555374"><ele>45.333333333333336</ele><time>2026-04-12T03:11:53Z</time></trkpt><trkpt lat="-31.71323864280399" lon="115.78785742246134"><ele>45.66666666666667</ele><time>2026-04-12T03:11:54Z</time></trkpt><trkpt lat="-31.713158271272665" lon="115.78807557453274"><ele>46.0</ele><time>2026-04-12T03:11:55Z</time></trkpt><trkpt lat="-31.71308324850268" lon="115.78827685224255"><ele>46.0</ele><time>2026-04-12T03:11:56Z</time></trkpt><trkpt lat="-31.7130093374736" lon="115.78846698666781"><ele>46.0</ele><time>2026-04-12T03:11:57Z</time></trkpt><trkpt lat="-31.712932713334954" lon="115.78863971035328"><ele>46.0</ele><time>2026-04-12T03:11:58Z</time></trkpt><trkpt lat="-31.712861122823227" lon="115.78880442860613"><ele>46.0</ele><time>2026-04-12T03:11:59Z</time></trkpt><trkpt lat="-31.71280130141933" lon="115.78896270213748"><ele>46.0</ele><time>2026-04-12T03:12:00Z</time></trkpt><trkpt lat="-31.712749419775903" lon="115.78911504532978"><ele>46.0</ele><time>2026-04-12T03:12:01Z</time></trkpt><trkpt lat="-31.712699126860226" lon="115.78925343311661"><ele>46.0</ele><time>2026-04-12T03:12:02Z</time></trkpt><trkpt lat="-31.7126612381118" lon="115.78939080530236"><ele>45.75</ele><time>2026-04-12T03:12:03Z</time></trkpt><trkpt lat="-31.71259002307742" lon="115.78950684728025"><ele>45.5</ele><time>2026-04-12T03:12:04Z</time></trkpt><trkpt lat="-31.71255321358955" lon="115.78963399450647"><ele>45.25</ele><time>2026-04-12T03:12:05Z</time></trkpt><trkpt lat="-31.712484707939463" lon="115.78974626006581"><ele>45.0</ele><time>2026-04-12T03:12:06Z</time></trkpt><trkpt lat="-31.712556893532366" lon="115.78994803655057"><ele>45.0</ele><time>2026-04-12T03:12:07Z</time></trkpt><trkpt lat="-31.71256175276408" lon="115.79012528076161"><ele>45.0</ele><time>2026-04-12T03:12:08Z</time></trkpt><trkpt lat="-31.712549668528137" lon="115.79031223919942"><ele>45.0</ele><time>2026-04-12T03:12:09Z</time></trkpt><trkpt lat="-31.712530235353302" lon="115.7905096289904"><ele>46.33333333333333</ele><time>2026-04-12T03:12:10Z</time></trkpt><trkpt lat="-31.712507603257425" lon="115.7907204659809"><ele>47.666666666666664</ele><time>2026-04-12T03:12:11Z</time></trkpt><trkpt lat="-31.712490685362496" lon="115.7909474088714"><ele>49.0</ele><time>2026-04-12T03:12:12Z</time></trkpt><trkpt lat="-31.71247740773525" lon="115.79118087581062"><ele>49.33333333333333</ele><time>2026-04-12T03:12:13Z</time></trkpt><trkpt lat="-31.712474317894962" lon="115.79140507034731"><ele>49.66666666666667</ele><time>2026-04-12T03:12:14Z</time></trkpt><trkpt lat="-31.712472509477383" lon="115.79164326492767"><ele>50.0</ele><time>2026-04-12T03:12:15Z</time></trkpt><trkpt lat="-31.712472397291027" lon="115.79189176202507"><ele>50.66666666666667</ele><time>2026-04-12T03:12:16Z</time></trkpt><trkpt lat="-31.712469808943865" lon="115.79214778429525"><ele>51.33333333333333</ele><time>2026-04-12T03:12:17Z</time></trkpt><trkpt lat="-31.712465582974453" lon="115.79240886038114"><ele>52.0</ele><time>2026-04-12T03:12:18Z</time></trkpt><trkpt lat="-31.7124637340717" lon="115.79266163206285"><ele>53.666666666666664</ele><time>2026-04-12T03:12:19Z</time></trkpt><trkpt lat="-31.712462950234038" lon="115.79291359345004"><ele>55.33333333333333</ele><time>2026-04-12T03:12:20Z</time></trkpt><trkpt lat="-31.71246171256787" lon="115.79317306589756"><ele>57.0</ele><time>2026-04-12T03:12:21Z</time></trkpt><trkpt lat="-31.712461648713653" lon="115.79343355395514"><ele>56.33333333333333</ele><time>2026-04-12T03:12:22Z</time></trkpt><trkpt lat="-31.712463940988748" lon="115.7936953163158"><ele>55.666666666666664</ele><time>2026-04-12T03:12:23Z</time></trkpt><trkpt lat="-31.71246445868173" lon="115.79395613517374"><ele>55.0</ele><time>2026-04-12T03:12:24Z</time></trkpt><trkpt lat="-31.712460724277317" lon="115.79421571568197"><ele>54.33333333333333</ele><time>2026-04-12T03:12:25Z</time></trkpt><trkpt lat="-31.71244849242941" lon="115.79447307930118"><ele>53.66666666666667</ele><time>2026-04-12T03:12:26Z</time></trkpt><trkpt lat="-31.712424465679774" lon="115.79473055654623"><ele>53.0</ele><time>2026-04-12T03:12:27Z</time></trkpt><trkpt lat="-31.712391940154575" lon="115.79498927442401"><ele>54.0</ele><time>2026-04-12T03:12:28Z</time></trkpt><trkpt lat="-31.71235606469749" lon="115.79524696262564"><ele>55.0</ele><time>2026-04-12T03:12:29Z</time></trkpt><trkpt lat="-31.712316771114043" lon="115.79549925057646"><ele>56.0</ele><time>2026-04-12T03:12:30Z</time></trkpt><trkpt lat="-31.71227256275827" lon="115.79574561597352"><ele>56.0</ele><time>2026-04-12T03:12:31Z</time></trkpt><trkpt lat="-31.71221798431989" lon="115.79599010811793"><ele>56.0</ele><time>2026-04-12T03:12:32Z</time></trkpt><trkpt lat="-31.712155866502687" lon="115.79623598605666"><ele>56.0</ele><time>2026-04-12T03:12:33Z</time></trkpt><trkpt lat="-31.712088793011805" lon="115.79647976754597"><ele>56.0</ele><time>2026-04-12T03:12:34Z</time></trkpt><trkpt lat="-31.712015865148864" lon="115.79672352106353"><ele>56.0</ele><time>2026-04-12T03:12:35Z</time></trkpt><trkpt lat="-31.711934322246098" lon="115.79696464779802"><ele>56.0</ele><time>2026-04-12T03:12:36Z</time></trkpt><trkpt lat="-31.71184675397867" lon="115.79720548785191"><ele>56.0</ele><time>2026-04-12T03:12:37Z</time></trkpt><trkpt lat="-31.711750121616813" lon="115.79744604842931"><ele>56.0</ele><time>2026-04-12T03:12:38Z</time></trkpt><trkpt lat="-31.711649032043503" lon="115.79768399870821"><ele>55.0</ele><time>2026-04-12T03:12:39Z</time></trkpt><trkpt lat="-31.711544597699746" lon="115.79791301420623"><ele>54.0</ele><time>2026-04-12T03:12:40Z</time></trkpt><trkpt lat="-31.711434636767546" lon="115.79813730449693"><ele>53.0</ele><time>2026-04-12T03:12:41Z</time></trkpt><trkpt lat="-31.71131580734797" lon="115.79836342725413"><ele>55.5</ele><time>2026-04-12T03:12:42Z</time></trkpt><trkpt lat="-31.711185555020858" lon="115.79859336402644"><ele>58.0</ele><time>2026-04-12T03:12:43Z</time></trkpt><trkpt lat="-31.7110451366756" lon="115.79882352473946"><ele>58.0</ele><time>2026-04-12T03:12:44Z</time></trkpt><trkpt lat="-31.710898383642515" lon="115.79904758505478"><ele>58.0</ele><time>2026-04-12T03:12:45Z</time></trkpt><trkpt lat="-31.710743096856643" lon="115.79926534700644"><ele>61.5</ele><time>2026-04-12T03:12:46Z</time></trkpt><trkpt lat="-31.71057936471091" lon="115.7994742497854"><ele>65.0</ele><time>2026-04-12T03:12:47Z</time></trkpt><trkpt lat="-31.71040781882551" lon="115.7996763741136"><ele>64.5</ele><time>2026-04-12T03:12:48Z</time></trkpt><trkpt lat="-31.710234342751633" lon="115.79988224432844"><ele>64.0</ele><time>2026-04-12T03:12:49Z</time></trkpt><trkpt lat="-31.71006046374284" lon="115.80007680670941"><ele>63.0</ele><time>2026-04-12T03:12:50Z</time></trkpt><trkpt lat="-31.709880505479852" lon="115.8002593864967"><ele>62.0</ele><time>2026-04-12T03:12:51Z</time></trkpt><trkpt lat="-31.709699539356183" lon="115.8004336535761"><ele>62.0</ele><time>2026-04-12T03:12:52Z</time></trkpt><trkpt lat="-31.709515989595584" lon="115.8005964717923"><ele>62.0</ele><time>2026-04-12T03:12:53Z</time></trkpt><trkpt lat="-31.70933058783912" lon="115.80074863705552"><ele>62.66666666666667</ele><time>2026-04-12T03:12:54Z</time></trkpt><trkpt lat="-31.7091519088007" lon="115.80088902812089"><ele>63.33333333333333</ele><time>2026-04-12T03:12:55Z</time></trkpt><trkpt lat="-31.708982466473476" lon="115.80101672962502"><ele>64.0</ele><time>2026-04-12T03:12:56Z</time></trkpt><trkpt lat="-31.708834002787853" lon="115.80113265388525"><ele>64.0</ele><time>2026-04-12T03:12:57Z</time></trkpt><trkpt lat="-31.70871360921446" lon="115.80123845257215"><ele>64.0</ele><time>2026-04-12T03:12:58Z</time></trkpt><trkpt lat="-31.708617139391087" lon="115.80133929118108"><ele>64.0</ele><time>2026-04-12T03:12:59Z</time></trkpt><trkpt lat="-31.708529277143874" lon="115.80143678159725"><ele>64.0</ele><time>2026-04-12T03:13:00Z</time></trkpt><trkpt lat="-31.708439663643425" lon="115.80152081830705"><ele>64.25</ele><time>2026-04-12T03:13:01Z</time></trkpt><trkpt lat="-31.708344476456155" lon="115.80158965126549"><ele>64.5</ele><time>2026-04-12T03:13:02Z</time></trkpt><trkpt lat="-31.70823073514783" lon="115.80163228189525"><ele>64.75</ele><time>2026-04-12T03:13:03Z</time></trkpt><trkpt lat="-31.708105521281247" lon="115.80165761513972"><ele>65.0</ele><time>2026-04-12T03:13:04Z</time></trkpt><trkpt lat="-31.70799011191094" lon="115.80165903240498"><ele>65.0</ele><time>2026-04-12T03:13:05Z</time></trkpt><trkpt lat="-31.707877764779774" lon="115.8016296010155"><ele>65.0</ele><time>2026-04-12T03:13:06Z</time></trkpt><trkpt lat="-31.70776276734209" lon="115.80155731698655"><ele>65.0</ele><time>2026-04-12T03:13:07Z</time></trkpt><trkpt lat="-31.707644997754922" lon="115.80146969763949"><ele>65.0</ele><time>2026-04-12T03:13:08Z</time></trkpt><trkpt lat="-31.70752624834953" lon="115.80136060278997"><ele>66.33333333333334</ele><time>2026-04-12T03:13:09Z</time></trkpt><trkpt lat="-31.70740675546076" lon="115.80123523122492"><ele>67.66666666666667</ele><time>2026-04-12T03:13:10Z</time></trkpt><trkpt lat="-31.707293562768296" lon="115.80109619930649"><ele>69.0</ele><time>2026-04-12T03:13:11Z</time></trkpt><trkpt lat="-31.707190957449573" lon="115.80096216476613"><ele>69.0</ele><time>2026-04-12T03:13:12Z</time></trkpt><trkpt lat="-31.707098228957616" lon="115.80083931473361"><ele>69.0</ele><time>2026-04-12T03:13:13Z</time></trkpt><trkpt lat="-31.707002900297958" lon="115.80073277121433"><ele>69.0</ele><time>2026-04-12T03:13:14Z</time></trkpt><trkpt lat="-31.706908778862946" lon="115.80064728904368"><ele>69.0</ele><time>2026-04-12T03:13:15Z</time></trkpt><trkpt lat="-31.70682961054244" lon="115.80054987615432"><ele>70.2</ele><time>2026-04-12T03:13:16Z</time></trkpt><trkpt lat="-31.706748998018107" lon="115.80047257876434"><ele>71.4</ele><time>2026-04-12T03:13:17Z</time></trkpt><trkpt lat="-31.70668044527676" lon="115.80041039740279"><ele>72.6</ele><time>2026-04-12T03:13:18Z</time></trkpt><trkpt lat="-31.706622090010253" lon="115.80035868056915"><ele>73.8</ele><time>2026-04-12T03:13:19Z</time></trkpt><trkpt lat="-31.706566095447066" lon="115.80030905583575"><ele>75.0</ele><time>2026-04-12T03:13:20Z</time></trkpt><trkpt lat="-31.706399872008337" lon="115.80050789539568"><ele>75.0</ele><time>2026-04-12T03:13:23Z</time></trkpt><trkpt lat="-31.706347380901384" lon="115.80058232269552"><ele>75.0</ele><time>2026-04-12T03:13:24Z</time></trkpt><trkpt lat="-31.70631125494204" lon="115.80068194951357"><ele>75.0</ele><time>2026-04-12T03:13:25Z</time></trkpt><trkpt lat="-31.706291624771843" lon="115.80079099157224"><ele>75.0</ele><time>2026-04-12T03:13:26Z</time></trkpt><trkpt lat="-31.706286145895422" lon="115.80088715991464"><ele>75.0</ele><time>2026-04-12T03:13:27Z</time></trkpt><trkpt lat="-31.706286836441755" lon="115.8009684359428"><ele>75.0</ele><time>2026-04-12T03:13:28Z</time></trkpt><trkpt lat="-31.70629124087063" lon="115.801097892933"><ele>74.5</ele><time>2026-04-12T03:13:30Z</time></trkpt><trkpt lat="-31.706297528299586" lon="115.80121551879391"><ele>74.0</ele><time>2026-04-12T03:13:32Z</time></trkpt><trkpt lat="-31.706469244409643" lon="115.80124865894182"><ele>73.5</ele><time>2026-04-12T03:13:35Z</time></trkpt><trkpt lat="-31.706561687574265" lon="115.80124158115764"><ele>73.0</ele><time>2026-04-12T03:13:37Z</time></trkpt><trkpt lat="-31.706645184488625" lon="115.80125621623992"><ele>73.0</ele><time>2026-04-12T03:13:39Z</time></trkpt><trkpt lat="-31.70670647467084" lon="115.8012736908757"><ele>73.0</ele><time>2026-04-12T03:14:32Z</time></trkpt><trkpt lat="-31.706687820172966" lon="115.8013688748545"><ele>73.0</ele><time>2026-04-12T03:22:16.999Z</time></trkpt><trkpt lat="-31.706650313913112" lon="115.80149205433013"><ele>73.0</ele><time>2026-04-12T03:22:18.999Z</time></trkpt><trkpt lat="-31.706657229269794" lon="115.8016137563334"><ele>73.0</ele><time>2026-04-12T03:22:20.999Z</time></trkpt><trkpt lat="-31.706681215734836" lon="115.80172666951178"><ele>73.0</ele><time>2026-04-12T03:22:22.999Z</time></trkpt><trkpt lat="-31.7066812157348" lon="115.80182989107617"><ele>73.0</ele><time>2026-04-12T03:22:24.999Z</time></trkpt><trkpt lat="-31.706669549125817" lon="115.80193264064282"><ele>73.0</ele><time>2026-04-12T03:22:26.999Z</time></trkpt><trkpt lat="-31.706667593551813" lon="115.80204359280273"><ele>73.0</ele><time>2026-04-12T03:22:28.999Z</time></trkpt><trkpt lat="-31.706679584876703" lon="115.80218238627131"><ele>73.0</ele><time>2026-04-12T03:22:30.999Z</time></trkpt><trkpt lat="-31.706685093699054" lon="115.80230355838435"><ele>72.8</ele><time>2026-04-12T03:22:32.999Z</time></trkpt><trkpt lat="-31.706683269607854" lon="115.80239136459733"><ele>72.6</ele><time>2026-04-12T03:22:35Z</time></trkpt><trkpt lat="-31.706558716018147" lon="115.80244862882499"><ele>72.4</ele><time>2026-04-12T03:22:38Z</time></trkpt><trkpt lat="-31.70652244230806" lon="115.80235383281274"><ele>72.2</ele><time>2026-04-12T03:22:39Z</time></trkpt><trkpt lat="-31.70644916135775" lon="115.80236892621579"><ele>72.0</ele><time>2026-04-12T03:22:41Z</time></trkpt><trkpt lat="-31.70637063803843" lon="115.80234941399205"><ele>72.0</ele><time>2026-04-12T03:22:44Z</time></trkpt><trkpt lat="-31.70629994077402" lon="115.80236071728926"><ele>72.0</ele><time>2026-04-12T03:22:47Z</time></trkpt><trkpt lat="-31.706263622173072" lon="115.80247009100981"><ele>72.0</ele><time>2026-04-12T03:22:49Z</time></trkpt><trkpt lat="-31.706266646984094" lon="115.80256389695425"><ele>72.0</ele><time>2026-04-12T03:22:50Z</time></trkpt><trkpt lat="-31.706250095215914" lon="115.80266719583963"><ele>72.0</ele><time>2026-04-12T03:22:51Z</time></trkpt><trkpt lat="-31.706231169748342" lon="115.80276232743053"><ele>72.0</ele><time>2026-04-12T03:22:52Z</time></trkpt><trkpt lat="-31.706213902099726" lon="115.80284691922367"><ele>72.0</ele><time>2026-04-12T03:22:53Z</time></trkpt><trkpt lat="-31.706224005123286" lon="115.80293236155491"><ele>72.0</ele><time>2026-04-12T03:22:54Z</time></trkpt><trkpt lat="-31.706213617606846" lon="115.80307305878969"><ele>72.0</ele><time>2026-04-12T03:22:56Z</time></trkpt><trkpt lat="-31.706229359182398" lon="115.8031528509219"><ele>72.0</ele><time>2026-04-12T03:22:58Z</time></trkpt><trkpt lat="-31.706239433176457" lon="115.80330564683342"><ele>72.0</ele><time>2026-04-12T03:23:01Z</time></trkpt><trkpt lat="-31.706157845171436" lon="115.80338640512143"><ele>72.0</ele><time>2026-04-12T03:23:02Z</time></trkpt><trkpt lat="-31.70608660593261" lon="115.80346041454229"><ele>72.0</ele><time>2026-04-12T03:23:03Z</time></trkpt><trkpt lat="-31.70600869437323" lon="115.80352964187249"><ele>72.0</ele><time>2026-04-12T03:23:04Z</time></trkpt><trkpt lat="-31.705927907164117" lon="115.80359210817515"><ele>72.0</ele><time>2026-04-12T03:23:05Z</time></trkpt><trkpt lat="-31.705852341944613" lon="115.80364442094631"><ele>72.0</ele><time>2026-04-12T03:23:06Z</time></trkpt><trkpt lat="-31.70578670415304" lon="115.80369102971235"><ele>72.66666666666667</ele><time>2026-04-12T03:23:07Z</time></trkpt><trkpt lat="-31.7057276803284" lon="115.80373271056278"><ele>73.33333333333333</ele><time>2026-04-12T03:23:08Z</time></trkpt><trkpt lat="-31.705634106024853" lon="115.80379735097803"><ele>74.0</ele><time>2026-04-12T03:23:10Z</time></trkpt><trkpt lat="-31.705564256526657" lon="115.80384237530454"><ele>74.66666666666666</ele><time>2026-04-12T03:23:12Z</time></trkpt><trkpt lat="-31.705502961155656" lon="115.80388373480798"><ele>75.33333333333333</ele><time>2026-04-12T03:23:26Z</time></trkpt><trkpt lat="-31.705442617819017" lon="115.80392269833885"><ele>76.0</ele><time>2026-04-12T03:23:27Z</time></trkpt><trkpt lat="-31.70536990013922" lon="115.80396583148925"><ele>76.0</ele><time>2026-04-12T03:23:28Z</time></trkpt><trkpt lat="-31.705276776611687" lon="115.80402292692106"><ele>76.0</ele><time>2026-04-12T03:23:29Z</time></trkpt><trkpt lat="-31.70517487920554" lon="115.80408661601952"><ele>76.0</ele><time>2026-04-12T03:23:30Z</time></trkpt><trkpt lat="-31.705067551331055" lon="115.80415732440902"><ele>76.0</ele><time>2026-04-12T03:23:31Z</time></trkpt><trkpt lat="-31.70494969986386" lon="115.80423065047239"><ele>76.66666666666666</ele><time>2026-04-12T03:23:32Z</time></trkpt><trkpt lat="-31.70478050356765" lon="115.80429907355463"><ele>77.33333333333333</ele><time>2026-04-12T03:23:33Z</time></trkpt><trkpt lat="-31.704639731579118" lon="115.80436131151023"><ele>78.0</ele><time>2026-04-12T03:23:34Z</time></trkpt><trkpt lat="-31.70449280734071" lon="115.80442713713543"><ele>78.75</ele><time>2026-04-12T03:23:35Z</time></trkpt><trkpt lat="-31.704344223479897" lon="115.80449609553284"><ele>79.5</ele><time>2026-04-12T03:23:36Z</time></trkpt><trkpt lat="-31.7042084334547" lon="115.80455937725576"><ele>80.25</ele><time>2026-04-12T03:23:37Z</time></trkpt><trkpt lat="-31.704082667471397" lon="115.80461777563791"><ele>81.0</ele><time>2026-04-12T03:23:38Z</time></trkpt><trkpt lat="-31.70396852243271" lon="115.80467446287615"><ele>81.0</ele><time>2026-04-12T03:23:39Z</time></trkpt><trkpt lat="-31.703860415068164" lon="115.80472653193546"><ele>81.0</ele><time>2026-04-12T03:23:40Z</time></trkpt><trkpt lat="-31.703758679199105" lon="115.80477375198599"><ele>81.0</ele><time>2026-04-12T03:23:41Z</time></trkpt><trkpt lat="-31.703661572043877" lon="115.80481129209582"><ele>81.0</ele><time>2026-04-12T03:23:42Z</time></trkpt><trkpt lat="-31.703563207330728" lon="115.80483099609401"><ele>81.0</ele><time>2026-04-12T03:23:43Z</time></trkpt><trkpt lat="-31.703471444285185" lon="115.80482305935443"><ele>81.19999999999999</ele><time>2026-04-12T03:23:44Z</time></trkpt><trkpt lat="-31.70339039087295" lon="115.80479307530855"><ele>81.39999999999999</ele><time>2026-04-12T03:23:45Z</time></trkpt><trkpt lat="-31.703304951840547" lon="115.80476735347824"><ele>81.6</ele><time>2026-04-12T03:23:46Z</time></trkpt><trkpt lat="-31.7032140555337" lon="115.80476364773784"><ele>81.8</ele><time>2026-04-12T03:23:47Z</time></trkpt><trkpt lat="-31.703120801684637" lon="115.80478445274792"><ele>82.0</ele><time>2026-04-12T03:23:48Z</time></trkpt><trkpt lat="-31.703028837623012" lon="115.80483604673388"><ele>82.0</ele><time>2026-04-12T03:23:49Z</time></trkpt><trkpt lat="-31.702932831565185" lon="115.8049080522774"><ele>82.0</ele><time>2026-04-12T03:23:50Z</time></trkpt><trkpt lat="-31.702827829861132" lon="115.80498647623754"><ele>82.0</ele><time>2026-04-12T03:23:51Z</time></trkpt><trkpt lat="-31.702715740974103" lon="115.80504584982415"><ele>82.0</ele><time>2026-04-12T03:23:52Z</time></trkpt><trkpt lat="-31.70259401604298" lon="115.80509076758537"><ele>82.25</ele><time>2026-04-12T03:23:53Z</time></trkpt><trkpt lat="-31.702457644774356" lon="115.80513434373297"><ele>82.5</ele><time>2026-04-12T03:23:54Z</time></trkpt><trkpt lat="-31.70232332837831" lon="115.80518217311655"><ele>82.75</ele><time>2026-04-12T03:23:55Z</time></trkpt><trkpt lat="-31.702186047912868" lon="115.80522992938583"><ele>83.0</ele><time>2026-04-12T03:23:56Z</time></trkpt><trkpt lat="-31.702046106173924" lon="115.80527655358603"><ele>82.0</ele><time>2026-04-12T03:23:57Z</time></trkpt><trkpt lat="-31.701901210145987" lon="115.80532315403076"><ele>81.0</ele><time>2026-04-12T03:23:58Z</time></trkpt><trkpt lat="-31.701751493532818" lon="115.80537144982179"><ele>80.0</ele><time>2026-04-12T03:23:59Z</time></trkpt><trkpt lat="-31.701597671813133" lon="115.80542207172921"><ele>80.0</ele><time>2026-04-12T03:24:00Z</time></trkpt><trkpt lat="-31.701449046352728" lon="115.8054736265913"><ele>80.0</ele><time>2026-04-12T03:24:01Z</time></trkpt><trkpt lat="-31.701303275877248" lon="115.80552509490357"><ele>80.0</ele><time>2026-04-12T03:24:02Z</time></trkpt><trkpt lat="-31.701159142930766" lon="115.80557654899998"><ele>78.66666666666667</ele><time>2026-04-12T03:24:03Z</time></trkpt><trkpt lat="-31.701010879897677" lon="115.80562795294944"><ele>77.33333333333333</ele><time>2026-04-12T03:24:04.001Z</time></trkpt><trkpt lat="-31.70085343780525" lon="115.80568038743947"><ele>76.0</ele><time>2026-04-12T03:24:05.001Z</time></trkpt><trkpt lat="-31.700691190199684" lon="115.8057330275808"><ele>76.0</ele><time>2026-04-12T03:24:06.001Z</time></trkpt><trkpt lat="-31.7005256765397" lon="115.80578735550603"><ele>76.0</ele><time>2026-04-12T03:24:07.001Z</time></trkpt><trkpt lat="-31.700356601410235" lon="115.80584764258664"><ele>76.0</ele><time>2026-04-12T03:24:08.001Z</time></trkpt><trkpt lat="-31.700187347216634" lon="115.80591354824345"><ele>75.66666666666666</ele><time>2026-04-12T03:24:09.001Z</time></trkpt><trkpt lat="-31.700028444904834" lon="115.80598307098636"><ele>75.33333333333333</ele><time>2026-04-12T03:24:10.001Z</time></trkpt><trkpt lat="-31.699878845058464" lon="115.80605396160159"><ele>75.0</ele><time>2026-04-12T03:24:11.001Z</time></trkpt><trkpt lat="-31.69973762144261" lon="115.80612319761924"><ele>74.5</ele><time>2026-04-12T03:24:12.001Z</time></trkpt><trkpt lat="-31.6996032661209" lon="115.8061900210455"><ele>74.0</ele><time>2026-04-12T03:24:13.001Z</time></trkpt><trkpt lat="-31.699473812294865" lon="115.80625943888694"><ele>73.5</ele><time>2026-04-12T03:24:14.001Z</time></trkpt><trkpt lat="-31.699347764836897" lon="115.80633604359845"><ele>73.0</ele><time>2026-04-12T03:24:15.001Z</time></trkpt><trkpt lat="-31.699222423023144" lon="115.8064144036422"><ele>72.33333333333333</ele><time>2026-04-12T03:24:16.001Z</time></trkpt><trkpt lat="-31.699096959003718" lon="115.80649457464337"><ele>71.66666666666667</ele><time>2026-04-12T03:24:17.001Z</time></trkpt><trkpt lat="-31.69897212286465" lon="115.80657720105228"><ele>71.0</ele><time>2026-04-12T03:24:18.001Z</time></trkpt><trkpt lat="-31.698761247910014" lon="115.80669617194083"><ele>71.0</ele><time>2026-04-12T03:24:19.001Z</time></trkpt><trkpt lat="-31.698611868907456" lon="115.80681335263284"><ele>71.0</ele><time>2026-04-12T03:24:19.999Z</time></trkpt><trkpt lat="-31.698462800673433" lon="115.80693550280795"><ele>71.0</ele><time>2026-04-12T03:24:20.999Z</time></trkpt><trkpt lat="-31.69831232446136" lon="115.80705938253249"><ele>70.0</ele><time>2026-04-12T03:24:21.999Z</time></trkpt><trkpt lat="-31.69816303877195" lon="115.80718484659285"><ele>69.0</ele><time>2026-04-12T03:24:22.999Z</time></trkpt><trkpt lat="-31.698023517320564" lon="115.80731128349207"><ele>68.0</ele><time>2026-04-12T03:24:23.999Z</time></trkpt><trkpt lat="-31.697882967552903" lon="115.80744356693211"><ele>68.0</ele><time>2026-04-12T03:24:24.999Z</time></trkpt><trkpt lat="-31.69775090390054" lon="115.80758384950519"><ele>68.0</ele><time>2026-04-12T03:24:25.999Z</time></trkpt><trkpt lat="-31.697619449685142" lon="115.80772645305845"><ele>68.0</ele><time>2026-04-12T03:24:26.999Z</time></trkpt><trkpt lat="-31.697485808905572" lon="115.80787339542555"><ele>68.0</ele><time>2026-04-12T03:24:27.999Z</time></trkpt><trkpt lat="-31.697355183918805" lon="115.80802781972399"><ele>68.0</ele><time>2026-04-12T03:24:28.999Z</time></trkpt><trkpt lat="-31.69722935051113" lon="115.80818092058473"><ele>68.0</ele><time>2026-04-12T03:24:29.999Z</time></trkpt><trkpt lat="-31.697111143768197" lon="115.80832954960276"><ele>68.0</ele><time>2026-04-12T03:24:30.999Z</time></trkpt><trkpt lat="-31.69699856315143" lon="115.80847834551061"><ele>68.0</ele><time>2026-04-12T03:24:31.999Z</time></trkpt><trkpt lat="-31.696891525764055" lon="115.8086311007244"><ele>68.0</ele><time>2026-04-12T03:24:32.999Z</time></trkpt><trkpt lat="-31.696783710097137" lon="115.80879777721415"><ele>67.66666666666667</ele><time>2026-04-12T03:24:33.999Z</time></trkpt><trkpt lat="-31.696680675023046" lon="115.80896912027885"><ele>67.33333333333333</ele><time>2026-04-12T03:24:34.999Z</time></trkpt><trkpt lat="-31.69658155657151" lon="115.8091336903503"><ele>67.0</ele><time>2026-04-12T03:24:35.999Z</time></trkpt><trkpt lat="-31.696490358459666" lon="115.80929273702698"><ele>65.66666666666666</ele><time>2026-04-12T03:24:37Z</time></trkpt><trkpt lat="-31.696407160608704" lon="115.80944164663025"><ele>64.33333333333333</ele><time>2026-04-12T03:24:38Z</time></trkpt><trkpt lat="-31.696327806098186" lon="115.80959407258628"><ele>63.0</ele><time>2026-04-12T03:24:39Z</time></trkpt><trkpt lat="-31.696249501094535" lon="115.8097546790149"><ele>63.0</ele><time>2026-04-12T03:24:40Z</time></trkpt><trkpt lat="-31.69617119599992" lon="115.80994863600905"><ele>63.0</ele><time>2026-04-12T03:24:41Z</time></trkpt><trkpt lat="-31.696090227718233" lon="115.81014170240812"><ele>63.0</ele><time>2026-04-12T03:24:42Z</time></trkpt><trkpt lat="-31.696007721551467" lon="115.81034275829296"><ele>62.0</ele><time>2026-04-12T03:24:43Z</time></trkpt><trkpt lat="-31.695924606252362" lon="115.81053570895841"><ele>61.0</ele><time>2026-04-12T03:24:44Z</time></trkpt><trkpt lat="-31.695848786860463" lon="115.81073155080016"><ele>60.0</ele><time>2026-04-12T03:24:45Z</time></trkpt><trkpt lat="-31.695778629703916" lon="115.81092685501835"><ele>58.66666666666667</ele><time>2026-04-12T03:24:46Z</time></trkpt><trkpt lat="-31.69571826410537" lon="115.8111170430934"><ele>57.333333333333336</ele><time>2026-04-12T03:24:47Z</time></trkpt><trkpt lat="-31.695662220827913" lon="115.8112991927658"><ele>56.0</ele><time>2026-04-12T03:24:48Z</time></trkpt><trkpt lat="-31.695607032762386" lon="115.81147207841094"><ele>56.0</ele><time>2026-04-12T03:24:49Z</time></trkpt><trkpt lat="-31.695558378874303" lon="115.81163388852005"><ele>56.0</ele><time>2026-04-12T03:24:50Z</time></trkpt><trkpt lat="-31.695513002371992" lon="115.81178658507538"><ele>56.0</ele><time>2026-04-12T03:24:51Z</time></trkpt><trkpt lat="-31.695490073855378" lon="115.8119394766192"><ele>56.0</ele><time>2026-04-12T03:24:52Z</time></trkpt><trkpt lat="-31.695478384349705" lon="115.81208012787955"><ele>56.5</ele><time>2026-04-12T03:24:53Z</time></trkpt><trkpt lat="-31.695468084372038" lon="115.81220832372502"><ele>57.0</ele><time>2026-04-12T03:24:54Z</time></trkpt><trkpt lat="-31.695442733123087" lon="115.81233626533948"><ele>57.5</ele><time>2026-04-12T03:24:55Z</time></trkpt><trkpt lat="-31.69540216253178" lon="115.81246131858225"><ele>58.0</ele><time>2026-04-12T03:24:56Z</time></trkpt><trkpt lat="-31.69536702179316" lon="115.81258949976211"><ele>59.0</ele><time>2026-04-12T03:24:57Z</time></trkpt><trkpt lat="-31.695354694392126" lon="115.81274119070298"><ele>60.0</ele><time>2026-04-12T03:24:58Z</time></trkpt><trkpt lat="-31.69536929949986" lon="115.81291036284757"><ele>61.0</ele><time>2026-04-12T03:24:59Z</time></trkpt><trkpt lat="-31.695378137929715" lon="115.81308255767293"><ele>62.0</ele><time>2026-04-12T03:25:00Z</time></trkpt><trkpt lat="-31.69536568381661" lon="115.81326926079075"><ele>62.0</ele><time>2026-04-12T03:25:01Z</time></trkpt><trkpt lat="-31.695341468967605" lon="115.81345101383806"><ele>62.0</ele><time>2026-04-12T03:25:02Z</time></trkpt><trkpt lat="-31.695340672066607" lon="115.8136501346123"><ele>62.0</ele><time>2026-04-12T03:25:03Z</time></trkpt><trkpt lat="-31.695336792097823" lon="115.81383585518522"><ele>62.66666666666667</ele><time>2026-04-12T03:25:04Z</time></trkpt><trkpt lat="-31.695342970844298" lon="115.8140228752904"><ele>63.33333333333333</ele><time>2026-04-12T03:25:05Z</time></trkpt><trkpt lat="-31.695352663192352" lon="115.81420042999251"><ele>64.0</ele><time>2026-04-12T03:25:06Z</time></trkpt><trkpt lat="-31.695369102388433" lon="115.81436452969217"><ele>64.0</ele><time>2026-04-12T03:25:07Z</time></trkpt><trkpt lat="-31.69539148674492" lon="115.81451286489447"><ele>64.0</ele><time>2026-04-12T03:25:08Z</time></trkpt><trkpt lat="-31.695415288570135" lon="115.81465858346921"><ele>64.0</ele><time>2026-04-12T03:25:09Z</time></trkpt><trkpt lat="-31.695439185081177" lon="115.81479262842352"><ele>64.0</ele><time>2026-04-12T03:25:10Z</time></trkpt><trkpt lat="-31.695457239886913" lon="115.81492448683169"><ele>64.0</ele><time>2026-04-12T03:25:11Z</time></trkpt><trkpt lat="-31.695474710899465" lon="115.81504951128153"><ele>64.0</ele><time>2026-04-12T03:25:12Z</time></trkpt><trkpt lat="-31.695493172697716" lon="115.81516505587706"><ele>64.0</ele><time>2026-04-12T03:25:13Z</time></trkpt><trkpt lat="-31.695508677549785" lon="115.81527728840992"><ele>64.0</ele><time>2026-04-12T03:25:14Z</time></trkpt><trkpt lat="-31.69551437387462" lon="115.81538517323524"><ele>64.0</ele><time>2026-04-12T03:25:15Z</time></trkpt><trkpt lat="-31.695504541473248" lon="115.81548816914939"><ele>64.0</ele><time>2026-04-12T03:25:16Z</time></trkpt><trkpt lat="-31.695487721395313" lon="115.81558917221234"><ele>64.0</ele><time>2026-04-12T03:25:17Z</time></trkpt><trkpt lat="-31.695462601937315" lon="115.8156800536033"><ele>64.0</ele><time>2026-04-12T03:25:18Z</time></trkpt><trkpt lat="-31.695411349386678" lon="115.8157627990502"><ele>64.0</ele><time>2026-04-12T03:25:19Z</time></trkpt><trkpt lat="-31.695351475572473" lon="115.81587020019636"><ele>64.0</ele><time>2026-04-12T03:25:20Z</time></trkpt><trkpt lat="-31.695202364693785" lon="115.81588274074306"><ele>64.33333333333333</ele><time>2026-04-12T03:25:21Z</time></trkpt><trkpt lat="-31.69506361492438" lon="115.81592208452255"><ele>64.66666666666667</ele><time>2026-04-12T03:25:22Z</time></trkpt><trkpt lat="-31.694912412633375" lon="115.81596472641756"><ele>65.0</ele><time>2026-04-12T03:25:23Z</time></trkpt><trkpt lat="-31.694764878661914" lon="115.81602047865213"><ele>66.0</ele><time>2026-04-12T03:25:24Z</time></trkpt><trkpt lat="-31.69461059579065" lon="115.81608623317123"><ele>67.0</ele><time>2026-04-12T03:25:25Z</time></trkpt><trkpt lat="-31.694440891895315" lon="115.8161587112166"><ele>68.0</ele><time>2026-04-12T03:25:26Z</time></trkpt><trkpt lat="-31.694250668329374" lon="115.81622895563909"><ele>68.0</ele><time>2026-04-12T03:25:27Z</time></trkpt><trkpt lat="-31.694051206983293" lon="115.81629773546544"><ele>68.0</ele><time>2026-04-12T03:25:28Z</time></trkpt><trkpt lat="-31.69384413935637" lon="115.81636970880281"><ele>68.0</ele><time>2026-04-12T03:25:29Z</time></trkpt><trkpt lat="-31.693623713433592" lon="115.81644747143649"><ele>65.5</ele><time>2026-04-12T03:25:30Z</time></trkpt><trkpt lat="-31.69340338517053" lon="115.81652352986134"><ele>63.0</ele><time>2026-04-12T03:25:31Z</time></trkpt><trkpt lat="-31.693183662348805" lon="115.8165945265745"><ele>63.0</ele><time>2026-04-12T03:25:32Z</time></trkpt><trkpt lat="-31.6929675679161" lon="115.81666332144233"><ele>63.0</ele><time>2026-04-12T03:25:33Z</time></trkpt><trkpt lat="-31.692757859772325" lon="115.81673203550073"><ele>63.0</ele><time>2026-04-12T03:25:34Z</time></trkpt><trkpt lat="-31.692551103884796" lon="115.81680249640306"><ele>63.33333333333333</ele><time>2026-04-12T03:25:35Z</time></trkpt><trkpt lat="-31.69234559424769" lon="115.81687353589417"><ele>63.666666666666664</ele><time>2026-04-12T03:25:36Z</time></trkpt><trkpt lat="-31.6921322296046" lon="115.81692252827094"><ele>64.0</ele><time>2026-04-12T03:25:37Z</time></trkpt><trkpt lat="-31.69192684557217" lon="115.81700726827772"><ele>62.666666666666664</ele><time>2026-04-12T03:25:38Z</time></trkpt><trkpt lat="-31.69171375138886" lon="115.81706665632069"><ele>61.33333333333333</ele><time>2026-04-12T03:25:39Z</time></trkpt><trkpt lat="-31.691505658933234" lon="115.81713914312186"><ele>60.0</ele><time>2026-04-12T03:25:40Z</time></trkpt><trkpt lat="-31.691300083359135" lon="115.81720575657883"><ele>60.0</ele><time>2026-04-12T03:25:41Z</time></trkpt><trkpt lat="-31.6911030161571" lon="115.81726993411385"><ele>60.0</ele><time>2026-04-12T03:25:42Z</time></trkpt><trkpt lat="-31.690908018437455" lon="115.81733398392566"><ele>60.0</ele><time>2026-04-12T03:25:43Z</time></trkpt><trkpt lat="-31.690712276587394" lon="115.81738897441775"><ele>58.0</ele><time>2026-04-12T03:25:44Z</time></trkpt><trkpt lat="-31.69051684344803" lon="115.81745952331804"><ele>56.0</ele><time>2026-04-12T03:25:45Z</time></trkpt><trkpt lat="-31.690318821173022" lon="115.81752129031825"><ele>54.0</ele><time>2026-04-12T03:25:46Z</time></trkpt><trkpt lat="-31.690119524249905" lon="115.81758332838007"><ele>54.0</ele><time>2026-04-12T03:25:47Z</time></trkpt><trkpt lat="-31.68991638692501" lon="115.8176475845266"><ele>54.0</ele><time>2026-04-12T03:25:48Z</time></trkpt><trkpt lat="-31.689713308180053" lon="115.81771474328919"><ele>54.0</ele><time>2026-04-12T03:25:49Z</time></trkpt><trkpt lat="-31.689507727578146" lon="115.81778565665051"><ele>55.0</ele><time>2026-04-12T03:25:50Z</time></trkpt><trkpt lat="-31.689297589126625" lon="115.81785690044786"><ele>56.0</ele><time>2026-04-12T03:25:51Z</time></trkpt><trkpt lat="-31.68908092980144" lon="115.81792838202585"><ele>57.0</ele><time>2026-04-12T03:25:52Z</time></trkpt><trkpt lat="-31.688860264280084" lon="115.81800076769267"><ele>57.0</ele><time>2026-04-12T03:25:53Z</time></trkpt><trkpt lat="-31.6886283336647" lon="115.81807648721811"><ele>57.0</ele><time>2026-04-12T03:25:54.001Z</time></trkpt><trkpt lat="-31.688391895353796" lon="115.81815060229776"><ele>57.5</ele><time>2026-04-12T03:25:55.001Z</time></trkpt><trkpt lat="-31.68815417921765" lon="115.81822708260506"><ele>58.0</ele><time>2026-04-12T03:25:56.001Z</time></trkpt><trkpt lat="-31.687914808217712" lon="115.8183044845912"><ele>59.5</ele><time>2026-04-12T03:25:57.001Z</time></trkpt><trkpt lat="-31.687673261257917" lon="115.81838241251444"><ele>61.0</ele><time>2026-04-12T03:25:58.001Z</time></trkpt><trkpt lat="-31.687434259857895" lon="115.81845972048038"><ele>64.0</ele><time>2026-04-12T03:25:59.001Z</time></trkpt><trkpt lat="-31.687209419953984" lon="115.8185323207082"><ele>67.0</ele><time>2026-04-12T03:26:00.001Z</time></trkpt><trkpt lat="-31.686999835589962" lon="115.81860200289681"><ele>66.33333333333333</ele><time>2026-04-12T03:26:01.001Z</time></trkpt><trkpt lat="-31.686789353326162" lon="115.81867093280906"><ele>65.66666666666667</ele><time>2026-04-12T03:26:02.001Z</time></trkpt><trkpt lat="-31.686572073030142" lon="115.81874060808519"><ele>65.0</ele><time>2026-04-12T03:26:03.001Z</time></trkpt><trkpt lat="-31.686356649348525" lon="115.81881048729825"><ele>65.0</ele><time>2026-04-12T03:26:04.001Z</time></trkpt><trkpt lat="-31.68613662221845" lon="115.8188803011415"><ele>65.0</ele><time>2026-04-12T03:26:05.001Z</time></trkpt><trkpt lat="-31.68592710949489" lon="115.81894787857206"><ele>65.0</ele><time>2026-04-12T03:26:06.001Z</time></trkpt><trkpt lat="-31.68571490899847" lon="115.81902036466137"><ele>63.0</ele><time>2026-04-12T03:26:07.001Z</time></trkpt><trkpt lat="-31.685505516149046" lon="115.81908913116283"><ele>61.0</ele><time>2026-04-12T03:26:08.001Z</time></trkpt><trkpt lat="-31.68529080144791" lon="115.81915642767405"><ele>59.0</ele><time>2026-04-12T03:26:09.001Z</time></trkpt><trkpt lat="-31.685075336903587" lon="115.81922309724213"><ele>59.66666666666667</ele><time>2026-04-12T03:26:10.001Z</time></trkpt><trkpt lat="-31.684858609875622" lon="115.81929051441688"><ele>60.33333333333333</ele><time>2026-04-12T03:26:11.001Z</time></trkpt><trkpt lat="-31.684646321324227" lon="115.81935658080343"><ele>61.0</ele><time>2026-04-12T03:26:12.001Z</time></trkpt><trkpt lat="-31.684450492844086" lon="115.81941547155077"><ele>60.666666666666664</ele><time>2026-04-12T03:26:13.001Z</time></trkpt><trkpt lat="-31.684260883412055" lon="115.8194700066261"><ele>60.33333333333333</ele><time>2026-04-12T03:26:14.001Z</time></trkpt><trkpt lat="-31.68408386979093" lon="115.81951923616838"><ele>60.0</ele><time>2026-04-12T03:26:15.001Z</time></trkpt><trkpt lat="-31.683912741835698" lon="115.81955887246302"><ele>60.0</ele><time>2026-04-12T03:26:16.001Z</time></trkpt><trkpt lat="-31.68373974945876" lon="115.81959427816928"><ele>60.0</ele><time>2026-04-12T03:26:17.001Z</time></trkpt><trkpt lat="-31.683563703602612" lon="115.8196187923183"><ele>60.0</ele><time>2026-04-12T03:26:18.001Z</time></trkpt><trkpt lat="-31.683385445252537" lon="115.8196377654017"><ele>60.66666666666667</ele><time>2026-04-12T03:26:19.001Z</time></trkpt><trkpt lat="-31.68319997831829" lon="115.81964468497867"><ele>61.333333333333336</ele><time>2026-04-12T03:26:20.001Z</time></trkpt><trkpt lat="-31.683005040764392" lon="115.81964292349303"><ele>62.0</ele><time>2026-04-12T03:26:21.001Z</time></trkpt><trkpt lat="-31.682811944994306" lon="115.8196362840298"><ele>61.333333333333336</ele><time>2026-04-12T03:26:22.001Z</time></trkpt><trkpt lat="-31.682616614804715" lon="115.81962146761212"><ele>60.66666666666667</ele><time>2026-04-12T03:26:23.001Z</time></trkpt><trkpt lat="-31.68241791154258" lon="115.8195968076981"><ele>60.0</ele><time>2026-04-12T03:26:24.001Z</time></trkpt><trkpt lat="-31.682221264261123" lon="115.81956096671207"><ele>60.0</ele><time>2026-04-12T03:26:25.001Z</time></trkpt><trkpt lat="-31.68201996350096" lon="115.81952099819297"><ele>60.0</ele><time>2026-04-12T03:26:26Z</time></trkpt><trkpt lat="-31.681818276214575" lon="115.8194815140312"><ele>60.0</ele><time>2026-04-12T03:26:27Z</time></trkpt><trkpt lat="-31.68160960783801" lon="115.81944580651576"><ele>60.33333333333333</ele><time>2026-04-12T03:26:28Z</time></trkpt><trkpt lat="-31.68139426415371" lon="115.81940955068524"><ele>60.666666666666664</ele><time>2026-04-12T03:26:29Z</time></trkpt><trkpt lat="-31.68117398640101" lon="115.81937090762077"><ele>61.0</ele><time>2026-04-12T03:26:30Z</time></trkpt><trkpt lat="-31.680950236015278" lon="115.81932291819116"><ele>61.5</ele><time>2026-04-12T03:26:31Z</time></trkpt><trkpt lat="-31.68072299935909" lon="115.8192728952119"><ele>62.0</ele><time>2026-04-12T03:26:32Z</time></trkpt><trkpt lat="-31.680493469537673" lon="115.81922202943323"><ele>62.5</ele><time>2026-04-12T03:26:33Z</time></trkpt><trkpt lat="-31.68026108001484" lon="115.81916837973783"><ele>63.0</ele><time>2026-04-12T03:26:34Z</time></trkpt><trkpt lat="-31.68002511935286" lon="115.81911300792933"><ele>63.0</ele><time>2026-04-12T03:26:35Z</time></trkpt><trkpt lat="-31.679789940659752" lon="115.81905901086357"><ele>63.0</ele><time>2026-04-12T03:26:36Z</time></trkpt><trkpt lat="-31.67955468264137" lon="115.81900756241126"><ele>65.0</ele><time>2026-04-12T03:26:37Z</time></trkpt><trkpt lat="-31.679334559996498" lon="115.81895711870499"><ele>67.0</ele><time>2026-04-12T03:26:38Z</time></trkpt><trkpt lat="-31.679133708226765" lon="115.81890600698874"><ele>69.0</ele><time>2026-04-12T03:26:39Z</time></trkpt><trkpt lat="-31.678943691098656" lon="115.8188571051834"><ele>69.0</ele><time>2026-04-12T03:26:40Z</time></trkpt><trkpt lat="-31.678763900334474" lon="115.81881120277212"><ele>69.0</ele><time>2026-04-12T03:26:41Z</time></trkpt><trkpt lat="-31.678589786858993" lon="115.81876926357376"><ele>69.0</ele><time>2026-04-12T03:26:42Z</time></trkpt><trkpt lat="-31.678415006250827" lon="115.81873497956268"><ele>67.0</ele><time>2026-04-12T03:26:43Z</time></trkpt><trkpt lat="-31.678247386802227" lon="115.81870222525463"><ele>65.0</ele><time>2026-04-12T03:26:44Z</time></trkpt><trkpt lat="-31.67808430932073" lon="115.81866622534321"><ele>63.0</ele><time>2026-04-12T03:26:45Z</time></trkpt><trkpt lat="-31.677925164872406" lon="115.8186231163552"><ele>63.0</ele><time>2026-04-12T03:26:46Z</time></trkpt><trkpt lat="-31.67776889566122" lon="115.81857879308545"><ele>63.0</ele><time>2026-04-12T03:26:47Z</time></trkpt><trkpt lat="-31.67761630497813" lon="115.81854062904051"><ele>63.0</ele><time>2026-04-12T03:26:48Z</time></trkpt><trkpt lat="-31.677467585728355" lon="115.8185061659706"><ele>61.5</ele><time>2026-04-12T03:26:49Z</time></trkpt><trkpt lat="-31.677321850700416" lon="115.81847231485739"><ele>60.0</ele><time>2026-04-12T03:26:50Z</time></trkpt><trkpt lat="-31.677179955461195" lon="115.81843955173557"><ele>58.5</ele><time>2026-04-12T03:26:51Z</time></trkpt><trkpt lat="-31.677046681985093" lon="115.81840558157987"><ele>57.0</ele><time>2026-04-12T03:26:52Z</time></trkpt><trkpt lat="-31.67691305224687" lon="115.81837075812842"><ele>57.0</ele><time>2026-04-12T03:26:53Z</time></trkpt><trkpt lat="-31.6767758792771" lon="115.81833889323894"><ele>57.0</ele><time>2026-04-12T03:26:54Z</time></trkpt><trkpt lat="-31.6766331242816" lon="115.81830525037455"><ele>57.0</ele><time>2026-04-12T03:26:55Z</time></trkpt><trkpt lat="-31.676480780906846" lon="115.81826054805025"><ele>57.0</ele><time>2026-04-12T03:26:56Z</time></trkpt><trkpt lat="-31.67631775214511" lon="115.81820167510783"><ele>57.0</ele><time>2026-04-12T03:26:57Z</time></trkpt><trkpt lat="-31.676141772522858" lon="115.81812597913508"><ele>57.0</ele><time>2026-04-12T03:26:58Z</time></trkpt><trkpt lat="-31.675959222532118" lon="115.81803726397038"><ele>57.0</ele><time>2026-04-12T03:26:59Z</time></trkpt><trkpt lat="-31.675774045654837" lon="115.81792492869286"><ele>56.0</ele><time>2026-04-12T03:27:00Z</time></trkpt><trkpt lat="-31.675590372198904" lon="115.81778971574786"><ele>55.0</ele><time>2026-04-12T03:27:01Z</time></trkpt><trkpt lat="-31.675407698675144" lon="115.8176334385374"><ele>54.0</ele><time>2026-04-12T03:27:02Z</time></trkpt><trkpt lat="-31.67522930270158" lon="115.81745416035915"><ele>51.0</ele><time>2026-04-12T03:27:03Z</time></trkpt><trkpt lat="-31.675056023818723" lon="115.81725682728542"><ele>48.0</ele><time>2026-04-12T03:27:04Z</time></trkpt><trkpt lat="-31.67488992350239" lon="115.81704192077292"><ele>49.0</ele><time>2026-04-12T03:27:05Z</time></trkpt><trkpt lat="-31.674733167038987" lon="115.81679932332777"><ele>50.0</ele><time>2026-04-12T03:27:06Z</time></trkpt><trkpt lat="-31.674588994388074" lon="115.81654284023764"><ele>50.0</ele><time>2026-04-12T03:27:07Z</time></trkpt><trkpt lat="-31.674462751241634" lon="115.81627765535515"><ele>50.0</ele><time>2026-04-12T03:27:08Z</time></trkpt><trkpt lat="-31.674361057588307" lon="115.81602603776594"><ele>50.0</ele><time>2026-04-12T03:27:09Z</time></trkpt><trkpt lat="-31.67426657566784" lon="115.81577733179581"><ele>50.0</ele><time>2026-04-12T03:27:10Z</time></trkpt><trkpt lat="-31.674172816715505" lon="115.81553142599292"><ele>50.0</ele><time>2026-04-12T03:27:11Z</time></trkpt><trkpt lat="-31.674076581788263" lon="115.81528777293225"><ele>50.0</ele><time>2026-04-12T03:27:12Z</time></trkpt><trkpt lat="-31.673978730688834" lon="115.81504159883754"><ele>50.5</ele><time>2026-04-12T03:27:13Z</time></trkpt><trkpt lat="-31.673881112497313" lon="115.81479132034772"><ele>51.0</ele><time>2026-04-12T03:27:14Z</time></trkpt><trkpt lat="-31.673778930040864" lon="115.81453726722036"><ele>51.0</ele><time>2026-04-12T03:27:15Z</time></trkpt><trkpt lat="-31.67367461966754" lon="115.81427963026319"><ele>51.0</ele><time>2026-04-12T03:27:16Z</time></trkpt><trkpt lat="-31.67357171316742" lon="115.81402112783213"><ele>51.0</ele><time>2026-04-12T03:27:17Z</time></trkpt><trkpt lat="-31.67346717594283" lon="115.81375760276521"><ele>51.0</ele><time>2026-04-12T03:27:18Z</time></trkpt><trkpt lat="-31.673361708410457" lon="115.81349613337353"><ele>50.5</ele><time>2026-04-12T03:27:19Z</time></trkpt><trkpt lat="-31.67325570005797" lon="115.81323274113436"><ele>50.0</ele><time>2026-04-12T03:27:20Z</time></trkpt><trkpt lat="-31.67315026346041" lon="115.81296851876391"><ele>50.0</ele><time>2026-04-12T03:27:21Z</time></trkpt><trkpt lat="-31.673045396547792" lon="115.81270379458597"><ele>50.0</ele><time>2026-04-12T03:27:22.001Z</time></trkpt><trkpt lat="-31.672941543218354" lon="115.81244367048009"><ele>50.0</ele><time>2026-04-12T03:27:23.001Z</time></trkpt><trkpt lat="-31.67284036217019" lon="115.81219671403254"><ele>50.0</ele><time>2026-04-12T03:27:24.001Z</time></trkpt><trkpt lat="-31.67274284340085" lon="115.81196065917464"><ele>49.333333333333336</ele><time>2026-04-12T03:27:25.001Z</time></trkpt><trkpt lat="-31.672649456023088" lon="115.81173053060272"><ele>48.66666666666667</ele><time>2026-04-12T03:27:26.001Z</time></trkpt><trkpt lat="-31.67255854317952" lon="115.81150339855782"><ele>48.0</ele><time>2026-04-12T03:27:27.001Z</time></trkpt><trkpt lat="-31.672467215361483" lon="115.8112822278124"><ele>48.0</ele><time>2026-04-12T03:27:28.001Z</time></trkpt><trkpt lat="-31.67237493693069" lon="115.81106077183878"><ele>48.0</ele><time>2026-04-12T03:27:29.001Z</time></trkpt><trkpt lat="-31.67228428573544" lon="115.810838112975"><ele>48.0</ele><time>2026-04-12T03:27:30.001Z</time></trkpt><trkpt lat="-31.67219456462956" lon="115.8106078936219"><ele>48.66666666666667</ele><time>2026-04-12T03:27:31.001Z</time></trkpt><trkpt lat="-31.672103081643925" lon="115.81037108676415"><ele>49.333333333333336</ele><time>2026-04-12T03:27:32.001Z</time></trkpt><trkpt lat="-31.67200817441177" lon="115.81013188950494"><ele>50.0</ele><time>2026-04-12T03:27:33.001Z</time></trkpt><trkpt lat="-31.67190977178606" lon="115.80988907669301"><ele>50.5</ele><time>2026-04-12T03:27:34.001Z</time></trkpt><trkpt lat="-31.671810242027956" lon="115.80964533893138"><ele>51.0</ele><time>2026-04-12T03:27:35.001Z</time></trkpt><trkpt lat="-31.671713146801842" lon="115.80940261212767"><ele>50.66666666666667</ele><time>2026-04-12T03:27:36.001Z</time></trkpt><trkpt lat="-31.67161636334472" lon="115.80916528573971"><ele>50.333333333333336</ele><time>2026-04-12T03:27:37.001Z</time></trkpt><trkpt lat="-31.67151610976593" lon="115.80894294432973"><ele>50.0</ele><time>2026-04-12T03:27:38.001Z</time></trkpt><trkpt lat="-31.671407897931978" lon="115.80873426804415"><ele>50.0</ele><time>2026-04-12T03:27:39.001Z</time></trkpt><trkpt lat="-31.671290365877812" lon="115.80852942978287"><ele>50.0</ele><time>2026-04-12T03:27:40.001Z</time></trkpt><trkpt lat="-31.671149270424834" lon="115.80833137357315"><ele>50.0</ele><time>2026-04-12T03:27:41.001Z</time></trkpt><trkpt lat="-31.67098670398718" lon="115.80813666697158"><ele>50.0</ele><time>2026-04-12T03:27:42.001Z</time></trkpt><trkpt lat="-31.67080840257548" lon="115.80794941953127"><ele>50.0</ele><time>2026-04-12T03:27:43.001Z</time></trkpt><trkpt lat="-31.670622007878126" lon="115.80777293923394"><ele>50.0</ele><time>2026-04-12T03:27:44.001Z</time></trkpt><trkpt lat="-31.67042661529894" lon="115.80761064763215"><ele>50.0</ele><time>2026-04-12T03:27:45.001Z</time></trkpt><trkpt lat="-31.670227457023504" lon="115.80745171031282"><ele>51.0</ele><time>2026-04-12T03:27:46.001Z</time></trkpt><trkpt lat="-31.670024156701015" lon="115.80729324321453"><ele>52.0</ele><time>2026-04-12T03:27:47.001Z</time></trkpt><trkpt lat="-31.66983004524916" lon="115.807116814333"><ele>52.0</ele><time>2026-04-12T03:27:48.001Z</time></trkpt><trkpt lat="-31.669617247523153" lon="115.80697032594053"><ele>52.0</ele><time>2026-04-12T03:27:49.001Z</time></trkpt><trkpt lat="-31.669418402176614" lon="115.80680510946712"><ele>51.0</ele><time>2026-04-12T03:27:50.001Z</time></trkpt><trkpt lat="-31.669219121309172" lon="115.80664572495927"><ele>50.0</ele><time>2026-04-12T03:27:51.001Z</time></trkpt><trkpt lat="-31.669021109334786" lon="115.80648620806191"><ele>50.0</ele><time>2026-04-12T03:27:52.001Z</time></trkpt><trkpt lat="-31.668822533523635" lon="115.80632374880062"><ele>50.0</ele><time>2026-04-12T03:27:53.001Z</time></trkpt><trkpt lat="-31.66862193963953" lon="115.80616144325218"><ele>50.0</ele><time>2026-04-12T03:27:54.001Z</time></trkpt><trkpt lat="-31.668421151135817" lon="115.80600268328494"><ele>50.0</ele><time>2026-04-12T03:27:55.001Z</time></trkpt><trkpt lat="-31.668223121945225" lon="115.8058458592935"><ele>50.0</ele><time>2026-04-12T03:27:56.001Z</time></trkpt><trkpt lat="-31.668028463171783" lon="115.80568887229887"><ele>50.0</ele><time>2026-04-12T03:27:57.001Z</time></trkpt><trkpt lat="-31.667834942677725" lon="115.8055318053116"><ele>50.0</ele><time>2026-04-12T03:27:58.001Z</time></trkpt><trkpt lat="-31.66764371059662" lon="115.80538009468705"><ele>50.0</ele><time>2026-04-12T03:27:59.001Z</time></trkpt><trkpt lat="-31.667452953520684" lon="115.80523050448336"><ele>50.333333333333336</ele><time>2026-04-12T03:28:00.001Z</time></trkpt><trkpt lat="-31.667266701253652" lon="115.80508915756103"><ele>50.66666666666667</ele><time>2026-04-12T03:28:01.001Z</time></trkpt><trkpt lat="-31.667081317373174" lon="115.80495977680523"><ele>51.0</ele><time>2026-04-12T03:28:02.001Z</time></trkpt><trkpt lat="-31.666884705618017" lon="115.80484124359037"><ele>51.0</ele><time>2026-04-12T03:28:03.001Z</time></trkpt><trkpt lat="-31.66667407977031" lon="115.80472277855952"><ele>51.0</ele><time>2026-04-12T03:28:04.001Z</time></trkpt><trkpt lat="-31.666455376555135" lon="115.80460325312643"><ele>51.0</ele><time>2026-04-12T03:28:05.001Z</time></trkpt><trkpt lat="-31.66623357353223" lon="115.8044850125958"><ele>51.0</ele><time>2026-04-12T03:28:06.001Z</time></trkpt><trkpt lat="-31.666008702373887" lon="115.80436880579235"><ele>50.0</ele><time>2026-04-12T03:28:07.001Z</time></trkpt><trkpt lat="-31.66578308296809" lon="115.80425592707661"><ele>49.0</ele><time>2026-04-12T03:28:08.001Z</time></trkpt><trkpt lat="-31.665558851098247" lon="115.80414089715909"><ele>49.0</ele><time>2026-04-12T03:28:09.001Z</time></trkpt><trkpt lat="-31.665336735842267" lon="115.80402231256687"><ele>49.0</ele><time>2026-04-12T03:28:10.001Z</time></trkpt><trkpt lat="-31.665119054077923" lon="115.80390688605816"><ele>50.0</ele><time>2026-04-12T03:28:11.001Z</time></trkpt><trkpt lat="-31.664907209508897" lon="115.80379519128635"><ele>51.0</ele><time>2026-04-12T03:28:12.001Z</time></trkpt><trkpt lat="-31.66469814685986" lon="115.80368620180757"><ele>51.0</ele><time>2026-04-12T03:28:13.001Z</time></trkpt><trkpt lat="-31.664491057860193" lon="115.80357783936249"><ele>51.0</ele><time>2026-04-12T03:28:14.001Z</time></trkpt><trkpt lat="-31.66429542563425" lon="115.80347642726755"><ele>51.0</ele><time>2026-04-12T03:28:15.001Z</time></trkpt><trkpt lat="-31.664106426856566" lon="115.80337581264908"><ele>50.66666666666667</ele><time>2026-04-12T03:28:16.001Z</time></trkpt><trkpt lat="-31.66391959510309" lon="115.80326874437553"><ele>50.333333333333336</ele><time>2026-04-12T03:28:17.001Z</time></trkpt><trkpt lat="-31.663734199089507" lon="115.80316208597218"><ele>50.0</ele><time>2026-04-12T03:28:18.001Z</time></trkpt><trkpt lat="-31.663558083157135" lon="115.80306572874004"><ele>50.0</ele><time>2026-04-12T03:28:19.001Z</time></trkpt><trkpt lat="-31.66339117394957" lon="115.80298091164381"><ele>50.0</ele><time>2026-04-12T03:28:20.001Z</time></trkpt><trkpt lat="-31.663241105208346" lon="115.80290774933562"><ele>50.0</ele><time>2026-04-12T03:28:21.001Z</time></trkpt><trkpt lat="-31.663110362113997" lon="115.80284258888635"><ele>50.0</ele><time>2026-04-12T03:28:22.001Z</time></trkpt><trkpt lat="-31.662999499620643" lon="115.80277617294657"><ele>50.0</ele><time>2026-04-12T03:28:23.001Z</time></trkpt><trkpt lat="-31.662915135250998" lon="115.80269297825066"><ele>50.0</ele><time>2026-04-12T03:28:24.001Z</time></trkpt><trkpt lat="-31.662853059091855" lon="115.80258327641899"><ele>50.0</ele><time>2026-04-12T03:28:25.001Z</time></trkpt><trkpt lat="-31.662829434239068" lon="115.80244392265975"><ele>49.75</ele><time>2026-04-12T03:28:26.001Z</time></trkpt><trkpt lat="-31.662824902239638" lon="115.80228637895398"><ele>49.5</ele><time>2026-04-12T03:28:27.001Z</time></trkpt><trkpt lat="-31.662836020285" lon="115.8021088845309"><ele>49.25</ele><time>2026-04-12T03:28:28.001Z</time></trkpt><trkpt lat="-31.662840668681582" lon="115.80192026620335"><ele>49.0</ele><time>2026-04-12T03:28:29.001Z</time></trkpt><trkpt lat="-31.662841145219506" lon="115.80171525139396"><ele>49.0</ele><time>2026-04-12T03:28:30.001Z</time></trkpt><trkpt lat="-31.662842609996897" lon="115.80148747947857"><ele>49.0</ele><time>2026-04-12T03:28:31.001Z</time></trkpt><trkpt lat="-31.662845627130558" lon="115.80124629987269"><ele>49.0</ele><time>2026-04-12T03:28:32.001Z</time></trkpt><trkpt lat="-31.66284754323973" lon="115.80099088987518"><ele>49.0</ele><time>2026-04-12T03:28:33.001Z</time></trkpt><trkpt lat="-31.662847000092427" lon="115.80073751758378"><ele>49.0</ele><time>2026-04-12T03:28:34.001Z</time></trkpt><trkpt lat="-31.662846567108296" lon="115.80048043816356"><ele>49.0</ele><time>2026-04-12T03:28:35.001Z</time></trkpt><trkpt lat="-31.662848664940125" lon="115.80022550003116"><ele>49.666666666666664</ele><time>2026-04-12T03:28:36.001Z</time></trkpt><trkpt lat="-31.66284969349027" lon="115.79996816192265"><ele>50.33333333333333</ele><time>2026-04-12T03:28:37.001Z</time></trkpt><trkpt lat="-31.66285013448513" lon="115.79970843079113"><ele>51.0</ele><time>2026-04-12T03:28:38.001Z</time></trkpt><trkpt lat="-31.662850285851988" lon="115.79944499227051"><ele>51.5</ele><time>2026-04-12T03:28:39.001Z</time></trkpt><trkpt lat="-31.66285191954493" lon="115.79917750427751"><ele>52.0</ele><time>2026-04-12T03:28:40.001Z</time></trkpt><trkpt lat="-31.662852961692444" lon="115.79891477964085"><ele>52.0</ele><time>2026-04-12T03:28:41.001Z</time></trkpt><trkpt lat="-31.662854783255547" lon="115.79865773034915"><ele>52.0</ele><time>2026-04-12T03:28:42.001Z</time></trkpt><trkpt lat="-31.662853664290655" lon="115.79840438426311"><ele>52.0</ele><time>2026-04-12T03:28:43.001Z</time></trkpt><trkpt lat="-31.662854206850568" lon="115.79814790107498"><ele>52.33333333333333</ele><time>2026-04-12T03:28:44.001Z</time></trkpt><trkpt lat="-31.662854608966686" lon="115.79789194673101"><ele>52.66666666666667</ele><time>2026-04-12T03:28:45.001Z</time></trkpt><trkpt lat="-31.662854764583912" lon="115.79764821562085"><ele>53.0</ele><time>2026-04-12T03:28:46.001Z</time></trkpt><trkpt lat="-31.662855223735097" lon="115.79742447483821"><ele>53.0</ele><time>2026-04-12T03:28:47.001Z</time></trkpt><trkpt lat="-31.662856647079046" lon="115.79719995297252"><ele>53.0</ele><time>2026-04-12T03:28:48.001Z</time></trkpt><trkpt lat="-31.662857734738743" lon="115.79698548323184"><ele>53.0</ele><time>2026-04-12T03:28:49.001Z</time></trkpt><trkpt lat="-31.66285586395467" lon="115.7967872772449"><ele>54.0</ele><time>2026-04-12T03:28:50.001Z</time></trkpt><trkpt lat="-31.662849102710283" lon="115.79660369258451"><ele>55.0</ele><time>2026-04-12T03:28:51.001Z</time></trkpt><trkpt lat="-31.662822067712046" lon="115.79643315556756"><ele>56.0</ele><time>2026-04-12T03:28:52.001Z</time></trkpt><trkpt lat="-31.6627722770966" lon="115.7962703670524"><ele>58.333333333333336</ele><time>2026-04-12T03:28:53.001Z</time></trkpt><trkpt lat="-31.662681045286195" lon="115.79611252477088"><ele>60.66666666666667</ele><time>2026-04-12T03:28:54.001Z</time></trkpt><trkpt lat="-31.662567111192473" lon="115.79596028348193"><ele>63.0</ele><time>2026-04-12T03:28:55.001Z</time></trkpt><trkpt lat="-31.662428459735672" lon="115.7958103342192"><ele>63.66666666666667</ele><time>2026-04-12T03:28:56.001Z</time></trkpt><trkpt lat="-31.662285515915833" lon="115.79564894783773"><ele>64.33333333333334</ele><time>2026-04-12T03:28:57.001Z</time></trkpt><trkpt lat="-31.662139612151208" lon="115.7954789810925"><ele>65.0</ele><time>2026-04-12T03:28:58.001Z</time></trkpt><trkpt lat="-31.661992719944575" lon="115.79530608225093"><ele>66.33333333333334</ele><time>2026-04-12T03:28:59.001Z</time></trkpt><trkpt lat="-31.66184578062134" lon="115.79513718555957"><ele>67.66666666666667</ele><time>2026-04-12T03:29:00.001Z</time></trkpt><trkpt lat="-31.661712271807364" lon="115.79498800322841"><ele>69.0</ele><time>2026-04-12T03:29:01.001Z</time></trkpt><trkpt lat="-31.661597712027145" lon="115.7948556369887"><ele>69.0</ele><time>2026-04-12T03:29:02.001Z</time></trkpt><trkpt lat="-31.661503181233996" lon="115.79473185174527"><ele>69.0</ele><time>2026-04-12T03:29:03.001Z</time></trkpt><trkpt lat="-31.661417352596988" lon="115.79461579725081"><ele>69.0</ele><time>2026-04-12T03:29:04.001Z</time></trkpt><trkpt lat="-31.661339377551908" lon="115.79451377536888"><ele>69.0</ele><time>2026-04-12T03:29:05.001Z</time></trkpt><trkpt lat="-31.661261397325173" lon="115.79441901887773"><ele>70.0</ele><time>2026-04-12T03:29:06.001Z</time></trkpt><trkpt lat="-31.661182705964652" lon="115.79433443418274"><ele>71.0</ele><time>2026-04-12T03:29:07.001Z</time></trkpt><trkpt lat="-31.661108027484765" lon="115.7942520644994"><ele>72.0</ele><time>2026-04-12T03:29:08.001Z</time></trkpt><trkpt lat="-31.661043949082572" lon="115.79417873464367"><ele>73.0</ele><time>2026-04-12T03:29:09.001Z</time></trkpt><trkpt lat="-31.660998153502824" lon="115.79411921431891"><ele>74.0</ele><time>2026-04-12T03:29:10.001Z</time></trkpt><trkpt lat="-31.660922274997542" lon="115.79412214505614"><ele>75.0</ele><time>2026-04-12T03:29:13.001Z</time></trkpt><trkpt lat="-31.66094168239234" lon="115.79420943548953"><ele>75.0</ele><time>2026-04-12T03:29:15.001Z</time></trkpt><trkpt lat="-31.661011589508316" lon="115.79429547417898"><ele>75.0</ele><time>2026-04-12T03:29:17.001Z</time></trkpt><trkpt lat="-31.661083505479027" lon="115.79435602584826"><ele>75.0</ele><time>2026-04-12T03:29:19.001Z</time></trkpt><trkpt lat="-31.661137737547445" lon="115.79441790940723"><ele>75.0</ele><time>2026-04-12T03:29:21.001Z</time></trkpt><trkpt lat="-31.66120149726676" lon="115.79449922014832"><ele>75.0</ele><time>2026-04-12T03:29:23.001Z</time></trkpt><trkpt lat="-31.661242170452308" lon="115.79455650093031"><ele>75.0</ele><time>2026-04-12T03:29:25.001Z</time></trkpt><trkpt lat="-31.661301578435094" lon="115.79458299249629"><ele>74.0</ele><time>2026-04-12T03:29:27.001Z</time></trkpt><trkpt lat="-31.661335063211183" lon="115.79464770642598"><ele>73.0</ele><time>2026-04-12T03:29:29.001Z</time></trkpt><trkpt lat="-31.66139322734109" lon="115.79469343995649"><ele>72.0</ele><time>2026-04-12T03:29:31.001Z</time></trkpt><trkpt lat="-31.661442284054427" lon="115.79474010769385"><ele>71.0</ele><time>2026-04-12T03:29:32.001Z</time></trkpt><trkpt lat="-31.661491450840344" lon="115.79480482468482"><ele>70.0</ele><time>2026-04-12T03:29:33.001Z</time></trkpt><trkpt lat="-31.661548125715715" lon="115.79488149409178"><ele>69.0</ele><time>2026-04-12T03:29:34.001Z</time></trkpt><trkpt lat="-31.661617666890784" lon="115.79496249098108"><ele>69.0</ele><time>2026-04-12T03:29:35.001Z</time></trkpt><trkpt lat="-31.661696035174426" lon="115.79504892113081"><ele>69.0</ele><time>2026-04-12T03:29:36.001Z</time></trkpt><trkpt lat="-31.661776173587967" lon="115.79514887830744"><ele>69.0</ele><time>2026-04-12T03:29:37.001Z</time></trkpt><trkpt lat="-31.66186306702008" lon="115.79525273774419"><ele>69.0</ele><time>2026-04-12T03:29:38.001Z</time></trkpt><trkpt lat="-31.661943325141664" lon="115.79534533483036"><ele>68.2</ele><time>2026-04-12T03:29:39.001Z</time></trkpt><trkpt lat="-31.66201960699019" lon="115.79543118446624"><ele>67.4</ele><time>2026-04-12T03:29:40.001Z</time></trkpt><trkpt lat="-31.662101048219952" lon="115.79551990479919"><ele>66.6</ele><time>2026-04-12T03:29:41.001Z</time></trkpt><trkpt lat="-31.662179916967318" lon="115.79560560823595"><ele>65.8</ele><time>2026-04-12T03:29:42.001Z</time></trkpt><trkpt lat="-31.66225431663711" lon="115.79569104065203"><ele>65.0</ele><time>2026-04-12T03:29:43.001Z</time></trkpt><trkpt lat="-31.662324086198872" lon="115.79577070872062"><ele>65.0</ele><time>2026-04-12T03:29:44.001Z</time></trkpt><trkpt lat="-31.66239228280867" lon="115.79584914262925"><ele>65.0</ele><time>2026-04-12T03:29:45.001Z</time></trkpt><trkpt lat="-31.66245250381472" lon="115.79592510019825"><ele>65.0</ele><time>2026-04-12T03:29:46.001Z</time></trkpt><trkpt lat="-31.662502690202356" lon="115.79600269395715"><ele>65.0</ele><time>2026-04-12T03:29:47.001Z</time></trkpt><trkpt lat="-31.662556495839652" lon="115.7960512179317"><ele>65.0</ele><time>2026-04-12T03:29:48.001Z</time></trkpt><trkpt lat="-31.662625285625968" lon="115.79613439361714"><ele>65.0</ele><time>2026-04-12T03:29:50.001Z</time></trkpt><trkpt lat="-31.662483289994668" lon="115.79626542787315"><ele>64.83333333333334</ele><time>2026-04-12T03:30:12.001Z</time></trkpt><trkpt lat="-31.662385225334155" lon="115.79623413627434"><ele>64.66666666666667</ele><time>2026-04-12T03:30:14.001Z</time></trkpt><trkpt lat="-31.662279584521784" lon="115.79620034114843"><ele>64.5</ele><time>2026-04-12T03:30:16.001Z</time></trkpt><trkpt lat="-31.662215948691024" lon="115.79617978568162"><ele>64.33333333333333</ele><time>2026-04-12T03:30:17.001Z</time></trkpt><trkpt lat="-31.66214487222178" lon="115.79615546621599"><ele>64.16666666666666</ele><time>2026-04-12T03:30:18.001Z</time></trkpt><trkpt lat="-31.66206040373485" lon="115.79612599253007"><ele>64.0</ele><time>2026-04-12T03:30:19.001Z</time></trkpt><trkpt lat="-31.66194485777439" lon="115.79608620564126"><ele>64.0</ele><time>2026-04-12T03:30:20.001Z</time></trkpt><trkpt lat="-31.66183417432118" lon="115.79604808411274"><ele>64.0</ele><time>2026-04-12T03:30:21.001Z</time></trkpt><trkpt lat="-31.661721121557758" lon="115.79600913676992"><ele>64.0</ele><time>2026-04-12T03:30:22.001Z</time></trkpt><trkpt lat="-31.6616337942226" lon="115.79597903649855"><ele>64.0</ele><time>2026-04-12T03:30:23.001Z</time></trkpt><trkpt lat="-31.661504635916096" lon="115.79593490070769"><ele>64.75</ele><time>2026-04-12T03:30:25.001Z</time></trkpt><trkpt lat="-31.661402620738425" lon="115.79590119082579"><ele>65.5</ele><time>2026-04-12T03:30:26.001Z</time></trkpt><trkpt lat="-31.66128232485672" lon="115.79586150498466"><ele>66.25</ele><time>2026-04-12T03:30:27.001Z</time></trkpt><trkpt lat="-31.661150996235826" lon="115.7958186309009"><ele>67.0</ele><time>2026-04-12T03:30:28.001Z</time></trkpt><trkpt lat="-31.661012968698873" lon="115.79577518135034"><ele>67.0</ele><time>2026-04-12T03:30:29.001Z</time></trkpt><trkpt lat="-31.660868368786" lon="115.79573006963138"><ele>67.0</ele><time>2026-04-12T03:30:30.001Z</time></trkpt><trkpt lat="-31.660719367008458" lon="115.79568386140068"><ele>67.0</ele><time>2026-04-12T03:30:31.001Z</time></trkpt><trkpt lat="-31.660571468815522" lon="115.79563889748107"><ele>67.0</ele><time>2026-04-12T03:30:32.001Z</time></trkpt><trkpt lat="-31.660422938742958" lon="115.7955935484397"><ele>67.0</ele><time>2026-04-12T03:30:33.001Z</time></trkpt><trkpt lat="-31.66026714367911" lon="115.79554603346675"><ele>67.0</ele><time>2026-04-12T03:30:34.001Z</time></trkpt><trkpt lat="-31.660109937140405" lon="115.79549902592049"><ele>66.33333333333333</ele><time>2026-04-12T03:30:35.001Z</time></trkpt><trkpt lat="-31.659947953275328" lon="115.7954505888335"><ele>65.66666666666667</ele><time>2026-04-12T03:30:36.001Z</time></trkpt><trkpt lat="-31.659780127585115" lon="115.79539966745634"><ele>65.0</ele><time>2026-04-12T03:30:37.001Z</time></trkpt><trkpt lat="-31.659601659521066" lon="115.79534554857845"><ele>65.0</ele><time>2026-04-12T03:30:38.001Z</time></trkpt><trkpt lat="-31.65943144945071" lon="115.79529384030134"><ele>65.0</ele><time>2026-04-12T03:30:39.001Z</time></trkpt><trkpt lat="-31.65927508812733" lon="115.79524626721114"><ele>65.0</ele><time>2026-04-12T03:30:40.001Z</time></trkpt><trkpt lat="-31.659114570407713" lon="115.79519723344862"><ele>66.33333333333334</ele><time>2026-04-12T03:30:41.001Z</time></trkpt><trkpt lat="-31.6589498868657" lon="115.79514638700603"><ele>67.66666666666667</ele><time>2026-04-12T03:30:42.001Z</time></trkpt><trkpt lat="-31.658776779268592" lon="115.79509292918115"><ele>69.0</ele><time>2026-04-12T03:30:43.001Z</time></trkpt><trkpt lat="-31.65858846186009" lon="115.79503477342897"><ele>69.0</ele><time>2026-04-12T03:30:44.001Z</time></trkpt><trkpt lat="-31.65839541918911" lon="115.7949751583978"><ele>69.0</ele><time>2026-04-12T03:30:45.001Z</time></trkpt><trkpt lat="-31.658195367109165" lon="115.79491337875463"><ele>69.0</ele><time>2026-04-12T03:30:46.001Z</time></trkpt><trkpt lat="-31.658002590039448" lon="115.7948538457792"><ele>69.0</ele><time>2026-04-12T03:30:47.001Z</time></trkpt><trkpt lat="-31.657804468643924" lon="115.79479235854653"><ele>69.0</ele><time>2026-04-12T03:30:48.001Z</time></trkpt><trkpt lat="-31.657608326503937" lon="115.79473165073556"><ele>69.0</ele><time>2026-04-12T03:30:49.001Z</time></trkpt><trkpt lat="-31.657411974976544" lon="115.79467090670032"><ele>68.66666666666667</ele><time>2026-04-12T03:30:50.001Z</time></trkpt><trkpt lat="-31.657197265747296" lon="115.79460463823138"><ele>68.33333333333334</ele><time>2026-04-12T03:30:51.001Z</time></trkpt><trkpt lat="-31.656983605053153" lon="115.79453839311712"><ele>68.0</ele><time>2026-04-12T03:30:52.001Z</time></trkpt><trkpt lat="-31.656779347942336" lon="115.79447543291101"><ele>68.66666666666667</ele><time>2026-04-12T03:30:53.001Z</time></trkpt><trkpt lat="-31.656573013688067" lon="115.79441111947303"><ele>69.33333333333333</ele><time>2026-04-12T03:30:54.001Z</time></trkpt><trkpt lat="-31.656361838138505" lon="115.79434532421527"><ele>70.0</ele><time>2026-04-12T03:30:55.001Z</time></trkpt><trkpt lat="-31.656151379662866" lon="115.79428076732803"><ele>67.33333333333333</ele><time>2026-04-12T03:30:56.001Z</time></trkpt><trkpt lat="-31.655949618758907" lon="115.79421906189484"><ele>64.66666666666667</ele><time>2026-04-12T03:30:57.001Z</time></trkpt><trkpt lat="-31.655750377621533" lon="115.79415766468934"><ele>62.0</ele><time>2026-04-12T03:30:58.001Z</time></trkpt><trkpt lat="-31.65554946531727" lon="115.79409760142478"><ele>62.0</ele><time>2026-04-12T03:30:59.001Z</time></trkpt><trkpt lat="-31.65535523938732" lon="115.7940403884557"><ele>62.0</ele><time>2026-04-12T03:31:00.001Z</time></trkpt><trkpt lat="-31.655157944829753" lon="115.79398205416493"><ele>62.0</ele><time>2026-04-12T03:31:01.001Z</time></trkpt><trkpt lat="-31.654967242710786" lon="115.79392839273456"><ele>61.66666666666667</ele><time>2026-04-12T03:31:02.001Z</time></trkpt><trkpt lat="-31.654776136193497" lon="115.79387432838651"><ele>61.33333333333333</ele><time>2026-04-12T03:31:03.001Z</time></trkpt><trkpt lat="-31.654588881324983" lon="115.79382101054645"><ele>61.0</ele><time>2026-04-12T03:31:04.001Z</time></trkpt><trkpt lat="-31.654399267635608" lon="115.79376740834918"><ele>61.666666666666664</ele><time>2026-04-12T03:31:05.001Z</time></trkpt><trkpt lat="-31.654204027160517" lon="115.79370954298041"><ele>62.33333333333333</ele><time>2026-04-12T03:31:06.001Z</time></trkpt><trkpt lat="-31.654006877550625" lon="115.79365196474214"><ele>63.0</ele><time>2026-04-12T03:31:07.001Z</time></trkpt><trkpt lat="-31.653815307765527" lon="115.7935930980697"><ele>63.0</ele><time>2026-04-12T03:31:08.001Z</time></trkpt><trkpt lat="-31.653623953648534" lon="115.79353344875015"><ele>63.0</ele><time>2026-04-12T03:31:09.001Z</time></trkpt><trkpt lat="-31.65342729142414" lon="115.7934714560469"><ele>63.0</ele><time>2026-04-12T03:31:10.001Z</time></trkpt><trkpt lat="-31.65323532517178" lon="115.79341246208654"><ele>63.0</ele><time>2026-04-12T03:31:11.001Z</time></trkpt><trkpt lat="-31.653045214052458" lon="115.79335434204562"><ele>63.0</ele><time>2026-04-12T03:31:12.001Z</time></trkpt><trkpt lat="-31.652857578403744" lon="115.79329770276048"><ele>63.0</ele><time>2026-04-12T03:31:13.001Z</time></trkpt><trkpt lat="-31.652672410203643" lon="115.79324238670411"><ele>63.0</ele><time>2026-04-12T03:31:14.001Z</time></trkpt><trkpt lat="-31.65249156336339" lon="115.79318644828749"><ele>63.0</ele><time>2026-04-12T03:31:15.001Z</time></trkpt><trkpt lat="-31.65230685733038" lon="115.79313003389541"><ele>63.0</ele><time>2026-04-12T03:31:16.001Z</time></trkpt><trkpt lat="-31.652127025941596" lon="115.7930753756244"><ele>62.33333333333333</ele><time>2026-04-12T03:31:17.001Z</time></trkpt><trkpt lat="-31.651946792128037" lon="115.79302058358996"><ele>61.666666666666664</ele><time>2026-04-12T03:31:18.001Z</time></trkpt><trkpt lat="-31.65176199743301" lon="115.79296457248914"><ele>61.0</ele><time>2026-04-12T03:31:19.001Z</time></trkpt><trkpt lat="-31.651569049715942" lon="115.79290736647788"><ele>61.0</ele><time>2026-04-12T03:31:20.001Z</time></trkpt><trkpt lat="-31.651373684943174" lon="115.79285152329875"><ele>61.0</ele><time>2026-04-12T03:31:21.001Z</time></trkpt><trkpt lat="-31.651166428700027" lon="115.79279228107673"><ele>61.0</ele><time>2026-04-12T03:31:22.001Z</time></trkpt><trkpt lat="-31.65096345965655" lon="115.79273426429295"><ele>61.33333333333333</ele><time>2026-04-12T03:31:23.001Z</time></trkpt><trkpt lat="-31.65074464204559" lon="115.79267171734895"><ele>61.66666666666667</ele><time>2026-04-12T03:31:24.001Z</time></trkpt><trkpt lat="-31.650529919778045" lon="115.79261090519677"><ele>62.0</ele><time>2026-04-12T03:31:25.001Z</time></trkpt><trkpt lat="-31.650328300538746" lon="115.79255199833254"><ele>62.333333333333336</ele><time>2026-04-12T03:31:26.001Z</time></trkpt><trkpt lat="-31.65013398010986" lon="115.79249492085937"><ele>62.66666666666667</ele><time>2026-04-12T03:31:27.001Z</time></trkpt><trkpt lat="-31.64994884499079" lon="115.79243973479302"><ele>63.0</ele><time>2026-04-12T03:31:28.001Z</time></trkpt><trkpt lat="-31.649760330196884" lon="115.79238337462151"><ele>63.0</ele><time>2026-04-12T03:31:29.001Z</time></trkpt><trkpt lat="-31.649580628894586" lon="115.79232930687301"><ele>63.0</ele><time>2026-04-12T03:31:30.001Z</time></trkpt><trkpt lat="-31.649407897901337" lon="115.79229492679586"><ele>63.0</ele><time>2026-04-12T03:31:31.001Z</time></trkpt><trkpt lat="-31.649241287264168" lon="115.79224103108514"><ele>63.0</ele><time>2026-04-12T03:31:32.001Z</time></trkpt><trkpt lat="-31.64906702114197" lon="115.7921848927881"><ele>63.0</ele><time>2026-04-12T03:31:33.001Z</time></trkpt><trkpt lat="-31.648904654885257" lon="115.7921318914838"><ele>63.0</ele><time>2026-04-12T03:31:34.001Z</time></trkpt><trkpt lat="-31.648731255891246" lon="115.79207212028881"><ele>63.0</ele><time>2026-04-12T03:31:35.001Z</time></trkpt><trkpt lat="-31.64855425909522" lon="115.79202029867757"><ele>63.0</ele><time>2026-04-12T03:31:36.001Z</time></trkpt><trkpt lat="-31.648389423998008" lon="115.79197350415821"><ele>63.0</ele><time>2026-04-12T03:31:37.001Z</time></trkpt><trkpt lat="-31.648217985995746" lon="115.79190214520399"><ele>63.0</ele><time>2026-04-12T03:31:38.001Z</time></trkpt><trkpt lat="-31.64805300385162" lon="115.79185275679117"><ele>63.0</ele><time>2026-04-12T03:31:39.001Z</time></trkpt><trkpt lat="-31.647880893826603" lon="115.79180256560026"><ele>63.0</ele><time>2026-04-12T03:31:40.001Z</time></trkpt><trkpt lat="-31.6477176672364" lon="115.79175496502363"><ele>63.66666666666667</ele><time>2026-04-12T03:31:41.001Z</time></trkpt><trkpt lat="-31.647550834451977" lon="115.79170697124212"><ele>64.33333333333334</ele><time>2026-04-12T03:31:42.001Z</time></trkpt><trkpt lat="-31.64737970973857" lon="115.7916580992757"><ele>65.0</ele><time>2026-04-12T03:31:43.001Z</time></trkpt><trkpt lat="-31.64720635212774" lon="115.79160773722444"><ele>65.0</ele><time>2026-04-12T03:31:44.001Z</time></trkpt><trkpt lat="-31.64702871686597" lon="115.79155524316347"><ele>65.0</ele><time>2026-04-12T03:31:45.001Z</time></trkpt><trkpt lat="-31.646852293421393" lon="115.79150253671845"><ele>65.0</ele><time>2026-04-12T03:31:46.001Z</time></trkpt><trkpt lat="-31.64667236162487" lon="115.79144803266226"><ele>64.66666666666667</ele><time>2026-04-12T03:31:47.001Z</time></trkpt><trkpt lat="-31.64650306843382" lon="115.79139585677024"><ele>64.33333333333333</ele><time>2026-04-12T03:31:48.001Z</time></trkpt><trkpt lat="-31.646324555121677" lon="115.79134112825938"><ele>64.0</ele><time>2026-04-12T03:31:49.001Z</time></trkpt><trkpt lat="-31.646149401367794" lon="115.79128732904859"><ele>64.66666666666666</ele><time>2026-04-12T03:31:50.001Z</time></trkpt><trkpt lat="-31.64596314182182" lon="115.79122946401141"><ele>65.33333333333333</ele><time>2026-04-12T03:31:51.001Z</time></trkpt><trkpt lat="-31.64576338554032" lon="115.79116820512057"><ele>66.0</ele><time>2026-04-12T03:31:52.001Z</time></trkpt><trkpt lat="-31.645559331420607" lon="115.79110417914018"><ele>66.0</ele><time>2026-04-12T03:31:53.001Z</time></trkpt><trkpt lat="-31.64537092131278" lon="115.79104537986139"><ele>66.0</ele><time>2026-04-12T03:31:54.001Z</time></trkpt><trkpt lat="-31.64519554722703" lon="115.79099064808551"><ele>66.0</ele><time>2026-04-12T03:31:55.001Z</time></trkpt><trkpt lat="-31.64502382340945" lon="115.7909376581586"><ele>66.33333333333333</ele><time>2026-04-12T03:31:56.001Z</time></trkpt><trkpt lat="-31.644856744125303" lon="115.7908858936837"><ele>66.66666666666666</ele><time>2026-04-12T03:31:57.001Z</time></trkpt><trkpt lat="-31.644703505491787" lon="115.79083833324626"><ele>67.0</ele><time>2026-04-12T03:31:58.001Z</time></trkpt><trkpt lat="-31.644555286824232" lon="115.79079233085179"><ele>67.33333333333333</ele><time>2026-04-12T03:31:59.001Z</time></trkpt><trkpt lat="-31.64440870022929" lon="115.79074683498906"><ele>67.66666666666667</ele><time>2026-04-12T03:32:00.001Z</time></trkpt><trkpt lat="-31.644255147431675" lon="115.79069894303701"><ele>68.0</ele><time>2026-04-12T03:32:01.001Z</time></trkpt><trkpt lat="-31.64411160708688" lon="115.7906548450676"><ele>68.0</ele><time>2026-04-12T03:32:02.001Z</time></trkpt><trkpt lat="-31.643964102902366" lon="115.79060825726371"><ele>68.0</ele><time>2026-04-12T03:32:03.001Z</time></trkpt><trkpt lat="-31.643813884921933" lon="115.79055826471762"><ele>68.0</ele><time>2026-04-12T03:32:04.001Z</time></trkpt><trkpt lat="-31.643660285937177" lon="115.79051107996341"><ele>67.33333333333334</ele><time>2026-04-12T03:32:05.001Z</time></trkpt><trkpt lat="-31.643510652243286" lon="115.79046606733795"><ele>66.66666666666667</ele><time>2026-04-12T03:32:06.001Z</time></trkpt><trkpt lat="-31.64335729937452" lon="115.79042372886569"><ele>66.0</ele><time>2026-04-12T03:32:07.001Z</time></trkpt><trkpt lat="-31.643177818394783" lon="115.79038246602295"><ele>66.0</ele><time>2026-04-12T03:32:08.001Z</time></trkpt><trkpt lat="-31.643015907843626" lon="115.79033286726082"><ele>66.0</ele><time>2026-04-12T03:32:09.001Z</time></trkpt><trkpt lat="-31.642840149177076" lon="115.79027868275949"><ele>66.0</ele><time>2026-04-12T03:32:10.001Z</time></trkpt><trkpt lat="-31.642662640734823" lon="115.79022277683154"><ele>63.0</ele><time>2026-04-12T03:32:11.001Z</time></trkpt><trkpt lat="-31.642484096769227" lon="115.79016378703047"><ele>60.0</ele><time>2026-04-12T03:32:12.001Z</time></trkpt><trkpt lat="-31.642312811838984" lon="115.79010433468694"><ele>57.0</ele><time>2026-04-12T03:32:13.001Z</time></trkpt><trkpt lat="-31.642152298832567" lon="115.79004699847385"><ele>57.0</ele><time>2026-04-12T03:32:14.001Z</time></trkpt><trkpt lat="-31.641997216967606" lon="115.78999070098132"><ele>57.0</ele><time>2026-04-12T03:32:15.001Z</time></trkpt><trkpt lat="-31.641836143461372" lon="115.78993296953597"><ele>57.0</ele><time>2026-04-12T03:32:16.001Z</time></trkpt><trkpt lat="-31.641679786903385" lon="115.78987584486772"><ele>56.0</ele><time>2026-04-12T03:32:17.001Z</time></trkpt><trkpt lat="-31.64153194764851" lon="115.78982174182302"><ele>55.0</ele><time>2026-04-12T03:32:18.001Z</time></trkpt><trkpt lat="-31.641401270675814" lon="115.78977380962525"><ele>54.0</ele><time>2026-04-12T03:32:19.001Z</time></trkpt><trkpt lat="-31.641270687960798" lon="115.78972761810331"><ele>53.0</ele><time>2026-04-12T03:32:20.001Z</time></trkpt><trkpt lat="-31.641161189011818" lon="115.78969174234837"><ele>52.8</ele><time>2026-04-12T03:32:21.001Z</time></trkpt><trkpt lat="-31.641071762672937" lon="115.78966871258257"><ele>52.599999999999994</ele><time>2026-04-12T03:32:22.001Z</time></trkpt><trkpt lat="-31.641007991424456" lon="115.78967334904361"><ele>52.400000000000006</ele><time>2026-04-12T03:32:23.001Z</time></trkpt><trkpt lat="-31.640933569513127" lon="115.78964759168473"><ele>52.2</ele><time>2026-04-12T03:32:25.001Z</time></trkpt><trkpt lat="-31.640875660498395" lon="115.78950752387786"><ele>52.0</ele><time>2026-04-12T03:32:28.001Z</time></trkpt><trkpt lat="-31.6408366679041" lon="115.78941002285622"><ele>51.75</ele><time>2026-04-12T03:32:29.001Z</time></trkpt><trkpt lat="-31.640810286790217" lon="115.78928170116828"><ele>51.5</ele><time>2026-04-12T03:32:30.001Z</time></trkpt><trkpt lat="-31.64077078512536" lon="115.7891309065094"><ele>51.25</ele><time>2026-04-12T03:32:31.001Z</time></trkpt><trkpt lat="-31.640725225904202" lon="115.78894906945905"><ele>51.0</ele><time>2026-04-12T03:32:32.001Z</time></trkpt><trkpt lat="-31.640676860754148" lon="115.78874164222319"><ele>51.0</ele><time>2026-04-12T03:32:33.001Z</time></trkpt><trkpt lat="-31.640622826513376" lon="115.78851556385874"><ele>51.0</ele><time>2026-04-12T03:32:34.001Z</time></trkpt><trkpt lat="-31.64057108930723" lon="115.7882860989214"><ele>51.0</ele><time>2026-04-12T03:32:35.001Z</time></trkpt><trkpt lat="-31.640511940122412" lon="115.78804473603829"><ele>51.0</ele><time>2026-04-12T03:32:36.001Z</time></trkpt><trkpt lat="-31.64045324885602" lon="115.78780332241857"><ele>51.0</ele><time>2026-04-12T03:32:37.001Z</time></trkpt><trkpt lat="-31.640392391595142" lon="115.78755468737761"><ele>51.0</ele><time>2026-04-12T03:32:38.001Z</time></trkpt><trkpt lat="-31.640334172155022" lon="115.787302979351"><ele>51.33333333333333</ele><time>2026-04-12T03:32:39.001Z</time></trkpt><trkpt lat="-31.64027852515176" lon="115.78706240764359"><ele>51.666666666666664</ele><time>2026-04-12T03:32:40.001Z</time></trkpt><trkpt lat="-31.640224501045527" lon="115.78683715743543"><ele>52.0</ele><time>2026-04-12T03:32:41.001Z</time></trkpt><trkpt lat="-31.640170342275603" lon="115.78662186724827"><ele>52.33333333333333</ele><time>2026-04-12T03:32:42.001Z</time></trkpt><trkpt lat="-31.64011591031089" lon="115.78641276739022"><ele>52.66666666666667</ele><time>2026-04-12T03:32:43.001Z</time></trkpt><trkpt lat="-31.640061957484654" lon="115.78619779488781"><ele>53.0</ele><time>2026-04-12T03:32:44.001Z</time></trkpt><trkpt lat="-31.64000950208277" lon="115.78597733334144"><ele>53.0</ele><time>2026-04-12T03:32:45.001Z</time></trkpt><trkpt lat="-31.639956373548504" lon="115.78575444324544"><ele>53.0</ele><time>2026-04-12T03:32:46.001Z</time></trkpt><trkpt lat="-31.6399025419287" lon="115.78553045517285"><ele>53.0</ele><time>2026-04-12T03:32:47.001Z</time></trkpt><trkpt lat="-31.639844778530694" lon="115.78530392242548"><ele>52.333333333333336</ele><time>2026-04-12T03:32:48.001Z</time></trkpt><trkpt lat="-31.639789052491114" lon="115.78507498419704"><ele>51.66666666666667</ele><time>2026-04-12T03:32:49.001Z</time></trkpt><trkpt lat="-31.639735601456056" lon="115.78484488911836"><ele>51.0</ele><time>2026-04-12T03:32:50.001Z</time></trkpt><trkpt lat="-31.639683311382687" lon="115.78461909062665"><ele>51.0</ele><time>2026-04-12T03:32:51.001Z</time></trkpt><trkpt lat="-31.639632670811164" lon="115.78441164977818"><ele>51.0</ele><time>2026-04-12T03:32:52.001Z</time></trkpt><trkpt lat="-31.639585001072813" lon="115.78422171284602"><ele>51.0</ele><time>2026-04-12T03:32:53.001Z</time></trkpt><trkpt lat="-31.639541297426355" lon="115.78403936861235"><ele>51.5</ele><time>2026-04-12T03:32:54.001Z</time></trkpt><trkpt lat="-31.63949833855797" lon="115.78386211742628"><ele>52.0</ele><time>2026-04-12T03:32:55.001Z</time></trkpt><trkpt lat="-31.63945800187229" lon="115.7836963121328"><ele>52.5</ele><time>2026-04-12T03:32:56.001Z</time></trkpt><trkpt lat="-31.639421815262114" lon="115.7835433455555"><ele>53.0</ele><time>2026-04-12T03:32:57Z</time></trkpt><trkpt lat="-31.639389331743125" lon="115.78339899173086"><ele>54.5</ele><time>2026-04-12T03:32:58Z</time></trkpt><trkpt lat="-31.63935457393022" lon="115.78324503664969"><ele>56.0</ele><time>2026-04-12T03:32:59Z</time></trkpt><trkpt lat="-31.63931468058209" lon="115.78308427254635"><ele>57.5</ele><time>2026-04-12T03:33:00Z</time></trkpt><trkpt lat="-31.63927556391543" lon="115.78293365766366"><ele>59.0</ele><time>2026-04-12T03:33:01Z</time></trkpt><trkpt lat="-31.63923683072715" lon="115.78277273473107"><ele>59.75</ele><time>2026-04-12T03:33:02Z</time></trkpt><trkpt lat="-31.63919697651735" lon="115.78260984439642"><ele>60.5</ele><time>2026-04-12T03:33:03Z</time></trkpt><trkpt lat="-31.63915561336234" lon="115.7824437522527"><ele>61.25</ele><time>2026-04-12T03:33:04Z</time></trkpt><trkpt lat="-31.63911826029437" lon="115.78228080113064"><ele>62.0</ele><time>2026-04-12T03:33:05Z</time></trkpt><trkpt lat="-31.639083760481117" lon="115.78212950575201"><ele>62.0</ele><time>2026-04-12T03:33:06Z</time></trkpt><trkpt lat="-31.63904918223344" lon="115.78198820500941"><ele>62.0</ele><time>2026-04-12T03:33:07Z</time></trkpt><trkpt lat="-31.639014298180644" lon="115.78185149466825"><ele>62.0</ele><time>2026-04-12T03:33:08Z</time></trkpt><trkpt lat="-31.638981677237762" lon="115.78172381527203"><ele>62.0</ele><time>2026-04-12T03:33:09Z</time></trkpt><trkpt lat="-31.638954910520553" lon="115.78160275358861"><ele>61.8</ele><time>2026-04-12T03:33:10Z</time></trkpt><trkpt lat="-31.63893587779641" lon="115.78150793212735"><ele>61.6</ele><time>2026-04-12T03:33:11Z</time></trkpt><trkpt lat="-31.638906899605058" lon="115.78139363410693"><ele>61.39999999999999</ele><time>2026-04-12T03:33:13Z</time></trkpt><trkpt lat="-31.63877164197112" lon="115.78137814258534"><ele>61.199999999999996</ele><time>2026-04-12T03:33:15Z</time></trkpt><trkpt lat="-31.638714429298506" lon="115.78134128436797"><ele>61.0</ele><time>2026-04-12T03:33:16Z</time></trkpt><trkpt lat="-31.63865060848053" lon="115.78131263727845"><ele>62.0</ele><time>2026-04-12T03:33:17Z</time></trkpt><trkpt lat="-31.638579973756787" lon="115.78127349884227"><ele>62.99999999999999</ele><time>2026-04-12T03:33:18Z</time></trkpt><trkpt lat="-31.63849101204618" lon="115.78122656135798"><ele>63.99999999999999</ele><time>2026-04-12T03:33:19Z</time></trkpt><trkpt lat="-31.63839103005934" lon="115.78117148188888"><ele>65.0</ele><time>2026-04-12T03:33:20Z</time></trkpt><trkpt lat="-31.638278976827074" lon="115.78110677923596"><ele>66.0</ele><time>2026-04-12T03:33:21Z</time></trkpt><trkpt lat="-31.638153175631217" lon="115.78103293301895"><ele>65.75</ele><time>2026-04-12T03:33:22Z</time></trkpt><trkpt lat="-31.638020894026507" lon="115.78095345795481"><ele>65.5</ele><time>2026-04-12T03:33:23Z</time></trkpt><trkpt lat="-31.63788787319219" lon="115.78087459811468"><ele>65.25</ele><time>2026-04-12T03:33:24Z</time></trkpt><trkpt lat="-31.63776330680728" lon="115.78080373581165"><ele>65.0</ele><time>2026-04-12T03:33:25Z</time></trkpt><trkpt lat="-31.637651878783213" lon="115.78074394621521"><ele>65.0</ele><time>2026-04-12T03:33:26Z</time></trkpt><trkpt lat="-31.637544676634743" lon="115.78068889533183"><ele>65.0</ele><time>2026-04-12T03:33:27Z</time></trkpt><trkpt lat="-31.63744703966815" lon="115.78064001687623"><ele>65.0</ele><time>2026-04-12T03:33:28Z</time></trkpt><trkpt lat="-31.63734996402334" lon="115.78059165930817"><ele>65.0</ele><time>2026-04-12T03:33:29Z</time></trkpt><trkpt lat="-31.63724519926135" lon="115.78053869229991"><ele>65.0</ele><time>2026-04-12T03:33:30Z</time></trkpt><trkpt lat="-31.637140546005526" lon="115.78048558693057"><ele>65.0</ele><time>2026-04-12T03:33:31Z</time></trkpt><trkpt lat="-31.637029414247788" lon="115.78042851426744"><ele>65.0</ele><time>2026-04-12T03:33:32Z</time></trkpt><trkpt lat="-31.63692240194058" lon="115.78037275857243"><ele>65.0</ele><time>2026-04-12T03:33:33Z</time></trkpt><trkpt lat="-31.63681902778324" lon="115.78031816595772"><ele>65.0</ele><time>2026-04-12T03:33:34Z</time></trkpt><trkpt lat="-31.636712197683273" lon="115.78026162175368"><ele>65.25</ele><time>2026-04-12T03:33:35Z</time></trkpt><trkpt lat="-31.636600952903812" lon="115.78020274091573"><ele>65.5</ele><time>2026-04-12T03:33:36Z</time></trkpt><trkpt lat="-31.63648687282894" lon="115.78014235938342"><ele>65.75</ele><time>2026-04-12T03:33:37Z</time></trkpt><trkpt lat="-31.636368283427398" lon="115.78008009039672"><ele>66.0</ele><time>2026-04-12T03:33:38Z</time></trkpt><trkpt lat="-31.636252768275533" lon="115.78002108560142"><ele>66.0</ele><time>2026-04-12T03:33:39Z</time></trkpt><trkpt lat="-31.63613883307974" lon="115.7799628878347"><ele>66.0</ele><time>2026-04-12T03:33:40Z</time></trkpt><trkpt lat="-31.636029397867464" lon="115.77991234665855"><ele>66.0</ele><time>2026-04-12T03:33:41Z</time></trkpt><trkpt lat="-31.635934849010752" lon="115.77987111161424"><ele>66.0</ele><time>2026-04-12T03:33:42Z</time></trkpt><trkpt lat="-31.63584597810008" lon="115.77984295995914"><ele>66.0</ele><time>2026-04-12T03:33:43Z</time></trkpt><trkpt lat="-31.6357679567837" lon="115.77979989616311"><ele>66.0</ele><time>2026-04-12T03:33:44Z</time></trkpt><trkpt lat="-31.63569913954155" lon="115.77975524648194"><ele>66.0</ele><time>2026-04-12T03:33:45Z</time></trkpt><trkpt lat="-31.63558800254229" lon="115.77967933747128"><ele>66.0</ele><time>2026-04-12T03:33:47.001Z</time></trkpt><trkpt lat="-31.63551506944672" lon="115.77962564945746"><ele>66.0</ele><time>2026-04-12T03:33:48.001Z</time></trkpt><trkpt lat="-31.63543077319067" lon="115.7795807896748"><ele>66.0</ele><time>2026-04-12T03:33:49.001Z</time></trkpt><trkpt lat="-31.635349320547604" lon="115.77953795631687"><ele>65.33333333333333</ele><time>2026-04-12T03:33:50.001Z</time></trkpt><trkpt lat="-31.635270562105582" lon="115.77949595904963"><ele>64.66666666666667</ele><time>2026-04-12T03:33:51.001Z</time></trkpt><trkpt lat="-31.63519156187023" lon="115.77945307676502"><ele>64.0</ele><time>2026-04-12T03:33:52.001Z</time></trkpt><trkpt lat="-31.635112252698352" lon="115.77941002678064"><ele>63.333333333333336</ele><time>2026-04-12T03:33:53.001Z</time></trkpt><trkpt lat="-31.635032199554388" lon="115.77936661845064"><ele>62.66666666666667</ele><time>2026-04-12T03:33:54.001Z</time></trkpt><trkpt lat="-31.634947493281842" lon="115.77932085142997"><ele>62.0</ele><time>2026-04-12T03:33:55.001Z</time></trkpt><trkpt lat="-31.634858288113936" lon="115.77927271339611"><ele>61.8</ele><time>2026-04-12T03:33:56.001Z</time></trkpt><trkpt lat="-31.63476784554908" lon="115.77922465125366"><ele>61.6</ele><time>2026-04-12T03:33:57.001Z</time></trkpt><trkpt lat="-31.634670736815774" lon="115.77917304653481"><ele>61.39999999999999</ele><time>2026-04-12T03:33:58.001Z</time></trkpt><trkpt lat="-31.634564873177048" lon="115.77912823791259"><ele>61.199999999999996</ele><time>2026-04-12T03:33:59.001Z</time></trkpt><trkpt lat="-31.634460084222418" lon="115.7790798271531"><ele>61.0</ele><time>2026-04-12T03:34:00.001Z</time></trkpt><trkpt lat="-31.634349093520836" lon="115.77902384368582"><ele>60.5</ele><time>2026-04-12T03:34:01.001Z</time></trkpt><trkpt lat="-31.634243710841055" lon="115.7789669856926"><ele>60.0</ele><time>2026-04-12T03:34:02.001Z</time></trkpt><trkpt lat="-31.63413620036267" lon="115.77890807294474"><ele>59.5</ele><time>2026-04-12T03:34:03.001Z</time></trkpt><trkpt lat="-31.634032372775245" lon="115.77885102846791"><ele>59.0</ele><time>2026-04-12T03:34:04.001Z</time></trkpt><trkpt lat="-31.633928044046897" lon="115.77879339305066"><ele>59.0</ele><time>2026-04-12T03:34:05.001Z</time></trkpt><trkpt lat="-31.633819918848882" lon="115.77873604980347"><ele>59.0</ele><time>2026-04-12T03:34:06.001Z</time></trkpt><trkpt lat="-31.633707511512565" lon="115.77869922844992"><ele>59.0</ele><time>2026-04-12T03:34:07.001Z</time></trkpt><trkpt lat="-31.633608354847702" lon="115.77862854156764"><ele>59.0</ele><time>2026-04-12T03:34:08.001Z</time></trkpt><trkpt lat="-31.633505675370913" lon="115.778575076941"><ele>59.0</ele><time>2026-04-12T03:34:09.001Z</time></trkpt><trkpt lat="-31.633413502449407" lon="115.77852555632693"><ele>59.00000000000001</ele><time>2026-04-12T03:34:10.001Z</time></trkpt><trkpt lat="-31.633323088131366" lon="115.77847397718672"><ele>59.00000000000001</ele><time>2026-04-12T03:34:11.001Z</time></trkpt><trkpt lat="-31.633220408278603" lon="115.77841583036883"><ele>59.0</ele><time>2026-04-12T03:34:12.001Z</time></trkpt><trkpt lat="-31.633122832931686" lon="115.77836131794952"><ele>59.0</ele><time>2026-04-12T03:34:13.001Z</time></trkpt><trkpt lat="-31.633009971164217" lon="115.77830248871511"><ele>59.75</ele><time>2026-04-12T03:34:14.001Z</time></trkpt><trkpt lat="-31.63288467809849" lon="115.77823813758928"><ele>60.5</ele><time>2026-04-12T03:34:15.001Z</time></trkpt><trkpt lat="-31.632765828684253" lon="115.77817815443468"><ele>61.25</ele><time>2026-04-12T03:34:16.001Z</time></trkpt><trkpt lat="-31.632655051442775" lon="115.77812003934197"><ele>62.0</ele><time>2026-04-12T03:34:17.001Z</time></trkpt><trkpt lat="-31.632551264234404" lon="115.7780652837907"><ele>62.0</ele><time>2026-04-12T03:34:18.001Z</time></trkpt><trkpt lat="-31.63245905684417" lon="115.77801574592546"><ele>62.0</ele><time>2026-04-12T03:34:19.001Z</time></trkpt><trkpt lat="-31.632365826515127" lon="115.77796682407056"><ele>62.0</ele><time>2026-04-12T03:34:20.001Z</time></trkpt><trkpt lat="-31.632280856987837" lon="115.7779220070234"><ele>62.0</ele><time>2026-04-12T03:34:21.001Z</time></trkpt><trkpt lat="-31.632196958521323" lon="115.77787874012802"><ele>62.0</ele><time>2026-04-12T03:34:22.001Z</time></trkpt><trkpt lat="-31.63210602024759" lon="115.77783226899344"><ele>62.00000000000001</ele><time>2026-04-12T03:34:23.001Z</time></trkpt><trkpt lat="-31.632027171489508" lon="115.77779220761408"><ele>62.0</ele><time>2026-04-12T03:34:24.001Z</time></trkpt><trkpt lat="-31.631947085889735" lon="115.77776925317433"><ele>62.0</ele><time>2026-04-12T03:34:25.001Z</time></trkpt><trkpt lat="-31.631868409766575" lon="115.77772931042733"><ele>62.0</ele><time>2026-04-12T03:34:26.001Z</time></trkpt><trkpt lat="-31.631788527482094" lon="115.77768936325364"><ele>62.00000000000001</ele><time>2026-04-12T03:34:27.001Z</time></trkpt><trkpt lat="-31.631708682231206" lon="115.77765035676353"><ele>62.0</ele><time>2026-04-12T03:34:28.001Z</time></trkpt><trkpt lat="-31.631641288712288" lon="115.77759579823415"><ele>61.8</ele><time>2026-04-12T03:34:29.001Z</time></trkpt><trkpt lat="-31.63155136287996" lon="115.77754948689903"><ele>61.6</ele><time>2026-04-12T03:34:30.001Z</time></trkpt><trkpt lat="-31.631459813807044" lon="115.77750313229261"><ele>61.39999999999999</ele><time>2026-04-12T03:34:31.001Z</time></trkpt><trkpt lat="-31.631368597968574" lon="115.77745694637468"><ele>61.199999999999996</ele><time>2026-04-12T03:34:32.001Z</time></trkpt><trkpt lat="-31.631285355091844" lon="115.77741479752548"><ele>61.0</ele><time>2026-04-12T03:34:33.001Z</time></trkpt><trkpt lat="-31.631211604333572" lon="115.77737747286214"><ele>60.49999999999999</ele><time>2026-04-12T03:34:34.001Z</time></trkpt><trkpt lat="-31.631139134188967" lon="115.7773410033958"><ele>60.0</ele><time>2026-04-12T03:34:35.001Z</time></trkpt><trkpt lat="-31.6310726859743" lon="115.777307565366"><ele>59.5</ele><time>2026-04-12T03:34:36.001Z</time></trkpt><trkpt lat="-31.630999483925418" lon="115.77728674358842"><ele>59.0</ele><time>2026-04-12T03:34:37.001Z</time></trkpt><trkpt lat="-31.630932168644854" lon="115.77725446986081"><ele>58.49999999999999</ele><time>2026-04-12T03:34:38.001Z</time></trkpt><trkpt lat="-31.63086569353491" lon="115.77720523081834"><ele>58.0</ele><time>2026-04-12T03:34:39.001Z</time></trkpt><trkpt lat="-31.630793104819148" lon="115.77717018890218"><ele>57.99999999999999</ele><time>2026-04-12T03:34:40.001Z</time></trkpt><trkpt lat="-31.630714583768267" lon="115.7771325976221"><ele>58.0</ele><time>2026-04-12T03:34:41.001Z</time></trkpt><trkpt lat="-31.630633953875794" lon="115.77709235265394"><ele>58.0</ele><time>2026-04-12T03:34:42.001Z</time></trkpt><trkpt lat="-31.630553567411003" lon="115.77704621428083"><ele>58.0</ele><time>2026-04-12T03:34:43.001Z</time></trkpt><trkpt lat="-31.630482338568303" lon="115.77699842852228"><ele>57.99999999999999</ele><time>2026-04-12T03:34:44.001Z</time></trkpt><trkpt lat="-31.630409035662414" lon="115.77694489168069"><ele>58.0</ele><time>2026-04-12T03:34:45.001Z</time></trkpt><trkpt lat="-31.63034497710927" lon="115.77687819226739"><ele>57.0</ele><time>2026-04-12T03:34:46.001Z</time></trkpt><trkpt lat="-31.630286177479103" lon="115.77680401055176"><ele>56.0</ele><time>2026-04-12T03:34:47.001Z</time></trkpt><trkpt lat="-31.63021773341191" lon="115.77671900394549"><ele>55.0</ele><time>2026-04-12T03:34:48.001Z</time></trkpt><trkpt lat="-31.630134802818894" lon="115.776606791892"><ele>54.0</ele><time>2026-04-12T03:34:49Z</time></trkpt><trkpt lat="-31.63005070604295" lon="115.77649004886388"><ele>53.0</ele><time>2026-04-12T03:34:50Z</time></trkpt><trkpt lat="-31.629980422520237" lon="115.776390756664"><ele>53.0</ele><time>2026-04-12T03:34:51Z</time></trkpt><trkpt lat="-31.629909244495014" lon="115.77629020084638"><ele>53.0</ele><time>2026-04-12T03:34:52Z</time></trkpt><trkpt lat="-31.629842988094403" lon="115.77620164330065"><ele>53.0</ele><time>2026-04-12T03:34:53Z</time></trkpt><trkpt lat="-31.62978207241022" lon="115.77612102723062"><ele>53.0</ele><time>2026-04-12T03:34:54Z</time></trkpt><trkpt lat="-31.629718667678006" lon="115.77604308586035"><ele>53.0</ele><time>2026-04-12T03:34:55Z</time></trkpt><trkpt lat="-31.629670675146887" lon="115.77599471928342"><ele>53.66666666666667</ele><time>2026-04-12T03:34:56Z</time></trkpt><trkpt lat="-31.629609544155596" lon="115.77595246020266"><ele>54.333333333333336</ele><time>2026-04-12T03:34:58Z</time></trkpt><trkpt lat="-31.62951666461219" lon="115.7759133501736"><ele>55.0</ele><time>2026-04-12T03:35:11Z</time></trkpt><trkpt lat="-31.62944297642067" lon="115.77590562807023"><ele>55.66666666666667</ele><time>2026-04-12T03:35:13Z</time></trkpt><trkpt lat="-31.62937673350844" lon="115.775893625116"><ele>56.333333333333336</ele><time>2026-04-12T03:35:15Z</time></trkpt><trkpt lat="-31.629301580960934" lon="115.7758945214031"><ele>57.0</ele><time>2026-04-12T03:35:17Z</time></trkpt><trkpt lat="-31.62922701290297" lon="115.77589106447776"><ele>57.0</ele><time>2026-04-12T03:35:20Z</time></trkpt><trkpt lat="-31.629162382023768" lon="115.77590614134596"><ele>57.0</ele><time>2026-04-12T03:54:31Z</time></trkpt><trkpt lat="-31.62909645783843" lon="115.77588651469561"><ele>57.0</ele><time>2026-04-12T03:54:39Z</time></trkpt><trkpt lat="-31.629028598695417" lon="115.77587216538562"><ele>57.0</ele><time>2026-04-12T03:54:44Z</time></trkpt><trkpt lat="-31.62887675960106" lon="115.77585745250872"><ele>57.0</ele><time>2026-04-12T04:00:12.998Z</time></trkpt><trkpt lat="-31.628801408773096" lon="115.77583314553746"><ele>57.0</ele><time>2026-04-12T04:04:42Z</time></trkpt><trkpt lat="-31.62873747962331" lon="115.77582096360113"><ele>57.0</ele><time>2026-04-12T04:04:44Z</time></trkpt><trkpt lat="-31.62865948579464" lon="115.7757993744862"><ele>57.0</ele><time>2026-04-12T04:05:00.001Z</time></trkpt><trkpt lat="-31.6285811015264" lon="115.7757760846119"><ele>57.0</ele><time>2026-04-12T04:05:02.001Z</time></trkpt><trkpt lat="-31.628452845152477" lon="115.77572645083931"><ele>57.0</ele><time>2026-04-12T04:05:05.001Z</time></trkpt><trkpt lat="-31.628371415185526" lon="115.77569604545477"><ele>57.0</ele><time>2026-04-12T04:05:06.001Z</time></trkpt><trkpt lat="-31.62829747935005" lon="115.77562768906185"><ele>56.833333333333336</ele><time>2026-04-12T04:05:07.001Z</time></trkpt><trkpt lat="-31.628214924354683" lon="115.77559133710493"><ele>56.66666666666667</ele><time>2026-04-12T04:05:08.001Z</time></trkpt><trkpt lat="-31.62813457597519" lon="115.7755557201286"><ele>56.5</ele><time>2026-04-12T04:05:09.001Z</time></trkpt><trkpt lat="-31.628052179754903" lon="115.77551919519078"><ele>56.333333333333336</ele><time>2026-04-12T04:05:10.001Z</time></trkpt><trkpt lat="-31.627968058495" lon="115.77548004015996"><ele>56.16666666666667</ele><time>2026-04-12T04:05:11.001Z</time></trkpt><trkpt lat="-31.62787970479836" lon="115.7754377053118"><ele>56.0</ele><time>2026-04-12T04:05:12.001Z</time></trkpt><trkpt lat="-31.627788508040897" lon="115.77539333259182"><ele>55.599999999999994</ele><time>2026-04-12T04:05:13.001Z</time></trkpt><trkpt lat="-31.627687901858195" lon="115.77534272571326"><ele>55.199999999999996</ele><time>2026-04-12T04:05:14.001Z</time></trkpt><trkpt lat="-31.627588240201696" lon="115.77529259390538"><ele>54.800000000000004</ele><time>2026-04-12T04:05:15.001Z</time></trkpt><trkpt lat="-31.62749216614536" lon="115.77524240216547"><ele>54.400000000000006</ele><time>2026-04-12T04:05:16.001Z</time></trkpt><trkpt lat="-31.627402157227255" lon="115.77519467862724"><ele>54.0</ele><time>2026-04-12T04:05:17.001Z</time></trkpt><trkpt lat="-31.62731395460085" lon="115.77514656441092"><ele>54.6</ele><time>2026-04-12T04:05:18.001Z</time></trkpt><trkpt lat="-31.627220166183182" lon="115.77509502877551"><ele>55.2</ele><time>2026-04-12T04:05:19.001Z</time></trkpt><trkpt lat="-31.627122927793195" lon="115.77504004831732"><ele>55.800000000000004</ele><time>2026-04-12T04:05:20.001Z</time></trkpt><trkpt lat="-31.62702500109969" lon="115.77498446172719"><ele>56.400000000000006</ele><time>2026-04-12T04:05:21.001Z</time></trkpt><trkpt lat="-31.626925865913616" lon="115.77492780791677"><ele>57.0</ele><time>2026-04-12T04:05:22.001Z</time></trkpt><trkpt lat="-31.62682451380406" lon="115.7748692808061"><ele>57.0</ele><time>2026-04-12T04:05:23.001Z</time></trkpt><trkpt lat="-31.626720490692314" lon="115.7748087374003"><ele>57.0</ele><time>2026-04-12T04:05:24.001Z</time></trkpt><trkpt lat="-31.626615145359754" lon="115.77475085191841"><ele>57.0</ele><time>2026-04-12T04:05:25.001Z</time></trkpt><trkpt lat="-31.626505078390377" lon="115.7746937256135"><ele>57.0</ele><time>2026-04-12T04:05:26.002Z</time></trkpt><trkpt lat="-31.626401811477628" lon="115.77464190368319"><ele>57.0</ele><time>2026-04-12T04:05:27.002Z</time></trkpt><trkpt lat="-31.626291034598406" lon="115.77460949899941"><ele>57.0</ele><time>2026-04-12T04:05:28.002Z</time></trkpt><trkpt lat="-31.626190193229235" lon="115.77455941097604"><ele>57.0</ele><time>2026-04-12T04:05:29.002Z</time></trkpt><trkpt lat="-31.62608200181126" lon="115.7745048375719"><ele>57.0</ele><time>2026-04-12T04:05:30.002Z</time></trkpt><trkpt lat="-31.62597970382219" lon="115.77443451962124"><ele>57.5</ele><time>2026-04-12T04:05:31.002Z</time></trkpt><trkpt lat="-31.625874557612146" lon="115.77437872204844"><ele>58.0</ele><time>2026-04-12T04:05:32.002Z</time></trkpt><trkpt lat="-31.625765523589997" lon="115.77432054382001"><ele>58.5</ele><time>2026-04-12T04:05:33.002Z</time></trkpt><trkpt lat="-31.625643202856157" lon="115.77427435884435"><ele>59.0</ele><time>2026-04-12T04:05:34.002Z</time></trkpt><trkpt lat="-31.62552954556871" lon="115.77419223850778"><ele>60.0</ele><time>2026-04-12T04:05:35.002Z</time></trkpt><trkpt lat="-31.625408924343503" lon="115.77414329689356"><ele>61.0</ele><time>2026-04-12T04:05:36.002Z</time></trkpt><trkpt lat="-31.625296847696433" lon="115.77407493284096"><ele>62.0</ele><time>2026-04-12T04:05:37.002Z</time></trkpt><trkpt lat="-31.625190290697912" lon="115.77398052480719"><ele>63.0</ele><time>2026-04-12T04:05:38.002Z</time></trkpt><trkpt lat="-31.625072563243155" lon="115.77391262228198"><ele>63.0</ele><time>2026-04-12T04:05:39.002Z</time></trkpt><trkpt lat="-31.624969264718697" lon="115.77383209611578"><ele>63.0</ele><time>2026-04-12T04:05:40.002Z</time></trkpt><trkpt lat="-31.624851357039674" lon="115.77377847367849"><ele>63.0</ele><time>2026-04-12T04:05:41.002Z</time></trkpt><trkpt lat="-31.624741620213772" lon="115.77369759374504"><ele>63.0</ele><time>2026-04-12T04:05:42.002Z</time></trkpt><trkpt lat="-31.62463246458903" lon="115.77363618673022"><ele>63.0</ele><time>2026-04-12T04:05:43.002Z</time></trkpt><trkpt lat="-31.62452605840489" lon="115.7735764866148"><ele>63.0</ele><time>2026-04-12T04:05:44.002Z</time></trkpt><trkpt lat="-31.624423638156273" lon="115.77351881601953"><ele>63.0</ele><time>2026-04-12T04:05:45.002Z</time></trkpt><trkpt lat="-31.62431771223182" lon="115.77347995120508"><ele>63.0</ele><time>2026-04-12T04:05:46.002Z</time></trkpt><trkpt lat="-31.624224496259245" lon="115.77341265745528"><ele>63.0</ele><time>2026-04-12T04:05:47.002Z</time></trkpt><trkpt lat="-31.624121641" lon="115.77334562318727"><ele>63.0</ele><time>2026-04-12T04:05:48.002Z</time></trkpt><trkpt lat="-31.624014428682393" lon="115.77328491428561"><ele>63.0</ele><time>2026-04-12T04:05:49.002Z</time></trkpt><trkpt lat="-31.623896945377687" lon="115.77323026695896"><ele>63.0</ele><time>2026-04-12T04:05:50.002Z</time></trkpt><trkpt lat="-31.62378121887986" lon="115.77316892359428"><ele>63.0</ele><time>2026-04-12T04:05:51.002Z</time></trkpt><trkpt lat="-31.623671129864665" lon="115.77307922699926"><ele>63.0</ele><time>2026-04-12T04:05:52.002Z</time></trkpt><trkpt lat="-31.62355670457407" lon="115.77300705600136"><ele>63.0</ele><time>2026-04-12T04:05:53.002Z</time></trkpt><trkpt lat="-31.623444716990093" lon="115.7729529492247"><ele>63.0</ele><time>2026-04-12T04:05:54.002Z</time></trkpt><trkpt lat="-31.623339137607882" lon="115.77288770733743"><ele>62.75</ele><time>2026-04-12T04:05:55.002Z</time></trkpt><trkpt lat="-31.62324213132544" lon="115.77282413623107"><ele>62.5</ele><time>2026-04-12T04:05:56.002Z</time></trkpt><trkpt lat="-31.623155566549585" lon="115.77275355232428"><ele>62.25</ele><time>2026-04-12T04:05:57.002Z</time></trkpt><trkpt lat="-31.623055832331413" lon="115.77269186298022"><ele>62.0</ele><time>2026-04-12T04:05:58.002Z</time></trkpt><trkpt lat="-31.62294371075588" lon="115.77262334772206"><ele>61.0</ele><time>2026-04-12T04:05:59.002Z</time></trkpt><trkpt lat="-31.622828853005363" lon="115.77255454811217"><ele>60.0</ele><time>2026-04-12T04:06:00.002Z</time></trkpt><trkpt lat="-31.62270633467095" lon="115.77248546565073"><ele>59.0</ele><time>2026-04-12T04:06:01.002Z</time></trkpt><trkpt lat="-31.622576624974414" lon="115.77241232848262"><ele>58.0</ele><time>2026-04-12T04:06:02.002Z</time></trkpt><trkpt lat="-31.622451199470124" lon="115.77234231224462"><ele>57.75</ele><time>2026-04-12T04:06:03.002Z</time></trkpt><trkpt lat="-31.622329863903875" lon="115.7722728908245"><ele>57.5</ele><time>2026-04-12T04:06:04.002Z</time></trkpt><trkpt lat="-31.622207412088912" lon="115.77220088513786"><ele>57.25</ele><time>2026-04-12T04:06:05.002Z</time></trkpt><trkpt lat="-31.62208528385144" lon="115.77212682001937"><ele>57.0</ele><time>2026-04-12T04:06:06.002Z</time></trkpt><trkpt lat="-31.621957283328186" lon="115.77204778077426"><ele>57.0</ele><time>2026-04-12T04:06:07.002Z</time></trkpt><trkpt lat="-31.62183753728425" lon="115.77197371503738"><ele>57.0</ele><time>2026-04-12T04:06:08.002Z</time></trkpt><trkpt lat="-31.621718737144832" lon="115.77190003254182"><ele>57.0</ele><time>2026-04-12T04:06:09.003Z</time></trkpt><trkpt lat="-31.621604506963394" lon="115.77185426865299"><ele>57.0</ele><time>2026-04-12T04:06:10.003Z</time></trkpt><trkpt lat="-31.62150185286963" lon="115.77179665028906"><ele>57.0</ele><time>2026-04-12T04:06:11.003Z</time></trkpt><trkpt lat="-31.62141806277983" lon="115.7717936776262"><ele>57.0</ele><time>2026-04-12T04:06:12.003Z</time></trkpt><trkpt lat="-31.62132946038975" lon="115.77179699927714"><ele>57.0</ele><time>2026-04-12T04:06:14.003Z</time></trkpt><trkpt lat="-31.62122385613271" lon="115.77183555988803"><ele>57.0</ele><time>2026-04-12T04:06:17.003Z</time></trkpt><trkpt lat="-31.62113702820931" lon="115.77184286554524"><ele>57.0</ele><time>2026-04-12T04:06:19Z</time></trkpt><trkpt lat="-31.621058055894157" lon="115.77183306535723"><ele>58.2</ele><time>2026-04-12T04:06:22Z</time></trkpt><trkpt lat="-31.620961659393444" lon="115.77181719291137"><ele>59.400000000000006</ele><time>2026-04-12T04:06:31Z</time></trkpt><trkpt lat="-31.62088406001642" lon="115.77179718552937"><ele>60.599999999999994</ele><time>2026-04-12T04:06:32Z</time></trkpt><trkpt lat="-31.620799624095174" lon="115.77176361783894"><ele>61.8</ele><time>2026-04-12T04:06:33Z</time></trkpt><trkpt lat="-31.620703726270598" lon="115.77170864761503"><ele>63.0</ele><time>2026-04-12T04:06:34Z</time></trkpt><trkpt lat="-31.62059692972683" lon="115.77164676234784"><ele>63.0</ele><time>2026-04-12T04:06:35Z</time></trkpt><trkpt lat="-31.620472302621206" lon="115.77157192703375"><ele>63.0</ele><time>2026-04-12T04:06:36Z</time></trkpt><trkpt lat="-31.6203372590285" lon="115.77149494079677"><ele>63.0</ele><time>2026-04-12T04:06:37Z</time></trkpt><trkpt lat="-31.620198938501815" lon="115.7714198846459"><ele>63.0</ele><time>2026-04-12T04:06:38Z</time></trkpt><trkpt lat="-31.62003657356012" lon="115.7713331658791"><ele>64.0</ele><time>2026-04-12T04:06:39Z</time></trkpt><trkpt lat="-31.61987679109867" lon="115.77124785990556"><ele>65.0</ele><time>2026-04-12T04:06:40Z</time></trkpt><trkpt lat="-31.619707914942346" lon="115.77115940037154"><ele>66.0</ele><time>2026-04-12T04:06:41Z</time></trkpt><trkpt lat="-31.6195416762059" lon="115.77107317783158"><ele>66.0</ele><time>2026-04-12T04:06:42Z</time></trkpt><trkpt lat="-31.619370463898658" lon="115.77098293203385"><ele>66.0</ele><time>2026-04-12T04:06:43Z</time></trkpt><trkpt lat="-31.61920273535065" lon="115.77089260761"><ele>66.0</ele><time>2026-04-12T04:06:44.001Z</time></trkpt><trkpt lat="-31.619036764330353" lon="115.77080125494095"><ele>66.0</ele><time>2026-04-12T04:06:45.001Z</time></trkpt><trkpt lat="-31.618870575047406" lon="115.77070794506861"><ele>66.0</ele><time>2026-04-12T04:06:46.001Z</time></trkpt><trkpt lat="-31.618705372254393" lon="115.77061325681493"><ele>66.0</ele><time>2026-04-12T04:06:47.001Z</time></trkpt><trkpt lat="-31.61853268096142" lon="115.77051474434298"><ele>66.33333333333333</ele><time>2026-04-12T04:06:48.001Z</time></trkpt><trkpt lat="-31.618360419610788" lon="115.77042128461875"><ele>66.66666666666666</ele><time>2026-04-12T04:06:49.001Z</time></trkpt><trkpt lat="-31.618178604678448" lon="115.77033018163381"><ele>67.0</ele><time>2026-04-12T04:06:50.001Z</time></trkpt><trkpt lat="-31.618003483319026" lon="115.77023910915503"><ele>67.0</ele><time>2026-04-12T04:06:51.001Z</time></trkpt><trkpt lat="-31.617819429590895" lon="115.77013343103172"><ele>67.0</ele><time>2026-04-12T04:06:52.001Z</time></trkpt><trkpt lat="-31.617650155325048" lon="115.77003422988145"><ele>67.0</ele><time>2026-04-12T04:06:53.001Z</time></trkpt><trkpt lat="-31.61746542289097" lon="115.76993112066495"><ele>66.33333333333333</ele><time>2026-04-12T04:06:54.001Z</time></trkpt><trkpt lat="-31.617288282089305" lon="115.76983625591573"><ele>65.66666666666667</ele><time>2026-04-12T04:06:55.001Z</time></trkpt><trkpt lat="-31.617104760903175" lon="115.76974068238385"><ele>65.0</ele><time>2026-04-12T04:06:56.001Z</time></trkpt><trkpt lat="-31.616928323043414" lon="115.76964583131647"><ele>64.66666666666667</ele><time>2026-04-12T04:06:57.001Z</time></trkpt><trkpt lat="-31.61674918356768" lon="115.76954605151646"><ele>64.33333333333333</ele><time>2026-04-12T04:06:58.001Z</time></trkpt><trkpt lat="-31.616574797830783" lon="115.7694449474295"><ele>64.0</ele><time>2026-04-12T04:06:59.001Z</time></trkpt><trkpt lat="-31.616410354643044" lon="115.76934852987003"><ele>64.0</ele><time>2026-04-12T04:07:00.001Z</time></trkpt><trkpt lat="-31.616228005532435" lon="115.7692455519765"><ele>64.0</ele><time>2026-04-12T04:07:01.001Z</time></trkpt><trkpt lat="-31.616043378660077" lon="115.76914370653024"><ele>64.0</ele><time>2026-04-12T04:07:02.001Z</time></trkpt><trkpt lat="-31.61584902348863" lon="115.76903697258427"><ele>64.0</ele><time>2026-04-12T04:07:03.001Z</time></trkpt><trkpt lat="-31.61565416422793" lon="115.76892996256015"><ele>64.0</ele><time>2026-04-12T04:07:04.001Z</time></trkpt><trkpt lat="-31.61546652794707" lon="115.76882691914733"><ele>64.0</ele><time>2026-04-12T04:07:05.001Z</time></trkpt><trkpt lat="-31.615266663716987" lon="115.76873910901904"><ele>64.0</ele><time>2026-04-12T04:07:06.001Z</time></trkpt><trkpt lat="-31.615083466455953" lon="115.7686420568399"><ele>64.0</ele><time>2026-04-12T04:07:07.001Z</time></trkpt><trkpt lat="-31.614888196265166" lon="115.76853348086865"><ele>64.0</ele><time>2026-04-12T04:07:08.001Z</time></trkpt><trkpt lat="-31.61470490437236" lon="115.76842927122348"><ele>64.0</ele><time>2026-04-12T04:07:09.001Z</time></trkpt><trkpt lat="-31.61451630053691" lon="115.76832723842469"><ele>64.0</ele><time>2026-04-12T04:07:10.001Z</time></trkpt><trkpt lat="-31.61433235494321" lon="115.76822989937892"><ele>64.0</ele><time>2026-04-12T04:07:11.001Z</time></trkpt><trkpt lat="-31.61414761748198" lon="115.76813509133225"><ele>63.33333333333333</ele><time>2026-04-12T04:07:12.001Z</time></trkpt><trkpt lat="-31.613958439918733" lon="115.76803265619047"><ele>62.66666666666667</ele><time>2026-04-12T04:07:13.001Z</time></trkpt><trkpt lat="-31.613760969121422" lon="115.7679245756602"><ele>62.0</ele><time>2026-04-12T04:07:14.001Z</time></trkpt><trkpt lat="-31.6135774594029" lon="115.76781924018934"><ele>62.0</ele><time>2026-04-12T04:07:15.001Z</time></trkpt><trkpt lat="-31.61339971935893" lon="115.76771428014592"><ele>62.0</ele><time>2026-04-12T04:07:16.001Z</time></trkpt><trkpt lat="-31.613225415118965" lon="115.76761150667406"><ele>62.0</ele><time>2026-04-12T04:07:17.001Z</time></trkpt><trkpt lat="-31.613057587860308" lon="115.7675144290396"><ele>62.66666666666667</ele><time>2026-04-12T04:07:18.001Z</time></trkpt><trkpt lat="-31.61288834857408" lon="115.76742341726975"><ele>63.33333333333333</ele><time>2026-04-12T04:07:19.001Z</time></trkpt><trkpt lat="-31.61271873784273" lon="115.76733061521105"><ele>64.0</ele><time>2026-04-12T04:07:20.001Z</time></trkpt><trkpt lat="-31.612559411127986" lon="115.7672433688978"><ele>62.666666666666664</ele><time>2026-04-12T04:07:21.001Z</time></trkpt><trkpt lat="-31.612403172265957" lon="115.76715089135973"><ele>61.33333333333333</ele><time>2026-04-12T04:07:22.001Z</time></trkpt><trkpt lat="-31.612256541634043" lon="115.76706856429"><ele>60.0</ele><time>2026-04-12T04:07:23.002Z</time></trkpt><trkpt lat="-31.612109602048942" lon="115.76698631110725"><ele>60.0</ele><time>2026-04-12T04:07:24.002Z</time></trkpt><trkpt lat="-31.61194966494628" lon="115.76689616747699"><ele>60.0</ele><time>2026-04-12T04:07:25.002Z</time></trkpt><trkpt lat="-31.611794446971697" lon="115.7668217259645"><ele>60.0</ele><time>2026-04-12T04:07:26.002Z</time></trkpt><trkpt lat="-31.611637918935408" lon="115.76673520321673"><ele>60.0</ele><time>2026-04-12T04:07:27.002Z</time></trkpt><trkpt lat="-31.611487719716138" lon="115.76665218602264"><ele>60.0</ele><time>2026-04-12T04:07:28.002Z</time></trkpt><trkpt lat="-31.611352214837776" lon="115.76657927544908"><ele>60.0</ele><time>2026-04-12T04:07:29.002Z</time></trkpt><trkpt lat="-31.611219763328858" lon="115.76651146561147"><ele>59.25</ele><time>2026-04-12T04:07:30.002Z</time></trkpt><trkpt lat="-31.61109897324513" lon="115.76644324643696"><ele>58.5</ele><time>2026-04-12T04:07:31.002Z</time></trkpt><trkpt lat="-31.61098251377386" lon="115.76637976916057"><ele>57.75</ele><time>2026-04-12T04:07:32.002Z</time></trkpt><trkpt lat="-31.610855546967873" lon="115.76630848754594"><ele>57.0</ele><time>2026-04-12T04:07:33.002Z</time></trkpt><trkpt lat="-31.610733315222" lon="115.76624446158188"><ele>57.0</ele><time>2026-04-12T04:07:34.002Z</time></trkpt><trkpt lat="-31.6106192031463" lon="115.76618087128166"><ele>57.0</ele><time>2026-04-12T04:07:35.002Z</time></trkpt><trkpt lat="-31.610514077308085" lon="115.76612411067714"><ele>57.0</ele><time>2026-04-12T04:07:36.002Z</time></trkpt><trkpt lat="-31.610412359527725" lon="115.76606752484217"><ele>57.0</ele><time>2026-04-12T04:07:37.002Z</time></trkpt><trkpt lat="-31.61032589637477" lon="115.76601667373366"><ele>56.6</ele><time>2026-04-12T04:07:38.002Z</time></trkpt><trkpt lat="-31.610250126771945" lon="115.76595779115088"><ele>56.2</ele><time>2026-04-12T04:07:39.002Z</time></trkpt><trkpt lat="-31.610183497445593" lon="115.76588158403897"><ele>55.8</ele><time>2026-04-12T04:07:40.002Z</time></trkpt><trkpt lat="-31.610139840810877" lon="115.76578091305456"><ele>55.4</ele><time>2026-04-12T04:07:41.002Z</time></trkpt><trkpt lat="-31.61011136724774" lon="115.76566264064722"><ele>55.0</ele><time>2026-04-12T04:07:42.002Z</time></trkpt><trkpt lat="-31.610108007230636" lon="115.7655328954412"><ele>55.0</ele><time>2026-04-12T04:07:43.002Z</time></trkpt><trkpt lat="-31.610116935355986" lon="115.76539347984945"><ele>55.0</ele><time>2026-04-12T04:07:44.002Z</time></trkpt><trkpt lat="-31.61012408051139" lon="115.76524420723901"><ele>55.0</ele><time>2026-04-12T04:07:45.002Z</time></trkpt><trkpt lat="-31.610125266371146" lon="115.7650828024974"><ele>55.0</ele><time>2026-04-12T04:07:46.002Z</time></trkpt><trkpt lat="-31.610124353589274" lon="115.76490965283556"><ele>55.75</ele><time>2026-04-12T04:07:47.002Z</time></trkpt><trkpt lat="-31.61012727939705" lon="115.764731561224"><ele>56.5</ele><time>2026-04-12T04:07:48.002Z</time></trkpt><trkpt lat="-31.610130899511585" lon="115.76455678401783"><ele>57.25</ele><time>2026-04-12T04:07:49.002Z</time></trkpt><trkpt lat="-31.61013126997626" lon="115.76439278694285"><ele>58.0</ele><time>2026-04-12T04:07:50.002Z</time></trkpt><trkpt lat="-31.610131609126306" lon="115.76421139441655"><ele>58.0</ele><time>2026-04-12T04:07:51.002Z</time></trkpt><trkpt lat="-31.610126535086458" lon="115.76403351382665"><ele>58.0</ele><time>2026-04-12T04:07:52.002Z</time></trkpt><trkpt lat="-31.61013449431953" lon="115.76384911906676"><ele>58.0</ele><time>2026-04-12T04:07:53.002Z</time></trkpt><trkpt lat="-31.61014502637177" lon="115.76366347765489"><ele>57.8</ele><time>2026-04-12T04:07:54.002Z</time></trkpt><trkpt lat="-31.610146478208666" lon="115.76351394104513"><ele>57.599999999999994</ele><time>2026-04-12T04:07:55.002Z</time></trkpt><trkpt lat="-31.61014290422568" lon="115.76339195742275"><ele>57.400000000000006</ele><time>2026-04-12T04:07:56.002Z</time></trkpt><trkpt lat="-31.61013827373564" lon="115.76331136693389"><ele>57.2</ele><time>2026-04-12T04:07:57.002Z</time></trkpt><trkpt lat="-31.610111784238992" lon="115.76322792411099"><ele>57.0</ele><time>2026-04-12T04:07:59.002Z</time></trkpt><trkpt lat="-31.610033388280552" lon="115.76315017820217"><ele>57.0</ele><time>2026-04-12T04:08:01.002Z</time></trkpt><trkpt lat="-31.6099711155881" lon="115.7631062396168"><ele>57.0</ele><time>2026-04-12T04:08:02.002Z</time></trkpt><trkpt lat="-31.609895393378874" lon="115.76305474045566"><ele>57.0</ele><time>2026-04-12T04:08:03.002Z</time></trkpt><trkpt lat="-31.60980238757703" lon="115.76298033767515"><ele>57.0</ele><time>2026-04-12T04:08:04.003Z</time></trkpt><trkpt lat="-31.609689750223836" lon="115.76289959005128"><ele>57.0</ele><time>2026-04-12T04:08:05.003Z</time></trkpt><trkpt lat="-31.609557668013608" lon="115.76280665961536"><ele>58.0</ele><time>2026-04-12T04:08:06.003Z</time></trkpt><trkpt lat="-31.609415905361164" lon="115.7627038737155"><ele>59.0</ele><time>2026-04-12T04:08:07.003Z</time></trkpt><trkpt lat="-31.609282984484466" lon="115.7626054072944"><ele>60.0</ele><time>2026-04-12T04:08:08.003Z</time></trkpt><trkpt lat="-31.609150615923266" lon="115.76249598986143"><ele>60.0</ele><time>2026-04-12T04:08:09.003Z</time></trkpt><trkpt lat="-31.60901854243889" lon="115.7623827369416"><ele>60.0</ele><time>2026-04-12T04:08:10.003Z</time></trkpt><trkpt lat="-31.608893570625586" lon="115.76227690566871"><ele>60.0</ele><time>2026-04-12T04:08:11.003Z</time></trkpt><trkpt lat="-31.608769922980187" lon="115.76217779954247"><ele>60.75</ele><time>2026-04-12T04:08:12.003Z</time></trkpt><trkpt lat="-31.60865315577536" lon="115.76209080314662"><ele>61.5</ele><time>2026-04-12T04:08:13.003Z</time></trkpt><trkpt lat="-31.608548741448224" lon="115.76201365684099"><ele>62.25</ele><time>2026-04-12T04:08:14.003Z</time></trkpt><trkpt lat="-31.60845109830003" lon="115.76193874579792"><ele>63.0</ele><time>2026-04-12T04:08:15.003Z</time></trkpt><trkpt lat="-31.608342563050964" lon="115.76184836864721"><ele>63.0</ele><time>2026-04-12T04:08:16.003Z</time></trkpt><trkpt lat="-31.60823903932548" lon="115.76178378281723"><ele>63.0</ele><time>2026-04-12T04:08:17.003Z</time></trkpt><trkpt lat="-31.608135003624717" lon="115.76171475007683"><ele>63.0</ele><time>2026-04-12T04:08:18.003Z</time></trkpt><trkpt lat="-31.608021009806055" lon="115.76164056040902"><ele>63.0</ele><time>2026-04-12T04:08:19.003Z</time></trkpt><trkpt lat="-31.607905930545943" lon="115.76155279421103"><ele>63.2</ele><time>2026-04-12T04:08:20.003Z</time></trkpt><trkpt lat="-31.60781189870089" lon="115.76146835604138"><ele>63.4</ele><time>2026-04-12T04:08:21.003Z</time></trkpt><trkpt lat="-31.607731817011445" lon="115.76140416749621"><ele>63.60000000000001</ele><time>2026-04-12T04:08:22.003Z</time></trkpt><trkpt lat="-31.607665367105007" lon="115.76137036910103"><ele>63.800000000000004</ele><time>2026-04-12T04:08:23.003Z</time></trkpt><trkpt lat="-31.60758609566474" lon="115.76134575045226"><ele>64.0</ele><time>2026-04-12T04:08:24.003Z</time></trkpt><trkpt lat="-31.60749237506924" lon="115.76133472545219"><ele>64.0</ele><time>2026-04-12T04:08:25.001Z</time></trkpt><trkpt lat="-31.60737839963846" lon="115.76132810394896"><ele>64.0</ele><time>2026-04-12T04:08:26.001Z</time></trkpt><trkpt lat="-31.60724586163348" lon="115.76131453825955"><ele>64.0</ele><time>2026-04-12T04:08:27.001Z</time></trkpt><trkpt lat="-31.607108392691007" lon="115.76128780063281"><ele>64.0</ele><time>2026-04-12T04:08:28.001Z</time></trkpt><trkpt lat="-31.60697298203915" lon="115.76125158428655"><ele>63.0</ele><time>2026-04-12T04:08:29.001Z</time></trkpt><trkpt lat="-31.60681981843389" lon="115.7612074003954"><ele>62.0</ele><time>2026-04-12T04:08:30.001Z</time></trkpt><trkpt lat="-31.606640412439333" lon="115.76115265388685"><ele>61.0</ele><time>2026-04-12T04:08:31.001Z</time></trkpt><trkpt lat="-31.60645001917589" lon="115.76109432966727"><ele>61.0</ele><time>2026-04-12T04:08:32.001Z</time></trkpt><trkpt lat="-31.606280816255822" lon="115.76104681141076"><ele>61.0</ele><time>2026-04-12T04:08:33.001Z</time></trkpt><trkpt lat="-31.606128028750454" lon="115.76100098925447"><ele>61.0</ele><time>2026-04-12T04:08:34.001Z</time></trkpt><trkpt lat="-31.605988124719154" lon="115.76095715890857"><ele>60.5</ele><time>2026-04-12T04:08:35.001Z</time></trkpt><trkpt lat="-31.605847722838387" lon="115.76092184761698"><ele>60.0</ele><time>2026-04-12T04:08:36.001Z</time></trkpt><trkpt lat="-31.605699742413677" lon="115.76088082061696"><ele>59.5</ele><time>2026-04-12T04:08:37.001Z</time></trkpt><trkpt lat="-31.60556350966035" lon="115.76084475380974"><ele>59.0</ele><time>2026-04-12T04:08:38.001Z</time></trkpt><trkpt lat="-31.60542035804558" lon="115.76081055816938"><ele>59.6</ele><time>2026-04-12T04:08:39.001Z</time></trkpt><trkpt lat="-31.60529108072106" lon="115.76077159091082"><ele>60.2</ele><time>2026-04-12T04:08:40.001Z</time></trkpt><trkpt lat="-31.605173384643805" lon="115.76073650708709"><ele>60.800000000000004</ele><time>2026-04-12T04:08:41.001Z</time></trkpt><trkpt lat="-31.60506696825868" lon="115.76070840050949"><ele>61.400000000000006</ele><time>2026-04-12T04:08:42.001Z</time></trkpt><trkpt lat="-31.604986598585995" lon="115.76068654756234"><ele>62.0</ele><time>2026-04-12T04:08:43.001Z</time></trkpt><trkpt lat="-31.604914365984623" lon="115.76066786176665"><ele>62.0</ele><time>2026-04-12T04:08:45.001Z</time></trkpt><trkpt lat="-31.604844226705726" lon="115.7606127324375"><ele>62.0</ele><time>2026-04-12T04:08:47.001Z</time></trkpt><trkpt lat="-31.60479328992747" lon="115.76054398212919"><ele>62.0</ele><time>2026-04-12T04:08:48.001Z</time></trkpt><trkpt lat="-31.604749663686206" lon="115.76041014060792"><ele>62.0</ele><time>2026-04-12T04:08:49.001Z</time></trkpt><trkpt lat="-31.60469990161429" lon="115.76026047863189"><ele>62.0</ele><time>2026-04-12T04:08:50.001Z</time></trkpt><trkpt lat="-31.60463855566386" lon="115.76008869050159"><ele>61.333333333333336</ele><time>2026-04-12T04:08:51.001Z</time></trkpt><trkpt lat="-31.604555879049943" lon="115.75991561216367"><ele>60.66666666666667</ele><time>2026-04-12T04:08:52.001Z</time></trkpt><trkpt lat="-31.60445703398944" lon="115.75973165579397"><ele>60.0</ele><time>2026-04-12T04:08:53.001Z</time></trkpt><trkpt lat="-31.60435493335641" lon="115.75954652876995"><ele>60.33333333333333</ele><time>2026-04-12T04:08:54.001Z</time></trkpt><trkpt lat="-31.60424530144203" lon="115.75935944892352"><ele>60.666666666666664</ele><time>2026-04-12T04:08:55.001Z</time></trkpt><trkpt lat="-31.604135141375423" lon="115.75918146055227"><ele>61.0</ele><time>2026-04-12T04:08:56.001Z</time></trkpt><trkpt lat="-31.604034958643293" lon="115.75901679605009"><ele>61.0</ele><time>2026-04-12T04:08:57.001Z</time></trkpt><trkpt lat="-31.60394402056661" lon="115.75885826572302"><ele>61.0</ele><time>2026-04-12T04:08:58.002Z</time></trkpt><trkpt lat="-31.60386046129867" lon="115.75870807192639"><ele>61.0</ele><time>2026-04-12T04:08:59.002Z</time></trkpt><trkpt lat="-31.60378132438429" lon="115.75856859836192"><ele>61.0</ele><time>2026-04-12T04:09:00.002Z</time></trkpt><trkpt lat="-31.6037062495025" lon="115.75843755113453"><ele>60.99999999999999</ele><time>2026-04-12T04:09:01.002Z</time></trkpt><trkpt lat="-31.603633617193566" lon="115.75832800788959"><ele>60.99999999999999</ele><time>2026-04-12T04:09:02.002Z</time></trkpt><trkpt lat="-31.60357252044709" lon="115.75825900689398"><ele>61.0</ele><time>2026-04-12T04:09:03.002Z</time></trkpt><trkpt lat="-31.603516119693754" lon="115.75821588242042"><ele>61.0</ele><time>2026-04-12T04:09:04.002Z</time></trkpt><trkpt lat="-31.603451843115742" lon="115.75819221841755"><ele>61.4</ele><time>2026-04-12T04:09:05.002Z</time></trkpt><trkpt lat="-31.6033241655766" lon="115.7581909219288"><ele>61.8</ele><time>2026-04-12T04:09:07.002Z</time></trkpt><trkpt lat="-31.603248777225474" lon="115.75822416244263"><ele>62.199999999999996</ele><time>2026-04-12T04:09:08.002Z</time></trkpt><trkpt lat="-31.6031647880163" lon="115.75827972641326"><ele>62.599999999999994</ele><time>2026-04-12T04:09:09.002Z</time></trkpt><trkpt lat="-31.603071351790906" lon="115.75835710094788"><ele>63.0</ele><time>2026-04-12T04:09:10.002Z</time></trkpt><trkpt lat="-31.602967130314298" lon="115.75845169855376"><ele>62.66666666666667</ele><time>2026-04-12T04:09:11.002Z</time></trkpt><trkpt lat="-31.602839150532663" lon="115.75856099390258"><ele>62.333333333333336</ele><time>2026-04-12T04:09:12.002Z</time></trkpt><trkpt lat="-31.602696440005655" lon="115.75867214127967"><ele>62.0</ele><time>2026-04-12T04:09:13.002Z</time></trkpt><trkpt lat="-31.602539719626794" lon="115.75878976480264"><ele>62.0</ele><time>2026-04-12T04:09:14.002Z</time></trkpt><trkpt lat="-31.602382818731552" lon="115.7589255509684"><ele>62.0</ele><time>2026-04-12T04:09:15.002Z</time></trkpt><trkpt lat="-31.602223624445998" lon="115.75907190234791"><ele>62.0</ele><time>2026-04-12T04:09:16.002Z</time></trkpt><trkpt lat="-31.602065175484583" lon="115.75922114707527"><ele>63.0</ele><time>2026-04-12T04:09:17.002Z</time></trkpt><trkpt lat="-31.601916593854398" lon="115.7593539091432"><ele>64.0</ele><time>2026-04-12T04:09:18.002Z</time></trkpt><trkpt lat="-31.601762165097295" lon="115.75947932306823"><ele>65.0</ele><time>2026-04-12T04:09:19.002Z</time></trkpt><trkpt lat="-31.601597549574493" lon="115.7596026666537"><ele>65.0</ele><time>2026-04-12T04:09:20.002Z</time></trkpt><trkpt lat="-31.601429470204383" lon="115.75972656150616"><ele>65.0</ele><time>2026-04-12T04:09:21.002Z</time></trkpt><trkpt lat="-31.60125975978829" lon="115.75985509220068"><ele>65.0</ele><time>2026-04-12T04:09:22.002Z</time></trkpt><trkpt lat="-31.601094584658767" lon="115.7599831478226"><ele>65.33333333333334</ele><time>2026-04-12T04:09:23.002Z</time></trkpt><trkpt lat="-31.60094211240234" lon="115.76010318814345"><ele>65.66666666666667</ele><time>2026-04-12T04:09:24.002Z</time></trkpt><trkpt lat="-31.600794699184476" lon="115.76022140683285"><ele>66.0</ele><time>2026-04-12T04:09:25.002Z</time></trkpt><trkpt lat="-31.60065040848164" lon="115.76034326102216"><ele>66.33333333333333</ele><time>2026-04-12T04:09:26.002Z</time></trkpt><trkpt lat="-31.600505865137144" lon="115.76047055450958"><ele>66.66666666666666</ele><time>2026-04-12T04:09:27.002Z</time></trkpt><trkpt lat="-31.600354214506822" lon="115.76060503259801"><ele>67.0</ele><time>2026-04-12T04:09:28.002Z</time></trkpt><trkpt lat="-31.60020228882241" lon="115.76073492012475"><ele>68.0</ele><time>2026-04-12T04:09:29.002Z</time></trkpt><trkpt lat="-31.600067753339136" lon="115.7608508637753"><ele>69.0</ele><time>2026-04-12T04:09:30.002Z</time></trkpt><trkpt lat="-31.599939225793538" lon="115.7609586361453"><ele>70.0</ele><time>2026-04-12T04:09:31.002Z</time></trkpt><trkpt lat="-31.59982702028663" lon="115.76105607889437"><ele>70.5</ele><time>2026-04-12T04:09:32.002Z</time></trkpt><trkpt lat="-31.599716625718475" lon="115.76114813511838"><ele>71.0</ele><time>2026-04-12T04:09:33.002Z</time></trkpt><trkpt lat="-31.599608651613064" lon="115.7612332999097"><ele>71.5</ele><time>2026-04-12T04:09:34.002Z</time></trkpt><trkpt lat="-31.599491808951786" lon="115.76132441315931"><ele>72.0</ele><time>2026-04-12T04:09:35.002Z</time></trkpt><trkpt lat="-31.59937150089386" lon="115.76142788106866"><ele>70.66666666666667</ele><time>2026-04-12T04:09:36.002Z</time></trkpt><trkpt lat="-31.599245693370886" lon="115.76153331967835"><ele>69.33333333333334</ele><time>2026-04-12T04:09:37.002Z</time></trkpt><trkpt lat="-31.599120247562468" lon="115.76164311475692"><ele>68.0</ele><time>2026-04-12T04:09:38.002Z</time></trkpt><trkpt lat="-31.599001110209723" lon="115.76173970234426"><ele>68.0</ele><time>2026-04-12T04:09:39.002Z</time></trkpt><trkpt lat="-31.59887842300243" lon="115.76183450298039"><ele>68.0</ele><time>2026-04-12T04:09:40.002Z</time></trkpt><trkpt lat="-31.598743406014528" lon="115.76192015541552"><ele>68.0</ele><time>2026-04-12T04:09:41.002Z</time></trkpt><trkpt lat="-31.598589889063536" lon="115.76199741356807"><ele>67.33333333333334</ele><time>2026-04-12T04:09:42.002Z</time></trkpt><trkpt lat="-31.59841812960589" lon="115.7620564110822"><ele>66.66666666666667</ele><time>2026-04-12T04:09:43.002Z</time></trkpt><trkpt lat="-31.59823525757898" lon="115.76208901319458"><ele>66.0</ele><time>2026-04-12T04:09:44.002Z</time></trkpt><trkpt lat="-31.5980406344848" lon="115.7620977717534"><ele>66.0</ele><time>2026-04-12T04:09:45.002Z</time></trkpt><trkpt lat="-31.597838478767198" lon="115.76209062637288"><ele>66.0</ele><time>2026-04-12T04:09:46.002Z</time></trkpt><trkpt lat="-31.597636597926414" lon="115.76207887531692"><ele>66.0</ele><time>2026-04-12T04:09:47.003Z</time></trkpt><trkpt lat="-31.59743605867805" lon="115.76206897173184"><ele>66.33333333333333</ele><time>2026-04-12T04:09:48.003Z</time></trkpt><trkpt lat="-31.59724653004767" lon="115.76206675738857"><ele>66.66666666666666</ele><time>2026-04-12T04:09:49.003Z</time></trkpt><trkpt lat="-31.597039241178194" lon="115.76206130399073"><ele>67.0</ele><time>2026-04-12T04:09:50.003Z</time></trkpt><trkpt lat="-31.596826900610356" lon="115.762060590868"><ele>67.0</ele><time>2026-04-12T04:09:51.003Z</time></trkpt><trkpt lat="-31.596606107472414" lon="115.76205642350237"><ele>67.0</ele><time>2026-04-12T04:09:52.003Z</time></trkpt><trkpt lat="-31.596373418253638" lon="115.76205310642291"><ele>66.66666666666666</ele><time>2026-04-12T04:09:53.003Z</time></trkpt><trkpt lat="-31.596145765700765" lon="115.76204823330549"><ele>66.33333333333333</ele><time>2026-04-12T04:09:54.003Z</time></trkpt><trkpt lat="-31.595936265947326" lon="115.7620442923045"><ele>66.0</ele><time>2026-04-12T04:09:55.003Z</time></trkpt><trkpt lat="-31.595728303309677" lon="115.76203880302258"><ele>66.0</ele><time>2026-04-12T04:09:56.003Z</time></trkpt><trkpt lat="-31.59551921436717" lon="115.76203071081783"><ele>66.0</ele><time>2026-04-12T04:09:57.003Z</time></trkpt><trkpt lat="-31.595313857852506" lon="115.76202100011868"><ele>66.0</ele><time>2026-04-12T04:09:58.003Z</time></trkpt><trkpt lat="-31.59511325297643" lon="115.76201589775403"><ele>66.0</ele><time>2026-04-12T04:09:59.003Z</time></trkpt><trkpt lat="-31.594917177046597" lon="115.76201292041229"><ele>66.0</ele><time>2026-04-12T04:10:00.003Z</time></trkpt><trkpt lat="-31.59471896948164" lon="115.76200658976668"><ele>66.0</ele><time>2026-04-12T04:10:01.003Z</time></trkpt><trkpt lat="-31.59452386963588" lon="115.76199939977649"><ele>67.0</ele><time>2026-04-12T04:10:02.003Z</time></trkpt><trkpt lat="-31.594333825219444" lon="115.76199405778442"><ele>68.0</ele><time>2026-04-12T04:10:03.003Z</time></trkpt><trkpt lat="-31.594145609280233" lon="115.76198944031859"><ele>69.0</ele><time>2026-04-12T04:10:04.003Z</time></trkpt><trkpt lat="-31.593945001799675" lon="115.76198441046357"><ele>69.0</ele><time>2026-04-12T04:10:05.003Z</time></trkpt><trkpt lat="-31.59373451237005" lon="115.76197756450941"><ele>69.0</ele><time>2026-04-12T04:10:06.003Z</time></trkpt><trkpt lat="-31.593519324577567" lon="115.76197188869143"><ele>69.0</ele><time>2026-04-12T04:10:07.003Z</time></trkpt><trkpt lat="-31.593303520742765" lon="115.76196898235413"><ele>70.33333333333333</ele><time>2026-04-12T04:10:08.003Z</time></trkpt><trkpt lat="-31.593093501002677" lon="115.76196485160382"><ele>71.66666666666666</ele><time>2026-04-12T04:10:09.003Z</time></trkpt><trkpt lat="-31.592883125466102" lon="115.76195835855371"><ele>73.0</ele><time>2026-04-12T04:10:10.003Z</time></trkpt><trkpt lat="-31.5926672264274" lon="115.76194942797754"><ele>73.0</ele><time>2026-04-12T04:10:11.003Z</time></trkpt><trkpt lat="-31.59244521266469" lon="115.7619426287407"><ele>73.0</ele><time>2026-04-12T04:10:12.003Z</time></trkpt><trkpt lat="-31.592223273617012" lon="115.76194167214463"><ele>73.0</ele><time>2026-04-12T04:10:13.003Z</time></trkpt><trkpt lat="-31.59200861678619" lon="115.76193644830639"><ele>73.0</ele><time>2026-04-12T04:10:14.003Z</time></trkpt><trkpt lat="-31.5917985034939" lon="115.7619317781488"><ele>73.0</ele><time>2026-04-12T04:10:15.003Z</time></trkpt><trkpt lat="-31.591586577388636" lon="115.7619263376729"><ele>73.0</ele><time>2026-04-12T04:10:16.003Z</time></trkpt><trkpt lat="-31.591374471149688" lon="115.76192256864225"><ele>72.66666666666666</ele><time>2026-04-12T04:10:17.003Z</time></trkpt><trkpt lat="-31.591159296028895" lon="115.76192153620003"><ele>72.33333333333333</ele><time>2026-04-12T04:10:18.003Z</time></trkpt><trkpt lat="-31.590950769302577" lon="115.76191680202223"><ele>72.0</ele><time>2026-04-12T04:10:19.003Z</time></trkpt><trkpt lat="-31.5907492051662" lon="115.76191644402608"><ele>72.0</ele><time>2026-04-12T04:10:20.003Z</time></trkpt><trkpt lat="-31.590550072763083" lon="115.76191138574303"><ele>72.0</ele><time>2026-04-12T04:10:21.003Z</time></trkpt><trkpt lat="-31.590342543404216" lon="115.76190700236764"><ele>72.0</ele><time>2026-04-12T04:10:22.003Z</time></trkpt><trkpt lat="-31.590133588850257" lon="115.76189869385256"><ele>72.0</ele><time>2026-04-12T04:10:23.003Z</time></trkpt><trkpt lat="-31.58992098255376" lon="115.76189068849523"><ele>72.0</ele><time>2026-04-12T04:10:24.003Z</time></trkpt><trkpt lat="-31.58972452987084" lon="115.76189030323275"><ele>72.0</ele><time>2026-04-12T04:10:25.003Z</time></trkpt><trkpt lat="-31.58951259331825" lon="115.76188835094763"><ele>72.33333333333333</ele><time>2026-04-12T04:10:26.003Z</time></trkpt><trkpt lat="-31.58930077878963" lon="115.76188675625563"><ele>72.66666666666666</ele><time>2026-04-12T04:10:27.003Z</time></trkpt><trkpt lat="-31.589089612858416" lon="115.76188549712592"><ele>73.0</ele><time>2026-04-12T04:10:28.003Z</time></trkpt><trkpt lat="-31.588880014621747" lon="115.76188299079875"><ele>72.66666666666666</ele><time>2026-04-12T04:10:29.003Z</time></trkpt><trkpt lat="-31.5886648989254" lon="115.76187555006139"><ele>72.33333333333333</ele><time>2026-04-12T04:10:30.003Z</time></trkpt><trkpt lat="-31.588457688890415" lon="115.76186921759326"><ele>72.0</ele><time>2026-04-12T04:10:31.002Z</time></trkpt><trkpt lat="-31.588249057715533" lon="115.761868631345"><ele>72.33333333333333</ele><time>2026-04-12T04:10:32.003Z</time></trkpt><trkpt lat="-31.58802980521193" lon="115.76186322087297"><ele>72.66666666666666</ele><time>2026-04-12T04:10:33.003Z</time></trkpt><trkpt lat="-31.587801322499875" lon="115.76185733492271"><ele>73.0</ele><time>2026-04-12T04:10:34.003Z</time></trkpt><trkpt lat="-31.587566019390334" lon="115.76185425240097"><ele>73.0</ele><time>2026-04-12T04:10:35.003Z</time></trkpt><trkpt lat="-31.587324889539197" lon="115.7618478780998"><ele>73.0</ele><time>2026-04-12T04:10:36.003Z</time></trkpt><trkpt lat="-31.587088153769017" lon="115.76184648872584"><ele>74.5</ele><time>2026-04-12T04:10:37.002Z</time></trkpt><trkpt lat="-31.586847995534722" lon="115.76184312166187"><ele>76.0</ele><time>2026-04-12T04:10:38.002Z</time></trkpt><trkpt lat="-31.586609801992196" lon="115.76184115477658"><ele>76.0</ele><time>2026-04-12T04:10:39.002Z</time></trkpt><trkpt lat="-31.58637732488774" lon="115.76183440430403"><ele>76.0</ele><time>2026-04-12T04:10:40.002Z</time></trkpt><trkpt lat="-31.586144855211057" lon="115.7618327553566"><ele>73.0</ele><time>2026-04-12T04:10:41.002Z</time></trkpt><trkpt lat="-31.585913539144354" lon="115.76183154966093"><ele>70.0</ele><time>2026-04-12T04:10:42.002Z</time></trkpt><trkpt lat="-31.585690330440798" lon="115.76182980427423"><ele>70.0</ele><time>2026-04-12T04:10:43.002Z</time></trkpt><trkpt lat="-31.585465561950503" lon="115.7618250556635"><ele>70.0</ele><time>2026-04-12T04:10:44.002Z</time></trkpt><trkpt lat="-31.58523951567506" lon="115.76182640016222"><ele>70.33333333333333</ele><time>2026-04-12T04:10:45.002Z</time></trkpt><trkpt lat="-31.585014122354647" lon="115.76182303965064"><ele>70.66666666666667</ele><time>2026-04-12T04:10:46.002Z</time></trkpt><trkpt lat="-31.584792074809013" lon="115.76182083827963"><ele>71.0</ele><time>2026-04-12T04:10:47.002Z</time></trkpt><trkpt lat="-31.58456801759679" lon="115.76181693996429"><ele>70.0</ele><time>2026-04-12T04:10:48.002Z</time></trkpt><trkpt lat="-31.58434147944046" lon="115.76181127991916"><ele>69.0</ele><time>2026-04-12T04:10:49.002Z</time></trkpt><trkpt lat="-31.58411888412217" lon="115.76180883774953"><ele>68.0</ele><time>2026-04-12T04:10:50.002Z</time></trkpt><trkpt lat="-31.58389477151751" lon="115.7618083988782"><ele>67.0</ele><time>2026-04-12T04:10:51.002Z</time></trkpt><trkpt lat="-31.58366517646395" lon="115.76180841768647"><ele>66.0</ele><time>2026-04-12T04:10:52.002Z</time></trkpt><trkpt lat="-31.58344014988317" lon="115.76180717858479"><ele>66.0</ele><time>2026-04-12T04:10:53.002Z</time></trkpt><trkpt lat="-31.58321665753999" lon="115.76180768535421"><ele>66.0</ele><time>2026-04-12T04:10:54.002Z</time></trkpt><trkpt lat="-31.582996348041767" lon="115.76180585547607"><ele>66.0</ele><time>2026-04-12T04:10:55.002Z</time></trkpt><trkpt lat="-31.582777717092917" lon="115.76180595612291"><ele>66.33333333333333</ele><time>2026-04-12T04:10:56.002Z</time></trkpt><trkpt lat="-31.582557543775913" lon="115.76180453302037"><ele>66.66666666666666</ele><time>2026-04-12T04:10:57.002Z</time></trkpt><trkpt lat="-31.58233909303724" lon="115.76180452158479"><ele>67.0</ele><time>2026-04-12T04:10:58.002Z</time></trkpt><trkpt lat="-31.582117291558053" lon="115.76180389249673"><ele>66.0</ele><time>2026-04-12T04:10:59.002Z</time></trkpt><trkpt lat="-31.581894620986276" lon="115.76180258469059"><ele>65.0</ele><time>2026-04-12T04:11:00.002Z</time></trkpt><trkpt lat="-31.58167332800347" lon="115.7618018987329"><ele>64.0</ele><time>2026-04-12T04:11:01.002Z</time></trkpt><trkpt lat="-31.581447914322155" lon="115.76180159970747"><ele>64.0</ele><time>2026-04-12T04:11:02.002Z</time></trkpt><trkpt lat="-31.581226740801355" lon="115.76179960079926"><ele>64.0</ele><time>2026-04-12T04:11:03.002Z</time></trkpt><trkpt lat="-31.581012438523558" lon="115.76179632033983"><ele>64.0</ele><time>2026-04-12T04:11:04.002Z</time></trkpt><trkpt lat="-31.580797068625145" lon="115.76178799118202"><ele>64.0</ele><time>2026-04-12T04:11:05.002Z</time></trkpt><trkpt lat="-31.580578063698194" lon="115.76178214402842"><ele>64.0</ele><time>2026-04-12T04:11:06.002Z</time></trkpt><trkpt lat="-31.58035899541923" lon="115.76178018304815"><ele>64.0</ele><time>2026-04-12T04:11:07.002Z</time></trkpt><trkpt lat="-31.58013738270242" lon="115.7617761219617"><ele>64.0</ele><time>2026-04-12T04:11:08.002Z</time></trkpt><trkpt lat="-31.57991242655189" lon="115.76177163558742"><ele>64.0</ele><time>2026-04-12T04:11:09.002Z</time></trkpt><trkpt lat="-31.579691752870755" lon="115.76176972915478"><ele>64.0</ele><time>2026-04-12T04:11:10.002Z</time></trkpt><trkpt lat="-31.579473323232122" lon="115.7617714691482"><ele>64.66666666666666</ele><time>2026-04-12T04:11:11.002Z</time></trkpt><trkpt lat="-31.579256011090305" lon="115.7617741618386"><ele>65.33333333333333</ele><time>2026-04-12T04:11:12.002Z</time></trkpt><trkpt lat="-31.57902408896761" lon="115.76177513957253"><ele>66.0</ele><time>2026-04-12T04:11:13.002Z</time></trkpt><trkpt lat="-31.578797954343315" lon="115.76177251453353"><ele>67.5</ele><time>2026-04-12T04:11:14.002Z</time></trkpt><trkpt lat="-31.578568738441977" lon="115.76176958316829"><ele>69.0</ele><time>2026-04-12T04:11:15.002Z</time></trkpt><trkpt lat="-31.5783392632653" lon="115.7617666815255"><ele>69.0</ele><time>2026-04-12T04:11:16.002Z</time></trkpt><trkpt lat="-31.578115059141094" lon="115.76176838547345"><ele>69.0</ele><time>2026-04-12T04:11:17.002Z</time></trkpt><trkpt lat="-31.57789393541022" lon="115.76177069915816"><ele>69.0</ele><time>2026-04-12T04:11:18.002Z</time></trkpt><trkpt lat="-31.57767255232058" lon="115.76178445568787"><ele>68.5</ele><time>2026-04-12T04:11:19.002Z</time></trkpt><trkpt lat="-31.577436083656366" lon="115.76177141678588"><ele>68.0</ele><time>2026-04-12T04:11:20.002Z</time></trkpt><trkpt lat="-31.577205952531987" lon="115.7617700420711"><ele>69.0</ele><time>2026-04-12T04:11:21.002Z</time></trkpt><trkpt lat="-31.57699048590612" lon="115.76176616363382"><ele>70.0</ele><time>2026-04-12T04:11:22.002Z</time></trkpt><trkpt lat="-31.576792744049083" lon="115.76176277978476"><ele>71.0</ele><time>2026-04-12T04:11:23.002Z</time></trkpt><trkpt lat="-31.576598983992824" lon="115.76175937230428"><ele>71.0</ele><time>2026-04-12T04:11:24.002Z</time></trkpt><trkpt lat="-31.576423111359" lon="115.76175830983573"><ele>71.0</ele><time>2026-04-12T04:11:25.002Z</time></trkpt><trkpt lat="-31.576251811070456" lon="115.76175702732918"><ele>71.0</ele><time>2026-04-12T04:11:26.002Z</time></trkpt><trkpt lat="-31.576091083056397" lon="115.76175658122266"><ele>69.66666666666667</ele><time>2026-04-12T04:11:27.002Z</time></trkpt><trkpt lat="-31.575914964894928" lon="115.76175403634164"><ele>68.33333333333333</ele><time>2026-04-12T04:11:28.002Z</time></trkpt><trkpt lat="-31.575724688624568" lon="115.76173437475956"><ele>67.0</ele><time>2026-04-12T04:11:29.002Z</time></trkpt><trkpt lat="-31.57552591070373" lon="115.76169486167211"><ele>65.0</ele><time>2026-04-12T04:11:30.002Z</time></trkpt><trkpt lat="-31.57531559021999" lon="115.76163837149117"><ele>63.0</ele><time>2026-04-12T04:11:31.002Z</time></trkpt><trkpt lat="-31.575094826800136" lon="115.76157229656758"><ele>61.0</ele><time>2026-04-12T04:11:32.002Z</time></trkpt><trkpt lat="-31.57486857468083" lon="115.76150202027353"><ele>61.0</ele><time>2026-04-12T04:11:33.002Z</time></trkpt><trkpt lat="-31.574641717263273" lon="115.76143190403306"><ele>61.0</ele><time>2026-04-12T04:11:34.002Z</time></trkpt><trkpt lat="-31.574410061401885" lon="115.7613643979292"><ele>62.0</ele><time>2026-04-12T04:11:35.002Z</time></trkpt><trkpt lat="-31.57417501011474" lon="115.76129734534932"><ele>63.0</ele><time>2026-04-12T04:11:36.003Z</time></trkpt><trkpt lat="-31.57394496931283" lon="115.76123075739753"><ele>63.0</ele><time>2026-04-12T04:11:37.003Z</time></trkpt><trkpt lat="-31.573719918638666" lon="115.7611630124412"><ele>63.0</ele><time>2026-04-12T04:11:38.003Z</time></trkpt><trkpt lat="-31.5735025371824" lon="115.76109719746427"><ele>64.5</ele><time>2026-04-12T04:11:39.003Z</time></trkpt><trkpt lat="-31.57327661140374" lon="115.76103272467823"><ele>66.0</ele><time>2026-04-12T04:11:40.003Z</time></trkpt><trkpt lat="-31.573059837958528" lon="115.76096838256797"><ele>66.0</ele><time>2026-04-12T04:11:41.003Z</time></trkpt><trkpt lat="-31.572836338774785" lon="115.76089881218559"><ele>66.0</ele><time>2026-04-12T04:11:42.003Z</time></trkpt><trkpt lat="-31.572607871829653" lon="115.76082777198654"><ele>66.0</ele><time>2026-04-12T04:11:43.003Z</time></trkpt><trkpt lat="-31.572369304269685" lon="115.76075777347089"><ele>66.0</ele><time>2026-04-12T04:11:44.003Z</time></trkpt><trkpt lat="-31.572146019733022" lon="115.76069388565496"><ele>65.0</ele><time>2026-04-12T04:11:45.003Z</time></trkpt><trkpt lat="-31.571918213670692" lon="115.76062879521314"><ele>64.0</ele><time>2026-04-12T04:11:46.003Z</time></trkpt><trkpt lat="-31.57169563591444" lon="115.76056278555984"><ele>64.0</ele><time>2026-04-12T04:11:47.003Z</time></trkpt><trkpt lat="-31.571479968193334" lon="115.76050045992146"><ele>64.0</ele><time>2026-04-12T04:11:48.003Z</time></trkpt><trkpt lat="-31.571259571420622" lon="115.76043593926802"><ele>64.0</ele><time>2026-04-12T04:11:49.003Z</time></trkpt><trkpt lat="-31.57103803726354" lon="115.7603736213924"><ele>64.5</ele><time>2026-04-12T04:11:50.003Z</time></trkpt><trkpt lat="-31.570816109866207" lon="115.7603077846718"><ele>65.0</ele><time>2026-04-12T04:11:51.003Z</time></trkpt><trkpt lat="-31.570588397096888" lon="115.76023758109352"><ele>65.5</ele><time>2026-04-12T04:11:52.003Z</time></trkpt><trkpt lat="-31.570360120556845" lon="115.76016597492709"><ele>66.0</ele><time>2026-04-12T04:11:53.003Z</time></trkpt><trkpt lat="-31.570132546020513" lon="115.76010055592715"><ele>64.5</ele><time>2026-04-12T04:11:54.003Z</time></trkpt><trkpt lat="-31.569903690946834" lon="115.76003607798759"><ele>63.0</ele><time>2026-04-12T04:11:55.003Z</time></trkpt><trkpt lat="-31.56968075066875" lon="115.7599735756135"><ele>64.0</ele><time>2026-04-12T04:11:56.003Z</time></trkpt><trkpt lat="-31.569458520643114" lon="115.75991020242694"><ele>65.0</ele><time>2026-04-12T04:11:57.003Z</time></trkpt><trkpt lat="-31.56923357435817" lon="115.75984049064428"><ele>65.0</ele><time>2026-04-12T04:11:58.003Z</time></trkpt><trkpt lat="-31.56902044178085" lon="115.75974906358981"><ele>65.0</ele><time>2026-04-12T04:11:59.003Z</time></trkpt><trkpt lat="-31.568780501171318" lon="115.75969747317748"><ele>65.0</ele><time>2026-04-12T04:12:00.003Z</time></trkpt><trkpt lat="-31.568557368531916" lon="115.75962537119858"><ele>65.0</ele><time>2026-04-12T04:12:01.003Z</time></trkpt><trkpt lat="-31.5683326966164" lon="115.75954209372435"><ele>65.0</ele><time>2026-04-12T04:12:02.003Z</time></trkpt><trkpt lat="-31.568103625873395" lon="115.75947490310135"><ele>65.0</ele><time>2026-04-12T04:12:03.003Z</time></trkpt><trkpt lat="-31.56787815212251" lon="115.75940798884685"><ele>64.5</ele><time>2026-04-12T04:12:04.003Z</time></trkpt><trkpt lat="-31.567656120973183" lon="115.75934291310212"><ele>64.0</ele><time>2026-04-12T04:12:05.003Z</time></trkpt><trkpt lat="-31.56743187583261" lon="115.75927753521185"><ele>64.0</ele><time>2026-04-12T04:12:06.003Z</time></trkpt><trkpt lat="-31.567210414817737" lon="115.75921435896821"><ele>64.0</ele><time>2026-04-12T04:12:07.003Z</time></trkpt><trkpt lat="-31.566983125198487" lon="115.75914964483248"><ele>64.0</ele><time>2026-04-12T04:12:08.003Z</time></trkpt><trkpt lat="-31.566757484289724" lon="115.75910366662731"><ele>64.0</ele><time>2026-04-12T04:12:09.003Z</time></trkpt><trkpt lat="-31.566532056057305" lon="115.75903943399591"><ele>64.0</ele><time>2026-04-12T04:12:10.003Z</time></trkpt><trkpt lat="-31.566308226821132" lon="115.75897075072191"><ele>64.0</ele><time>2026-04-12T04:12:11.003Z</time></trkpt><trkpt lat="-31.566084183012947" lon="115.75890096190253"><ele>64.33333333333333</ele><time>2026-04-12T04:12:12.003Z</time></trkpt><trkpt lat="-31.56586473996279" lon="115.75883896514358"><ele>64.66666666666667</ele><time>2026-04-12T04:12:13.003Z</time></trkpt><trkpt lat="-31.565650936183005" lon="115.75877965586463"><ele>65.0</ele><time>2026-04-12T04:12:14.003Z</time></trkpt><trkpt lat="-31.56543168289153" lon="115.75871250875822"><ele>66.0</ele><time>2026-04-12T04:12:15.003Z</time></trkpt><trkpt lat="-31.565211360919324" lon="115.75864106580842"><ele>67.0</ele><time>2026-04-12T04:12:16.003Z</time></trkpt><trkpt lat="-31.564993508820876" lon="115.7585747502641"><ele>68.5</ele><time>2026-04-12T04:12:17.003Z</time></trkpt><trkpt lat="-31.56477530990992" lon="115.7585136308599"><ele>70.0</ele><time>2026-04-12T04:12:18.003Z</time></trkpt><trkpt lat="-31.56455572929449" lon="115.75845195801483"><ele>68.0</ele><time>2026-04-12T04:12:19.003Z</time></trkpt><trkpt lat="-31.56433465403694" lon="115.75838659718461"><ele>66.0</ele><time>2026-04-12T04:12:20.003Z</time></trkpt><trkpt lat="-31.564114311532308" lon="115.75832102738919"><ele>66.0</ele><time>2026-04-12T04:12:21.003Z</time></trkpt><trkpt lat="-31.563894860020714" lon="115.75825692619884"><ele>66.0</ele><time>2026-04-12T04:12:22.003Z</time></trkpt><trkpt lat="-31.56367304907375" lon="115.75819104685647"><ele>65.5</ele><time>2026-04-12T04:12:23.003Z</time></trkpt><trkpt lat="-31.563450908823384" lon="115.75813107936908"><ele>65.0</ele><time>2026-04-12T04:12:24.003Z</time></trkpt><trkpt lat="-31.563224398918035" lon="115.75806404950784"><ele>65.0</ele><time>2026-04-12T04:12:25.003Z</time></trkpt><trkpt lat="-31.563005917814422" lon="115.75800274754522"><ele>65.0</ele><time>2026-04-12T04:12:26.003Z</time></trkpt><trkpt lat="-31.562791958741908" lon="115.75793596554203"><ele>65.0</ele><time>2026-04-12T04:12:27.003Z</time></trkpt><trkpt lat="-31.562576555291187" lon="115.75786884303294"><ele>65.66666666666667</ele><time>2026-04-12T04:12:28.003Z</time></trkpt><trkpt lat="-31.5623619079842" lon="115.75779123613096"><ele>66.33333333333333</ele><time>2026-04-12T04:12:29.003Z</time></trkpt><trkpt lat="-31.562151985347832" lon="115.75772876807858"><ele>67.0</ele><time>2026-04-12T04:12:30.004Z</time></trkpt><trkpt lat="-31.56193140307163" lon="115.75766257151979"><ele>68.0</ele><time>2026-04-12T04:12:31.004Z</time></trkpt><trkpt lat="-31.561702658389912" lon="115.75759535607308"><ele>69.0</ele><time>2026-04-12T04:12:32.004Z</time></trkpt><trkpt lat="-31.561471061494096" lon="115.75752693282465"><ele>69.0</ele><time>2026-04-12T04:12:33.004Z</time></trkpt><trkpt lat="-31.56123599523113" lon="115.75745822498591"><ele>69.0</ele><time>2026-04-12T04:12:34.004Z</time></trkpt><trkpt lat="-31.56100185342568" lon="115.7573899284354"><ele>68.5</ele><time>2026-04-12T04:12:35.004Z</time></trkpt><trkpt lat="-31.560756084423954" lon="115.75733306176849"><ele>68.0</ele><time>2026-04-12T04:12:36.004Z</time></trkpt><trkpt lat="-31.5605205457154" lon="115.75726548332361"><ele>67.5</ele><time>2026-04-12T04:12:37.003Z</time></trkpt><trkpt lat="-31.560282556080654" lon="115.75719775913096"><ele>67.0</ele><time>2026-04-12T04:12:38.003Z</time></trkpt><trkpt lat="-31.56004704861288" lon="115.75712872539144"><ele>67.0</ele><time>2026-04-12T04:12:39.003Z</time></trkpt><trkpt lat="-31.559813870508982" lon="115.75705846833418"><ele>67.0</ele><time>2026-04-12T04:12:40.003Z</time></trkpt><trkpt lat="-31.559585060311505" lon="115.75698951780304"><ele>67.0</ele><time>2026-04-12T04:12:41.003Z</time></trkpt><trkpt lat="-31.55935377974208" lon="115.756921702599"><ele>67.0</ele><time>2026-04-12T04:12:42.003Z</time></trkpt><trkpt lat="-31.559127024155842" lon="115.75685971784208"><ele>66.5</ele><time>2026-04-12T04:12:43.003Z</time></trkpt><trkpt lat="-31.55889789013215" lon="115.75679241698941"><ele>66.0</ele><time>2026-04-12T04:12:44.003Z</time></trkpt><trkpt lat="-31.55866886072909" lon="115.75672623825734"><ele>64.0</ele><time>2026-04-12T04:12:45.003Z</time></trkpt><trkpt lat="-31.55844107587877" lon="115.75666008400216"><ele>62.0</ele><time>2026-04-12T04:12:46.003Z</time></trkpt><trkpt lat="-31.55821308642832" lon="115.75659324711201"><ele>62.0</ele><time>2026-04-12T04:12:47.003Z</time></trkpt><trkpt lat="-31.557984732993393" lon="115.75652601034496"><ele>62.0</ele><time>2026-04-12T04:12:48.003Z</time></trkpt><trkpt lat="-31.55777020365331" lon="115.75645964047294"><ele>61.5</ele><time>2026-04-12T04:12:49.003Z</time></trkpt><trkpt lat="-31.557542555179168" lon="115.75638912564659"><ele>61.0</ele><time>2026-04-12T04:12:50.003Z</time></trkpt><trkpt lat="-31.557319844605207" lon="115.75632630762712"><ele>61.0</ele><time>2026-04-12T04:12:51.003Z</time></trkpt><trkpt lat="-31.557097504052358" lon="115.75626531454412"><ele>61.0</ele><time>2026-04-12T04:12:52.003Z</time></trkpt><trkpt lat="-31.556877342197023" lon="115.75620270926954"><ele>61.5</ele><time>2026-04-12T04:12:53.003Z</time></trkpt><trkpt lat="-31.556651167004333" lon="115.7561339163529"><ele>62.0</ele><time>2026-04-12T04:12:54.003Z</time></trkpt><trkpt lat="-31.556424886858487" lon="115.75606794640488"><ele>61.5</ele><time>2026-04-12T04:12:55.003Z</time></trkpt><trkpt lat="-31.556199248965555" lon="115.75600620165919"><ele>61.0</ele><time>2026-04-12T04:12:56.003Z</time></trkpt><trkpt lat="-31.55597277968549" lon="115.75594488329865"><ele>61.0</ele><time>2026-04-12T04:12:57.003Z</time></trkpt><trkpt lat="-31.555752595045433" lon="115.75588285374884"><ele>61.0</ele><time>2026-04-12T04:12:58.003Z</time></trkpt><trkpt lat="-31.55551949513996" lon="115.75581542763769"><ele>61.0</ele><time>2026-04-12T04:12:59.002Z</time></trkpt><trkpt lat="-31.55529844969702" lon="115.75575417044531"><ele>61.0</ele><time>2026-04-12T04:13:00.002Z</time></trkpt><trkpt lat="-31.555074808407344" lon="115.7556899423132"><ele>61.0</ele><time>2026-04-12T04:13:01.002Z</time></trkpt><trkpt lat="-31.55485083030541" lon="115.75562589755147"><ele>61.0</ele><time>2026-04-12T04:13:02.002Z</time></trkpt><trkpt lat="-31.554621782549024" lon="115.75556021582125"><ele>59.5</ele><time>2026-04-12T04:13:03.002Z</time></trkpt><trkpt lat="-31.554388689051912" lon="115.7554933337432"><ele>58.0</ele><time>2026-04-12T04:13:04.002Z</time></trkpt><trkpt lat="-31.554156454372627" lon="115.75542178898289"><ele>58.0</ele><time>2026-04-12T04:13:05.002Z</time></trkpt><trkpt lat="-31.55392623711979" lon="115.75534732067172"><ele>58.0</ele><time>2026-04-12T04:13:06.002Z</time></trkpt><trkpt lat="-31.553689686740178" lon="115.75526961415312"><ele>60.5</ele><time>2026-04-12T04:13:07.002Z</time></trkpt><trkpt lat="-31.553453530553636" lon="115.75519826626972"><ele>63.0</ele><time>2026-04-12T04:13:08.002Z</time></trkpt><trkpt lat="-31.553231751705326" lon="115.75513178068825"><ele>63.0</ele><time>2026-04-12T04:13:09.002Z</time></trkpt><trkpt lat="-31.553000741015403" lon="115.75506210528498"><ele>63.0</ele><time>2026-04-12T04:13:10.002Z</time></trkpt><trkpt lat="-31.552772638346916" lon="115.75499644639491"><ele>62.0</ele><time>2026-04-12T04:13:11.002Z</time></trkpt><trkpt lat="-31.552542934824082" lon="115.75492909245837"><ele>61.0</ele><time>2026-04-12T04:13:12.002Z</time></trkpt><trkpt lat="-31.552312392054855" lon="115.75485912792718"><ele>61.0</ele><time>2026-04-12T04:13:13.002Z</time></trkpt><trkpt lat="-31.552092218092472" lon="115.75480138725393"><ele>61.0</ele><time>2026-04-12T04:13:14.002Z</time></trkpt><trkpt lat="-31.551881791167954" lon="115.75475633987082"><ele>61.0</ele><time>2026-04-12T04:13:15.002Z</time></trkpt><trkpt lat="-31.551669086163383" lon="115.75473307073746"><ele>60.5</ele><time>2026-04-12T04:13:16.002Z</time></trkpt><trkpt lat="-31.551437711303222" lon="115.75472535278436"><ele>60.0</ele><time>2026-04-12T04:13:17.002Z</time></trkpt><trkpt lat="-31.55119658988492" lon="115.7547300658342"><ele>58.0</ele><time>2026-04-12T04:13:18.002Z</time></trkpt><trkpt lat="-31.550952538180013" lon="115.75473597646324"><ele>56.0</ele><time>2026-04-12T04:13:19.002Z</time></trkpt><trkpt lat="-31.550701875953692" lon="115.75473995729614"><ele>56.0</ele><time>2026-04-12T04:13:20.002Z</time></trkpt><trkpt lat="-31.550451761683256" lon="115.7547451682975"><ele>56.0</ele><time>2026-04-12T04:13:21.002Z</time></trkpt><trkpt lat="-31.550210195632705" lon="115.75474606219902"><ele>57.0</ele><time>2026-04-12T04:13:22.002Z</time></trkpt><trkpt lat="-31.549970645162496" lon="115.75474600737371"><ele>58.0</ele><time>2026-04-12T04:13:23.002Z</time></trkpt><trkpt lat="-31.549728752950365" lon="115.7547495079614"><ele>58.33333333333333</ele><time>2026-04-12T04:13:24.002Z</time></trkpt><trkpt lat="-31.549501016275325" lon="115.75475149936335"><ele>58.66666666666667</ele><time>2026-04-12T04:13:25.002Z</time></trkpt><trkpt lat="-31.54927955290288" lon="115.75475127108088"><ele>59.0</ele><time>2026-04-12T04:13:26.002Z</time></trkpt><trkpt lat="-31.54906091434518" lon="115.75474900850426"><ele>59.0</ele><time>2026-04-12T04:13:27.002Z</time></trkpt><trkpt lat="-31.54883718688049" lon="115.75474348356242"><ele>59.0</ele><time>2026-04-12T04:13:28.002Z</time></trkpt><trkpt lat="-31.548610651295995" lon="115.75473882021993"><ele>59.5</ele><time>2026-04-12T04:13:29.002Z</time></trkpt><trkpt lat="-31.54838009657336" lon="115.75473907955897"><ele>60.0</ele><time>2026-04-12T04:13:30.002Z</time></trkpt><trkpt lat="-31.548140142702948" lon="115.75474192719759"><ele>60.0</ele><time>2026-04-12T04:13:31.002Z</time></trkpt><trkpt lat="-31.547905847707387" lon="115.7547494767483"><ele>60.0</ele><time>2026-04-12T04:13:32.002Z</time></trkpt><trkpt lat="-31.547681712391718" lon="115.75474788754566"><ele>60.0</ele><time>2026-04-12T04:13:33.002Z</time></trkpt><trkpt lat="-31.54746413242995" lon="115.75473741324296"><ele>60.0</ele><time>2026-04-12T04:13:34.002Z</time></trkpt><trkpt lat="-31.54725418989165" lon="115.75473081842092"><ele>60.0</ele><time>2026-04-12T04:13:35.002Z</time></trkpt><trkpt lat="-31.54705022388609" lon="115.75473052531072"><ele>60.66666666666667</ele><time>2026-04-12T04:13:36.002Z</time></trkpt><trkpt lat="-31.546834038975316" lon="115.75472742813118"><ele>61.333333333333336</ele><time>2026-04-12T04:13:37.003Z</time></trkpt><trkpt lat="-31.546626175799673" lon="115.7547164364009"><ele>62.0</ele><time>2026-04-12T04:13:38.003Z</time></trkpt><trkpt lat="-31.546423459849354" lon="115.75470963568316"><ele>62.333333333333336</ele><time>2026-04-12T04:13:39.003Z</time></trkpt><trkpt lat="-31.546211059210645" lon="115.75470740817632"><ele>62.66666666666667</ele><time>2026-04-12T04:13:40.003Z</time></trkpt><trkpt lat="-31.545988947815374" lon="115.75471047988685"><ele>63.0</ele><time>2026-04-12T04:13:41.003Z</time></trkpt><trkpt lat="-31.54576385104259" lon="115.75471197635483"><ele>63.0</ele><time>2026-04-12T04:13:42.003Z</time></trkpt><trkpt lat="-31.54553816000751" lon="115.75470867949868"><ele>63.0</ele><time>2026-04-12T04:13:43.003Z</time></trkpt><trkpt lat="-31.54531046681356" lon="115.75470477148012"><ele>63.0</ele><time>2026-04-12T04:13:44.003Z</time></trkpt><trkpt lat="-31.54508365079461" lon="115.75470231063345"><ele>63.0</ele><time>2026-04-12T04:13:45.003Z</time></trkpt><trkpt lat="-31.544858363281985" lon="115.75470219114553"><ele>63.0</ele><time>2026-04-12T04:13:46.003Z</time></trkpt><trkpt lat="-31.54463625230879" lon="115.7546978878022"><ele>63.0</ele><time>2026-04-12T04:13:47.003Z</time></trkpt><trkpt lat="-31.544423634882225" lon="115.75469847850503"><ele>63.0</ele><time>2026-04-12T04:13:48.003Z</time></trkpt><trkpt lat="-31.544214830328144" lon="115.75469788922327"><ele>63.33333333333333</ele><time>2026-04-12T04:13:49.003Z</time></trkpt><trkpt lat="-31.544008042157973" lon="115.75466711776676"><ele>63.666666666666664</ele><time>2026-04-12T04:13:50.003Z</time></trkpt><trkpt lat="-31.54379185203171" lon="115.75466477953057"><ele>64.0</ele><time>2026-04-12T04:13:51.003Z</time></trkpt><trkpt lat="-31.5435690878564" lon="115.75466260647872"><ele>65.0</ele><time>2026-04-12T04:13:52.003Z</time></trkpt><trkpt lat="-31.54334269382963" lon="115.75465905038428"><ele>66.0</ele><time>2026-04-12T04:13:53.003Z</time></trkpt><trkpt lat="-31.543107614906454" lon="115.75465552269753"><ele>64.5</ele><time>2026-04-12T04:13:54.003Z</time></trkpt><trkpt lat="-31.542865101427267" lon="115.75465167973552"><ele>63.0</ele><time>2026-04-12T04:13:55.003Z</time></trkpt><trkpt lat="-31.542624232389866" lon="115.75464661474193"><ele>63.0</ele><time>2026-04-12T04:13:56.003Z</time></trkpt><trkpt lat="-31.542389183767508" lon="115.75464152851164"><ele>63.0</ele><time>2026-04-12T04:13:57.003Z</time></trkpt><trkpt lat="-31.54215700369795" lon="115.75465629052864"><ele>60.0</ele><time>2026-04-12T04:13:58.003Z</time></trkpt><trkpt lat="-31.54192489180921" lon="115.75465383370351"><ele>57.0</ele><time>2026-04-12T04:13:59.003Z</time></trkpt><trkpt lat="-31.54170364870412" lon="115.75464906669609"><ele>57.0</ele><time>2026-04-12T04:14:00.003Z</time></trkpt><trkpt lat="-31.541484349881255" lon="115.7546403718786"><ele>57.0</ele><time>2026-04-12T04:14:01.003Z</time></trkpt><trkpt lat="-31.54126456198927" lon="115.75463823780096"><ele>57.0</ele><time>2026-04-12T04:14:02.003Z</time></trkpt><trkpt lat="-31.541053373253053" lon="115.75463965874414"><ele>56.33333333333333</ele><time>2026-04-12T04:14:03.003Z</time></trkpt><trkpt lat="-31.540845469787765" lon="115.75463268943855"><ele>55.666666666666664</ele><time>2026-04-12T04:14:04.003Z</time></trkpt><trkpt lat="-31.540623655155244" lon="115.75462461882022"><ele>55.0</ele><time>2026-04-12T04:14:05.003Z</time></trkpt><trkpt lat="-31.540407384729587" lon="115.7546219510883"><ele>56.0</ele><time>2026-04-12T04:14:06.003Z</time></trkpt><trkpt lat="-31.54018956495986" lon="115.75462172448344"><ele>57.0</ele><time>2026-04-12T04:14:07.003Z</time></trkpt><trkpt lat="-31.53997655245457" lon="115.75459853062691"><ele>58.0</ele><time>2026-04-12T04:14:08.003Z</time></trkpt><trkpt lat="-31.53976581566075" lon="115.75461316247095"><ele>58.0</ele><time>2026-04-12T04:14:09.003Z</time></trkpt><trkpt lat="-31.539557871527727" lon="115.75460739746066"><ele>58.0</ele><time>2026-04-12T04:14:10.003Z</time></trkpt><trkpt lat="-31.539352522300213" lon="115.75460059329018"><ele>58.0</ele><time>2026-04-12T04:14:11.003Z</time></trkpt><trkpt lat="-31.539143763067923" lon="115.7545950557467"><ele>58.0</ele><time>2026-04-12T04:14:12.003Z</time></trkpt><trkpt lat="-31.538931683960246" lon="115.75458759745013"><ele>58.0</ele><time>2026-04-12T04:14:13.003Z</time></trkpt><trkpt lat="-31.538716165696297" lon="115.75457901748615"><ele>58.0</ele><time>2026-04-12T04:14:14.003Z</time></trkpt><trkpt lat="-31.538506623986336" lon="115.75457540387052"><ele>58.0</ele><time>2026-04-12T04:14:15.003Z</time></trkpt><trkpt lat="-31.538313933075763" lon="115.7545779081969"><ele>58.0</ele><time>2026-04-12T04:14:16.003Z</time></trkpt><trkpt lat="-31.538095449736275" lon="115.75456479951869"><ele>58.0</ele><time>2026-04-12T04:14:17.003Z</time></trkpt><trkpt lat="-31.53789921482288" lon="115.75456325090587"><ele>58.0</ele><time>2026-04-12T04:14:18.003Z</time></trkpt><trkpt lat="-31.537683634430646" lon="115.75455519514158"><ele>58.0</ele><time>2026-04-12T04:14:19.003Z</time></trkpt><trkpt lat="-31.53747442152838" lon="115.75455059558867"><ele>58.0</ele><time>2026-04-12T04:14:20.003Z</time></trkpt><trkpt lat="-31.537257437019534" lon="115.75453948383894"><ele>58.33333333333333</ele><time>2026-04-12T04:14:21.003Z</time></trkpt><trkpt lat="-31.537036791816238" lon="115.75453730705546"><ele>58.66666666666667</ele><time>2026-04-12T04:14:22.003Z</time></trkpt><trkpt lat="-31.536816122497445" lon="115.75453397004125"><ele>59.0</ele><time>2026-04-12T04:14:23.003Z</time></trkpt><trkpt lat="-31.536601610435145" lon="115.75452873646992"><ele>59.0</ele><time>2026-04-12T04:14:24.003Z</time></trkpt><trkpt lat="-31.5363930036123" lon="115.75452588324997"><ele>59.0</ele><time>2026-04-12T04:14:25.003Z</time></trkpt><trkpt lat="-31.536185076722244" lon="115.75451852057421"><ele>59.0</ele><time>2026-04-12T04:14:26.003Z</time></trkpt><trkpt lat="-31.53599008495448" lon="115.75451665192874"><ele>60.0</ele><time>2026-04-12T04:14:27.003Z</time></trkpt><trkpt lat="-31.535781490272456" lon="115.75450648121928"><ele>61.0</ele><time>2026-04-12T04:14:28.003Z</time></trkpt><trkpt lat="-31.535573941176757" lon="115.75449822095202"><ele>62.0</ele><time>2026-04-12T04:14:29.003Z</time></trkpt><trkpt lat="-31.53537222242702" lon="115.75449369979913"><ele>62.333333333333336</ele><time>2026-04-12T04:14:30.003Z</time></trkpt><trkpt lat="-31.535170307363757" lon="115.75449822307304"><ele>62.66666666666667</ele><time>2026-04-12T04:14:31.003Z</time></trkpt><trkpt lat="-31.534967124770233" lon="115.75449854314819"><ele>63.0</ele><time>2026-04-12T04:14:32.003Z</time></trkpt><trkpt lat="-31.534793414394137" lon="115.75449542274094"><ele>63.0</ele><time>2026-04-12T04:14:33.003Z</time></trkpt><trkpt lat="-31.534631225710417" lon="115.7544999511058"><ele>63.0</ele><time>2026-04-12T04:14:34.003Z</time></trkpt><trkpt lat="-31.53447996371224" lon="115.75449937339692"><ele>63.0</ele><time>2026-04-12T04:14:35.003Z</time></trkpt><trkpt lat="-31.534337411546545" lon="115.7544784494"><ele>62.599999999999994</ele><time>2026-04-12T04:14:36.003Z</time></trkpt><trkpt lat="-31.534211660451515" lon="115.75447564106373"><ele>62.199999999999996</ele><time>2026-04-12T04:14:37.003Z</time></trkpt><trkpt lat="-31.53411180888238" lon="115.75447341112394"><ele>61.8</ele><time>2026-04-12T04:14:38.003Z</time></trkpt><trkpt lat="-31.53403087993972" lon="115.75447160378064"><ele>61.4</ele><time>2026-04-12T04:14:39.003Z</time></trkpt><trkpt lat="-31.53392819033104" lon="115.754469310464"><ele>61.0</ele><time>2026-04-12T04:14:41.003Z</time></trkpt><trkpt lat="-31.533856970690948" lon="115.7544677199287"><ele>61.0</ele><time>2026-04-12T04:14:43.003Z</time></trkpt><trkpt lat="-31.533806065674888" lon="115.75466600462552"><ele>61.0</ele><time>2026-04-12T04:14:45.003Z</time></trkpt><trkpt lat="-31.533794498503195" lon="115.7547551603528"><ele>61.0</ele><time>2026-04-12T04:15:12.002Z</time></trkpt><trkpt lat="-31.53377003261783" lon="115.75489374755466"><ele>61.0</ele><time>2026-04-12T04:15:14.002Z</time></trkpt><trkpt lat="-31.533746878496157" lon="115.75500065270194"><ele>61.0</ele><time>2026-04-12T04:15:15.002Z</time></trkpt><trkpt lat="-31.5337222568328" lon="115.75511457730062"><ele>61.0</ele><time>2026-04-12T04:15:16.002Z</time></trkpt><trkpt lat="-31.5336948015271" lon="115.75524957803628"><ele>61.0</ele><time>2026-04-12T04:15:17.002Z</time></trkpt><trkpt lat="-31.533658204951227" lon="115.75540783855953"><ele>61.0</ele><time>2026-04-12T04:15:18.002Z</time></trkpt><trkpt lat="-31.533611670063486" lon="115.75558115398766"><ele>62.33333333333333</ele><time>2026-04-12T04:15:19.002Z</time></trkpt><trkpt lat="-31.533558023094276" lon="115.75576981998186"><ele>63.66666666666667</ele><time>2026-04-12T04:15:20.002Z</time></trkpt><trkpt lat="-31.533502130497787" lon="115.75597826951791"><ele>65.0</ele><time>2026-04-12T04:15:21.002Z</time></trkpt><trkpt lat="-31.533450460056077" lon="115.75617256682078"><ele>65.0</ele><time>2026-04-12T04:15:22.002Z</time></trkpt><trkpt lat="-31.533399322858784" lon="115.75638021255506"><ele>65.0</ele><time>2026-04-12T04:15:23.002Z</time></trkpt><trkpt lat="-31.533341720484433" lon="115.75660612389893"><ele>65.0</ele><time>2026-04-12T04:15:24.002Z</time></trkpt><trkpt lat="-31.53328250068039" lon="115.75683837799232"><ele>64.0</ele><time>2026-04-12T04:15:25.002Z</time></trkpt><trkpt lat="-31.53322278597227" lon="115.75708032426648"><ele>63.0</ele><time>2026-04-12T04:15:26.002Z</time></trkpt><trkpt lat="-31.533165355456877" lon="115.75731845445722"><ele>62.0</ele><time>2026-04-12T04:15:27.002Z</time></trkpt><trkpt lat="-31.53310774225241" lon="115.75755921118592"><ele>62.333333333333336</ele><time>2026-04-12T04:15:28.002Z</time></trkpt><trkpt lat="-31.533053107744657" lon="115.75780185847994"><ele>62.66666666666667</ele><time>2026-04-12T04:15:29.002Z</time></trkpt><trkpt lat="-31.53300099399265" lon="115.75805168885061"><ele>63.0</ele><time>2026-04-12T04:15:30.002Z</time></trkpt><trkpt lat="-31.532948625616328" lon="115.75829532469562"><ele>63.0</ele><time>2026-04-12T04:15:31.002Z</time></trkpt><trkpt lat="-31.532895104559508" lon="115.75852915802699"><ele>63.0</ele><time>2026-04-12T04:15:32.002Z</time></trkpt><trkpt lat="-31.532844132291135" lon="115.75877297679399"><ele>63.0</ele><time>2026-04-12T04:15:33.002Z</time></trkpt><trkpt lat="-31.532793063192525" lon="115.75903197722613"><ele>63.0</ele><time>2026-04-12T04:15:34.002Z</time></trkpt><trkpt lat="-31.53274077500053" lon="115.75928914893882"><ele>63.0</ele><time>2026-04-12T04:15:35.002Z</time></trkpt><trkpt lat="-31.532688541341624" lon="115.7595441673113"><ele>63.0</ele><time>2026-04-12T04:15:36.002Z</time></trkpt><trkpt lat="-31.532638889603547" lon="115.75979891676585"><ele>63.33333333333333</ele><time>2026-04-12T04:15:37.002Z</time></trkpt><trkpt lat="-31.532591861103032" lon="115.76004764802859"><ele>63.666666666666664</ele><time>2026-04-12T04:15:38.002Z</time></trkpt><trkpt lat="-31.532544735323643" lon="115.76029679327583"><ele>64.0</ele><time>2026-04-12T04:15:39.002Z</time></trkpt><trkpt lat="-31.532502474733466" lon="115.76054713664278"><ele>63.33333333333333</ele><time>2026-04-12T04:15:40.002Z</time></trkpt><trkpt lat="-31.532463209836685" lon="115.76079965267509"><ele>62.66666666666667</ele><time>2026-04-12T04:15:41.002Z</time></trkpt><trkpt lat="-31.532422630201925" lon="115.76105401552067"><ele>62.0</ele><time>2026-04-12T04:15:42.002Z</time></trkpt><trkpt lat="-31.532377935655074" lon="115.76131200520939"><ele>62.0</ele><time>2026-04-12T04:15:43.002Z</time></trkpt><trkpt lat="-31.532331070480314" lon="115.76156945479796"><ele>62.0</ele><time>2026-04-12T04:15:44.002Z</time></trkpt><trkpt lat="-31.532284523903922" lon="115.76183156216302"><ele>61.5</ele><time>2026-04-12T04:15:45.002Z</time></trkpt><trkpt lat="-31.53224117088372" lon="115.76209154149785"><ele>61.0</ele><time>2026-04-12T04:15:46.002Z</time></trkpt><trkpt lat="-31.53219437612044" lon="115.76235270200874"><ele>61.0</ele><time>2026-04-12T04:15:47.002Z</time></trkpt><trkpt lat="-31.53214439848457" lon="115.76261506166773"><ele>61.0</ele><time>2026-04-12T04:15:48.002Z</time></trkpt><trkpt lat="-31.532091683785577" lon="115.7628703587436"><ele>62.5</ele><time>2026-04-12T04:15:49.002Z</time></trkpt><trkpt lat="-31.53203838529528" lon="115.763135249546"><ele>64.0</ele><time>2026-04-12T04:15:50.002Z</time></trkpt><trkpt lat="-31.531981213251726" lon="115.76340347828189"><ele>65.0</ele><time>2026-04-12T04:15:51.002Z</time></trkpt><trkpt lat="-31.531927503055684" lon="115.76365580149923"><ele>66.0</ele><time>2026-04-12T04:15:52.002Z</time></trkpt><trkpt lat="-31.531871908625426" lon="115.76391648385506"><ele>66.0</ele><time>2026-04-12T04:15:53.002Z</time></trkpt><trkpt lat="-31.531814111742932" lon="115.76418010411143"><ele>66.0</ele><time>2026-04-12T04:15:54.002Z</time></trkpt><trkpt lat="-31.53175895685418" lon="115.76443546534365"><ele>66.5</ele><time>2026-04-12T04:15:55.002Z</time></trkpt><trkpt lat="-31.53170255099552" lon="115.7647007519297"><ele>67.0</ele><time>2026-04-12T04:15:56.002Z</time></trkpt><trkpt lat="-31.531654610695522" lon="115.76495520030309"><ele>68.0</ele><time>2026-04-12T04:15:57.002Z</time></trkpt><trkpt lat="-31.53160985737079" lon="115.76520852994372"><ele>69.0</ele><time>2026-04-12T04:15:58.002Z</time></trkpt><trkpt lat="-31.53156646280034" lon="115.765460690187"><ele>70.0</ele><time>2026-04-12T04:15:59.002Z</time></trkpt><trkpt lat="-31.531535004174682" lon="115.76569868148344"><ele>70.0</ele><time>2026-04-12T04:16:00.002Z</time></trkpt><trkpt lat="-31.531499173194106" lon="115.76594221490991"><ele>70.0</ele><time>2026-04-12T04:16:01.002Z</time></trkpt><trkpt lat="-31.53146403225817" lon="115.76617998276161"><ele>70.0</ele><time>2026-04-12T04:16:02.002Z</time></trkpt><trkpt lat="-31.531433095729618" lon="115.7664089889198"><ele>71.0</ele><time>2026-04-12T04:16:03.002Z</time></trkpt><trkpt lat="-31.531392994442836" lon="115.7666630531505"><ele>72.0</ele><time>2026-04-12T04:16:04.002Z</time></trkpt><trkpt lat="-31.53135924684523" lon="115.76690266305252"><ele>73.0</ele><time>2026-04-12T04:16:05.002Z</time></trkpt><trkpt lat="-31.531324731657143" lon="115.76713032903297"><ele>73.33333333333333</ele><time>2026-04-12T04:16:06.002Z</time></trkpt><trkpt lat="-31.531300927571586" lon="115.76734321466749"><ele>73.66666666666667</ele><time>2026-04-12T04:16:07.002Z</time></trkpt><trkpt lat="-31.531295213596483" lon="115.76755048544501"><ele>74.0</ele><time>2026-04-12T04:16:08.002Z</time></trkpt><trkpt lat="-31.53130350763522" lon="115.76774968673084"><ele>72.33333333333334</ele><time>2026-04-12T04:16:09.002Z</time></trkpt><trkpt lat="-31.531328604723843" lon="115.76793561000626"><ele>70.66666666666667</ele><time>2026-04-12T04:16:10.002Z</time></trkpt><trkpt lat="-31.531368077254132" lon="115.76811619050503"><ele>69.0</ele><time>2026-04-12T04:16:11.002Z</time></trkpt><trkpt lat="-31.531425805794633" lon="115.76830833440167"><ele>69.0</ele><time>2026-04-12T04:16:12.002Z</time></trkpt><trkpt lat="-31.531503475492105" lon="115.76851609887885"><ele>69.0</ele><time>2026-04-12T04:16:13.002Z</time></trkpt><trkpt lat="-31.531584607202692" lon="115.76870980578616"><ele>69.0</ele><time>2026-04-12T04:16:14.002Z</time></trkpt><trkpt lat="-31.531680981426405" lon="115.76891952516253"><ele>69.0</ele><time>2026-04-12T04:16:15.002Z</time></trkpt><trkpt lat="-31.531791797052797" lon="115.76913491960043"><ele>69.0</ele><time>2026-04-12T04:16:16.002Z</time></trkpt><trkpt lat="-31.531903666907024" lon="115.76936007907982"><ele>69.0</ele><time>2026-04-12T04:16:17.002Z</time></trkpt><trkpt lat="-31.532013306458072" lon="115.7695752685228"><ele>70.0</ele><time>2026-04-12T04:16:18.002Z</time></trkpt><trkpt lat="-31.532123518110815" lon="115.7697974031086"><ele>71.0</ele><time>2026-04-12T04:16:19.002Z</time></trkpt><trkpt lat="-31.532234224347697" lon="115.7700276412012"><ele>72.0</ele><time>2026-04-12T04:16:20.002Z</time></trkpt><trkpt lat="-31.532335549361" lon="115.77024934137442"><ele>72.0</ele><time>2026-04-12T04:16:21.002Z</time></trkpt><trkpt lat="-31.5324399710314" lon="115.77046393832775"><ele>72.0</ele><time>2026-04-12T04:16:22.002Z</time></trkpt><trkpt lat="-31.532546455105585" lon="115.77067483161586"><ele>72.0</ele><time>2026-04-12T04:16:23.002Z</time></trkpt><trkpt lat="-31.53265619482983" lon="115.77089137350693"><ele>72.33333333333333</ele><time>2026-04-12T04:16:24.002Z</time></trkpt><trkpt lat="-31.53276533956053" lon="115.77111530296058"><ele>72.66666666666666</ele><time>2026-04-12T04:16:25.002Z</time></trkpt><trkpt lat="-31.53287859313681" lon="115.77134162108617"><ele>73.0</ele><time>2026-04-12T04:16:26.002Z</time></trkpt><trkpt lat="-31.532988504194474" lon="115.77156606104943"><ele>75.33333333333333</ele><time>2026-04-12T04:16:27.002Z</time></trkpt><trkpt lat="-31.533094202421267" lon="115.77179529132738"><ele>77.66666666666667</ele><time>2026-04-12T04:16:28.002Z</time></trkpt><trkpt lat="-31.533188231143384" lon="115.77200840468772"><ele>80.0</ele><time>2026-04-12T04:16:29.002Z</time></trkpt><trkpt lat="-31.53327586150655" lon="115.77220690768267"><ele>81.0</ele><time>2026-04-12T04:16:30.002Z</time></trkpt><trkpt lat="-31.5333662926511" lon="115.77239292523498"><ele>82.0</ele><time>2026-04-12T04:16:31.002Z</time></trkpt><trkpt lat="-31.533454326905556" lon="115.77257197862397"><ele>83.0</ele><time>2026-04-12T04:16:32.003Z</time></trkpt><trkpt lat="-31.533540066403734" lon="115.77274905985018"><ele>83.0</ele><time>2026-04-12T04:16:33.003Z</time></trkpt><trkpt lat="-31.533624610815625" lon="115.77292367458303"><ele>83.0</ele><time>2026-04-12T04:16:34.003Z</time></trkpt><trkpt lat="-31.533714236050816" lon="115.77310439287423"><ele>83.0</ele><time>2026-04-12T04:16:35.003Z</time></trkpt><trkpt lat="-31.533804297615646" lon="115.77329967261636"><ele>83.0</ele><time>2026-04-12T04:16:36.003Z</time></trkpt><trkpt lat="-31.533881188237057" lon="115.77349257599552"><ele>83.0</ele><time>2026-04-12T04:16:37.003Z</time></trkpt><trkpt lat="-31.533941630582525" lon="115.77370985610432"><ele>83.0</ele><time>2026-04-12T04:16:38.003Z</time></trkpt><trkpt lat="-31.53400544868483" lon="115.77393718237748"><ele>80.0</ele><time>2026-04-12T04:16:39.003Z</time></trkpt><trkpt lat="-31.53407125276521" lon="115.77417349141749"><ele>77.0</ele><time>2026-04-12T04:16:40.003Z</time></trkpt><trkpt lat="-31.534139385562654" lon="115.77439582179085"><ele>74.0</ele><time>2026-04-12T04:16:41.003Z</time></trkpt><trkpt lat="-31.534198990628003" lon="115.77461858300038"><ele>72.33333333333334</ele><time>2026-04-12T04:16:42.003Z</time></trkpt><trkpt lat="-31.534258004755802" lon="115.77484733965505"><ele>70.66666666666667</ele><time>2026-04-12T04:16:43.003Z</time></trkpt><trkpt lat="-31.534310696778277" lon="115.77507338148455"><ele>69.0</ele><time>2026-04-12T04:16:44.003Z</time></trkpt><trkpt lat="-31.53436417268729" lon="115.77530777161726"><ele>69.0</ele><time>2026-04-12T04:16:45.003Z</time></trkpt><trkpt lat="-31.534425623718636" lon="115.7755417355762"><ele>69.0</ele><time>2026-04-12T04:16:46.003Z</time></trkpt><trkpt lat="-31.53448339294836" lon="115.77578414278041"><ele>69.0</ele><time>2026-04-12T04:16:47.003Z</time></trkpt><trkpt lat="-31.534543979056686" lon="115.77602085105447"><ele>68.66666666666667</ele><time>2026-04-12T04:16:48.003Z</time></trkpt><trkpt lat="-31.534604099912162" lon="115.77625762108707"><ele>68.33333333333334</ele><time>2026-04-12T04:16:49.002Z</time></trkpt><trkpt lat="-31.534660433328842" lon="115.77648366758699"><ele>68.0</ele><time>2026-04-12T04:16:50.002Z</time></trkpt><trkpt lat="-31.53470679060628" lon="115.77671320709378"><ele>68.66666666666667</ele><time>2026-04-12T04:16:51.002Z</time></trkpt><trkpt lat="-31.534738360086948" lon="115.77693837003658"><ele>69.33333333333333</ele><time>2026-04-12T04:16:52.002Z</time></trkpt><trkpt lat="-31.534762395828317" lon="115.77716347584325"><ele>70.0</ele><time>2026-04-12T04:16:53.002Z</time></trkpt><trkpt lat="-31.53477966605188" lon="115.77737711594237"><ele>70.0</ele><time>2026-04-12T04:16:54.002Z</time></trkpt><trkpt lat="-31.53479183770234" lon="115.77758301131439"><ele>70.0</ele><time>2026-04-12T04:16:55.002Z</time></trkpt><trkpt lat="-31.534797209452258" lon="115.77778054566777"><ele>70.0</ele><time>2026-04-12T04:16:56.002Z</time></trkpt><trkpt lat="-31.534805541089387" lon="115.77796120194057"><ele>71.25</ele><time>2026-04-12T04:16:57.002Z</time></trkpt><trkpt lat="-31.534816466210554" lon="115.7781141747453"><ele>72.5</ele><time>2026-04-12T04:16:58.002Z</time></trkpt><trkpt lat="-31.534819033969857" lon="115.77826075600494"><ele>73.75</ele><time>2026-04-12T04:16:59.002Z</time></trkpt><trkpt lat="-31.534810912592537" lon="115.7783908021723"><ele>75.0</ele><time>2026-04-12T04:17:00.002Z</time></trkpt><trkpt lat="-31.534789090414726" lon="115.77849845141576"><ele>76.0</ele><time>2026-04-12T04:17:01.002Z</time></trkpt><trkpt lat="-31.534753233402316" lon="115.77860035636613"><ele>77.0</ele><time>2026-04-12T04:17:02.002Z</time></trkpt><trkpt lat="-31.53469990096411" lon="115.77868002856407"><ele>78.0</ele><time>2026-04-12T04:17:03.002Z</time></trkpt><trkpt lat="-31.534636171469817" lon="115.77871926182067"><ele>79.0</ele><time>2026-04-12T04:17:04.002Z</time></trkpt><trkpt lat="-31.53451673810293" lon="115.77875667444037"><ele>80.0</ele><time>2026-04-12T04:17:06.002Z</time></trkpt><trkpt lat="-31.53442831655878" lon="115.7787858606786"><ele>80.5</ele><time>2026-04-12T04:17:07.002Z</time></trkpt><trkpt lat="-31.53434474199617" lon="115.77882912317754"><ele>81.0</ele><time>2026-04-12T04:17:08.002Z</time></trkpt><trkpt lat="-31.53425797442758" lon="115.77885389804152"><ele>81.5</ele><time>2026-04-12T04:17:09.002Z</time></trkpt><trkpt lat="-31.53416980825493" lon="115.77888034337818"><ele>82.0</ele><time>2026-04-12T04:17:10.002Z</time></trkpt><trkpt lat="-31.534100674446016" lon="115.77891249967863"><ele>82.5</ele><time>2026-04-12T04:17:11.002Z</time></trkpt><trkpt lat="-31.534036579377705" lon="115.77895058936551"><ele>83.0</ele><time>2026-04-12T04:17:12.002Z</time></trkpt><trkpt lat="-31.53396244743936" lon="115.77900226929023"><ele>83.0</ele><time>2026-04-12T04:17:13.002Z</time></trkpt><trkpt lat="-31.533880916072377" lon="115.77905961700864"><ele>83.0</ele><time>2026-04-12T04:17:14.002Z</time></trkpt><trkpt lat="-31.533801689921876" lon="115.77912824737139"><ele>83.0</ele><time>2026-04-12T04:17:15.002Z</time></trkpt><trkpt lat="-31.533720829208022" lon="115.7792146346617"><ele>83.0</ele><time>2026-04-12T04:17:16.002Z</time></trkpt><trkpt lat="-31.533638561605756" lon="115.77931412848824"><ele>83.0</ele><time>2026-04-12T04:17:17.002Z</time></trkpt><trkpt lat="-31.533562314353805" lon="115.77942244742049"><ele>82.75</ele><time>2026-04-12T04:17:18.002Z</time></trkpt><trkpt lat="-31.533493063557604" lon="115.77954101167774"><ele>82.5</ele><time>2026-04-12T04:17:19.002Z</time></trkpt><trkpt lat="-31.533421464769255" lon="115.77966861158241"><ele>82.25</ele><time>2026-04-12T04:17:20.002Z</time></trkpt><trkpt lat="-31.533346384920545" lon="115.77980747038697"><ele>82.0</ele><time>2026-04-12T04:17:21.002Z</time></trkpt><trkpt lat="-31.533266793584225" lon="115.77996264204506"><ele>82.0</ele><time>2026-04-12T04:17:22.002Z</time></trkpt><trkpt lat="-31.53319085855513" lon="115.78012469599926"><ele>82.0</ele><time>2026-04-12T04:17:23.002Z</time></trkpt><trkpt lat="-31.533113249767254" lon="115.78030960765052"><ele>82.0</ele><time>2026-04-12T04:17:24.002Z</time></trkpt><trkpt lat="-31.53303323411852" lon="115.7805021183587"><ele>82.33333333333333</ele><time>2026-04-12T04:17:25.002Z</time></trkpt><trkpt lat="-31.532958595713396" lon="115.78069227776513"><ele>82.66666666666667</ele><time>2026-04-12T04:17:26.002Z</time></trkpt><trkpt lat="-31.532894824492566" lon="115.78087001340025"><ele>83.0</ele><time>2026-04-12T04:17:27.002Z</time></trkpt><trkpt lat="-31.53284233795613" lon="115.78104554767799"><ele>83.0</ele><time>2026-04-12T04:17:28.002Z</time></trkpt><trkpt lat="-31.532798509257738" lon="115.7812298875445"><ele>83.0</ele><time>2026-04-12T04:17:29.002Z</time></trkpt><trkpt lat="-31.532747743664256" lon="115.78141701324726"><ele>83.0</ele><time>2026-04-12T04:17:30.002Z</time></trkpt><trkpt lat="-31.532698421108485" lon="115.78161120726548"><ele>83.0</ele><time>2026-04-12T04:17:31.002Z</time></trkpt><trkpt lat="-31.532650134145136" lon="115.78179172232423"><ele>83.0</ele><time>2026-04-12T04:17:32.002Z</time></trkpt><trkpt lat="-31.532626528686585" lon="115.78196885802042"><ele>83.0</ele><time>2026-04-12T04:17:33.002Z</time></trkpt><trkpt lat="-31.532583133533798" lon="115.7821468058525"><ele>83.33333333333334</ele><time>2026-04-12T04:17:34.002Z</time></trkpt><trkpt lat="-31.532531829753893" lon="115.78233730240612"><ele>83.66666666666667</ele><time>2026-04-12T04:17:35.002Z</time></trkpt><trkpt lat="-31.53245322103104" lon="115.78253752260153"><ele>84.0</ele><time>2026-04-12T04:17:36.002Z</time></trkpt><trkpt lat="-31.532389826756404" lon="115.78274871373914"><ele>83.0</ele><time>2026-04-12T04:17:37.002Z</time></trkpt><trkpt lat="-31.53232300058162" lon="115.78296023648839"><ele>82.0</ele><time>2026-04-12T04:17:38.002Z</time></trkpt><trkpt lat="-31.53223703680636" lon="115.78316800545008"><ele>81.0</ele><time>2026-04-12T04:17:39.002Z</time></trkpt><trkpt lat="-31.532137711395748" lon="115.78337157982698"><ele>82.0</ele><time>2026-04-12T04:17:40.002Z</time></trkpt><trkpt lat="-31.53201254723967" lon="115.78357367011662"><ele>83.0</ele><time>2026-04-12T04:17:41.002Z</time></trkpt><trkpt lat="-31.531874495411884" lon="115.7837755075957"><ele>84.0</ele><time>2026-04-12T04:17:42.002Z</time></trkpt><trkpt lat="-31.531735762915417" lon="115.78398056469119"><ele>84.0</ele><time>2026-04-12T04:17:43.002Z</time></trkpt><trkpt lat="-31.531604244886953" lon="115.78418699752005"><ele>84.0</ele><time>2026-04-12T04:17:44.002Z</time></trkpt><trkpt lat="-31.531472257602136" lon="115.78439779682265"><ele>84.0</ele><time>2026-04-12T04:17:45.002Z</time></trkpt><trkpt lat="-31.531334146823358" lon="115.78461296279376"><ele>84.66666666666667</ele><time>2026-04-12T04:17:46.002Z</time></trkpt><trkpt lat="-31.531193753701444" lon="115.78481855435085"><ele>85.33333333333334</ele><time>2026-04-12T04:17:47.002Z</time></trkpt><trkpt lat="-31.53104572141963" lon="115.78501698905681"><ele>86.0</ele><time>2026-04-12T04:17:48.002Z</time></trkpt><trkpt lat="-31.530906183885996" lon="115.78521215808698"><ele>86.0</ele><time>2026-04-12T04:17:49.002Z</time></trkpt><trkpt lat="-31.53076412770545" lon="115.78541416165405"><ele>86.0</ele><time>2026-04-12T04:17:50.002Z</time></trkpt><trkpt lat="-31.530621870352917" lon="115.78561843571065"><ele>86.0</ele><time>2026-04-12T04:17:51.002Z</time></trkpt><trkpt lat="-31.530477540403982" lon="115.78581522088824"><ele>87.0</ele><time>2026-04-12T04:17:52.002Z</time></trkpt><trkpt lat="-31.53033757214665" lon="115.78601148573851"><ele>88.0</ele><time>2026-04-12T04:17:53.002Z</time></trkpt><trkpt lat="-31.530202202322755" lon="115.78620328704514"><ele>89.0</ele><time>2026-04-12T04:17:54.002Z</time></trkpt><trkpt lat="-31.530082285460313" lon="115.78637872478623"><ele>89.33333333333334</ele><time>2026-04-12T04:17:55.002Z</time></trkpt><trkpt lat="-31.52996048653088" lon="115.78654912994412"><ele>89.66666666666667</ele><time>2026-04-12T04:17:56.002Z</time></trkpt><trkpt lat="-31.529844392806453" lon="115.78672213944286"><ele>90.0</ele><time>2026-04-12T04:17:57.002Z</time></trkpt><trkpt lat="-31.529716090547783" lon="115.7869083922563"><ele>90.33333333333333</ele><time>2026-04-12T04:17:58.002Z</time></trkpt><trkpt lat="-31.529581498945937" lon="115.78710157806304"><ele>90.66666666666666</ele><time>2026-04-12T04:17:59.002Z</time></trkpt><trkpt lat="-31.529439593307917" lon="115.78730207735218"><ele>91.0</ele><time>2026-04-12T04:18:00.002Z</time></trkpt><trkpt lat="-31.529307020994892" lon="115.78749234451993"><ele>90.33333333333333</ele><time>2026-04-12T04:18:01.002Z</time></trkpt><trkpt lat="-31.529183887517345" lon="115.78767736017507"><ele>89.66666666666667</ele><time>2026-04-12T04:18:02.002Z</time></trkpt><trkpt lat="-31.529074847231684" lon="115.78783665392385"><ele>89.0</ele><time>2026-04-12T04:18:03.002Z</time></trkpt><trkpt lat="-31.528968686658203" lon="115.78799842886698"><ele>89.0</ele><time>2026-04-12T04:18:04.002Z</time></trkpt><trkpt lat="-31.52885446583525" lon="115.78817029007938"><ele>89.0</ele><time>2026-04-12T04:18:05.002Z</time></trkpt><trkpt lat="-31.528729834793552" lon="115.78835726701328"><ele>89.0</ele><time>2026-04-12T04:18:06.002Z</time></trkpt><trkpt lat="-31.52859485404917" lon="115.78854815441954"><ele>89.0</ele><time>2026-04-12T04:18:07.002Z</time></trkpt><trkpt lat="-31.52845812682583" lon="115.78873774432887"><ele>89.0</ele><time>2026-04-12T04:18:08.002Z</time></trkpt><trkpt lat="-31.528316819102717" lon="115.78893731244334"><ele>89.0</ele><time>2026-04-12T04:18:09.002Z</time></trkpt><trkpt lat="-31.528180057663242" lon="115.78913097298819"><ele>89.0</ele><time>2026-04-12T04:18:10.002Z</time></trkpt><trkpt lat="-31.528034456178844" lon="115.78933316393582"><ele>89.0</ele><time>2026-04-12T04:18:11.002Z</time></trkpt><trkpt lat="-31.5278895003722" lon="115.78952483212962"><ele>89.0</ele><time>2026-04-12T04:18:12.002Z</time></trkpt><trkpt lat="-31.52774113675745" lon="115.78972850634796"><ele>89.0</ele><time>2026-04-12T04:18:13.002Z</time></trkpt><trkpt lat="-31.52760072177645" lon="115.78992381244491"><ele>89.0</ele><time>2026-04-12T04:18:14.002Z</time></trkpt><trkpt lat="-31.527461888291683" lon="115.79011798233755"><ele>89.0</ele><time>2026-04-12T04:18:15.002Z</time></trkpt><trkpt lat="-31.5273161257159" lon="115.79030722507214"><ele>89.33333333333334</ele><time>2026-04-12T04:18:16.002Z</time></trkpt><trkpt lat="-31.527180449386847" lon="115.7904956149479"><ele>89.66666666666667</ele><time>2026-04-12T04:18:17.002Z</time></trkpt><trkpt lat="-31.527046706456993" lon="115.7906800279346"><ele>90.0</ele><time>2026-04-12T04:18:18.002Z</time></trkpt><trkpt lat="-31.526914362268858" lon="115.79085836733906"><ele>90.0</ele><time>2026-04-12T04:18:19.002Z</time></trkpt><trkpt lat="-31.526789634909665" lon="115.79102561590747"><ele>90.0</ele><time>2026-04-12T04:18:20.002Z</time></trkpt><trkpt lat="-31.52667699103321" lon="115.79117768061295"><ele>90.0</ele><time>2026-04-12T04:18:21.002Z</time></trkpt><trkpt lat="-31.526564817572094" lon="115.79132317803334"><ele>90.0</ele><time>2026-04-12T04:18:22.002Z</time></trkpt><trkpt lat="-31.526444376072458" lon="115.79148019526038"><ele>90.0</ele><time>2026-04-12T04:18:23.002Z</time></trkpt><trkpt lat="-31.52632570484947" lon="115.79164300440004"><ele>90.0</ele><time>2026-04-12T04:18:24.002Z</time></trkpt><trkpt lat="-31.526196973955656" lon="115.79181508687135"><ele>89.66666666666667</ele><time>2026-04-12T04:18:25.002Z</time></trkpt><trkpt lat="-31.526068339166677" lon="115.79198361973752"><ele>89.33333333333334</ele><time>2026-04-12T04:18:26.002Z</time></trkpt><trkpt lat="-31.525920524099515" lon="115.79217033433628"><ele>89.0</ele><time>2026-04-12T04:18:27.002Z</time></trkpt><trkpt lat="-31.525774547667176" lon="115.79235541886729"><ele>89.0</ele><time>2026-04-12T04:18:28.002Z</time></trkpt><trkpt lat="-31.52562209119942" lon="115.79255022714362"><ele>89.0</ele><time>2026-04-12T04:18:29.002Z</time></trkpt><trkpt lat="-31.525467640544242" lon="115.7927428314675"><ele>88.0</ele><time>2026-04-12T04:18:30.002Z</time></trkpt><trkpt lat="-31.525322615965944" lon="115.79292658291075"><ele>87.0</ele><time>2026-04-12T04:18:31.002Z</time></trkpt><trkpt lat="-31.525171869272402" lon="115.79311378680296"><ele>86.0</ele><time>2026-04-12T04:18:32.002Z</time></trkpt><trkpt lat="-31.525025159727356" lon="115.79330233015592"><ele>86.0</ele><time>2026-04-12T04:18:33.002Z</time></trkpt><trkpt lat="-31.524879034779712" lon="115.79349063147892"><ele>86.0</ele><time>2026-04-12T04:18:34.002Z</time></trkpt><trkpt lat="-31.524747139979382" lon="115.7936702557141"><ele>86.0</ele><time>2026-04-12T04:18:35.002Z</time></trkpt><trkpt lat="-31.524614374029554" lon="115.79386599268082"><ele>86.0</ele><time>2026-04-12T04:18:36.002Z</time></trkpt><trkpt lat="-31.52448718919487" lon="115.7940909364449"><ele>86.0</ele><time>2026-04-12T04:18:37.002Z</time></trkpt><trkpt lat="-31.52436950346975" lon="115.7943299206247"><ele>83.0</ele><time>2026-04-12T04:18:38.002Z</time></trkpt><trkpt lat="-31.52424347138099" lon="115.79457836081701"><ele>80.0</ele><time>2026-04-12T04:18:39.002Z</time></trkpt><trkpt lat="-31.5241324999926" lon="115.79483109355132"><ele>80.0</ele><time>2026-04-12T04:18:40.002Z</time></trkpt><trkpt lat="-31.524027753842304" lon="115.79506330293385"><ele>80.0</ele><time>2026-04-12T04:18:41.002Z</time></trkpt><trkpt lat="-31.52392228478024" lon="115.79529599841489"><ele>80.0</ele><time>2026-04-12T04:18:42.002Z</time></trkpt><trkpt lat="-31.523810474587982" lon="115.79553050862172"><ele>80.5</ele><time>2026-04-12T04:18:43.002Z</time></trkpt><trkpt lat="-31.523698749012006" lon="115.7957702799132"><ele>81.0</ele><time>2026-04-12T04:18:44.002Z</time></trkpt><trkpt lat="-31.523585035598295" lon="115.79600699254402"><ele>83.0</ele><time>2026-04-12T04:18:45.002Z</time></trkpt><trkpt lat="-31.5234729573387" lon="115.79624157468162"><ele>85.0</ele><time>2026-04-12T04:18:46.002Z</time></trkpt><trkpt lat="-31.523364203940226" lon="115.79646845538335"><ele>85.0</ele><time>2026-04-12T04:18:47.002Z</time></trkpt><trkpt lat="-31.523256660340344" lon="115.79668468152154"><ele>85.0</ele><time>2026-04-12T04:18:48.002Z</time></trkpt><trkpt lat="-31.523156701166748" lon="115.7968963248454"><ele>85.0</ele><time>2026-04-12T04:18:49.002Z</time></trkpt><trkpt lat="-31.52306043353928" lon="115.797098411826"><ele>85.0</ele><time>2026-04-12T04:18:50.002Z</time></trkpt><trkpt lat="-31.52297367752093" lon="115.79728153788987"><ele>85.0</ele><time>2026-04-12T04:18:51.002Z</time></trkpt><trkpt lat="-31.52288027110036" lon="115.79747171754568"><ele>85.0</ele><time>2026-04-12T04:18:52.002Z</time></trkpt><trkpt lat="-31.52278949839626" lon="115.79767017410629"><ele>84.66666666666666</ele><time>2026-04-12T04:18:53.002Z</time></trkpt><trkpt lat="-31.52269619870115" lon="115.79787676226857"><ele>84.33333333333333</ele><time>2026-04-12T04:18:54.002Z</time></trkpt><trkpt lat="-31.522603273681742" lon="115.79808365479626"><ele>84.0</ele><time>2026-04-12T04:18:55.001Z</time></trkpt><trkpt lat="-31.52251250554478" lon="115.79827419196837"><ele>84.0</ele><time>2026-04-12T04:18:56.001Z</time></trkpt><trkpt lat="-31.522423666982437" lon="115.79845259714668"><ele>84.0</ele><time>2026-04-12T04:18:57.001Z</time></trkpt><trkpt lat="-31.52232565238539" lon="115.7986259178914"><ele>84.0</ele><time>2026-04-12T04:18:58.001Z</time></trkpt><trkpt lat="-31.52221381973573" lon="115.79878049393679"><ele>83.33333333333333</ele><time>2026-04-12T04:18:59.001Z</time></trkpt><trkpt lat="-31.522089017185543" lon="115.79891275324124"><ele>82.66666666666666</ele><time>2026-04-12T04:19:00.001Z</time></trkpt><trkpt lat="-31.521957566877497" lon="115.7990284780066"><ele>82.0</ele><time>2026-04-12T04:19:01.001Z</time></trkpt><trkpt lat="-31.521814867428553" lon="115.7991310284326"><ele>81.5</ele><time>2026-04-12T04:19:02.001Z</time></trkpt><trkpt lat="-31.521671296186714" lon="115.7992272964781"><ele>81.0</ele><time>2026-04-12T04:19:03.001Z</time></trkpt><trkpt lat="-31.52155065637174" lon="115.7993106408487"><ele>80.5</ele><time>2026-04-12T04:19:04.001Z</time></trkpt><trkpt lat="-31.521444379750477" lon="115.79938057166716"><ele>80.0</ele><time>2026-04-12T04:19:05.001Z</time></trkpt><trkpt lat="-31.521344087690316" lon="115.79942865859995"><ele>79.5</ele><time>2026-04-12T04:19:06.001Z</time></trkpt><trkpt lat="-31.521232399187674" lon="115.79947064750145"><ele>79.0</ele><time>2026-04-12T04:19:07.001Z</time></trkpt><trkpt lat="-31.521108622826812" lon="115.79952125001144"><ele>78.5</ele><time>2026-04-12T04:19:08.001Z</time></trkpt><trkpt lat="-31.520982656317702" lon="115.7995812653131"><ele>78.0</ele><time>2026-04-12T04:19:09.001Z</time></trkpt><trkpt lat="-31.520858302912618" lon="115.7996448581625"><ele>78.0</ele><time>2026-04-12T04:19:10.001Z</time></trkpt><trkpt lat="-31.520738782925736" lon="115.79969632555859"><ele>78.0</ele><time>2026-04-12T04:19:11.001Z</time></trkpt><trkpt lat="-31.52061943907982" lon="115.79971939134303"><ele>78.0</ele><time>2026-04-12T04:19:12.001Z</time></trkpt><trkpt lat="-31.52050566719679" lon="115.79971672732763"><ele>78.0</ele><time>2026-04-12T04:19:13.001Z</time></trkpt><trkpt lat="-31.520381312993944" lon="115.79969582104476"><ele>77.66666666666667</ele><time>2026-04-12T04:19:14.001Z</time></trkpt><trkpt lat="-31.520248663113367" lon="115.79965561693973"><ele>77.33333333333334</ele><time>2026-04-12T04:19:15.001Z</time></trkpt><trkpt lat="-31.520091406680773" lon="115.79960808606326"><ele>77.0</ele><time>2026-04-12T04:19:16.001Z</time></trkpt><trkpt lat="-31.519921662814554" lon="115.79957062339999"><ele>77.0</ele><time>2026-04-12T04:19:17.001Z</time></trkpt><trkpt lat="-31.519746686174795" lon="115.7995412541273"><ele>77.0</ele><time>2026-04-12T04:19:18.001Z</time></trkpt><trkpt lat="-31.51955484965705" lon="115.79951227405844"><ele>77.0</ele><time>2026-04-12T04:19:19.001Z</time></trkpt><trkpt lat="-31.51935494058166" lon="115.79948445832748"><ele>77.33333333333334</ele><time>2026-04-12T04:19:20.001Z</time></trkpt><trkpt lat="-31.519148208160587" lon="115.79946007904176"><ele>77.66666666666667</ele><time>2026-04-12T04:19:21.001Z</time></trkpt><trkpt lat="-31.5189296906857" lon="115.79943874780855"><ele>78.0</ele><time>2026-04-12T04:19:22.001Z</time></trkpt><trkpt lat="-31.518714756750267" lon="115.79941577459122"><ele>78.33333333333333</ele><time>2026-04-12T04:19:23.001Z</time></trkpt><trkpt lat="-31.518509743175468" lon="115.79939097343026"><ele>78.66666666666666</ele><time>2026-04-12T04:19:24.001Z</time></trkpt><trkpt lat="-31.518296601411578" lon="115.79936412598772"><ele>79.0</ele><time>2026-04-12T04:19:25.001Z</time></trkpt><trkpt lat="-31.518079601976915" lon="115.79933709439354"><ele>77.66666666666666</ele><time>2026-04-12T04:19:26.001Z</time></trkpt><trkpt lat="-31.517863639148572" lon="115.79931337305477"><ele>76.33333333333333</ele><time>2026-04-12T04:19:27.001Z</time></trkpt><trkpt lat="-31.5176327811927" lon="115.79929391354823"><ele>75.0</ele><time>2026-04-12T04:19:28.001Z</time></trkpt><trkpt lat="-31.51741741169166" lon="115.79927658424829"><ele>75.0</ele><time>2026-04-12T04:19:29.001Z</time></trkpt><trkpt lat="-31.517193788196874" lon="115.7992597883982"><ele>75.0</ele><time>2026-04-12T04:19:30.001Z</time></trkpt><trkpt lat="-31.516963289455425" lon="115.79924533472031"><ele>74.0</ele><time>2026-04-12T04:19:31.001Z</time></trkpt><trkpt lat="-31.516731849115086" lon="115.79923862320855"><ele>73.0</ele><time>2026-04-12T04:19:32.001Z</time></trkpt><trkpt lat="-31.516497640935313" lon="115.79922827334111"><ele>73.0</ele><time>2026-04-12T04:19:33.001Z</time></trkpt><trkpt lat="-31.516263843573128" lon="115.7992188333261"><ele>73.0</ele><time>2026-04-12T04:19:34.001Z</time></trkpt><trkpt lat="-31.516036753698206" lon="115.79921400365096"><ele>73.0</ele><time>2026-04-12T04:19:35.001Z</time></trkpt><trkpt lat="-31.51580722441702" lon="115.79921522687458"><ele>73.0</ele><time>2026-04-12T04:19:36.001Z</time></trkpt><trkpt lat="-31.51557503116821" lon="115.79921875565502"><ele>72.66666666666666</ele><time>2026-04-12T04:19:37.001Z</time></trkpt><trkpt lat="-31.515356822059598" lon="115.79923426467128"><ele>72.33333333333333</ele><time>2026-04-12T04:19:38.001Z</time></trkpt><trkpt lat="-31.51512895202209" lon="115.79925107440357"><ele>72.0</ele><time>2026-04-12T04:19:39.001Z</time></trkpt><trkpt lat="-31.514920090761382" lon="115.79927162780072"><ele>72.0</ele><time>2026-04-12T04:19:40.001Z</time></trkpt><trkpt lat="-31.51470194556635" lon="115.79928739900038"><ele>72.0</ele><time>2026-04-12T04:19:41.001Z</time></trkpt><trkpt lat="-31.514489065919427" lon="115.79930560215787"><ele>72.0</ele><time>2026-04-12T04:19:42.001Z</time></trkpt><trkpt lat="-31.514269748366353" lon="115.7993316544083"><ele>71.0</ele><time>2026-04-12T04:19:43.001Z</time></trkpt><trkpt lat="-31.514042552271658" lon="115.79936417336741"><ele>70.0</ele><time>2026-04-12T04:19:44.001Z</time></trkpt><trkpt lat="-31.513815201509157" lon="115.79939892148286"><ele>68.66666666666666</ele><time>2026-04-12T04:19:45.001Z</time></trkpt><trkpt lat="-31.51359784649135" lon="115.79943202728109"><ele>67.33333333333333</ele><time>2026-04-12T04:19:46.001Z</time></trkpt><trkpt lat="-31.513387648987045" lon="115.79946754972104"><ele>66.0</ele><time>2026-04-12T04:19:47.001Z</time></trkpt><trkpt lat="-31.51317629162883" lon="115.79950969464791"><ele>66.0</ele><time>2026-04-12T04:19:48.001Z</time></trkpt><trkpt lat="-31.51296745753211" lon="115.79955648477646"><ele>66.0</ele><time>2026-04-12T04:19:49.001Z</time></trkpt><trkpt lat="-31.512761370433104" lon="115.79960193245894"><ele>66.0</ele><time>2026-04-12T04:19:50.001Z</time></trkpt><trkpt lat="-31.512547489581703" lon="115.79964577499157"><ele>67.33333333333333</ele><time>2026-04-12T04:19:51.001Z</time></trkpt><trkpt lat="-31.51233083508792" lon="115.799687574463"><ele>68.66666666666666</ele><time>2026-04-12T04:19:52.001Z</time></trkpt><trkpt lat="-31.5121079009588" lon="115.79972930282148"><ele>70.0</ele><time>2026-04-12T04:19:53.001Z</time></trkpt><trkpt lat="-31.511877949612682" lon="115.79974702323489"><ele>71.5</ele><time>2026-04-12T04:19:54.001Z</time></trkpt><trkpt lat="-31.51165067472045" lon="115.79979557501444"><ele>73.0</ele><time>2026-04-12T04:19:55.001Z</time></trkpt><trkpt lat="-31.511434356829536" lon="115.79985183024898"><ele>72.66666666666666</ele><time>2026-04-12T04:19:56.001Z</time></trkpt><trkpt lat="-31.511233258588867" lon="115.79988228318966"><ele>72.33333333333333</ele><time>2026-04-12T04:19:57.001Z</time></trkpt><trkpt lat="-31.511033876900097" lon="115.7999005943279"><ele>72.0</ele><time>2026-04-12T04:19:58.001Z</time></trkpt><trkpt lat="-31.510831659601696" lon="115.79992315507062"><ele>72.0</ele><time>2026-04-12T04:19:59.001Z</time></trkpt><trkpt lat="-31.510623286260426" lon="115.79993768702356"><ele>72.0</ele><time>2026-04-12T04:20:00.001Z</time></trkpt><trkpt lat="-31.51040850397316" lon="115.79993354290734"><ele>72.0</ele><time>2026-04-12T04:20:01.001Z</time></trkpt><trkpt lat="-31.510197247566886" lon="115.79993915084586"><ele>72.0</ele><time>2026-04-12T04:20:02.001Z</time></trkpt><trkpt lat="-31.509985982128114" lon="115.79993926826346"><ele>72.0</ele><time>2026-04-12T04:20:03.001Z</time></trkpt><trkpt lat="-31.509766632731367" lon="115.7999328917712"><ele>72.0</ele><time>2026-04-12T04:20:04.001Z</time></trkpt><trkpt lat="-31.509537127671212" lon="115.79992019523664"><ele>72.33333333333333</ele><time>2026-04-12T04:20:05.001Z</time></trkpt><trkpt lat="-31.509319660897944" lon="115.79989903279082"><ele>72.66666666666666</ele><time>2026-04-12T04:20:06.001Z</time></trkpt><trkpt lat="-31.509104385778727" lon="115.79986705620627"><ele>73.0</ele><time>2026-04-12T04:20:07.001Z</time></trkpt><trkpt lat="-31.508913097392583" lon="115.79982879916626"><ele>74.0</ele><time>2026-04-12T04:20:08.001Z</time></trkpt><trkpt lat="-31.508732239656723" lon="115.79977630638209"><ele>75.0</ele><time>2026-04-12T04:20:09.001Z</time></trkpt><trkpt lat="-31.50858149087869" lon="115.79972328888016"><ele>76.0</ele><time>2026-04-12T04:20:10.001Z</time></trkpt><trkpt lat="-31.508445961610523" lon="115.7996665224473"><ele>76.0</ele><time>2026-04-12T04:20:11.001Z</time></trkpt><trkpt lat="-31.508328231988774" lon="115.79960505709225"><ele>76.0</ele><time>2026-04-12T04:20:12.001Z</time></trkpt><trkpt lat="-31.508221292306565" lon="115.79953649113844"><ele>76.0</ele><time>2026-04-12T04:20:13.001Z</time></trkpt><trkpt lat="-31.508097282883483" lon="115.79944333955842"><ele>76.0</ele><time>2026-04-12T04:20:14.001Z</time></trkpt><trkpt lat="-31.50796603851153" lon="115.79932676725024"><ele>75.33333333333333</ele><time>2026-04-12T04:20:15.001Z</time></trkpt><trkpt lat="-31.507818280780086" lon="115.79917971777654"><ele>74.66666666666667</ele><time>2026-04-12T04:20:16.001Z</time></trkpt><trkpt lat="-31.507668592289797" lon="115.79902534916768"><ele>74.0</ele><time>2026-04-12T04:20:17.001Z</time></trkpt><trkpt lat="-31.507514407439686" lon="115.79886785730245"><ele>74.0</ele><time>2026-04-12T04:20:18.001Z</time></trkpt><trkpt lat="-31.507359890051944" lon="115.79870619201371"><ele>74.0</ele><time>2026-04-12T04:20:19.001Z</time></trkpt><trkpt lat="-31.507203684988294" lon="115.79854014702127"><ele>74.0</ele><time>2026-04-12T04:20:20.001Z</time></trkpt><trkpt lat="-31.507043735576033" lon="115.79836861689829"><ele>73.66666666666667</ele><time>2026-04-12T04:20:21.001Z</time></trkpt><trkpt lat="-31.506877988124476" lon="115.79818923148444"><ele>73.33333333333333</ele><time>2026-04-12T04:20:22.001Z</time></trkpt><trkpt lat="-31.50671696054315" lon="115.79801697545786"><ele>73.0</ele><time>2026-04-12T04:20:23.001Z</time></trkpt><trkpt lat="-31.50654800862454" lon="115.79783618118215"><ele>73.33333333333333</ele><time>2026-04-12T04:20:24.001Z</time></trkpt><trkpt lat="-31.506389657795648" lon="115.79766706600901"><ele>73.66666666666667</ele><time>2026-04-12T04:20:25.001Z</time></trkpt><trkpt lat="-31.506236184819947" lon="115.79750218601754"><ele>74.0</ele><time>2026-04-12T04:20:26.001Z</time></trkpt><trkpt lat="-31.50609513808748" lon="115.79735089026939"><ele>74.33333333333334</ele><time>2026-04-12T04:20:27.001Z</time></trkpt><trkpt lat="-31.505955378768373" lon="115.79719614432753"><ele>74.66666666666667</ele><time>2026-04-12T04:20:28.001Z</time></trkpt><trkpt lat="-31.50581145417863" lon="115.79704294004863"><ele>75.0</ele><time>2026-04-12T04:20:29.001Z</time></trkpt><trkpt lat="-31.5056611752933" lon="115.7968841283559"><ele>75.33333333333333</ele><time>2026-04-12T04:20:30.001Z</time></trkpt><trkpt lat="-31.505505955129568" lon="115.79671879187282"><ele>75.66666666666666</ele><time>2026-04-12T04:20:31.001Z</time></trkpt><trkpt lat="-31.505342672251853" lon="115.7965453080266"><ele>76.0</ele><time>2026-04-12T04:20:32.001Z</time></trkpt><trkpt lat="-31.505181018028033" lon="115.79637377125411"><ele>76.0</ele><time>2026-04-12T04:20:33.001Z</time></trkpt><trkpt lat="-31.50502729124027" lon="115.7962105333301"><ele>76.0</ele><time>2026-04-12T04:20:34.001Z</time></trkpt><trkpt lat="-31.50487874285668" lon="115.79605180281605"><ele>76.0</ele><time>2026-04-12T04:20:35.001Z</time></trkpt><trkpt lat="-31.504731764863536" lon="115.79589530842792"><ele>74.66666666666666</ele><time>2026-04-12T04:20:36.001Z</time></trkpt><trkpt lat="-31.50459027928215" lon="115.79574134249418"><ele>73.33333333333333</ele><time>2026-04-12T04:20:37.001Z</time></trkpt><trkpt lat="-31.50445105054305" lon="115.79558773062796"><ele>72.0</ele><time>2026-04-12T04:20:38.001Z</time></trkpt><trkpt lat="-31.504324070789764" lon="115.79544846662971"><ele>71.66666666666667</ele><time>2026-04-12T04:20:39.001Z</time></trkpt><trkpt lat="-31.504206811848345" lon="115.79532107338616"><ele>71.33333333333334</ele><time>2026-04-12T04:20:40.001Z</time></trkpt><trkpt lat="-31.504088213577596" lon="115.79519453169536"><ele>71.0</ele><time>2026-04-12T04:20:41.001Z</time></trkpt><trkpt lat="-31.503969745768867" lon="115.79506663692194"><ele>71.0</ele><time>2026-04-12T04:20:42.001Z</time></trkpt><trkpt lat="-31.503850436434714" lon="115.79493791687477"><ele>71.0</ele><time>2026-04-12T04:20:43.001Z</time></trkpt><trkpt lat="-31.503725665071123" lon="115.79480375603754"><ele>71.0</ele><time>2026-04-12T04:20:44.001Z</time></trkpt><trkpt lat="-31.50359363273922" lon="115.7946636309719"><ele>71.33333333333334</ele><time>2026-04-12T04:20:45.001Z</time></trkpt><trkpt lat="-31.503459317394757" lon="115.79452515606823"><ele>71.66666666666667</ele><time>2026-04-12T04:20:46.001Z</time></trkpt><trkpt lat="-31.503316341099286" lon="115.79438360921684"><ele>72.0</ele><time>2026-04-12T04:20:47.001Z</time></trkpt><trkpt lat="-31.50316641914977" lon="115.79424765281367"><ele>72.0</ele><time>2026-04-12T04:20:48.001Z</time></trkpt><trkpt lat="-31.50300866677151" lon="115.79411682190775"><ele>72.0</ele><time>2026-04-12T04:20:49.001Z</time></trkpt><trkpt lat="-31.502831812721308" lon="115.79398686010468"><ele>72.0</ele><time>2026-04-12T04:20:50.001Z</time></trkpt><trkpt lat="-31.502653583862678" lon="115.7938593322977"><ele>73.5</ele><time>2026-04-12T04:20:51.001Z</time></trkpt><trkpt lat="-31.502460747849288" lon="115.79372133875712"><ele>75.0</ele><time>2026-04-12T04:20:52.001Z</time></trkpt><trkpt lat="-31.502255957271984" lon="115.79358147114463"><ele>73.5</ele><time>2026-04-12T04:20:53.001Z</time></trkpt><trkpt lat="-31.502055158540013" lon="115.7934447616784"><ele>72.0</ele><time>2026-04-12T04:20:54.001Z</time></trkpt><trkpt lat="-31.501849187980998" lon="115.79330372901974"><ele>72.0</ele><time>2026-04-12T04:20:55.001Z</time></trkpt><trkpt lat="-31.50165799230579" lon="115.79316033743068"><ele>72.0</ele><time>2026-04-12T04:20:56.001Z</time></trkpt><trkpt lat="-31.501470549483884" lon="115.79300516205387"><ele>72.0</ele><time>2026-04-12T04:20:57.001Z</time></trkpt><trkpt lat="-31.501291008319544" lon="115.79283987329029"><ele>72.0</ele><time>2026-04-12T04:20:58.001Z</time></trkpt><trkpt lat="-31.501118369927266" lon="115.7926712197523"><ele>72.0</ele><time>2026-04-12T04:20:59.001Z</time></trkpt><trkpt lat="-31.500942216217467" lon="115.79249150648492"><ele>72.0</ele><time>2026-04-12T04:21:00.001Z</time></trkpt><trkpt lat="-31.50077465432517" lon="115.79231398322885"><ele>72.0</ele><time>2026-04-12T04:21:01.001Z</time></trkpt><trkpt lat="-31.500612516095064" lon="115.79212462041112"><ele>72.0</ele><time>2026-04-12T04:21:02.001Z</time></trkpt><trkpt lat="-31.50044483348661" lon="115.7919261088626"><ele>71.5</ele><time>2026-04-12T04:21:03.001Z</time></trkpt><trkpt lat="-31.50028106216612" lon="115.79173858006209"><ele>71.0</ele><time>2026-04-12T04:21:04.001Z</time></trkpt><trkpt lat="-31.500120437154433" lon="115.79155628604205"><ele>71.0</ele><time>2026-04-12T04:21:05.001Z</time></trkpt><trkpt lat="-31.499955201450625" lon="115.79136951001678"><ele>71.0</ele><time>2026-04-12T04:21:06.001Z</time></trkpt><trkpt lat="-31.49979822919644" lon="115.79119165884356"><ele>71.0</ele><time>2026-04-12T04:21:07.001Z</time></trkpt><trkpt lat="-31.49963751212895" lon="115.79100989238572"><ele>70.5</ele><time>2026-04-12T04:21:08.001Z</time></trkpt><trkpt lat="-31.499473310017823" lon="115.79082293447937"><ele>70.0</ele><time>2026-04-12T04:21:09.001Z</time></trkpt><trkpt lat="-31.499307314415418" lon="115.79063553744201"><ele>70.0</ele><time>2026-04-12T04:21:10.001Z</time></trkpt><trkpt lat="-31.49913710220904" lon="115.79044314344445"><ele>70.0</ele><time>2026-04-12T04:21:11.001Z</time></trkpt><trkpt lat="-31.49896832070139" lon="115.79025100373319"><ele>71.0</ele><time>2026-04-12T04:21:12.001Z</time></trkpt><trkpt lat="-31.498797655159507" lon="115.79005691659678"><ele>72.0</ele><time>2026-04-12T04:21:13.001Z</time></trkpt><trkpt lat="-31.4986307024087" lon="115.78986602170436"><ele>72.0</ele><time>2026-04-12T04:21:14.001Z</time></trkpt><trkpt lat="-31.498463688726396" lon="115.78967558164868"><ele>72.0</ele><time>2026-04-12T04:21:15.001Z</time></trkpt><trkpt lat="-31.49829805675227" lon="115.78948307947067"><ele>73.0</ele><time>2026-04-12T04:21:16Z</time></trkpt><trkpt lat="-31.498134554757492" lon="115.78929356852558"><ele>74.0</ele><time>2026-04-12T04:21:17Z</time></trkpt><trkpt lat="-31.497972477194217" lon="115.78910487235879"><ele>73.5</ele><time>2026-04-12T04:21:18Z</time></trkpt><trkpt lat="-31.49781378895972" lon="115.78891767171204"><ele>73.0</ele><time>2026-04-12T04:21:19Z</time></trkpt><trkpt lat="-31.49765459329143" lon="115.78872884351443"><ele>73.0</ele><time>2026-04-12T04:21:20Z</time></trkpt><trkpt lat="-31.49748858324832" lon="115.7885601489446"><ele>73.0</ele><time>2026-04-12T04:21:21Z</time></trkpt><trkpt lat="-31.49735310484337" lon="115.7883705880898"><ele>73.0</ele><time>2026-04-12T04:21:22Z</time></trkpt><trkpt lat="-31.497207921984568" lon="115.788198733878"><ele>74.33333333333333</ele><time>2026-04-12T04:21:23Z</time></trkpt><trkpt lat="-31.497067605101265" lon="115.78803152481314"><ele>75.66666666666667</ele><time>2026-04-12T04:21:24Z</time></trkpt><trkpt lat="-31.49692970999427" lon="115.78786784975068"><ele>77.0</ele><time>2026-04-12T04:21:25Z</time></trkpt><trkpt lat="-31.496794693440005" lon="115.78770746271296"><ele>76.0</ele><time>2026-04-12T04:21:26Z</time></trkpt><trkpt lat="-31.496655767374527" lon="115.78754181455876"><ele>75.0</ele><time>2026-04-12T04:21:27Z</time></trkpt><trkpt lat="-31.4965108099814" lon="115.78736986543075"><ele>74.0</ele><time>2026-04-12T04:21:28Z</time></trkpt><trkpt lat="-31.49636818020469" lon="115.7872005093996"><ele>73.0</ele><time>2026-04-12T04:21:29Z</time></trkpt><trkpt lat="-31.496234266586082" lon="115.78704118687779"><ele>72.0</ele><time>2026-04-12T04:21:30Z</time></trkpt><trkpt lat="-31.496109626748172" lon="115.78689356061771"><ele>71.0</ele><time>2026-04-12T04:21:31Z</time></trkpt><trkpt lat="-31.495975711517456" lon="115.7867316772684"><ele>71.0</ele><time>2026-04-12T04:21:32Z</time></trkpt><trkpt lat="-31.495818676098327" lon="115.78654183111021"><ele>71.0</ele><time>2026-04-12T04:21:33Z</time></trkpt><trkpt lat="-31.495657661120102" lon="115.7863471798051"><ele>71.0</ele><time>2026-04-12T04:21:34Z</time></trkpt><trkpt lat="-31.4954616164546" lon="115.78618631242287"><ele>71.0</ele><time>2026-04-12T04:21:35Z</time></trkpt><trkpt lat="-31.495290174480672" lon="115.78598318544735"><ele>69.0</ele><time>2026-04-12T04:21:36Z</time></trkpt><trkpt lat="-31.495127385031893" lon="115.78578601067436"><ele>67.0</ele><time>2026-04-12T04:21:37Z</time></trkpt><trkpt lat="-31.494961960025265" lon="115.7855865873709"><ele>67.0</ele><time>2026-04-12T04:21:38Z</time></trkpt><trkpt lat="-31.494792610758147" lon="115.78538734054014"><ele>67.0</ele><time>2026-04-12T04:21:39Z</time></trkpt><trkpt lat="-31.494631291989613" lon="115.78519540739377"><ele>66.33333333333333</ele><time>2026-04-12T04:21:40Z</time></trkpt><trkpt lat="-31.494477612438263" lon="115.78501215504072"><ele>65.66666666666667</ele><time>2026-04-12T04:21:41Z</time></trkpt><trkpt lat="-31.494323662239182" lon="115.78482820950644"><ele>65.0</ele><time>2026-04-12T04:21:42Z</time></trkpt><trkpt lat="-31.494168364860066" lon="115.78463880206047"><ele>65.0</ele><time>2026-04-12T04:21:43Z</time></trkpt><trkpt lat="-31.49401707203165" lon="115.78445345984377"><ele>65.0</ele><time>2026-04-12T04:21:44Z</time></trkpt><trkpt lat="-31.493864094224225" lon="115.78427202442778"><ele>65.0</ele><time>2026-04-12T04:21:45Z</time></trkpt><trkpt lat="-31.49371549653064" lon="115.78409647568276"><ele>64.66666666666667</ele><time>2026-04-12T04:21:46Z</time></trkpt><trkpt lat="-31.49356658785018" lon="115.78391316936276"><ele>64.33333333333333</ele><time>2026-04-12T04:21:47Z</time></trkpt><trkpt lat="-31.493408748704955" lon="115.78372534145092"><ele>64.0</ele><time>2026-04-12T04:21:48Z</time></trkpt><trkpt lat="-31.49324692467085" lon="115.78353320705129"><ele>63.5</ele><time>2026-04-12T04:21:49Z</time></trkpt><trkpt lat="-31.49308587720392" lon="115.78334349719407"><ele>63.0</ele><time>2026-04-12T04:21:50Z</time></trkpt><trkpt lat="-31.492919813900123" lon="115.7831410733914"><ele>64.0</ele><time>2026-04-12T04:21:51Z</time></trkpt><trkpt lat="-31.492753292519648" lon="115.78294410995989"><ele>65.0</ele><time>2026-04-12T04:21:52Z</time></trkpt><trkpt lat="-31.492580177894084" lon="115.78273766956302"><ele>65.5</ele><time>2026-04-12T04:21:53Z</time></trkpt><trkpt lat="-31.49240844523374" lon="115.78253186294376"><ele>66.0</ele><time>2026-04-12T04:21:54Z</time></trkpt><trkpt lat="-31.492239790746908" lon="115.78233512705526"><ele>65.5</ele><time>2026-04-12T04:21:55Z</time></trkpt><trkpt lat="-31.492075085041186" lon="115.78214363041612"><ele>65.0</ele><time>2026-04-12T04:21:56Z</time></trkpt><trkpt lat="-31.491909654035382" lon="115.78194913976469"><ele>64.0</ele><time>2026-04-12T04:21:57Z</time></trkpt><trkpt lat="-31.491748172224362" lon="115.78174981960649"><ele>63.0</ele><time>2026-04-12T04:21:58Z</time></trkpt><trkpt lat="-31.49159391356604" lon="115.7815562286119"><ele>63.0</ele><time>2026-04-12T04:21:59Z</time></trkpt><trkpt lat="-31.491432229067126" lon="115.78135795225403"><ele>63.0</ele><time>2026-04-12T04:22:00Z</time></trkpt><trkpt lat="-31.491274103597522" lon="115.78116688931009"><ele>63.0</ele><time>2026-04-12T04:22:01Z</time></trkpt><trkpt lat="-31.49110756733617" lon="115.78096211515897"><ele>63.0</ele><time>2026-04-12T04:22:02Z</time></trkpt><trkpt lat="-31.490954603619777" lon="115.78077503767732"><ele>63.0</ele><time>2026-04-12T04:22:03Z</time></trkpt><trkpt lat="-31.490790440377815" lon="115.78057747402917"><ele>63.0</ele><time>2026-04-12T04:22:04Z</time></trkpt><trkpt lat="-31.4906271037937" lon="115.7803893246046"><ele>63.0</ele><time>2026-04-12T04:22:05Z</time></trkpt><trkpt lat="-31.490463123692095" lon="115.7801967162049"><ele>63.0</ele><time>2026-04-12T04:22:06Z</time></trkpt><trkpt lat="-31.49030181200168" lon="115.78000393178124"><ele>62.5</ele><time>2026-04-12T04:22:07Z</time></trkpt><trkpt lat="-31.49014304433699" lon="115.77981005043699"><ele>62.0</ele><time>2026-04-12T04:22:08Z</time></trkpt><trkpt lat="-31.489985509117385" lon="115.77962061426629"><ele>62.0</ele><time>2026-04-12T04:22:09Z</time></trkpt><trkpt lat="-31.48982900057494" lon="115.7794350818084"><ele>62.0</ele><time>2026-04-12T04:22:10Z</time></trkpt><trkpt lat="-31.489662975936323" lon="115.77924505737069"><ele>62.0</ele><time>2026-04-12T04:22:11Z</time></trkpt><trkpt lat="-31.489513208999675" lon="115.77906352264097"><ele>62.0</ele><time>2026-04-12T04:22:12Z</time></trkpt><trkpt lat="-31.489349101454053" lon="115.77886593393005"><ele>62.0</ele><time>2026-04-12T04:22:13Z</time></trkpt><trkpt lat="-31.4891961781907" lon="115.77867942198405"><ele>62.0</ele><time>2026-04-12T04:22:14Z</time></trkpt><trkpt lat="-31.48903021032959" lon="115.77848410907222"><ele>63.5</ele><time>2026-04-12T04:22:15Z</time></trkpt><trkpt lat="-31.488871248019617" lon="115.77829381122797"><ele>65.0</ele><time>2026-04-12T04:22:16Z</time></trkpt><trkpt lat="-31.48870866687476" lon="115.77810085689913"><ele>65.5</ele><time>2026-04-12T04:22:17Z</time></trkpt><trkpt lat="-31.48855035921844" lon="115.77791131500159"><ele>66.0</ele><time>2026-04-12T04:22:18Z</time></trkpt><trkpt lat="-31.488381575549536" lon="115.77771797256912"><ele>65.0</ele><time>2026-04-12T04:22:19Z</time></trkpt><trkpt lat="-31.488214912743253" lon="115.77752555085928"><ele>64.0</ele><time>2026-04-12T04:22:20Z</time></trkpt><trkpt lat="-31.48804559590602" lon="115.7773266657155"><ele>62.5</ele><time>2026-04-12T04:22:21Z</time></trkpt><trkpt lat="-31.487880398319355" lon="115.77712384088446"><ele>61.0</ele><time>2026-04-12T04:22:22Z</time></trkpt><trkpt lat="-31.487722084524908" lon="115.77693174251316"><ele>61.0</ele><time>2026-04-12T04:22:23Z</time></trkpt><trkpt lat="-31.487558710756897" lon="115.77673642533381"><ele>61.0</ele><time>2026-04-12T04:22:24Z</time></trkpt><trkpt lat="-31.4873940730456" lon="115.77654304230401"><ele>61.0</ele><time>2026-04-12T04:22:25Z</time></trkpt><trkpt lat="-31.487235004326244" lon="115.77634676588477"><ele>61.0</ele><time>2026-04-12T04:22:26Z</time></trkpt><trkpt lat="-31.487072122999187" lon="115.77614189852522"><ele>60.5</ele><time>2026-04-12T04:22:27Z</time></trkpt><trkpt lat="-31.486909151849336" lon="115.77595263083585"><ele>60.0</ele><time>2026-04-12T04:22:28Z</time></trkpt><trkpt lat="-31.486738738990937" lon="115.77575203710292"><ele>60.0</ele><time>2026-04-12T04:22:29Z</time></trkpt><trkpt lat="-31.486574561285387" lon="115.77555539401854"><ele>60.0</ele><time>2026-04-12T04:22:30Z</time></trkpt><trkpt lat="-31.486412563910974" lon="115.77536078607434"><ele>59.0</ele><time>2026-04-12T04:22:31Z</time></trkpt><trkpt lat="-31.4862435048899" lon="115.7751624695179"><ele>58.0</ele><time>2026-04-12T04:22:32Z</time></trkpt><trkpt lat="-31.486075632540977" lon="115.77496680604376"><ele>58.0</ele><time>2026-04-12T04:22:33Z</time></trkpt><trkpt lat="-31.485907841604696" lon="115.77476651614397"><ele>58.0</ele><time>2026-04-12T04:22:34Z</time></trkpt><trkpt lat="-31.485743348303142" lon="115.77456931645331"><ele>58.0</ele><time>2026-04-12T04:22:35Z</time></trkpt><trkpt lat="-31.4855746568649" lon="115.77436891926166"><ele>58.0</ele><time>2026-04-12T04:22:36Z</time></trkpt><trkpt lat="-31.4854064514206" lon="115.77417014821046"><ele>60.5</ele><time>2026-04-12T04:22:37Z</time></trkpt><trkpt lat="-31.485239392816712" lon="115.77397113632067"><ele>63.0</ele><time>2026-04-12T04:22:38Z</time></trkpt><trkpt lat="-31.485074152977766" lon="115.77377438450884"><ele>63.0</ele><time>2026-04-12T04:22:39Z</time></trkpt><trkpt lat="-31.48490328585214" lon="115.7735709754076"><ele>63.0</ele><time>2026-04-12T04:22:40Z</time></trkpt><trkpt lat="-31.48476377711618" lon="115.77334543151558"><ele>61.5</ele><time>2026-04-12T04:22:41Z</time></trkpt><trkpt lat="-31.484595767373147" lon="115.77314633860541"><ele>60.0</ele><time>2026-04-12T04:22:42Z</time></trkpt><trkpt lat="-31.48443346913954" lon="115.77295377731254"><ele>60.0</ele><time>2026-04-12T04:22:43Z</time></trkpt><trkpt lat="-31.484270569026243" lon="115.77275991977295"><ele>60.0</ele><time>2026-04-12T04:22:44Z</time></trkpt><trkpt lat="-31.484106147399388" lon="115.77256270560878"><ele>60.0</ele><time>2026-04-12T04:22:45Z</time></trkpt><trkpt lat="-31.483952813427855" lon="115.77237762803517"><ele>60.0</ele><time>2026-04-12T04:22:46Z</time></trkpt><trkpt lat="-31.48380902426989" lon="115.77220354890838"><ele>60.0</ele><time>2026-04-12T04:22:47Z</time></trkpt><trkpt lat="-31.48366911961781" lon="115.7720337485268"><ele>61.33333333333333</ele><time>2026-04-12T04:22:48Z</time></trkpt><trkpt lat="-31.483531599803893" lon="115.77186639900917"><ele>62.666666666666664</ele><time>2026-04-12T04:22:49Z</time></trkpt><trkpt lat="-31.48338300360831" lon="115.7716861253268"><ele>64.0</ele><time>2026-04-12T04:22:50Z</time></trkpt><trkpt lat="-31.483234139517403" lon="115.77150536759702"><ele>64.0</ele><time>2026-04-12T04:22:51Z</time></trkpt><trkpt lat="-31.48308176598651" lon="115.77132039870455"><ele>64.0</ele><time>2026-04-12T04:22:52Z</time></trkpt><trkpt lat="-31.482941450703112" lon="115.77115145312281"><ele>64.0</ele><time>2026-04-12T04:22:53Z</time></trkpt><trkpt lat="-31.48279224208428" lon="115.77097129157251"><ele>63.0</ele><time>2026-04-12T04:22:54Z</time></trkpt><trkpt lat="-31.482642821867188" lon="115.77079202934995"><ele>62.0</ele><time>2026-04-12T04:22:55Z</time></trkpt><trkpt lat="-31.482492096801302" lon="115.77061221585338"><ele>61.0</ele><time>2026-04-12T04:22:56Z</time></trkpt><trkpt lat="-31.482348972153112" lon="115.77044259650641"><ele>61.0</ele><time>2026-04-12T04:22:57Z</time></trkpt><trkpt lat="-31.482201507398145" lon="115.7702695007493"><ele>61.0</ele><time>2026-04-12T04:22:58Z</time></trkpt><trkpt lat="-31.482057519095378" lon="115.77009710528202"><ele>61.0</ele><time>2026-04-12T04:22:59Z</time></trkpt><trkpt lat="-31.48191426337153" lon="115.76992469929894"><ele>61.33333333333333</ele><time>2026-04-12T04:23:00Z</time></trkpt><trkpt lat="-31.481767138651332" lon="115.76974615033576"><ele>61.66666666666667</ele><time>2026-04-12T04:23:01Z</time></trkpt><trkpt lat="-31.48161787848353" lon="115.76956512800562"><ele>62.0</ele><time>2026-04-12T04:23:02Z</time></trkpt><trkpt lat="-31.481462898833374" lon="115.76937712269678"><ele>62.333333333333336</ele><time>2026-04-12T04:23:03Z</time></trkpt><trkpt lat="-31.481308652646792" lon="115.76919088143212"><ele>62.66666666666667</ele><time>2026-04-12T04:23:04Z</time></trkpt><trkpt lat="-31.481154353644033" lon="115.7690060593049"><ele>63.0</ele><time>2026-04-12T04:23:05Z</time></trkpt><trkpt lat="-31.48099543398591" lon="115.76881541644227"><ele>63.0</ele><time>2026-04-12T04:23:06Z</time></trkpt><trkpt lat="-31.48084129078752" lon="115.76863210003255"><ele>63.0</ele><time>2026-04-12T04:23:07Z</time></trkpt><trkpt lat="-31.48068363892644" lon="115.76844533890687"><ele>63.0</ele><time>2026-04-12T04:23:08Z</time></trkpt><trkpt lat="-31.480523185321314" lon="115.76825429965523"><ele>61.5</ele><time>2026-04-12T04:23:09Z</time></trkpt><trkpt lat="-31.48036396017652" lon="115.7680667193494"><ele>60.0</ele><time>2026-04-12T04:23:10Z</time></trkpt><trkpt lat="-31.480198802602057" lon="115.76787215086767"><ele>60.0</ele><time>2026-04-12T04:23:11Z</time></trkpt><trkpt lat="-31.480037315037965" lon="115.7676821286952"><ele>60.0</ele><time>2026-04-12T04:23:12Z</time></trkpt><trkpt lat="-31.479881237452474" lon="115.76749911205603"><ele>60.0</ele><time>2026-04-12T04:23:13Z</time></trkpt><trkpt lat="-31.479726470306016" lon="115.7673176370185"><ele>60.0</ele><time>2026-04-12T04:23:14Z</time></trkpt><trkpt lat="-31.479571818884036" lon="115.76713688811378"><ele>60.0</ele><time>2026-04-12T04:23:15Z</time></trkpt><trkpt lat="-31.47941724457278" lon="115.76695644237417"><ele>60.0</ele><time>2026-04-12T04:23:16Z</time></trkpt><trkpt lat="-31.479259370541836" lon="115.76677130034062"><ele>60.0</ele><time>2026-04-12T04:23:17Z</time></trkpt><trkpt lat="-31.47910623537621" lon="115.7665901357644"><ele>60.0</ele><time>2026-04-12T04:23:18Z</time></trkpt><trkpt lat="-31.478953714380655" lon="115.76640530717748"><ele>60.0</ele><time>2026-04-12T04:23:19Z</time></trkpt><trkpt lat="-31.47880352129794" lon="115.76621710762906"><ele>59.33333333333333</ele><time>2026-04-12T04:23:20Z</time></trkpt><trkpt lat="-31.478651530047568" lon="115.7660247537864"><ele>58.666666666666664</ele><time>2026-04-12T04:23:21Z</time></trkpt><trkpt lat="-31.47849544792835" lon="115.76583330862115"><ele>58.0</ele><time>2026-04-12T04:23:22Z</time></trkpt><trkpt lat="-31.478338277482006" lon="115.76565427015932"><ele>58.0</ele><time>2026-04-12T04:23:23Z</time></trkpt><trkpt lat="-31.478171866759947" lon="115.76548246621805"><ele>58.0</ele><time>2026-04-12T04:23:24Z</time></trkpt><trkpt lat="-31.47801166163932" lon="115.76530957432801"><ele>58.0</ele><time>2026-04-12T04:23:25Z</time></trkpt><trkpt lat="-31.47786060095282" lon="115.76512645857443"><ele>58.33333333333333</ele><time>2026-04-12T04:23:26Z</time></trkpt><trkpt lat="-31.477712371043012" lon="115.76493888801538"><ele>58.66666666666667</ele><time>2026-04-12T04:23:27Z</time></trkpt><trkpt lat="-31.477561497538385" lon="115.76474690800242"><ele>59.0</ele><time>2026-04-12T04:23:28Z</time></trkpt><trkpt lat="-31.477406803613373" lon="115.76455280573931"><ele>59.0</ele><time>2026-04-12T04:23:29Z</time></trkpt><trkpt lat="-31.477251033321192" lon="115.76436361871929"><ele>59.0</ele><time>2026-04-12T04:23:30Z</time></trkpt><trkpt lat="-31.47709308674766" lon="115.76417403422955"><ele>58.66666666666667</ele><time>2026-04-12T04:23:31Z</time></trkpt><trkpt lat="-31.476939622905117" lon="115.7639900565285"><ele>58.33333333333333</ele><time>2026-04-12T04:23:32Z</time></trkpt><trkpt lat="-31.47678436169477" lon="115.76380352605985"><ele>58.0</ele><time>2026-04-12T04:23:33Z</time></trkpt><trkpt lat="-31.476629323235244" lon="115.76361571554395"><ele>57.666666666666664</ele><time>2026-04-12T04:23:34Z</time></trkpt><trkpt lat="-31.476473733596766" lon="115.76342723734149"><ele>57.33333333333333</ele><time>2026-04-12T04:23:35Z</time></trkpt><trkpt lat="-31.47631880557837" lon="115.76324060445828"><ele>57.0</ele><time>2026-04-12T04:23:36Z</time></trkpt><trkpt lat="-31.476161679918523" lon="115.76305030088407"><ele>57.33333333333333</ele><time>2026-04-12T04:23:37Z</time></trkpt><trkpt lat="-31.476009023318486" lon="115.76286581936169"><ele>57.666666666666664</ele><time>2026-04-12T04:23:38Z</time></trkpt><trkpt lat="-31.47586123361428" lon="115.76268721921514"><ele>58.0</ele><time>2026-04-12T04:23:39Z</time></trkpt><trkpt lat="-31.475715480989745" lon="115.76251108082776"><ele>58.0</ele><time>2026-04-12T04:23:40Z</time></trkpt><trkpt lat="-31.475585686929684" lon="115.76235700232898"><ele>58.0</ele><time>2026-04-12T04:23:41Z</time></trkpt><trkpt lat="-31.475447256526067" lon="115.76224185580277"><ele>58.0</ele><time>2026-04-12T04:23:42Z</time></trkpt><trkpt lat="-31.47534084319678" lon="115.76211842754147"><ele>57.75</ele><time>2026-04-12T04:23:43Z</time></trkpt><trkpt lat="-31.475236083225752" lon="115.7620097419154"><ele>57.5</ele><time>2026-04-12T04:23:44Z</time></trkpt><trkpt lat="-31.475144059226665" lon="115.76191695699067"><ele>57.25</ele><time>2026-04-12T04:23:45Z</time></trkpt><trkpt lat="-31.475063920440906" lon="115.76182943405766"><ele>57.0</ele><time>2026-04-12T04:23:46Z</time></trkpt><trkpt lat="-31.474993789272695" lon="115.76174456819602"><ele>57.0</ele><time>2026-04-12T04:23:47Z</time></trkpt><trkpt lat="-31.474928612455972" lon="115.76164792254274"><ele>57.0</ele><time>2026-04-12T04:23:48Z</time></trkpt><trkpt lat="-31.47486079177979" lon="115.7615489579945"><ele>57.0</ele><time>2026-04-12T04:23:49Z</time></trkpt><trkpt lat="-31.47478586469789" lon="115.76144682697443"><ele>57.0</ele><time>2026-04-12T04:23:50Z</time></trkpt><trkpt lat="-31.47470573819419" lon="115.76134005091845"><ele>57.0</ele><time>2026-04-12T04:23:51Z</time></trkpt><trkpt lat="-31.47461862805565" lon="115.76124780530563"><ele>57.0</ele><time>2026-04-12T04:23:52Z</time></trkpt><trkpt lat="-31.474524643492522" lon="115.76114112406734"><ele>57.0</ele><time>2026-04-12T04:23:53Z</time></trkpt><trkpt lat="-31.474415277489392" lon="115.76102246545229"><ele>57.0</ele><time>2026-04-12T04:23:54Z</time></trkpt><trkpt lat="-31.47429598433235" lon="115.76088578192598"><ele>56.33333333333333</ele><time>2026-04-12T04:23:55Z</time></trkpt><trkpt lat="-31.474166104505024" lon="115.76073926524363"><ele>55.666666666666664</ele><time>2026-04-12T04:23:56Z</time></trkpt><trkpt lat="-31.474035807056993" lon="115.76059056690339"><ele>55.0</ele><time>2026-04-12T04:23:57Z</time></trkpt><trkpt lat="-31.47390832460976" lon="115.76043807684903"><ele>55.0</ele><time>2026-04-12T04:23:58Z</time></trkpt><trkpt lat="-31.47377835446159" lon="115.76027618530617"><ele>55.0</ele><time>2026-04-12T04:23:59Z</time></trkpt><trkpt lat="-31.473644466036667" lon="115.7601102977445"><ele>55.0</ele><time>2026-04-12T04:24:00Z</time></trkpt><trkpt lat="-31.47350503777158" lon="115.75994627349186"><ele>54.33333333333333</ele><time>2026-04-12T04:24:01Z</time></trkpt><trkpt lat="-31.473365770427783" lon="115.75978276575951"><ele>53.66666666666667</ele><time>2026-04-12T04:24:02Z</time></trkpt><trkpt lat="-31.473221606916404" lon="115.75960827451517"><ele>53.0</ele><time>2026-04-12T04:24:03Z</time></trkpt><trkpt lat="-31.47308036882783" lon="115.75943625028752"><ele>54.0</ele><time>2026-04-12T04:24:04Z</time></trkpt><trkpt lat="-31.472945196390505" lon="115.7592794433005"><ele>55.0</ele><time>2026-04-12T04:24:05Z</time></trkpt><trkpt lat="-31.472815950926545" lon="115.75912853621138"><ele>56.0</ele><time>2026-04-12T04:24:06Z</time></trkpt><trkpt lat="-31.472694471551936" lon="115.75897819450309"><ele>56.0</ele><time>2026-04-12T04:24:07Z</time></trkpt><trkpt lat="-31.472589456262526" lon="115.75881950134163"><ele>56.0</ele><time>2026-04-12T04:24:08Z</time></trkpt><trkpt lat="-31.47249732415585" lon="115.75864894033303"><ele>56.0</ele><time>2026-04-12T04:24:09Z</time></trkpt><trkpt lat="-31.472402673003323" lon="115.75847372467848"><ele>56.66666666666667</ele><time>2026-04-12T04:24:10Z</time></trkpt><trkpt lat="-31.472296804227224" lon="115.7582999422258"><ele>57.33333333333333</ele><time>2026-04-12T04:24:11Z</time></trkpt><trkpt lat="-31.472162310365118" lon="115.75812869558246"><ele>58.0</ele><time>2026-04-12T04:24:12Z</time></trkpt><trkpt lat="-31.47201007713548" lon="115.75798436295456"><ele>58.0</ele><time>2026-04-12T04:24:13.001Z</time></trkpt><trkpt lat="-31.471829420908875" lon="115.75783547208371"><ele>58.0</ele><time>2026-04-12T04:24:14.001Z</time></trkpt><trkpt lat="-31.471653212538204" lon="115.75769228737117"><ele>58.0</ele><time>2026-04-12T04:24:15.001Z</time></trkpt><trkpt lat="-31.471482609449527" lon="115.7575395360739"><ele>58.0</ele><time>2026-04-12T04:24:16.001Z</time></trkpt><trkpt lat="-31.471319493011528" lon="115.7573681807297"><ele>58.0</ele><time>2026-04-12T04:24:17.001Z</time></trkpt><trkpt lat="-31.47116019764811" lon="115.75717918519292"><ele>58.0</ele><time>2026-04-12T04:24:18.001Z</time></trkpt><trkpt lat="-31.471002678109716" lon="115.75698166538389"><ele>58.0</ele><time>2026-04-12T04:24:19.001Z</time></trkpt><trkpt lat="-31.47084123217936" lon="115.75678345293692"><ele>58.0</ele><time>2026-04-12T04:24:20.001Z</time></trkpt><trkpt lat="-31.47067208488721" lon="115.75658244450791"><ele>58.0</ele><time>2026-04-12T04:24:21.001Z</time></trkpt><trkpt lat="-31.47050848045183" lon="115.75639059351126"><ele>58.0</ele><time>2026-04-12T04:24:22.001Z</time></trkpt><trkpt lat="-31.47034562608327" lon="115.75619749025701"><ele>58.0</ele><time>2026-04-12T04:24:23.001Z</time></trkpt><trkpt lat="-31.470183722080158" lon="115.75600369215009"><ele>58.0</ele><time>2026-04-12T04:24:24.001Z</time></trkpt><trkpt lat="-31.47001694040657" lon="115.7558101695574"><ele>58.0</ele><time>2026-04-12T04:24:25.001Z</time></trkpt><trkpt lat="-31.469844744685304" lon="115.75561524763914"><ele>58.0</ele><time>2026-04-12T04:24:26.001Z</time></trkpt><trkpt lat="-31.469675461783037" lon="115.75542648000695"><ele>58.0</ele><time>2026-04-12T04:24:27.001Z</time></trkpt><trkpt lat="-31.46950038582096" lon="115.75524654970657"><ele>58.0</ele><time>2026-04-12T04:24:28.001Z</time></trkpt><trkpt lat="-31.46932119220774" lon="115.75507654751996"><ele>59.5</ele><time>2026-04-12T04:24:29.001Z</time></trkpt><trkpt lat="-31.469142602883956" lon="115.75491154964787"><ele>61.0</ele><time>2026-04-12T04:24:30.001Z</time></trkpt><trkpt lat="-31.46896867200595" lon="115.75473304623256"><ele>61.0</ele><time>2026-04-12T04:24:31.001Z</time></trkpt><trkpt lat="-31.46880935667963" lon="115.75453654081923"><ele>61.0</ele><time>2026-04-12T04:24:32.001Z</time></trkpt><trkpt lat="-31.468653598869587" lon="115.75432416809593"><ele>61.0</ele><time>2026-04-12T04:24:33.001Z</time></trkpt><trkpt lat="-31.46849803437281" lon="115.7541115700629"><ele>61.0</ele><time>2026-04-12T04:24:34.001Z</time></trkpt><trkpt lat="-31.46833552788779" lon="115.75391224487574"><ele>61.0</ele><time>2026-04-12T04:24:35.001Z</time></trkpt><trkpt lat="-31.468164715636096" lon="115.75372612500527"><ele>61.0</ele><time>2026-04-12T04:24:36.001Z</time></trkpt><trkpt lat="-31.467988417620674" lon="115.75354477935551"><ele>62.0</ele><time>2026-04-12T04:24:37.001Z</time></trkpt><trkpt lat="-31.46780622572808" lon="115.75336934907732"><ele>63.0</ele><time>2026-04-12T04:24:38.001Z</time></trkpt><trkpt lat="-31.467619318233943" lon="115.7531984014"><ele>63.0</ele><time>2026-04-12T04:24:39.001Z</time></trkpt><trkpt lat="-31.467422830181054" lon="115.75302150285881"><ele>63.0</ele><time>2026-04-12T04:24:40.001Z</time></trkpt><trkpt lat="-31.467232404618695" lon="115.75285173610061"><ele>60.5</ele><time>2026-04-12T04:24:41.001Z</time></trkpt><trkpt lat="-31.467034807436914" lon="115.75267922574128"><ele>58.0</ele><time>2026-04-12T04:24:42.001Z</time></trkpt><trkpt lat="-31.466837255334937" lon="115.75250695343988"><ele>58.0</ele><time>2026-04-12T04:24:43.001Z</time></trkpt><trkpt lat="-31.46663822844691" lon="115.75233350880212"><ele>58.0</ele><time>2026-04-12T04:24:44.001Z</time></trkpt><trkpt lat="-31.46643863383791" lon="115.75216070388298"><ele>60.0</ele><time>2026-04-12T04:24:45.001Z</time></trkpt><trkpt lat="-31.466269513925027" lon="115.75194290286265"><ele>62.0</ele><time>2026-04-12T04:24:46.001Z</time></trkpt><trkpt lat="-31.466068934347064" lon="115.75176964909777"><ele>62.0</ele><time>2026-04-12T04:24:47.001Z</time></trkpt><trkpt lat="-31.46586822997212" lon="115.75160153191896"><ele>62.0</ele><time>2026-04-12T04:24:48.001Z</time></trkpt><trkpt lat="-31.46567196166348" lon="115.75143548082397"><ele>62.0</ele><time>2026-04-12T04:24:49.001Z</time></trkpt><trkpt lat="-31.465479915500367" lon="115.75126803665566"><ele>62.0</ele><time>2026-04-12T04:24:50.001Z</time></trkpt><trkpt lat="-31.465289659231022" lon="115.7510985416171"><ele>62.0</ele><time>2026-04-12T04:24:51.001Z</time></trkpt><trkpt lat="-31.465099607900097" lon="115.75092803421649"><ele>62.0</ele><time>2026-04-12T04:24:52.001Z</time></trkpt><trkpt lat="-31.46491118123091" lon="115.75076407821975"><ele>62.0</ele><time>2026-04-12T04:24:53.001Z</time></trkpt><trkpt lat="-31.464719661370708" lon="115.75059925868882"><ele>62.0</ele><time>2026-04-12T04:24:54.001Z</time></trkpt><trkpt lat="-31.46452165658829" lon="115.75043105045252"><ele>63.0</ele><time>2026-04-12T04:24:55.001Z</time></trkpt><trkpt lat="-31.46432566257261" lon="115.75026357264262"><ele>64.0</ele><time>2026-04-12T04:24:56.001Z</time></trkpt><trkpt lat="-31.46413589546978" lon="115.7501004104104"><ele>64.0</ele><time>2026-04-12T04:24:57.001Z</time></trkpt><trkpt lat="-31.463946661282915" lon="115.74993704566984"><ele>64.0</ele><time>2026-04-12T04:24:58.001Z</time></trkpt><trkpt lat="-31.463756167284497" lon="115.74977218628416"><ele>65.5</ele><time>2026-04-12T04:24:59.001Z</time></trkpt><trkpt lat="-31.463563133855605" lon="115.74960502708007"><ele>67.0</ele><time>2026-04-12T04:25:00.001Z</time></trkpt><trkpt lat="-31.46337482872262" lon="115.74944126747246"><ele>66.5</ele><time>2026-04-12T04:25:01.001Z</time></trkpt><trkpt lat="-31.463182126696754" lon="115.7492751199976"><ele>66.0</ele><time>2026-04-12T04:25:02.001Z</time></trkpt><trkpt lat="-31.4629892380783" lon="115.74910760644072"><ele>65.0</ele><time>2026-04-12T04:25:03.001Z</time></trkpt><trkpt lat="-31.46279158793538" lon="115.74894133470899"><ele>64.0</ele><time>2026-04-12T04:25:04.001Z</time></trkpt><trkpt lat="-31.46259497780716" lon="115.74877840789495"><ele>64.0</ele><time>2026-04-12T04:25:05.001Z</time></trkpt><trkpt lat="-31.46239384278936" lon="115.74861839453737"><ele>64.0</ele><time>2026-04-12T04:25:06.001Z</time></trkpt><trkpt lat="-31.462195004899073" lon="115.74846246099344"><ele>64.0</ele><time>2026-04-12T04:25:07.001Z</time></trkpt><trkpt lat="-31.46199161031316" lon="115.74830769500922"><ele>64.0</ele><time>2026-04-12T04:25:08.001Z</time></trkpt><trkpt lat="-31.46179442059417" lon="115.74816653051275"><ele>64.0</ele><time>2026-04-12T04:25:09.001Z</time></trkpt><trkpt lat="-31.461597326292964" lon="115.74804713762255"><ele>64.0</ele><time>2026-04-12T04:25:10.001Z</time></trkpt><trkpt lat="-31.461404049464495" lon="115.74795185438963"><ele>64.0</ele><time>2026-04-12T04:25:11.001Z</time></trkpt><trkpt lat="-31.461182806332445" lon="115.74787451617874"><ele>64.0</ele><time>2026-04-12T04:25:12.001Z</time></trkpt><trkpt lat="-31.460951353125534" lon="115.74781390582005"><ele>64.0</ele><time>2026-04-12T04:25:13Z</time></trkpt><trkpt lat="-31.460710271986546" lon="115.74776208607261"><ele>64.0</ele><time>2026-04-12T04:25:14Z</time></trkpt><trkpt lat="-31.46047579315839" lon="115.74771645859543"><ele>64.0</ele><time>2026-04-12T04:25:15Z</time></trkpt><trkpt lat="-31.460238831987265" lon="115.74766860514909"><ele>63.0</ele><time>2026-04-12T04:25:16Z</time></trkpt><trkpt lat="-31.46000414567336" lon="115.74762106757446"><ele>62.0</ele><time>2026-04-12T04:25:17Z</time></trkpt><trkpt lat="-31.459767760747074" lon="115.74757343369122"><ele>60.5</ele><time>2026-04-12T04:25:18Z</time></trkpt><trkpt lat="-31.459531889384646" lon="115.74752672953574"><ele>59.0</ele><time>2026-04-12T04:25:19Z</time></trkpt><trkpt lat="-31.459298551648484" lon="115.7474801836855"><ele>59.0</ele><time>2026-04-12T04:25:20Z</time></trkpt><trkpt lat="-31.459064604244276" lon="115.7474346872333"><ele>59.0</ele><time>2026-04-12T04:25:21Z</time></trkpt><trkpt lat="-31.458830026775818" lon="115.74738803263902"><ele>58.0</ele><time>2026-04-12T04:25:22Z</time></trkpt><trkpt lat="-31.45859422485122" lon="115.74734305096818"><ele>57.0</ele><time>2026-04-12T04:25:23Z</time></trkpt><trkpt lat="-31.458359606362617" lon="115.74729766053106"><ele>57.0</ele><time>2026-04-12T04:25:24Z</time></trkpt><trkpt lat="-31.458118716220042" lon="115.74724786759374"><ele>57.0</ele><time>2026-04-12T04:25:25Z</time></trkpt><trkpt lat="-31.457883957343533" lon="115.74719524745103"><ele>57.5</ele><time>2026-04-12T04:25:26Z</time></trkpt><trkpt lat="-31.457641024077592" lon="115.74714588230978"><ele>58.0</ele><time>2026-04-12T04:25:27Z</time></trkpt><trkpt lat="-31.457406082067834" lon="115.7471002169962"><ele>58.0</ele><time>2026-04-12T04:25:28Z</time></trkpt><trkpt lat="-31.457166869529416" lon="115.74705615621464"><ele>58.0</ele><time>2026-04-12T04:25:29Z</time></trkpt><trkpt lat="-31.456934866111116" lon="115.74701388410689"><ele>59.0</ele><time>2026-04-12T04:25:30Z</time></trkpt><trkpt lat="-31.45671214365587" lon="115.74697430894452"><ele>60.0</ele><time>2026-04-12T04:25:31Z</time></trkpt><trkpt lat="-31.456487244710164" lon="115.74693435100279"><ele>61.5</ele><time>2026-04-12T04:25:32Z</time></trkpt><trkpt lat="-31.456265657402614" lon="115.74689497476535"><ele>63.0</ele><time>2026-04-12T04:25:33Z</time></trkpt><trkpt lat="-31.45603426546878" lon="115.74685605438148"><ele>63.0</ele><time>2026-04-12T04:25:34Z</time></trkpt><trkpt lat="-31.455796682112148" lon="115.74685592006598"><ele>63.0</ele><time>2026-04-12T04:25:35Z</time></trkpt><trkpt lat="-31.455559338297835" lon="115.74681027222572"><ele>60.5</ele><time>2026-04-12T04:25:36Z</time></trkpt><trkpt lat="-31.455320062514605" lon="115.7467639257564"><ele>58.0</ele><time>2026-04-12T04:25:37Z</time></trkpt><trkpt lat="-31.455079116978233" lon="115.74672091171591"><ele>58.0</ele><time>2026-04-12T04:25:38Z</time></trkpt><trkpt lat="-31.45484058178066" lon="115.7466756296117"><ele>58.0</ele><time>2026-04-12T04:25:39Z</time></trkpt><trkpt lat="-31.454592931089564" lon="115.7466223401629"><ele>59.0</ele><time>2026-04-12T04:25:40Z</time></trkpt><trkpt lat="-31.454361624846353" lon="115.7465791947214"><ele>60.0</ele><time>2026-04-12T04:25:41Z</time></trkpt><trkpt lat="-31.45411859047209" lon="115.7465296254149"><ele>60.0</ele><time>2026-04-12T04:25:42Z</time></trkpt><trkpt lat="-31.453881085717704" lon="115.74648695065909"><ele>60.0</ele><time>2026-04-12T04:25:43Z</time></trkpt><trkpt lat="-31.4536376870213" lon="115.74644062798085"><ele>61.0</ele><time>2026-04-12T04:25:44Z</time></trkpt><trkpt lat="-31.453397507133026" lon="115.74639335706271"><ele>62.0</ele><time>2026-04-12T04:25:45Z</time></trkpt><trkpt lat="-31.453155330892617" lon="115.74634532957526"><ele>63.5</ele><time>2026-04-12T04:25:46Z</time></trkpt><trkpt lat="-31.45291321114262" lon="115.74629761571515"><ele>65.0</ele><time>2026-04-12T04:25:47Z</time></trkpt><trkpt lat="-31.45267170155852" lon="115.74625418581793"><ele>65.0</ele><time>2026-04-12T04:25:48Z</time></trkpt><trkpt lat="-31.452429763766503" lon="115.74620673387929"><ele>65.0</ele><time>2026-04-12T04:25:49Z</time></trkpt><trkpt lat="-31.45218412361779" lon="115.74616011296894"><ele>65.0</ele><time>2026-04-12T04:25:50Z</time></trkpt><trkpt lat="-31.45193559229676" lon="115.74611133491693"><ele>65.0</ele><time>2026-04-12T04:25:51Z</time></trkpt><trkpt lat="-31.451695466575014" lon="115.74606508527292"><ele>63.0</ele><time>2026-04-12T04:25:52Z</time></trkpt><trkpt lat="-31.451445557830752" lon="115.74601517401962"><ele>61.0</ele><time>2026-04-12T04:25:53Z</time></trkpt><trkpt lat="-31.451204410630613" lon="115.74597065972817"><ele>61.0</ele><time>2026-04-12T04:25:54Z</time></trkpt><trkpt lat="-31.45096479448696" lon="115.7459257622439"><ele>61.0</ele><time>2026-04-12T04:25:55Z</time></trkpt><trkpt lat="-31.450719476921112" lon="115.745877576782"><ele>61.0</ele><time>2026-04-12T04:25:56Z</time></trkpt><trkpt lat="-31.450473383147177" lon="115.74583155464514"><ele>61.0</ele><time>2026-04-12T04:25:57Z</time></trkpt><trkpt lat="-31.450235191767717" lon="115.74579033420808"><ele>61.0</ele><time>2026-04-12T04:25:58Z</time></trkpt><trkpt lat="-31.449995392670832" lon="115.7457392526301"><ele>61.0</ele><time>2026-04-12T04:25:59Z</time></trkpt><trkpt lat="-31.449761810815218" lon="115.74569697377994"><ele>62.5</ele><time>2026-04-12T04:26:00Z</time></trkpt><trkpt lat="-31.449524806430038" lon="115.74564843288384"><ele>64.0</ele><time>2026-04-12T04:26:01Z</time></trkpt><trkpt lat="-31.449304196062513" lon="115.74560437167955"><ele>64.0</ele><time>2026-04-12T04:26:02Z</time></trkpt><trkpt lat="-31.4490862698144" lon="115.74555993839002"><ele>64.0</ele><time>2026-04-12T04:26:03Z</time></trkpt><trkpt lat="-31.448877161836407" lon="115.74552457302167"><ele>64.0</ele><time>2026-04-12T04:26:04Z</time></trkpt><trkpt lat="-31.44865950157498" lon="115.74548695249403"><ele>63.5</ele><time>2026-04-12T04:26:05Z</time></trkpt><trkpt lat="-31.44843485254158" lon="115.74544534925977"><ele>63.0</ele><time>2026-04-12T04:26:06Z</time></trkpt><trkpt lat="-31.448207789570194" lon="115.74540001766343"><ele>63.0</ele><time>2026-04-12T04:26:07Z</time></trkpt><trkpt lat="-31.4479721786665" lon="115.74534792238752"><ele>63.0</ele><time>2026-04-12T04:26:08Z</time></trkpt><trkpt lat="-31.447740431526093" lon="115.74529654564421"><ele>63.5</ele><time>2026-04-12T04:26:09Z</time></trkpt><trkpt lat="-31.447514276512344" lon="115.74525315840451"><ele>64.0</ele><time>2026-04-12T04:26:10Z</time></trkpt><trkpt lat="-31.447287640171087" lon="115.74521696988572"><ele>62.33333333333333</ele><time>2026-04-12T04:26:11Z</time></trkpt><trkpt lat="-31.447064536260434" lon="115.74518353360651"><ele>60.66666666666667</ele><time>2026-04-12T04:26:12Z</time></trkpt><trkpt lat="-31.44685978324666" lon="115.74514344799138"><ele>59.0</ele><time>2026-04-12T04:26:13Z</time></trkpt><trkpt lat="-31.446663421744173" lon="115.7450932760602"><ele>59.0</ele><time>2026-04-12T04:26:14Z</time></trkpt><trkpt lat="-31.446470283706883" lon="115.7450183190003"><ele>59.0</ele><time>2026-04-12T04:26:15Z</time></trkpt><trkpt lat="-31.446296401030175" lon="115.74491485609317"><ele>59.0</ele><time>2026-04-12T04:26:16Z</time></trkpt><trkpt lat="-31.446128598511887" lon="115.74477867484426"><ele>59.0</ele><time>2026-04-12T04:26:17Z</time></trkpt><trkpt lat="-31.445958184512463" lon="115.74461123666768"><ele>59.0</ele><time>2026-04-12T04:26:18Z</time></trkpt><trkpt lat="-31.445788836871213" lon="115.74443799812944"><ele>59.0</ele><time>2026-04-12T04:26:19Z</time></trkpt><trkpt lat="-31.44560650132457" lon="115.7442588049375"><ele>60.0</ele><time>2026-04-12T04:26:20Z</time></trkpt><trkpt lat="-31.445420106105555" lon="115.74408821600977"><ele>61.0</ele><time>2026-04-12T04:26:21Z</time></trkpt><trkpt lat="-31.445233886937732" lon="115.74391905374685"><ele>61.0</ele><time>2026-04-12T04:26:22Z</time></trkpt><trkpt lat="-31.445036234302577" lon="115.743746609685"><ele>61.0</ele><time>2026-04-12T04:26:23Z</time></trkpt><trkpt lat="-31.44484168353285" lon="115.7435755093827"><ele>61.0</ele><time>2026-04-12T04:26:24Z</time></trkpt><trkpt lat="-31.444652937246026" lon="115.74340320933601"><ele>61.0</ele><time>2026-04-12T04:26:25.001Z</time></trkpt><trkpt lat="-31.444464603198494" lon="115.74322831254672"><ele>61.0</ele><time>2026-04-12T04:26:26.001Z</time></trkpt><trkpt lat="-31.44427251355277" lon="115.74305368615039"><ele>61.0</ele><time>2026-04-12T04:26:27.001Z</time></trkpt><trkpt lat="-31.444085484164667" lon="115.74288325402307"><ele>61.5</ele><time>2026-04-12T04:26:28.001Z</time></trkpt><trkpt lat="-31.443891738928677" lon="115.742710215017"><ele>62.0</ele><time>2026-04-12T04:26:29.001Z</time></trkpt><trkpt lat="-31.44370696754174" lon="115.74254216973885"><ele>62.0</ele><time>2026-04-12T04:26:30.001Z</time></trkpt><trkpt lat="-31.443517572652908" lon="115.74237183259663"><ele>62.0</ele><time>2026-04-12T04:26:31.001Z</time></trkpt><trkpt lat="-31.443333564123275" lon="115.74220238659731"><ele>62.0</ele><time>2026-04-12T04:26:32.001Z</time></trkpt><trkpt lat="-31.443154617259406" lon="115.7420385911046"><ele>62.0</ele><time>2026-04-12T04:26:33.001Z</time></trkpt><trkpt lat="-31.442977101358284" lon="115.74187599130478"><ele>63.5</ele><time>2026-04-12T04:26:34.001Z</time></trkpt><trkpt lat="-31.442794011311364" lon="115.74170914256426"><ele>65.0</ele><time>2026-04-12T04:26:35.001Z</time></trkpt><trkpt lat="-31.442609970950976" lon="115.74154301525726"><ele>65.0</ele><time>2026-04-12T04:26:36.001Z</time></trkpt><trkpt lat="-31.442434640541318" lon="115.74138212274312"><ele>65.0</ele><time>2026-04-12T04:26:37.001Z</time></trkpt><trkpt lat="-31.442258302795913" lon="115.74122725815867"><ele>65.0</ele><time>2026-04-12T04:26:38.001Z</time></trkpt><trkpt lat="-31.4420798334744" lon="115.74107002959374"><ele>64.5</ele><time>2026-04-12T04:26:39.001Z</time></trkpt><trkpt lat="-31.441897838227998" lon="115.74091131819159"><ele>64.0</ele><time>2026-04-12T04:26:40.001Z</time></trkpt><trkpt lat="-31.441733948572914" lon="115.74072615033204"><ele>64.0</ele><time>2026-04-12T04:26:41.001Z</time></trkpt><trkpt lat="-31.44155761906738" lon="115.74056930844644"><ele>64.0</ele><time>2026-04-12T04:26:42.001Z</time></trkpt><trkpt lat="-31.441382014138735" lon="115.7404130278499"><ele>64.0</ele><time>2026-04-12T04:26:43.001Z</time></trkpt><trkpt lat="-31.441203520414867" lon="115.74025487244457"><ele>63.0</ele><time>2026-04-12T04:26:44.001Z</time></trkpt><trkpt lat="-31.441024279726143" lon="115.74009587336896"><ele>62.0</ele><time>2026-04-12T04:26:45.001Z</time></trkpt><trkpt lat="-31.440843498055365" lon="115.73993569021385"><ele>62.0</ele><time>2026-04-12T04:26:46.001Z</time></trkpt><trkpt lat="-31.4406609015866" lon="115.73977296249102"><ele>62.0</ele><time>2026-04-12T04:26:47.001Z</time></trkpt><trkpt lat="-31.440489781013028" lon="115.73961910303103"><ele>62.0</ele><time>2026-04-12T04:26:48.001Z</time></trkpt><trkpt lat="-31.44031188442847" lon="115.73945837155604"><ele>63.0</ele><time>2026-04-12T04:26:49.001Z</time></trkpt><trkpt lat="-31.440149772782565" lon="115.73931084430009"><ele>64.0</ele><time>2026-04-12T04:26:50.001Z</time></trkpt><trkpt lat="-31.43998193022029" lon="115.73915748591602"><ele>65.0</ele><time>2026-04-12T04:26:51.001Z</time></trkpt><trkpt lat="-31.439821919326594" lon="115.73901282151952"><ele>65.0</ele><time>2026-04-12T04:26:52.001Z</time></trkpt><trkpt lat="-31.4396704270019" lon="115.73887744651257"><ele>65.0</ele><time>2026-04-12T04:26:53.001Z</time></trkpt><trkpt lat="-31.43951243051174" lon="115.73873753247649"><ele>65.0</ele><time>2026-04-12T04:26:54.001Z</time></trkpt><trkpt lat="-31.43935301039602" lon="115.7385974614714"><ele>64.66666666666667</ele><time>2026-04-12T04:26:55.001Z</time></trkpt><trkpt lat="-31.43920887270694" lon="115.73847103781837"><ele>64.33333333333333</ele><time>2026-04-12T04:26:56.001Z</time></trkpt><trkpt lat="-31.439067212803952" lon="115.73834817113288"><ele>64.0</ele><time>2026-04-12T04:26:57.001Z</time></trkpt><trkpt lat="-31.43893858248291" lon="115.73823920508191"><ele>64.0</ele><time>2026-04-12T04:26:58.001Z</time></trkpt><trkpt lat="-31.438828781258774" lon="115.73814716983337"><ele>64.0</ele><time>2026-04-12T04:26:59.001Z</time></trkpt><trkpt lat="-31.43874699694158" lon="115.73807832585574"><ele>64.0</ele><time>2026-04-12T04:27:00.001Z</time></trkpt><trkpt lat="-31.43867961322517" lon="115.73802160389884"><ele>64.0</ele><time>2026-04-12T04:27:01.001Z</time></trkpt><trkpt lat="-31.43861629786157" lon="115.73796830648953"><ele>64.0</ele><time>2026-04-12T04:27:02.001Z</time></trkpt><trkpt lat="-31.438554921364236" lon="115.7379156137747"><ele>64.25</ele><time>2026-04-12T04:27:03.001Z</time></trkpt><trkpt lat="-31.43847441615354" lon="115.73784655990879"><ele>64.5</ele><time>2026-04-12T04:27:04.001Z</time></trkpt><trkpt lat="-31.438384946229515" lon="115.73776840598806"><ele>64.75</ele><time>2026-04-12T04:27:05.001Z</time></trkpt><trkpt lat="-31.438289216846425" lon="115.73767869260682"><ele>65.0</ele><time>2026-04-12T04:27:06.001Z</time></trkpt><trkpt lat="-31.43819974157861" lon="115.73757528109626"><ele>64.75</ele><time>2026-04-12T04:27:07.001Z</time></trkpt><trkpt lat="-31.438102962768976" lon="115.73746122121453"><ele>64.5</ele><time>2026-04-12T04:27:08.001Z</time></trkpt><trkpt lat="-31.438011626250237" lon="115.73735080790362"><ele>64.25</ele><time>2026-04-12T04:27:09.001Z</time></trkpt><trkpt lat="-31.43792683287789" lon="115.7372217059777"><ele>64.0</ele><time>2026-04-12T04:27:10.001Z</time></trkpt><trkpt lat="-31.437936306132894" lon="115.73703997119641"><ele>64.66666666666666</ele><time>2026-04-12T04:27:11.001Z</time></trkpt><trkpt lat="-31.43791095877444" lon="115.73685312232465"><ele>65.33333333333333</ele><time>2026-04-12T04:27:12.001Z</time></trkpt><trkpt lat="-31.437883121808593" lon="115.73664706953083"><ele>66.0</ele><time>2026-04-12T04:27:13.001Z</time></trkpt><trkpt lat="-31.437868028606356" lon="115.73643206666739"><ele>66.0</ele><time>2026-04-12T04:27:14.001Z</time></trkpt><trkpt lat="-31.43786036373429" lon="115.7361970065219"><ele>66.0</ele><time>2026-04-12T04:27:15.001Z</time></trkpt><trkpt lat="-31.43785928497348" lon="115.73596177228286"><ele>66.0</ele><time>2026-04-12T04:27:16.001Z</time></trkpt><trkpt lat="-31.437859284974476" lon="115.73570214267575"><ele>69.0</ele><time>2026-04-12T04:27:17.001Z</time></trkpt><trkpt lat="-31.437859054295465" lon="115.73541677100145"><ele>72.0</ele><time>2026-04-12T04:27:18.001Z</time></trkpt><trkpt lat="-31.437858538804328" lon="115.7351383120918"><ele>72.5</ele><time>2026-04-12T04:27:19Z</time></trkpt><trkpt lat="-31.437858184972324" lon="115.73486206311283"><ele>73.0</ele><time>2026-04-12T04:27:20Z</time></trkpt><trkpt lat="-31.43785818497247" lon="115.7345795795836"><ele>72.5</ele><time>2026-04-12T04:27:21Z</time></trkpt><trkpt lat="-31.43785818497716" lon="115.73429744833973"><ele>72.0</ele><time>2026-04-12T04:27:22Z</time></trkpt><trkpt lat="-31.43785818498068" lon="115.73402433845803"><ele>72.0</ele><time>2026-04-12T04:27:23Z</time></trkpt><trkpt lat="-31.43785860497928" lon="115.73374997274381"><ele>72.0</ele><time>2026-04-12T04:27:24Z</time></trkpt><trkpt lat="-31.437859267591083" lon="115.73348420533033"><ele>72.0</ele><time>2026-04-12T04:27:25Z</time></trkpt><trkpt lat="-31.43786054166773" lon="115.73322439015267"><ele>72.0</ele><time>2026-04-12T04:27:26Z</time></trkpt><trkpt lat="-31.43786205680643" lon="115.73296599124365"><ele>72.0</ele><time>2026-04-12T04:27:27Z</time></trkpt><trkpt lat="-31.43786461394569" lon="115.73271168551197"><ele>72.0</ele><time>2026-04-12T04:27:28Z</time></trkpt><trkpt lat="-31.437868052140328" lon="115.73246607876496"><ele>72.0</ele><time>2026-04-12T04:27:29Z</time></trkpt><trkpt lat="-31.437873262311008" lon="115.73222428506259"><ele>72.0</ele><time>2026-04-12T04:27:30Z</time></trkpt><trkpt lat="-31.437877985715275" lon="115.73197429605985"><ele>71.66666666666667</ele><time>2026-04-12T04:27:31Z</time></trkpt><trkpt lat="-31.437883846348463" lon="115.73172484437737"><ele>71.33333333333334</ele><time>2026-04-12T04:27:32Z</time></trkpt><trkpt lat="-31.437889443656672" lon="115.73147556544544"><ele>71.0</ele><time>2026-04-12T04:27:33Z</time></trkpt><trkpt lat="-31.4378943758281" lon="115.73122490761041"><ele>70.66666666666667</ele><time>2026-04-12T04:27:34Z</time></trkpt><trkpt lat="-31.43789786291847" lon="115.73096933104122"><ele>70.33333333333333</ele><time>2026-04-12T04:27:35Z</time></trkpt><trkpt lat="-31.43790051053395" lon="115.73071016438347"><ele>70.0</ele><time>2026-04-12T04:27:36Z</time></trkpt><trkpt lat="-31.437901461414896" lon="115.73046150968787"><ele>69.33333333333333</ele><time>2026-04-12T04:27:37Z</time></trkpt><trkpt lat="-31.437902784994463" lon="115.73020791673444"><ele>68.66666666666667</ele><time>2026-04-12T04:27:38Z</time></trkpt><trkpt lat="-31.437902784995657" lon="115.72994408413207"><ele>68.0</ele><time>2026-04-12T04:27:39Z</time></trkpt><trkpt lat="-31.43790458137188" lon="115.72968386744925"><ele>68.0</ele><time>2026-04-12T04:27:40Z</time></trkpt><trkpt lat="-31.437906467597497" lon="115.72942430190272"><ele>68.0</ele><time>2026-04-12T04:27:41Z</time></trkpt><trkpt lat="-31.437908930400937" lon="115.72916197020204"><ele>68.0</ele><time>2026-04-12T04:27:42Z</time></trkpt><trkpt lat="-31.43791111305021" lon="115.72889655398309"><ele>67.0</ele><time>2026-04-12T04:27:43Z</time></trkpt><trkpt lat="-31.437914711833635" lon="115.72862835164231"><ele>66.0</ele><time>2026-04-12T04:27:44Z</time></trkpt><trkpt lat="-31.43791776399982" lon="115.72836019323675"><ele>65.5</ele><time>2026-04-12T04:27:45Z</time></trkpt><trkpt lat="-31.43792136292267" lon="115.72809193738478"><ele>65.0</ele><time>2026-04-12T04:27:46Z</time></trkpt><trkpt lat="-31.43792503947653" lon="115.72782194009385"><ele>65.5</ele><time>2026-04-12T04:27:47Z</time></trkpt><trkpt lat="-31.437928442267385" lon="115.72755912118696"><ele>66.0</ele><time>2026-04-12T04:27:48Z</time></trkpt><trkpt lat="-31.437932223994615" lon="115.72728210815791"><ele>66.0</ele><time>2026-04-12T04:27:49Z</time></trkpt><trkpt lat="-31.437936536967626" lon="115.72701311929815"><ele>66.0</ele><time>2026-04-12T04:27:50Z</time></trkpt><trkpt lat="-31.43794125404446" lon="115.72673576378689"><ele>64.5</ele><time>2026-04-12T04:27:51Z</time></trkpt><trkpt lat="-31.437946453173875" lon="115.72646295172817"><ele>63.0</ele><time>2026-04-12T04:27:52Z</time></trkpt><trkpt lat="-31.437953314317717" lon="115.72618429225983"><ele>62.0</ele><time>2026-04-12T04:27:53Z</time></trkpt><trkpt lat="-31.43795905372794" lon="115.72591215972604"><ele>61.0</ele><time>2026-04-12T04:27:54Z</time></trkpt><trkpt lat="-31.437964852440373" lon="115.72563572652517"><ele>63.5</ele><time>2026-04-12T04:27:55Z</time></trkpt><trkpt lat="-31.437970296803353" lon="115.72535091824973"><ele>66.0</ele><time>2026-04-12T04:27:56Z</time></trkpt><trkpt lat="-31.43797520833017" lon="115.72507010314577"><ele>66.0</ele><time>2026-04-12T04:27:57Z</time></trkpt><trkpt lat="-31.43797916479204" lon="115.72479646721355"><ele>66.0</ele><time>2026-04-12T04:27:58Z</time></trkpt><trkpt lat="-31.437982109220243" lon="115.72451269716728"><ele>66.0</ele><time>2026-04-12T04:27:59Z</time></trkpt><trkpt lat="-31.437985017043115" lon="115.72423202883618"><ele>66.0</ele><time>2026-04-12T04:28:00Z</time></trkpt><trkpt lat="-31.43798728931885" lon="115.7239494553368"><ele>66.0</ele><time>2026-04-12T04:28:01Z</time></trkpt><trkpt lat="-31.437989599136387" lon="115.7236645612429"><ele>66.0</ele><time>2026-04-12T04:28:02Z</time></trkpt><trkpt lat="-31.43799173776222" lon="115.72338943434701"><ele>67.0</ele><time>2026-04-12T04:28:03Z</time></trkpt><trkpt lat="-31.437994401503254" lon="115.72311393607737"><ele>68.0</ele><time>2026-04-12T04:28:04Z</time></trkpt><trkpt lat="-31.43799593603093" lon="115.72284153702228"><ele>65.5</ele><time>2026-04-12T04:28:05Z</time></trkpt><trkpt lat="-31.437997996331625" lon="115.72257085570574"><ele>63.0</ele><time>2026-04-12T04:28:06Z</time></trkpt><trkpt lat="-31.437999283474493" lon="115.72229929248724"><ele>63.0</ele><time>2026-04-12T04:28:07Z</time></trkpt><trkpt lat="-31.438000751803237" lon="115.72203298228463"><ele>63.0</ele><time>2026-04-12T04:28:08Z</time></trkpt><trkpt lat="-31.438002229261418" lon="115.72176501625007"><ele>62.5</ele><time>2026-04-12T04:28:09Z</time></trkpt><trkpt lat="-31.438003743278156" lon="115.72149758100316"><ele>62.0</ele><time>2026-04-12T04:28:10Z</time></trkpt><trkpt lat="-31.438005483772418" lon="115.7212300922387"><ele>61.5</ele><time>2026-04-12T04:28:11Z</time></trkpt><trkpt lat="-31.438007364630703" lon="115.72095913241802"><ele>61.0</ele><time>2026-04-12T04:28:12Z</time></trkpt><trkpt lat="-31.438009055524823" lon="115.72069469207878"><ele>61.0</ele><time>2026-04-12T04:28:13Z</time></trkpt><trkpt lat="-31.438010369015128" lon="115.72044029946056"><ele>61.0</ele><time>2026-04-12T04:28:14Z</time></trkpt><trkpt lat="-31.43801168890249" lon="115.72018492138066"><ele>61.0</ele><time>2026-04-12T04:28:15Z</time></trkpt><trkpt lat="-31.43801298280162" lon="115.7199359295725"><ele>61.666666666666664</ele><time>2026-04-12T04:28:16Z</time></trkpt><trkpt lat="-31.438014006191978" lon="115.71970769885338"><ele>62.33333333333333</ele><time>2026-04-12T04:28:17Z</time></trkpt><trkpt lat="-31.438014738963226" lon="115.71949885846041"><ele>63.0</ele><time>2026-04-12T04:28:18Z</time></trkpt><trkpt lat="-31.438014984991266" lon="115.71931225020954"><ele>63.0</ele><time>2026-04-12T04:28:19Z</time></trkpt><trkpt lat="-31.438015788677614" lon="115.71916489489155"><ele>63.0</ele><time>2026-04-12T04:28:20Z</time></trkpt><trkpt lat="-31.438016084987833" lon="115.71904770849088"><ele>63.0</ele><time>2026-04-12T04:28:21Z</time></trkpt><trkpt lat="-31.438016084987886" lon="115.71896958896468"><ele>63.0</ele><time>2026-04-12T04:28:22Z</time></trkpt><trkpt lat="-31.438016084985623" lon="115.71880735924677"><ele>63.0</ele><time>2026-04-12T04:28:24Z</time></trkpt><trkpt lat="-31.438016084984415" lon="115.71869199422854"><ele>63.0</ele><time>2026-04-12T04:28:25.001Z</time></trkpt><trkpt lat="-31.43798164697373" lon="115.71857384533541"><ele>63.0</ele><time>2026-04-12T04:28:26.001Z</time></trkpt><trkpt lat="-31.43798526431369" lon="115.71842739549237"><ele>63.0</ele><time>2026-04-12T04:28:27.001Z</time></trkpt><trkpt lat="-31.437988873464136" lon="115.71825895355619"><ele>63.0</ele><time>2026-04-12T04:28:28.001Z</time></trkpt><trkpt lat="-31.437995409345742" lon="115.7180752531337"><ele>64.0</ele><time>2026-04-12T04:28:29.001Z</time></trkpt><trkpt lat="-31.43799620826443" lon="115.71787327835094"><ele>65.0</ele><time>2026-04-12T04:28:30.001Z</time></trkpt><trkpt lat="-31.437994412609502" lon="115.7176435705673"><ele>66.0</ele><time>2026-04-12T04:28:31.001Z</time></trkpt><trkpt lat="-31.437991168809166" lon="115.71743156006613"><ele>66.66666666666667</ele><time>2026-04-12T04:28:32.001Z</time></trkpt><trkpt lat="-31.43799610667399" lon="115.71720151318212"><ele>67.33333333333334</ele><time>2026-04-12T04:28:33.001Z</time></trkpt><trkpt lat="-31.437997742896687" lon="115.71695988220756"><ele>68.0</ele><time>2026-04-12T04:28:34.001Z</time></trkpt><trkpt lat="-31.437998155705454" lon="115.71672000520327"><ele>69.0</ele><time>2026-04-12T04:28:35.001Z</time></trkpt><trkpt lat="-31.43799606565908" lon="115.71647687358116"><ele>70.0</ele><time>2026-04-12T04:28:36.001Z</time></trkpt><trkpt lat="-31.437994842046074" lon="115.71622392376959"><ele>71.0</ele><time>2026-04-12T04:28:37.001Z</time></trkpt><trkpt lat="-31.43799457126512" lon="115.71595725902822"><ele>71.33333333333334</ele><time>2026-04-12T04:28:38.001Z</time></trkpt><trkpt lat="-31.437996701354315" lon="115.71569603184572"><ele>71.66666666666667</ele><time>2026-04-12T04:28:39.001Z</time></trkpt><trkpt lat="-31.43799764663629" lon="115.71543390762983"><ele>72.0</ele><time>2026-04-12T04:28:40.001Z</time></trkpt><trkpt lat="-31.437996056363474" lon="115.71516978936226"><ele>73.33333333333333</ele><time>2026-04-12T04:28:41.001Z</time></trkpt><trkpt lat="-31.437997784393513" lon="115.7149217248438"><ele>74.66666666666666</ele><time>2026-04-12T04:28:42.001Z</time></trkpt><trkpt lat="-31.438001128887734" lon="115.71467984419192"><ele>76.0</ele><time>2026-04-12T04:28:43.001Z</time></trkpt><trkpt lat="-31.438003350432258" lon="115.71444317192085"><ele>75.0</ele><time>2026-04-12T04:28:44.001Z</time></trkpt><trkpt lat="-31.4379985696107" lon="115.71419630857538"><ele>74.0</ele><time>2026-04-12T04:28:45.001Z</time></trkpt><trkpt lat="-31.437996515502622" lon="115.71393858122754"><ele>73.0</ele><time>2026-04-12T04:28:46.001Z</time></trkpt><trkpt lat="-31.438000603159782" lon="115.71367274842014"><ele>72.0</ele><time>2026-04-12T04:28:47.001Z</time></trkpt><trkpt lat="-31.438009506932033" lon="115.71341182797892"><ele>71.0</ele><time>2026-04-12T04:28:48.001Z</time></trkpt><trkpt lat="-31.438009099422047" lon="115.71314626704934"><ele>70.0</ele><time>2026-04-12T04:28:49.001Z</time></trkpt><trkpt lat="-31.438007435827757" lon="115.71288051877238"><ele>69.5</ele><time>2026-04-12T04:28:50.001Z</time></trkpt><trkpt lat="-31.4380105831077" lon="115.71261136332559"><ele>69.0</ele><time>2026-04-12T04:28:51.001Z</time></trkpt><trkpt lat="-31.438017130335517" lon="115.71234323391128"><ele>69.0</ele><time>2026-04-12T04:28:52.001Z</time></trkpt><trkpt lat="-31.438024315466564" lon="115.71207407315397"><ele>69.0</ele><time>2026-04-12T04:28:53.001Z</time></trkpt><trkpt lat="-31.438026372917946" lon="115.71179533931628"><ele>69.5</ele><time>2026-04-12T04:28:54.001Z</time></trkpt><trkpt lat="-31.438027908895428" lon="115.71151985047628"><ele>70.0</ele><time>2026-04-12T04:28:55.001Z</time></trkpt><trkpt lat="-31.438030526450977" lon="115.7112530291309"><ele>70.66666666666666</ele><time>2026-04-12T04:28:56.001Z</time></trkpt><trkpt lat="-31.43803264629323" lon="115.71099006436201"><ele>71.33333333333333</ele><time>2026-04-12T04:28:57.001Z</time></trkpt><trkpt lat="-31.43803699551367" lon="115.71073371193417"><ele>72.0</ele><time>2026-04-12T04:28:58.001Z</time></trkpt><trkpt lat="-31.43803982064096" lon="115.71046952531611"><ele>73.66666666666667</ele><time>2026-04-12T04:28:59.001Z</time></trkpt><trkpt lat="-31.43804213078602" lon="115.71022130043627"><ele>75.33333333333334</ele><time>2026-04-12T04:29:00.001Z</time></trkpt><trkpt lat="-31.43804077132238" lon="115.70998091052935"><ele>77.0</ele><time>2026-04-12T04:29:01.001Z</time></trkpt><trkpt lat="-31.438036908967153" lon="115.70974902956293"><ele>77.0</ele><time>2026-04-12T04:29:02.001Z</time></trkpt><trkpt lat="-31.438041416820194" lon="115.70950949349937"><ele>77.0</ele><time>2026-04-12T04:29:03.001Z</time></trkpt><trkpt lat="-31.438052230061203" lon="115.70927295996766"><ele>77.0</ele><time>2026-04-12T04:29:04.001Z</time></trkpt><trkpt lat="-31.438061536501976" lon="115.70903249754289"><ele>78.0</ele><time>2026-04-12T04:29:05.001Z</time></trkpt><trkpt lat="-31.438067174896336" lon="115.70879734961737"><ele>79.0</ele><time>2026-04-12T04:29:06.001Z</time></trkpt><trkpt lat="-31.43807085162671" lon="115.70855714619394"><ele>80.0</ele><time>2026-04-12T04:29:07.001Z</time></trkpt><trkpt lat="-31.438071431778265" lon="115.70831305375677"><ele>80.0</ele><time>2026-04-12T04:29:08.001Z</time></trkpt><trkpt lat="-31.43807017067298" lon="115.70807163330765"><ele>80.0</ele><time>2026-04-12T04:29:09.001Z</time></trkpt><trkpt lat="-31.43806487337909" lon="115.70781464305287"><ele>80.0</ele><time>2026-04-12T04:29:10.001Z</time></trkpt><trkpt lat="-31.438062451295036" lon="115.70758677121447"><ele>79.33333333333334</ele><time>2026-04-12T04:29:11.001Z</time></trkpt><trkpt lat="-31.438062375637106" lon="115.70735757153355"><ele>78.66666666666667</ele><time>2026-04-12T04:29:12.001Z</time></trkpt><trkpt lat="-31.438061699788474" lon="115.7071410494681"><ele>78.0</ele><time>2026-04-12T04:29:13.001Z</time></trkpt><trkpt lat="-31.438058311684866" lon="115.70693296076062"><ele>77.25</ele><time>2026-04-12T04:29:14.001Z</time></trkpt><trkpt lat="-31.438060247639097" lon="115.70673208429167"><ele>76.5</ele><time>2026-04-12T04:29:15.001Z</time></trkpt><trkpt lat="-31.43805756617555" lon="115.70656141831556"><ele>75.75</ele><time>2026-04-12T04:29:16.001Z</time></trkpt><trkpt lat="-31.43805935891545" lon="115.70641821597444"><ele>75.0</ele><time>2026-04-12T04:29:17.001Z</time></trkpt><trkpt lat="-31.438058984158662" lon="115.70629824323923"><ele>75.0</ele><time>2026-04-12T04:29:18.001Z</time></trkpt><trkpt lat="-31.438064200118905" lon="115.70619111543722"><ele>75.0</ele><time>2026-04-12T04:29:19.001Z</time></trkpt><trkpt lat="-31.438066735194237" lon="115.70610345983715"><ele>75.0</ele><time>2026-04-12T04:29:20.001Z</time></trkpt><trkpt lat="-31.438059881153148" lon="115.70596511518033"><ele>75.0</ele><time>2026-04-12T04:29:22.001Z</time></trkpt><trkpt lat="-31.43799898513569" lon="115.70584617583413"><ele>75.0</ele><time>2026-04-12T04:29:24.001Z</time></trkpt><trkpt lat="-31.437911075292153" lon="115.7057805176631"><ele>76.25</ele><time>2026-04-12T04:29:26Z</time></trkpt><trkpt lat="-31.437787265985914" lon="115.70579225527531"><ele>77.5</ele><time>2026-04-12T04:29:28Z</time></trkpt><trkpt lat="-31.437695110723823" lon="115.70579635370039"><ele>78.75</ele><time>2026-04-12T04:29:29Z</time></trkpt><trkpt lat="-31.4375884381735" lon="115.70579845688643"><ele>80.0</ele><time>2026-04-12T04:29:30Z</time></trkpt><trkpt lat="-31.43745656350032" lon="115.70579984642677"><ele>80.0</ele><time>2026-04-12T04:29:31Z</time></trkpt><trkpt lat="-31.43730655710047" lon="115.70577362514969"><ele>80.0</ele><time>2026-04-12T04:29:32Z</time></trkpt><trkpt lat="-31.43713534228146" lon="115.70576226258551"><ele>80.0</ele><time>2026-04-12T04:29:33Z</time></trkpt><trkpt lat="-31.43694255737135" lon="115.70574848620289"><ele>79.0</ele><time>2026-04-12T04:29:34Z</time></trkpt><trkpt lat="-31.436735596807452" lon="115.70573366688768"><ele>78.0</ele><time>2026-04-12T04:29:35Z</time></trkpt><trkpt lat="-31.43652385026529" lon="115.70571851501641"><ele>77.0</ele><time>2026-04-12T04:29:36Z</time></trkpt><trkpt lat="-31.43629768938754" lon="115.70570126627138"><ele>77.0</ele><time>2026-04-12T04:29:37Z</time></trkpt><trkpt lat="-31.436056175469275" lon="115.70568101423878"><ele>77.0</ele><time>2026-04-12T04:29:38Z</time></trkpt><trkpt lat="-31.435818817479227" lon="115.70565785187637"><ele>77.0</ele><time>2026-04-12T04:29:39Z</time></trkpt><trkpt lat="-31.435572488012244" lon="115.70563352291678"><ele>77.0</ele><time>2026-04-12T04:29:40Z</time></trkpt><trkpt lat="-31.43533546389501" lon="115.70561007516055"><ele>77.5</ele><time>2026-04-12T04:29:41Z</time></trkpt><trkpt lat="-31.43510722759347" lon="115.70558748484689"><ele>78.0</ele><time>2026-04-12T04:29:42Z</time></trkpt><trkpt lat="-31.43487131263719" lon="115.70556370800618"><ele>80.5</ele><time>2026-04-12T04:29:43Z</time></trkpt><trkpt lat="-31.434636563521742" lon="115.70553931326656"><ele>83.0</ele><time>2026-04-12T04:29:44Z</time></trkpt><trkpt lat="-31.434407537525203" lon="115.70551330961895"><ele>83.0</ele><time>2026-04-12T04:29:45Z</time></trkpt><trkpt lat="-31.43417689086927" lon="115.70548211822792"><ele>83.0</ele><time>2026-04-12T04:29:46Z</time></trkpt><trkpt lat="-31.433955766240135" lon="115.70545057934953"><ele>83.5</ele><time>2026-04-12T04:29:47Z</time></trkpt><trkpt lat="-31.433728622299178" lon="115.70542202234046"><ele>84.0</ele><time>2026-04-12T04:29:48Z</time></trkpt><trkpt lat="-31.43349813327689" lon="115.70539598005391"><ele>84.0</ele><time>2026-04-12T04:29:49Z</time></trkpt><trkpt lat="-31.433265160899648" lon="115.70537291180327"><ele>84.0</ele><time>2026-04-12T04:29:50Z</time></trkpt><trkpt lat="-31.4330406709958" lon="115.70535149519213"><ele>85.0</ele><time>2026-04-12T04:29:51Z</time></trkpt><trkpt lat="-31.43280459782459" lon="115.70532949120592"><ele>86.0</ele><time>2026-04-12T04:29:52Z</time></trkpt><trkpt lat="-31.432582848630833" lon="115.70530822423979"><ele>86.0</ele><time>2026-04-12T04:29:53Z</time></trkpt><trkpt lat="-31.432354037581714" lon="115.70528568148549"><ele>86.0</ele><time>2026-04-12T04:29:54Z</time></trkpt><trkpt lat="-31.432119474772733" lon="115.70526116438566"><ele>85.33333333333334</ele><time>2026-04-12T04:29:55Z</time></trkpt><trkpt lat="-31.431904734617003" lon="115.70523412006396"><ele>84.66666666666667</ele><time>2026-04-12T04:29:56Z</time></trkpt><trkpt lat="-31.431691678465256" lon="115.70520569446465"><ele>84.0</ele><time>2026-04-12T04:29:57Z</time></trkpt><trkpt lat="-31.431491278990674" lon="115.7051794389077"><ele>84.0</ele><time>2026-04-12T04:29:58Z</time></trkpt><trkpt lat="-31.431307756255016" lon="115.70516134283913"><ele>84.0</ele><time>2026-04-12T04:29:59Z</time></trkpt><trkpt lat="-31.431147399149243" lon="115.70515464073166"><ele>84.0</ele><time>2026-04-12T04:30:00Z</time></trkpt><trkpt lat="-31.43099004402703" lon="115.7051583247986"><ele>84.66666666666667</ele><time>2026-04-12T04:30:01Z</time></trkpt><trkpt lat="-31.430831918210924" lon="115.70519102275841"><ele>85.33333333333334</ele><time>2026-04-12T04:30:02Z</time></trkpt><trkpt lat="-31.430672153409095" lon="115.70526635608279"><ele>86.0</ele><time>2026-04-12T04:30:03Z</time></trkpt><trkpt lat="-31.43052390202415" lon="115.70537742941208"><ele>84.33333333333334</ele><time>2026-04-12T04:30:04Z</time></trkpt><trkpt lat="-31.430365946798766" lon="115.70550590573986"><ele>82.66666666666667</ele><time>2026-04-12T04:30:05Z</time></trkpt><trkpt lat="-31.430207695861245" lon="115.70565779385016"><ele>81.0</ele><time>2026-04-12T04:30:06Z</time></trkpt><trkpt lat="-31.430043583552344" lon="115.7058207600264"><ele>81.0</ele><time>2026-04-12T04:30:07Z</time></trkpt><trkpt lat="-31.42988386903139" lon="115.70598736769219"><ele>81.0</ele><time>2026-04-12T04:30:08Z</time></trkpt><trkpt lat="-31.42970858350688" lon="115.70616765742089"><ele>81.0</ele><time>2026-04-12T04:30:09Z</time></trkpt><trkpt lat="-31.429531567087448" lon="115.70635008852321"><ele>80.5</ele><time>2026-04-12T04:30:10Z</time></trkpt><trkpt lat="-31.429356266846643" lon="115.70653715304246"><ele>80.0</ele><time>2026-04-12T04:30:11Z</time></trkpt><trkpt lat="-31.429182899828856" lon="115.706723011273"><ele>80.0</ele><time>2026-04-12T04:30:12Z</time></trkpt><trkpt lat="-31.429023372348002" lon="115.70690035437349"><ele>80.0</ele><time>2026-04-12T04:30:13Z</time></trkpt><trkpt lat="-31.428869334227727" lon="115.70707475271749"><ele>80.0</ele><time>2026-04-12T04:30:14Z</time></trkpt><trkpt lat="-31.428725837287903" lon="115.70725812973599"><ele>79.66666666666667</ele><time>2026-04-12T04:30:15Z</time></trkpt><trkpt lat="-31.428582344394954" lon="115.70745000179403"><ele>79.33333333333333</ele><time>2026-04-12T04:30:16Z</time></trkpt><trkpt lat="-31.428442959333072" lon="115.70763633484073"><ele>79.0</ele><time>2026-04-12T04:30:17Z</time></trkpt><trkpt lat="-31.4283063753365" lon="115.70781395693626"><ele>79.0</ele><time>2026-04-12T04:30:18Z</time></trkpt><trkpt lat="-31.428169377799463" lon="115.70798590884347"><ele>79.0</ele><time>2026-04-12T04:30:19Z</time></trkpt><trkpt lat="-31.42804117734213" lon="115.70815089697692"><ele>79.0</ele><time>2026-04-12T04:30:20Z</time></trkpt><trkpt lat="-31.42791059731496" lon="115.70829757492207"><ele>79.0</ele><time>2026-04-12T04:30:21Z</time></trkpt><trkpt lat="-31.427768397700873" lon="115.70842749052949"><ele>79.0</ele><time>2026-04-12T04:30:22Z</time></trkpt><trkpt lat="-31.427608221443744" lon="115.70852391572282"><ele>79.0</ele><time>2026-04-12T04:30:23Z</time></trkpt><trkpt lat="-31.427432402759308" lon="115.70860037040627"><ele>79.33333333333333</ele><time>2026-04-12T04:30:24Z</time></trkpt><trkpt lat="-31.42724429182162" lon="115.70866183354158"><ele>79.66666666666667</ele><time>2026-04-12T04:30:25Z</time></trkpt><trkpt lat="-31.42704051444111" lon="115.70870949977281"><ele>80.0</ele><time>2026-04-12T04:30:26Z</time></trkpt><trkpt lat="-31.42681322943591" lon="115.7087484609713"><ele>80.0</ele><time>2026-04-12T04:30:27Z</time></trkpt><trkpt lat="-31.426581499054826" lon="115.70879791427839"><ele>80.0</ele><time>2026-04-12T04:30:28Z</time></trkpt><trkpt lat="-31.426349481297915" lon="115.7088514537161"><ele>78.0</ele><time>2026-04-12T04:30:29Z</time></trkpt><trkpt lat="-31.426112957520584" lon="115.70890223763648"><ele>76.0</ele><time>2026-04-12T04:30:30Z</time></trkpt><trkpt lat="-31.425884317786114" lon="115.70895249980732"><ele>76.0</ele><time>2026-04-12T04:30:31Z</time></trkpt><trkpt lat="-31.425654966311907" lon="115.70899882565682"><ele>76.0</ele><time>2026-04-12T04:30:32Z</time></trkpt><trkpt lat="-31.425421780698326" lon="115.70904670800735"><ele>75.5</ele><time>2026-04-12T04:30:33Z</time></trkpt><trkpt lat="-31.425194952899705" lon="115.7090982038085"><ele>75.0</ele><time>2026-04-12T04:30:34Z</time></trkpt><trkpt lat="-31.424964942063212" lon="115.70914872815209"><ele>75.0</ele><time>2026-04-12T04:30:35Z</time></trkpt><trkpt lat="-31.424742025278064" lon="115.70920504750237"><ele>75.0</ele><time>2026-04-12T04:30:36Z</time></trkpt><trkpt lat="-31.424513003575388" lon="115.7092600062683"><ele>73.5</ele><time>2026-04-12T04:30:37Z</time></trkpt><trkpt lat="-31.424287915542674" lon="115.7093122937377"><ele>72.0</ele><time>2026-04-12T04:30:38Z</time></trkpt><trkpt lat="-31.424060705510374" lon="115.70936121920319"><ele>72.33333333333333</ele><time>2026-04-12T04:30:39.001Z</time></trkpt><trkpt lat="-31.42383697440103" lon="115.7094097009581"><ele>72.66666666666666</ele><time>2026-04-12T04:30:40.001Z</time></trkpt><trkpt lat="-31.42361940593265" lon="115.70945331387941"><ele>73.0</ele><time>2026-04-12T04:30:41.001Z</time></trkpt><trkpt lat="-31.423404479276982" lon="115.70948780960258"><ele>73.0</ele><time>2026-04-12T04:30:42.001Z</time></trkpt><trkpt lat="-31.423184446695323" lon="115.7095082099312"><ele>73.0</ele><time>2026-04-12T04:30:43.001Z</time></trkpt><trkpt lat="-31.422956430112244" lon="115.70951382484631"><ele>73.0</ele><time>2026-04-12T04:30:44.001Z</time></trkpt><trkpt lat="-31.42273398770502" lon="115.70951055121282"><ele>72.5</ele><time>2026-04-12T04:30:45.001Z</time></trkpt><trkpt lat="-31.422497796994232" lon="115.70950629255026"><ele>72.0</ele><time>2026-04-12T04:30:46.001Z</time></trkpt><trkpt lat="-31.422256985840555" lon="115.70950463517718"><ele>72.0</ele><time>2026-04-12T04:30:47.001Z</time></trkpt><trkpt lat="-31.4220135170935" lon="115.70950696297017"><ele>72.0</ele><time>2026-04-12T04:30:48.001Z</time></trkpt><trkpt lat="-31.421771280128514" lon="115.70950952524353"><ele>72.0</ele><time>2026-04-12T04:30:49.001Z</time></trkpt><trkpt lat="-31.42155195471054" lon="115.70951101904794"><ele>72.0</ele><time>2026-04-12T04:30:50.001Z</time></trkpt><trkpt lat="-31.421334767187414" lon="115.70950938353995"><ele>72.0</ele><time>2026-04-12T04:30:51.001Z</time></trkpt><trkpt lat="-31.421111499847196" lon="115.70951469684061"><ele>70.5</ele><time>2026-04-12T04:30:52.001Z</time></trkpt><trkpt lat="-31.420879535686012" lon="115.70951993684835"><ele>69.0</ele><time>2026-04-12T04:30:53.001Z</time></trkpt><trkpt lat="-31.42064087437578" lon="115.70952337148141"><ele>70.0</ele><time>2026-04-12T04:30:54.001Z</time></trkpt><trkpt lat="-31.420401916586766" lon="115.7095300869879"><ele>71.0</ele><time>2026-04-12T04:30:55.001Z</time></trkpt><trkpt lat="-31.420159012639115" lon="115.70953325791425"><ele>71.0</ele><time>2026-04-12T04:30:56.001Z</time></trkpt><trkpt lat="-31.419917875445478" lon="115.70953312173226"><ele>71.0</ele><time>2026-04-12T04:30:57.001Z</time></trkpt><trkpt lat="-31.419679957189636" lon="115.70953547529875"><ele>71.0</ele><time>2026-04-12T04:30:58.001Z</time></trkpt><trkpt lat="-31.41944028609053" lon="115.70954169778604"><ele>71.0</ele><time>2026-04-12T04:30:59.001Z</time></trkpt><trkpt lat="-31.419198901106483" lon="115.70955286739944"><ele>71.0</ele><time>2026-04-12T04:31:00.001Z</time></trkpt><trkpt lat="-31.418967664783114" lon="115.70956128089715"><ele>71.0</ele><time>2026-04-12T04:31:01.001Z</time></trkpt><trkpt lat="-31.41873209376019" lon="115.70956663846705"><ele>70.0</ele><time>2026-04-12T04:31:02.001Z</time></trkpt><trkpt lat="-31.41849920523494" lon="115.70956806033986"><ele>69.0</ele><time>2026-04-12T04:31:03.001Z</time></trkpt><trkpt lat="-31.41826535694389" lon="115.70957506852638"><ele>69.0</ele><time>2026-04-12T04:31:04.001Z</time></trkpt><trkpt lat="-31.418034741764973" lon="115.70957545642423"><ele>69.0</ele><time>2026-04-12T04:31:05.001Z</time></trkpt><trkpt lat="-31.4178160587959" lon="115.70958114250313"><ele>69.0</ele><time>2026-04-12T04:31:06.001Z</time></trkpt><trkpt lat="-31.417586170094502" lon="115.70959159591345"><ele>69.0</ele><time>2026-04-12T04:31:07.001Z</time></trkpt><trkpt lat="-31.41736027321412" lon="115.70960060055597"><ele>69.0</ele><time>2026-04-12T04:31:08.001Z</time></trkpt><trkpt lat="-31.417135037629823" lon="115.70960297532922"><ele>69.0</ele><time>2026-04-12T04:31:09.001Z</time></trkpt><trkpt lat="-31.416928181766636" lon="115.70960646896424"><ele>69.0</ele><time>2026-04-12T04:31:10.001Z</time></trkpt><trkpt lat="-31.41669777583634" lon="115.70960922872791"><ele>69.0</ele><time>2026-04-12T04:31:11.001Z</time></trkpt><trkpt lat="-31.416474680593957" lon="115.70961459558882"><ele>69.5</ele><time>2026-04-12T04:31:12.001Z</time></trkpt><trkpt lat="-31.41624246072087" lon="115.7096174877725"><ele>70.0</ele><time>2026-04-12T04:31:13.001Z</time></trkpt><trkpt lat="-31.416014585711856" lon="115.709622689154"><ele>70.0</ele><time>2026-04-12T04:31:14.001Z</time></trkpt><trkpt lat="-31.415768986384446" lon="115.70962614847092"><ele>70.0</ele><time>2026-04-12T04:31:15.001Z</time></trkpt><trkpt lat="-31.41553055281915" lon="115.70963358208886"><ele>69.0</ele><time>2026-04-12T04:31:16.001Z</time></trkpt><trkpt lat="-31.415290693876297" lon="115.70964090739953"><ele>68.0</ele><time>2026-04-12T04:31:17.001Z</time></trkpt><trkpt lat="-31.415052395251823" lon="115.70964796404792"><ele>68.0</ele><time>2026-04-12T04:31:18.001Z</time></trkpt><trkpt lat="-31.414812032432472" lon="115.70965516752388"><ele>68.0</ele><time>2026-04-12T04:31:19.001Z</time></trkpt><trkpt lat="-31.4145744430457" lon="115.70966234571038"><ele>67.5</ele><time>2026-04-12T04:31:20.001Z</time></trkpt><trkpt lat="-31.41433075952364" lon="115.70966885378816"><ele>67.0</ele><time>2026-04-12T04:31:21.001Z</time></trkpt><trkpt lat="-31.414092027963694" lon="115.7096787632808"><ele>67.0</ele><time>2026-04-12T04:31:22.001Z</time></trkpt><trkpt lat="-31.4138597656327" lon="115.70968796735968"><ele>67.0</ele><time>2026-04-12T04:31:23.001Z</time></trkpt><trkpt lat="-31.41362538768718" lon="115.70967168662145"><ele>66.5</ele><time>2026-04-12T04:31:24.001Z</time></trkpt><trkpt lat="-31.41339122185836" lon="115.70969712812766"><ele>66.0</ele><time>2026-04-12T04:31:25.001Z</time></trkpt><trkpt lat="-31.413156188943404" lon="115.7097036343742"><ele>66.0</ele><time>2026-04-12T04:31:26.001Z</time></trkpt><trkpt lat="-31.412927075373904" lon="115.70970964194967"><ele>66.0</ele><time>2026-04-12T04:31:27.001Z</time></trkpt><trkpt lat="-31.41271423054837" lon="115.70971479160654"><ele>66.0</ele><time>2026-04-12T04:31:28.001Z</time></trkpt><trkpt lat="-31.41251227117945" lon="115.709701734682"><ele>66.0</ele><time>2026-04-12T04:31:29.001Z</time></trkpt><trkpt lat="-31.4123073246215" lon="115.7097050357246"><ele>66.0</ele><time>2026-04-12T04:31:30.001Z</time></trkpt><trkpt lat="-31.412102457616967" lon="115.7097085478719"><ele>66.0</ele><time>2026-04-12T04:31:31Z</time></trkpt><trkpt lat="-31.41191900604887" lon="115.70971147097102"><ele>65.0</ele><time>2026-04-12T04:31:32Z</time></trkpt><trkpt lat="-31.411725298955396" lon="115.70971499702998"><ele>64.0</ele><time>2026-04-12T04:31:33Z</time></trkpt><trkpt lat="-31.411548025423176" lon="115.70971777486714"><ele>63.0</ele><time>2026-04-12T04:31:34Z</time></trkpt><trkpt lat="-31.41137350130777" lon="115.70972483514666"><ele>62.66666666666667</ele><time>2026-04-12T04:31:35Z</time></trkpt><trkpt lat="-31.41121030034821" lon="115.70973219374866"><ele>62.333333333333336</ele><time>2026-04-12T04:31:36Z</time></trkpt><trkpt lat="-31.411057001387025" lon="115.7097393578977"><ele>62.0</ele><time>2026-04-12T04:31:37Z</time></trkpt><trkpt lat="-31.410915953102553" lon="115.7097440813639"><ele>62.0</ele><time>2026-04-12T04:31:38Z</time></trkpt><trkpt lat="-31.410785965859837" lon="115.70974446584314"><ele>62.0</ele><time>2026-04-12T04:31:39Z</time></trkpt><trkpt lat="-31.410681485333672" lon="115.70973857292475"><ele>62.0</ele><time>2026-04-12T04:31:40Z</time></trkpt><trkpt lat="-31.410585434542437" lon="115.7097281965363"><ele>62.0</ele><time>2026-04-12T04:31:41Z</time></trkpt><trkpt lat="-31.41049696136601" lon="115.70969863725556"><ele>62.0</ele><time>2026-04-12T04:31:42Z</time></trkpt><trkpt lat="-31.410429612338078" lon="115.70964303080154"><ele>61.00000000000001</ele><time>2026-04-12T04:31:43Z</time></trkpt><trkpt lat="-31.410369358192515" lon="115.70958248031182"><ele>60.0</ele><time>2026-04-12T04:31:44Z</time></trkpt><trkpt lat="-31.41037415828386" lon="115.70949479464683"><ele>59.0</ele><time>2026-04-12T04:31:47Z</time></trkpt><trkpt lat="-31.410347334280072" lon="115.70937443351303"><ele>58.0</ele><time>2026-04-12T04:31:49Z</time></trkpt><trkpt lat="-31.4103469197233" lon="115.70928088228989"><ele>57.00000000000001</ele><time>2026-04-12T04:31:50Z</time></trkpt><trkpt lat="-31.410345185308678" lon="115.70916295748141"><ele>56.0</ele><time>2026-04-12T04:31:51Z</time></trkpt><trkpt lat="-31.410368168913095" lon="115.70901198762014"><ele>56.0</ele><time>2026-04-12T04:31:52Z</time></trkpt><trkpt lat="-31.410381821589134" lon="115.70883631586621"><ele>56.0</ele><time>2026-04-12T04:31:53Z</time></trkpt><trkpt lat="-31.410387719324618" lon="115.70864207359735"><ele>56.0</ele><time>2026-04-12T04:31:54Z</time></trkpt><trkpt lat="-31.4103913220709" lon="115.70844396321866"><ele>58.0</ele><time>2026-04-12T04:31:55Z</time></trkpt><trkpt lat="-31.41039073350047" lon="115.70822715391579"><ele>60.0</ele><time>2026-04-12T04:31:56Z</time></trkpt><trkpt lat="-31.41038908504999" lon="115.70800243437058"><ele>62.0</ele><time>2026-04-12T04:31:57Z</time></trkpt><trkpt lat="-31.4103902240981" lon="115.70777505072496"><ele>62.66666666666667</ele><time>2026-04-12T04:31:58Z</time></trkpt><trkpt lat="-31.41039401976142" lon="115.70753162412431"><ele>63.33333333333333</ele><time>2026-04-12T04:31:59Z</time></trkpt><trkpt lat="-31.410398783976603" lon="115.70727679793357"><ele>64.0</ele><time>2026-04-12T04:32:00Z</time></trkpt><trkpt lat="-31.410405067139646" lon="115.70702544123874"><ele>64.66666666666666</ele><time>2026-04-12T04:32:01Z</time></trkpt><trkpt lat="-31.41041210498798" lon="115.70677894909203"><ele>65.33333333333333</ele><time>2026-04-12T04:32:02Z</time></trkpt><trkpt lat="-31.410422401073234" lon="115.70652310262405"><ele>66.0</ele><time>2026-04-12T04:32:03Z</time></trkpt><trkpt lat="-31.41043291925474" lon="115.70627250416678"><ele>65.66666666666667</ele><time>2026-04-12T04:32:04Z</time></trkpt><trkpt lat="-31.410442970823052" lon="115.70602423584448"><ele>65.33333333333334</ele><time>2026-04-12T04:32:05Z</time></trkpt><trkpt lat="-31.410453193195217" lon="115.70577899901963"><ele>65.0</ele><time>2026-04-12T04:32:06Z</time></trkpt><trkpt lat="-31.41046204879346" lon="115.70553321528271"><ele>65.0</ele><time>2026-04-12T04:32:07Z</time></trkpt><trkpt lat="-31.41046858329166" lon="115.70528548426321"><ele>65.0</ele><time>2026-04-12T04:32:08Z</time></trkpt><trkpt lat="-31.41046748087641" lon="115.70502927974741"><ele>65.0</ele><time>2026-04-12T04:32:09Z</time></trkpt><trkpt lat="-31.410463300348347" lon="115.70477087450297"><ele>65.0</ele><time>2026-04-12T04:32:10Z</time></trkpt><trkpt lat="-31.410462529421267" lon="115.7045228386137"><ele>65.0</ele><time>2026-04-12T04:32:11Z</time></trkpt><trkpt lat="-31.410473595857482" lon="115.70428612230151"><ele>65.0</ele><time>2026-04-12T04:32:12Z</time></trkpt><trkpt lat="-31.410495075148397" lon="115.7040557441832"><ele>65.0</ele><time>2026-04-12T04:32:13Z</time></trkpt><trkpt lat="-31.410531566172427" lon="115.70383485824044"><ele>65.0</ele><time>2026-04-12T04:32:14Z</time></trkpt><trkpt lat="-31.410592555983083" lon="115.70363087468337"><ele>65.0</ele><time>2026-04-12T04:32:15Z</time></trkpt><trkpt lat="-31.410661489543863" lon="115.70344817016505"><ele>65.25</ele><time>2026-04-12T04:32:16Z</time></trkpt><trkpt lat="-31.41071378755202" lon="115.7032804315468"><ele>65.5</ele><time>2026-04-12T04:32:17Z</time></trkpt><trkpt lat="-31.41075589186248" lon="115.70312404260689"><ele>65.75</ele><time>2026-04-12T04:32:18Z</time></trkpt><trkpt lat="-31.41078069754619" lon="115.7029493411707"><ele>66.0</ele><time>2026-04-12T04:32:19Z</time></trkpt><trkpt lat="-31.410771147168028" lon="115.70275979612221"><ele>66.33333333333333</ele><time>2026-04-12T04:32:20Z</time></trkpt><trkpt lat="-31.410749745208015" lon="115.70255111883539"><ele>66.66666666666666</ele><time>2026-04-12T04:32:21Z</time></trkpt><trkpt lat="-31.410719972646298" lon="115.70232525173945"><ele>67.0</ele><time>2026-04-12T04:32:22Z</time></trkpt><trkpt lat="-31.410682105979152" lon="115.70209613647398"><ele>67.0</ele><time>2026-04-12T04:32:23Z</time></trkpt><trkpt lat="-31.410636430334286" lon="115.701860069063"><ele>67.0</ele><time>2026-04-12T04:32:24Z</time></trkpt><trkpt lat="-31.410591148760425" lon="115.70163439556379"><ele>67.0</ele><time>2026-04-12T04:32:25Z</time></trkpt><trkpt lat="-31.410555107844978" lon="115.70140797927812"><ele>67.0</ele><time>2026-04-12T04:32:26Z</time></trkpt><trkpt lat="-31.410532619677102" lon="115.70118289492486"><ele>67.0</ele><time>2026-04-12T04:32:27Z</time></trkpt><trkpt lat="-31.410517187484796" lon="115.70094454532004"><ele>67.0</ele><time>2026-04-12T04:32:28Z</time></trkpt><trkpt lat="-31.410505658151173" lon="115.7006913895384"><ele>67.0</ele><time>2026-04-12T04:32:29Z</time></trkpt><trkpt lat="-31.41049869176293" lon="115.70043028359224"><ele>67.0</ele><time>2026-04-12T04:32:30Z</time></trkpt><trkpt lat="-31.410494086732417" lon="115.70016222075331"><ele>68.5</ele><time>2026-04-12T04:32:31Z</time></trkpt><trkpt lat="-31.410492566572774" lon="115.69989975335412"><ele>70.0</ele><time>2026-04-12T04:32:32Z</time></trkpt><trkpt lat="-31.410489805527217" lon="115.69962753566136"><ele>64.5</ele><time>2026-04-12T04:32:33Z</time></trkpt><trkpt lat="-31.410486727675124" lon="115.69936036040141"><ele>59.0</ele><time>2026-04-12T04:32:34Z</time></trkpt><trkpt lat="-31.410482367841805" lon="115.69908504080678"><ele>59.0</ele><time>2026-04-12T04:32:35Z</time></trkpt><trkpt lat="-31.41047886877101" lon="115.69881496377383"><ele>59.0</ele><time>2026-04-12T04:32:36Z</time></trkpt><trkpt lat="-31.410476085064232" lon="115.69854380921797"><ele>58.0</ele><time>2026-04-12T04:32:37Z</time></trkpt><trkpt lat="-31.41047278874408" lon="115.69826710062806"><ele>57.0</ele><time>2026-04-12T04:32:38Z</time></trkpt><trkpt lat="-31.410468355565037" lon="115.69799398926827"><ele>56.0</ele><time>2026-04-12T04:32:39Z</time></trkpt><trkpt lat="-31.410463828978894" lon="115.69771696216289"><ele>55.0</ele><time>2026-04-12T04:32:40Z</time></trkpt><trkpt lat="-31.410458370822248" lon="115.69745284051103"><ele>55.0</ele><time>2026-04-12T04:32:41Z</time></trkpt><trkpt lat="-31.41045306884526" lon="115.69718940137831"><ele>55.0</ele><time>2026-04-12T04:32:42Z</time></trkpt><trkpt lat="-31.410447737143635" lon="115.696920343392"><ele>54.5</ele><time>2026-04-12T04:32:43Z</time></trkpt><trkpt lat="-31.41044260775617" lon="115.69665366488391"><ele>54.0</ele><time>2026-04-12T04:32:44Z</time></trkpt><trkpt lat="-31.410437571993732" lon="115.69638166282593"><ele>54.0</ele><time>2026-04-12T04:32:45Z</time></trkpt><trkpt lat="-31.410431392179287" lon="115.69611670756741"><ele>54.0</ele><time>2026-04-12T04:32:46Z</time></trkpt><trkpt lat="-31.410425125310336" lon="115.69584801971175"><ele>53.33333333333333</ele><time>2026-04-12T04:32:47Z</time></trkpt><trkpt lat="-31.41041930029455" lon="115.6955891167359"><ele>52.666666666666664</ele><time>2026-04-12T04:32:48Z</time></trkpt><trkpt lat="-31.41041563775588" lon="115.69533809070602"><ele>52.0</ele><time>2026-04-12T04:32:49Z</time></trkpt><trkpt lat="-31.4104133379622" lon="115.69508700988361"><ele>52.0</ele><time>2026-04-12T04:32:50Z</time></trkpt><trkpt lat="-31.410410916093035" lon="115.69482260123034"><ele>52.0</ele><time>2026-04-12T04:32:51Z</time></trkpt><trkpt lat="-31.410407018757596" lon="115.69455141535497"><ele>53.0</ele><time>2026-04-12T04:32:52Z</time></trkpt><trkpt lat="-31.410403246190032" lon="115.69427707657906"><ele>54.0</ele><time>2026-04-12T04:32:53Z</time></trkpt><trkpt lat="-31.41039846857271" lon="115.69399811719677"><ele>54.0</ele><time>2026-04-12T04:32:54Z</time></trkpt><trkpt lat="-31.410395386404534" lon="115.6937204034509"><ele>54.0</ele><time>2026-04-12T04:32:55.001Z</time></trkpt><trkpt lat="-31.410392433392712" lon="115.69343454078171"><ele>54.0</ele><time>2026-04-12T04:32:56.001Z</time></trkpt><trkpt lat="-31.410391489783887" lon="115.69315129933362"><ele>54.0</ele><time>2026-04-12T04:32:57.001Z</time></trkpt><trkpt lat="-31.41039242160396" lon="115.69287065375468"><ele>53.33333333333333</ele><time>2026-04-12T04:32:58.001Z</time></trkpt><trkpt lat="-31.41039288974607" lon="115.69260036274774"><ele>52.666666666666664</ele><time>2026-04-12T04:32:59.001Z</time></trkpt><trkpt lat="-31.410393286195006" lon="115.69235431205264"><ele>52.0</ele><time>2026-04-12T04:33:00.001Z</time></trkpt><trkpt lat="-31.41039435955695" lon="115.69212327548288"><ele>52.33333333333333</ele><time>2026-04-12T04:33:01.001Z</time></trkpt><trkpt lat="-31.41039945636469" lon="115.69190041702436"><ele>52.66666666666667</ele><time>2026-04-12T04:33:02.001Z</time></trkpt><trkpt lat="-31.4104074927897" lon="115.69168956644887"><ele>53.0</ele><time>2026-04-12T04:33:03.001Z</time></trkpt><trkpt lat="-31.410417824100094" lon="115.69149556134806"><ele>53.0</ele><time>2026-04-12T04:33:04.001Z</time></trkpt><trkpt lat="-31.410427865423294" lon="115.69131474723203"><ele>53.0</ele><time>2026-04-12T04:33:05.001Z</time></trkpt><trkpt lat="-31.410427623575487" lon="115.69115609430497"><ele>53.0</ele><time>2026-04-12T04:33:06.001Z</time></trkpt><trkpt lat="-31.410460397046506" lon="115.69103930007425"><ele>53.0</ele><time>2026-04-12T04:33:07.001Z</time></trkpt><trkpt lat="-31.41057108939051" lon="115.69091358419138"><ele>55.25</ele><time>2026-04-12T04:33:09.001Z</time></trkpt><trkpt lat="-31.410656695296133" lon="115.69086438543042"><ele>57.5</ele><time>2026-04-12T04:33:10.001Z</time></trkpt><trkpt lat="-31.410765243195396" lon="115.69079136668302"><ele>59.75</ele><time>2026-04-12T04:33:11.001Z</time></trkpt><trkpt lat="-31.41090661638472" lon="115.69072847633288"><ele>62.0</ele><time>2026-04-12T04:33:12.001Z</time></trkpt><trkpt lat="-31.411063717946377" lon="115.69065534415446"><ele>62.0</ele><time>2026-04-12T04:33:13.001Z</time></trkpt><trkpt lat="-31.41121539740922" lon="115.69056961679873"><ele>62.0</ele><time>2026-04-12T04:33:14.001Z</time></trkpt><trkpt lat="-31.41136734539358" lon="115.69047309599455"><ele>62.0</ele><time>2026-04-12T04:33:15.001Z</time></trkpt><trkpt lat="-31.41153187462403" lon="115.69038341884993"><ele>61.333333333333336</ele><time>2026-04-12T04:33:16.001Z</time></trkpt><trkpt lat="-31.411690288791583" lon="115.6902978008806"><ele>60.66666666666667</ele><time>2026-04-12T04:33:17.001Z</time></trkpt><trkpt lat="-31.41183423711201" lon="115.69021518429443"><ele>60.0</ele><time>2026-04-12T04:33:18.001Z</time></trkpt><trkpt lat="-31.411953819471094" lon="115.69013662152734"><ele>60.5</ele><time>2026-04-12T04:33:19.001Z</time></trkpt><trkpt lat="-31.412048271510518" lon="115.69007639084226"><ele>61.0</ele><time>2026-04-12T04:33:20.001Z</time></trkpt><trkpt lat="-31.41213095461448" lon="115.69003017570371"><ele>61.5</ele><time>2026-04-12T04:33:21.001Z</time></trkpt><trkpt lat="-31.41213817575306" lon="115.68983278413016"><ele>62.0</ele><time>2026-04-12T04:33:22.001Z</time></trkpt><trkpt lat="-31.41219068831073" lon="115.68967814655879"><ele>62.0</ele><time>2026-04-12T04:33:23.001Z</time></trkpt><trkpt lat="-31.41225561271132" lon="115.68951701007349"><ele>62.0</ele><time>2026-04-12T04:33:24.001Z</time></trkpt><trkpt lat="-31.412330324301067" lon="115.68934337299255"><ele>62.0</ele><time>2026-04-12T04:33:25.001Z</time></trkpt><trkpt lat="-31.412419439813092" lon="115.68913920205486"><ele>63.0</ele><time>2026-04-12T04:33:26.001Z</time></trkpt><trkpt lat="-31.412505360003507" lon="115.68893368666498"><ele>64.0</ele><time>2026-04-12T04:33:27.001Z</time></trkpt><trkpt lat="-31.41259266572708" lon="115.68870116322812"><ele>65.0</ele><time>2026-04-12T04:33:28.001Z</time></trkpt><trkpt lat="-31.412669965795757" lon="115.68846243736236"><ele>66.0</ele><time>2026-04-12T04:33:29.001Z</time></trkpt><trkpt lat="-31.412746454911442" lon="115.68822069327163"><ele>67.0</ele><time>2026-04-12T04:33:30.001Z</time></trkpt><trkpt lat="-31.41282823643512" lon="115.6879621199299"><ele>67.5</ele><time>2026-04-12T04:33:31.001Z</time></trkpt><trkpt lat="-31.412907915684507" lon="115.68771382561242"><ele>68.0</ele><time>2026-04-12T04:33:32.001Z</time></trkpt><trkpt lat="-31.41299021750796" lon="115.68745677205075"><ele>68.5</ele><time>2026-04-12T04:33:33.001Z</time></trkpt><trkpt lat="-31.41307172948399" lon="115.68720163872857"><ele>69.0</ele><time>2026-04-12T04:33:34.001Z</time></trkpt><trkpt lat="-31.413154694141564" lon="115.68694797275585"><ele>67.5</ele><time>2026-04-12T04:33:35.001Z</time></trkpt><trkpt lat="-31.413238128203183" lon="115.68669767951259"><ele>66.0</ele><time>2026-04-12T04:33:36.001Z</time></trkpt><trkpt lat="-31.413322778629354" lon="115.68645821620365"><ele>66.0</ele><time>2026-04-12T04:33:37Z</time></trkpt><trkpt lat="-31.41341505102006" lon="115.68621172940983"><ele>66.0</ele><time>2026-04-12T04:33:38Z</time></trkpt><trkpt lat="-31.413509138348502" lon="115.68596842516926"><ele>66.33333333333333</ele><time>2026-04-12T04:33:39Z</time></trkpt><trkpt lat="-31.413605391407195" lon="115.68573058321887"><ele>66.66666666666666</ele><time>2026-04-12T04:33:40Z</time></trkpt><trkpt lat="-31.413698244465483" lon="115.68550267853759"><ele>67.0</ele><time>2026-04-12T04:33:41Z</time></trkpt><trkpt lat="-31.41378998398639" lon="115.68527384743706"><ele>66.33333333333333</ele><time>2026-04-12T04:33:42Z</time></trkpt><trkpt lat="-31.41387829563632" lon="115.68505182638492"><ele>65.66666666666667</ele><time>2026-04-12T04:33:43Z</time></trkpt><trkpt lat="-31.413967064314416" lon="115.68483118932154"><ele>65.0</ele><time>2026-04-12T04:33:44Z</time></trkpt><trkpt lat="-31.41405735456215" lon="115.6846081495382"><ele>64.0</ele><time>2026-04-12T04:33:45Z</time></trkpt><trkpt lat="-31.41414743464215" lon="115.68439043095526"><ele>63.0</ele><time>2026-04-12T04:33:46Z</time></trkpt><trkpt lat="-31.414242775519877" lon="115.68416695683538"><ele>62.0</ele><time>2026-04-12T04:33:47Z</time></trkpt><trkpt lat="-31.41433723359665" lon="115.68394839094978"><ele>62.0</ele><time>2026-04-12T04:33:48Z</time></trkpt><trkpt lat="-31.414430557956955" lon="115.68373332088328"><ele>62.0</ele><time>2026-04-12T04:33:49Z</time></trkpt><trkpt lat="-31.414524931278113" lon="115.68351309671083"><ele>62.0</ele><time>2026-04-12T04:33:50Z</time></trkpt><trkpt lat="-31.414617758411737" lon="115.68329481212876"><ele>62.0</ele><time>2026-04-12T04:33:51Z</time></trkpt><trkpt lat="-31.414713923406094" lon="115.68307147976958"><ele>62.0</ele><time>2026-04-12T04:33:52Z</time></trkpt><trkpt lat="-31.414805773173104" lon="115.68285523518712"><ele>62.0</ele><time>2026-04-12T04:33:53Z</time></trkpt><trkpt lat="-31.41489370509296" lon="115.68264724432423"><ele>61.0</ele><time>2026-04-12T04:33:54Z</time></trkpt><trkpt lat="-31.41497879572655" lon="115.68245035594862"><ele>60.0</ele><time>2026-04-12T04:33:55Z</time></trkpt><trkpt lat="-31.41506917825172" lon="115.68225113853254"><ele>59.0</ele><time>2026-04-12T04:33:56Z</time></trkpt><trkpt lat="-31.415168150560223" lon="115.68204842636823"><ele>58.66666666666667</ele><time>2026-04-12T04:33:57Z</time></trkpt><trkpt lat="-31.41527495048219" lon="115.68182147135778"><ele>58.33333333333333</ele><time>2026-04-12T04:33:58Z</time></trkpt><trkpt lat="-31.41537110285198" lon="115.68161075970909"><ele>58.0</ele><time>2026-04-12T04:33:59Z</time></trkpt><trkpt lat="-31.41544730003316" lon="115.68143042891656"><ele>58.666666666666664</ele><time>2026-04-12T04:34:00Z</time></trkpt><trkpt lat="-31.415506616183944" lon="115.68126424848965"><ele>59.33333333333333</ele><time>2026-04-12T04:34:01Z</time></trkpt><trkpt lat="-31.415542513232705" lon="115.68108561170018"><ele>60.0</ele><time>2026-04-12T04:34:02Z</time></trkpt><trkpt lat="-31.41555513691168" lon="115.68090885855933"><ele>60.0</ele><time>2026-04-12T04:34:03Z</time></trkpt><trkpt lat="-31.415544166480064" lon="115.68073808539783"><ele>60.0</ele><time>2026-04-12T04:34:04Z</time></trkpt><trkpt lat="-31.415527793306694" lon="115.68054242351248"><ele>60.0</ele><time>2026-04-12T04:34:05Z</time></trkpt><trkpt lat="-31.415510709677168" lon="115.68035136432638"><ele>61.66666666666667</ele><time>2026-04-12T04:34:06Z</time></trkpt><trkpt lat="-31.41548660146199" lon="115.68013954117986"><ele>63.333333333333336</ele><time>2026-04-12T04:34:07Z</time></trkpt><trkpt lat="-31.41545353504396" lon="115.67993868367853"><ele>65.0</ele><time>2026-04-12T04:34:08Z</time></trkpt><trkpt lat="-31.415397671546078" lon="115.67973620694653"><ele>65.0</ele><time>2026-04-12T04:34:09Z</time></trkpt><trkpt lat="-31.415335347800614" lon="115.67952925704748"><ele>65.0</ele><time>2026-04-12T04:34:10Z</time></trkpt><trkpt lat="-31.41528153485336" lon="115.67932725472103"><ele>65.0</ele><time>2026-04-12T04:34:11Z</time></trkpt><trkpt lat="-31.415229430252936" lon="115.67912619446084"><ele>66.33333333333334</ele><time>2026-04-12T04:34:12Z</time></trkpt><trkpt lat="-31.415185471025406" lon="115.67893235124995"><ele>67.66666666666667</ele><time>2026-04-12T04:34:13Z</time></trkpt><trkpt lat="-31.415149264403922" lon="115.67871064874488"><ele>69.0</ele><time>2026-04-12T04:34:14Z</time></trkpt><trkpt lat="-31.41512672123699" lon="115.67847751773117"><ele>69.66666666666667</ele><time>2026-04-12T04:34:15Z</time></trkpt><trkpt lat="-31.41510789932542" lon="115.67824507611655"><ele>70.33333333333334</ele><time>2026-04-12T04:34:16Z</time></trkpt><trkpt lat="-31.41509146411215" lon="115.67802336332394"><ele>71.0</ele><time>2026-04-12T04:34:17Z</time></trkpt><trkpt lat="-31.415073497542547" lon="115.67779526471116"><ele>72.0</ele><time>2026-04-12T04:34:18Z</time></trkpt><trkpt lat="-31.415055761295438" lon="115.67757223155506"><ele>73.0</ele><time>2026-04-12T04:34:19Z</time></trkpt><trkpt lat="-31.41504003898207" lon="115.67735644673951"><ele>74.0</ele><time>2026-04-12T04:34:20Z</time></trkpt><trkpt lat="-31.415027276371315" lon="115.6771524047647"><ele>74.0</ele><time>2026-04-12T04:34:21Z</time></trkpt><trkpt lat="-31.4150152639972" lon="115.6769437346571"><ele>74.0</ele><time>2026-04-12T04:34:22Z</time></trkpt><trkpt lat="-31.415004812971084" lon="115.67672395871148"><ele>74.0</ele><time>2026-04-12T04:34:23Z</time></trkpt><trkpt lat="-31.41499334197575" lon="115.67648780550961"><ele>74.66666666666667</ele><time>2026-04-12T04:34:24Z</time></trkpt><trkpt lat="-31.414981837338104" lon="115.6762527459724"><ele>75.33333333333333</ele><time>2026-04-12T04:34:25Z</time></trkpt><trkpt lat="-31.41497000497918" lon="115.67601521204504"><ele>76.0</ele><time>2026-04-12T04:34:26Z</time></trkpt><trkpt lat="-31.414955498331384" lon="115.67578335856102"><ele>76.0</ele><time>2026-04-12T04:34:27Z</time></trkpt><trkpt lat="-31.414940467705197" lon="115.67554318533941"><ele>76.0</ele><time>2026-04-12T04:34:28Z</time></trkpt><trkpt lat="-31.414925723721037" lon="115.6753027113431"><ele>76.0</ele><time>2026-04-12T04:34:29Z</time></trkpt><trkpt lat="-31.414910013202896" lon="115.6750587170125"><ele>75.0</ele><time>2026-04-12T04:34:30Z</time></trkpt><trkpt lat="-31.414895525302864" lon="115.67481448565789"><ele>74.0</ele><time>2026-04-12T04:34:31Z</time></trkpt><trkpt lat="-31.414881273627728" lon="115.67457423605232"><ele>73.0</ele><time>2026-04-12T04:34:32Z</time></trkpt><trkpt lat="-31.414830741527336" lon="115.6743345429937"><ele>71.66666666666666</ele><time>2026-04-12T04:34:33Z</time></trkpt><trkpt lat="-31.414813501337555" lon="115.67410250368695"><ele>70.33333333333333</ele><time>2026-04-12T04:34:34Z</time></trkpt><trkpt lat="-31.414796942349874" lon="115.6738648781998"><ele>69.0</ele><time>2026-04-12T04:34:35Z</time></trkpt><trkpt lat="-31.414776877546323" lon="115.6736312743995"><ele>67.66666666666667</ele><time>2026-04-12T04:34:36Z</time></trkpt><trkpt lat="-31.414760794329116" lon="115.67338640511709"><ele>66.33333333333334</ele><time>2026-04-12T04:34:37Z</time></trkpt><trkpt lat="-31.414743890565923" lon="115.6731423710806"><ele>65.0</ele><time>2026-04-12T04:34:38Z</time></trkpt><trkpt lat="-31.414727768857972" lon="115.6728925857045"><ele>65.0</ele><time>2026-04-12T04:34:39Z</time></trkpt><trkpt lat="-31.414709359083044" lon="115.67265360427153"><ele>65.0</ele><time>2026-04-12T04:34:40Z</time></trkpt><trkpt lat="-31.41469428381588" lon="115.67241156635257"><ele>65.0</ele><time>2026-04-12T04:34:41Z</time></trkpt><trkpt lat="-31.4146811176798" lon="115.6721773497055"><ele>64.66666666666667</ele><time>2026-04-12T04:34:42Z</time></trkpt><trkpt lat="-31.414667141012607" lon="115.6719382127427"><ele>64.33333333333333</ele><time>2026-04-12T04:34:43Z</time></trkpt><trkpt lat="-31.4146540021913" lon="115.67169940483029"><ele>64.0</ele><time>2026-04-12T04:34:44Z</time></trkpt><trkpt lat="-31.414640277910703" lon="115.67146048030683"><ele>64.0</ele><time>2026-04-12T04:34:45Z</time></trkpt><trkpt lat="-31.414620898154666" lon="115.67123303645106"><ele>64.0</ele><time>2026-04-12T04:34:46Z</time></trkpt><trkpt lat="-31.41460671180156" lon="115.67100432656623"><ele>64.0</ele><time>2026-04-12T04:34:47Z</time></trkpt><trkpt lat="-31.414593954842417" lon="115.67077887182373"><ele>64.0</ele><time>2026-04-12T04:34:48Z</time></trkpt><trkpt lat="-31.414579491498138" lon="115.67056104881613"><ele>64.0</ele><time>2026-04-12T04:34:49Z</time></trkpt><trkpt lat="-31.41456786110415" lon="115.67034944450059"><ele>64.0</ele><time>2026-04-12T04:34:50Z</time></trkpt><trkpt lat="-31.41455608635513" lon="115.67014313155514"><ele>64.66666666666666</ele><time>2026-04-12T04:34:51Z</time></trkpt><trkpt lat="-31.414547933437028" lon="115.66993469627776"><ele>65.33333333333333</ele><time>2026-04-12T04:34:52Z</time></trkpt><trkpt lat="-31.414540157790483" lon="115.66975949923113"><ele>66.0</ele><time>2026-04-12T04:34:53Z</time></trkpt><trkpt lat="-31.41453640697308" lon="115.66957815916703"><ele>66.66666666666667</ele><time>2026-04-12T04:34:54Z</time></trkpt><trkpt lat="-31.41453322436185" lon="115.66938506365213"><ele>67.33333333333334</ele><time>2026-04-12T04:34:55Z</time></trkpt><trkpt lat="-31.41452497083184" lon="115.66920867470465"><ele>68.0</ele><time>2026-04-12T04:34:56Z</time></trkpt><trkpt lat="-31.414517356355578" lon="115.66903463888126"><ele>68.0</ele><time>2026-04-12T04:34:57Z</time></trkpt><trkpt lat="-31.41450521644754" lon="115.66887227433182"><ele>68.0</ele><time>2026-04-12T04:34:58Z</time></trkpt><trkpt lat="-31.414491103179003" lon="115.66872899353349"><ele>68.0</ele><time>2026-04-12T04:34:59Z</time></trkpt><trkpt lat="-31.414478007257266" lon="115.66858341917064"><ele>68.0</ele><time>2026-04-12T04:35:00Z</time></trkpt><trkpt lat="-31.41445657989162" lon="115.66843731962209"><ele>69.4</ele><time>2026-04-12T04:35:01Z</time></trkpt><trkpt lat="-31.41442636700858" lon="115.66828384080522"><ele>70.8</ele><time>2026-04-12T04:35:02Z</time></trkpt><trkpt lat="-31.41440178074461" lon="115.66815209056546"><ele>72.2</ele><time>2026-04-12T04:35:03Z</time></trkpt><trkpt lat="-31.41436635197486" lon="115.66804774204768"><ele>73.6</ele><time>2026-04-12T04:35:04Z</time></trkpt><trkpt lat="-31.414325441495187" lon="115.6679713768474"><ele>75.0</ele><time>2026-04-12T04:35:05Z</time></trkpt><trkpt lat="-31.41427515310861" lon="115.6679100839836"><ele>74.99999999999999</ele><time>2026-04-12T04:35:06Z</time></trkpt><trkpt lat="-31.41422329828041" lon="115.66786117158837"><ele>75.0</ele><time>2026-04-12T04:35:07Z</time></trkpt><trkpt lat="-31.414172572916463" lon="115.6678132230019"><ele>75.0</ele><time>2026-04-12T04:35:08Z</time></trkpt><trkpt lat="-31.414143609746425" lon="115.66773913830814"><ele>75.0</ele><time>2026-04-12T04:35:10Z</time></trkpt><trkpt lat="-31.414076367413166" lon="115.66769414080414"><ele>75.0</ele><time>2026-04-12T04:35:45Z</time></trkpt><trkpt lat="-31.414001049558927" lon="115.66766280972678"><ele>74.99999999999999</ele><time>2026-04-12T04:35:48Z</time></trkpt><trkpt lat="-31.413936482517144" lon="115.66762058189218"><ele>75.0</ele><time>2026-04-12T04:35:51Z</time></trkpt><trkpt lat="-31.413880171251336" lon="115.66756427889622"><ele>76.83333333333333</ele><time>2026-04-12T04:35:53Z</time></trkpt><trkpt lat="-31.413820641720637" lon="115.6674944928889"><ele>78.66666666666667</ele><time>2026-04-12T04:35:55Z</time></trkpt><trkpt lat="-31.413776282204942" lon="115.66741041135607"><ele>80.5</ele><time>2026-04-12T04:35:57Z</time></trkpt><trkpt lat="-31.413763683176363" lon="115.66726498142638"><ele>82.33333333333334</ele><time>2026-04-12T04:35:59Z</time></trkpt><trkpt lat="-31.41375323667004" lon="115.66718603662146"><ele>84.16666666666667</ele><time>2026-04-12T04:36:00Z</time></trkpt><trkpt lat="-31.413738656092413" lon="115.66710822326841"><ele>86.0</ele><time>2026-04-12T04:36:01Z</time></trkpt><trkpt lat="-31.413680564502634" lon="115.66700047571037"><ele>85.16666666666667</ele><time>2026-04-12T04:36:03Z</time></trkpt><trkpt lat="-31.41360993118026" lon="115.66692869791356"><ele>84.33333333333334</ele><time>2026-04-12T04:36:06Z</time></trkpt><trkpt lat="-31.413581566976863" lon="115.66686165336088"><ele>83.5</ele><time>2026-04-12T04:36:09Z</time></trkpt><trkpt lat="-31.413606841516554" lon="115.66676633932556"><ele>82.66666666666667</ele><time>2026-04-12T04:36:13Z</time></trkpt><trkpt lat="-31.413639866419178" lon="115.66668632415399"><ele>81.83333333333333</ele><time>2026-04-12T04:36:18Z</time></trkpt><trkpt lat="-31.413643384990635" lon="115.66661023208992"><ele>81.0</ele><time>2026-04-12T04:36:21Z</time></trkpt><trkpt lat="-31.41363047295474" lon="115.66652312388501"><ele>81.0</ele><time>2026-04-12T04:36:32Z</time></trkpt><trkpt lat="-31.41361355555771" lon="115.66642678873943"><ele>81.0</ele><time>2026-04-12T04:36:34Z</time></trkpt><trkpt lat="-31.413592499899636" lon="115.66630685519446"><ele>81.0</ele><time>2026-04-12T04:36:36Z</time></trkpt><trkpt lat="-31.41357941341499" lon="115.66623231142378"><ele>81.0</ele><time>2026-04-12T04:36:37Z</time></trkpt><trkpt lat="-31.41355764795292" lon="115.666108330166"><ele>81.0</ele><time>2026-04-12T04:36:39Z</time></trkpt><trkpt lat="-31.413540416834564" lon="115.66601017774076"><ele>81.0</ele><time>2026-04-12T04:36:41Z</time></trkpt><trkpt lat="-31.413522412663337" lon="115.66590654817189"><ele>80.0</ele><time>2026-04-12T04:36:44Z</time></trkpt><trkpt lat="-31.41350208001613" lon="115.66578919566447"><ele>79.0</ele><time>2026-04-12T04:36:47Z</time></trkpt><trkpt lat="-31.41348183978553" lon="115.6656723764106"><ele>78.0</ele><time>2026-04-12T04:36:49Z</time></trkpt><trkpt lat="-31.413463577530425" lon="115.66556697320438"><ele>77.0</ele><time>2026-04-12T04:36:51Z</time></trkpt><trkpt lat="-31.41344701646491" lon="115.66547138889425"><ele>76.0</ele><time>2026-04-12T04:36:53Z</time></trkpt><trkpt lat="-31.413430051569257" lon="115.66537347362647"><ele>75.5</ele><time>2026-04-12T04:36:55Z</time></trkpt><trkpt lat="-31.413411363606347" lon="115.66526561342377"><ele>75.0</ele><time>2026-04-12T04:36:57Z</time></trkpt><trkpt lat="-31.413388438895808" lon="115.66513225537146"><ele>74.5</ele><time>2026-04-12T04:36:59Z</time></trkpt><trkpt lat="-31.413375222418416" lon="115.66505563384536"><ele>74.0</ele><time>2026-04-12T04:37:00Z</time></trkpt><trkpt lat="-31.413360131168666" lon="115.66496895335162"><ele>73.5</ele><time>2026-04-12T04:37:01Z</time></trkpt><trkpt lat="-31.413346664621784" lon="115.664891604773"><ele>73.0</ele><time>2026-04-12T04:37:02Z</time></trkpt><trkpt lat="-31.413332885675572" lon="115.66481054936446"><ele>73.0</ele><time>2026-04-12T04:37:03Z</time></trkpt><trkpt lat="-31.413316540771923" lon="115.66471439845218"><ele>73.0</ele><time>2026-04-12T04:37:04Z</time></trkpt><trkpt lat="-31.41330010945125" lon="115.66461773928152"><ele>73.0</ele><time>2026-04-12T04:37:05Z</time></trkpt><trkpt lat="-31.4132837454649" lon="115.6645214760483"><ele>73.0</ele><time>2026-04-12T04:37:06Z</time></trkpt><trkpt lat="-31.41326643514406" lon="115.66441964593201"><ele>73.0</ele><time>2026-04-12T04:37:07Z</time></trkpt><trkpt lat="-31.41324783608121" lon="115.66431023485924"><ele>73.0</ele><time>2026-04-12T04:37:08Z</time></trkpt><trkpt lat="-31.41322966768381" lon="115.66420402551596"><ele>72.83333333333333</ele><time>2026-04-12T04:37:09Z</time></trkpt><trkpt lat="-31.413212136255364" lon="115.6641025468234"><ele>72.66666666666666</ele><time>2026-04-12T04:37:10Z</time></trkpt><trkpt lat="-31.413196379424317" lon="115.66401287192446"><ele>72.5</ele><time>2026-04-12T04:37:11Z</time></trkpt><trkpt lat="-31.413180066431217" lon="115.66392149421718"><ele>72.33333333333333</ele><time>2026-04-12T04:37:12Z</time></trkpt><trkpt lat="-31.41316520184634" lon="115.66383737583277"><ele>72.16666666666667</ele><time>2026-04-12T04:37:13Z</time></trkpt><trkpt lat="-31.41315154453662" lon="115.66376044071558"><ele>72.0</ele><time>2026-04-12T04:37:14Z</time></trkpt><trkpt lat="-31.41313846341389" lon="115.66368675131034"><ele>71.5</ele><time>2026-04-12T04:37:15Z</time></trkpt><trkpt lat="-31.413125249290122" lon="115.66361231267801"><ele>71.0</ele><time>2026-04-12T04:37:16Z</time></trkpt><trkpt lat="-31.41310674484215" lon="115.66351277190765"><ele>70.5</ele><time>2026-04-12T04:37:18Z</time></trkpt><trkpt lat="-31.413088549277912" lon="115.6634162210668"><ele>70.0</ele><time>2026-04-12T04:37:20Z</time></trkpt><trkpt lat="-31.413070957815684" lon="115.66332295454646"><ele>69.5</ele><time>2026-04-12T04:37:23Z</time></trkpt><trkpt lat="-31.413049764499196" lon="115.66321250566948"><ele>69.0</ele><time>2026-04-12T04:37:25Z</time></trkpt><trkpt lat="-31.413021245836493" lon="115.66306238588444"><ele>69.0</ele><time>2026-04-12T04:37:27Z</time></trkpt><trkpt lat="-31.41300299497261" lon="115.66296340222952"><ele>69.0</ele><time>2026-04-12T04:37:28Z</time></trkpt><trkpt lat="-31.412986786599753" lon="115.66287333476512"><ele>69.0</ele><time>2026-04-12T04:37:29Z</time></trkpt><trkpt lat="-31.41297237699764" lon="115.66278889580038"><ele>69.0</ele><time>2026-04-12T04:37:30Z</time></trkpt><trkpt lat="-31.412958278465123" lon="115.6627062794141"><ele>69.0</ele><time>2026-04-12T04:37:31Z</time></trkpt><trkpt lat="-31.412934118947497" lon="115.66256470670933"><ele>69.0</ele><time>2026-04-12T04:37:33.001Z</time></trkpt><trkpt lat="-31.412920585368646" lon="115.6624854011072"><ele>69.0</ele><time>2026-04-12T04:37:34.001Z</time></trkpt><trkpt lat="-31.4129077296725" lon="115.66240676620883"><ele>69.0</ele><time>2026-04-12T04:37:35.001Z</time></trkpt><trkpt lat="-31.412882333916848" lon="115.66225093148448"><ele>69.0</ele><time>2026-04-12T04:37:37.001Z</time></trkpt><trkpt lat="-31.41286524559917" lon="115.66214626551805"><ele>69.0</ele><time>2026-04-12T04:37:38.001Z</time></trkpt><trkpt lat="-31.412849393916776" lon="115.66204370624047"><ele>69.0</ele><time>2026-04-12T04:37:39.001Z</time></trkpt><trkpt lat="-31.41283351889187" lon="115.66193646088657"><ele>69.0</ele><time>2026-04-12T04:37:40.001Z</time></trkpt><trkpt lat="-31.41281632890515" lon="115.66181869021464"><ele>69.0</ele><time>2026-04-12T04:37:41.001Z</time></trkpt><trkpt lat="-31.412799570282978" lon="115.66169828757543"><ele>69.0</ele><time>2026-04-12T04:37:42.001Z</time></trkpt><trkpt lat="-31.412784074838328" lon="115.6615869601364"><ele>69.0</ele><time>2026-04-12T04:37:43.001Z</time></trkpt><trkpt lat="-31.412770704773774" lon="115.66149090265031"><ele>69.0</ele><time>2026-04-12T04:37:44.001Z</time></trkpt><trkpt lat="-31.41275579922822" lon="115.66138529120893"><ele>69.0</ele><time>2026-04-12T04:37:45.001Z</time></trkpt><trkpt lat="-31.412743559652114" lon="115.66129865072996"><ele>69.0</ele><time>2026-04-12T04:37:46.001Z</time></trkpt><trkpt lat="-31.412730143332237" lon="115.66120327882142"><ele>69.0</ele><time>2026-04-12T04:37:47.001Z</time></trkpt><trkpt lat="-31.412719119994726" lon="115.66112441613134"><ele>69.0</ele><time>2026-04-12T04:37:48.001Z</time></trkpt><trkpt lat="-31.412706835040847" lon="115.66103719263121"><ele>69.0</ele><time>2026-04-12T04:37:50Z</time></trkpt><trkpt lat="-31.4126931233608" lon="115.66094106752051"><ele>69.0</ele><time>2026-04-12T04:37:52.999Z</time></trkpt><trkpt lat="-31.412666597051377" lon="115.66084401124455"><ele>69.0</ele><time>2026-04-12T04:37:57Z</time></trkpt><trkpt lat="-31.412665665584516" lon="115.66073502324166"><ele>69.0</ele><time>2026-04-12T04:37:59Z</time></trkpt><trkpt lat="-31.412650086940328" lon="115.66060574998224"><ele>69.0</ele><time>2026-04-12T04:38:01Z</time></trkpt><trkpt lat="-31.412636938593607" lon="115.66048738964021"><ele>69.0</ele><time>2026-04-12T04:38:03Z</time></trkpt><trkpt lat="-31.412624664870034" lon="115.66037690296413"><ele>69.0</ele><time>2026-04-12T04:38:05Z</time></trkpt><trkpt lat="-31.412611856580263" lon="115.66026160417654"><ele>68.66666666666667</ele><time>2026-04-12T04:38:07Z</time></trkpt><trkpt lat="-31.412564026572273" lon="115.66021052628801"><ele>68.33333333333333</ele><time>2026-04-12T04:38:08Z</time></trkpt><trkpt lat="-31.412539094513484" lon="115.66010473557091"><ele>68.0</ele><time>2026-04-12T04:38:10Z</time></trkpt><trkpt lat="-31.412524565503645" lon="115.66000165911404"><ele>67.66666666666666</ele><time>2026-04-12T04:38:12Z</time></trkpt><trkpt lat="-31.412522179212612" lon="115.65989636254005"><ele>67.33333333333333</ele><time>2026-04-12T04:38:14Z</time></trkpt><trkpt lat="-31.41249835575919" lon="115.65979522594088"><ele>67.0</ele><time>2026-04-12T04:38:24Z</time></trkpt><trkpt lat="-31.412513688630053" lon="115.65969814881409"><ele>67.0</ele><time>2026-04-12T04:38:27Z</time></trkpt><trkpt lat="-31.412506297522942" lon="115.65960796208523"><ele>67.0</ele><time>2026-04-12T04:38:30Z</time></trkpt><trkpt lat="-31.412463447911435" lon="115.65955366904687"><ele>67.0</ele><time>2026-04-12T04:38:33Z</time></trkpt><trkpt lat="-31.41246093371856" lon="115.65946314853984"><ele>67.0</ele><time>2026-04-12T04:38:35Z</time></trkpt><trkpt lat="-31.41247290873172" lon="115.65935660502124"><ele>67.0</ele><time>2026-04-12T04:38:38Z</time></trkpt><trkpt lat="-31.412476647969843" lon="115.65922960022704"><ele>67.0</ele><time>2026-04-12T04:38:40Z</time></trkpt><trkpt lat="-31.41253294204645" lon="115.65910759337014"><ele>65.83333333333333</ele><time>2026-04-12T04:38:42Z</time></trkpt><trkpt lat="-31.41249228385477" lon="115.65897092615522"><ele>64.66666666666666</ele><time>2026-04-12T04:38:44Z</time></trkpt><trkpt lat="-31.412498784972726" lon="115.6588943235237"><ele>63.5</ele><time>2026-04-12T04:38:45Z</time></trkpt><trkpt lat="-31.412498455972365" lon="115.65880819572665"><ele>62.33333333333333</ele><time>2026-04-12T04:38:46Z</time></trkpt><trkpt lat="-31.4125055465209" lon="115.65871638079142"><ele>61.166666666666664</ele><time>2026-04-12T04:38:47Z</time></trkpt><trkpt lat="-31.412516108781876" lon="115.65864056931079"><ele>60.0</ele><time>2026-04-12T04:38:48Z</time></trkpt><trkpt lat="-31.412516427998312" lon="115.65855972470914"><ele>58.8</ele><time>2026-04-12T04:38:49Z</time></trkpt><trkpt lat="-31.412517754316564" lon="115.65847353808026"><ele>57.6</ele><time>2026-04-12T04:38:50Z</time></trkpt><trkpt lat="-31.412517601417683" lon="115.65838951739653"><ele>56.400000000000006</ele><time>2026-04-12T04:38:51Z</time></trkpt><trkpt lat="-31.41251916133184" lon="115.65828438120519"><ele>55.2</ele><time>2026-04-12T04:38:52Z</time></trkpt><trkpt lat="-31.41252492080087" lon="115.65817069172647"><ele>54.0</ele><time>2026-04-12T04:38:53Z</time></trkpt><trkpt lat="-31.412597201820716" lon="115.65805541038783"><ele>54.0</ele><time>2026-04-12T04:38:54Z</time></trkpt><trkpt lat="-31.412604651589827" lon="115.65792736646812"><ele>54.0</ele><time>2026-04-12T04:38:55Z</time></trkpt><trkpt lat="-31.412614165222372" lon="115.65778072481834"><ele>54.0</ele><time>2026-04-12T04:38:56Z</time></trkpt><trkpt lat="-31.41262313494954" lon="115.657628121095"><ele>54.0</ele><time>2026-04-12T04:38:57Z</time></trkpt><trkpt lat="-31.41263052246304" lon="115.65746601811081"><ele>52.25</ele><time>2026-04-12T04:38:58Z</time></trkpt><trkpt lat="-31.412633785085518" lon="115.65731107730802"><ele>50.5</ele><time>2026-04-12T04:38:59Z</time></trkpt><trkpt lat="-31.412633785086886" lon="115.65717071137351"><ele>48.75</ele><time>2026-04-12T04:39:00Z</time></trkpt><trkpt lat="-31.41263378508826" lon="115.65703583152056"><ele>47.0</ele><time>2026-04-12T04:39:01Z</time></trkpt><trkpt lat="-31.412635572155047" lon="115.65690962913435"><ele>46.5</ele><time>2026-04-12T04:39:02Z</time></trkpt><trkpt lat="-31.412640935422" lon="115.65679855406945"><ele>46.0</ele><time>2026-04-12T04:39:03Z</time></trkpt><trkpt lat="-31.412648239084657" lon="115.65669577501373"><ele>45.5</ele><time>2026-04-12T04:39:04Z</time></trkpt><trkpt lat="-31.412652970018907" lon="115.65660204442608"><ele>45.0</ele><time>2026-04-12T04:39:05Z</time></trkpt><trkpt lat="-31.412653285093914" lon="115.65651441679223"><ele>44.5</ele><time>2026-04-12T04:39:06Z</time></trkpt><trkpt lat="-31.412637919282833" lon="115.65641082712293"><ele>44.0</ele><time>2026-04-12T04:39:07Z</time></trkpt><trkpt lat="-31.412602579185005" lon="115.65629040084512"><ele>44.0</ele><time>2026-04-12T04:39:08Z</time></trkpt><trkpt lat="-31.412551801780147" lon="115.65616604046566"><ele>44.0</ele><time>2026-04-12T04:39:09Z</time></trkpt><trkpt lat="-31.412496151372746" lon="115.65604186135087"><ele>44.0</ele><time>2026-04-12T04:39:10Z</time></trkpt><trkpt lat="-31.41243467818241" lon="115.65590687173265"><ele>44.0</ele><time>2026-04-12T04:39:11Z</time></trkpt><trkpt lat="-31.41237020685794" lon="115.65576804442027"><ele>43.666666666666664</ele><time>2026-04-12T04:39:12Z</time></trkpt><trkpt lat="-31.412312362126148" lon="115.65564181399316"><ele>43.33333333333333</ele><time>2026-04-12T04:39:13Z</time></trkpt><trkpt lat="-31.412269318895458" lon="115.65553482349671"><ele>43.0</ele><time>2026-04-12T04:39:14Z</time></trkpt><trkpt lat="-31.41223712258986" lon="115.6554470036357"><ele>42.666666666666664</ele><time>2026-04-12T04:39:15Z</time></trkpt><trkpt lat="-31.412214350907526" lon="115.65537737157834"><ele>42.333333333333336</ele><time>2026-04-12T04:39:16Z</time></trkpt><trkpt lat="-31.41219394719199" lon="115.65529741442583"><ele>42.0</ele><time>2026-04-12T04:39:19Z</time></trkpt><trkpt lat="-31.412176361033726" lon="115.65522433184675"><ele>42.0</ele><time>2026-04-12T04:39:21Z</time></trkpt><trkpt lat="-31.412156716408575" lon="115.65514269488982"><ele>42.0</ele><time>2026-04-12T04:39:22Z</time></trkpt><trkpt lat="-31.412008956189435" lon="115.65511785251888"><ele>42.0</ele><time>2026-04-12T04:39:23Z</time></trkpt><trkpt lat="-31.411906910033153" lon="115.65508043955982"><ele>42.0</ele><time>2026-04-12T04:39:24Z</time></trkpt><trkpt lat="-31.411790973269824" lon="115.65505358853561"><ele>42.0</ele><time>2026-04-12T04:39:25Z</time></trkpt><trkpt lat="-31.411664223132444" lon="115.65502187935445"><ele>42.0</ele><time>2026-04-12T04:39:26Z</time></trkpt><trkpt lat="-31.411527237797504" lon="115.65497822785785"><ele>42.0</ele><time>2026-04-12T04:39:27Z</time></trkpt><trkpt lat="-31.411382635643978" lon="115.65493191352707"><ele>42.0</ele><time>2026-04-12T04:39:28Z</time></trkpt><trkpt lat="-31.411229599342757" lon="115.65488848924363"><ele>42.0</ele><time>2026-04-12T04:39:29Z</time></trkpt><trkpt lat="-31.41106164813925" lon="115.65484286202899"><ele>41.666666666666664</ele><time>2026-04-12T04:39:30Z</time></trkpt><trkpt lat="-31.41087914436896" lon="115.65479118782332"><ele>41.33333333333333</ele><time>2026-04-12T04:39:31Z</time></trkpt><trkpt lat="-31.41068123093616" lon="115.65473479693192"><ele>41.0</ele><time>2026-04-12T04:39:32Z</time></trkpt><trkpt lat="-31.410473205084266" lon="115.65467050212573"><ele>40.0</ele><time>2026-04-12T04:39:33Z</time></trkpt><trkpt lat="-31.4102478818163" lon="115.65460348554178"><ele>39.0</ele><time>2026-04-12T04:39:34Z</time></trkpt><trkpt lat="-31.410016225937596" lon="115.65453506805697"><ele>39.0</ele><time>2026-04-12T04:39:35Z</time></trkpt><trkpt lat="-31.409781166135847" lon="115.65446798425849"><ele>39.0</ele><time>2026-04-12T04:39:36Z</time></trkpt><trkpt lat="-31.409541967618175" lon="115.65439945153787"><ele>39.0</ele><time>2026-04-12T04:39:37Z</time></trkpt><trkpt lat="-31.409296650604432" lon="115.65433089379582"><ele>39.0</ele><time>2026-04-12T04:39:38Z</time></trkpt><trkpt lat="-31.409061200479904" lon="115.65426302159372"><ele>39.0</ele><time>2026-04-12T04:39:39Z</time></trkpt><trkpt lat="-31.408826837595196" lon="115.65419333216052"><ele>39.0</ele><time>2026-04-12T04:39:40Z</time></trkpt><trkpt lat="-31.408592089643175" lon="115.65412651445351"><ele>39.5</ele><time>2026-04-12T04:39:41Z</time></trkpt><trkpt lat="-31.408355534277295" lon="115.65405541913081"><ele>40.0</ele><time>2026-04-12T04:39:42Z</time></trkpt><trkpt lat="-31.408123329814735" lon="115.65398299022621"><ele>40.0</ele><time>2026-04-12T04:39:43.001Z</time></trkpt><trkpt lat="-31.407891182849056" lon="115.65390728279623"><ele>40.0</ele><time>2026-04-12T04:39:44.001Z</time></trkpt><trkpt lat="-31.4076586421259" lon="115.65382168633955"><ele>40.0</ele><time>2026-04-12T04:39:45.001Z</time></trkpt><trkpt lat="-31.407428922931043" lon="115.6537239691261"><ele>40.0</ele><time>2026-04-12T04:39:46.001Z</time></trkpt><trkpt lat="-31.40720569268002" lon="115.65361521050086"><ele>39.5</ele><time>2026-04-12T04:39:47.001Z</time></trkpt><trkpt lat="-31.406989129979088" lon="115.65349828741772"><ele>39.0</ele><time>2026-04-12T04:39:48.001Z</time></trkpt><trkpt lat="-31.406776691921507" lon="115.65336733085446"><ele>39.0</ele><time>2026-04-12T04:39:49.001Z</time></trkpt><trkpt lat="-31.406568411798325" lon="115.65322312390474"><ele>39.0</ele><time>2026-04-12T04:39:50.001Z</time></trkpt><trkpt lat="-31.406365289147942" lon="115.6530696927097"><ele>39.5</ele><time>2026-04-12T04:39:51.001Z</time></trkpt><trkpt lat="-31.406164792769726" lon="115.65290931647682"><ele>40.0</ele><time>2026-04-12T04:39:52.001Z</time></trkpt><trkpt lat="-31.405968522468665" lon="115.65274104299495"><ele>40.0</ele><time>2026-04-12T04:39:53.001Z</time></trkpt><trkpt lat="-31.405777859812176" lon="115.65255948184765"><ele>40.0</ele><time>2026-04-12T04:39:54.001Z</time></trkpt><trkpt lat="-31.405598065361342" lon="115.65236688192799"><ele>40.5</ele><time>2026-04-12T04:39:54.999Z</time></trkpt><trkpt lat="-31.405424751074595" lon="115.65216336951777"><ele>41.0</ele><time>2026-04-12T04:39:55.999Z</time></trkpt><trkpt lat="-31.405254843141382" lon="115.65195159909543"><ele>41.0</ele><time>2026-04-12T04:39:56.999Z</time></trkpt><trkpt lat="-31.405088448879976" lon="115.65173924394449"><ele>41.0</ele><time>2026-04-12T04:39:57.999Z</time></trkpt><trkpt lat="-31.40491962175851" lon="115.6515219726543"><ele>41.0</ele><time>2026-04-12T04:39:58.999Z</time></trkpt><trkpt lat="-31.404753210356024" lon="115.65130559238686"><ele>41.0</ele><time>2026-04-12T04:39:59.999Z</time></trkpt><trkpt lat="-31.40458676601162" lon="115.6510861283665"><ele>40.0</ele><time>2026-04-12T04:40:00.999Z</time></trkpt><trkpt lat="-31.4044208006986" lon="115.65086412999624"><ele>39.0</ele><time>2026-04-12T04:40:01.999Z</time></trkpt><trkpt lat="-31.404253243374825" lon="115.65064615414606"><ele>39.0</ele><time>2026-04-12T04:40:02.999Z</time></trkpt><trkpt lat="-31.40408254658116" lon="115.65042981157816"><ele>39.0</ele><time>2026-04-12T04:40:03.999Z</time></trkpt><trkpt lat="-31.40391082461618" lon="115.65021131949257"><ele>38.5</ele><time>2026-04-12T04:40:04.999Z</time></trkpt><trkpt lat="-31.40374046799857" lon="115.64999187207638"><ele>38.0</ele><time>2026-04-12T04:40:05.999Z</time></trkpt><trkpt lat="-31.403572029178374" lon="115.64976944906884"><ele>38.0</ele><time>2026-04-12T04:40:06.999Z</time></trkpt><trkpt lat="-31.403404587034913" lon="115.64954972778006"><ele>38.0</ele><time>2026-04-12T04:40:07.999Z</time></trkpt><trkpt lat="-31.40323491639927" lon="115.64933203017253"><ele>38.0</ele><time>2026-04-12T04:40:08.999Z</time></trkpt><trkpt lat="-31.403064193319054" lon="115.64911138777697"><ele>38.0</ele><time>2026-04-12T04:40:09.999Z</time></trkpt><trkpt lat="-31.40289394899948" lon="115.6488935548796"><ele>37.0</ele><time>2026-04-12T04:40:10.999Z</time></trkpt><trkpt lat="-31.40272379399239" lon="115.64867553709789"><ele>36.0</ele><time>2026-04-12T04:40:11.999Z</time></trkpt><trkpt lat="-31.40255262565581" lon="115.64845715866488"><ele>36.0</ele><time>2026-04-12T04:40:13Z</time></trkpt><trkpt lat="-31.402381872737685" lon="115.64824102913693"><ele>36.0</ele><time>2026-04-12T04:40:14Z</time></trkpt><trkpt lat="-31.402212677846073" lon="115.64802327196998"><ele>36.0</ele><time>2026-04-12T04:40:15Z</time></trkpt><trkpt lat="-31.40204627048735" lon="115.6478062158036"><ele>36.0</ele><time>2026-04-12T04:40:16Z</time></trkpt><trkpt lat="-31.401882734353926" lon="115.64759059662427"><ele>36.0</ele><time>2026-04-12T04:40:17Z</time></trkpt><trkpt lat="-31.401717220513994" lon="115.64736874345476"><ele>36.0</ele><time>2026-04-12T04:40:18Z</time></trkpt><trkpt lat="-31.401546885636996" lon="115.64714881335564"><ele>36.0</ele><time>2026-04-12T04:40:19Z</time></trkpt><trkpt lat="-31.40137618224237" lon="115.64693135910478"><ele>36.0</ele><time>2026-04-12T04:40:20Z</time></trkpt><trkpt lat="-31.4012062221159" lon="115.64671321870755"><ele>38.5</ele><time>2026-04-12T04:40:21Z</time></trkpt><trkpt lat="-31.401041837185044" lon="115.64649858347754"><ele>41.0</ele><time>2026-04-12T04:40:22Z</time></trkpt><trkpt lat="-31.400875513833615" lon="115.64628500708638"><ele>41.0</ele><time>2026-04-12T04:40:23Z</time></trkpt><trkpt lat="-31.40071079216912" lon="115.64607220292221"><ele>41.0</ele><time>2026-04-12T04:40:24Z</time></trkpt><trkpt lat="-31.40054530043763" lon="115.64585874182636"><ele>43.5</ele><time>2026-04-12T04:40:25Z</time></trkpt><trkpt lat="-31.40037976973687" lon="115.64564741279706"><ele>46.0</ele><time>2026-04-12T04:40:26Z</time></trkpt><trkpt lat="-31.40021527913257" lon="115.64543730455209"><ele>46.0</ele><time>2026-04-12T04:40:27Z</time></trkpt><trkpt lat="-31.40005067342636" lon="115.64522708793288"><ele>46.0</ele><time>2026-04-12T04:40:28Z</time></trkpt><trkpt lat="-31.399882850214716" lon="115.64501370980447"><ele>46.0</ele><time>2026-04-12T04:40:29Z</time></trkpt><trkpt lat="-31.39971536475287" lon="115.64479632364468"><ele>46.0</ele><time>2026-04-12T04:40:30Z</time></trkpt><trkpt lat="-31.399549319995916" lon="115.6445787024232"><ele>48.5</ele><time>2026-04-12T04:40:31Z</time></trkpt><trkpt lat="-31.399382814585298" lon="115.64436483724386"><ele>51.0</ele><time>2026-04-12T04:40:32Z</time></trkpt><trkpt lat="-31.399212158759177" lon="115.64415365948655"><ele>51.0</ele><time>2026-04-12T04:40:33Z</time></trkpt><trkpt lat="-31.399036479541248" lon="115.64394700569282"><ele>51.0</ele><time>2026-04-12T04:40:34Z</time></trkpt><trkpt lat="-31.398853403320388" lon="115.64374452508045"><ele>51.5</ele><time>2026-04-12T04:40:35Z</time></trkpt><trkpt lat="-31.398663033764056" lon="115.64354564820677"><ele>52.0</ele><time>2026-04-12T04:40:36Z</time></trkpt><trkpt lat="-31.39846007100139" lon="115.643353218045"><ele>52.0</ele><time>2026-04-12T04:40:37Z</time></trkpt><trkpt lat="-31.398251719183225" lon="115.64316147015955"><ele>52.0</ele><time>2026-04-12T04:40:38Z</time></trkpt><trkpt lat="-31.39803554908261" lon="115.64298215598315"><ele>52.0</ele><time>2026-04-12T04:40:39Z</time></trkpt><trkpt lat="-31.397813911043723" lon="115.64281403113846"><ele>52.0</ele><time>2026-04-12T04:40:40Z</time></trkpt><trkpt lat="-31.397586708672076" lon="115.64265348439213"><ele>52.0</ele><time>2026-04-12T04:40:41Z</time></trkpt><trkpt lat="-31.397356808178603" lon="115.64250185092901"><ele>52.0</ele><time>2026-04-12T04:40:42Z</time></trkpt><trkpt lat="-31.39712231147393" lon="115.64235693265347"><ele>51.0</ele><time>2026-04-12T04:40:43Z</time></trkpt><trkpt lat="-31.39688618528478" lon="115.64220875344112"><ele>50.0</ele><time>2026-04-12T04:40:44Z</time></trkpt><trkpt lat="-31.396654718791446" lon="115.64205276696362"><ele>49.5</ele><time>2026-04-12T04:40:45Z</time></trkpt><trkpt lat="-31.396424426819397" lon="115.64189459390013"><ele>49.0</ele><time>2026-04-12T04:40:46Z</time></trkpt><trkpt lat="-31.396193157680614" lon="115.6417379619988"><ele>47.5</ele><time>2026-04-12T04:40:47Z</time></trkpt><trkpt lat="-31.39595842898201" lon="115.6415876539428"><ele>46.0</ele><time>2026-04-12T04:40:48Z</time></trkpt><trkpt lat="-31.39572251172934" lon="115.64143773268364"><ele>45.0</ele><time>2026-04-12T04:40:49Z</time></trkpt><trkpt lat="-31.39548779822929" lon="115.6412859029142"><ele>44.0</ele><time>2026-04-12T04:40:50Z</time></trkpt><trkpt lat="-31.39525495367647" lon="115.64113359789833"><ele>45.5</ele><time>2026-04-12T04:40:51Z</time></trkpt><trkpt lat="-31.395025304220887" lon="115.64098351532581"><ele>47.0</ele><time>2026-04-12T04:40:52Z</time></trkpt><trkpt lat="-31.394800637211475" lon="115.64083413719702"><ele>47.0</ele><time>2026-04-12T04:40:53Z</time></trkpt><trkpt lat="-31.3945769302209" lon="115.64068535568748"><ele>47.0</ele><time>2026-04-12T04:40:54Z</time></trkpt><trkpt lat="-31.394353210828974" lon="115.6405374600426"><ele>47.0</ele><time>2026-04-12T04:40:55Z</time></trkpt><trkpt lat="-31.394132324073432" lon="115.64039050729163"><ele>47.0</ele><time>2026-04-12T04:40:56Z</time></trkpt><trkpt lat="-31.393912185389752" lon="115.64024248188561"><ele>47.0</ele><time>2026-04-12T04:40:57Z</time></trkpt><trkpt lat="-31.393689474289943" lon="115.64009692892914"><ele>47.0</ele><time>2026-04-12T04:40:58Z</time></trkpt><trkpt lat="-31.393470138884187" lon="115.63994980871209"><ele>47.0</ele><time>2026-04-12T04:40:59Z</time></trkpt><trkpt lat="-31.393252801613098" lon="115.63980203860487"><ele>47.0</ele><time>2026-04-12T04:41:00Z</time></trkpt><trkpt lat="-31.393033058153424" lon="115.63965934846384"><ele>48.0</ele><time>2026-04-12T04:41:01Z</time></trkpt><trkpt lat="-31.39281602080569" lon="115.6395192107727"><ele>49.0</ele><time>2026-04-12T04:41:02Z</time></trkpt><trkpt lat="-31.392600887118405" lon="115.63937839716608"><ele>49.5</ele><time>2026-04-12T04:41:03Z</time></trkpt><trkpt lat="-31.39238623348293" lon="115.63923087745562"><ele>50.0</ele><time>2026-04-12T04:41:04Z</time></trkpt><trkpt lat="-31.39217291822554" lon="115.6390828463208"><ele>50.0</ele><time>2026-04-12T04:41:05Z</time></trkpt><trkpt lat="-31.391959387831218" lon="115.63893839702924"><ele>50.0</ele><time>2026-04-12T04:41:06Z</time></trkpt><trkpt lat="-31.391742660796226" lon="115.63879679630836"><ele>50.0</ele><time>2026-04-12T04:41:07Z</time></trkpt><trkpt lat="-31.39152463904366" lon="115.63865508564031"><ele>50.0</ele><time>2026-04-12T04:41:08Z</time></trkpt><trkpt lat="-31.39130378186893" lon="115.63850593140343"><ele>48.5</ele><time>2026-04-12T04:41:09Z</time></trkpt><trkpt lat="-31.391080482325975" lon="115.63835310713122"><ele>47.0</ele><time>2026-04-12T04:41:10Z</time></trkpt><trkpt lat="-31.39085087826152" lon="115.63819956977066"><ele>47.0</ele><time>2026-04-12T04:41:11Z</time></trkpt><trkpt lat="-31.390619846800067" lon="115.63804858381836"><ele>47.0</ele><time>2026-04-12T04:41:12Z</time></trkpt><trkpt lat="-31.39038973756296" lon="115.6378971806613"><ele>46.5</ele><time>2026-04-12T04:41:13Z</time></trkpt><trkpt lat="-31.39015815194413" lon="115.6377429704853"><ele>46.0</ele><time>2026-04-12T04:41:14Z</time></trkpt><trkpt lat="-31.389927370221614" lon="115.63758948630716"><ele>46.0</ele><time>2026-04-12T04:41:15Z</time></trkpt><trkpt lat="-31.389696544263288" lon="115.6374386572328"><ele>46.0</ele><time>2026-04-12T04:41:16Z</time></trkpt><trkpt lat="-31.38946753988231" lon="115.63728844745516"><ele>45.0</ele><time>2026-04-12T04:41:17Z</time></trkpt><trkpt lat="-31.38924040003833" lon="115.63713641481029"><ele>44.0</ele><time>2026-04-12T04:41:18Z</time></trkpt><trkpt lat="-31.389015614166006" lon="115.63698834250947"><ele>44.5</ele><time>2026-04-12T04:41:19Z</time></trkpt><trkpt lat="-31.388797802012053" lon="115.63683639721074"><ele>45.0</ele><time>2026-04-12T04:41:20Z</time></trkpt><trkpt lat="-31.388588455683365" lon="115.6366710829329"><ele>45.0</ele><time>2026-04-12T04:41:21Z</time></trkpt><trkpt lat="-31.38838620610042" lon="115.63649359718576"><ele>45.0</ele><time>2026-04-12T04:41:22Z</time></trkpt><trkpt lat="-31.3881935669306" lon="115.6363058546024"><ele>43.5</ele><time>2026-04-12T04:41:23Z</time></trkpt><trkpt lat="-31.38800958318758" lon="115.63610316456904"><ele>42.0</ele><time>2026-04-12T04:41:24Z</time></trkpt><trkpt lat="-31.38783286872524" lon="115.63588547729293"><ele>42.0</ele><time>2026-04-12T04:41:25Z</time></trkpt><trkpt lat="-31.38766364200768" lon="115.6356601800217"><ele>42.0</ele><time>2026-04-12T04:41:26Z</time></trkpt><trkpt lat="-31.38749575867758" lon="115.63543089051389"><ele>41.5</ele><time>2026-04-12T04:41:27Z</time></trkpt><trkpt lat="-31.387327760646" lon="115.63520137073915"><ele>41.0</ele><time>2026-04-12T04:41:28Z</time></trkpt><trkpt lat="-31.387159625455226" lon="115.63496513115302"><ele>39.0</ele><time>2026-04-12T04:41:29Z</time></trkpt><trkpt lat="-31.386990787914996" lon="115.6347255283818"><ele>37.0</ele><time>2026-04-12T04:41:30Z</time></trkpt><trkpt lat="-31.386816239071067" lon="115.63448492203642"><ele>37.5</ele><time>2026-04-12T04:41:31Z</time></trkpt><trkpt lat="-31.38664378217295" lon="115.63424317298892"><ele>38.0</ele><time>2026-04-12T04:41:32Z</time></trkpt><trkpt lat="-31.38647491018182" lon="115.63400379909308"><ele>36.0</ele><time>2026-04-12T04:41:33Z</time></trkpt><trkpt lat="-31.386308809678283" lon="115.63377433317577"><ele>34.0</ele><time>2026-04-12T04:41:34Z</time></trkpt><trkpt lat="-31.38614128626172" lon="115.63354629240125"><ele>33.0</ele><time>2026-04-12T04:41:35Z</time></trkpt><trkpt lat="-31.385970363722052" lon="115.63331547850777"><ele>32.0</ele><time>2026-04-12T04:41:36Z</time></trkpt><trkpt lat="-31.385799188757492" lon="115.63308106126034"><ele>32.0</ele><time>2026-04-12T04:41:37Z</time></trkpt><trkpt lat="-31.38562682636567" lon="115.63284574278084"><ele>32.0</ele><time>2026-04-12T04:41:38Z</time></trkpt><trkpt lat="-31.38545555366793" lon="115.6326103628111"><ele>32.0</ele><time>2026-04-12T04:41:39Z</time></trkpt><trkpt lat="-31.38528468904079" lon="115.63237589542261"><ele>32.0</ele><time>2026-04-12T04:41:40Z</time></trkpt><trkpt lat="-31.38511378861897" lon="115.6321396744669"><ele>33.0</ele><time>2026-04-12T04:41:41Z</time></trkpt><trkpt lat="-31.38494526124312" lon="115.6319044828808"><ele>34.0</ele><time>2026-04-12T04:41:42Z</time></trkpt><trkpt lat="-31.384776600381155" lon="115.63166933617711"><ele>35.0</ele><time>2026-04-12T04:41:43Z</time></trkpt><trkpt lat="-31.38460785866773" lon="115.63143545104879"><ele>36.0</ele><time>2026-04-12T04:41:44Z</time></trkpt><trkpt lat="-31.38444059339771" lon="115.6311998892742"><ele>36.5</ele><time>2026-04-12T04:41:45Z</time></trkpt><trkpt lat="-31.384269398655626" lon="115.63096491044999"><ele>37.0</ele><time>2026-04-12T04:41:46Z</time></trkpt><trkpt lat="-31.384096178971575" lon="115.6307284048038"><ele>37.0</ele><time>2026-04-12T04:41:47Z</time></trkpt><trkpt lat="-31.383924276324596" lon="115.63049150312379"><ele>37.0</ele><time>2026-04-12T04:41:48Z</time></trkpt><trkpt lat="-31.38375252847054" lon="115.6302514977487"><ele>36.5</ele><time>2026-04-12T04:41:49Z</time></trkpt><trkpt lat="-31.383580451220524" lon="115.63001516343206"><ele>36.0</ele><time>2026-04-12T04:41:50Z</time></trkpt><trkpt lat="-31.383407812836783" lon="115.62977821056134"><ele>36.0</ele><time>2026-04-12T04:41:51Z</time></trkpt><trkpt lat="-31.383234860119973" lon="115.62954430211686"><ele>36.0</ele><time>2026-04-12T04:41:52Z</time></trkpt><trkpt lat="-31.383062662259025" lon="115.62930977421415"><ele>38.0</ele><time>2026-04-12T04:41:53Z</time></trkpt><trkpt lat="-31.38289253685471" lon="115.62907795863273"><ele>40.0</ele><time>2026-04-12T04:41:54Z</time></trkpt><trkpt lat="-31.38272532719037" lon="115.6288487081859"><ele>41.0</ele><time>2026-04-12T04:41:55.001Z</time></trkpt><trkpt lat="-31.382558838636363" lon="115.62862423818132"><ele>42.0</ele><time>2026-04-12T04:41:56.001Z</time></trkpt><trkpt lat="-31.382388248905816" lon="115.62840552471711"><ele>42.0</ele><time>2026-04-12T04:41:57.001Z</time></trkpt><trkpt lat="-31.382212896658764" lon="115.62818969948644"><ele>42.0</ele><time>2026-04-12T04:41:58.001Z</time></trkpt><trkpt lat="-31.382031929308464" lon="115.62797889196952"><ele>44.0</ele><time>2026-04-12T04:41:59.001Z</time></trkpt><trkpt lat="-31.381840302931117" lon="115.62777864975943"><ele>46.0</ele><time>2026-04-12T04:42:00Z</time></trkpt><trkpt lat="-31.381638143804125" lon="115.62758801767365"><ele>46.0</ele><time>2026-04-12T04:42:01Z</time></trkpt><trkpt lat="-31.381422576384733" lon="115.62741248287077"><ele>46.0</ele><time>2026-04-12T04:42:02Z</time></trkpt><trkpt lat="-31.381199657581867" lon="115.62724074139244"><ele>45.0</ele><time>2026-04-12T04:42:03Z</time></trkpt><trkpt lat="-31.380972473867878" lon="115.62707650487236"><ele>44.0</ele><time>2026-04-12T04:42:04Z</time></trkpt><trkpt lat="-31.380739131482468" lon="115.62691945174214"><ele>41.0</ele><time>2026-04-12T04:42:05Z</time></trkpt><trkpt lat="-31.380500606905258" lon="115.62676499375013"><ele>38.0</ele><time>2026-04-12T04:42:06Z</time></trkpt><trkpt lat="-31.380259264898374" lon="115.62661011078995"><ele>38.0</ele><time>2026-04-12T04:42:07Z</time></trkpt><trkpt lat="-31.38001803486659" lon="115.62645044794331"><ele>38.0</ele><time>2026-04-12T04:42:08Z</time></trkpt><trkpt lat="-31.379781008597046" lon="115.62628812433135"><ele>38.0</ele><time>2026-04-12T04:42:09Z</time></trkpt><trkpt lat="-31.37954162871936" lon="115.62612573159527"><ele>38.0</ele><time>2026-04-12T04:42:10Z</time></trkpt><trkpt lat="-31.379300547225284" lon="115.62596516301629"><ele>38.0</ele><time>2026-04-12T04:42:11Z</time></trkpt><trkpt lat="-31.379059471581378" lon="115.6258067927253"><ele>38.0</ele><time>2026-04-12T04:42:12Z</time></trkpt><trkpt lat="-31.378817728496823" lon="115.6256482703893"><ele>36.5</ele><time>2026-04-12T04:42:13Z</time></trkpt><trkpt lat="-31.378578627590887" lon="115.62549069917817"><ele>35.0</ele><time>2026-04-12T04:42:14Z</time></trkpt><trkpt lat="-31.378342407495037" lon="115.6253291213735"><ele>35.5</ele><time>2026-04-12T04:42:15Z</time></trkpt><trkpt lat="-31.378109215685168" lon="115.6251713053245"><ele>36.0</ele><time>2026-04-12T04:42:16Z</time></trkpt><trkpt lat="-31.377878085241345" lon="115.62501570540577"><ele>36.0</ele><time>2026-04-12T04:42:17Z</time></trkpt><trkpt lat="-31.37764736530545" lon="115.62486344478286"><ele>36.0</ele><time>2026-04-12T04:42:18Z</time></trkpt><trkpt lat="-31.377417650613342" lon="115.6247130669927"><ele>36.0</ele><time>2026-04-12T04:42:19Z</time></trkpt><trkpt lat="-31.3771891630648" lon="115.62456132902055"><ele>36.0</ele><time>2026-04-12T04:42:20Z</time></trkpt><trkpt lat="-31.37696281505006" lon="115.6244127257454"><ele>36.5</ele><time>2026-04-12T04:42:21Z</time></trkpt><trkpt lat="-31.376733315607915" lon="115.62426477928248"><ele>37.0</ele><time>2026-04-12T04:42:22Z</time></trkpt><trkpt lat="-31.37650361239888" lon="115.62411401564583"><ele>37.0</ele><time>2026-04-12T04:42:23Z</time></trkpt><trkpt lat="-31.376273535573702" lon="115.62396071976427"><ele>37.0</ele><time>2026-04-12T04:42:24Z</time></trkpt><trkpt lat="-31.37604261037175" lon="115.62380804420314"><ele>37.0</ele><time>2026-04-12T04:42:25Z</time></trkpt><trkpt lat="-31.375810174609956" lon="115.62365552905082"><ele>37.0</ele><time>2026-04-12T04:42:26Z</time></trkpt><trkpt lat="-31.375579989811328" lon="115.62350133564756"><ele>35.0</ele><time>2026-04-12T04:42:27Z</time></trkpt><trkpt lat="-31.375350151539987" lon="115.62334751913457"><ele>33.0</ele><time>2026-04-12T04:42:28Z</time></trkpt><trkpt lat="-31.375118257858546" lon="115.62319470795208"><ele>33.0</ele><time>2026-04-12T04:42:29Z</time></trkpt><trkpt lat="-31.374885253324532" lon="115.62304182599428"><ele>33.0</ele><time>2026-04-12T04:42:30Z</time></trkpt><trkpt lat="-31.374654811725144" lon="115.62288745776263"><ele>35.0</ele><time>2026-04-12T04:42:31Z</time></trkpt><trkpt lat="-31.374422870561034" lon="115.62273693693695"><ele>37.0</ele><time>2026-04-12T04:42:32Z</time></trkpt><trkpt lat="-31.374203058550147" lon="115.62256871381855"><ele>37.0</ele><time>2026-04-12T04:42:33Z</time></trkpt><trkpt lat="-31.373963981470663" lon="115.62243678260712"><ele>37.0</ele><time>2026-04-12T04:42:34Z</time></trkpt><trkpt lat="-31.373736704699894" lon="115.6222831964623"><ele>38.5</ele><time>2026-04-12T04:42:35Z</time></trkpt><trkpt lat="-31.37351113404671" lon="115.62213306047084"><ele>40.0</ele><time>2026-04-12T04:42:36Z</time></trkpt><trkpt lat="-31.373283469240036" lon="115.62198264818207"><ele>40.0</ele><time>2026-04-12T04:42:37Z</time></trkpt><trkpt lat="-31.37305794675335" lon="115.62183137811469"><ele>40.0</ele><time>2026-04-12T04:42:38Z</time></trkpt><trkpt lat="-31.372831085495957" lon="115.6216789220196"><ele>41.5</ele><time>2026-04-12T04:42:39Z</time></trkpt><trkpt lat="-31.372602860706458" lon="115.6215270044515"><ele>43.0</ele><time>2026-04-12T04:42:40Z</time></trkpt><trkpt lat="-31.37237383164246" lon="115.62137718804023"><ele>43.0</ele><time>2026-04-12T04:42:41Z</time></trkpt><trkpt lat="-31.372142793388207" lon="115.62122869503665"><ele>43.0</ele><time>2026-04-12T04:42:42Z</time></trkpt><trkpt lat="-31.37191083679489" lon="115.62107923474521"><ele>43.0</ele><time>2026-04-12T04:42:43Z</time></trkpt><trkpt lat="-31.371681995931542" lon="115.62092273782388"><ele>43.0</ele><time>2026-04-12T04:42:44Z</time></trkpt><trkpt lat="-31.37145298498944" lon="115.62076595203378"><ele>41.0</ele><time>2026-04-12T04:42:45Z</time></trkpt><trkpt lat="-31.371220612879544" lon="115.6206117208868"><ele>39.0</ele><time>2026-04-12T04:42:46Z</time></trkpt><trkpt lat="-31.37098952325072" lon="115.62045653945816"><ele>40.0</ele><time>2026-04-12T04:42:47Z</time></trkpt><trkpt lat="-31.370757138012657" lon="115.6202988354327"><ele>41.0</ele><time>2026-04-12T04:42:48Z</time></trkpt><trkpt lat="-31.37052955663795" lon="115.62013645891342"><ele>42.5</ele><time>2026-04-12T04:42:49Z</time></trkpt><trkpt lat="-31.370304618780306" lon="115.61997730408163"><ele>44.0</ele><time>2026-04-12T04:42:50Z</time></trkpt><trkpt lat="-31.370080998954766" lon="115.61982159221813"><ele>44.0</ele><time>2026-04-12T04:42:51Z</time></trkpt><trkpt lat="-31.36985746752513" lon="115.6196689400042"><ele>44.0</ele><time>2026-04-12T04:42:52Z</time></trkpt><trkpt lat="-31.36963306631563" lon="115.61951755570688"><ele>45.0</ele><time>2026-04-12T04:42:53Z</time></trkpt><trkpt lat="-31.369408016674964" lon="115.6193633396622"><ele>46.0</ele><time>2026-04-12T04:42:54Z</time></trkpt><trkpt lat="-31.36918499031821" lon="115.61921350351128"><ele>46.0</ele><time>2026-04-12T04:42:55Z</time></trkpt><trkpt lat="-31.3689619982155" lon="115.61906811467242"><ele>46.0</ele><time>2026-04-12T04:42:56Z</time></trkpt><trkpt lat="-31.3687397700106" lon="115.61892226566404"><ele>47.0</ele><time>2026-04-12T04:42:57Z</time></trkpt><trkpt lat="-31.36851710983528" lon="115.61877276235431"><ele>48.0</ele><time>2026-04-12T04:42:58Z</time></trkpt><trkpt lat="-31.368293923422478" lon="115.61862156080996"><ele>48.5</ele><time>2026-04-12T04:42:59Z</time></trkpt><trkpt lat="-31.368067042595023" lon="115.61846823385943"><ele>49.0</ele><time>2026-04-12T04:43:00Z</time></trkpt><trkpt lat="-31.36783731718825" lon="115.61831526951582"><ele>51.5</ele><time>2026-04-12T04:43:01Z</time></trkpt><trkpt lat="-31.367602141461575" lon="115.61816179772842"><ele>54.0</ele><time>2026-04-12T04:43:02Z</time></trkpt><trkpt lat="-31.36736434297017" lon="115.61800465765643"><ele>54.5</ele><time>2026-04-12T04:43:03Z</time></trkpt><trkpt lat="-31.36712163646027" lon="115.61784465779041"><ele>55.0</ele><time>2026-04-12T04:43:04Z</time></trkpt><trkpt lat="-31.36687847364245" lon="115.61768645023562"><ele>56.5</ele><time>2026-04-12T04:43:05Z</time></trkpt><trkpt lat="-31.366632458413733" lon="115.61752590465794"><ele>58.0</ele><time>2026-04-12T04:43:06Z</time></trkpt><trkpt lat="-31.366383361628934" lon="115.61736522634348"><ele>58.5</ele><time>2026-04-12T04:43:07Z</time></trkpt><trkpt lat="-31.366137420970535" lon="115.61719977732423"><ele>59.0</ele><time>2026-04-12T04:43:08Z</time></trkpt><trkpt lat="-31.365892189797894" lon="115.6170313720976"><ele>60.0</ele><time>2026-04-12T04:43:09Z</time></trkpt><trkpt lat="-31.36564621446665" lon="115.61686331625006"><ele>61.0</ele><time>2026-04-12T04:43:10Z</time></trkpt><trkpt lat="-31.365397496915946" lon="115.61670115161598"><ele>62.5</ele><time>2026-04-12T04:43:11Z</time></trkpt><trkpt lat="-31.365146243170898" lon="115.61653923963972"><ele>64.0</ele><time>2026-04-12T04:43:12Z</time></trkpt><trkpt lat="-31.364896295679912" lon="115.6163742050043"><ele>63.5</ele><time>2026-04-12T04:43:13Z</time></trkpt><trkpt lat="-31.364646700342583" lon="115.61620770036588"><ele>63.0</ele><time>2026-04-12T04:43:14Z</time></trkpt><trkpt lat="-31.364398583395648" lon="115.61604422717936"><ele>65.5</ele><time>2026-04-12T04:43:15Z</time></trkpt><trkpt lat="-31.36415060535914" lon="115.61588051191555"><ele>68.0</ele><time>2026-04-12T04:43:16Z</time></trkpt><trkpt lat="-31.363902999041713" lon="115.615713867083"><ele>67.0</ele><time>2026-04-12T04:43:17Z</time></trkpt><trkpt lat="-31.36365446063923" lon="115.61554520696576"><ele>66.0</ele><time>2026-04-12T04:43:18Z</time></trkpt><trkpt lat="-31.363405794113806" lon="115.6153757362067"><ele>65.5</ele><time>2026-04-12T04:43:19Z</time></trkpt><trkpt lat="-31.363157369203034" lon="115.61520946769465"><ele>65.0</ele><time>2026-04-12T04:43:20Z</time></trkpt><trkpt lat="-31.362906918732016" lon="115.61504523974612"><ele>65.0</ele><time>2026-04-12T04:43:21Z</time></trkpt><trkpt lat="-31.36265474550805" lon="115.61488083320087"><ele>65.0</ele><time>2026-04-12T04:43:22Z</time></trkpt><trkpt lat="-31.362400936854755" lon="115.6147137081753"><ele>64.5</ele><time>2026-04-12T04:43:23Z</time></trkpt><trkpt lat="-31.36215007999229" lon="115.6145475318293"><ele>64.0</ele><time>2026-04-12T04:43:24Z</time></trkpt><trkpt lat="-31.36190039796763" lon="115.61438287499462"><ele>64.0</ele><time>2026-04-12T04:43:25Z</time></trkpt><trkpt lat="-31.361655239566943" lon="115.61421838846735"><ele>64.0</ele><time>2026-04-12T04:43:26Z</time></trkpt><trkpt lat="-31.361409770142583" lon="115.61405505992828"><ele>63.5</ele><time>2026-04-12T04:43:27Z</time></trkpt><trkpt lat="-31.361165663585627" lon="115.61389277869294"><ele>63.0</ele><time>2026-04-12T04:43:28Z</time></trkpt><trkpt lat="-31.360920846469472" lon="115.61373197275405"><ele>65.0</ele><time>2026-04-12T04:43:29Z</time></trkpt><trkpt lat="-31.360676249778244" lon="115.61357037039313"><ele>67.0</ele><time>2026-04-12T04:43:30Z</time></trkpt><trkpt lat="-31.36043299273645" lon="115.61340598406582"><ele>67.5</ele><time>2026-04-12T04:43:31Z</time></trkpt><trkpt lat="-31.360191285134718" lon="115.61324315949877"><ele>68.0</ele><time>2026-04-12T04:43:32.001Z</time></trkpt><trkpt lat="-31.359949926262015" lon="115.6130829776959"><ele>68.0</ele><time>2026-04-12T04:43:33.001Z</time></trkpt><trkpt lat="-31.35970630266501" lon="115.61292247696589"><ele>68.0</ele><time>2026-04-12T04:43:34.001Z</time></trkpt><trkpt lat="-31.35946300003644" lon="115.61276049473415"><ele>67.5</ele><time>2026-04-12T04:43:35.001Z</time></trkpt><trkpt lat="-31.359223192232772" lon="115.61259963380978"><ele>67.0</ele><time>2026-04-12T04:43:36.001Z</time></trkpt><trkpt lat="-31.358981981106073" lon="115.61244185274917"><ele>66.5</ele><time>2026-04-12T04:43:37.001Z</time></trkpt><trkpt lat="-31.35873747829447" lon="115.61228650326733"><ele>66.0</ele><time>2026-04-12T04:43:38.001Z</time></trkpt><trkpt lat="-31.358490468474056" lon="115.61213203668301"><ele>64.5</ele><time>2026-04-12T04:43:39.001Z</time></trkpt><trkpt lat="-31.35824316349866" lon="115.6119772852072"><ele>63.0</ele><time>2026-04-12T04:43:40.001Z</time></trkpt><trkpt lat="-31.357996107291925" lon="115.61182563868863"><ele>63.0</ele><time>2026-04-12T04:43:41.001Z</time></trkpt><trkpt lat="-31.35775047936086" lon="115.61167008594487"><ele>63.0</ele><time>2026-04-12T04:43:42.001Z</time></trkpt><trkpt lat="-31.357508469542267" lon="115.61150927562653"><ele>63.0</ele><time>2026-04-12T04:43:43.001Z</time></trkpt><trkpt lat="-31.357262656509587" lon="115.61134588457844"><ele>63.0</ele><time>2026-04-12T04:43:44.001Z</time></trkpt><trkpt lat="-31.357016623021718" lon="115.61118426731316"><ele>61.0</ele><time>2026-04-12T04:43:45.001Z</time></trkpt><trkpt lat="-31.356770311825116" lon="115.6110212000131"><ele>59.0</ele><time>2026-04-12T04:43:46.001Z</time></trkpt><trkpt lat="-31.356526216813506" lon="115.61085939233217"><ele>60.0</ele><time>2026-04-12T04:43:47.001Z</time></trkpt><trkpt lat="-31.356281576063644" lon="115.61069524518487"><ele>61.0</ele><time>2026-04-12T04:43:48.001Z</time></trkpt><trkpt lat="-31.356038945851402" lon="115.61053567402669"><ele>61.0</ele><time>2026-04-12T04:43:49.001Z</time></trkpt><trkpt lat="-31.355797269593527" lon="115.61037641459629"><ele>61.0</ele><time>2026-04-12T04:43:50.001Z</time></trkpt><trkpt lat="-31.355554539293983" lon="115.6102175046239"><ele>60.5</ele><time>2026-04-12T04:43:51.001Z</time></trkpt><trkpt lat="-31.355311993305932" lon="115.61005814809099"><ele>60.0</ele><time>2026-04-12T04:43:52.001Z</time></trkpt><trkpt lat="-31.355070387219307" lon="115.60989849298632"><ele>60.0</ele><time>2026-04-12T04:43:53.001Z</time></trkpt><trkpt lat="-31.35483011607737" lon="115.60974158018603"><ele>60.0</ele><time>2026-04-12T04:43:54.001Z</time></trkpt><trkpt lat="-31.354590773769583" lon="115.60958629949869"><ele>58.0</ele><time>2026-04-12T04:43:55.001Z</time></trkpt><trkpt lat="-31.354354870083593" lon="115.60942983861081"><ele>56.0</ele><time>2026-04-12T04:43:56.001Z</time></trkpt><trkpt lat="-31.35412367817906" lon="115.60927320802152"><ele>56.0</ele><time>2026-04-12T04:43:57.001Z</time></trkpt><trkpt lat="-31.353890748437838" lon="115.60911703665671"><ele>56.0</ele><time>2026-04-12T04:43:58.001Z</time></trkpt><trkpt lat="-31.353659346745292" lon="115.60896377483401"><ele>56.5</ele><time>2026-04-12T04:43:59.001Z</time></trkpt><trkpt lat="-31.353424805299987" lon="115.60880944753822"><ele>57.0</ele><time>2026-04-12T04:44:00.001Z</time></trkpt><trkpt lat="-31.35319026416421" lon="115.60865234086323"><ele>57.5</ele><time>2026-04-12T04:44:01.001Z</time></trkpt><trkpt lat="-31.352956496753748" lon="115.60849363626981"><ele>58.0</ele><time>2026-04-12T04:44:02.001Z</time></trkpt><trkpt lat="-31.352721675225624" lon="115.60833653563013"><ele>58.0</ele><time>2026-04-12T04:44:03.001Z</time></trkpt><trkpt lat="-31.35248660262367" lon="115.60817953767771"><ele>58.0</ele><time>2026-04-12T04:44:04.001Z</time></trkpt><trkpt lat="-31.352253261827485" lon="115.6080224647719"><ele>58.0</ele><time>2026-04-12T04:44:05.001Z</time></trkpt><trkpt lat="-31.352025224134046" lon="115.60786501934932"><ele>58.0</ele><time>2026-04-12T04:44:06Z</time></trkpt><trkpt lat="-31.35179569407916" lon="115.6077122787605"><ele>58.0</ele><time>2026-04-12T04:44:07Z</time></trkpt><trkpt lat="-31.35156956890117" lon="115.60756427209904"><ele>58.0</ele><time>2026-04-12T04:44:08Z</time></trkpt><trkpt lat="-31.351345912685233" lon="115.60741745870443"><ele>59.5</ele><time>2026-04-12T04:44:09Z</time></trkpt><trkpt lat="-31.351129294956156" lon="115.60727452146102"><ele>61.0</ele><time>2026-04-12T04:44:10Z</time></trkpt><trkpt lat="-31.350916878736896" lon="115.60713249578106"><ele>61.0</ele><time>2026-04-12T04:44:11Z</time></trkpt><trkpt lat="-31.350703043906716" lon="115.60699270410188"><ele>61.0</ele><time>2026-04-12T04:44:12Z</time></trkpt><trkpt lat="-31.350486937860047" lon="115.60685283211207"><ele>61.0</ele><time>2026-04-12T04:44:13Z</time></trkpt><trkpt lat="-31.35027199528678" lon="115.60671329654473"><ele>61.0</ele><time>2026-04-12T04:44:14Z</time></trkpt><trkpt lat="-31.35005914723739" lon="115.60657499778904"><ele>61.0</ele><time>2026-04-12T04:44:15Z</time></trkpt><trkpt lat="-31.34984605176436" lon="115.6064325864804"><ele>61.0</ele><time>2026-04-12T04:44:16Z</time></trkpt><trkpt lat="-31.349631533818147" lon="115.60628823713392"><ele>59.5</ele><time>2026-04-12T04:44:17Z</time></trkpt><trkpt lat="-31.34941424447931" lon="115.60614143100346"><ele>58.0</ele><time>2026-04-12T04:44:18Z</time></trkpt><trkpt lat="-31.349200425323023" lon="115.6059955449053"><ele>58.0</ele><time>2026-04-12T04:44:19Z</time></trkpt><trkpt lat="-31.34898624779591" lon="115.60585090728115"><ele>58.0</ele><time>2026-04-12T04:44:20Z</time></trkpt><trkpt lat="-31.348770297931736" lon="115.60570972081594"><ele>58.0</ele><time>2026-04-12T04:44:21Z</time></trkpt><trkpt lat="-31.348553606406853" lon="115.60556812091814"><ele>58.0</ele><time>2026-04-12T04:44:22Z</time></trkpt><trkpt lat="-31.348337942642363" lon="115.60542711881888"><ele>57.5</ele><time>2026-04-12T04:44:23Z</time></trkpt><trkpt lat="-31.34812944516127" lon="115.60528799668148"><ele>57.0</ele><time>2026-04-12T04:44:24Z</time></trkpt><trkpt lat="-31.34791888013625" lon="115.60514836267387"><ele>57.0</ele><time>2026-04-12T04:44:25Z</time></trkpt><trkpt lat="-31.34771183519729" lon="115.60501093000853"><ele>57.0</ele><time>2026-04-12T04:44:26Z</time></trkpt><trkpt lat="-31.34750372229173" lon="115.60487440567525"><ele>57.0</ele><time>2026-04-12T04:44:27Z</time></trkpt><trkpt lat="-31.34729947777156" lon="115.60473731509143"><ele>57.0</ele><time>2026-04-12T04:44:28Z</time></trkpt><trkpt lat="-31.347105254054863" lon="115.60460621144524"><ele>57.0</ele><time>2026-04-12T04:44:29Z</time></trkpt><trkpt lat="-31.346920257272046" lon="115.60448118039751"><ele>57.0</ele><time>2026-04-12T04:44:30Z</time></trkpt><trkpt lat="-31.34673487479226" lon="115.60435524479422"><ele>57.0</ele><time>2026-04-12T04:44:31Z</time></trkpt><trkpt lat="-31.346541634030785" lon="115.60422857329193"><ele>57.33333333333333</ele><time>2026-04-12T04:44:32Z</time></trkpt><trkpt lat="-31.34634618101328" lon="115.60410093426279"><ele>57.666666666666664</ele><time>2026-04-12T04:44:33Z</time></trkpt><trkpt lat="-31.346150691007377" lon="115.60397374456284"><ele>58.0</ele><time>2026-04-12T04:44:34Z</time></trkpt><trkpt lat="-31.345956157900805" lon="115.60384771024319"><ele>58.0</ele><time>2026-04-12T04:44:35Z</time></trkpt><trkpt lat="-31.34576108936621" lon="115.6037211409814"><ele>58.0</ele><time>2026-04-12T04:44:36Z</time></trkpt><trkpt lat="-31.345565193650597" lon="115.6035934558277"><ele>58.0</ele><time>2026-04-12T04:44:37Z</time></trkpt><trkpt lat="-31.345367507445562" lon="115.60345813571568"><ele>56.666666666666664</ele><time>2026-04-12T04:44:38Z</time></trkpt><trkpt lat="-31.345182690407576" lon="115.60332988503878"><ele>55.33333333333333</ele><time>2026-04-12T04:44:39Z</time></trkpt><trkpt lat="-31.34500589094964" lon="115.60321046158131"><ele>54.0</ele><time>2026-04-12T04:44:40Z</time></trkpt><trkpt lat="-31.34483327207161" lon="115.6030962969481"><ele>54.33333333333333</ele><time>2026-04-12T04:44:41Z</time></trkpt><trkpt lat="-31.344656662241448" lon="115.60297841031968"><ele>54.666666666666664</ele><time>2026-04-12T04:44:42Z</time></trkpt><trkpt lat="-31.344478259842145" lon="115.60285906544703"><ele>55.0</ele><time>2026-04-12T04:44:43Z</time></trkpt><trkpt lat="-31.344298882654222" lon="115.60274018373399"><ele>54.33333333333333</ele><time>2026-04-12T04:44:44Z</time></trkpt><trkpt lat="-31.344124990515304" lon="115.60262554731848"><ele>53.66666666666667</ele><time>2026-04-12T04:44:45Z</time></trkpt><trkpt lat="-31.343951823230043" lon="115.60251045302876"><ele>53.0</ele><time>2026-04-12T04:44:46Z</time></trkpt><trkpt lat="-31.34378241101981" lon="115.60239821258156"><ele>53.0</ele><time>2026-04-12T04:44:47Z</time></trkpt><trkpt lat="-31.343616640244832" lon="115.60228582677591"><ele>53.0</ele><time>2026-04-12T04:44:48Z</time></trkpt><trkpt lat="-31.34344857093889" lon="115.60217717191475"><ele>53.0</ele><time>2026-04-12T04:44:49Z</time></trkpt><trkpt lat="-31.34327536182976" lon="115.60206642605108"><ele>52.0</ele><time>2026-04-12T04:44:50Z</time></trkpt><trkpt lat="-31.343103254849943" lon="115.60195036667002"><ele>51.0</ele><time>2026-04-12T04:44:51Z</time></trkpt><trkpt lat="-31.34292809554404" lon="115.60183439823642"><ele>50.0</ele><time>2026-04-12T04:44:52Z</time></trkpt><trkpt lat="-31.342748832730667" lon="115.6017138352673"><ele>49.66666666666667</ele><time>2026-04-12T04:44:53Z</time></trkpt><trkpt lat="-31.342566389422178" lon="115.60158838909334"><ele>49.33333333333333</ele><time>2026-04-12T04:44:54Z</time></trkpt><trkpt lat="-31.342379815882957" lon="115.60146359043793"><ele>49.0</ele><time>2026-04-12T04:44:55Z</time></trkpt><trkpt lat="-31.34218746151324" lon="115.60134234166605"><ele>48.0</ele><time>2026-04-12T04:44:56Z</time></trkpt><trkpt lat="-31.341989329968488" lon="115.60121936055462"><ele>47.0</ele><time>2026-04-12T04:44:57Z</time></trkpt><trkpt lat="-31.34178426260152" lon="115.60109499442582"><ele>46.5</ele><time>2026-04-12T04:44:58Z</time></trkpt><trkpt lat="-31.34158021470803" lon="115.6009842046885"><ele>46.0</ele><time>2026-04-12T04:44:59Z</time></trkpt><trkpt lat="-31.341366802783895" lon="115.60087917822169"><ele>47.0</ele><time>2026-04-12T04:45:00Z</time></trkpt><trkpt lat="-31.341149072520317" lon="115.600781522976"><ele>48.0</ele><time>2026-04-12T04:45:01Z</time></trkpt><trkpt lat="-31.34092295513815" lon="115.60068826491765"><ele>48.0</ele><time>2026-04-12T04:45:02Z</time></trkpt><trkpt lat="-31.34069019325993" lon="115.60060509597088"><ele>48.0</ele><time>2026-04-12T04:45:03Z</time></trkpt><trkpt lat="-31.340449493998637" lon="115.60053219097992"><ele>49.0</ele><time>2026-04-12T04:45:04Z</time></trkpt><trkpt lat="-31.340205435557486" lon="115.60046617063806"><ele>50.0</ele><time>2026-04-12T04:45:05Z</time></trkpt><trkpt lat="-31.33996604279805" lon="115.60041056015088"><ele>50.0</ele><time>2026-04-12T04:45:06Z</time></trkpt><trkpt lat="-31.33972331428508" lon="115.6003574026345"><ele>50.0</ele><time>2026-04-12T04:45:07Z</time></trkpt><trkpt lat="-31.33948240463682" lon="115.60030264328712"><ele>50.5</ele><time>2026-04-12T04:45:08Z</time></trkpt><trkpt lat="-31.339243438054005" lon="115.60024163686991"><ele>51.0</ele><time>2026-04-12T04:45:09Z</time></trkpt><trkpt lat="-31.339008378919836" lon="115.60017927601025"><ele>53.5</ele><time>2026-04-12T04:45:10.001Z</time></trkpt><trkpt lat="-31.33877392681525" lon="115.60011814230572"><ele>56.0</ele><time>2026-04-12T04:45:11.001Z</time></trkpt><trkpt lat="-31.338537273901164" lon="115.60006223906989"><ele>56.0</ele><time>2026-04-12T04:45:12.001Z</time></trkpt><trkpt lat="-31.33829421064598" lon="115.60000782077148"><ele>56.0</ele><time>2026-04-12T04:45:13.001Z</time></trkpt><trkpt lat="-31.338050828428603" lon="115.59995555279355"><ele>57.0</ele><time>2026-04-12T04:45:14.001Z</time></trkpt><trkpt lat="-31.337807750691546" lon="115.59990072243696"><ele>58.0</ele><time>2026-04-12T04:45:15.001Z</time></trkpt><trkpt lat="-31.33756587032225" lon="115.59984226850752"><ele>58.0</ele><time>2026-04-12T04:45:16.001Z</time></trkpt><trkpt lat="-31.337324789968704" lon="115.59978340674645"><ele>58.0</ele><time>2026-04-12T04:45:17.001Z</time></trkpt><trkpt lat="-31.33708535494401" lon="115.59972638405192"><ele>59.0</ele><time>2026-04-12T04:45:18.001Z</time></trkpt><trkpt lat="-31.336848171822123" lon="115.5996686210795"><ele>60.0</ele><time>2026-04-12T04:45:19.001Z</time></trkpt><trkpt lat="-31.336611300891136" lon="115.59961015962176"><ele>60.0</ele><time>2026-04-12T04:45:20.001Z</time></trkpt><trkpt lat="-31.336372603371096" lon="115.59955073083883"><ele>60.0</ele><time>2026-04-12T04:45:21.001Z</time></trkpt><trkpt lat="-31.33613211318128" lon="115.599490420864"><ele>60.0</ele><time>2026-04-12T04:45:22.001Z</time></trkpt><trkpt lat="-31.33589222895728" lon="115.59943283977638"><ele>60.0</ele><time>2026-04-12T04:45:23.001Z</time></trkpt><trkpt lat="-31.335649198767506" lon="115.59937666614553"><ele>60.5</ele><time>2026-04-12T04:45:24.001Z</time></trkpt><trkpt lat="-31.335400978765705" lon="115.59932048696261"><ele>61.0</ele><time>2026-04-12T04:45:25.001Z</time></trkpt><trkpt lat="-31.335153275552262" lon="115.59926613647201"><ele>61.0</ele><time>2026-04-12T04:45:26.001Z</time></trkpt><trkpt lat="-31.334913018035422" lon="115.59921279298011"><ele>61.0</ele><time>2026-04-12T04:45:27.001Z</time></trkpt><trkpt lat="-31.334688454206393" lon="115.59915875747308"><ele>60.5</ele><time>2026-04-12T04:45:28.001Z</time></trkpt><trkpt lat="-31.33445939317108" lon="115.59910215797201"><ele>60.0</ele><time>2026-04-12T04:45:29.001Z</time></trkpt><trkpt lat="-31.334228514384154" lon="115.59904397962254"><ele>60.0</ele><time>2026-04-12T04:45:30.001Z</time></trkpt><trkpt lat="-31.333992539441315" lon="115.59898558368201"><ele>60.0</ele><time>2026-04-12T04:45:31.001Z</time></trkpt><trkpt lat="-31.333752858524363" lon="115.59892727165466"><ele>60.0</ele><time>2026-04-12T04:45:32.001Z</time></trkpt><trkpt lat="-31.333511903718584" lon="115.59886686431503"><ele>60.0</ele><time>2026-04-12T04:45:33.001Z</time></trkpt><trkpt lat="-31.333269924809432" lon="115.59880741767734"><ele>62.0</ele><time>2026-04-12T04:45:34.001Z</time></trkpt><trkpt lat="-31.333028935701993" lon="115.59874535831848"><ele>64.0</ele><time>2026-04-12T04:45:35.001Z</time></trkpt><trkpt lat="-31.332789858658746" lon="115.59867537215682"><ele>62.0</ele><time>2026-04-12T04:45:36.001Z</time></trkpt><trkpt lat="-31.33255361725723" lon="115.5985897458774"><ele>60.0</ele><time>2026-04-12T04:45:37.001Z</time></trkpt><trkpt lat="-31.332317001682664" lon="115.59848833762604"><ele>60.5</ele><time>2026-04-12T04:45:38.001Z</time></trkpt><trkpt lat="-31.332087236536076" lon="115.59837187758217"><ele>61.0</ele><time>2026-04-12T04:45:39.001Z</time></trkpt><trkpt lat="-31.33186218230729" lon="115.59823814104777"><ele>61.0</ele><time>2026-04-12T04:45:40.001Z</time></trkpt><trkpt lat="-31.331643321077287" lon="115.59809504530533"><ele>61.0</ele><time>2026-04-12T04:45:41.001Z</time></trkpt><trkpt lat="-31.331430331453397" lon="115.59794850355836"><ele>62.0</ele><time>2026-04-12T04:45:42.001Z</time></trkpt><trkpt lat="-31.331222582833842" lon="115.59780299478356"><ele>63.0</ele><time>2026-04-12T04:45:43.001Z</time></trkpt><trkpt lat="-31.33101380484808" lon="115.59765361172826"><ele>63.0</ele><time>2026-04-12T04:45:44.001Z</time></trkpt><trkpt lat="-31.330804615854724" lon="115.59750635327433"><ele>63.0</ele><time>2026-04-12T04:45:45.001Z</time></trkpt><trkpt lat="-31.330597881500626" lon="115.59736329006114"><ele>64.5</ele><time>2026-04-12T04:45:46.001Z</time></trkpt><trkpt lat="-31.330387588874885" lon="115.59722236105013"><ele>66.0</ele><time>2026-04-12T04:45:47.001Z</time></trkpt><trkpt lat="-31.33017731933866" lon="115.59708358705261"><ele>65.5</ele><time>2026-04-12T04:45:48.001Z</time></trkpt><trkpt lat="-31.329968037990955" lon="115.59694813385988"><ele>65.0</ele><time>2026-04-12T04:45:49.001Z</time></trkpt><trkpt lat="-31.32976140140586" lon="115.5968168445626"><ele>66.0</ele><time>2026-04-12T04:45:50.001Z</time></trkpt><trkpt lat="-31.329553190265717" lon="115.59668386446629"><ele>67.0</ele><time>2026-04-12T04:45:51.001Z</time></trkpt><trkpt lat="-31.32934743979373" lon="115.59655009221174"><ele>67.0</ele><time>2026-04-12T04:45:52.001Z</time></trkpt><trkpt lat="-31.329139090655143" lon="115.59641350899724"><ele>67.0</ele><time>2026-04-12T04:45:53.001Z</time></trkpt><trkpt lat="-31.32892507870833" lon="115.59627369764081"><ele>66.0</ele><time>2026-04-12T04:45:54.001Z</time></trkpt><trkpt lat="-31.328707584327315" lon="115.59613357948456"><ele>65.0</ele><time>2026-04-12T04:45:55.001Z</time></trkpt><trkpt lat="-31.328491164222594" lon="115.59599697641276"><ele>65.0</ele><time>2026-04-12T04:45:56.001Z</time></trkpt><trkpt lat="-31.328280181042036" lon="115.59586422631921"><ele>65.0</ele><time>2026-04-12T04:45:57.001Z</time></trkpt><trkpt lat="-31.328072173600642" lon="115.59573327267168"><ele>67.0</ele><time>2026-04-12T04:45:58.001Z</time></trkpt><trkpt lat="-31.327870368980257" lon="115.59560173160833"><ele>69.0</ele><time>2026-04-12T04:45:59.001Z</time></trkpt><trkpt lat="-31.327670786325662" lon="115.59546692205008"><ele>69.66666666666667</ele><time>2026-04-12T04:46:00.001Z</time></trkpt><trkpt lat="-31.32747812355787" lon="115.59533495253619"><ele>70.33333333333334</ele><time>2026-04-12T04:46:01.001Z</time></trkpt><trkpt lat="-31.327285607310035" lon="115.59520396809154"><ele>71.0</ele><time>2026-04-12T04:46:02.001Z</time></trkpt><trkpt lat="-31.32709712086356" lon="115.59507652911718"><ele>71.33333333333334</ele><time>2026-04-12T04:46:03.001Z</time></trkpt><trkpt lat="-31.326901226921702" lon="115.5949453315087"><ele>71.66666666666667</ele><time>2026-04-12T04:46:04.001Z</time></trkpt><trkpt lat="-31.32670742602668" lon="115.5948199550931"><ele>72.0</ele><time>2026-04-12T04:46:05.001Z</time></trkpt><trkpt lat="-31.326505143279885" lon="115.59469380312724"><ele>72.5</ele><time>2026-04-12T04:46:06.001Z</time></trkpt><trkpt lat="-31.326302369680203" lon="115.59456294233325"><ele>73.0</ele><time>2026-04-12T04:46:07.001Z</time></trkpt><trkpt lat="-31.326097997305233" lon="115.59442547122138"><ele>73.5</ele><time>2026-04-12T04:46:08.001Z</time></trkpt><trkpt lat="-31.3258940596931" lon="115.59428428185211"><ele>74.0</ele><time>2026-04-12T04:46:09.001Z</time></trkpt><trkpt lat="-31.325685694266824" lon="115.59414489732393"><ele>74.0</ele><time>2026-04-12T04:46:10.001Z</time></trkpt><trkpt lat="-31.325470689541397" lon="115.59400279035853"><ele>74.0</ele><time>2026-04-12T04:46:11.001Z</time></trkpt><trkpt lat="-31.325250915838883" lon="115.5938608857865"><ele>74.0</ele><time>2026-04-12T04:46:12Z</time></trkpt><trkpt lat="-31.325026929832372" lon="115.59371588362833"><ele>74.0</ele><time>2026-04-12T04:46:13Z</time></trkpt><trkpt lat="-31.32480245969311" lon="115.5935701300361"><ele>74.0</ele><time>2026-04-12T04:46:14Z</time></trkpt><trkpt lat="-31.32457933057277" lon="115.59342434346425"><ele>74.0</ele><time>2026-04-12T04:46:15Z</time></trkpt><trkpt lat="-31.32435145278281" lon="115.59327326262907"><ele>74.0</ele><time>2026-04-12T04:46:16Z</time></trkpt><trkpt lat="-31.324125392186883" lon="115.59312322103499"><ele>74.0</ele><time>2026-04-12T04:46:17Z</time></trkpt><trkpt lat="-31.32389670435376" lon="115.59297189072355"><ele>71.5</ele><time>2026-04-12T04:46:18Z</time></trkpt><trkpt lat="-31.32366798514726" lon="115.59281888338595"><ele>69.0</ele><time>2026-04-12T04:46:19Z</time></trkpt><trkpt lat="-31.32343906255734" lon="115.59266675405709"><ele>69.0</ele><time>2026-04-12T04:46:20Z</time></trkpt><trkpt lat="-31.323210554531485" lon="115.59251425356278"><ele>69.0</ele><time>2026-04-12T04:46:21Z</time></trkpt><trkpt lat="-31.322979782292265" lon="115.59236340492481"><ele>69.0</ele><time>2026-04-12T04:46:22Z</time></trkpt><trkpt lat="-31.322754194997877" lon="115.59221707672243"><ele>69.0</ele><time>2026-04-12T04:46:23Z</time></trkpt><trkpt lat="-31.322539923030384" lon="115.59207544131476"><ele>68.5</ele><time>2026-04-12T04:46:24Z</time></trkpt><trkpt lat="-31.322326263314686" lon="115.59193395255495"><ele>68.0</ele><time>2026-04-12T04:46:25Z</time></trkpt><trkpt lat="-31.32211113670487" lon="115.59178947732819"><ele>67.5</ele><time>2026-04-12T04:46:26Z</time></trkpt><trkpt lat="-31.321892750387303" lon="115.59164562269767"><ele>67.0</ele><time>2026-04-12T04:46:27Z</time></trkpt><trkpt lat="-31.321674321610104" lon="115.59150066279437"><ele>67.0</ele><time>2026-04-12T04:46:28Z</time></trkpt><trkpt lat="-31.32145202662688" lon="115.5913524628326"><ele>67.0</ele><time>2026-04-12T04:46:29Z</time></trkpt><trkpt lat="-31.32122532133218" lon="115.59120103486642"><ele>63.5</ele><time>2026-04-12T04:46:30Z</time></trkpt><trkpt lat="-31.320996314377002" lon="115.59104973367734"><ele>60.0</ele><time>2026-04-12T04:46:31Z</time></trkpt><trkpt lat="-31.320766225682597" lon="115.59089975426836"><ele>60.5</ele><time>2026-04-12T04:46:32Z</time></trkpt><trkpt lat="-31.320539159568995" lon="115.5907526567091"><ele>61.0</ele><time>2026-04-12T04:46:33Z</time></trkpt><trkpt lat="-31.320313099343483" lon="115.59060401176865"><ele>61.0</ele><time>2026-04-12T04:46:34Z</time></trkpt><trkpt lat="-31.320094838136132" lon="115.59045733606123"><ele>61.0</ele><time>2026-04-12T04:46:35Z</time></trkpt><trkpt lat="-31.319905734277896" lon="115.59029311645529"><ele>59.0</ele><time>2026-04-12T04:46:36Z</time></trkpt><trkpt lat="-31.319709615893327" lon="115.59013609261261"><ele>57.0</ele><time>2026-04-12T04:46:37Z</time></trkpt><trkpt lat="-31.319509529675884" lon="115.58997596963735"><ele>57.0</ele><time>2026-04-12T04:46:38Z</time></trkpt><trkpt lat="-31.319326803771126" lon="115.5897844366748"><ele>57.0</ele><time>2026-04-12T04:46:39Z</time></trkpt><trkpt lat="-31.319150681055312" lon="115.58958929587648"><ele>57.0</ele><time>2026-04-12T04:46:40Z</time></trkpt><trkpt lat="-31.318987530503648" lon="115.5893903631973"><ele>57.0</ele><time>2026-04-12T04:46:41Z</time></trkpt><trkpt lat="-31.318835966939638" lon="115.58918747586152"><ele>57.0</ele><time>2026-04-12T04:46:42Z</time></trkpt><trkpt lat="-31.318678947291026" lon="115.58900110343932"><ele>57.0</ele><time>2026-04-12T04:46:43Z</time></trkpt><trkpt lat="-31.31855716258713" lon="115.58877633205735"><ele>57.33333333333333</ele><time>2026-04-12T04:46:44Z</time></trkpt><trkpt lat="-31.318430267076476" lon="115.58856800513405"><ele>57.666666666666664</ele><time>2026-04-12T04:46:45Z</time></trkpt><trkpt lat="-31.31831503775484" lon="115.58836019756843"><ele>58.0</ele><time>2026-04-12T04:46:46Z</time></trkpt><trkpt lat="-31.31820816762666" lon="115.58816517629685"><ele>58.0</ele><time>2026-04-12T04:46:47Z</time></trkpt><trkpt lat="-31.31810541193656" lon="115.58798752532668"><ele>58.0</ele><time>2026-04-12T04:46:48Z</time></trkpt><trkpt lat="-31.318004492528427" lon="115.58781527187789"><ele>58.0</ele><time>2026-04-12T04:46:49Z</time></trkpt><trkpt lat="-31.317902805607424" lon="115.58764756692881"><ele>57.666666666666664</ele><time>2026-04-12T04:46:50Z</time></trkpt><trkpt lat="-31.3177924400663" lon="115.58747693858767"><ele>57.33333333333333</ele><time>2026-04-12T04:46:51Z</time></trkpt><trkpt lat="-31.317679316988137" lon="115.58729746671486"><ele>57.0</ele><time>2026-04-12T04:46:52Z</time></trkpt><trkpt lat="-31.317566001700296" lon="115.58711255062991"><ele>56.66666666666667</ele><time>2026-04-12T04:46:53Z</time></trkpt><trkpt lat="-31.31745076506749" lon="115.58692359147695"><ele>56.333333333333336</ele><time>2026-04-12T04:46:54Z</time></trkpt><trkpt lat="-31.317331175216697" lon="115.58672542858709"><ele>56.0</ele><time>2026-04-12T04:46:55Z</time></trkpt><trkpt lat="-31.317216397021625" lon="115.58651946582702"><ele>56.0</ele><time>2026-04-12T04:46:56Z</time></trkpt><trkpt lat="-31.31710560791774" lon="115.58631240369647"><ele>56.0</ele><time>2026-04-12T04:46:57Z</time></trkpt><trkpt lat="-31.31699335827562" lon="115.58610378455475"><ele>56.0</ele><time>2026-04-12T04:46:58Z</time></trkpt><trkpt lat="-31.316876987856137" lon="115.5858923923873"><ele>55.66666666666667</ele><time>2026-04-12T04:46:59Z</time></trkpt><trkpt lat="-31.316758858888765" lon="115.58568273519953"><ele>55.33333333333333</ele><time>2026-04-12T04:47:00Z</time></trkpt><trkpt lat="-31.316636838222003" lon="115.58547177161257"><ele>55.0</ele><time>2026-04-12T04:47:01Z</time></trkpt><trkpt lat="-31.316514766017328" lon="115.58526180913441"><ele>53.0</ele><time>2026-04-12T04:47:02Z</time></trkpt><trkpt lat="-31.316395677800998" lon="115.58505558860726"><ele>51.0</ele><time>2026-04-12T04:47:03Z</time></trkpt><trkpt lat="-31.316279049792627" lon="115.58485446049927"><ele>49.0</ele><time>2026-04-12T04:47:04Z</time></trkpt><trkpt lat="-31.31615959422246" lon="115.58464436868148"><ele>48.33333333333333</ele><time>2026-04-12T04:47:05Z</time></trkpt><trkpt lat="-31.31603461459027" lon="115.58442790861407"><ele>47.666666666666664</ele><time>2026-04-12T04:47:06Z</time></trkpt><trkpt lat="-31.315912970406792" lon="115.58421175625534"><ele>47.0</ele><time>2026-04-12T04:47:07Z</time></trkpt><trkpt lat="-31.315794711222935" lon="115.5840019207"><ele>47.0</ele><time>2026-04-12T04:47:08.001Z</time></trkpt><trkpt lat="-31.315675644121356" lon="115.58379525043769"><ele>47.0</ele><time>2026-04-12T04:47:09.001Z</time></trkpt><trkpt lat="-31.315555539555344" lon="115.5835888217777"><ele>47.0</ele><time>2026-04-12T04:47:10.001Z</time></trkpt><trkpt lat="-31.31544105617495" lon="115.58338360547856"><ele>44.666666666666664</ele><time>2026-04-12T04:47:11.001Z</time></trkpt><trkpt lat="-31.315325448832827" lon="115.58317820668849"><ele>42.333333333333336</ele><time>2026-04-12T04:47:12.001Z</time></trkpt><trkpt lat="-31.315208906738604" lon="115.58296940148828"><ele>40.0</ele><time>2026-04-12T04:47:13.001Z</time></trkpt><trkpt lat="-31.315092152529658" lon="115.58275816988814"><ele>40.0</ele><time>2026-04-12T04:47:14.001Z</time></trkpt><trkpt lat="-31.314969654956915" lon="115.58254147941814"><ele>40.0</ele><time>2026-04-12T04:47:15.001Z</time></trkpt><trkpt lat="-31.314844061214373" lon="115.58231713245772"><ele>37.0</ele><time>2026-04-12T04:47:16.001Z</time></trkpt><trkpt lat="-31.31471507578387" lon="115.58209082549028"><ele>34.0</ele><time>2026-04-12T04:47:17.001Z</time></trkpt><trkpt lat="-31.314585348776376" lon="115.58186220938"><ele>34.0</ele><time>2026-04-12T04:47:18.001Z</time></trkpt><trkpt lat="-31.314453847148695" lon="115.58163300580541"><ele>34.0</ele><time>2026-04-12T04:47:19.001Z</time></trkpt><trkpt lat="-31.31432248597514" lon="115.58140255155857"><ele>34.0</ele><time>2026-04-12T04:47:20.001Z</time></trkpt><trkpt lat="-31.31418826252764" lon="115.5811721860904"><ele>34.0</ele><time>2026-04-12T04:47:21.001Z</time></trkpt><trkpt lat="-31.314054253153717" lon="115.58094007296735"><ele>34.0</ele><time>2026-04-12T04:47:22.001Z</time></trkpt><trkpt lat="-31.313923067298035" lon="115.58070854080145"><ele>34.0</ele><time>2026-04-12T04:47:23.001Z</time></trkpt><trkpt lat="-31.313794931213582" lon="115.58048088558061"><ele>31.5</ele><time>2026-04-12T04:47:24.001Z</time></trkpt><trkpt lat="-31.313669613419215" lon="115.58025431873908"><ele>29.0</ele><time>2026-04-12T04:47:25.001Z</time></trkpt><trkpt lat="-31.313541125739757" lon="115.58002419646401"><ele>29.0</ele><time>2026-04-12T04:47:26.001Z</time></trkpt><trkpt lat="-31.313410897478956" lon="115.5797909763142"><ele>29.0</ele><time>2026-04-12T04:47:27.001Z</time></trkpt><trkpt lat="-31.313279764917212" lon="115.57955424012255"><ele>28.5</ele><time>2026-04-12T04:47:28.001Z</time></trkpt><trkpt lat="-31.313146555513573" lon="115.57931666145326"><ele>28.0</ele><time>2026-04-12T04:47:29.001Z</time></trkpt><trkpt lat="-31.313013906057808" lon="115.57908173293643"><ele>27.0</ele><time>2026-04-12T04:47:30.001Z</time></trkpt><trkpt lat="-31.312875563198133" lon="115.57884798158197"><ele>26.0</ele><time>2026-04-12T04:47:31.001Z</time></trkpt><trkpt lat="-31.312737137972913" lon="115.57861470276562"><ele>26.0</ele><time>2026-04-12T04:47:32.001Z</time></trkpt><trkpt lat="-31.312602401484764" lon="115.57837785670007"><ele>26.0</ele><time>2026-04-12T04:47:33.001Z</time></trkpt><trkpt lat="-31.31247416153322" lon="115.57813834059118"><ele>26.0</ele><time>2026-04-12T04:47:34.001Z</time></trkpt><trkpt lat="-31.31234242764576" lon="115.57789613006577"><ele>26.0</ele><time>2026-04-12T04:47:35.001Z</time></trkpt><trkpt lat="-31.31220798522002" lon="115.57765228953194"><ele>26.5</ele><time>2026-04-12T04:47:36.001Z</time></trkpt><trkpt lat="-31.312074716320225" lon="115.57741605415447"><ele>27.0</ele><time>2026-04-12T04:47:37.001Z</time></trkpt><trkpt lat="-31.31194311650663" lon="115.5771833281381"><ele>28.5</ele><time>2026-04-12T04:47:38.001Z</time></trkpt><trkpt lat="-31.311811875195644" lon="115.57695223627803"><ele>30.0</ele><time>2026-04-12T04:47:39.001Z</time></trkpt><trkpt lat="-31.311680011575554" lon="115.57672445531979"><ele>30.0</ele><time>2026-04-12T04:47:40.001Z</time></trkpt><trkpt lat="-31.311550554778787" lon="115.57650315320429"><ele>30.0</ele><time>2026-04-12T04:47:41.001Z</time></trkpt><trkpt lat="-31.311421968217395" lon="115.57627960145506"><ele>30.5</ele><time>2026-04-12T04:47:42.001Z</time></trkpt><trkpt lat="-31.31129171373052" lon="115.5760488417698"><ele>31.0</ele><time>2026-04-12T04:47:43.001Z</time></trkpt><trkpt lat="-31.31115783883768" lon="115.5758092571926"><ele>31.0</ele><time>2026-04-12T04:47:44.001Z</time></trkpt><trkpt lat="-31.311019913435185" lon="115.57556469619456"><ele>31.0</ele><time>2026-04-12T04:47:45.001Z</time></trkpt><trkpt lat="-31.31087976378633" lon="115.57531560247187"><ele>31.0</ele><time>2026-04-12T04:47:46.001Z</time></trkpt><trkpt lat="-31.31073929399252" lon="115.57506832646628"><ele>31.0</ele><time>2026-04-12T04:47:47.001Z</time></trkpt><trkpt lat="-31.31059672080997" lon="115.57481906264607"><ele>31.5</ele><time>2026-04-12T04:47:48.001Z</time></trkpt><trkpt lat="-31.310457746880896" lon="115.57456661693459"><ele>32.0</ele><time>2026-04-12T04:47:49.001Z</time></trkpt><trkpt lat="-31.310317524290642" lon="115.57431125643139"><ele>32.0</ele><time>2026-04-12T04:47:50.001Z</time></trkpt><trkpt lat="-31.310176048639633" lon="115.57406093827832"><ele>32.0</ele><time>2026-04-12T04:47:51.001Z</time></trkpt><trkpt lat="-31.31003476303039" lon="115.57381166218916"><ele>32.5</ele><time>2026-04-12T04:47:52.001Z</time></trkpt><trkpt lat="-31.309892013869444" lon="115.57356237464126"><ele>33.0</ele><time>2026-04-12T04:47:53.001Z</time></trkpt><trkpt lat="-31.309749089132684" lon="115.57330985022958"><ele>32.5</ele><time>2026-04-12T04:47:54.001Z</time></trkpt><trkpt lat="-31.309605675470653" lon="115.57305877164902"><ele>32.0</ele><time>2026-04-12T04:47:55.001Z</time></trkpt><trkpt lat="-31.309464649199025" lon="115.57280836058246"><ele>32.0</ele><time>2026-04-12T04:47:56.001Z</time></trkpt><trkpt lat="-31.30932340494865" lon="115.57255900118851"><ele>32.0</ele><time>2026-04-12T04:47:57.001Z</time></trkpt><trkpt lat="-31.309182961449775" lon="115.57230849385824"><ele>32.0</ele><time>2026-04-12T04:47:58.001Z</time></trkpt><trkpt lat="-31.309044501786893" lon="115.57205870819847"><ele>32.0</ele><time>2026-04-12T04:47:59.001Z</time></trkpt><trkpt lat="-31.308908709380397" lon="115.57181772659746"><ele>32.0</ele><time>2026-04-12T04:48:00.001Z</time></trkpt><trkpt lat="-31.308780841063626" lon="115.57159110410046"><ele>32.0</ele><time>2026-04-12T04:48:01.001Z</time></trkpt><trkpt lat="-31.30864968708334" lon="115.57136233032622"><ele>32.5</ele><time>2026-04-12T04:48:02.001Z</time></trkpt><trkpt lat="-31.30851961386482" lon="115.57113626094834"><ele>33.0</ele><time>2026-04-12T04:48:03.001Z</time></trkpt><trkpt lat="-31.308387758330163" lon="115.5709024048635"><ele>33.0</ele><time>2026-04-12T04:48:04.001Z</time></trkpt><trkpt lat="-31.308257551653295" lon="115.57066739882693"><ele>33.0</ele><time>2026-04-12T04:48:05.001Z</time></trkpt><trkpt lat="-31.30812554483213" lon="115.5704307729462"><ele>32.0</ele><time>2026-04-12T04:48:06.001Z</time></trkpt><trkpt lat="-31.307993835288908" lon="115.57019332839592"><ele>31.0</ele><time>2026-04-12T04:48:07.001Z</time></trkpt><trkpt lat="-31.30785979918596" lon="115.56995376179658"><ele>31.0</ele><time>2026-04-12T04:48:08.001Z</time></trkpt><trkpt lat="-31.307723813528444" lon="115.56971220571522"><ele>31.0</ele><time>2026-04-12T04:48:09.001Z</time></trkpt><trkpt lat="-31.30758888726578" lon="115.5694683213797"><ele>30.0</ele><time>2026-04-12T04:48:10.001Z</time></trkpt><trkpt lat="-31.307451844772196" lon="115.56922363333706"><ele>29.0</ele><time>2026-04-12T04:48:11.001Z</time></trkpt><trkpt lat="-31.307316211034095" lon="115.56898130678628"><ele>28.5</ele><time>2026-04-12T04:48:12.001Z</time></trkpt><trkpt lat="-31.30717815513119" lon="115.56873949407354"><ele>28.0</ele><time>2026-04-12T04:48:13.001Z</time></trkpt><trkpt lat="-31.30704146212605" lon="115.56850176512438"><ele>28.0</ele><time>2026-04-12T04:48:14.001Z</time></trkpt><trkpt lat="-31.306908581567516" lon="115.5682700096159"><ele>28.0</ele><time>2026-04-12T04:48:15.001Z</time></trkpt><trkpt lat="-31.30677721206394" lon="115.56804215671443"><ele>28.0</ele><time>2026-04-12T04:48:16.001Z</time></trkpt><trkpt lat="-31.306646904150522" lon="115.56781349678788"><ele>28.0</ele><time>2026-04-12T04:48:17.001Z</time></trkpt><trkpt lat="-31.30651916646718" lon="115.56758547303525"><ele>28.0</ele><time>2026-04-12T04:48:18Z</time></trkpt><trkpt lat="-31.306390897257764" lon="115.56735310727461"><ele>28.0</ele><time>2026-04-12T04:48:19Z</time></trkpt><trkpt lat="-31.306259388961294" lon="115.5671197931179"><ele>27.0</ele><time>2026-04-12T04:48:20Z</time></trkpt><trkpt lat="-31.30612238207859" lon="115.56688558982813"><ele>26.0</ele><time>2026-04-12T04:48:21Z</time></trkpt><trkpt lat="-31.305988679444113" lon="115.5666552736217"><ele>26.0</ele><time>2026-04-12T04:48:22Z</time></trkpt><trkpt lat="-31.30585619089898" lon="115.5664231070778"><ele>26.0</ele><time>2026-04-12T04:48:23Z</time></trkpt><trkpt lat="-31.305730654320048" lon="115.56619754570434"><ele>25.5</ele><time>2026-04-12T04:48:24Z</time></trkpt><trkpt lat="-31.305605632686948" lon="115.56597412202444"><ele>25.0</ele><time>2026-04-12T04:48:25Z</time></trkpt><trkpt lat="-31.30547678150467" lon="115.56574675679289"><ele>23.0</ele><time>2026-04-12T04:48:26Z</time></trkpt><trkpt lat="-31.305344316651208" lon="115.5655133235149"><ele>21.0</ele><time>2026-04-12T04:48:27Z</time></trkpt><trkpt lat="-31.305210652657312" lon="115.56527735983474"><ele>20.5</ele><time>2026-04-12T04:48:28Z</time></trkpt><trkpt lat="-31.30507606999268" lon="115.56503646281124"><ele>20.0</ele><time>2026-04-12T04:48:29Z</time></trkpt><trkpt lat="-31.304941284174255" lon="115.56479386745534"><ele>20.0</ele><time>2026-04-12T04:48:30Z</time></trkpt><trkpt lat="-31.304813528833535" lon="115.56455599714097"><ele>20.0</ele><time>2026-04-12T04:48:31Z</time></trkpt><trkpt lat="-31.30470139061885" lon="115.5643148270364"><ele>22.0</ele><time>2026-04-12T04:48:32Z</time></trkpt><trkpt lat="-31.30460263891505" lon="115.5640645218174"><ele>24.0</ele><time>2026-04-12T04:48:33Z</time></trkpt><trkpt lat="-31.304512882200868" lon="115.5638134803935"><ele>23.5</ele><time>2026-04-12T04:48:34Z</time></trkpt><trkpt lat="-31.30443462869517" lon="115.56356131915224"><ele>23.0</ele><time>2026-04-12T04:48:35Z</time></trkpt><trkpt lat="-31.304363239189016" lon="115.56330690164934"><ele>23.0</ele><time>2026-04-12T04:48:36Z</time></trkpt><trkpt lat="-31.304298570132847" lon="115.56304890233191"><ele>23.0</ele><time>2026-04-12T04:48:37Z</time></trkpt><trkpt lat="-31.304258794722397" lon="115.56277869004674"><ele>23.0</ele><time>2026-04-12T04:48:38Z</time></trkpt><trkpt lat="-31.304216528499797" lon="115.56251098484714"><ele>23.0</ele><time>2026-04-12T04:48:39Z</time></trkpt><trkpt lat="-31.304167527100244" lon="115.56224197981253"><ele>23.0</ele><time>2026-04-12T04:48:40Z</time></trkpt><trkpt lat="-31.304148125167476" lon="115.56196308362122"><ele>23.0</ele><time>2026-04-12T04:48:41Z</time></trkpt><trkpt lat="-31.304136199355234" lon="115.56168147954433"><ele>23.0</ele><time>2026-04-12T04:48:42Z</time></trkpt><trkpt lat="-31.304129937331577" lon="115.56139827022206"><ele>23.0</ele><time>2026-04-12T04:48:43Z</time></trkpt><trkpt lat="-31.304128724583535" lon="115.56111824649325"><ele>23.0</ele><time>2026-04-12T04:48:44Z</time></trkpt><trkpt lat="-31.30412816571853" lon="115.56084160515005"><ele>23.0</ele><time>2026-04-12T04:48:45Z</time></trkpt><trkpt lat="-31.30412349634004" lon="115.56055917079101"><ele>21.0</ele><time>2026-04-12T04:48:46Z</time></trkpt><trkpt lat="-31.304117725850276" lon="115.56027032656036"><ele>19.0</ele><time>2026-04-12T04:48:47Z</time></trkpt><trkpt lat="-31.30410930720496" lon="115.55997897356828"><ele>19.0</ele><time>2026-04-12T04:48:48Z</time></trkpt><trkpt lat="-31.304101942407723" lon="115.55968853670964"><ele>19.0</ele><time>2026-04-12T04:48:49Z</time></trkpt><trkpt lat="-31.304095658182927" lon="115.55939522583155"><ele>18.0</ele><time>2026-04-12T04:48:50Z</time></trkpt><trkpt lat="-31.304091359732112" lon="115.55909897421485"><ele>17.0</ele><time>2026-04-12T04:48:51Z</time></trkpt><trkpt lat="-31.304087291377996" lon="115.55880449227492"><ele>14.5</ele><time>2026-04-12T04:48:52Z</time></trkpt><trkpt lat="-31.30408048348176" lon="115.55851073559054"><ele>12.0</ele><time>2026-04-12T04:48:53Z</time></trkpt><trkpt lat="-31.30407195314323" lon="115.55822447179465"><ele>12.0</ele><time>2026-04-12T04:48:54Z</time></trkpt><trkpt lat="-31.304062060822822" lon="115.55793631263015"><ele>12.0</ele><time>2026-04-12T04:48:55Z</time></trkpt><trkpt lat="-31.30405343369455" lon="115.55764868418393"><ele>12.0</ele><time>2026-04-12T04:48:56Z</time></trkpt><trkpt lat="-31.3040466490812" lon="115.55736534213739"><ele>12.0</ele><time>2026-04-12T04:48:57Z</time></trkpt><trkpt lat="-31.304042618262542" lon="115.55708010492891"><ele>12.0</ele><time>2026-04-12T04:48:58Z</time></trkpt><trkpt lat="-31.30403879451177" lon="115.55680093246824"><ele>12.0</ele><time>2026-04-12T04:48:59Z</time></trkpt><trkpt lat="-31.304033715395892" lon="115.55652577736844"><ele>12.0</ele><time>2026-04-12T04:49:00Z</time></trkpt><trkpt lat="-31.3040278939715" lon="115.5562642684967"><ele>12.0</ele><time>2026-04-12T04:49:01Z</time></trkpt><trkpt lat="-31.304022742980116" lon="115.55601514925229"><ele>12.0</ele><time>2026-04-12T04:49:02Z</time></trkpt><trkpt lat="-31.304018113694177" lon="115.55577331259391"><ele>12.333333333333332</ele><time>2026-04-12T04:49:03Z</time></trkpt><trkpt lat="-31.30401389808938" lon="115.55553300386036"><ele>12.666666666666666</ele><time>2026-04-12T04:49:04Z</time></trkpt><trkpt lat="-31.304008641315082" lon="115.55528736266977"><ele>13.0</ele><time>2026-04-12T04:49:05Z</time></trkpt><trkpt lat="-31.304002766136826" lon="115.5550430602689"><ele>13.0</ele><time>2026-04-12T04:49:06Z</time></trkpt><trkpt lat="-31.303999533708975" lon="115.55479730405835"><ele>13.0</ele><time>2026-04-12T04:49:07Z</time></trkpt><trkpt lat="-31.30399558469899" lon="115.55455380752718"><ele>13.0</ele><time>2026-04-12T04:49:08Z</time></trkpt><trkpt lat="-31.303991425263913" lon="115.55430645635796"><ele>14.333333333333332</ele><time>2026-04-12T04:49:09Z</time></trkpt><trkpt lat="-31.303986733131527" lon="115.554048041971"><ele>15.666666666666668</ele><time>2026-04-12T04:49:10Z</time></trkpt><trkpt lat="-31.30398119147101" lon="115.55378125268275"><ele>17.0</ele><time>2026-04-12T04:49:11Z</time></trkpt><trkpt lat="-31.30397661484909" lon="115.55351154309241"><ele>17.0</ele><time>2026-04-12T04:49:12Z</time></trkpt><trkpt lat="-31.303974135616645" lon="115.55323059067082"><ele>17.0</ele><time>2026-04-12T04:49:13Z</time></trkpt><trkpt lat="-31.303971757993896" lon="115.55294478946952"><ele>17.0</ele><time>2026-04-12T04:49:14Z</time></trkpt><trkpt lat="-31.3039689189069" lon="115.55265641050852"><ele>17.0</ele><time>2026-04-12T04:49:15Z</time></trkpt><trkpt lat="-31.303965068954195" lon="115.55236769440138"><ele>17.0</ele><time>2026-04-12T04:49:16Z</time></trkpt><trkpt lat="-31.303957525417353" lon="115.55208498632666"><ele>17.0</ele><time>2026-04-12T04:49:17Z</time></trkpt><trkpt lat="-31.303947894982983" lon="115.55180996717738"><ele>17.0</ele><time>2026-04-12T04:49:18.001Z</time></trkpt><trkpt lat="-31.30393844020521" lon="115.55154356615988"><ele>17.0</ele><time>2026-04-12T04:49:19.001Z</time></trkpt><trkpt lat="-31.303933239609908" lon="115.55127269055681"><ele>18.5</ele><time>2026-04-12T04:49:20.001Z</time></trkpt><trkpt lat="-31.303935973085462" lon="115.5509982276115"><ele>20.0</ele><time>2026-04-12T04:49:21.001Z</time></trkpt><trkpt lat="-31.303953339335433" lon="115.55072644707289"><ele>20.0</ele><time>2026-04-12T04:49:22.001Z</time></trkpt><trkpt lat="-31.303985259643266" lon="115.55045741073451"><ele>20.0</ele><time>2026-04-12T04:49:23.001Z</time></trkpt><trkpt lat="-31.30402790395379" lon="115.55019247150129"><ele>20.5</ele><time>2026-04-12T04:49:24.001Z</time></trkpt><trkpt lat="-31.304082728169746" lon="115.54992220478847"><ele>21.0</ele><time>2026-04-12T04:49:25.001Z</time></trkpt><trkpt lat="-31.30414900316158" lon="115.54965245334645"><ele>22.0</ele><time>2026-04-12T04:49:26.001Z</time></trkpt><trkpt lat="-31.304223405320208" lon="115.54938405741107"><ele>23.0</ele><time>2026-04-12T04:49:27.001Z</time></trkpt><trkpt lat="-31.30430175290825" lon="115.54912622063729"><ele>23.0</ele><time>2026-04-12T04:49:28.001Z</time></trkpt><trkpt lat="-31.30438780564684" lon="115.54887683564193"><ele>23.0</ele><time>2026-04-12T04:49:29.001Z</time></trkpt><trkpt lat="-31.304483056360603" lon="115.54863033897725"><ele>23.5</ele><time>2026-04-12T04:49:30.001Z</time></trkpt><trkpt lat="-31.304577597936817" lon="115.54838094637738"><ele>24.0</ele><time>2026-04-12T04:49:31.001Z</time></trkpt><trkpt lat="-31.304664705838086" lon="115.54812481126075"><ele>24.0</ele><time>2026-04-12T04:49:32.001Z</time></trkpt><trkpt lat="-31.304743290961138" lon="115.54785704926879"><ele>24.0</ele><time>2026-04-12T04:49:33.001Z</time></trkpt><trkpt lat="-31.304812129267646" lon="115.54757831241449"><ele>23.5</ele><time>2026-04-12T04:49:34.001Z</time></trkpt><trkpt lat="-31.304866741540245" lon="115.54729055055508"><ele>23.0</ele><time>2026-04-12T04:49:35.001Z</time></trkpt><trkpt lat="-31.304909295700693" lon="115.54699909319777"><ele>23.0</ele><time>2026-04-12T04:49:36.001Z</time></trkpt><trkpt lat="-31.30495077420156" lon="115.54670622861917"><ele>23.0</ele><time>2026-04-12T04:49:37.001Z</time></trkpt><trkpt lat="-31.3049876069097" lon="115.54641357108994"><ele>24.0</ele><time>2026-04-12T04:49:38.001Z</time></trkpt><trkpt lat="-31.305013275535995" lon="115.54612427230826"><ele>25.0</ele><time>2026-04-12T04:49:39.001Z</time></trkpt><trkpt lat="-31.305021950221835" lon="115.54584283198335"><ele>25.0</ele><time>2026-04-12T04:49:40.001Z</time></trkpt><trkpt lat="-31.30502057832358" lon="115.5455659599326"><ele>25.0</ele><time>2026-04-12T04:49:41.001Z</time></trkpt><trkpt lat="-31.305019460232806" lon="115.5453080862781"><ele>24.333333333333336</ele><time>2026-04-12T04:49:42.001Z</time></trkpt><trkpt lat="-31.305019836379508" lon="115.54505997623642"><ele>23.666666666666668</ele><time>2026-04-12T04:49:43.001Z</time></trkpt><trkpt lat="-31.30502110472996" lon="115.54480926175769"><ele>23.0</ele><time>2026-04-12T04:49:44.001Z</time></trkpt><trkpt lat="-31.305020953179596" lon="115.54455581659069"><ele>23.0</ele><time>2026-04-12T04:49:45.001Z</time></trkpt><trkpt lat="-31.305022972349423" lon="115.5443024923477"><ele>23.0</ele><time>2026-04-12T04:49:46.001Z</time></trkpt><trkpt lat="-31.30502454756888" lon="115.54404561251603"><ele>23.0</ele><time>2026-04-12T04:49:47.001Z</time></trkpt><trkpt lat="-31.305029902797138" lon="115.54378216856823"><ele>23.0</ele><time>2026-04-12T04:49:48.001Z</time></trkpt><trkpt lat="-31.305037671694365" lon="115.54351464881404"><ele>23.0</ele><time>2026-04-12T04:49:49.001Z</time></trkpt><trkpt lat="-31.305044143186226" lon="115.54324164171966"><ele>23.0</ele><time>2026-04-12T04:49:50.001Z</time></trkpt><trkpt lat="-31.30504713450641" lon="115.54297062956233"><ele>23.0</ele><time>2026-04-12T04:49:51.001Z</time></trkpt><trkpt lat="-31.305048443526626" lon="115.54269260081621"><ele>24.0</ele><time>2026-04-12T04:49:52.001Z</time></trkpt><trkpt lat="-31.30504838710572" lon="115.54241278781882"><ele>25.0</ele><time>2026-04-12T04:49:53.001Z</time></trkpt><trkpt lat="-31.305048724114734" lon="115.54213177350242"><ele>24.5</ele><time>2026-04-12T04:49:54.001Z</time></trkpt><trkpt lat="-31.305048840536983" lon="115.54184852047833"><ele>24.0</ele><time>2026-04-12T04:49:55.001Z</time></trkpt><trkpt lat="-31.305046448936608" lon="115.54156663532633"><ele>24.0</ele><time>2026-04-12T04:49:56.001Z</time></trkpt><trkpt lat="-31.305043955298846" lon="115.54128358323167"><ele>24.0</ele><time>2026-04-12T04:49:57.001Z</time></trkpt><trkpt lat="-31.305038087592504" lon="115.54099920724929"><ele>24.0</ele><time>2026-04-12T04:49:58.001Z</time></trkpt><trkpt lat="-31.30503107392349" lon="115.54071496610614"><ele>24.0</ele><time>2026-04-12T04:49:59.001Z</time></trkpt><trkpt lat="-31.305025406247296" lon="115.54043075469019"><ele>24.5</ele><time>2026-04-12T04:50:00.001Z</time></trkpt><trkpt lat="-31.305019880451844" lon="115.54015616757106"><ele>25.0</ele><time>2026-04-12T04:50:01.001Z</time></trkpt><trkpt lat="-31.305019825959114" lon="115.53988975763025"><ele>25.0</ele><time>2026-04-12T04:50:02.001Z</time></trkpt><trkpt lat="-31.305018994821552" lon="115.53963776732358"><ele>25.0</ele><time>2026-04-12T04:50:03.001Z</time></trkpt><trkpt lat="-31.30501859822562" lon="115.53939329566475"><ele>25.0</ele><time>2026-04-12T04:50:04.001Z</time></trkpt><trkpt lat="-31.305019316052263" lon="115.53914607364774"><ele>25.0</ele><time>2026-04-12T04:50:05.001Z</time></trkpt><trkpt lat="-31.305018721323098" lon="115.53889491758366"><ele>25.0</ele><time>2026-04-12T04:50:06.001Z</time></trkpt><trkpt lat="-31.30501718298325" lon="115.53863810859727"><ele>25.0</ele><time>2026-04-12T04:50:07.001Z</time></trkpt><trkpt lat="-31.305016152904486" lon="115.53838029147185"><ele>25.0</ele><time>2026-04-12T04:50:08.001Z</time></trkpt><trkpt lat="-31.30502019724418" lon="115.53811886598866"><ele>25.0</ele><time>2026-04-12T04:50:09.001Z</time></trkpt><trkpt lat="-31.305021692749364" lon="115.5378573339266"><ele>25.0</ele><time>2026-04-12T04:50:10.001Z</time></trkpt><trkpt lat="-31.305019476551436" lon="115.53758956409379"><ele>25.5</ele><time>2026-04-12T04:50:11.001Z</time></trkpt><trkpt lat="-31.30501574918593" lon="115.53731624207315"><ele>26.0</ele><time>2026-04-12T04:50:12.001Z</time></trkpt><trkpt lat="-31.305015426029417" lon="115.53703956231058"><ele>28.5</ele><time>2026-04-12T04:50:13.001Z</time></trkpt><trkpt lat="-31.30501678049626" lon="115.53676304898694"><ele>31.0</ele><time>2026-04-12T04:50:14.001Z</time></trkpt><trkpt lat="-31.305016909595505" lon="115.5364846862073"><ele>31.0</ele><time>2026-04-12T04:50:15.001Z</time></trkpt><trkpt lat="-31.30501720323831" lon="115.53620809711832"><ele>31.0</ele><time>2026-04-12T04:50:16.001Z</time></trkpt><trkpt lat="-31.30501824489604" lon="115.53593369272022"><ele>31.0</ele><time>2026-04-12T04:50:17.001Z</time></trkpt><trkpt lat="-31.305018530399266" lon="115.53566009954152"><ele>31.0</ele><time>2026-04-12T04:50:18.001Z</time></trkpt><trkpt lat="-31.305015405709636" lon="115.53538416711666"><ele>28.5</ele><time>2026-04-12T04:50:19.001Z</time></trkpt><trkpt lat="-31.305014307049717" lon="115.53510597275432"><ele>26.0</ele><time>2026-04-12T04:50:20.001Z</time></trkpt><trkpt lat="-31.305012084887263" lon="115.53482663759698"><ele>28.5</ele><time>2026-04-12T04:50:21.001Z</time></trkpt><trkpt lat="-31.305010539863815" lon="115.53454536355035"><ele>31.0</ele><time>2026-04-12T04:50:22.001Z</time></trkpt><trkpt lat="-31.305010160644272" lon="115.53426540581377"><ele>31.0</ele><time>2026-04-12T04:50:23.001Z</time></trkpt><trkpt lat="-31.305011085787953" lon="115.5339845545915"><ele>31.0</ele><time>2026-04-12T04:50:24Z</time></trkpt><trkpt lat="-31.30500813328208" lon="115.53370399833868"><ele>34.0</ele><time>2026-04-12T04:50:25Z</time></trkpt><trkpt lat="-31.304995967699288" lon="115.53342392542453"><ele>37.0</ele><time>2026-04-12T04:50:26Z</time></trkpt><trkpt lat="-31.304968002213652" lon="115.53314654987405"><ele>37.0</ele><time>2026-04-12T04:50:27Z</time></trkpt><trkpt lat="-31.30492842117708" lon="115.53286899583428"><ele>37.0</ele><time>2026-04-12T04:50:28Z</time></trkpt><trkpt lat="-31.304874119959706" lon="115.53259291470087"><ele>37.0</ele><time>2026-04-12T04:50:29Z</time></trkpt><trkpt lat="-31.304810372454714" lon="115.53231071127315"><ele>37.0</ele><time>2026-04-12T04:50:30Z</time></trkpt><trkpt lat="-31.30473597267654" lon="115.53202548081454"><ele>36.5</ele><time>2026-04-12T04:50:31Z</time></trkpt><trkpt lat="-31.304652587645272" lon="115.53173925775775"><ele>36.0</ele><time>2026-04-12T04:50:32Z</time></trkpt><trkpt lat="-31.304566275029963" lon="115.53145806833264"><ele>36.0</ele><time>2026-04-12T04:50:33Z</time></trkpt><trkpt lat="-31.30447409556935" lon="115.53118783866456"><ele>36.0</ele><time>2026-04-12T04:50:34Z</time></trkpt><trkpt lat="-31.30437102691505" lon="115.53092492258689"><ele>36.0</ele><time>2026-04-12T04:50:35Z</time></trkpt><trkpt lat="-31.304256228157215" lon="115.53066592850848"><ele>36.0</ele><time>2026-04-12T04:50:36Z</time></trkpt><trkpt lat="-31.304131219789145" lon="115.53040648005927"><ele>36.0</ele><time>2026-04-12T04:50:37Z</time></trkpt><trkpt lat="-31.30399917473017" lon="115.53014736676458"><ele>36.0</ele><time>2026-04-12T04:50:38Z</time></trkpt><trkpt lat="-31.30386037071669" lon="115.52989729716298"><ele>34.0</ele><time>2026-04-12T04:50:39Z</time></trkpt><trkpt lat="-31.303712329393353" lon="115.52965479901624"><ele>32.0</ele><time>2026-04-12T04:50:40Z</time></trkpt><trkpt lat="-31.303554475633106" lon="115.52941999702848"><ele>31.5</ele><time>2026-04-12T04:50:41Z</time></trkpt><trkpt lat="-31.30338220433594" lon="115.52919592972086"><ele>31.0</ele><time>2026-04-12T04:50:42Z</time></trkpt><trkpt lat="-31.303195987653574" lon="115.52898098055516"><ele>30.5</ele><time>2026-04-12T04:50:43Z</time></trkpt><trkpt lat="-31.3030013978274" lon="115.52877334012948"><ele>30.0</ele><time>2026-04-12T04:50:44Z</time></trkpt><trkpt lat="-31.302804047970284" lon="115.52857079843015"><ele>30.0</ele><time>2026-04-12T04:50:45Z</time></trkpt><trkpt lat="-31.302611755765074" lon="115.52837616828313"><ele>30.0</ele><time>2026-04-12T04:50:46Z</time></trkpt><trkpt lat="-31.302432366114964" lon="115.52816714654962"><ele>29.5</ele><time>2026-04-12T04:50:47Z</time></trkpt><trkpt lat="-31.302240885323442" lon="115.52796891805313"><ele>29.0</ele><time>2026-04-12T04:50:48Z</time></trkpt><trkpt lat="-31.302038853620495" lon="115.52777764639988"><ele>29.0</ele><time>2026-04-12T04:50:49Z</time></trkpt><trkpt lat="-31.301845863111925" lon="115.5275699411317"><ele>29.0</ele><time>2026-04-12T04:50:50Z</time></trkpt><trkpt lat="-31.30165411648396" lon="115.52736479980729"><ele>29.0</ele><time>2026-04-12T04:50:51Z</time></trkpt><trkpt lat="-31.301463190569336" lon="115.52716017950443"><ele>29.0</ele><time>2026-04-12T04:50:52Z</time></trkpt><trkpt lat="-31.30127534657838" lon="115.52695809454909"><ele>31.0</ele><time>2026-04-12T04:50:53Z</time></trkpt><trkpt lat="-31.301089688781182" lon="115.52676018427523"><ele>33.0</ele><time>2026-04-12T04:50:54Z</time></trkpt><trkpt lat="-31.3009085744931" lon="115.52656792545972"><ele>33.0</ele><time>2026-04-12T04:50:55Z</time></trkpt><trkpt lat="-31.300728097336762" lon="115.52637559049909"><ele>33.0</ele><time>2026-04-12T04:50:56Z</time></trkpt><trkpt lat="-31.300550340033755" lon="115.52618719000628"><ele>34.5</ele><time>2026-04-12T04:50:57Z</time></trkpt><trkpt lat="-31.300373620486468" lon="115.52600387006258"><ele>36.0</ele><time>2026-04-12T04:50:58Z</time></trkpt><trkpt lat="-31.300196207135798" lon="115.52581496892898"><ele>36.0</ele><time>2026-04-12T04:50:59Z</time></trkpt><trkpt lat="-31.30002040363545" lon="115.5256280496719"><ele>36.0</ele><time>2026-04-12T04:51:00Z</time></trkpt><trkpt lat="-31.299846622254318" lon="115.52544294123848"><ele>35.0</ele><time>2026-04-12T04:51:01Z</time></trkpt><trkpt lat="-31.299671874877127" lon="115.52525938274312"><ele>34.0</ele><time>2026-04-12T04:51:02Z</time></trkpt><trkpt lat="-31.299500175189337" lon="115.52507428846211"><ele>34.0</ele><time>2026-04-12T04:51:03Z</time></trkpt><trkpt lat="-31.299323365160756" lon="115.52488595847332"><ele>34.0</ele><time>2026-04-12T04:51:04Z</time></trkpt><trkpt lat="-31.299146967120993" lon="115.52470013502246"><ele>34.0</ele><time>2026-04-12T04:51:05Z</time></trkpt><trkpt lat="-31.298967501938588" lon="115.52450888847729"><ele>34.0</ele><time>2026-04-12T04:51:06Z</time></trkpt><trkpt lat="-31.298786473884093" lon="115.52431649287034"><ele>34.0</ele><time>2026-04-12T04:51:07Z</time></trkpt><trkpt lat="-31.298604625530633" lon="115.52412810162701"><ele>34.0</ele><time>2026-04-12T04:51:08Z</time></trkpt><trkpt lat="-31.298420328597366" lon="115.52393694545653"><ele>34.0</ele><time>2026-04-12T04:51:09Z</time></trkpt><trkpt lat="-31.298235560564823" lon="115.5237473694298"><ele>34.0</ele><time>2026-04-12T04:51:10Z</time></trkpt><trkpt lat="-31.29805174511178" lon="115.52355258129167"><ele>35.0</ele><time>2026-04-12T04:51:11Z</time></trkpt><trkpt lat="-31.297867886502306" lon="115.52336412291511"><ele>36.0</ele><time>2026-04-12T04:51:12Z</time></trkpt><trkpt lat="-31.297682803467076" lon="115.52317694953763"><ele>36.0</ele><time>2026-04-12T04:51:13Z</time></trkpt><trkpt lat="-31.297498711172583" lon="115.52298493433797"><ele>36.0</ele><time>2026-04-12T04:51:14Z</time></trkpt><trkpt lat="-31.297317748827354" lon="115.52278996084048"><ele>36.5</ele><time>2026-04-12T04:51:15Z</time></trkpt><trkpt lat="-31.29713653101586" lon="115.52258958612198"><ele>37.0</ele><time>2026-04-12T04:51:16Z</time></trkpt><trkpt lat="-31.296957940724873" lon="115.52239250822392"><ele>37.0</ele><time>2026-04-12T04:51:17Z</time></trkpt><trkpt lat="-31.29678024380182" lon="115.5221949224931"><ele>37.0</ele><time>2026-04-12T04:51:18Z</time></trkpt><trkpt lat="-31.29660913156342" lon="115.52199353077167"><ele>36.5</ele><time>2026-04-12T04:51:19Z</time></trkpt><trkpt lat="-31.296447001290787" lon="115.521784138709"><ele>36.0</ele><time>2026-04-12T04:51:20Z</time></trkpt><trkpt lat="-31.296290243048293" lon="115.52156572034444"><ele>36.0</ele><time>2026-04-12T04:51:21Z</time></trkpt><trkpt lat="-31.296134288416642" lon="115.5213398743989"><ele>36.0</ele><time>2026-04-12T04:51:22Z</time></trkpt><trkpt lat="-31.295983168275566" lon="115.521109057852"><ele>32.5</ele><time>2026-04-12T04:51:23Z</time></trkpt><trkpt lat="-31.295835260321823" lon="115.5208686034964"><ele>29.0</ele><time>2026-04-12T04:51:24Z</time></trkpt><trkpt lat="-31.295694652664007" lon="115.52062242810936"><ele>26.0</ele><time>2026-04-12T04:51:25Z</time></trkpt><trkpt lat="-31.29556355948264" lon="115.52037136448007"><ele>23.0</ele><time>2026-04-12T04:51:26Z</time></trkpt><trkpt lat="-31.29544182023892" lon="115.5201194737628"><ele>23.0</ele><time>2026-04-12T04:51:27Z</time></trkpt><trkpt lat="-31.295325436362152" lon="115.51987036001326"><ele>23.0</ele><time>2026-04-12T04:51:28Z</time></trkpt><trkpt lat="-31.295210010126336" lon="115.5196282380208"><ele>21.5</ele><time>2026-04-12T04:51:29Z</time></trkpt><trkpt lat="-31.295093959003395" lon="115.51939088709936"><ele>20.0</ele><time>2026-04-12T04:51:30Z</time></trkpt><trkpt lat="-31.294975826167015" lon="115.51915438753558"><ele>20.0</ele><time>2026-04-12T04:51:31Z</time></trkpt><trkpt lat="-31.294859627227822" lon="115.51892452206143"><ele>20.0</ele><time>2026-04-12T04:51:32Z</time></trkpt><trkpt lat="-31.29473939090174" lon="115.5186998226402"><ele>18.666666666666668</ele><time>2026-04-12T04:51:33Z</time></trkpt><trkpt lat="-31.29462080667837" lon="115.51848925654626"><ele>17.333333333333332</ele><time>2026-04-12T04:51:34Z</time></trkpt><trkpt lat="-31.294496626702035" lon="115.51828542217581"><ele>16.0</ele><time>2026-04-12T04:51:35Z</time></trkpt><trkpt lat="-31.294368796533504" lon="115.51809090243256"><ele>16.0</ele><time>2026-04-12T04:51:36Z</time></trkpt><trkpt lat="-31.29423964711322" lon="115.51790429936787"><ele>16.0</ele><time>2026-04-12T04:51:37Z</time></trkpt><trkpt lat="-31.29410930782856" lon="115.51772927754438"><ele>16.0</ele><time>2026-04-12T04:51:38Z</time></trkpt><trkpt lat="-31.29398261549948" lon="115.51756420525263"><ele>15.333333333333332</ele><time>2026-04-12T04:51:39.001Z</time></trkpt><trkpt lat="-31.293859199668066" lon="115.51740657286743"><ele>14.666666666666668</ele><time>2026-04-12T04:51:40.001Z</time></trkpt><trkpt lat="-31.29373174646964" lon="115.5172482172013"><ele>14.0</ele><time>2026-04-12T04:51:41.001Z</time></trkpt><trkpt lat="-31.29359464666101" lon="115.5170964260627"><ele>14.0</ele><time>2026-04-12T04:51:42.001Z</time></trkpt><trkpt lat="-31.293448402201893" lon="115.51694015116018"><ele>14.0</ele><time>2026-04-12T04:51:43.001Z</time></trkpt><trkpt lat="-31.293294842749855" lon="115.51677809871778"><ele>14.0</ele><time>2026-04-12T04:51:44.001Z</time></trkpt><trkpt lat="-31.293138399352554" lon="115.51661188812903"><ele>15.0</ele><time>2026-04-12T04:51:45.001Z</time></trkpt><trkpt lat="-31.29297364991311" lon="115.51644186470284"><ele>16.0</ele><time>2026-04-12T04:51:46.001Z</time></trkpt><trkpt lat="-31.29280562046848" lon="115.51626169020145"><ele>17.0</ele><time>2026-04-12T04:51:47.001Z</time></trkpt><trkpt lat="-31.292636808726577" lon="115.51607207447984"><ele>17.0</ele><time>2026-04-12T04:51:48.001Z</time></trkpt><trkpt lat="-31.292461836353926" lon="115.51587982337796"><ele>17.0</ele><time>2026-04-12T04:51:49.001Z</time></trkpt><trkpt lat="-31.292283248750806" lon="115.5156877547415"><ele>17.5</ele><time>2026-04-12T04:51:50.001Z</time></trkpt><trkpt lat="-31.292101305000692" lon="115.51549506028947"><ele>18.0</ele><time>2026-04-12T04:51:51.001Z</time></trkpt><trkpt lat="-31.29191525715939" lon="115.5153038336285"><ele>18.0</ele><time>2026-04-12T04:51:52.001Z</time></trkpt><trkpt lat="-31.291725829573178" lon="115.51511583725953"><ele>18.0</ele><time>2026-04-12T04:51:53.001Z</time></trkpt><trkpt lat="-31.291535054556583" lon="115.51492906519869"><ele>20.0</ele><time>2026-04-12T04:51:54.001Z</time></trkpt><trkpt lat="-31.29134313153744" lon="115.51473874262143"><ele>22.0</ele><time>2026-04-12T04:51:55.001Z</time></trkpt><trkpt lat="-31.291151513889265" lon="115.51454502812086"><ele>22.0</ele><time>2026-04-12T04:51:56.001Z</time></trkpt><trkpt lat="-31.290960367533646" lon="115.51434925885866"><ele>22.0</ele><time>2026-04-12T04:51:57.001Z</time></trkpt><trkpt lat="-31.290768824081212" lon="115.51415599470396"><ele>23.0</ele><time>2026-04-12T04:51:58.001Z</time></trkpt><trkpt lat="-31.290576178466026" lon="115.51396139599402"><ele>24.0</ele><time>2026-04-12T04:51:59.001Z</time></trkpt><trkpt lat="-31.290382138688358" lon="115.51376632028915"><ele>22.5</ele><time>2026-04-12T04:52:00.001Z</time></trkpt><trkpt lat="-31.290188891151608" lon="115.51356812417427"><ele>21.0</ele><time>2026-04-12T04:52:01.001Z</time></trkpt><trkpt lat="-31.289997009817615" lon="115.51336709059359"><ele>21.0</ele><time>2026-04-12T04:52:02.001Z</time></trkpt><trkpt lat="-31.28980669309962" lon="115.51316569931488"><ele>21.0</ele><time>2026-04-12T04:52:03.001Z</time></trkpt><trkpt lat="-31.2896142465233" lon="115.51296697754594"><ele>22.0</ele><time>2026-04-12T04:52:04.001Z</time></trkpt><trkpt lat="-31.289419171746644" lon="115.51277244074417"><ele>23.0</ele><time>2026-04-12T04:52:05.001Z</time></trkpt><trkpt lat="-31.289225820305575" lon="115.51258081571356"><ele>23.0</ele><time>2026-04-12T04:52:06.001Z</time></trkpt><trkpt lat="-31.289032224819884" lon="115.51238757498156"><ele>23.0</ele><time>2026-04-12T04:52:07.001Z</time></trkpt><trkpt lat="-31.288839541645526" lon="115.51219117588325"><ele>22.5</ele><time>2026-04-12T04:52:08.001Z</time></trkpt><trkpt lat="-31.28865233809075" lon="115.51199768823628"><ele>22.0</ele><time>2026-04-12T04:52:09.001Z</time></trkpt><trkpt lat="-31.288462950669746" lon="115.51180515479757"><ele>22.0</ele><time>2026-04-12T04:52:10.001Z</time></trkpt><trkpt lat="-31.288269778911513" lon="115.51161066539373"><ele>22.0</ele><time>2026-04-12T04:52:11.001Z</time></trkpt><trkpt lat="-31.288078633835315" lon="115.51141455773363"><ele>22.0</ele><time>2026-04-12T04:52:12.001Z</time></trkpt><trkpt lat="-31.287888060687376" lon="115.51121879527304"><ele>22.0</ele><time>2026-04-12T04:52:13.001Z</time></trkpt><trkpt lat="-31.287698028176198" lon="115.51102484212068"><ele>22.0</ele><time>2026-04-12T04:52:14.001Z</time></trkpt><trkpt lat="-31.28750693195825" lon="115.51083233327641"><ele>22.0</ele><time>2026-04-12T04:52:15.001Z</time></trkpt><trkpt lat="-31.287314307893954" lon="115.51063855710865"><ele>23.0</ele><time>2026-04-12T04:52:16.001Z</time></trkpt><trkpt lat="-31.287124862909746" lon="115.51044562929009"><ele>24.0</ele><time>2026-04-12T04:52:17.001Z</time></trkpt><trkpt lat="-31.28693961150499" lon="115.51025205868828"><ele>24.0</ele><time>2026-04-12T04:52:18.001Z</time></trkpt><trkpt lat="-31.286757907500043" lon="115.5100645998495"><ele>24.0</ele><time>2026-04-12T04:52:19.001Z</time></trkpt><trkpt lat="-31.286579059890116" lon="115.50988641241871"><ele>25.0</ele><time>2026-04-12T04:52:20.001Z</time></trkpt><trkpt lat="-31.286410754638787" lon="115.50972132506219"><ele>26.0</ele><time>2026-04-12T04:52:21.001Z</time></trkpt><trkpt lat="-31.286252876849932" lon="115.50956419003427"><ele>27.0</ele><time>2026-04-12T04:52:22.001Z</time></trkpt><trkpt lat="-31.286091896893094" lon="115.50940383095754"><ele>27.0</ele><time>2026-04-12T04:52:23.001Z</time></trkpt><trkpt lat="-31.285926824504426" lon="115.50923690113925"><ele>27.0</ele><time>2026-04-12T04:52:24.001Z</time></trkpt><trkpt lat="-31.285759544958058" lon="115.5090625415704"><ele>27.0</ele><time>2026-04-12T04:52:25.001Z</time></trkpt><trkpt lat="-31.285589047701496" lon="115.50888454259902"><ele>27.0</ele><time>2026-04-12T04:52:26.001Z</time></trkpt><trkpt lat="-31.28541498078868" lon="115.50870448790056"><ele>27.0</ele><time>2026-04-12T04:52:27.001Z</time></trkpt><trkpt lat="-31.28523368534724" lon="115.50852586794667"><ele>27.0</ele><time>2026-04-12T04:52:28.001Z</time></trkpt><trkpt lat="-31.285049458189935" lon="115.50834867146057"><ele>27.0</ele><time>2026-04-12T04:52:29.001Z</time></trkpt><trkpt lat="-31.284865651796046" lon="115.50816717479806"><ele>27.5</ele><time>2026-04-12T04:52:30Z</time></trkpt><trkpt lat="-31.28468492107002" lon="115.50797937761145"><ele>28.0</ele><time>2026-04-12T04:52:31Z</time></trkpt><trkpt lat="-31.284504463711354" lon="115.50778832275157"><ele>30.5</ele><time>2026-04-12T04:52:32Z</time></trkpt><trkpt lat="-31.284325769434588" lon="115.50760189512256"><ele>33.0</ele><time>2026-04-12T04:52:33Z</time></trkpt><trkpt lat="-31.284143857856062" lon="115.50741583232379"><ele>33.0</ele><time>2026-04-12T04:52:34Z</time></trkpt><trkpt lat="-31.283959372763025" lon="115.50722913229502"><ele>33.0</ele><time>2026-04-12T04:52:35Z</time></trkpt><trkpt lat="-31.283774233026417" lon="115.50704476993909"><ele>31.0</ele><time>2026-04-12T04:52:36Z</time></trkpt><trkpt lat="-31.283588531795743" lon="115.50685700237167"><ele>29.0</ele><time>2026-04-12T04:52:37Z</time></trkpt><trkpt lat="-31.283403276671397" lon="115.50666529463507"><ele>29.0</ele><time>2026-04-12T04:52:38Z</time></trkpt><trkpt lat="-31.283215004902722" lon="115.50647389802177"><ele>29.0</ele><time>2026-04-12T04:52:39Z</time></trkpt><trkpt lat="-31.283026374020203" lon="115.50628394542565"><ele>29.5</ele><time>2026-04-12T04:52:40Z</time></trkpt><trkpt lat="-31.282835993998027" lon="115.5060927429614"><ele>30.0</ele><time>2026-04-12T04:52:41Z</time></trkpt><trkpt lat="-31.282642408674977" lon="115.50589947073152"><ele>30.0</ele><time>2026-04-12T04:52:42Z</time></trkpt><trkpt lat="-31.282447547915574" lon="115.50570589954056"><ele>30.0</ele><time>2026-04-12T04:52:43Z</time></trkpt><trkpt lat="-31.282252200431437" lon="115.50551290717013"><ele>28.5</ele><time>2026-04-12T04:52:44Z</time></trkpt><trkpt lat="-31.282054911259976" lon="115.5053194842205"><ele>27.0</ele><time>2026-04-12T04:52:45Z</time></trkpt><trkpt lat="-31.281863618558106" lon="115.50513181340169"><ele>27.0</ele><time>2026-04-12T04:52:46Z</time></trkpt><trkpt lat="-31.281682239420952" lon="115.50495086403495"><ele>27.0</ele><time>2026-04-12T04:52:47Z</time></trkpt><trkpt lat="-31.2815165161524" lon="115.50478593540794"><ele>26.666666666666664</ele><time>2026-04-12T04:52:48Z</time></trkpt><trkpt lat="-31.281357642322888" lon="115.50462658916584"><ele>26.333333333333332</ele><time>2026-04-12T04:52:49Z</time></trkpt><trkpt lat="-31.281206752760966" lon="115.50447155310371"><ele>26.0</ele><time>2026-04-12T04:52:50Z</time></trkpt><trkpt lat="-31.28105815960563" lon="115.50431824235277"><ele>26.0</ele><time>2026-04-12T04:52:51Z</time></trkpt><trkpt lat="-31.28090859102191" lon="115.50416333952876"><ele>26.0</ele><time>2026-04-12T04:52:52Z</time></trkpt><trkpt lat="-31.28075606037579" lon="115.50400944833943"><ele>26.0</ele><time>2026-04-12T04:52:53Z</time></trkpt><trkpt lat="-31.280603297768682" lon="115.50385596002958"><ele>25.666666666666664</ele><time>2026-04-12T04:52:54Z</time></trkpt><trkpt lat="-31.280454095905004" lon="115.50370417341533"><ele>25.333333333333336</ele><time>2026-04-12T04:52:55Z</time></trkpt><trkpt lat="-31.280302426537425" lon="115.5035530175603"><ele>25.0</ele><time>2026-04-12T04:52:56Z</time></trkpt><trkpt lat="-31.28014809739576" lon="115.50340493064279"><ele>25.0</ele><time>2026-04-12T04:52:57Z</time></trkpt><trkpt lat="-31.27998985546659" lon="115.50325608231165"><ele>25.0</ele><time>2026-04-12T04:52:58Z</time></trkpt><trkpt lat="-31.279827001720538" lon="115.50310873919062"><ele>25.0</ele><time>2026-04-12T04:52:59Z</time></trkpt><trkpt lat="-31.27965738850883" lon="115.50295686787912"><ele>25.0</ele><time>2026-04-12T04:53:00Z</time></trkpt><trkpt lat="-31.279483641290906" lon="115.50280650595376"><ele>25.0</ele><time>2026-04-12T04:53:01Z</time></trkpt><trkpt lat="-31.279305485671898" lon="115.50266199113895"><ele>25.0</ele><time>2026-04-12T04:53:02Z</time></trkpt><trkpt lat="-31.2791190614177" lon="115.50252601791317"><ele>24.666666666666668</ele><time>2026-04-12T04:53:03Z</time></trkpt><trkpt lat="-31.27893111409169" lon="115.50238807080163"><ele>24.333333333333336</ele><time>2026-04-12T04:53:04Z</time></trkpt><trkpt lat="-31.278740154346423" lon="115.50224700529671"><ele>24.0</ele><time>2026-04-12T04:53:05Z</time></trkpt><trkpt lat="-31.278547876305502" lon="115.50210143283266"><ele>24.0</ele><time>2026-04-12T04:53:06Z</time></trkpt><trkpt lat="-31.278353739014218" lon="115.50195430496505"><ele>24.0</ele><time>2026-04-12T04:53:07Z</time></trkpt><trkpt lat="-31.278159531610147" lon="115.50180774122785"><ele>24.0</ele><time>2026-04-12T04:53:08Z</time></trkpt><trkpt lat="-31.277965788930782" lon="115.50166131125737"><ele>24.0</ele><time>2026-04-12T04:53:09Z</time></trkpt><trkpt lat="-31.27777210717034" lon="115.50151448696127"><ele>24.0</ele><time>2026-04-12T04:53:10Z</time></trkpt><trkpt lat="-31.277579314522356" lon="115.50136683191333"><ele>24.0</ele><time>2026-04-12T04:53:11Z</time></trkpt><trkpt lat="-31.277379796019723" lon="115.50121628535712"><ele>24.0</ele><time>2026-04-12T04:53:12Z</time></trkpt><trkpt lat="-31.277180987430143" lon="115.50107328883013"><ele>24.0</ele><time>2026-04-12T04:53:13Z</time></trkpt><trkpt lat="-31.276977025904156" lon="115.50092984123206"><ele>24.0</ele><time>2026-04-12T04:53:14Z</time></trkpt><trkpt lat="-31.276772296376322" lon="115.50078552671822"><ele>24.0</ele><time>2026-04-12T04:53:15Z</time></trkpt><trkpt lat="-31.2765651777314" lon="115.5006388290963"><ele>24.0</ele><time>2026-04-12T04:53:16Z</time></trkpt><trkpt lat="-31.276355776336803" lon="115.50049169752592"><ele>24.0</ele><time>2026-04-12T04:53:17Z</time></trkpt><trkpt lat="-31.27614362791296" lon="115.5003436665036"><ele>22.5</ele><time>2026-04-12T04:53:18Z</time></trkpt><trkpt lat="-31.275929915432368" lon="115.50019481499609"><ele>21.0</ele><time>2026-04-12T04:53:19Z</time></trkpt><trkpt lat="-31.27571883010637" lon="115.50004600659388"><ele>22.5</ele><time>2026-04-12T04:53:20Z</time></trkpt><trkpt lat="-31.27551044036473" lon="115.49989161030538"><ele>24.0</ele><time>2026-04-12T04:53:21Z</time></trkpt><trkpt lat="-31.27530355022977" lon="115.49973738819865"><ele>24.0</ele><time>2026-04-12T04:53:22Z</time></trkpt><trkpt lat="-31.275100637332336" lon="115.49958597509952"><ele>24.0</ele><time>2026-04-12T04:53:23Z</time></trkpt><trkpt lat="-31.27489782322433" lon="115.49943598494762"><ele>22.5</ele><time>2026-04-12T04:53:24Z</time></trkpt><trkpt lat="-31.274693789592618" lon="115.49928688890687"><ele>21.0</ele><time>2026-04-12T04:53:25Z</time></trkpt><trkpt lat="-31.274489463665024" lon="115.499137398524"><ele>21.0</ele><time>2026-04-12T04:53:26Z</time></trkpt><trkpt lat="-31.274286610957184" lon="115.49898593406759"><ele>21.0</ele><time>2026-04-12T04:53:27Z</time></trkpt><trkpt lat="-31.274078760847832" lon="115.49883425185867"><ele>20.5</ele><time>2026-04-12T04:53:28Z</time></trkpt><trkpt lat="-31.273871821244132" lon="115.49868853692101"><ele>20.0</ele><time>2026-04-12T04:53:29Z</time></trkpt><trkpt lat="-31.2736635332593" lon="115.49853899727222"><ele>20.0</ele><time>2026-04-12T04:53:30Z</time></trkpt><trkpt lat="-31.273456529834505" lon="115.49838610316907"><ele>20.0</ele><time>2026-04-12T04:53:31Z</time></trkpt><trkpt lat="-31.273254865017154" lon="115.49823443525636"><ele>21.5</ele><time>2026-04-12T04:53:32Z</time></trkpt><trkpt lat="-31.273055077297872" lon="115.49808174189187"><ele>23.0</ele><time>2026-04-12T04:53:33Z</time></trkpt><trkpt lat="-31.272851360121297" lon="115.49793179959158"><ele>22.0</ele><time>2026-04-12T04:53:34Z</time></trkpt><trkpt lat="-31.272642582433214" lon="115.49777695577012"><ele>21.0</ele><time>2026-04-12T04:53:35Z</time></trkpt><trkpt lat="-31.272431174651764" lon="115.49762084171924"><ele>22.0</ele><time>2026-04-12T04:53:36Z</time></trkpt><trkpt lat="-31.272219576195045" lon="115.49746398441296"><ele>23.0</ele><time>2026-04-12T04:53:37Z</time></trkpt><trkpt lat="-31.272009875301528" lon="115.49731131092021"><ele>23.0</ele><time>2026-04-12T04:53:38Z</time></trkpt><trkpt lat="-31.27180154697764" lon="115.49716124672416"><ele>23.0</ele><time>2026-04-12T04:53:39Z</time></trkpt><trkpt lat="-31.271590433988383" lon="115.49700717111632"><ele>22.5</ele><time>2026-04-12T04:53:40Z</time></trkpt><trkpt lat="-31.27138438542971" lon="115.49685281131241"><ele>22.0</ele><time>2026-04-12T04:53:41Z</time></trkpt><trkpt lat="-31.271183008349457" lon="115.49669754518523"><ele>22.0</ele><time>2026-04-12T04:53:42Z</time></trkpt><trkpt lat="-31.27098196592456" lon="115.49654662683982"><ele>22.0</ele><time>2026-04-12T04:53:43Z</time></trkpt><trkpt lat="-31.27077788343801" lon="115.49640024089057"><ele>23.5</ele><time>2026-04-12T04:53:44Z</time></trkpt><trkpt lat="-31.27056932323506" lon="115.49625697147724"><ele>25.0</ele><time>2026-04-12T04:53:45Z</time></trkpt><trkpt lat="-31.270360335036845" lon="115.4961099494856"><ele>25.5</ele><time>2026-04-12T04:53:46Z</time></trkpt><trkpt lat="-31.270149842131605" lon="115.49596301424528"><ele>26.0</ele><time>2026-04-12T04:53:47Z</time></trkpt><trkpt lat="-31.26993176867887" lon="115.49581847745672"><ele>27.0</ele><time>2026-04-12T04:53:48Z</time></trkpt><trkpt lat="-31.269710069049243" lon="115.49567439765835"><ele>28.0</ele><time>2026-04-12T04:53:49Z</time></trkpt><trkpt lat="-31.269487976062763" lon="115.49553640345779"><ele>26.0</ele><time>2026-04-12T04:53:50Z</time></trkpt><trkpt lat="-31.269264321054308" lon="115.49541177855693"><ele>24.0</ele><time>2026-04-12T04:53:51Z</time></trkpt><trkpt lat="-31.269030876449445" lon="115.49529220379819"><ele>24.0</ele><time>2026-04-12T04:53:52Z</time></trkpt><trkpt lat="-31.268794651685887" lon="115.49518075408425"><ele>24.0</ele><time>2026-04-12T04:53:53Z</time></trkpt><trkpt lat="-31.268550640402847" lon="115.49507486010344"><ele>24.0</ele><time>2026-04-12T04:53:54Z</time></trkpt><trkpt lat="-31.268306843481092" lon="115.49497786360133"><ele>24.0</ele><time>2026-04-12T04:53:55Z</time></trkpt><trkpt lat="-31.268065637822026" lon="115.49489251010985"><ele>22.5</ele><time>2026-04-12T04:53:56Z</time></trkpt><trkpt lat="-31.267834901666685" lon="115.49482255472479"><ele>21.0</ele><time>2026-04-12T04:53:57Z</time></trkpt><trkpt lat="-31.26760363665066" lon="115.49475845411308"><ele>21.0</ele><time>2026-04-12T04:53:58Z</time></trkpt><trkpt lat="-31.267361690031375" lon="115.49469159884788"><ele>21.0</ele><time>2026-04-12T04:53:59Z</time></trkpt><trkpt lat="-31.267116812585453" lon="115.49462261493717"><ele>20.0</ele><time>2026-04-12T04:54:00Z</time></trkpt><trkpt lat="-31.266870809450975" lon="115.49455206082523"><ele>19.0</ele><time>2026-04-12T04:54:01Z</time></trkpt><trkpt lat="-31.266622495312422" lon="115.49447936971217"><ele>20.0</ele><time>2026-04-12T04:54:02Z</time></trkpt><trkpt lat="-31.26637504142602" lon="115.49440419958273"><ele>21.0</ele><time>2026-04-12T04:54:03Z</time></trkpt><trkpt lat="-31.266124442621994" lon="115.4943309316701"><ele>21.0</ele><time>2026-04-12T04:54:04Z</time></trkpt><trkpt lat="-31.265873251891726" lon="115.49426059251863"><ele>21.0</ele><time>2026-04-12T04:54:05Z</time></trkpt><trkpt lat="-31.265621281590416" lon="115.49419187944935"><ele>19.0</ele><time>2026-04-12T04:54:06Z</time></trkpt><trkpt lat="-31.265370001528296" lon="115.49412066911448"><ele>17.0</ele><time>2026-04-12T04:54:07Z</time></trkpt><trkpt lat="-31.26512716744744" lon="115.49404716658874"><ele>17.0</ele><time>2026-04-12T04:54:08Z</time></trkpt><trkpt lat="-31.264889382272134" lon="115.49396915562009"><ele>17.0</ele><time>2026-04-12T04:54:09.001Z</time></trkpt><trkpt lat="-31.26465543978553" lon="115.49387584197704"><ele>17.5</ele><time>2026-04-12T04:54:10.001Z</time></trkpt><trkpt lat="-31.264424773397444" lon="115.49376561335332"><ele>18.0</ele><time>2026-04-12T04:54:11.001Z</time></trkpt><trkpt lat="-31.264197954908937" lon="115.49364232992366"><ele>17.0</ele><time>2026-04-12T04:54:12.001Z</time></trkpt><trkpt lat="-31.26397370335454" lon="115.49350759644796"><ele>16.0</ele><time>2026-04-12T04:54:13.001Z</time></trkpt><trkpt lat="-31.26375471256664" lon="115.49335934219047"><ele>18.0</ele><time>2026-04-12T04:54:14.001Z</time></trkpt><trkpt lat="-31.26353964952203" lon="115.49319718390316"><ele>20.0</ele><time>2026-04-12T04:54:15.001Z</time></trkpt><trkpt lat="-31.263338013913785" lon="115.49299567028842"><ele>20.0</ele><time>2026-04-12T04:54:16.001Z</time></trkpt><trkpt lat="-31.263128886199464" lon="115.49280102088602"><ele>20.0</ele><time>2026-04-12T04:54:17.001Z</time></trkpt><trkpt lat="-31.262918370339957" lon="115.49262253779038"><ele>22.5</ele><time>2026-04-12T04:54:18.001Z</time></trkpt><trkpt lat="-31.262723950379126" lon="115.49242440564595"><ele>25.0</ele><time>2026-04-12T04:54:19.001Z</time></trkpt><trkpt lat="-31.262527938584473" lon="115.4922335790387"><ele>25.0</ele><time>2026-04-12T04:54:20.001Z</time></trkpt><trkpt lat="-31.26233274629136" lon="115.4920470188358"><ele>25.0</ele><time>2026-04-12T04:54:21.001Z</time></trkpt><trkpt lat="-31.26213473970029" lon="115.49185960950373"><ele>25.0</ele><time>2026-04-12T04:54:22.001Z</time></trkpt><trkpt lat="-31.26193468616946" lon="115.49167226608265"><ele>25.0</ele><time>2026-04-12T04:54:23.001Z</time></trkpt><trkpt lat="-31.261735179708076" lon="115.4914897761587"><ele>25.0</ele><time>2026-04-12T04:54:24.001Z</time></trkpt><trkpt lat="-31.261532335469976" lon="115.49130293271463"><ele>25.0</ele><time>2026-04-12T04:54:25.001Z</time></trkpt><trkpt lat="-31.261330055004155" lon="115.49111512795994"><ele>27.0</ele><time>2026-04-12T04:54:26.001Z</time></trkpt><trkpt lat="-31.26112937333197" lon="115.49092415882772"><ele>29.0</ele><time>2026-04-12T04:54:27.001Z</time></trkpt><trkpt lat="-31.260928783497874" lon="115.4907330444593"><ele>29.0</ele><time>2026-04-12T04:54:28.001Z</time></trkpt><trkpt lat="-31.26072951647463" lon="115.49054373398872"><ele>29.0</ele><time>2026-04-12T04:54:29.001Z</time></trkpt><trkpt lat="-31.26052521362187" lon="115.49034952280309"><ele>27.5</ele><time>2026-04-12T04:54:30.001Z</time></trkpt><trkpt lat="-31.260323113367583" lon="115.49015920092178"><ele>26.0</ele><time>2026-04-12T04:54:31.001Z</time></trkpt><trkpt lat="-31.260121721113705" lon="115.4899725869511"><ele>26.0</ele><time>2026-04-12T04:54:32.001Z</time></trkpt><trkpt lat="-31.259924150049244" lon="115.48978993392724"><ele>26.0</ele><time>2026-04-12T04:54:33.001Z</time></trkpt><trkpt lat="-31.259735815006238" lon="115.48961234475769"><ele>27.0</ele><time>2026-04-12T04:54:34.001Z</time></trkpt><trkpt lat="-31.259553836887626" lon="115.48944248876131"><ele>28.0</ele><time>2026-04-12T04:54:35.001Z</time></trkpt><trkpt lat="-31.25938510916268" lon="115.48926229838106"><ele>28.0</ele><time>2026-04-12T04:54:36Z</time></trkpt><trkpt lat="-31.259206707165628" lon="115.4890937945903"><ele>28.0</ele><time>2026-04-12T04:54:37Z</time></trkpt><trkpt lat="-31.25902598933232" lon="115.48892338191936"><ele>30.0</ele><time>2026-04-12T04:54:38Z</time></trkpt><trkpt lat="-31.25884246098541" lon="115.48875031862245"><ele>32.0</ele><time>2026-04-12T04:54:39Z</time></trkpt><trkpt lat="-31.258657745099978" lon="115.48857667968998"><ele>32.0</ele><time>2026-04-12T04:54:40Z</time></trkpt><trkpt lat="-31.258465897050012" lon="115.48841597140922"><ele>32.0</ele><time>2026-04-12T04:54:41Z</time></trkpt><trkpt lat="-31.258283749349893" lon="115.48824109504831"><ele>32.0</ele><time>2026-04-12T04:54:42Z</time></trkpt><trkpt lat="-31.258098091156786" lon="115.48806786283869"><ele>32.0</ele><time>2026-04-12T04:54:43Z</time></trkpt><trkpt lat="-31.257908319469582" lon="115.48789234487775"><ele>30.0</ele><time>2026-04-12T04:54:44Z</time></trkpt><trkpt lat="-31.257716906907998" lon="115.48771352700092"><ele>28.0</ele><time>2026-04-12T04:54:45Z</time></trkpt><trkpt lat="-31.257524296324032" lon="115.48753029898529"><ele>28.0</ele><time>2026-04-12T04:54:46Z</time></trkpt><trkpt lat="-31.257329208921796" lon="115.48734231100292"><ele>28.0</ele><time>2026-04-12T04:54:47Z</time></trkpt><trkpt lat="-31.257132363951175" lon="115.48715462287879"><ele>25.5</ele><time>2026-04-12T04:54:48Z</time></trkpt><trkpt lat="-31.256933344306347" lon="115.48697101088106"><ele>23.0</ele><time>2026-04-12T04:54:49Z</time></trkpt><trkpt lat="-31.256730161326065" lon="115.48678923951051"><ele>23.0</ele><time>2026-04-12T04:54:50Z</time></trkpt><trkpt lat="-31.256523079302163" lon="115.48661036916612"><ele>23.0</ele><time>2026-04-12T04:54:51Z</time></trkpt><trkpt lat="-31.256311488807306" lon="115.4864367592872"><ele>23.0</ele><time>2026-04-12T04:54:52Z</time></trkpt><trkpt lat="-31.256099030528425" lon="115.48627188279825"><ele>23.0</ele><time>2026-04-12T04:54:53Z</time></trkpt><trkpt lat="-31.255895388793306" lon="115.48612359097561"><ele>22.5</ele><time>2026-04-12T04:54:54Z</time></trkpt><trkpt lat="-31.255698083759036" lon="115.4859903479935"><ele>22.0</ele><time>2026-04-12T04:54:55Z</time></trkpt><trkpt lat="-31.255498977128838" lon="115.48586325701831"><ele>22.0</ele><time>2026-04-12T04:54:56Z</time></trkpt><trkpt lat="-31.255309492889925" lon="115.48574521749184"><ele>22.0</ele><time>2026-04-12T04:54:57Z</time></trkpt><trkpt lat="-31.25513367785315" lon="115.48563740561107"><ele>22.0</ele><time>2026-04-12T04:54:58Z</time></trkpt><trkpt lat="-31.254971656078236" lon="115.48554333869717"><ele>22.0</ele><time>2026-04-12T04:54:59Z</time></trkpt><trkpt lat="-31.254820551175307" lon="115.48546338194816"><ele>22.0</ele><time>2026-04-12T04:55:00Z</time></trkpt><trkpt lat="-31.254695025980276" lon="115.48537021009027"><ele>22.0</ele><time>2026-04-12T04:55:01Z</time></trkpt><trkpt lat="-31.254584595152426" lon="115.48530566686894"><ele>22.0</ele><time>2026-04-12T04:55:02Z</time></trkpt><trkpt lat="-31.254492805371896" lon="115.48525077079215"><ele>22.0</ele><time>2026-04-12T04:55:03Z</time></trkpt><trkpt lat="-31.254424800750694" lon="115.48521251213825"><ele>22.0</ele><time>2026-04-12T04:55:04Z</time></trkpt><trkpt lat="-31.254336228320234" lon="115.48516268278344"><ele>22.0</ele><time>2026-04-12T04:55:06Z</time></trkpt><trkpt lat="-31.254153487817" lon="115.4853799359849"><ele>22.0</ele><time>2026-04-12T04:55:08Z</time></trkpt><trkpt lat="-31.254100623640557" lon="115.48546752845692"><ele>22.25</ele><time>2026-04-12T04:55:10Z</time></trkpt><trkpt lat="-31.254055087278072" lon="115.48552616817805"><ele>22.5</ele><time>2026-04-12T04:55:23Z</time></trkpt><trkpt lat="-31.254213210516284" lon="115.4855949970641"><ele>22.75</ele><time>2026-04-12T04:55:27Z</time></trkpt><trkpt lat="-31.25432699161316" lon="115.48563019864937"><ele>23.0</ele><time>2026-04-12T04:55:29Z</time></trkpt><trkpt lat="-31.25439694036244" lon="115.48572448049318"><ele>23.0</ele><time>2026-04-12T04:55:31Z</time></trkpt><trkpt lat="-31.25445311529173" lon="115.48579457545551"><ele>23.0</ele><time>2026-04-12T04:55:33Z</time></trkpt><trkpt lat="-31.254530692486792" lon="115.48590561165844"><ele>23.0</ele><time>2026-04-12T04:55:35Z</time></trkpt><trkpt lat="-31.254573126507466" lon="115.48603491161464"><ele>23.0</ele><time>2026-04-12T04:55:37Z</time></trkpt><trkpt lat="-31.254581314136228" lon="115.48612553177595"><ele>23.0</ele><time>2026-04-12T04:55:38Z</time></trkpt><trkpt lat="-31.254584523530145" lon="115.48623802448544"><ele>23.2</ele><time>2026-04-12T04:55:39Z</time></trkpt><trkpt lat="-31.25458601107036" lon="115.4863590861727"><ele>23.4</ele><time>2026-04-12T04:55:40Z</time></trkpt><trkpt lat="-31.254586769135685" lon="115.48648327640012"><ele>23.599999999999998</ele><time>2026-04-12T04:55:41Z</time></trkpt><trkpt lat="-31.25458052018914" lon="115.48661241878555"><ele>23.799999999999997</ele><time>2026-04-12T04:55:42Z</time></trkpt><trkpt lat="-31.254567545053042" lon="115.4867296412298"><ele>24.0</ele><time>2026-04-12T04:55:43Z</time></trkpt><trkpt lat="-31.254552848713875" lon="115.48683872176204"><ele>24.0</ele><time>2026-04-12T04:55:44Z</time></trkpt><trkpt lat="-31.25454448400137" lon="115.48694734764865"><ele>24.0</ele><time>2026-04-12T04:55:45Z</time></trkpt><trkpt lat="-31.254549906531516" lon="115.48706672950392"><ele>24.0</ele><time>2026-04-12T04:55:46Z</time></trkpt><trkpt lat="-31.254568007511388" lon="115.4871738333184"><ele>24.0</ele><time>2026-04-12T04:55:47Z</time></trkpt><trkpt lat="-31.25458484733376" lon="115.48728302596336"><ele>24.0</ele><time>2026-04-12T04:55:48Z</time></trkpt><trkpt lat="-31.254597968125335" lon="115.48737534867122"><ele>24.166666666666668</ele><time>2026-04-12T04:55:49Z</time></trkpt><trkpt lat="-31.254593357782767" lon="115.48747381555192"><ele>24.333333333333336</ele><time>2026-04-12T04:55:50Z</time></trkpt><trkpt lat="-31.254568036418547" lon="115.48757158413116"><ele>24.5</ele><time>2026-04-12T04:55:51Z</time></trkpt><trkpt lat="-31.25453129951691" lon="115.4876602645478"><ele>24.666666666666668</ele><time>2026-04-12T04:55:52Z</time></trkpt><trkpt lat="-31.254481008493148" lon="115.48773808633115"><ele>24.833333333333336</ele><time>2026-04-12T04:55:53Z</time></trkpt><trkpt lat="-31.254415399414963" lon="115.48781699997352"><ele>25.0</ele><time>2026-04-12T04:55:54Z</time></trkpt><trkpt lat="-31.254343647242536" lon="115.48789274598933"><ele>25.0</ele><time>2026-04-12T04:55:55Z</time></trkpt><trkpt lat="-31.254284391792915" lon="115.4879764566681"><ele>25.0</ele><time>2026-04-12T04:55:56Z</time></trkpt><trkpt lat="-31.254241883761885" lon="115.488079829903"><ele>25.0</ele><time>2026-04-12T04:55:57Z</time></trkpt><trkpt lat="-31.2542054523667" lon="115.48819307553059"><ele>25.0</ele><time>2026-04-12T04:55:58Z</time></trkpt><trkpt lat="-31.25415322595031" lon="115.48830764087107"><ele>25.0</ele><time>2026-04-12T04:55:59Z</time></trkpt><trkpt lat="-31.254097529530416" lon="115.48840204723045"><ele>25.0</ele><time>2026-04-12T04:56:00Z</time></trkpt><trkpt lat="-31.25404086382489" lon="115.48849238942107"><ele>25.0</ele><time>2026-04-12T04:56:01Z</time></trkpt><trkpt lat="-31.253984132297195" lon="115.48857901813894"><ele>25.0</ele><time>2026-04-12T04:56:02Z</time></trkpt><trkpt lat="-31.253931188021976" lon="115.4886709692956"><ele>25.0</ele><time>2026-04-12T04:56:03Z</time></trkpt><trkpt lat="-31.25387626286705" lon="115.48876956088455"><ele>25.0</ele><time>2026-04-12T04:56:04Z</time></trkpt><trkpt lat="-31.253819057933168" lon="115.48887582555896"><ele>25.0</ele><time>2026-04-12T04:56:05Z</time></trkpt><trkpt lat="-31.253773024787147" lon="115.48896778699455"><ele>25.0</ele><time>2026-04-12T04:56:06Z</time></trkpt><trkpt lat="-31.253722309283166" lon="115.4890685240874"><ele>25.0</ele><time>2026-04-12T04:56:07Z</time></trkpt><trkpt lat="-31.25367190196042" lon="115.48917755951165"><ele>25.0</ele><time>2026-04-12T04:56:08Z</time></trkpt><trkpt lat="-31.25361032516406" lon="115.48929870494442"><ele>25.0</ele><time>2026-04-12T04:56:09Z</time></trkpt><trkpt lat="-31.253549436056087" lon="115.48941280678267"><ele>25.000000000000004</ele><time>2026-04-12T04:56:10Z</time></trkpt><trkpt lat="-31.25349280066643" lon="115.48952102595469"><ele>25.0</ele><time>2026-04-12T04:56:11Z</time></trkpt><trkpt lat="-31.25343751632966" lon="115.48962114277853"><ele>25.0</ele><time>2026-04-12T04:56:12Z</time></trkpt><trkpt lat="-31.253394394130776" lon="115.48969929711133"><ele>25.0</ele><time>2026-04-12T04:56:13Z</time></trkpt><trkpt lat="-31.253359462869902" lon="115.4897674063792"><ele>25.000000000000004</ele><time>2026-04-12T04:56:14Z</time></trkpt><trkpt lat="-31.253324454681955" lon="115.48984475364577"><ele>25.0</ele><time>2026-04-12T04:56:15Z</time></trkpt><trkpt lat="-31.253296557176395" lon="115.48993003910901"><ele>25.2</ele><time>2026-04-12T04:56:16Z</time></trkpt><trkpt lat="-31.253264562807217" lon="115.49005907581386"><ele>25.4</ele><time>2026-04-12T04:56:18Z</time></trkpt><trkpt lat="-31.25325236950361" lon="115.49014704736128"><ele>25.6</ele><time>2026-04-12T04:56:21Z</time></trkpt><trkpt lat="-31.253243362877043" lon="115.49024427830543"><ele>25.8</ele><time>2026-04-12T04:56:31Z</time></trkpt><trkpt lat="-31.253210608699337" lon="115.49037182126948"><ele>26.0</ele><time>2026-04-12T05:06:11Z</time></trkpt><trkpt lat="-31.253193086085204" lon="115.49044666960538"><ele>25.833333333333332</ele><time>2026-04-12T05:06:13Z</time></trkpt><trkpt lat="-31.253170684071087" lon="115.49053503115388"><ele>25.666666666666664</ele><time>2026-04-12T05:06:17Z</time></trkpt><trkpt lat="-31.253147949620306" lon="115.49063731999036"><ele>25.5</ele><time>2026-04-12T05:06:19Z</time></trkpt><trkpt lat="-31.253121206283243" lon="115.49076323729834"><ele>25.333333333333336</ele><time>2026-04-12T05:06:21Z</time></trkpt><trkpt lat="-31.253103819893685" lon="115.49084884659095"><ele>25.166666666666668</ele><time>2026-04-12T05:06:23Z</time></trkpt><trkpt lat="-31.253112482059116" lon="115.49093736975274"><ele>25.0</ele><time>2026-04-12T05:06:26Z</time></trkpt><trkpt lat="-31.253126947425375" lon="115.49101722183737"><ele>24.4</ele><time>2026-04-12T05:06:28Z</time></trkpt><trkpt lat="-31.253152786851377" lon="115.49112112927679"><ele>23.8</ele><time>2026-04-12T05:06:30Z</time></trkpt><trkpt lat="-31.253170671533077" lon="115.49125954718988"><ele>23.200000000000003</ele><time>2026-04-12T05:06:32Z</time></trkpt><trkpt lat="-31.253166005574045" lon="115.49139841479203"><ele>22.6</ele><time>2026-04-12T05:06:34Z</time></trkpt><trkpt lat="-31.253136987058333" lon="115.49148745043615"><ele>22.0</ele><time>2026-04-12T05:06:36Z</time></trkpt><trkpt lat="-31.253069129163013" lon="115.4915523106137"><ele>21.833333333333332</ele><time>2026-04-12T05:06:38Z</time></trkpt><trkpt lat="-31.2529913525609" lon="115.49156716554138"><ele>21.666666666666664</ele><time>2026-04-12T05:06:40Z</time></trkpt><trkpt lat="-31.252920414001075" lon="115.49154877244746"><ele>21.5</ele><time>2026-04-12T05:06:42Z</time></trkpt><trkpt lat="-31.252868033532252" lon="115.49160631957558"><ele>21.333333333333332</ele><time>2026-04-12T05:06:44Z</time></trkpt><trkpt lat="-31.252850979559284" lon="115.4917017656704"><ele>21.166666666666668</ele><time>2026-04-12T05:07:10.999Z</time></trkpt><trkpt lat="-31.252826910887705" lon="115.4918352750019"><ele>21.0</ele><time>2026-04-12T05:07:12.999Z</time></trkpt><trkpt lat="-31.25282727894755" lon="115.49194795809966"><ele>21.0</ele><time>2026-04-12T05:07:14.999Z</time></trkpt><trkpt lat="-31.252853239277485" lon="115.49207504167278"><ele>21.0</ele><time>2026-04-12T05:07:16.999Z</time></trkpt><trkpt lat="-31.25286973436834" lon="115.4921593398221"><ele>21.0</ele><time>2026-04-12T05:07:17.999Z</time></trkpt><trkpt lat="-31.252890131115535" lon="115.4922602171271"><ele>21.0</ele><time>2026-04-12T05:07:18.999Z</time></trkpt><trkpt lat="-31.252912936438513" lon="115.49237883741736"><ele>21.0</ele><time>2026-04-12T05:07:19.999Z</time></trkpt><trkpt lat="-31.25293180799075" lon="115.49249644883805"><ele>21.4</ele><time>2026-04-12T05:07:20.999Z</time></trkpt><trkpt lat="-31.252943460556505" lon="115.49261135454397"><ele>21.8</ele><time>2026-04-12T05:07:21.999Z</time></trkpt><trkpt lat="-31.25295384027054" lon="115.49272674789492"><ele>22.2</ele><time>2026-04-12T05:07:22.999Z</time></trkpt><trkpt lat="-31.252982113734223" lon="115.49283417805066"><ele>22.599999999999998</ele><time>2026-04-12T05:07:23.999Z</time></trkpt><trkpt lat="-31.25301942654969" lon="115.49295140697829"><ele>23.0</ele><time>2026-04-12T05:07:24.999Z</time></trkpt><trkpt lat="-31.253056063792272" lon="115.49307630266702"><ele>23.2</ele><time>2026-04-12T05:07:25.999Z</time></trkpt><trkpt lat="-31.253089053801986" lon="115.49319761675875"><ele>23.4</ele><time>2026-04-12T05:07:26.999Z</time></trkpt><trkpt lat="-31.253106881587165" lon="115.4933146139402"><ele>23.599999999999998</ele><time>2026-04-12T05:07:27.999Z</time></trkpt><trkpt lat="-31.253123817778924" lon="115.49342052153598"><ele>23.799999999999997</ele><time>2026-04-12T05:07:28.999Z</time></trkpt><trkpt lat="-31.25314872701614" lon="115.49352188605195"><ele>24.0</ele><time>2026-04-12T05:07:29.999Z</time></trkpt><trkpt lat="-31.253168637505905" lon="115.49362547276505"><ele>23.833333333333332</ele><time>2026-04-12T05:07:30.999Z</time></trkpt><trkpt lat="-31.25317583242056" lon="115.49372896163379"><ele>23.666666666666668</ele><time>2026-04-12T05:07:31.999Z</time></trkpt><trkpt lat="-31.253170033938744" lon="115.49383307212756"><ele>23.5</ele><time>2026-04-12T05:07:32.999Z</time></trkpt><trkpt lat="-31.253150641954974" lon="115.4939379850784"><ele>23.333333333333336</ele><time>2026-04-12T05:07:33.999Z</time></trkpt><trkpt lat="-31.253115164697313" lon="115.49402855587061"><ele>23.166666666666668</ele><time>2026-04-12T05:07:34.999Z</time></trkpt><trkpt lat="-31.253072273990888" lon="115.49410608277665"><ele>23.0</ele><time>2026-04-12T05:07:35.999Z</time></trkpt><trkpt lat="-31.253023817829018" lon="115.49416358079057"><ele>23.333333333333336</ele><time>2026-04-12T05:07:36.999Z</time></trkpt><trkpt lat="-31.252924777927745" lon="115.49419102608246"><ele>23.666666666666668</ele><time>2026-04-12T05:07:38.999Z</time></trkpt><trkpt lat="-31.252804866347876" lon="115.49422293640468"><ele>24.0</ele><time>2026-04-12T05:07:40.999Z</time></trkpt><trkpt lat="-31.252748908456095" lon="115.49426714295153"><ele>24.333333333333336</ele><time>2026-04-12T05:07:41.999Z</time></trkpt><trkpt lat="-31.25269857349815" lon="115.4943327890552"><ele>24.666666666666668</ele><time>2026-04-12T05:07:43Z</time></trkpt><trkpt lat="-31.252664941065785" lon="115.49439949198862"><ele>25.0</ele><time>2026-04-12T05:07:44Z</time></trkpt><trkpt lat="-31.25264403174322" lon="115.49447390783533"><ele>25.000000000000004</ele><time>2026-04-12T05:07:45Z</time></trkpt><trkpt lat="-31.25261200387721" lon="115.49454870085275"><ele>25.0</ele><time>2026-04-12T05:07:46Z</time></trkpt><trkpt lat="-31.25257235272781" lon="115.49461529410914"><ele>25.0</ele><time>2026-04-12T05:07:47Z</time></trkpt><trkpt lat="-31.25251910748574" lon="115.49469059288438"><ele>25.0</ele><time>2026-04-12T05:07:48Z</time></trkpt><trkpt lat="-31.252463145971756" lon="115.49476390743204"><ele>25.000000000000004</ele><time>2026-04-12T05:07:49Z</time></trkpt><trkpt lat="-31.252420044855576" lon="115.494842332203"><ele>25.0</ele><time>2026-04-12T05:07:50Z</time></trkpt><trkpt lat="-31.25239398358736" lon="115.49491548508207"><ele>25.166666666666668</ele><time>2026-04-12T05:07:51Z</time></trkpt><trkpt lat="-31.252358601198356" lon="115.49499606927648"><ele>25.333333333333336</ele><time>2026-04-12T05:07:52Z</time></trkpt><trkpt lat="-31.252311279169696" lon="115.4950739446341"><ele>25.5</ele><time>2026-04-12T05:07:53Z</time></trkpt><trkpt lat="-31.252256854131204" lon="115.49514987760796"><ele>25.666666666666664</ele><time>2026-04-12T05:07:54Z</time></trkpt><trkpt lat="-31.252200483382826" lon="115.49523199847903"><ele>25.833333333333332</ele><time>2026-04-12T05:07:55Z</time></trkpt><trkpt lat="-31.252152691895482" lon="115.49531547229667"><ele>26.0</ele><time>2026-04-12T05:07:56Z</time></trkpt><trkpt lat="-31.252102589939593" lon="115.49539851227284"><ele>26.833333333333332</ele><time>2026-04-12T05:07:57Z</time></trkpt><trkpt lat="-31.252060372797672" lon="115.49547505310663"><ele>27.666666666666664</ele><time>2026-04-12T05:07:58Z</time></trkpt><trkpt lat="-31.252020062665853" lon="115.49554783052898"><ele>28.5</ele><time>2026-04-12T05:07:59Z</time></trkpt><trkpt lat="-31.251961066856204" lon="115.49568555964936"><ele>29.333333333333336</ele><time>2026-04-12T05:08:01Z</time></trkpt><trkpt lat="-31.251913353072464" lon="115.49576154942817"><ele>30.166666666666668</ele><time>2026-04-12T05:08:02Z</time></trkpt><trkpt lat="-31.251859756963032" lon="115.49582898787088"><ele>31.0</ele><time>2026-04-12T05:08:03Z</time></trkpt><trkpt lat="-31.251797076749973" lon="115.49591839981126"><ele>31.0</ele><time>2026-04-12T05:08:04Z</time></trkpt><trkpt lat="-31.251735869419697" lon="115.49602348095563"><ele>31.0</ele><time>2026-04-12T05:08:05Z</time></trkpt><trkpt lat="-31.251668963379622" lon="115.496127538232"><ele>31.0</ele><time>2026-04-12T05:08:06Z</time></trkpt><trkpt lat="-31.251610430956358" lon="115.49622171095906"><ele>31.0</ele><time>2026-04-12T05:08:07Z</time></trkpt><trkpt lat="-31.25156351468847" lon="115.49631249056287"><ele>31.0</ele><time>2026-04-12T05:08:08Z</time></trkpt><trkpt lat="-31.251524257089788" lon="115.49640060556281"><ele>31.500000000000004</ele><time>2026-04-12T05:08:09Z</time></trkpt><trkpt lat="-31.25149615115303" lon="115.49649143552311"><ele>32.0</ele><time>2026-04-12T05:08:10Z</time></trkpt><trkpt lat="-31.25146640166612" lon="115.49657218706827"><ele>32.5</ele><time>2026-04-12T05:08:11Z</time></trkpt><trkpt lat="-31.25143417577103" lon="115.49665587417812"><ele>33.0</ele><time>2026-04-12T05:08:12Z</time></trkpt><trkpt lat="-31.251405001899794" lon="115.49674485496263"><ele>33.5</ele><time>2026-04-12T05:08:13Z</time></trkpt><trkpt lat="-31.25137925993112" lon="115.49683844772527"><ele>34.0</ele><time>2026-04-12T05:08:14Z</time></trkpt><trkpt lat="-31.251361019562285" lon="115.49692814123763"><ele>34.0</ele><time>2026-04-12T05:08:15Z</time></trkpt><trkpt lat="-31.25134569964031" lon="115.4970117055662"><ele>34.0</ele><time>2026-04-12T05:08:16Z</time></trkpt><trkpt lat="-31.25133188382222" lon="115.49710715611269"><ele>34.0</ele><time>2026-04-12T05:08:17Z</time></trkpt><trkpt lat="-31.251312686092277" lon="115.4972190333291"><ele>34.0</ele><time>2026-04-12T05:08:18Z</time></trkpt><trkpt lat="-31.251288766795582" lon="115.49733297203777"><ele>34.0</ele><time>2026-04-12T05:08:19Z</time></trkpt><trkpt lat="-31.251259276504086" lon="115.49746478298161"><ele>35.0</ele><time>2026-04-12T05:08:20Z</time></trkpt><trkpt lat="-31.251222654993686" lon="115.49759283123689"><ele>36.0</ele><time>2026-04-12T05:08:21Z</time></trkpt><trkpt lat="-31.251179563750686" lon="115.49771531196956"><ele>37.0</ele><time>2026-04-12T05:08:22Z</time></trkpt><trkpt lat="-31.25113675634153" lon="115.49784030738616"><ele>38.0</ele><time>2026-04-12T05:08:23Z</time></trkpt><trkpt lat="-31.251097819870736" lon="115.49797115008741"><ele>39.599999999999994</ele><time>2026-04-12T05:08:24Z</time></trkpt><trkpt lat="-31.251059922339437" lon="115.49809511439999"><ele>41.199999999999996</ele><time>2026-04-12T05:08:25Z</time></trkpt><trkpt lat="-31.25102615913715" lon="115.49821456011512"><ele>42.8</ele><time>2026-04-12T05:08:26Z</time></trkpt><trkpt lat="-31.251008336620213" lon="115.49832905236913"><ele>44.4</ele><time>2026-04-12T05:08:27Z</time></trkpt><trkpt lat="-31.25098970886347" lon="115.49845195939743"><ele>46.0</ele><time>2026-04-12T05:08:28Z</time></trkpt><trkpt lat="-31.25096807690687" lon="115.49858177474738"><ele>46.0</ele><time>2026-04-12T05:08:29Z</time></trkpt><trkpt lat="-31.250941749962557" lon="115.49871218322701"><ele>46.0</ele><time>2026-04-12T05:08:30Z</time></trkpt><trkpt lat="-31.250917093203192" lon="115.49883445830208"><ele>46.0</ele><time>2026-04-12T05:08:31Z</time></trkpt><trkpt lat="-31.250889202992617" lon="115.49894902139695"><ele>46.0</ele><time>2026-04-12T05:08:32Z</time></trkpt><trkpt lat="-31.250857253199978" lon="115.49905177204212"><ele>46.0</ele><time>2026-04-12T05:08:33Z</time></trkpt><trkpt lat="-31.250808995304688" lon="115.4991427374844"><ele>46.0</ele><time>2026-04-12T05:08:34Z</time></trkpt><trkpt lat="-31.250757621307795" lon="115.49922706000326"><ele>46.0</ele><time>2026-04-12T05:08:35Z</time></trkpt><trkpt lat="-31.25070748439052" lon="115.49930615904495"><ele>46.0</ele><time>2026-04-12T05:08:36Z</time></trkpt><trkpt lat="-31.25066008816991" lon="115.49936703296147"><ele>46.0</ele><time>2026-04-12T05:08:37Z</time></trkpt><trkpt lat="-31.25060908974318" lon="115.49941639582565"><ele>46.0</ele><time>2026-04-12T05:08:38Z</time></trkpt><trkpt lat="-31.25055527126779" lon="115.49946717008588"><ele>46.0</ele><time>2026-04-12T05:08:40Z</time></trkpt><trkpt lat="-31.250500980284166" lon="115.4995523015662"><ele>46.8</ele><time>2026-04-12T05:08:52Z</time></trkpt><trkpt lat="-31.250428361213512" lon="115.49965192102574"><ele>47.599999999999994</ele><time>2026-04-12T05:08:54Z</time></trkpt><trkpt lat="-31.250350510727465" lon="115.49977452576174"><ele>48.4</ele><time>2026-04-12T05:08:56Z</time></trkpt><trkpt lat="-31.250309627708027" lon="115.49984720186828"><ele>49.2</ele><time>2026-04-12T05:08:57Z</time></trkpt><trkpt lat="-31.250273250954315" lon="115.49991301585771"><ele>50.0</ele><time>2026-04-12T05:08:58Z</time></trkpt><trkpt lat="-31.250180701539012" lon="115.50001558339214"><ele>50.00000000000001</ele><time>2026-04-12T05:09:00Z</time></trkpt><trkpt lat="-31.250120834460752" lon="115.5000669104463"><ele>50.0</ele><time>2026-04-12T05:09:01Z</time></trkpt><trkpt lat="-31.25005223629843" lon="115.50011625301305"><ele>50.0</ele><time>2026-04-12T05:09:02Z</time></trkpt><trkpt lat="-31.249985863929577" lon="115.5001789224495"><ele>50.0</ele><time>2026-04-12T05:09:03Z</time></trkpt><trkpt lat="-31.249930085650835" lon="115.50025338006323"><ele>50.00000000000001</ele><time>2026-04-12T05:09:04Z</time></trkpt><trkpt lat="-31.249883585941202" lon="115.50034134234701"><ele>50.0</ele><time>2026-04-12T05:09:05Z</time></trkpt><trkpt lat="-31.249850669109072" lon="115.500431183614"><ele>50.66666666666667</ele><time>2026-04-12T05:09:06Z</time></trkpt><trkpt lat="-31.249827365031585" lon="115.50052609943342"><ele>51.333333333333336</ele><time>2026-04-12T05:09:07Z</time></trkpt><trkpt lat="-31.249814221990395" lon="115.50061795573224"><ele>52.0</ele><time>2026-04-12T05:09:08Z</time></trkpt><trkpt lat="-31.249813216008924" lon="115.50071147401356"><ele>52.66666666666667</ele><time>2026-04-12T05:09:09Z</time></trkpt><trkpt lat="-31.24982781216556" lon="115.50081838007839"><ele>53.333333333333336</ele><time>2026-04-12T05:09:10Z</time></trkpt><trkpt lat="-31.249851171033225" lon="115.50094728758101"><ele>54.0</ele><time>2026-04-12T05:09:11Z</time></trkpt><trkpt lat="-31.249880362042514" lon="115.50106760968345"><ele>54.0</ele><time>2026-04-12T05:09:12Z</time></trkpt><trkpt lat="-31.249914386368644" lon="115.50117337692906"><ele>54.00000000000001</ele><time>2026-04-12T05:09:13Z</time></trkpt><trkpt lat="-31.249961144452136" lon="115.5012646005492"><ele>54.00000000000001</ele><time>2026-04-12T05:09:14Z</time></trkpt><trkpt lat="-31.25000024034877" lon="115.50135705511457"><ele>54.0</ele><time>2026-04-12T05:09:15Z</time></trkpt><trkpt lat="-31.250010309038338" lon="115.5014661457821"><ele>54.0</ele><time>2026-04-12T05:09:16Z</time></trkpt><trkpt lat="-31.250013310561474" lon="115.5015830078396"><ele>54.6</ele><time>2026-04-12T05:09:16.999Z</time></trkpt><trkpt lat="-31.25003657843987" lon="115.50169844388164"><ele>55.2</ele><time>2026-04-12T05:09:17.999Z</time></trkpt><trkpt lat="-31.25007808860342" lon="115.50179497940509"><ele>55.800000000000004</ele><time>2026-04-12T05:09:18.999Z</time></trkpt><trkpt lat="-31.250132655515078" lon="115.50189510639885"><ele>56.400000000000006</ele><time>2026-04-12T05:09:19.999Z</time></trkpt><trkpt lat="-31.250176143399404" lon="115.50198173118585"><ele>57.0</ele><time>2026-04-12T05:09:20.999Z</time></trkpt><trkpt lat="-31.250183788828274" lon="115.50207523487603"><ele>58.0</ele><time>2026-04-12T05:09:21.999Z</time></trkpt><trkpt lat="-31.250170669443893" lon="115.50218214221316"><ele>59.0</ele><time>2026-04-12T05:09:22.999Z</time></trkpt><trkpt lat="-31.250162128472024" lon="115.5022925998902"><ele>60.0</ele><time>2026-04-12T05:09:23.999Z</time></trkpt><trkpt lat="-31.25014018436934" lon="115.50238105322337"><ele>61.0</ele><time>2026-04-12T05:09:24.999Z</time></trkpt><trkpt lat="-31.250126564656988" lon="115.50246393931604"><ele>62.0</ele><time>2026-04-12T05:09:25.999Z</time></trkpt><trkpt lat="-31.250148324124527" lon="115.50254584111158"><ele>63.0</ele><time>2026-04-12T05:09:26.999Z</time></trkpt><trkpt lat="-31.250183784218912" lon="115.50263740602988"><ele>63.0</ele><time>2026-04-12T05:09:27.999Z</time></trkpt><trkpt lat="-31.250202397623937" lon="115.50273323079485"><ele>63.0</ele><time>2026-04-12T05:09:28.999Z</time></trkpt><trkpt lat="-31.25022398388279" lon="115.50283351615079"><ele>63.0</ele><time>2026-04-12T05:09:29.999Z</time></trkpt><trkpt lat="-31.250253859269648" lon="115.50293911479307"><ele>63.0</ele><time>2026-04-12T05:09:30.999Z</time></trkpt><trkpt lat="-31.250291647646943" lon="115.50304753298715"><ele>63.0</ele><time>2026-04-12T05:09:31.999Z</time></trkpt><trkpt lat="-31.250314991941842" lon="115.50315400879757"><ele>63.0</ele><time>2026-04-12T05:09:32.999Z</time></trkpt><trkpt lat="-31.250315589108528" lon="115.50327022982779"><ele>63.0</ele><time>2026-04-12T05:09:33.999Z</time></trkpt><trkpt lat="-31.25029371122919" lon="115.50338059390583"><ele>63.0</ele><time>2026-04-12T05:09:34.999Z</time></trkpt><trkpt lat="-31.250258353553523" lon="115.50348013649993"><ele>63.0</ele><time>2026-04-12T05:09:35.999Z</time></trkpt><trkpt lat="-31.250204474781054" lon="115.50357153441381"><ele>63.0</ele><time>2026-04-12T05:09:36.999Z</time></trkpt><trkpt lat="-31.250126318343586" lon="115.50364155689391"><ele>63.0</ele><time>2026-04-12T05:09:37.999Z</time></trkpt><trkpt lat="-31.250048149880634" lon="115.50371358765162"><ele>63.0</ele><time>2026-04-12T05:09:38.999Z</time></trkpt><trkpt lat="-31.249995074135963" lon="115.50381138939248"><ele>63.0</ele><time>2026-04-12T05:09:39.999Z</time></trkpt><trkpt lat="-31.249946116023573" lon="115.50392403168009"><ele>63.0</ele><time>2026-04-12T05:09:40.999Z</time></trkpt><trkpt lat="-31.249888878949083" lon="115.50402111822471"><ele>63.0</ele><time>2026-04-12T05:09:41.999Z</time></trkpt><trkpt lat="-31.249831277562677" lon="115.50410581706413"><ele>63.166666666666664</ele><time>2026-04-12T05:09:42.999Z</time></trkpt><trkpt lat="-31.24978075183539" lon="115.50418879287633"><ele>63.33333333333333</ele><time>2026-04-12T05:09:43.999Z</time></trkpt><trkpt lat="-31.249749016516617" lon="115.50425895950397"><ele>63.5</ele><time>2026-04-12T05:09:44.999Z</time></trkpt><trkpt lat="-31.249736780461436" lon="115.50438867379157"><ele>63.666666666666664</ele><time>2026-04-12T05:09:46.999Z</time></trkpt><trkpt lat="-31.24971379463269" lon="115.50447047435635"><ele>63.83333333333333</ele><time>2026-04-12T05:09:48.999Z</time></trkpt><trkpt lat="-31.249689453227923" lon="115.50456146247328"><ele>64.0</ele><time>2026-04-12T05:11:19Z</time></trkpt><trkpt lat="-31.24966437426923" lon="115.50466920963542"><ele>64.4</ele><time>2026-04-12T05:11:21Z</time></trkpt><trkpt lat="-31.249646382412372" lon="115.50475825346098"><ele>64.80000000000001</ele><time>2026-04-12T05:11:22.999Z</time></trkpt><trkpt lat="-31.249630293722763" lon="115.50487843564429"><ele>65.19999999999999</ele><time>2026-04-12T05:11:24.999Z</time></trkpt><trkpt lat="-31.24960407813795" lon="115.50494671199893"><ele>65.6</ele><time>2026-04-12T05:11:28.999Z</time></trkpt><trkpt lat="-31.249581120338938" lon="115.50503590804729"><ele>66.0</ele><time>2026-04-12T05:11:35.999Z</time></trkpt><trkpt lat="-31.249536446552046" lon="115.5051848614885"><ele>66.0</ele><time>2026-04-12T05:11:37.999Z</time></trkpt><trkpt lat="-31.24951202362352" lon="115.50527045120948"><ele>66.0</ele><time>2026-04-12T05:11:38.999Z</time></trkpt><trkpt lat="-31.249481595320155" lon="115.5053559484548"><ele>66.0</ele><time>2026-04-12T05:11:39.999Z</time></trkpt><trkpt lat="-31.249447690589356" lon="115.50544656507373"><ele>66.0</ele><time>2026-04-12T05:11:40.999Z</time></trkpt><trkpt lat="-31.249416376051563" lon="115.5055501600303"><ele>66.0</ele><time>2026-04-12T05:11:42Z</time></trkpt><trkpt lat="-31.249382180163614" lon="115.50565642444481"><ele>66.0</ele><time>2026-04-12T05:11:43Z</time></trkpt><trkpt lat="-31.24934302660751" lon="115.50576249261087"><ele>65.39999999999999</ele><time>2026-04-12T05:11:44Z</time></trkpt><trkpt lat="-31.249308341662697" lon="115.50587535720892"><ele>64.8</ele><time>2026-04-12T05:11:45Z</time></trkpt><trkpt lat="-31.249277042215457" lon="115.50599204709172"><ele>64.19999999999999</ele><time>2026-04-12T05:11:46Z</time></trkpt><trkpt lat="-31.249243404830466" lon="115.50610452005704"><ele>63.599999999999994</ele><time>2026-04-12T05:11:47Z</time></trkpt><trkpt lat="-31.249205763717253" lon="115.5062137353001"><ele>63.0</ele><time>2026-04-12T05:11:48Z</time></trkpt><trkpt lat="-31.249164237509937" lon="115.5063253630529"><ele>62.8</ele><time>2026-04-12T05:11:49Z</time></trkpt><trkpt lat="-31.24912425819879" lon="115.50643380908859"><ele>62.599999999999994</ele><time>2026-04-12T05:11:50Z</time></trkpt><trkpt lat="-31.249084333862697" lon="115.50654077732489"><ele>62.400000000000006</ele><time>2026-04-12T05:11:51Z</time></trkpt><trkpt lat="-31.249046422494665" lon="115.5066445048508"><ele>62.2</ele><time>2026-04-12T05:11:52Z</time></trkpt><trkpt lat="-31.249012719150997" lon="115.50675324832784"><ele>62.0</ele><time>2026-04-12T05:11:53Z</time></trkpt><trkpt lat="-31.24898015876371" lon="115.50686758144282"><ele>62.400000000000006</ele><time>2026-04-12T05:11:54Z</time></trkpt><trkpt lat="-31.24894766410042" lon="115.50698947896069"><ele>62.800000000000004</ele><time>2026-04-12T05:11:55Z</time></trkpt><trkpt lat="-31.248911708495644" lon="115.50710634086904"><ele>63.2</ele><time>2026-04-12T05:11:56Z</time></trkpt><trkpt lat="-31.24887506503426" lon="115.5072243617912"><ele>63.6</ele><time>2026-04-12T05:11:57Z</time></trkpt><trkpt lat="-31.24884105005055" lon="115.507347290528"><ele>64.0</ele><time>2026-04-12T05:11:58Z</time></trkpt><trkpt lat="-31.248806275106666" lon="115.50746594763707"><ele>64.8</ele><time>2026-04-12T05:11:59Z</time></trkpt><trkpt lat="-31.24876916238923" lon="115.50758032193886"><ele>65.60000000000001</ele><time>2026-04-12T05:12:00Z</time></trkpt><trkpt lat="-31.24872703161542" lon="115.50769089228858"><ele>66.4</ele><time>2026-04-12T05:12:01Z</time></trkpt><trkpt lat="-31.248687737774677" lon="115.5078000316586"><ele>67.2</ele><time>2026-04-12T05:12:02Z</time></trkpt><trkpt lat="-31.248647051977446" lon="115.50791552465591"><ele>68.0</ele><time>2026-04-12T05:12:03Z</time></trkpt><trkpt lat="-31.24860743619075" lon="115.50803645397409"><ele>69.75</ele><time>2026-04-12T05:12:04Z</time></trkpt><trkpt lat="-31.248576029296697" lon="115.50817091887647"><ele>71.5</ele><time>2026-04-12T05:12:05Z</time></trkpt><trkpt lat="-31.248541888882055" lon="115.5083126724962"><ele>73.25</ele><time>2026-04-12T05:12:06Z</time></trkpt><trkpt lat="-31.24850032040675" lon="115.50844739367861"><ele>75.0</ele><time>2026-04-12T05:12:07Z</time></trkpt><trkpt lat="-31.248460474618103" lon="115.50858245485391"><ele>75.0</ele><time>2026-04-12T05:12:08Z</time></trkpt><trkpt lat="-31.24842953249031" lon="115.50871537424429"><ele>75.0</ele><time>2026-04-12T05:12:09Z</time></trkpt><trkpt lat="-31.248405425705215" lon="115.50884454547197"><ele>75.0</ele><time>2026-04-12T05:12:10Z</time></trkpt><trkpt lat="-31.248382690117918" lon="115.50895583030693"><ele>75.0</ele><time>2026-04-12T05:12:11Z</time></trkpt><trkpt lat="-31.248358204295023" lon="115.50905683186369"><ele>75.0</ele><time>2026-04-12T05:12:12Z</time></trkpt><trkpt lat="-31.248342746078155" lon="115.50916358379774"><ele>74.8</ele><time>2026-04-12T05:12:13Z</time></trkpt><trkpt lat="-31.248336907160212" lon="115.50927715364584"><ele>74.6</ele><time>2026-04-12T05:12:14Z</time></trkpt><trkpt lat="-31.248330696571184" lon="115.50939126410387"><ele>74.4</ele><time>2026-04-12T05:12:15Z</time></trkpt><trkpt lat="-31.248315716872465" lon="115.50950821870886"><ele>74.2</ele><time>2026-04-12T05:12:16Z</time></trkpt><trkpt lat="-31.24829060618177" lon="115.50962764854283"><ele>74.0</ele><time>2026-04-12T05:12:17Z</time></trkpt><trkpt lat="-31.24826565851379" lon="115.50974679642016"><ele>73.8</ele><time>2026-04-12T05:12:18Z</time></trkpt><trkpt lat="-31.24824428447054" lon="115.50986167414052"><ele>73.60000000000001</ele><time>2026-04-12T05:12:19Z</time></trkpt><trkpt lat="-31.248224322207786" lon="115.50996836600604"><ele>73.4</ele><time>2026-04-12T05:12:20Z</time></trkpt><trkpt lat="-31.248203837512236" lon="115.51007147968807"><ele>73.2</ele><time>2026-04-12T05:12:21Z</time></trkpt><trkpt lat="-31.248186145055122" lon="115.51017529851559"><ele>73.0</ele><time>2026-04-12T05:12:22Z</time></trkpt><trkpt lat="-31.248172624358336" lon="115.51028241433565"><ele>73.0</ele><time>2026-04-12T05:12:23Z</time></trkpt><trkpt lat="-31.24815413879029" lon="115.51039534464567"><ele>73.0</ele><time>2026-04-12T05:12:24Z</time></trkpt><trkpt lat="-31.24812877791558" lon="115.51050031016248"><ele>73.0</ele><time>2026-04-12T05:12:25Z</time></trkpt><trkpt lat="-31.24809820189452" lon="115.5105993986379"><ele>73.0</ele><time>2026-04-12T05:12:26Z</time></trkpt><trkpt lat="-31.24807498667436" lon="115.51070239354397"><ele>73.0</ele><time>2026-04-12T05:12:27Z</time></trkpt><trkpt lat="-31.24805015931266" lon="115.51080464719126"><ele>72.0</ele><time>2026-04-12T05:12:28Z</time></trkpt><trkpt lat="-31.248024174005096" lon="115.51089967784624"><ele>71.0</ele><time>2026-04-12T05:12:29Z</time></trkpt><trkpt lat="-31.247996474016645" lon="115.51099556305819"><ele>70.0</ele><time>2026-04-12T05:12:30Z</time></trkpt><trkpt lat="-31.247965946274054" lon="115.51109959620496"><ele>69.0</ele><time>2026-04-12T05:12:31Z</time></trkpt><trkpt lat="-31.24793989022457" lon="115.51120256866442"><ele>68.0</ele><time>2026-04-12T05:12:32Z</time></trkpt><trkpt lat="-31.247916040700044" lon="115.5113064531142"><ele>67.0</ele><time>2026-04-12T05:12:33Z</time></trkpt><trkpt lat="-31.247889485236048" lon="115.51141187058259"><ele>66.0</ele><time>2026-04-12T05:12:34Z</time></trkpt><trkpt lat="-31.24786455706515" lon="115.51151816314993"><ele>65.0</ele><time>2026-04-12T05:12:35Z</time></trkpt><trkpt lat="-31.247841950379968" lon="115.51162097830714"><ele>64.0</ele><time>2026-04-12T05:12:36Z</time></trkpt><trkpt lat="-31.24781684100161" lon="115.51172241385437"><ele>63.0</ele><time>2026-04-12T05:12:37Z</time></trkpt><trkpt lat="-31.247790614396735" lon="115.51181900673238"><ele>63.0</ele><time>2026-04-12T05:12:38Z</time></trkpt><trkpt lat="-31.247758538040028" lon="115.51191565789914"><ele>63.0</ele><time>2026-04-12T05:12:39Z</time></trkpt><trkpt lat="-31.247726555131756" lon="115.51201364469766"><ele>63.0</ele><time>2026-04-12T05:12:40Z</time></trkpt><trkpt lat="-31.247708045984705" lon="115.51211314374291"><ele>63.0</ele><time>2026-04-12T05:12:41Z</time></trkpt><trkpt lat="-31.24768484585561" lon="115.51222065393004"><ele>63.0</ele><time>2026-04-12T05:12:42Z</time></trkpt><trkpt lat="-31.247655238694215" lon="115.51233193239118"><ele>62.25</ele><time>2026-04-12T05:12:43Z</time></trkpt><trkpt lat="-31.247630240308787" lon="115.51244743782584"><ele>61.5</ele><time>2026-04-12T05:12:44Z</time></trkpt><trkpt lat="-31.247611547432317" lon="115.51257782305993"><ele>60.75</ele><time>2026-04-12T05:12:45Z</time></trkpt><trkpt lat="-31.247580640945312" lon="115.51271423179115"><ele>60.0</ele><time>2026-04-12T05:12:46Z</time></trkpt><trkpt lat="-31.247546913870686" lon="115.51285317486045"><ele>60.2</ele><time>2026-04-12T05:12:47Z</time></trkpt><trkpt lat="-31.247515268461505" lon="115.5129801401388"><ele>60.4</ele><time>2026-04-12T05:12:48Z</time></trkpt><trkpt lat="-31.24748457000698" lon="115.51310463707021"><ele>60.599999999999994</ele><time>2026-04-12T05:12:49Z</time></trkpt><trkpt lat="-31.24745338309633" lon="115.51322826716749"><ele>60.8</ele><time>2026-04-12T05:12:50Z</time></trkpt><trkpt lat="-31.24742175852275" lon="115.51335544520597"><ele>61.0</ele><time>2026-04-12T05:12:51Z</time></trkpt><trkpt lat="-31.24739092811712" lon="115.51348325107614"><ele>61.0</ele><time>2026-04-12T05:12:52Z</time></trkpt><trkpt lat="-31.247361538313637" lon="115.51361042342398"><ele>60.99999999999999</ele><time>2026-04-12T05:12:53Z</time></trkpt><trkpt lat="-31.247334748458684" lon="115.51373141142102"><ele>60.99999999999999</ele><time>2026-04-12T05:12:54Z</time></trkpt><trkpt lat="-31.247300845797756" lon="115.51385921718915"><ele>61.0</ele><time>2026-04-12T05:12:55Z</time></trkpt><trkpt lat="-31.247263725726736" lon="115.51397808888095"><ele>61.0</ele><time>2026-04-12T05:12:56Z</time></trkpt><trkpt lat="-31.24722521220399" lon="115.5140838013605"><ele>60.8</ele><time>2026-04-12T05:12:57Z</time></trkpt><trkpt lat="-31.247189679347844" lon="115.51418397831752"><ele>60.599999999999994</ele><time>2026-04-12T05:12:58Z</time></trkpt><trkpt lat="-31.247170830768276" lon="115.5142859113492"><ele>60.4</ele><time>2026-04-12T05:12:59Z</time></trkpt><trkpt lat="-31.247158679006212" lon="115.51440548126088"><ele>60.2</ele><time>2026-04-12T05:13:00Z</time></trkpt><trkpt lat="-31.24713863704219" lon="115.51454101872"><ele>60.0</ele><time>2026-04-12T05:13:01Z</time></trkpt><trkpt lat="-31.24711159763361" lon="115.514678479149"><ele>60.0</ele><time>2026-04-12T05:13:02Z</time></trkpt><trkpt lat="-31.247078945310374" lon="115.51482003197691"><ele>60.0</ele><time>2026-04-12T05:13:03Z</time></trkpt><trkpt lat="-31.24704711630291" lon="115.51495570641113"><ele>60.0</ele><time>2026-04-12T05:13:04Z</time></trkpt><trkpt lat="-31.247010748539484" lon="115.51508137663672"><ele>60.0</ele><time>2026-04-12T05:13:05Z</time></trkpt><trkpt lat="-31.246978230374033" lon="115.5151964460145"><ele>60.0</ele><time>2026-04-12T05:13:06Z</time></trkpt><trkpt lat="-31.24695170451196" lon="115.51530669626361"><ele>60.0</ele><time>2026-04-12T05:13:07Z</time></trkpt><trkpt lat="-31.246928462176374" lon="115.51542073741454"><ele>60.0</ele><time>2026-04-12T05:13:08Z</time></trkpt><trkpt lat="-31.24689625086616" lon="115.51553179879636"><ele>60.0</ele><time>2026-04-12T05:13:09Z</time></trkpt><trkpt lat="-31.246856330462265" lon="115.5156562241611"><ele>60.0</ele><time>2026-04-12T05:13:10Z</time></trkpt><trkpt lat="-31.2468261903565" lon="115.51579016083775"><ele>60.4</ele><time>2026-04-12T05:13:11Z</time></trkpt><trkpt lat="-31.246795322515773" lon="115.5159170316565"><ele>60.8</ele><time>2026-04-12T05:13:12Z</time></trkpt><trkpt lat="-31.246772037202902" lon="115.51604025119309"><ele>61.2</ele><time>2026-04-12T05:13:13Z</time></trkpt><trkpt lat="-31.246753865462587" lon="115.51616260320218"><ele>61.6</ele><time>2026-04-12T05:13:14Z</time></trkpt><trkpt lat="-31.246730681307042" lon="115.51628810537927"><ele>62.0</ele><time>2026-04-12T05:13:15Z</time></trkpt><trkpt lat="-31.2466891882872" lon="115.51640302638366"><ele>61.333333333333336</ele><time>2026-04-12T05:13:16Z</time></trkpt><trkpt lat="-31.24665363900753" lon="115.51650381013718"><ele>60.66666666666667</ele><time>2026-04-12T05:13:17Z</time></trkpt><trkpt lat="-31.246631140657076" lon="115.51657628681296"><ele>60.0</ele><time>2026-04-12T05:13:18Z</time></trkpt><trkpt lat="-31.246613054067044" lon="115.5166473310945"><ele>59.33333333333333</ele><time>2026-04-12T05:13:21Z</time></trkpt><trkpt lat="-31.246591139596184" lon="115.51674182208355"><ele>58.666666666666664</ele><time>2026-04-12T05:14:10Z</time></trkpt><trkpt lat="-31.246566448433796" lon="115.51681226078358"><ele>58.0</ele><time>2026-04-12T05:14:12Z</time></trkpt><trkpt lat="-31.246529898978665" lon="115.51691008732611"><ele>57.99999999999999</ele><time>2026-04-12T05:14:14Z</time></trkpt><trkpt lat="-31.246479533852465" lon="115.51701681679799"><ele>58.0</ele><time>2026-04-12T05:14:16Z</time></trkpt><trkpt lat="-31.246446461558993" lon="115.51708140568213"><ele>58.0</ele><time>2026-04-12T05:14:17Z</time></trkpt><trkpt lat="-31.246407100619034" lon="115.51715402139361"><ele>58.0</ele><time>2026-04-12T05:14:18Z</time></trkpt><trkpt lat="-31.246318749814996" lon="115.51723384431388"><ele>57.99999999999999</ele><time>2026-04-12T05:14:20Z</time></trkpt><trkpt lat="-31.246245105571806" lon="115.51722924237102"><ele>58.0</ele><time>2026-04-12T05:14:22Z</time></trkpt><trkpt lat="-31.246198349124597" lon="115.51717713607331"><ele>57.99999999999999</ele><time>2026-04-12T05:14:24Z</time></trkpt><trkpt lat="-31.246140328523914" lon="115.51711832050914"><ele>58.0</ele><time>2026-04-12T05:14:26Z</time></trkpt><trkpt lat="-31.246095006958182" lon="115.51705161550979"><ele>58.0</ele><time>2026-04-12T05:15:02Z</time></trkpt><trkpt lat="-31.246035433812224" lon="115.51698100046907"><ele>58.0</ele><time>2026-04-12T05:15:04Z</time></trkpt><trkpt lat="-31.245979912702854" lon="115.51691958577644"><ele>57.99999999999999</ele><time>2026-04-12T05:16:04Z</time></trkpt><trkpt lat="-31.245915495173346" lon="115.51686050556977"><ele>58.0</ele><time>2026-04-12T05:16:07Z</time></trkpt><trkpt lat="-31.245845389873118" lon="115.51680594381565"><ele>58.166666666666664</ele><time>2026-04-12T05:16:09Z</time></trkpt><trkpt lat="-31.245762544422263" lon="115.51675970450624"><ele>58.33333333333333</ele><time>2026-04-12T05:16:11Z</time></trkpt><trkpt lat="-31.24568749742515" lon="115.51669420876985"><ele>58.5</ele><time>2026-04-12T05:16:18Z</time></trkpt><trkpt lat="-31.245631263622098" lon="115.51664822676122"><ele>58.66666666666667</ele><time>2026-04-12T05:16:30Z</time></trkpt><trkpt lat="-31.24556926398249" lon="115.51659359769117"><ele>58.833333333333336</ele><time>2026-04-12T05:16:33Z</time></trkpt><trkpt lat="-31.245483379406732" lon="115.51651251152214"><ele>59.0</ele><time>2026-04-12T05:16:35Z</time></trkpt><trkpt lat="-31.245426884319205" lon="115.51645363302774"><ele>59.00000000000001</ele><time>2026-04-12T05:16:50Z</time></trkpt><trkpt lat="-31.245370515405682" lon="115.51639482578052"><ele>59.0</ele><time>2026-04-12T05:16:53Z</time></trkpt><trkpt lat="-31.245301757810545" lon="115.51633962788411"><ele>59.0</ele><time>2026-04-12T05:16:55Z</time></trkpt><trkpt lat="-31.24523223977355" lon="115.51627712803267"><ele>59.0</ele><time>2026-04-12T05:16:57Z</time></trkpt><trkpt lat="-31.245169561496315" lon="115.51623174085039"><ele>59.00000000000001</ele><time>2026-04-12T05:16:59Z</time></trkpt><trkpt lat="-31.245111726262866" lon="115.51617679784884"><ele>59.0</ele><time>2026-04-12T05:17:03Z</time></trkpt><trkpt lat="-31.245046636144153" lon="115.51610670052978"><ele>59.333333333333336</ele><time>2026-04-12T05:17:24Z</time></trkpt><trkpt lat="-31.244995636429604" lon="115.5160631483182"><ele>59.66666666666667</ele><time>2026-04-12T05:17:28Z</time></trkpt><trkpt lat="-31.24493377103502" lon="115.51600167797882"><ele>60.0</ele><time>2026-04-12T05:17:31Z</time></trkpt><trkpt lat="-31.244870432534206" lon="115.51594687499671"><ele>60.33333333333333</ele><time>2026-04-12T05:17:33Z</time></trkpt><trkpt lat="-31.244795625193856" lon="115.51588177684866"><ele>60.666666666666664</ele><time>2026-04-12T05:17:35Z</time></trkpt><trkpt lat="-31.244739776691322" lon="115.51581374743829"><ele>61.0</ele><time>2026-04-12T05:17:37.001Z</time></trkpt><trkpt lat="-31.244689938611863" lon="115.51575084883932"><ele>60.83333333333333</ele><time>2026-04-12T05:17:40.001Z</time></trkpt><trkpt lat="-31.244620039318967" lon="115.51567455321076"><ele>60.666666666666664</ele><time>2026-04-12T05:17:43Z</time></trkpt><trkpt lat="-31.244555151938002" lon="115.51562043320145"><ele>60.5</ele><time>2026-04-12T05:17:46Z</time></trkpt><trkpt lat="-31.244497692097138" lon="115.51556855176909"><ele>60.33333333333333</ele><time>2026-04-12T05:17:48Z</time></trkpt><trkpt lat="-31.24444185028616" lon="115.51551854605768"><ele>60.166666666666664</ele><time>2026-04-12T05:17:50Z</time></trkpt><trkpt lat="-31.244371048936653" lon="115.51545008670705"><ele>60.0</ele><time>2026-04-12T05:17:52Z</time></trkpt><trkpt lat="-31.244302581383714" lon="115.51537940842272"><ele>60.0</ele><time>2026-04-12T05:17:54Z</time></trkpt><trkpt lat="-31.24421433461435" lon="115.51531308781617"><ele>60.0</ele><time>2026-04-12T05:17:56Z</time></trkpt><trkpt lat="-31.244165916560547" lon="115.51526414348146"><ele>60.0</ele><time>2026-04-12T05:18:10Z</time></trkpt><trkpt lat="-31.24410573265838" lon="115.51521304088185"><ele>60.0</ele><time>2026-04-12T05:18:13Z</time></trkpt><trkpt lat="-31.244054216490177" lon="115.51515269832501"><ele>60.0</ele><time>2026-04-12T05:18:15Z</time></trkpt><trkpt lat="-31.24399229547958" lon="115.51510774252006"><ele>60.0</ele><time>2026-04-12T05:18:17Z</time></trkpt><trkpt lat="-31.243937049555726" lon="115.51505291240291"><ele>59.666666666666664</ele><time>2026-04-12T05:18:19Z</time></trkpt><trkpt lat="-31.24387030892624" lon="115.51499104440116"><ele>59.33333333333333</ele><time>2026-04-12T05:18:21Z</time></trkpt><trkpt lat="-31.243799510399406" lon="115.51493031816406"><ele>59.0</ele><time>2026-04-12T05:18:29.001Z</time></trkpt><trkpt lat="-31.243748497634108" lon="115.51488505323373"><ele>58.666666666666664</ele><time>2026-04-12T05:18:38.001Z</time></trkpt><trkpt lat="-31.243678717006564" lon="115.51482899404658"><ele>58.33333333333333</ele><time>2026-04-12T05:18:42.001Z</time></trkpt><trkpt lat="-31.24360641568627" lon="115.51477165161563"><ele>58.0</ele><time>2026-04-12T05:18:45.001Z</time></trkpt><trkpt lat="-31.24354204565196" lon="115.51470424275242"><ele>57.99999999999999</ele><time>2026-04-12T05:20:14.001Z</time></trkpt><trkpt lat="-31.24348021881842" lon="115.51464799157769"><ele>58.0</ele><time>2026-04-12T05:20:17.001Z</time></trkpt><trkpt lat="-31.243427128840132" lon="115.51459638215117"><ele>58.0</ele><time>2026-04-12T05:20:26.001Z</time></trkpt><trkpt lat="-31.24336871404707" lon="115.51454079614896"><ele>58.0</ele><time>2026-04-12T05:20:31.001Z</time></trkpt><trkpt lat="-31.24329526826102" lon="115.51447487953679"><ele>57.99999999999999</ele><time>2026-04-12T05:20:35.001Z</time></trkpt><trkpt lat="-31.243235940820544" lon="115.5144226728783"><ele>58.0</ele><time>2026-04-12T05:20:38.001Z</time></trkpt><trkpt lat="-31.243182880473558" lon="115.51437555152008"><ele>57.83333333333333</ele><time>2026-04-12T05:20:42.001Z</time></trkpt><trkpt lat="-31.24311701210879" lon="115.51431899374786"><ele>57.666666666666664</ele><time>2026-04-12T05:20:45.001Z</time></trkpt><trkpt lat="-31.243058285341505" lon="115.5142710318094"><ele>57.5</ele><time>2026-04-12T05:20:48.001Z</time></trkpt><trkpt lat="-31.243005510779827" lon="115.51422252338813"><ele>57.33333333333333</ele><time>2026-04-12T05:20:52.001Z</time></trkpt><trkpt lat="-31.2429300228554" lon="115.51415164479381"><ele>57.166666666666664</ele><time>2026-04-12T05:20:56.001Z</time></trkpt><trkpt lat="-31.24286815589632" lon="115.51409483846855"><ele>57.0</ele><time>2026-04-12T05:21:00.001Z</time></trkpt><trkpt lat="-31.242800518451755" lon="115.51403327832786"><ele>57.0</ele><time>2026-04-12T05:21:03.001Z</time></trkpt><trkpt lat="-31.2427303585597" lon="115.51397329593176"><ele>57.0</ele><time>2026-04-12T05:21:06.001Z</time></trkpt><trkpt lat="-31.242662205811737" lon="115.51391107362636"><ele>57.0</ele><time>2026-04-12T05:21:09.001Z</time></trkpt><trkpt lat="-31.24260605399617" lon="115.51385255757228"><ele>57.0</ele><time>2026-04-12T05:21:16.001Z</time></trkpt><trkpt lat="-31.242556269844385" lon="115.51380666847568"><ele>57.0</ele><time>2026-04-12T05:21:18.001Z</time></trkpt><trkpt lat="-31.242504561666678" lon="115.51376426911479"><ele>57.0</ele><time>2026-04-12T05:21:20.001Z</time></trkpt><trkpt lat="-31.24244411586835" lon="115.51370949807296"><ele>57.0</ele><time>2026-04-12T05:21:28.001Z</time></trkpt><trkpt lat="-31.242374050542967" lon="115.51363784924476"><ele>57.0</ele><time>2026-04-12T05:21:31.001Z</time></trkpt><trkpt lat="-31.24230931256756" lon="115.51358222479172"><ele>57.0</ele><time>2026-04-12T05:21:39.001Z</time></trkpt><trkpt lat="-31.242251388222318" lon="115.51354575255871"><ele>57.0</ele><time>2026-04-12T05:21:45.001Z</time></trkpt><trkpt lat="-31.242187363729347" lon="115.51350469888402"><ele>57.0</ele><time>2026-04-12T05:21:47.001Z</time></trkpt><trkpt lat="-31.242129678834875" lon="115.51346356773593"><ele>57.0</ele><time>2026-04-12T05:21:50.001Z</time></trkpt><trkpt lat="-31.242029573566217" lon="115.5134214110931"><ele>56.2</ele><time>2026-04-12T05:21:57.001Z</time></trkpt><trkpt lat="-31.24195253695039" lon="115.51337137426405"><ele>55.400000000000006</ele><time>2026-04-12T05:23:14.001Z</time></trkpt><trkpt lat="-31.24189572355865" lon="115.51328946131429"><ele>54.599999999999994</ele><time>2026-04-12T05:23:19.001Z</time></trkpt><trkpt lat="-31.241856864738242" lon="115.51320952389403"><ele>53.8</ele><time>2026-04-12T05:23:21.001Z</time></trkpt><trkpt lat="-31.24179521214536" lon="115.51313788313142"><ele>53.0</ele><time>2026-04-12T05:23:23.001Z</time></trkpt><trkpt lat="-31.241703937436654" lon="115.51303149114885"><ele>53.00000000000001</ele><time>2026-04-12T05:23:25.001Z</time></trkpt><trkpt lat="-31.241643568385207" lon="115.51297819588174"><ele>53.0</ele><time>2026-04-12T05:23:26.001Z</time></trkpt><trkpt lat="-31.24157019962267" lon="115.51291743105467"><ele>53.0</ele><time>2026-04-12T05:23:27.001Z</time></trkpt><trkpt lat="-31.241492218233105" lon="115.51284854900167"><ele>53.0</ele><time>2026-04-12T05:23:28.001Z</time></trkpt><trkpt lat="-31.241418325679327" lon="115.51278089838341"><ele>53.00000000000001</ele><time>2026-04-12T05:23:29.001Z</time></trkpt><trkpt lat="-31.241345301476773" lon="115.51271804480501"><ele>53.0</ele><time>2026-04-12T05:23:30.001Z</time></trkpt><trkpt lat="-31.24126975774082" lon="115.5126510910142"><ele>52.8</ele><time>2026-04-12T05:23:31.001Z</time></trkpt><trkpt lat="-31.241189770487544" lon="115.51257986453773"><ele>52.599999999999994</ele><time>2026-04-12T05:23:32.001Z</time></trkpt><trkpt lat="-31.24110572612152" lon="115.51250859839789"><ele>52.400000000000006</ele><time>2026-04-12T05:23:33.001Z</time></trkpt><trkpt lat="-31.24102282514972" lon="115.51243360879195"><ele>52.2</ele><time>2026-04-12T05:23:34.001Z</time></trkpt><trkpt lat="-31.240942883673036" lon="115.51236044706104"><ele>52.0</ele><time>2026-04-12T05:23:35.001Z</time></trkpt><trkpt lat="-31.240857600066093" lon="115.51228494265001"><ele>52.0</ele><time>2026-04-12T05:23:36.001Z</time></trkpt><trkpt lat="-31.240771667014844" lon="115.5122086549063"><ele>52.0</ele><time>2026-04-12T05:23:37.001Z</time></trkpt><trkpt lat="-31.240684273001797" lon="115.51212593683105"><ele>52.0</ele><time>2026-04-12T05:23:38.001Z</time></trkpt><trkpt lat="-31.24059323228068" lon="115.5120476650061"><ele>52.0</ele><time>2026-04-12T05:23:39.001Z</time></trkpt><trkpt lat="-31.240500744831806" lon="115.51196787637404"><ele>52.0</ele><time>2026-04-12T05:23:40.001Z</time></trkpt><trkpt lat="-31.240412357162967" lon="115.51188341703374"><ele>52.400000000000006</ele><time>2026-04-12T05:23:41.001Z</time></trkpt><trkpt lat="-31.24032814439689" lon="115.51180365953472"><ele>52.800000000000004</ele><time>2026-04-12T05:23:42.001Z</time></trkpt><trkpt lat="-31.240244829057794" lon="115.5117271295592"><ele>53.2</ele><time>2026-04-12T05:23:43.001Z</time></trkpt><trkpt lat="-31.24016495641097" lon="115.51165099837029"><ele>53.6</ele><time>2026-04-12T05:23:44.001Z</time></trkpt><trkpt lat="-31.240084638462502" lon="115.51158057206935"><ele>54.0</ele><time>2026-04-12T05:23:45.001Z</time></trkpt><trkpt lat="-31.24000839424323" lon="115.51151002850229"><ele>54.0</ele><time>2026-04-12T05:23:46.001Z</time></trkpt><trkpt lat="-31.239929081985345" lon="115.51144231255425"><ele>54.00000000000001</ele><time>2026-04-12T05:23:47.001Z</time></trkpt><trkpt lat="-31.239845769288134" lon="115.51137021671055"><ele>54.00000000000001</ele><time>2026-04-12T05:23:48.001Z</time></trkpt><trkpt lat="-31.23976558089016" lon="115.51129131672285"><ele>54.0</ele><time>2026-04-12T05:23:49.001Z</time></trkpt><trkpt lat="-31.23968002071133" lon="115.51121306057128"><ele>54.0</ele><time>2026-04-12T05:23:50.001Z</time></trkpt><trkpt lat="-31.23959516152672" lon="115.5111302311111"><ele>55.25</ele><time>2026-04-12T05:23:51.001Z</time></trkpt><trkpt lat="-31.239505816453864" lon="115.5110534025591"><ele>56.5</ele><time>2026-04-12T05:23:52.001Z</time></trkpt><trkpt lat="-31.23941372465889" lon="115.51096960002073"><ele>57.75</ele><time>2026-04-12T05:23:53.001Z</time></trkpt><trkpt lat="-31.23931361597014" lon="115.51087635643313"><ele>59.0</ele><time>2026-04-12T05:23:54.001Z</time></trkpt><trkpt lat="-31.23921434076905" lon="115.51078290569086"><ele>59.0</ele><time>2026-04-12T05:23:55.001Z</time></trkpt><trkpt lat="-31.23911227067859" lon="115.51069270793307"><ele>59.0</ele><time>2026-04-12T05:23:56.001Z</time></trkpt><trkpt lat="-31.23901701636068" lon="115.51060166957785"><ele>59.0</ele><time>2026-04-12T05:23:57.001Z</time></trkpt><trkpt lat="-31.238936541133228" lon="115.51052441666701"><ele>59.0</ele><time>2026-04-12T05:23:58.001Z</time></trkpt><trkpt lat="-31.238862320709202" lon="115.51045056909646"><ele>59.800000000000004</ele><time>2026-04-12T05:23:59Z</time></trkpt><trkpt lat="-31.23878764475972" lon="115.51038641284003"><ele>60.60000000000001</ele><time>2026-04-12T05:24:00Z</time></trkpt><trkpt lat="-31.238705627445068" lon="115.51031828524881"><ele>61.4</ele><time>2026-04-12T05:24:01Z</time></trkpt><trkpt lat="-31.238631316877413" lon="115.51024558518912"><ele>62.2</ele><time>2026-04-12T05:24:02Z</time></trkpt><trkpt lat="-31.2385633862454" lon="115.51017753220805"><ele>63.0</ele><time>2026-04-12T05:24:03Z</time></trkpt><trkpt lat="-31.23849518360839" lon="115.51011688256865"><ele>63.0</ele><time>2026-04-12T05:24:04Z</time></trkpt><trkpt lat="-31.238424292879476" lon="115.51006138465145"><ele>63.0</ele><time>2026-04-12T05:24:05Z</time></trkpt><trkpt lat="-31.238354689039415" lon="115.51000204279846"><ele>63.0</ele><time>2026-04-12T05:24:06Z</time></trkpt><trkpt lat="-31.238285585670763" lon="115.50993436238475"><ele>63.0</ele><time>2026-04-12T05:24:07Z</time></trkpt><trkpt lat="-31.238219151799335" lon="115.5098652334538"><ele>63.0</ele><time>2026-04-12T05:24:08Z</time></trkpt><trkpt lat="-31.23814722034373" lon="115.50979996035755"><ele>63.0</ele><time>2026-04-12T05:24:09Z</time></trkpt><trkpt lat="-31.238069078839846" lon="115.50974069368525"><ele>63.0</ele><time>2026-04-12T05:24:10Z</time></trkpt><trkpt lat="-31.237995556333143" lon="115.50968899780183"><ele>63.0</ele><time>2026-04-12T05:24:11Z</time></trkpt><trkpt lat="-31.237946300728016" lon="115.50964192404201"><ele>63.0</ele><time>2026-04-12T05:24:12Z</time></trkpt><trkpt lat="-31.23789496104951" lon="115.50959365121713"><ele>63.0</ele><time>2026-04-12T05:24:13Z</time></trkpt><trkpt lat="-31.237844704688232" lon="115.50954621275753"><ele>63.0</ele><time>2026-04-12T05:24:14Z</time></trkpt><trkpt lat="-31.237793548970682" lon="115.50948780797478"><ele>63.0</ele><time>2026-04-12T05:24:15Z</time></trkpt><trkpt lat="-31.237737533695103" lon="115.50942289842473"><ele>63.0</ele><time>2026-04-12T05:24:16Z</time></trkpt><trkpt lat="-31.237676130450165" lon="115.50934925272243"><ele>63.599999999999994</ele><time>2026-04-12T05:24:17Z</time></trkpt><trkpt lat="-31.237615045123107" lon="115.50927806400944"><ele>64.19999999999999</ele><time>2026-04-12T05:24:18Z</time></trkpt><trkpt lat="-31.237549139009367" lon="115.5092058681507"><ele>64.8</ele><time>2026-04-12T05:24:19Z</time></trkpt><trkpt lat="-31.23748012308056" lon="115.50913176497588"><ele>65.39999999999999</ele><time>2026-04-12T05:24:20Z</time></trkpt><trkpt lat="-31.237406641946688" lon="115.5090564174906"><ele>66.0</ele><time>2026-04-12T05:24:21Z</time></trkpt><trkpt lat="-31.237327365849936" lon="115.50897101260276"><ele>65.6</ele><time>2026-04-12T05:24:22Z</time></trkpt><trkpt lat="-31.23724915330593" lon="115.50888729048731"><ele>65.19999999999999</ele><time>2026-04-12T05:24:23Z</time></trkpt><trkpt lat="-31.237176158772876" lon="115.50881181518369"><ele>64.80000000000001</ele><time>2026-04-12T05:24:24Z</time></trkpt><trkpt lat="-31.23710913507384" lon="115.50874118583874"><ele>64.4</ele><time>2026-04-12T05:24:25Z</time></trkpt><trkpt lat="-31.237042830769433" lon="115.50866571465133"><ele>64.0</ele><time>2026-04-12T05:24:26Z</time></trkpt><trkpt lat="-31.236977954262816" lon="115.50859077795499"><ele>63.83333333333333</ele><time>2026-04-12T05:24:27Z</time></trkpt><trkpt lat="-31.236913171761387" lon="115.50851930531451"><ele>63.666666666666664</ele><time>2026-04-12T05:24:28Z</time></trkpt><trkpt lat="-31.23685018585841" lon="115.50846046668086"><ele>63.5</ele><time>2026-04-12T05:24:29Z</time></trkpt><trkpt lat="-31.236785276075132" lon="115.50839580693619"><ele>63.33333333333333</ele><time>2026-04-12T05:24:30Z</time></trkpt><trkpt lat="-31.236720158126317" lon="115.50833334142459"><ele>63.166666666666664</ele><time>2026-04-12T05:24:31.001Z</time></trkpt><trkpt lat="-31.23665051035671" lon="115.50826540925964"><ele>63.0</ele><time>2026-04-12T05:24:32.001Z</time></trkpt><trkpt lat="-31.23657800183596" lon="115.50819805013055"><ele>63.0</ele><time>2026-04-12T05:24:33.001Z</time></trkpt><trkpt lat="-31.236518553748617" lon="115.50813876886956"><ele>63.0</ele><time>2026-04-12T05:24:34.001Z</time></trkpt><trkpt lat="-31.236452387047432" lon="115.50807978097312"><ele>63.0</ele><time>2026-04-12T05:24:35.001Z</time></trkpt><trkpt lat="-31.236380108535457" lon="115.50801719557487"><ele>63.0</ele><time>2026-04-12T05:24:36.001Z</time></trkpt><trkpt lat="-31.236310063607675" lon="115.50796162627604"><ele>63.0</ele><time>2026-04-12T05:24:37.001Z</time></trkpt><trkpt lat="-31.236240817676986" lon="115.5078954772463"><ele>63.0</ele><time>2026-04-12T05:24:38.001Z</time></trkpt><trkpt lat="-31.23617978440745" lon="115.50782106419645"><ele>62.333333333333336</ele><time>2026-04-12T05:24:39.001Z</time></trkpt><trkpt lat="-31.236125477630804" lon="115.50775666907766"><ele>61.66666666666667</ele><time>2026-04-12T05:24:40.001Z</time></trkpt><trkpt lat="-31.236067864706648" lon="115.50769008648734"><ele>61.0</ele><time>2026-04-12T05:24:41.001Z</time></trkpt><trkpt lat="-31.23600591727369" lon="115.50762663947448"><ele>60.333333333333336</ele><time>2026-04-12T05:24:42.001Z</time></trkpt><trkpt lat="-31.235950572183295" lon="115.50757131596096"><ele>59.66666666666667</ele><time>2026-04-12T05:24:43.001Z</time></trkpt><trkpt lat="-31.23589767286186" lon="115.50752132473258"><ele>59.0</ele><time>2026-04-12T05:24:44.001Z</time></trkpt><trkpt lat="-31.23581367373003" lon="115.50741049548172"><ele>59.0</ele><time>2026-04-12T05:24:46.001Z</time></trkpt><trkpt lat="-31.23575884358658" lon="115.5073384675879"><ele>59.00000000000001</ele><time>2026-04-12T05:24:47.001Z</time></trkpt><trkpt lat="-31.23568380032715" lon="115.5072559188091"><ele>59.00000000000001</ele><time>2026-04-12T05:24:48.001Z</time></trkpt><trkpt lat="-31.23559610193434" lon="115.50716303075372"><ele>59.0</ele><time>2026-04-12T05:24:49.001Z</time></trkpt><trkpt lat="-31.23551499020634" lon="115.50707575683988"><ele>59.0</ele><time>2026-04-12T05:24:50.001Z</time></trkpt><trkpt lat="-31.235433329617248" lon="115.50699852404705"><ele>58.2</ele><time>2026-04-12T05:24:51.001Z</time></trkpt><trkpt lat="-31.235345995046238" lon="115.50692894690202"><ele>57.400000000000006</ele><time>2026-04-12T05:24:52.001Z</time></trkpt><trkpt lat="-31.23526038761978" lon="115.50685739143077"><ele>56.6</ele><time>2026-04-12T05:24:53.001Z</time></trkpt><trkpt lat="-31.23518446336811" lon="115.50677054628079"><ele>55.8</ele><time>2026-04-12T05:24:54.001Z</time></trkpt><trkpt lat="-31.23510643991637" lon="115.50666226760428"><ele>55.0</ele><time>2026-04-12T05:24:55.001Z</time></trkpt><trkpt lat="-31.23502615684667" lon="115.50656624161438"><ele>55.0</ele><time>2026-04-12T05:24:56.001Z</time></trkpt><trkpt lat="-31.2349337883015" lon="115.50647152925433"><ele>55.0</ele><time>2026-04-12T05:24:57.001Z</time></trkpt><trkpt lat="-31.23483911095326" lon="115.50637520196204"><ele>55.0</ele><time>2026-04-12T05:24:58.001Z</time></trkpt><trkpt lat="-31.234749887169606" lon="115.50628001842466"><ele>55.0</ele><time>2026-04-12T05:24:59.001Z</time></trkpt><trkpt lat="-31.234658660670664" lon="115.50618664618675"><ele>53.25</ele><time>2026-04-12T05:25:00.001Z</time></trkpt><trkpt lat="-31.234569865153823" lon="115.50610546074539"><ele>51.5</ele><time>2026-04-12T05:25:01.001Z</time></trkpt><trkpt lat="-31.234483975091013" lon="115.50601328401211"><ele>49.75</ele><time>2026-04-12T05:25:02.001Z</time></trkpt><trkpt lat="-31.23439961131913" lon="115.50592344926429"><ele>48.0</ele><time>2026-04-12T05:25:03.001Z</time></trkpt><trkpt lat="-31.234307670820723" lon="115.50583863014289"><ele>48.0</ele><time>2026-04-12T05:25:04.001Z</time></trkpt><trkpt lat="-31.234212570555766" lon="115.5057501844745"><ele>48.0</ele><time>2026-04-12T05:25:05.001Z</time></trkpt><trkpt lat="-31.234127267487956" lon="115.50566323239536"><ele>48.0</ele><time>2026-04-12T05:25:06.001Z</time></trkpt><trkpt lat="-31.234037532616767" lon="115.50557465787747"><ele>48.0</ele><time>2026-04-12T05:25:07.001Z</time></trkpt><trkpt lat="-31.23395148780703" lon="115.50549517841233"><ele>47.599999999999994</ele><time>2026-04-12T05:25:08.001Z</time></trkpt><trkpt lat="-31.233868799561662" lon="115.5054099616333"><ele>47.199999999999996</ele><time>2026-04-12T05:25:09.001Z</time></trkpt><trkpt lat="-31.23379926283152" lon="115.50532780160297"><ele>46.8</ele><time>2026-04-12T05:25:10.001Z</time></trkpt><trkpt lat="-31.233723993715543" lon="115.50524199087619"><ele>46.4</ele><time>2026-04-12T05:25:11.001Z</time></trkpt><trkpt lat="-31.23364761800111" lon="115.50515931169505"><ele>46.0</ele><time>2026-04-12T05:25:12.001Z</time></trkpt><trkpt lat="-31.233571930011106" lon="115.50507105948361"><ele>46.0</ele><time>2026-04-12T05:25:13.001Z</time></trkpt><trkpt lat="-31.233492989328443" lon="115.50498419793036"><ele>46.0</ele><time>2026-04-12T05:25:14.001Z</time></trkpt><trkpt lat="-31.233407925008056" lon="115.5048936984576"><ele>46.0</ele><time>2026-04-12T05:25:15.001Z</time></trkpt><trkpt lat="-31.233322354873145" lon="115.50480035118264"><ele>46.0</ele><time>2026-04-12T05:25:16.001Z</time></trkpt><trkpt lat="-31.233235699471493" lon="115.50470513873758"><ele>46.0</ele><time>2026-04-12T05:25:17.001Z</time></trkpt><trkpt lat="-31.233147718121955" lon="115.50460551086367"><ele>46.0</ele><time>2026-04-12T05:25:18.001Z</time></trkpt><trkpt lat="-31.233052438575406" lon="115.50450215482458"><ele>46.0</ele><time>2026-04-12T05:25:19.001Z</time></trkpt><trkpt lat="-31.232954838439884" lon="115.50440224592336"><ele>46.0</ele><time>2026-04-12T05:25:20.001Z</time></trkpt><trkpt lat="-31.232856210506704" lon="115.50430798314397"><ele>46.25</ele><time>2026-04-12T05:25:21.001Z</time></trkpt><trkpt lat="-31.232761133598117" lon="115.50421079215945"><ele>46.5</ele><time>2026-04-12T05:25:22.001Z</time></trkpt><trkpt lat="-31.2326708485332" lon="115.50411063965764"><ele>46.75</ele><time>2026-04-12T05:25:23.001Z</time></trkpt><trkpt lat="-31.232584097325734" lon="115.50402061687744"><ele>47.0</ele><time>2026-04-12T05:25:24.001Z</time></trkpt><trkpt lat="-31.23248873415389" lon="115.50392626616967"><ele>47.0</ele><time>2026-04-12T05:25:25.001Z</time></trkpt><trkpt lat="-31.232401266189083" lon="115.50383304128391"><ele>47.0</ele><time>2026-04-12T05:25:26.001Z</time></trkpt><trkpt lat="-31.232313367021273" lon="115.50373809550358"><ele>47.0</ele><time>2026-04-12T05:25:27.001Z</time></trkpt><trkpt lat="-31.232223570252206" lon="115.50365023002772"><ele>47.0</ele><time>2026-04-12T05:25:28.001Z</time></trkpt><trkpt lat="-31.232128788127177" lon="115.50356082564889"><ele>48.25</ele><time>2026-04-12T05:25:29.001Z</time></trkpt><trkpt lat="-31.232029297855" lon="115.50347494226313"><ele>49.5</ele><time>2026-04-12T05:25:30.001Z</time></trkpt><trkpt lat="-31.231928402526517" lon="115.50339374505796"><ele>50.75</ele><time>2026-04-12T05:25:31.001Z</time></trkpt><trkpt lat="-31.2318289699067" lon="115.50331015094437"><ele>52.0</ele><time>2026-04-12T05:25:32.001Z</time></trkpt><trkpt lat="-31.231732522056852" lon="115.50322121453735"><ele>52.0</ele><time>2026-04-12T05:25:33.001Z</time></trkpt><trkpt lat="-31.23164134715148" lon="115.50312374008011"><ele>52.0</ele><time>2026-04-12T05:25:34.001Z</time></trkpt><trkpt lat="-31.231550899865596" lon="115.50302747819075"><ele>52.0</ele><time>2026-04-12T05:25:35.001Z</time></trkpt><trkpt lat="-31.231458972298732" lon="115.50295446716927"><ele>52.0</ele><time>2026-04-12T05:25:36.001Z</time></trkpt><trkpt lat="-31.231365415817475" lon="115.5028667831036"><ele>53.0</ele><time>2026-04-12T05:25:37.001Z</time></trkpt><trkpt lat="-31.23128993212699" lon="115.50277369526715"><ele>54.0</ele><time>2026-04-12T05:25:38.001Z</time></trkpt><trkpt lat="-31.231225378974173" lon="115.50267656801634"><ele>55.0</ele><time>2026-04-12T05:25:39.001Z</time></trkpt><trkpt lat="-31.23114804521096" lon="115.50257371162688"><ele>56.0</ele><time>2026-04-12T05:25:40.001Z</time></trkpt><trkpt lat="-31.23104865533657" lon="115.50249010154612"><ele>56.0</ele><time>2026-04-12T05:25:41.001Z</time></trkpt><trkpt lat="-31.230933440313436" lon="115.50239704436396"><ele>56.0</ele><time>2026-04-12T05:25:42.001Z</time></trkpt><trkpt lat="-31.230833382835232" lon="115.50231245052544"><ele>56.0</ele><time>2026-04-12T05:25:43.001Z</time></trkpt><trkpt lat="-31.230755054294715" lon="115.5022351679643"><ele>56.0</ele><time>2026-04-12T05:25:44.001Z</time></trkpt><trkpt lat="-31.230691279800553" lon="115.5021455972323"><ele>57.25</ele><time>2026-04-12T05:25:45.001Z</time></trkpt><trkpt lat="-31.230621191884573" lon="115.50203448979025"><ele>58.5</ele><time>2026-04-12T05:25:46.001Z</time></trkpt><trkpt lat="-31.230544209133345" lon="115.50192560989143"><ele>59.75</ele><time>2026-04-12T05:25:47.001Z</time></trkpt><trkpt lat="-31.230457844841208" lon="115.50181994566911"><ele>61.0</ele><time>2026-04-12T05:25:48.001Z</time></trkpt><trkpt lat="-31.230362411850894" lon="115.50171099735468"><ele>61.0</ele><time>2026-04-12T05:25:49.001Z</time></trkpt><trkpt lat="-31.23026675039947" lon="115.50160581510477"><ele>61.0</ele><time>2026-04-12T05:25:50.001Z</time></trkpt><trkpt lat="-31.230177670783508" lon="115.50150438371101"><ele>61.0</ele><time>2026-04-12T05:25:51.001Z</time></trkpt><trkpt lat="-31.23007935245043" lon="115.50139553750581"><ele>61.0</ele><time>2026-04-12T05:25:52.001Z</time></trkpt><trkpt lat="-31.229981143136932" lon="115.50129712285722"><ele>60.75</ele><time>2026-04-12T05:25:53.001Z</time></trkpt><trkpt lat="-31.229877712385218" lon="115.50120217697686"><ele>60.5</ele><time>2026-04-12T05:25:54.001Z</time></trkpt><trkpt lat="-31.229776141437952" lon="115.50110359596066"><ele>60.25</ele><time>2026-04-12T05:25:55.001Z</time></trkpt><trkpt lat="-31.229684994313192" lon="115.50101245214849"><ele>60.0</ele><time>2026-04-12T05:25:56.001Z</time></trkpt><trkpt lat="-31.22960492821565" lon="115.50092123863037"><ele>60.0</ele><time>2026-04-12T05:25:57.001Z</time></trkpt><trkpt lat="-31.229524197961265" lon="115.50083374405159"><ele>60.0</ele><time>2026-04-12T05:25:58.001Z</time></trkpt><trkpt lat="-31.229439214594656" lon="115.50075229026771"><ele>60.0</ele><time>2026-04-12T05:25:59.001Z</time></trkpt><trkpt lat="-31.22934688806972" lon="115.50066039031053"><ele>60.0</ele><time>2026-04-12T05:26:00.001Z</time></trkpt><trkpt lat="-31.22925415255208" lon="115.50056918989627"><ele>60.0</ele><time>2026-04-12T05:26:01.001Z</time></trkpt><trkpt lat="-31.229158040371182" lon="115.50047542237989"><ele>60.0</ele><time>2026-04-12T05:26:02.001Z</time></trkpt><trkpt lat="-31.229064076832493" lon="115.50039042529706"><ele>60.0</ele><time>2026-04-12T05:26:03.001Z</time></trkpt><trkpt lat="-31.228968344327736" lon="115.50030313560356"><ele>60.0</ele><time>2026-04-12T05:26:04Z</time></trkpt><trkpt lat="-31.228873368157366" lon="115.50020069131851"><ele>59.75</ele><time>2026-04-12T05:26:05Z</time></trkpt><trkpt lat="-31.228782720158133" lon="115.50008798827348"><ele>59.5</ele><time>2026-04-12T05:26:06Z</time></trkpt><trkpt lat="-31.2286926481517" lon="115.49997692936209"><ele>59.25</ele><time>2026-04-12T05:26:07Z</time></trkpt><trkpt lat="-31.228597957096596" lon="115.49987292673549"><ele>59.0</ele><time>2026-04-12T05:26:08Z</time></trkpt><trkpt lat="-31.22850233463547" lon="115.49976798638131"><ele>59.0</ele><time>2026-04-12T05:26:09Z</time></trkpt><trkpt lat="-31.228402159651353" lon="115.49965629803981"><ele>59.0</ele><time>2026-04-12T05:26:10Z</time></trkpt><trkpt lat="-31.228305190083333" lon="115.49954870633914"><ele>59.0</ele><time>2026-04-12T05:26:11Z</time></trkpt><trkpt lat="-31.228206559342986" lon="115.49943967022331"><ele>59.0</ele><time>2026-04-12T05:26:12Z</time></trkpt><trkpt lat="-31.228102303520675" lon="115.49933965995329"><ele>58.0</ele><time>2026-04-12T05:26:13Z</time></trkpt><trkpt lat="-31.227993263767765" lon="115.49923779993011"><ele>57.0</ele><time>2026-04-12T05:26:14Z</time></trkpt><trkpt lat="-31.227890544785755" lon="115.49912811947573"><ele>56.0</ele><time>2026-04-12T05:26:15Z</time></trkpt><trkpt lat="-31.22778696148174" lon="115.49901492887747"><ele>55.0</ele><time>2026-04-12T05:26:16Z</time></trkpt><trkpt lat="-31.227682231309643" lon="115.49890508958667"><ele>55.0</ele><time>2026-04-12T05:26:17Z</time></trkpt><trkpt lat="-31.22756680294551" lon="115.49878843534128"><ele>55.0</ele><time>2026-04-12T05:26:18Z</time></trkpt><trkpt lat="-31.227457730936596" lon="115.49866943197578"><ele>55.0</ele><time>2026-04-12T05:26:19Z</time></trkpt><trkpt lat="-31.22735596202176" lon="115.49856191259208"><ele>55.0</ele><time>2026-04-12T05:26:20Z</time></trkpt><trkpt lat="-31.22726289477341" lon="115.49846624378998"><ele>55.6</ele><time>2026-04-12T05:26:21Z</time></trkpt><trkpt lat="-31.22718013441189" lon="115.49839135017656"><ele>56.2</ele><time>2026-04-12T05:26:22Z</time></trkpt><trkpt lat="-31.227092984286696" lon="115.49832623649064"><ele>56.8</ele><time>2026-04-12T05:26:23Z</time></trkpt><trkpt lat="-31.22700580542036" lon="115.49826517469776"><ele>57.4</ele><time>2026-04-12T05:26:24Z</time></trkpt><trkpt lat="-31.226931667347348" lon="115.49819064676112"><ele>58.0</ele><time>2026-04-12T05:26:25Z</time></trkpt><trkpt lat="-31.22686374608556" lon="115.49809379658024"><ele>58.0</ele><time>2026-04-12T05:26:26Z</time></trkpt><trkpt lat="-31.22679160264868" lon="115.49799419164076"><ele>58.0</ele><time>2026-04-12T05:26:27Z</time></trkpt><trkpt lat="-31.226717922272183" lon="115.49791278748744"><ele>58.0</ele><time>2026-04-12T05:26:28Z</time></trkpt><trkpt lat="-31.226633785472536" lon="115.49783141136115"><ele>58.0</ele><time>2026-04-12T05:26:29Z</time></trkpt><trkpt lat="-31.226541109181415" lon="115.49773483976357"><ele>58.0</ele><time>2026-04-12T05:26:30Z</time></trkpt><trkpt lat="-31.226442620983615" lon="115.49762715012216"><ele>57.75</ele><time>2026-04-12T05:26:31Z</time></trkpt><trkpt lat="-31.22633898299755" lon="115.49751446257288"><ele>57.5</ele><time>2026-04-12T05:26:32Z</time></trkpt><trkpt lat="-31.22624100819914" lon="115.49740520084178"><ele>57.25</ele><time>2026-04-12T05:26:33Z</time></trkpt><trkpt lat="-31.226154609153966" lon="115.49730837633707"><ele>57.0</ele><time>2026-04-12T05:26:34Z</time></trkpt><trkpt lat="-31.226073624807363" lon="115.49722816235105"><ele>57.0</ele><time>2026-04-12T05:26:35Z</time></trkpt><trkpt lat="-31.225993582596214" lon="115.49713565780503"><ele>57.0</ele><time>2026-04-12T05:26:36Z</time></trkpt><trkpt lat="-31.22591206544998" lon="115.4970589351365"><ele>57.0</ele><time>2026-04-12T05:26:37Z</time></trkpt><trkpt lat="-31.22582275122624" lon="115.49696978059325"><ele>57.0</ele><time>2026-04-12T05:26:38Z</time></trkpt><trkpt lat="-31.22573055668091" lon="115.4968803459127"><ele>56.5</ele><time>2026-04-12T05:26:39Z</time></trkpt><trkpt lat="-31.225639049228683" lon="115.49678716578828"><ele>56.0</ele><time>2026-04-12T05:26:40Z</time></trkpt><trkpt lat="-31.225548607952195" lon="115.49668920821962"><ele>55.5</ele><time>2026-04-12T05:26:41Z</time></trkpt><trkpt lat="-31.2254535694166" lon="115.496585547659"><ele>55.0</ele><time>2026-04-12T05:26:42Z</time></trkpt><trkpt lat="-31.22536117517794" lon="115.49648212273694"><ele>55.0</ele><time>2026-04-12T05:26:43Z</time></trkpt><trkpt lat="-31.22526892849491" lon="115.4963758842515"><ele>55.0</ele><time>2026-04-12T05:26:44Z</time></trkpt><trkpt lat="-31.225184605835235" lon="115.49626022673245"><ele>55.0</ele><time>2026-04-12T05:26:45Z</time></trkpt><trkpt lat="-31.22510956677909" lon="115.49613484769418"><ele>55.0</ele><time>2026-04-12T05:26:46Z</time></trkpt><trkpt lat="-31.22503828302916" lon="115.49599826003706"><ele>54.5</ele><time>2026-04-12T05:26:47Z</time></trkpt><trkpt lat="-31.224969604375033" lon="115.4958672094219"><ele>54.0</ele><time>2026-04-12T05:26:48Z</time></trkpt><trkpt lat="-31.22490017615443" lon="115.49575452622305"><ele>53.5</ele><time>2026-04-12T05:26:49.001Z</time></trkpt><trkpt lat="-31.22483236812437" lon="115.49563808782155"><ele>53.0</ele><time>2026-04-12T05:26:50.001Z</time></trkpt><trkpt lat="-31.224774416219123" lon="115.49553295567151"><ele>53.00000000000001</ele><time>2026-04-12T05:26:51.001Z</time></trkpt><trkpt lat="-31.224717627875147" lon="115.49543259628817"><ele>53.0</ele><time>2026-04-12T05:26:52.001Z</time></trkpt><trkpt lat="-31.22466282966211" lon="115.49535497417463"><ele>53.0</ele><time>2026-04-12T05:26:53.001Z</time></trkpt><trkpt lat="-31.22460910614171" lon="115.49529667733512"><ele>53.0</ele><time>2026-04-12T05:26:54.001Z</time></trkpt><trkpt lat="-31.224549650171994" lon="115.4952421691167"><ele>53.00000000000001</ele><time>2026-04-12T05:26:55.001Z</time></trkpt><trkpt lat="-31.224502573947404" lon="115.49516986445033"><ele>53.0</ele><time>2026-04-12T05:26:56.001Z</time></trkpt><trkpt lat="-31.22446147632858" lon="115.49506261994256"><ele>53.0</ele><time>2026-04-12T05:26:57.001Z</time></trkpt><trkpt lat="-31.224409025686946" lon="115.4949407619128"><ele>53.0</ele><time>2026-04-12T05:26:58.001Z</time></trkpt><trkpt lat="-31.224344582702138" lon="115.49482377759641"><ele>53.0</ele><time>2026-04-12T05:26:59.001Z</time></trkpt><trkpt lat="-31.224269165240955" lon="115.49470329879671"><ele>53.0</ele><time>2026-04-12T05:27:00.001Z</time></trkpt><trkpt lat="-31.224188431007544" lon="115.49458372884814"><ele>52.75</ele><time>2026-04-12T05:27:01.001Z</time></trkpt><trkpt lat="-31.22411134654657" lon="115.49445216374446"><ele>52.5</ele><time>2026-04-12T05:27:02.001Z</time></trkpt><trkpt lat="-31.224034746763962" lon="115.49432321942959"><ele>52.25</ele><time>2026-04-12T05:27:03.001Z</time></trkpt><trkpt lat="-31.223950285624394" lon="115.49420243641892"><ele>52.0</ele><time>2026-04-12T05:27:04.001Z</time></trkpt><trkpt lat="-31.223874332338365" lon="115.49408044391431"><ele>52.0</ele><time>2026-04-12T05:27:05.001Z</time></trkpt><trkpt lat="-31.223808667300695" lon="115.49395920551754"><ele>52.0</ele><time>2026-04-12T05:27:06.001Z</time></trkpt><trkpt lat="-31.22373514412797" lon="115.49384529388637"><ele>52.0</ele><time>2026-04-12T05:27:07.001Z</time></trkpt><trkpt lat="-31.223664858655532" lon="115.49372681514585"><ele>52.0</ele><time>2026-04-12T05:27:08.001Z</time></trkpt><trkpt lat="-31.223591081706033" lon="115.49360415255225"><ele>52.5</ele><time>2026-04-12T05:27:09.001Z</time></trkpt><trkpt lat="-31.22352096432923" lon="115.49348846288558"><ele>53.0</ele><time>2026-04-12T05:27:10.001Z</time></trkpt><trkpt lat="-31.22345464413906" lon="115.49338006811715"><ele>53.5</ele><time>2026-04-12T05:27:11.001Z</time></trkpt><trkpt lat="-31.22338722595447" lon="115.49326092567343"><ele>54.0</ele><time>2026-04-12T05:27:12.001Z</time></trkpt><trkpt lat="-31.223325149564555" lon="115.49314235069625"><ele>54.0</ele><time>2026-04-12T05:27:13.001Z</time></trkpt><trkpt lat="-31.223257936144805" lon="115.49303224994728"><ele>54.0</ele><time>2026-04-12T05:27:14.001Z</time></trkpt><trkpt lat="-31.223188965008237" lon="115.49293135121006"><ele>54.0</ele><time>2026-04-12T05:27:15.001Z</time></trkpt><trkpt lat="-31.223121089115953" lon="115.49281866325322"><ele>54.0</ele><time>2026-04-12T05:27:16.001Z</time></trkpt><trkpt lat="-31.22304914673975" lon="115.49269432093134"><ele>53.25</ele><time>2026-04-12T05:27:17.001Z</time></trkpt><trkpt lat="-31.222976233786415" lon="115.49258387627297"><ele>52.5</ele><time>2026-04-12T05:27:18.001Z</time></trkpt><trkpt lat="-31.222901904531355" lon="115.49247358302142"><ele>51.75</ele><time>2026-04-12T05:27:19.001Z</time></trkpt><trkpt lat="-31.222833612763036" lon="115.492350545723"><ele>51.0</ele><time>2026-04-12T05:27:20.001Z</time></trkpt><trkpt lat="-31.22276699256472" lon="115.49222678136479"><ele>51.0</ele><time>2026-04-12T05:27:21.001Z</time></trkpt><trkpt lat="-31.22269916620706" lon="115.4921035610441"><ele>51.0</ele><time>2026-04-12T05:27:22.001Z</time></trkpt><trkpt lat="-31.222635215497462" lon="115.491986204993"><ele>51.0</ele><time>2026-04-12T05:27:23.001Z</time></trkpt><trkpt lat="-31.22257080999987" lon="115.49188008344257"><ele>51.0</ele><time>2026-04-12T05:27:24.001Z</time></trkpt><trkpt lat="-31.222509671949474" lon="115.49178713963381"><ele>50.8</ele><time>2026-04-12T05:27:25.001Z</time></trkpt><trkpt lat="-31.222451192594374" lon="115.49169403076031"><ele>50.599999999999994</ele><time>2026-04-12T05:27:26.001Z</time></trkpt><trkpt lat="-31.222391699597033" lon="115.49160314777421"><ele>50.4</ele><time>2026-04-12T05:27:27.001Z</time></trkpt><trkpt lat="-31.222320442388916" lon="115.49151735625753"><ele>50.2</ele><time>2026-04-12T05:27:28.001Z</time></trkpt><trkpt lat="-31.222233288781496" lon="115.49144432995591"><ele>50.0</ele><time>2026-04-12T05:27:29.001Z</time></trkpt><trkpt lat="-31.222130905190696" lon="115.49137764677933"><ele>49.75</ele><time>2026-04-12T05:27:30.001Z</time></trkpt><trkpt lat="-31.22201813997564" lon="115.49130656476437"><ele>49.5</ele><time>2026-04-12T05:27:31.001Z</time></trkpt><trkpt lat="-31.22190980309514" lon="115.49123127391856"><ele>49.25</ele><time>2026-04-12T05:27:32.001Z</time></trkpt><trkpt lat="-31.22179835191376" lon="115.49115236390084"><ele>49.0</ele><time>2026-04-12T05:27:33.001Z</time></trkpt><trkpt lat="-31.221691802064875" lon="115.49107656981165"><ele>49.0</ele><time>2026-04-12T05:27:34.001Z</time></trkpt><trkpt lat="-31.221587966901595" lon="115.49100306690136"><ele>49.0</ele><time>2026-04-12T05:27:35.001Z</time></trkpt><trkpt lat="-31.22147885741351" lon="115.49092385698142"><ele>49.0</ele><time>2026-04-12T05:27:36.001Z</time></trkpt><trkpt lat="-31.22135212814778" lon="115.49083920384582"><ele>49.0</ele><time>2026-04-12T05:27:37.001Z</time></trkpt><trkpt lat="-31.221222479154253" lon="115.49076155520706"><ele>48.5</ele><time>2026-04-12T05:27:38.001Z</time></trkpt><trkpt lat="-31.221100553872176" lon="115.49067732713631"><ele>48.0</ele><time>2026-04-12T05:27:39.001Z</time></trkpt><trkpt lat="-31.220987601806932" lon="115.4906012620232"><ele>47.5</ele><time>2026-04-12T05:27:40.001Z</time></trkpt><trkpt lat="-31.220894915186" lon="115.4905430337039"><ele>47.0</ele><time>2026-04-12T05:27:41.001Z</time></trkpt><trkpt lat="-31.220820904487557" lon="115.49049176987052"><ele>47.0</ele><time>2026-04-12T05:27:42.001Z</time></trkpt><trkpt lat="-31.220755680997506" lon="115.49042875105934"><ele>47.0</ele><time>2026-04-12T05:27:43.001Z</time></trkpt><trkpt lat="-31.220702384110737" lon="115.49033528632428"><ele>47.0</ele><time>2026-04-12T05:27:44.001Z</time></trkpt><trkpt lat="-31.2206495055915" lon="115.49022580911985"><ele>47.0</ele><time>2026-04-12T05:27:45.001Z</time></trkpt><trkpt lat="-31.220608334824647" lon="115.49012551636346"><ele>47.0</ele><time>2026-04-12T05:27:46.001Z</time></trkpt><trkpt lat="-31.220589962327114" lon="115.49002043385447"><ele>47.2</ele><time>2026-04-12T05:27:47.001Z</time></trkpt><trkpt lat="-31.220600468595" lon="115.4899159369028"><ele>47.400000000000006</ele><time>2026-04-12T05:27:48.001Z</time></trkpt><trkpt lat="-31.22063818868982" lon="115.48980517359402"><ele>47.599999999999994</ele><time>2026-04-12T05:27:49.001Z</time></trkpt><trkpt lat="-31.220687658573492" lon="115.48970721518201"><ele>47.8</ele><time>2026-04-12T05:27:50.001Z</time></trkpt><trkpt lat="-31.220747800016568" lon="115.48961808455714"><ele>48.0</ele><time>2026-04-12T05:27:51.001Z</time></trkpt><trkpt lat="-31.220803556621323" lon="115.48954115996531"><ele>48.333333333333336</ele><time>2026-04-12T05:27:52.001Z</time></trkpt><trkpt lat="-31.220850755638" lon="115.48947750807616"><ele>48.66666666666667</ele><time>2026-04-12T05:27:53.001Z</time></trkpt><trkpt lat="-31.2209009036311" lon="115.48939060086563"><ele>49.0</ele><time>2026-04-12T05:27:54.001Z</time></trkpt><trkpt lat="-31.220934999027865" lon="115.48929214341932"><ele>49.333333333333336</ele><time>2026-04-12T05:27:55.001Z</time></trkpt><trkpt lat="-31.220949068708897" lon="115.48919787581832"><ele>49.66666666666667</ele><time>2026-04-12T05:27:56.001Z</time></trkpt><trkpt lat="-31.220928245746453" lon="115.48909780502903"><ele>50.0</ele><time>2026-04-12T05:27:57.001Z</time></trkpt><trkpt lat="-31.22087207431764" lon="115.48900912196304"><ele>50.0</ele><time>2026-04-12T05:27:58.001Z</time></trkpt><trkpt lat="-31.2207850194492" lon="115.48891063286258"><ele>50.0</ele><time>2026-04-12T05:27:59.001Z</time></trkpt><trkpt lat="-31.220700228987667" lon="115.48880013002042"><ele>50.0</ele><time>2026-04-12T05:28:00.001Z</time></trkpt><trkpt lat="-31.220620441683458" lon="115.48868509476135"><ele>50.0</ele><time>2026-04-12T05:28:01.001Z</time></trkpt><trkpt lat="-31.22055578553842" lon="115.48856231911732"><ele>49.0</ele><time>2026-04-12T05:28:02.001Z</time></trkpt><trkpt lat="-31.220486886701153" lon="115.48843362601986"><ele>48.0</ele><time>2026-04-12T05:28:03.001Z</time></trkpt><trkpt lat="-31.220407445477285" lon="115.48829863773915"><ele>47.0</ele><time>2026-04-12T05:28:04.001Z</time></trkpt><trkpt lat="-31.22032957932577" lon="115.48817212425732"><ele>46.0</ele><time>2026-04-12T05:28:05.001Z</time></trkpt><trkpt lat="-31.220255441411705" lon="115.48805805249599"><ele>46.0</ele><time>2026-04-12T05:28:06.001Z</time></trkpt><trkpt lat="-31.220179747012438" lon="115.48795437023851"><ele>46.0</ele><time>2026-04-12T05:28:07.001Z</time></trkpt><trkpt lat="-31.220095552966434" lon="115.48787590861242"><ele>46.0</ele><time>2026-04-12T05:28:08.001Z</time></trkpt><trkpt lat="-31.220004901457543" lon="115.4878155740672"><ele>46.0</ele><time>2026-04-12T05:28:09.001Z</time></trkpt><trkpt lat="-31.21990162437426" lon="115.48778593385536"><ele>46.0</ele><time>2026-04-12T05:28:10Z</time></trkpt><trkpt lat="-31.21978807199709" lon="115.48777785757487"><ele>47.25</ele><time>2026-04-12T05:28:11Z</time></trkpt><trkpt lat="-31.219659136872007" lon="115.48777394659932"><ele>48.5</ele><time>2026-04-12T05:28:12Z</time></trkpt><trkpt lat="-31.219537684925807" lon="115.48776237339271"><ele>49.75</ele><time>2026-04-12T05:28:13Z</time></trkpt><trkpt lat="-31.21941369548107" lon="115.48774258073925"><ele>51.0</ele><time>2026-04-12T05:28:14Z</time></trkpt><trkpt lat="-31.219294427163913" lon="115.48772651677125"><ele>51.0</ele><time>2026-04-12T05:28:15Z</time></trkpt><trkpt lat="-31.21917573569327" lon="115.48771953333669"><ele>51.0</ele><time>2026-04-12T05:28:16Z</time></trkpt><trkpt lat="-31.219057442945257" lon="115.48771534432431"><ele>51.0</ele><time>2026-04-12T05:28:17Z</time></trkpt><trkpt lat="-31.218942493249703" lon="115.48770640819858"><ele>51.0</ele><time>2026-04-12T05:28:18Z</time></trkpt><trkpt lat="-31.218845182460125" lon="115.48769852013514"><ele>51.0</ele><time>2026-04-12T05:28:19Z</time></trkpt><trkpt lat="-31.218759667254936" lon="115.48768822517644"><ele>51.0</ele><time>2026-04-12T05:28:20Z</time></trkpt><trkpt lat="-31.21869586134872" lon="115.48767303190206"><ele>51.0</ele><time>2026-04-12T05:28:21Z</time></trkpt><trkpt lat="-31.218582665119055" lon="115.48766304575311"><ele>51.0</ele><time>2026-04-12T05:28:23Z</time></trkpt><trkpt lat="-31.218474418205304" lon="115.48763163374423"><ele>51.0</ele><time>2026-04-12T05:28:25Z</time></trkpt><trkpt lat="-31.218403271256353" lon="115.48762300529718"><ele>51.0</ele><time>2026-04-12T05:28:52.001Z</time></trkpt><trkpt lat="-31.218310234275837" lon="115.48760669506365"><ele>51.0</ele><time>2026-04-12T05:28:59.001Z</time></trkpt><trkpt lat="-31.218230767188366" lon="115.48760533291404"><ele>51.0</ele><time>2026-04-12T05:29:01.001Z</time></trkpt><trkpt lat="-31.218161429281185" lon="115.48759758287201"><ele>51.0</ele><time>2026-04-12T05:29:03.001Z</time></trkpt><trkpt lat="-31.218087247886157" lon="115.48758777413042"><ele>51.0</ele><time>2026-04-12T05:29:05.001Z</time></trkpt><trkpt lat="-31.218009472046965" lon="115.48758276695104"><ele>51.0</ele><time>2026-04-12T05:29:07.001Z</time></trkpt><trkpt lat="-31.217921171798594" lon="115.48759577418895"><ele>51.0</ele><time>2026-04-12T05:29:09.001Z</time></trkpt><trkpt lat="-31.21785133624698" lon="115.48760894671744"><ele>51.0</ele><time>2026-04-12T05:29:11.001Z</time></trkpt><trkpt lat="-31.217798593084925" lon="115.48756732878643"><ele>51.0</ele><time>2026-04-12T05:29:24.001Z</time></trkpt><trkpt lat="-31.217722578476593" lon="115.487549863891"><ele>51.0</ele><time>2026-04-12T05:29:27.001Z</time></trkpt><trkpt lat="-31.21765110296419" lon="115.48752611923355"><ele>51.0</ele><time>2026-04-12T05:29:29.001Z</time></trkpt><trkpt lat="-31.21754848802786" lon="115.48749767234158"><ele>51.0</ele><time>2026-04-12T05:29:31.001Z</time></trkpt><trkpt lat="-31.217480709612328" lon="115.48749228289947"><ele>51.0</ele><time>2026-04-12T05:29:32.001Z</time></trkpt><trkpt lat="-31.21741135177461" lon="115.48749390862218"><ele>51.0</ele><time>2026-04-12T05:29:33.001Z</time></trkpt><trkpt lat="-31.21734402187738" lon="115.48748800725727"><ele>51.0</ele><time>2026-04-12T05:29:34.001Z</time></trkpt><trkpt lat="-31.21727620374528" lon="115.48748224051553"><ele>51.0</ele><time>2026-04-12T05:29:35.001Z</time></trkpt><trkpt lat="-31.217162958501373" lon="115.48743318890067"><ele>51.0</ele><time>2026-04-12T05:29:37.001Z</time></trkpt><trkpt lat="-31.217101699986014" lon="115.4873861795696"><ele>51.0</ele><time>2026-04-12T05:29:38.001Z</time></trkpt><trkpt lat="-31.217025605934957" lon="115.48733521704898"><ele>51.0</ele><time>2026-04-12T05:29:39.001Z</time></trkpt><trkpt lat="-31.216955300289257" lon="115.48728718140624"><ele>50.85714285714286</ele><time>2026-04-12T05:29:40.001Z</time></trkpt><trkpt lat="-31.21688758696544" lon="115.48723767578083"><ele>50.714285714285715</ele><time>2026-04-12T05:29:41.001Z</time></trkpt><trkpt lat="-31.216824510350396" lon="115.48719367135851"><ele>50.57142857142857</ele><time>2026-04-12T05:29:42.001Z</time></trkpt><trkpt lat="-31.21676542566663" lon="115.48714699278453"><ele>50.42857142857143</ele><time>2026-04-12T05:29:43.001Z</time></trkpt><trkpt lat="-31.216701345296887" lon="115.48708993575976"><ele>50.285714285714285</ele><time>2026-04-12T05:29:44.001Z</time></trkpt><trkpt lat="-31.216642001077588" lon="115.48705128679299"><ele>50.142857142857146</ele><time>2026-04-12T05:29:45.001Z</time></trkpt><trkpt lat="-31.216584374346404" lon="115.48701253476331"><ele>50.0</ele><time>2026-04-12T05:29:46.001Z</time></trkpt><trkpt lat="-31.216522762063583" lon="115.48695826930293"><ele>50.16666666666667</ele><time>2026-04-12T05:29:48.001Z</time></trkpt><trkpt lat="-31.216455352151613" lon="115.4869103831939"><ele>50.333333333333336</ele><time>2026-04-12T05:30:08.001Z</time></trkpt><trkpt lat="-31.216400297787473" lon="115.486858287247"><ele>50.5</ele><time>2026-04-12T05:30:10.001Z</time></trkpt><trkpt lat="-31.21634701144429" lon="115.48681502640659"><ele>50.66666666666667</ele><time>2026-04-12T05:30:12.001Z</time></trkpt><trkpt lat="-31.216292660910828" lon="115.48677592975162"><ele>50.833333333333336</ele><time>2026-04-12T05:30:14.001Z</time></trkpt><trkpt lat="-31.216219198178223" lon="115.48672266819351"><ele>51.0</ele><time>2026-04-12T05:30:16.001Z</time></trkpt><trkpt lat="-31.216128030198888" lon="115.4866573381144"><ele>51.0</ele><time>2026-04-12T05:30:18.001Z</time></trkpt><trkpt lat="-31.21603126006871" lon="115.48658133583284"><ele>51.0</ele><time>2026-04-12T05:30:20.001Z</time></trkpt><trkpt lat="-31.215977168348395" lon="115.48654333229605"><ele>51.0</ele><time>2026-04-12T05:30:21.001Z</time></trkpt><trkpt lat="-31.21588387231801" lon="115.48646309642045"><ele>51.0</ele><time>2026-04-12T05:30:23.001Z</time></trkpt><trkpt lat="-31.21577746985894" lon="115.48637330884846"><ele>51.0</ele><time>2026-04-12T05:30:25.001Z</time></trkpt><trkpt lat="-31.21570794055359" lon="115.48631503991247"><ele>51.0</ele><time>2026-04-12T05:30:26.001Z</time></trkpt><trkpt lat="-31.215630731297065" lon="115.48626431836169"><ele>51.0</ele><time>2026-04-12T05:30:27.001Z</time></trkpt><trkpt lat="-31.215555437522355" lon="115.48621877053377"><ele>51.0</ele><time>2026-04-12T05:30:28.001Z</time></trkpt><trkpt lat="-31.215481279574202" lon="115.4861614244537"><ele>51.0</ele><time>2026-04-12T05:30:29.001Z</time></trkpt><trkpt lat="-31.215396945577254" lon="115.48610024988523"><ele>51.0</ele><time>2026-04-12T05:30:30.001Z</time></trkpt><trkpt lat="-31.215317595663407" lon="115.48604625643057"><ele>51.0</ele><time>2026-04-12T05:30:31.001Z</time></trkpt><trkpt lat="-31.21524254792291" lon="115.48599471643284"><ele>51.0</ele><time>2026-04-12T05:30:32.001Z</time></trkpt><trkpt lat="-31.215174297954675" lon="115.48594267662683"><ele>51.0</ele><time>2026-04-12T05:30:33.001Z</time></trkpt><trkpt lat="-31.21510545116876" lon="115.48588635154235"><ele>51.0</ele><time>2026-04-12T05:30:34.001Z</time></trkpt><trkpt lat="-31.21503939820039" lon="115.48583554696087"><ele>51.0</ele><time>2026-04-12T05:30:35.001Z</time></trkpt><trkpt lat="-31.214976623033596" lon="115.48579044339661"><ele>51.0</ele><time>2026-04-12T05:30:36.001Z</time></trkpt><trkpt lat="-31.214918543415394" lon="115.48574841896117"><ele>51.0</ele><time>2026-04-12T05:30:37.001Z</time></trkpt><trkpt lat="-31.21486487553988" lon="115.48570159929253"><ele>51.0</ele><time>2026-04-12T05:30:38.001Z</time></trkpt><trkpt lat="-31.214786258448473" lon="115.48564833402025"><ele>51.0</ele><time>2026-04-12T05:30:40.001Z</time></trkpt><trkpt lat="-31.214727703998737" lon="115.48560760158685"><ele>51.0</ele><time>2026-04-12T05:31:05.001Z</time></trkpt><trkpt lat="-31.214673339841934" lon="115.48555389479587"><ele>51.0</ele><time>2026-04-12T05:31:17.001Z</time></trkpt><trkpt lat="-31.214615675433567" lon="115.48550450592745"><ele>51.0</ele><time>2026-04-12T05:31:20.001Z</time></trkpt><trkpt lat="-31.214555589243105" lon="115.48546179095558"><ele>51.0</ele><time>2026-04-12T05:31:23.001Z</time></trkpt><trkpt lat="-31.214489825554264" lon="115.48541393222641"><ele>50.833333333333336</ele><time>2026-04-12T05:31:25.001Z</time></trkpt><trkpt lat="-31.214402255592567" lon="115.48535457761992"><ele>50.66666666666667</ele><time>2026-04-12T05:31:27.001Z</time></trkpt><trkpt lat="-31.214348407671352" lon="115.48531492251183"><ele>50.5</ele><time>2026-04-12T05:31:37.001Z</time></trkpt><trkpt lat="-31.21428051153594" lon="115.48526525980165"><ele>50.333333333333336</ele><time>2026-04-12T05:31:43.001Z</time></trkpt><trkpt lat="-31.21420100731066" lon="115.4852011571209"><ele>50.16666666666667</ele><time>2026-04-12T05:31:46.001Z</time></trkpt><trkpt lat="-31.21413520446034" lon="115.4851525783119"><ele>50.0</ele><time>2026-04-12T05:31:48.001Z</time></trkpt><trkpt lat="-31.214046709402663" lon="115.48509376681095"><ele>50.8</ele><time>2026-04-12T05:31:50.001Z</time></trkpt><trkpt lat="-31.21395784294671" lon="115.48502741859552"><ele>51.6</ele><time>2026-04-12T05:31:52.001Z</time></trkpt><trkpt lat="-31.213860845741117" lon="115.48495268898408"><ele>52.400000000000006</ele><time>2026-04-12T05:31:54.001Z</time></trkpt><trkpt lat="-31.21376133812346" lon="115.48486460467664"><ele>53.2</ele><time>2026-04-12T05:31:56.001Z</time></trkpt><trkpt lat="-31.213692830415887" lon="115.48481259207749"><ele>54.0</ele><time>2026-04-12T05:31:57.001Z</time></trkpt><trkpt lat="-31.213618092416677" lon="115.48476225638098"><ele>54.0</ele><time>2026-04-12T05:31:58.001Z</time></trkpt><trkpt lat="-31.21354338654424" lon="115.48470308883567"><ele>54.00000000000001</ele><time>2026-04-12T05:31:59.001Z</time></trkpt><trkpt lat="-31.21346598535532" lon="115.48463519879012"><ele>54.00000000000001</ele><time>2026-04-12T05:32:00.001Z</time></trkpt><trkpt lat="-31.213387047457807" lon="115.4845821376507"><ele>54.0</ele><time>2026-04-12T05:32:01.001Z</time></trkpt><trkpt lat="-31.213302157891565" lon="115.48452560110603"><ele>54.0</ele><time>2026-04-12T05:32:02.001Z</time></trkpt><trkpt lat="-31.213226486081425" lon="115.48445794385236"><ele>54.6</ele><time>2026-04-12T05:32:03.001Z</time></trkpt><trkpt lat="-31.213148524951965" lon="115.48439576736183"><ele>55.2</ele><time>2026-04-12T05:32:04.001Z</time></trkpt><trkpt lat="-31.213065386415423" lon="115.48433809080203"><ele>55.800000000000004</ele><time>2026-04-12T05:32:05.001Z</time></trkpt><trkpt lat="-31.2129861531837" lon="115.48428049682798"><ele>56.400000000000006</ele><time>2026-04-12T05:32:06.001Z</time></trkpt><trkpt lat="-31.2129041539002" lon="115.48421975186548"><ele>57.0</ele><time>2026-04-12T05:32:07.001Z</time></trkpt><trkpt lat="-31.212826928166766" lon="115.48416358613383"><ele>57.0</ele><time>2026-04-12T05:32:08.001Z</time></trkpt><trkpt lat="-31.212738639648563" lon="115.48409531395944"><ele>57.0</ele><time>2026-04-12T05:32:09.001Z</time></trkpt><trkpt lat="-31.21264299500315" lon="115.48403149367087"><ele>57.0</ele><time>2026-04-12T05:32:10.001Z</time></trkpt><trkpt lat="-31.21254914831867" lon="115.48395919262202"><ele>57.0</ele><time>2026-04-12T05:32:11.001Z</time></trkpt><trkpt lat="-31.212457538369463" lon="115.48388540615048"><ele>57.0</ele><time>2026-04-12T05:32:12.001Z</time></trkpt><trkpt lat="-31.21236255721876" lon="115.48381117802874"><ele>58.0</ele><time>2026-04-12T05:32:13.001Z</time></trkpt><trkpt lat="-31.212264455105366" lon="115.48373452387911"><ele>59.0</ele><time>2026-04-12T05:32:14.001Z</time></trkpt><trkpt lat="-31.212163396545613" lon="115.48365592846645"><ele>60.0</ele><time>2026-04-12T05:32:15.001Z</time></trkpt><trkpt lat="-31.21206198568261" lon="115.48358096886317"><ele>61.0</ele><time>2026-04-12T05:32:16.001Z</time></trkpt><trkpt lat="-31.211966340202057" lon="115.48351426369409"><ele>61.0</ele><time>2026-04-12T05:32:17.001Z</time></trkpt><trkpt lat="-31.211864572508343" lon="115.48343874166072"><ele>60.99999999999999</ele><time>2026-04-12T05:32:18.001Z</time></trkpt><trkpt lat="-31.211774705366487" lon="115.4833746821126"><ele>60.99999999999999</ele><time>2026-04-12T05:32:19.001Z</time></trkpt><trkpt lat="-31.21168304425051" lon="115.48331218754831"><ele>61.0</ele><time>2026-04-12T05:32:20.001Z</time></trkpt><trkpt lat="-31.21159040851421" lon="115.48324655457111"><ele>61.0</ele><time>2026-04-12T05:32:21.001Z</time></trkpt><trkpt lat="-31.211501785511608" lon="115.48318006930387"><ele>60.599999999999994</ele><time>2026-04-12T05:32:22.001Z</time></trkpt><trkpt lat="-31.21141747502663" lon="115.48311214976418"><ele>60.199999999999996</ele><time>2026-04-12T05:32:23.001Z</time></trkpt><trkpt lat="-31.211324008983738" lon="115.48304040029161"><ele>59.800000000000004</ele><time>2026-04-12T05:32:24.001Z</time></trkpt><trkpt lat="-31.21122880511308" lon="115.48296620853634"><ele>59.400000000000006</ele><time>2026-04-12T05:32:25.001Z</time></trkpt><trkpt lat="-31.211134625410434" lon="115.48289755797961"><ele>59.0</ele><time>2026-04-12T05:32:26.001Z</time></trkpt><trkpt lat="-31.211035838524243" lon="115.48282876908006"><ele>59.0</ele><time>2026-04-12T05:32:27.001Z</time></trkpt><trkpt lat="-31.2109464811501" lon="115.48276190079814"><ele>59.00000000000001</ele><time>2026-04-12T05:32:28.001Z</time></trkpt><trkpt lat="-31.210845838732926" lon="115.48268255844941"><ele>59.00000000000001</ele><time>2026-04-12T05:32:29.001Z</time></trkpt><trkpt lat="-31.21076055746134" lon="115.48261742300267"><ele>59.0</ele><time>2026-04-12T05:32:30.001Z</time></trkpt><trkpt lat="-31.21068506536981" lon="115.48256433716271"><ele>59.0</ele><time>2026-04-12T05:32:31.001Z</time></trkpt><trkpt lat="-31.210606453050044" lon="115.48251119895802"><ele>60.2</ele><time>2026-04-12T05:32:32.001Z</time></trkpt><trkpt lat="-31.210521234448663" lon="115.482444291584"><ele>61.400000000000006</ele><time>2026-04-12T05:32:33.001Z</time></trkpt><trkpt lat="-31.210444910619934" lon="115.48237933245535"><ele>62.6</ele><time>2026-04-12T05:32:34.001Z</time></trkpt><trkpt lat="-31.210371405385533" lon="115.48231921064557"><ele>63.8</ele><time>2026-04-12T05:32:35.001Z</time></trkpt><trkpt lat="-31.2103012016743" lon="115.48227149836273"><ele>65.0</ele><time>2026-04-12T05:32:36.001Z</time></trkpt><trkpt lat="-31.210227646074838" lon="115.4822149751004"><ele>65.0</ele><time>2026-04-12T05:32:37.001Z</time></trkpt><trkpt lat="-31.21014757654653" lon="115.48215512125189"><ele>65.0</ele><time>2026-04-12T05:32:38.001Z</time></trkpt><trkpt lat="-31.210065417782296" lon="115.48208736844123"><ele>65.0</ele><time>2026-04-12T05:32:39.001Z</time></trkpt><trkpt lat="-31.209978288338142" lon="115.48204030063042"><ele>65.0</ele><time>2026-04-12T05:32:40.001Z</time></trkpt><trkpt lat="-31.209896638224052" lon="115.48198273479021"><ele>65.0</ele><time>2026-04-12T05:32:41.001Z</time></trkpt><trkpt lat="-31.209813283871323" lon="115.48191634299212"><ele>64.4</ele><time>2026-04-12T05:32:42.001Z</time></trkpt><trkpt lat="-31.209729547781567" lon="115.48184721497056"><ele>63.8</ele><time>2026-04-12T05:32:43.001Z</time></trkpt><trkpt lat="-31.209645987480826" lon="115.48178782019903"><ele>63.2</ele><time>2026-04-12T05:32:44.001Z</time></trkpt><trkpt lat="-31.209559433754293" lon="115.4817269286694"><ele>62.6</ele><time>2026-04-12T05:32:45.001Z</time></trkpt><trkpt lat="-31.20946940144849" lon="115.48166779372688"><ele>62.0</ele><time>2026-04-12T05:32:46.001Z</time></trkpt><trkpt lat="-31.209376955689144" lon="115.48160881816415"><ele>62.0</ele><time>2026-04-12T05:32:47.001Z</time></trkpt><trkpt lat="-31.209293707846765" lon="115.48154162534726"><ele>62.0</ele><time>2026-04-12T05:32:48.001Z</time></trkpt><trkpt lat="-31.20921003832537" lon="115.48146602389053"><ele>62.0</ele><time>2026-04-12T05:32:49.001Z</time></trkpt><trkpt lat="-31.209124078549817" lon="115.48138242004421"><ele>62.0</ele><time>2026-04-12T05:32:50.001Z</time></trkpt><trkpt lat="-31.209034964551943" lon="115.48130711224997"><ele>62.0</ele><time>2026-04-12T05:32:51.001Z</time></trkpt><trkpt lat="-31.208938575817967" lon="115.48124164557325"><ele>62.2</ele><time>2026-04-12T05:32:52.001Z</time></trkpt><trkpt lat="-31.208843061568444" lon="115.4811853788082"><ele>62.400000000000006</ele><time>2026-04-12T05:32:53.001Z</time></trkpt><trkpt lat="-31.208753126558836" lon="115.48113236016316"><ele>62.599999999999994</ele><time>2026-04-12T05:32:54.001Z</time></trkpt><trkpt lat="-31.20866882162619" lon="115.48107855977152"><ele>62.8</ele><time>2026-04-12T05:32:55.001Z</time></trkpt><trkpt lat="-31.20858042020705" lon="115.48101860348017"><ele>63.0</ele><time>2026-04-12T05:32:56.001Z</time></trkpt><trkpt lat="-31.208492698422845" lon="115.48095608878194"><ele>63.0</ele><time>2026-04-12T05:32:57.001Z</time></trkpt><trkpt lat="-31.20840538694941" lon="115.48088576669731"><ele>63.0</ele><time>2026-04-12T05:32:58.001Z</time></trkpt><trkpt lat="-31.208323068829046" lon="115.48080983299036"><ele>63.0</ele><time>2026-04-12T05:32:59.001Z</time></trkpt><trkpt lat="-31.208229294904484" lon="115.48073000012127"><ele>63.0</ele><time>2026-04-12T05:33:00.001Z</time></trkpt><trkpt lat="-31.208135336967903" lon="115.48065040983299"><ele>63.0</ele><time>2026-04-12T05:33:01.001Z</time></trkpt><trkpt lat="-31.208048977289014" lon="115.4805670877744"><ele>63.2</ele><time>2026-04-12T05:33:02.001Z</time></trkpt><trkpt lat="-31.20796666156836" lon="115.48048732918689"><ele>63.4</ele><time>2026-04-12T05:33:03.001Z</time></trkpt><trkpt lat="-31.20788601526895" lon="115.48043685937746"><ele>63.60000000000001</ele><time>2026-04-12T05:33:04.001Z</time></trkpt><trkpt lat="-31.207796574201367" lon="115.48039244040427"><ele>63.800000000000004</ele><time>2026-04-12T05:33:05.001Z</time></trkpt><trkpt lat="-31.20771733613337" lon="115.48033909461653"><ele>64.0</ele><time>2026-04-12T05:33:06.001Z</time></trkpt><trkpt lat="-31.207642977051254" lon="115.48027701671795"><ele>64.16666666666666</ele><time>2026-04-12T05:33:07.001Z</time></trkpt><trkpt lat="-31.20757907174243" lon="115.48021615754405"><ele>64.33333333333333</ele><time>2026-04-12T05:33:08.001Z</time></trkpt><trkpt lat="-31.207521637005236" lon="115.4801669442796"><ele>64.5</ele><time>2026-04-12T05:33:09.001Z</time></trkpt><trkpt lat="-31.207418640215554" lon="115.4801210513821"><ele>64.66666666666667</ele><time>2026-04-12T05:33:11.001Z</time></trkpt><trkpt lat="-31.207349775915684" lon="115.48010177277922"><ele>64.83333333333334</ele><time>2026-04-12T05:33:12.001Z</time></trkpt><trkpt lat="-31.207278095063483" lon="115.48006025879019"><ele>65.0</ele><time>2026-04-12T05:33:13.001Z</time></trkpt><trkpt lat="-31.207200147964787" lon="115.47999535476627"><ele>65.33333333333334</ele><time>2026-04-12T05:33:14.001Z</time></trkpt><trkpt lat="-31.207123486770538" lon="115.47992987380576"><ele>65.66666666666667</ele><time>2026-04-12T05:33:15.001Z</time></trkpt><trkpt lat="-31.20704957433948" lon="115.47985740322748"><ele>66.0</ele><time>2026-04-12T05:33:16.001Z</time></trkpt><trkpt lat="-31.206985057734407" lon="115.47979745554592"><ele>66.33333333333333</ele><time>2026-04-12T05:33:17.001Z</time></trkpt><trkpt lat="-31.206914048430296" lon="115.4797508993065"><ele>66.66666666666666</ele><time>2026-04-12T05:33:18.001Z</time></trkpt><trkpt lat="-31.206840215217696" lon="115.47970816950526"><ele>67.0</ele><time>2026-04-12T05:33:19.001Z</time></trkpt><trkpt lat="-31.206782515735277" lon="115.47964193779407"><ele>66.6</ele><time>2026-04-12T05:33:20.001Z</time></trkpt><trkpt lat="-31.206749075752338" lon="115.47954608488901"><ele>66.2</ele><time>2026-04-12T05:33:21.001Z</time></trkpt><trkpt lat="-31.206729224904812" lon="115.47942415501564"><ele>65.8</ele><time>2026-04-12T05:33:22.001Z</time></trkpt><trkpt lat="-31.20672548704131" lon="115.47929628374052"><ele>65.4</ele><time>2026-04-12T05:33:23.001Z</time></trkpt><trkpt lat="-31.206719735721553" lon="115.47915793067996"><ele>65.0</ele><time>2026-04-12T05:33:24.001Z</time></trkpt><trkpt lat="-31.20670715390238" lon="115.47901304296276"><ele>65.0</ele><time>2026-04-12T05:33:25.001Z</time></trkpt><trkpt lat="-31.206691444386546" lon="115.47887180085004"><ele>65.0</ele><time>2026-04-12T05:33:26.001Z</time></trkpt><trkpt lat="-31.206681730633942" lon="115.47872953556845"><ele>65.0</ele><time>2026-04-12T05:33:27.001Z</time></trkpt><trkpt lat="-31.206674461312424" lon="115.47858807333604"><ele>65.0</ele><time>2026-04-12T05:33:28.001Z</time></trkpt><trkpt lat="-31.20666236102193" lon="115.47844759265126"><ele>64.25</ele><time>2026-04-12T05:33:29.001Z</time></trkpt><trkpt lat="-31.206646144488648" lon="115.47830982747843"><ele>63.5</ele><time>2026-04-12T05:33:30.001Z</time></trkpt><trkpt lat="-31.20662754868131" lon="115.47817392468592"><ele>62.75</ele><time>2026-04-12T05:33:31.001Z</time></trkpt><trkpt lat="-31.206611210714982" lon="115.47804046487539"><ele>62.0</ele><time>2026-04-12T05:33:32.001Z</time></trkpt><trkpt lat="-31.20659547814831" lon="115.47790539372537"><ele>61.400000000000006</ele><time>2026-04-12T05:33:33.001Z</time></trkpt><trkpt lat="-31.206588984001026" lon="115.47777603840342"><ele>60.800000000000004</ele><time>2026-04-12T05:33:34.001Z</time></trkpt><trkpt lat="-31.206590272973983" lon="115.47765011973695"><ele>60.2</ele><time>2026-04-12T05:33:35.001Z</time></trkpt><trkpt lat="-31.206585335769002" lon="115.47753201612628"><ele>59.6</ele><time>2026-04-12T05:33:36.001Z</time></trkpt><trkpt lat="-31.206570718263535" lon="115.47741713900464"><ele>59.0</ele><time>2026-04-12T05:33:37.001Z</time></trkpt><trkpt lat="-31.206550707415328" lon="115.47731931785827"><ele>59.0</ele><time>2026-04-12T05:33:38.001Z</time></trkpt><trkpt lat="-31.20652848185647" lon="115.47721401262777"><ele>59.00000000000001</ele><time>2026-04-12T05:33:39.001Z</time></trkpt><trkpt lat="-31.206500860774298" lon="115.47710695620941"><ele>59.00000000000001</ele><time>2026-04-12T05:33:40.001Z</time></trkpt><trkpt lat="-31.20646919931808" lon="115.47699931360914"><ele>59.0</ele><time>2026-04-12T05:33:41.001Z</time></trkpt><trkpt lat="-31.20644597784345" lon="115.47688111935886"><ele>59.0</ele><time>2026-04-12T05:33:42.001Z</time></trkpt><trkpt lat="-31.20643610057565" lon="115.47676073970067"><ele>58.0</ele><time>2026-04-12T05:33:43.001Z</time></trkpt><trkpt lat="-31.206428995031114" lon="115.47663093688884"><ele>57.0</ele><time>2026-04-12T05:33:44.001Z</time></trkpt><trkpt lat="-31.206432984970057" lon="115.47649497690365"><ele>56.0</ele><time>2026-04-12T05:33:45.001Z</time></trkpt><trkpt lat="-31.206437563058422" lon="115.4763557601283"><ele>55.0</ele><time>2026-04-12T05:33:46.001Z</time></trkpt><trkpt lat="-31.206440398746928" lon="115.47621454132405"><ele>54.8</ele><time>2026-04-12T05:33:47.001Z</time></trkpt><trkpt lat="-31.206441953939883" lon="115.4760895320065"><ele>54.6</ele><time>2026-04-12T05:33:48.001Z</time></trkpt><trkpt lat="-31.206435806863976" lon="115.47596905303608"><ele>54.400000000000006</ele><time>2026-04-12T05:33:49.001Z</time></trkpt><trkpt lat="-31.206412356858422" lon="115.47585186244116"><ele>54.2</ele><time>2026-04-12T05:33:50.001Z</time></trkpt><trkpt lat="-31.2064020268726" lon="115.47572149641977"><ele>54.0</ele><time>2026-04-12T05:33:51.001Z</time></trkpt><trkpt lat="-31.206397860511476" lon="115.4755898789396"><ele>54.0</ele><time>2026-04-12T05:33:52.001Z</time></trkpt><trkpt lat="-31.206393649594336" lon="115.47546794559555"><ele>54.0</ele><time>2026-04-12T05:33:53.001Z</time></trkpt><trkpt lat="-31.206390112685632" lon="115.47535419438468"><ele>54.0</ele><time>2026-04-12T05:33:54.001Z</time></trkpt><trkpt lat="-31.206375833785422" lon="115.47525609811183"><ele>54.0</ele><time>2026-04-12T05:33:55.001Z</time></trkpt><trkpt lat="-31.20634339522277" lon="115.4751810548379"><ele>54.0</ele><time>2026-04-12T05:33:56.001Z</time></trkpt><trkpt lat="-31.20631440591184" lon="115.4751062799871"><ele>54.0</ele><time>2026-04-12T05:33:57.001Z</time></trkpt><trkpt lat="-31.206295012574106" lon="115.47502938164833"><ele>53.800000000000004</ele><time>2026-04-12T05:33:58.001Z</time></trkpt><trkpt lat="-31.2062887539067" lon="115.47494230956327"><ele>53.60000000000001</ele><time>2026-04-12T05:33:59.001Z</time></trkpt><trkpt lat="-31.206304687769382" lon="115.47483773028391"><ele>53.4</ele><time>2026-04-12T05:34:00.001Z</time></trkpt><trkpt lat="-31.206316106584158" lon="115.47472588962364"><ele>53.2</ele><time>2026-04-12T05:34:01.001Z</time></trkpt><trkpt lat="-31.206317169722148" lon="115.47461561829135"><ele>53.0</ele><time>2026-04-12T05:34:02.001Z</time></trkpt><trkpt lat="-31.206306621492235" lon="115.47450674796207"><ele>52.5</ele><time>2026-04-12T05:34:03.001Z</time></trkpt><trkpt lat="-31.206285831650067" lon="115.47437944077343"><ele>52.0</ele><time>2026-04-12T05:34:04.001Z</time></trkpt><trkpt lat="-31.206269579301495" lon="115.47424921329545"><ele>51.5</ele><time>2026-04-12T05:34:05.001Z</time></trkpt><trkpt lat="-31.206261576882625" lon="115.47411755154867"><ele>51.0</ele><time>2026-04-12T05:34:06.001Z</time></trkpt><trkpt lat="-31.206251592808425" lon="115.47397987386175"><ele>51.0</ele><time>2026-04-12T05:34:07.001Z</time></trkpt><trkpt lat="-31.206234471432705" lon="115.47385623020119"><ele>51.0</ele><time>2026-04-12T05:34:08.001Z</time></trkpt><trkpt lat="-31.20621466560771" lon="115.4737317829113"><ele>51.0</ele><time>2026-04-12T05:34:09.001Z</time></trkpt><trkpt lat="-31.206198037582517" lon="115.47361272345633"><ele>51.0</ele><time>2026-04-12T05:34:10.001Z</time></trkpt><trkpt lat="-31.206190631856078" lon="115.4734858730556"><ele>51.0</ele><time>2026-04-12T05:34:11.001Z</time></trkpt><trkpt lat="-31.206178252256873" lon="115.47336638542515"><ele>50.25</ele><time>2026-04-12T05:34:12.001Z</time></trkpt><trkpt lat="-31.206162954173067" lon="115.47322949286877"><ele>49.5</ele><time>2026-04-12T05:34:13.001Z</time></trkpt><trkpt lat="-31.206147403314084" lon="115.47309633575269"><ele>48.75</ele><time>2026-04-12T05:34:14.001Z</time></trkpt><trkpt lat="-31.2061357094375" lon="115.4729610983181"><ele>48.0</ele><time>2026-04-12T05:34:15.001Z</time></trkpt><trkpt lat="-31.20612644551747" lon="115.47282344402713"><ele>48.0</ele><time>2026-04-12T05:34:16.001Z</time></trkpt><trkpt lat="-31.206114452820394" lon="115.47270224095278"><ele>48.0</ele><time>2026-04-12T05:34:17.001Z</time></trkpt><trkpt lat="-31.20610074566844" lon="115.47260499950175"><ele>48.0</ele><time>2026-04-12T05:34:18.001Z</time></trkpt><trkpt lat="-31.206080803772902" lon="115.47252984233815"><ele>48.0</ele><time>2026-04-12T05:34:19.001Z</time></trkpt><trkpt lat="-31.206061161478384" lon="115.47245369313924"><ele>48.0</ele><time>2026-04-12T05:34:20.001Z</time></trkpt><trkpt lat="-31.20603166627055" lon="115.4723472669235"><ele>48.0</ele><time>2026-04-12T05:34:22.001Z</time></trkpt><trkpt lat="-31.205980111350087" lon="115.4722815337502"><ele>48.0</ele><time>2026-04-12T05:34:24.001Z</time></trkpt><trkpt lat="-31.205892907103852" lon="115.47218682294843"><ele>48.0</ele><time>2026-04-12T05:34:26.001Z</time></trkpt><trkpt lat="-31.2058411179453" lon="115.47209959113171"><ele>48.0</ele><time>2026-04-12T05:34:28.001Z</time></trkpt><trkpt lat="-31.205742412113427" lon="115.47205670303575"><ele>48.0</ele><time>2026-04-12T05:34:30.001Z</time></trkpt><trkpt lat="-31.20568982664034" lon="115.4720079465267"><ele>48.0</ele><time>2026-04-12T05:34:31.001Z</time></trkpt><trkpt lat="-31.205637627768663" lon="115.47194531174077"><ele>46.599999999999994</ele><time>2026-04-12T05:34:32.001Z</time></trkpt><trkpt lat="-31.205568479154984" lon="115.4718811758446"><ele>45.199999999999996</ele><time>2026-04-12T05:34:33.001Z</time></trkpt><trkpt lat="-31.20549777516874" lon="115.47181327395575"><ele>43.8</ele><time>2026-04-12T05:34:34.001Z</time></trkpt><trkpt lat="-31.2054171889729" lon="115.47173489676312"><ele>42.4</ele><time>2026-04-12T05:34:35.001Z</time></trkpt><trkpt lat="-31.205325347824136" lon="115.47164828810604"><ele>41.0</ele><time>2026-04-12T05:34:36.001Z</time></trkpt><trkpt lat="-31.20523299402807" lon="115.47155217299492"><ele>41.0</ele><time>2026-04-12T05:34:37.001Z</time></trkpt><trkpt lat="-31.205140873553994" lon="115.47145988763647"><ele>41.0</ele><time>2026-04-12T05:34:38.001Z</time></trkpt><trkpt lat="-31.20504873153123" lon="115.4713654026665"><ele>41.0</ele><time>2026-04-12T05:34:39.001Z</time></trkpt><trkpt lat="-31.204963081360752" lon="115.47127860832923"><ele>41.0</ele><time>2026-04-12T05:34:40.001Z</time></trkpt><trkpt lat="-31.20486831291353" lon="115.4711876566889"><ele>41.5</ele><time>2026-04-12T05:34:41.001Z</time></trkpt><trkpt lat="-31.20476770562156" lon="115.47109713389462"><ele>42.0</ele><time>2026-04-12T05:34:42.001Z</time></trkpt><trkpt lat="-31.204664928551125" lon="115.47100988472147"><ele>42.5</ele><time>2026-04-12T05:34:43.001Z</time></trkpt><trkpt lat="-31.20456586763801" lon="115.470919064857"><ele>43.0</ele><time>2026-04-12T05:34:44.001Z</time></trkpt><trkpt lat="-31.204472129092885" lon="115.47083026539248"><ele>43.0</ele><time>2026-04-12T05:34:45.001Z</time></trkpt><trkpt lat="-31.204379475790255" lon="115.4707517137847"><ele>43.0</ele><time>2026-04-12T05:34:46.001Z</time></trkpt><trkpt lat="-31.204280928020385" lon="115.47067663951127"><ele>43.0</ele><time>2026-04-12T05:34:47.001Z</time></trkpt><trkpt lat="-31.204187016675817" lon="115.47060228184557"><ele>43.0</ele><time>2026-04-12T05:34:48.001Z</time></trkpt><trkpt lat="-31.204097518140248" lon="115.47051557278927"><ele>43.5</ele><time>2026-04-12T05:34:49.001Z</time></trkpt><trkpt lat="-31.204010315463766" lon="115.47041668004651"><ele>44.0</ele><time>2026-04-12T05:34:50.001Z</time></trkpt><trkpt lat="-31.20391077071216" lon="115.47033078455266"><ele>44.5</ele><time>2026-04-12T05:34:51.001Z</time></trkpt><trkpt lat="-31.203796192665724" lon="115.47024059869545"><ele>45.0</ele><time>2026-04-12T05:34:52.001Z</time></trkpt><trkpt lat="-31.203679760463086" lon="115.47013498685807"><ele>45.0</ele><time>2026-04-12T05:34:53.001Z</time></trkpt><trkpt lat="-31.203573269959698" lon="115.47003712864858"><ele>45.0</ele><time>2026-04-12T05:34:54.001Z</time></trkpt><trkpt lat="-31.203481507958678" lon="115.46995273415945"><ele>45.0</ele><time>2026-04-12T05:34:55.001Z</time></trkpt><trkpt lat="-31.203396952858395" lon="115.46986551635317"><ele>45.0</ele><time>2026-04-12T05:34:56.001Z</time></trkpt><trkpt lat="-31.20332045580188" lon="115.46977952355557"><ele>45.0</ele><time>2026-04-12T05:34:57.001Z</time></trkpt><trkpt lat="-31.20324243672624" lon="115.46970943348522"><ele>45.0</ele><time>2026-04-12T05:34:58.001Z</time></trkpt><trkpt lat="-31.20315374815157" lon="115.46964205406569"><ele>45.0</ele><time>2026-04-12T05:34:59.001Z</time></trkpt><trkpt lat="-31.203074622863376" lon="115.46957443559502"><ele>45.0</ele><time>2026-04-12T05:35:00.001Z</time></trkpt><trkpt lat="-31.20298929495606" lon="115.46951183550357"><ele>45.0</ele><time>2026-04-12T05:35:01.001Z</time></trkpt><trkpt lat="-31.202892248389748" lon="115.46945942014445"><ele>45.2</ele><time>2026-04-12T05:35:02.001Z</time></trkpt><trkpt lat="-31.202812657614174" lon="115.46939051834042"><ele>45.4</ele><time>2026-04-12T05:35:03.001Z</time></trkpt><trkpt lat="-31.20274359129208" lon="115.46929488045281"><ele>45.599999999999994</ele><time>2026-04-12T05:35:04.001Z</time></trkpt><trkpt lat="-31.202686713756346" lon="115.46919636759802"><ele>45.8</ele><time>2026-04-12T05:35:05.001Z</time></trkpt><trkpt lat="-31.202632653710832" lon="115.46911443816164"><ele>46.0</ele><time>2026-04-12T05:35:06.001Z</time></trkpt><trkpt lat="-31.202560510081426" lon="115.4690434232567"><ele>46.0</ele><time>2026-04-12T05:35:07.001Z</time></trkpt><trkpt lat="-31.202463633590035" lon="115.46897958531069"><ele>46.0</ele><time>2026-04-12T05:35:08.001Z</time></trkpt><trkpt lat="-31.202366527704207" lon="115.46891044486931"><ele>46.0</ele><time>2026-04-12T05:35:09.001Z</time></trkpt><trkpt lat="-31.202276231058434" lon="115.46881711415229"><ele>46.0</ele><time>2026-04-12T05:35:10.001Z</time></trkpt><trkpt lat="-31.202182787873515" lon="115.46872213157731"><ele>46.5</ele><time>2026-04-12T05:35:11.001Z</time></trkpt><trkpt lat="-31.20210276793992" lon="115.46863884990795"><ele>47.0</ele><time>2026-04-12T05:35:12.001Z</time></trkpt><trkpt lat="-31.202010109439282" lon="115.46853153185741"><ele>47.5</ele><time>2026-04-12T05:35:13.001Z</time></trkpt><trkpt lat="-31.201915127261767" lon="115.46845008171613"><ele>48.0</ele><time>2026-04-12T05:35:14.001Z</time></trkpt><trkpt lat="-31.20181678514418" lon="115.46837771052789"><ele>48.0</ele><time>2026-04-12T05:35:15.001Z</time></trkpt><trkpt lat="-31.20172850255589" lon="115.46830719189941"><ele>48.0</ele><time>2026-04-12T05:35:16.001Z</time></trkpt><trkpt lat="-31.201647867580647" lon="115.46822551196027"><ele>48.0</ele><time>2026-04-12T05:35:17.001Z</time></trkpt><trkpt lat="-31.20157003452885" lon="115.4681642843368"><ele>48.0</ele><time>2026-04-12T05:35:18.001Z</time></trkpt><trkpt lat="-31.201478324745267" lon="115.46811087123845"><ele>48.0</ele><time>2026-04-12T05:35:19.001Z</time></trkpt><trkpt lat="-31.201382950274766" lon="115.46804439793769"><ele>48.0</ele><time>2026-04-12T05:35:20.001Z</time></trkpt><trkpt lat="-31.20130844468971" lon="115.46794660121076"><ele>48.0</ele><time>2026-04-12T05:35:21.001Z</time></trkpt><trkpt lat="-31.201240061806566" lon="115.46784661351246"><ele>48.0</ele><time>2026-04-12T05:35:22.001Z</time></trkpt><trkpt lat="-31.201165352256183" lon="115.46776939547587"><ele>48.0</ele><time>2026-04-12T05:35:23.001Z</time></trkpt><trkpt lat="-31.201076764119446" lon="115.46771443834628"><ele>48.0</ele><time>2026-04-12T05:35:24.001Z</time></trkpt><trkpt lat="-31.200980983214468" lon="115.4676511292945"><ele>48.0</ele><time>2026-04-12T05:35:25.001Z</time></trkpt><trkpt lat="-31.200894273473082" lon="115.46757582313518"><ele>48.0</ele><time>2026-04-12T05:35:26.001Z</time></trkpt><trkpt lat="-31.200823970265663" lon="115.4674816422902"><ele>48.0</ele><time>2026-04-12T05:35:27.001Z</time></trkpt><trkpt lat="-31.200752270067973" lon="115.4673875399428"><ele>48.0</ele><time>2026-04-12T05:35:28.001Z</time></trkpt><trkpt lat="-31.20067511682367" lon="115.46730852101037"><ele>48.0</ele><time>2026-04-12T05:35:29.001Z</time></trkpt><trkpt lat="-31.200587117344266" lon="115.46723647169908"><ele>47.75</ele><time>2026-04-12T05:35:30.001Z</time></trkpt><trkpt lat="-31.200495900742244" lon="115.46715569898963"><ele>47.5</ele><time>2026-04-12T05:35:31.001Z</time></trkpt><trkpt lat="-31.200405189882712" lon="115.46708171724755"><ele>47.25</ele><time>2026-04-12T05:35:32.001Z</time></trkpt><trkpt lat="-31.200315928556062" lon="115.46700469392736"><ele>47.0</ele><time>2026-04-12T05:35:33.001Z</time></trkpt><trkpt lat="-31.20022832032848" lon="115.4669060566172"><ele>46.25</ele><time>2026-04-12T05:35:34.001Z</time></trkpt><trkpt lat="-31.2001424594662" lon="115.46681832727499"><ele>45.5</ele><time>2026-04-12T05:35:35.001Z</time></trkpt><trkpt lat="-31.200051359644775" lon="115.4667323387895"><ele>44.75</ele><time>2026-04-12T05:35:36.001Z</time></trkpt><trkpt lat="-31.19996277809679" lon="115.46663953063653"><ele>44.0</ele><time>2026-04-12T05:35:37.001Z</time></trkpt><trkpt lat="-31.199866847221777" lon="115.46655147784709"><ele>44.25</ele><time>2026-04-12T05:35:38.001Z</time></trkpt><trkpt lat="-31.199776138233158" lon="115.46647126070135"><ele>44.5</ele><time>2026-04-12T05:35:39.001Z</time></trkpt><trkpt lat="-31.19968684723209" lon="115.46638599261007"><ele>44.75</ele><time>2026-04-12T05:35:40.001Z</time></trkpt><trkpt lat="-31.19959753984381" lon="115.46629855821318"><ele>45.0</ele><time>2026-04-12T05:35:41.001Z</time></trkpt><trkpt lat="-31.199501419975267" lon="115.46621174636067"><ele>44.25</ele><time>2026-04-12T05:35:42.001Z</time></trkpt><trkpt lat="-31.19939928603803" lon="115.466126327997"><ele>43.5</ele><time>2026-04-12T05:35:43.001Z</time></trkpt><trkpt lat="-31.199297597457132" lon="115.46604418412504"><ele>42.75</ele><time>2026-04-12T05:35:44.001Z</time></trkpt><trkpt lat="-31.19919282564929" lon="115.46595358352619"><ele>42.0</ele><time>2026-04-12T05:35:45.001Z</time></trkpt><trkpt lat="-31.199087312166895" lon="115.4658468058002"><ele>42.0</ele><time>2026-04-12T05:35:46.001Z</time></trkpt><trkpt lat="-31.198967891981866" lon="115.46573291655643"><ele>42.0</ele><time>2026-04-12T05:35:47.001Z</time></trkpt><trkpt lat="-31.19884729251305" lon="115.46562426838285"><ele>42.0</ele><time>2026-04-12T05:35:48.001Z</time></trkpt><trkpt lat="-31.19874061006174" lon="115.46551981214584"><ele>42.0</ele><time>2026-04-12T05:35:49.001Z</time></trkpt><trkpt lat="-31.198645451091586" lon="115.4654241355126"><ele>42.0</ele><time>2026-04-12T05:35:50.001Z</time></trkpt><trkpt lat="-31.198562114356648" lon="115.46534294904016"><ele>42.0</ele><time>2026-04-12T05:35:51.001Z</time></trkpt><trkpt lat="-31.198482011800184" lon="115.4652595878419"><ele>42.0</ele><time>2026-04-12T05:35:52.001Z</time></trkpt><trkpt lat="-31.19839835601395" lon="115.46517884174271"><ele>42.0</ele><time>2026-04-12T05:35:53.001Z</time></trkpt><trkpt lat="-31.19831597969143" lon="115.46510480904942"><ele>42.0</ele><time>2026-04-12T05:35:54.001Z</time></trkpt><trkpt lat="-31.198235497846518" lon="115.46503387058004"><ele>42.75</ele><time>2026-04-12T05:35:55.001Z</time></trkpt><trkpt lat="-31.19815013231806" lon="115.46495835646665"><ele>43.5</ele><time>2026-04-12T05:35:56.001Z</time></trkpt><trkpt lat="-31.198055324987468" lon="115.46487411643741"><ele>44.25</ele><time>2026-04-12T05:35:57.001Z</time></trkpt><trkpt lat="-31.19795452963581" lon="115.46478256136346"><ele>45.0</ele><time>2026-04-12T05:35:58.001Z</time></trkpt><trkpt lat="-31.197849114892932" lon="115.46468077310728"><ele>45.0</ele><time>2026-04-12T05:35:59.001Z</time></trkpt><trkpt lat="-31.197747096120526" lon="115.46457732778163"><ele>45.0</ele><time>2026-04-12T05:36:00.001Z</time></trkpt><trkpt lat="-31.197645066967095" lon="115.46448649623667"><ele>45.0</ele><time>2026-04-12T05:36:01.001Z</time></trkpt><trkpt lat="-31.197541800152003" lon="115.46439566282963"><ele>45.0</ele><time>2026-04-12T05:36:02.001Z</time></trkpt><trkpt lat="-31.197429536796037" lon="115.46429231310123"><ele>45.333333333333336</ele><time>2026-04-12T05:36:03.001Z</time></trkpt><trkpt lat="-31.197309676376047" lon="115.46418291287236"><ele>45.66666666666667</ele><time>2026-04-12T05:36:04.001Z</time></trkpt><trkpt lat="-31.19717939283843" lon="115.4640631310741"><ele>46.0</ele><time>2026-04-12T05:36:05.001Z</time></trkpt><trkpt lat="-31.197039198467447" lon="115.46393537246095"><ele>46.0</ele><time>2026-04-12T05:36:06.001Z</time></trkpt><trkpt lat="-31.196913930325444" lon="115.46382511591665"><ele>46.0</ele><time>2026-04-12T05:36:07.001Z</time></trkpt><trkpt lat="-31.196793424943458" lon="115.46371654604908"><ele>46.0</ele><time>2026-04-12T05:36:08.001Z</time></trkpt><trkpt lat="-31.196684691460117" lon="115.4636188761589"><ele>46.0</ele><time>2026-04-12T05:36:09.001Z</time></trkpt><trkpt lat="-31.19658586873202" lon="115.46352924939328"><ele>47.0</ele><time>2026-04-12T05:36:10.001Z</time></trkpt><trkpt lat="-31.196496852848465" lon="115.46345442909514"><ele>48.0</ele><time>2026-04-12T05:36:11.001Z</time></trkpt><trkpt lat="-31.196414977922245" lon="115.46338662674206"><ele>49.0</ele><time>2026-04-12T05:36:12.001Z</time></trkpt><trkpt lat="-31.196343422108477" lon="115.4633149140628"><ele>50.0</ele><time>2026-04-12T05:36:13.001Z</time></trkpt><trkpt lat="-31.196264762581773" lon="115.46326165208069"><ele>51.0</ele><time>2026-04-12T05:36:14.001Z</time></trkpt><trkpt lat="-31.19616530009885" lon="115.46322566841211"><ele>51.0</ele><time>2026-04-12T05:36:15.001Z</time></trkpt><trkpt lat="-31.196044127639393" lon="115.46319470625515"><ele>51.0</ele><time>2026-04-12T05:36:16.001Z</time></trkpt><trkpt lat="-31.195904366466113" lon="115.46315913368375"><ele>51.0</ele><time>2026-04-12T05:36:17.001Z</time></trkpt><trkpt lat="-31.195758412731283" lon="115.46311755260317"><ele>51.0</ele><time>2026-04-12T05:36:18.001Z</time></trkpt><trkpt lat="-31.195608286198993" lon="115.46307970547139"><ele>51.0</ele><time>2026-04-12T05:36:19.001Z</time></trkpt><trkpt lat="-31.19546840488678" lon="115.46304813181874"><ele>51.0</ele><time>2026-04-12T05:36:20.001Z</time></trkpt><trkpt lat="-31.19533265439668" lon="115.46302240367912"><ele>51.0</ele><time>2026-04-12T05:36:21.001Z</time></trkpt><trkpt lat="-31.195203627981286" lon="115.46299841693667"><ele>51.0</ele><time>2026-04-12T05:36:22.001Z</time></trkpt><trkpt lat="-31.195071911326377" lon="115.4629715024794"><ele>50.25</ele><time>2026-04-12T05:36:23.001Z</time></trkpt><trkpt lat="-31.194937354366747" lon="115.4629377834313"><ele>49.5</ele><time>2026-04-12T05:36:24.001Z</time></trkpt><trkpt lat="-31.194801703493635" lon="115.46289855195802"><ele>48.75</ele><time>2026-04-12T05:36:25.001Z</time></trkpt><trkpt lat="-31.194663781305525" lon="115.46286783146466"><ele>48.0</ele><time>2026-04-12T05:36:26.001Z</time></trkpt><trkpt lat="-31.194524899342586" lon="115.46284174053262"><ele>48.0</ele><time>2026-04-12T05:36:27.001Z</time></trkpt><trkpt lat="-31.19438559030311" lon="115.46281077375065"><ele>48.0</ele><time>2026-04-12T05:36:28.001Z</time></trkpt><trkpt lat="-31.194249812844024" lon="115.46277985933288"><ele>48.0</ele><time>2026-04-12T05:36:29.001Z</time></trkpt><trkpt lat="-31.194110281864603" lon="115.46275019054222"><ele>48.0</ele><time>2026-04-12T05:36:30.001Z</time></trkpt><trkpt lat="-31.193973961570652" lon="115.46271958558259"><ele>48.0</ele><time>2026-04-12T05:36:31.001Z</time></trkpt><trkpt lat="-31.193835650622354" lon="115.46268407115178"><ele>48.0</ele><time>2026-04-12T05:36:32.001Z</time></trkpt><trkpt lat="-31.193689667287433" lon="115.46264142536502"><ele>48.0</ele><time>2026-04-12T05:36:33.001Z</time></trkpt><trkpt lat="-31.19354774351768" lon="115.46259983645226"><ele>48.0</ele><time>2026-04-12T05:36:34.001Z</time></trkpt><trkpt lat="-31.1933924729266" lon="115.46255961900435"><ele>48.0</ele><time>2026-04-12T05:36:35.001Z</time></trkpt><trkpt lat="-31.193243011583107" lon="115.46252408890786"><ele>48.0</ele><time>2026-04-12T05:36:36.001Z</time></trkpt><trkpt lat="-31.193093809052634" lon="115.46248975345817"><ele>48.0</ele><time>2026-04-12T05:36:37.001Z</time></trkpt><trkpt lat="-31.192951466826653" lon="115.46245334221099"><ele>48.0</ele><time>2026-04-12T05:36:38.001Z</time></trkpt><trkpt lat="-31.192822624686677" lon="115.46242658935998"><ele>48.0</ele><time>2026-04-12T05:36:39.001Z</time></trkpt><trkpt lat="-31.192705999600808" lon="115.46240817918894"><ele>48.0</ele><time>2026-04-12T05:36:40.001Z</time></trkpt><trkpt lat="-31.192600376884528" lon="115.46238655808948"><ele>48.0</ele><time>2026-04-12T05:36:41.001Z</time></trkpt><trkpt lat="-31.192510370421324" lon="115.46236309063909"><ele>48.0</ele><time>2026-04-12T05:36:42.001Z</time></trkpt><trkpt lat="-31.19243090102227" lon="115.46234608164296"><ele>48.0</ele><time>2026-04-12T05:36:43.001Z</time></trkpt><trkpt lat="-31.192367629924632" lon="115.46233950250334"><ele>48.0</ele><time>2026-04-12T05:36:44.001Z</time></trkpt><trkpt lat="-31.192292802102163" lon="115.46233249200708"><ele>48.0</ele><time>2026-04-12T05:37:18.001Z</time></trkpt><trkpt lat="-31.1922097095421" lon="115.4623119293268"><ele>48.0</ele><time>2026-04-12T05:37:20.001Z</time></trkpt><trkpt lat="-31.192093706418962" lon="115.46228712995439"><ele>48.0</ele><time>2026-04-12T05:37:22.001Z</time></trkpt><trkpt lat="-31.192015322815973" lon="115.46226399103807"><ele>48.0</ele><time>2026-04-12T05:37:23.001Z</time></trkpt><trkpt lat="-31.191936261359388" lon="115.46224026589098"><ele>48.0</ele><time>2026-04-12T05:37:24.001Z</time></trkpt><trkpt lat="-31.19185307998399" lon="115.46220867434583"><ele>48.0</ele><time>2026-04-12T05:37:25.001Z</time></trkpt><trkpt lat="-31.191765473779515" lon="115.46217140301982"><ele>48.0</ele><time>2026-04-12T05:37:26.001Z</time></trkpt><trkpt lat="-31.19167333513154" lon="115.46214440068768"><ele>48.0</ele><time>2026-04-12T05:37:27.001Z</time></trkpt><trkpt lat="-31.191573096864847" lon="115.4621317298426"><ele>48.0</ele><time>2026-04-12T05:37:28.001Z</time></trkpt><trkpt lat="-31.191476870009307" lon="115.46213029583716"><ele>48.0</ele><time>2026-04-12T05:37:29.001Z</time></trkpt><trkpt lat="-31.191381660545378" lon="115.4621342652866"><ele>48.0</ele><time>2026-04-12T05:37:30.001Z</time></trkpt><trkpt lat="-31.191291617517354" lon="115.46211069532174"><ele>48.0</ele><time>2026-04-12T05:37:31.001Z</time></trkpt><trkpt lat="-31.19118882381052" lon="115.46206604742706"><ele>48.0</ele><time>2026-04-12T05:37:32.001Z</time></trkpt><trkpt lat="-31.191078475231127" lon="115.46203739333923"><ele>48.0</ele><time>2026-04-12T05:37:33.001Z</time></trkpt><trkpt lat="-31.190957811673986" lon="115.46202572736773"><ele>48.2</ele><time>2026-04-12T05:37:34.001Z</time></trkpt><trkpt lat="-31.190850360642575" lon="115.4619970850947"><ele>48.4</ele><time>2026-04-12T05:37:35.001Z</time></trkpt><trkpt lat="-31.190760267229756" lon="115.46194868278408"><ele>48.6</ele><time>2026-04-12T05:37:36.001Z</time></trkpt><trkpt lat="-31.19067268587583" lon="115.46189835332336"><ele>48.800000000000004</ele><time>2026-04-12T05:37:37.001Z</time></trkpt><trkpt lat="-31.19058971666805" lon="115.46185457186452"><ele>49.0</ele><time>2026-04-12T05:37:38.001Z</time></trkpt><trkpt lat="-31.190522481222658" lon="115.46179938401059"><ele>48.99999999999999</ele><time>2026-04-12T05:37:39.001Z</time></trkpt><trkpt lat="-31.190469567758875" lon="115.46174017678516"><ele>49.0</ele><time>2026-04-12T05:37:40.001Z</time></trkpt><trkpt lat="-31.190433749105537" lon="115.46167190601986"><ele>49.0</ele><time>2026-04-12T05:37:41.001Z</time></trkpt><trkpt lat="-31.19039193131652" lon="115.46160519161288"><ele>49.0</ele><time>2026-04-12T05:37:42.001Z</time></trkpt><trkpt lat="-31.190331648884513" lon="115.46156172616212"><ele>48.99999999999999</ele><time>2026-04-12T05:37:43.001Z</time></trkpt><trkpt lat="-31.1902550062673" lon="115.46151380531158"><ele>49.0</ele><time>2026-04-12T05:37:44.001Z</time></trkpt><trkpt lat="-31.1901837004596" lon="115.4614509126805"><ele>49.0</ele><time>2026-04-12T05:37:45.001Z</time></trkpt><trkpt lat="-31.190112255846813" lon="115.46138078151387"><ele>49.0</ele><time>2026-04-12T05:37:46.001Z</time></trkpt><trkpt lat="-31.190036925893402" lon="115.46131151990457"><ele>49.0</ele><time>2026-04-12T05:37:47.001Z</time></trkpt><trkpt lat="-31.189955169450137" lon="115.46124455262901"><ele>49.0</ele><time>2026-04-12T05:37:48.001Z</time></trkpt><trkpt lat="-31.18986831149682" lon="115.46117579421664"><ele>49.0</ele><time>2026-04-12T05:37:49.001Z</time></trkpt><trkpt lat="-31.18977482284148" lon="115.46110084588938"><ele>48.0</ele><time>2026-04-12T05:37:50.001Z</time></trkpt><trkpt lat="-31.189672502547932" lon="115.46103472193144"><ele>47.0</ele><time>2026-04-12T05:37:51.001Z</time></trkpt><trkpt lat="-31.18956079090131" lon="115.46095334432522"><ele>46.0</ele><time>2026-04-12T05:37:52.001Z</time></trkpt><trkpt lat="-31.18945007905653" lon="115.4608582454873"><ele>45.0</ele><time>2026-04-12T05:37:53.001Z</time></trkpt><trkpt lat="-31.189343359170504" lon="115.46076367044886"><ele>45.0</ele><time>2026-04-12T05:37:54.001Z</time></trkpt><trkpt lat="-31.189234567939803" lon="115.46066306746614"><ele>45.0</ele><time>2026-04-12T05:37:55.001Z</time></trkpt><trkpt lat="-31.18911657533353" lon="115.46056262055698"><ele>45.0</ele><time>2026-04-12T05:37:56.001Z</time></trkpt><trkpt lat="-31.18899666956877" lon="115.46045456522981"><ele>45.0</ele><time>2026-04-12T05:37:57.001Z</time></trkpt><trkpt lat="-31.188869769571884" lon="115.46034352796414"><ele>45.333333333333336</ele><time>2026-04-12T05:37:58.001Z</time></trkpt><trkpt lat="-31.188726041523097" lon="115.46022062638853"><ele>45.66666666666667</ele><time>2026-04-12T05:37:59.001Z</time></trkpt><trkpt lat="-31.18858375475606" lon="115.4600981058099"><ele>46.0</ele><time>2026-04-12T05:38:00.001Z</time></trkpt><trkpt lat="-31.1884476428202" lon="115.45997950521034"><ele>46.0</ele><time>2026-04-12T05:38:01.001Z</time></trkpt><trkpt lat="-31.18833067156704" lon="115.45987608970486"><ele>46.0</ele><time>2026-04-12T05:38:02.001Z</time></trkpt><trkpt lat="-31.188221957915903" lon="115.45977856375785"><ele>46.0</ele><time>2026-04-12T05:38:03.001Z</time></trkpt><trkpt lat="-31.188113118009948" lon="115.45968472984607"><ele>46.0</ele><time>2026-04-12T05:38:04.001Z</time></trkpt><trkpt lat="-31.18800649444967" lon="115.45959148011455"><ele>46.0</ele><time>2026-04-12T05:38:05.001Z</time></trkpt><trkpt lat="-31.187905670557882" lon="115.45950369763338"><ele>46.0</ele><time>2026-04-12T05:38:06.001Z</time></trkpt><trkpt lat="-31.187809848174712" lon="115.45940574945922"><ele>46.0</ele><time>2026-04-12T05:38:07.001Z</time></trkpt><trkpt lat="-31.187714251099685" lon="115.45930470824298"><ele>46.0</ele><time>2026-04-12T05:38:08.001Z</time></trkpt><trkpt lat="-31.187610595601264" lon="115.45922276918465"><ele>46.0</ele><time>2026-04-12T05:38:09.001Z</time></trkpt><trkpt lat="-31.187516426405" lon="115.45915600028886"><ele>46.0</ele><time>2026-04-12T05:38:10.001Z</time></trkpt><trkpt lat="-31.187428163404867" lon="115.45908508489934"><ele>46.0</ele><time>2026-04-12T05:38:11.001Z</time></trkpt><trkpt lat="-31.187347338722354" lon="115.45901342448627"><ele>46.0</ele><time>2026-04-12T05:38:12.001Z</time></trkpt><trkpt lat="-31.187270172900163" lon="115.45895078431465"><ele>46.0</ele><time>2026-04-12T05:38:13.001Z</time></trkpt><trkpt lat="-31.187192148617402" lon="115.45887557089343"><ele>45.5</ele><time>2026-04-12T05:38:14.001Z</time></trkpt><trkpt lat="-31.187112437213045" lon="115.45880015021251"><ele>45.0</ele><time>2026-04-12T05:38:15.001Z</time></trkpt><trkpt lat="-31.187035610858953" lon="115.45873964217523"><ele>44.5</ele><time>2026-04-12T05:38:16.001Z</time></trkpt><trkpt lat="-31.186960750206875" lon="115.45869507399105"><ele>44.0</ele><time>2026-04-12T05:38:17.001Z</time></trkpt><trkpt lat="-31.18688039489938" lon="115.45866076600691"><ele>43.5</ele><time>2026-04-12T05:38:18.001Z</time></trkpt><trkpt lat="-31.18680570441008" lon="115.45861599579324"><ele>43.0</ele><time>2026-04-12T05:38:19.001Z</time></trkpt><trkpt lat="-31.186739792228824" lon="115.45853824287106"><ele>42.599999999999994</ele><time>2026-04-12T05:38:20.001Z</time></trkpt><trkpt lat="-31.18667865904941" lon="115.45844100785084"><ele>42.199999999999996</ele><time>2026-04-12T05:38:21.001Z</time></trkpt><trkpt lat="-31.1866031388429" lon="115.45835197405275"><ele>41.8</ele><time>2026-04-12T05:38:22.001Z</time></trkpt><trkpt lat="-31.186503972716718" lon="115.45827660907739"><ele>41.4</ele><time>2026-04-12T05:38:23.001Z</time></trkpt><trkpt lat="-31.186401924339425" lon="115.45820266293897"><ele>41.0</ele><time>2026-04-12T05:38:24.001Z</time></trkpt><trkpt lat="-31.18630763302596" lon="115.4581245168584"><ele>41.0</ele><time>2026-04-12T05:38:25.001Z</time></trkpt><trkpt lat="-31.186215723366217" lon="115.4580454999962"><ele>41.0</ele><time>2026-04-12T05:38:26.001Z</time></trkpt><trkpt lat="-31.186116720836836" lon="115.45795757292383"><ele>41.0</ele><time>2026-04-12T05:38:27.001Z</time></trkpt><trkpt lat="-31.186023161807437" lon="115.45787187492917"><ele>41.0</ele><time>2026-04-12T05:38:28.001Z</time></trkpt><trkpt lat="-31.18592639156959" lon="115.45779209938476"><ele>41.0</ele><time>2026-04-12T05:38:29.001Z</time></trkpt><trkpt lat="-31.18582216549015" lon="115.45770694844902"><ele>41.0</ele><time>2026-04-12T05:38:30.001Z</time></trkpt><trkpt lat="-31.185723719200947" lon="115.45762701247861"><ele>41.0</ele><time>2026-04-12T05:38:31.001Z</time></trkpt><trkpt lat="-31.185627499873263" lon="115.45754541015813"><ele>41.0</ele><time>2026-04-12T05:38:32.001Z</time></trkpt><trkpt lat="-31.18554060253202" lon="115.45745640685873"><ele>41.0</ele><time>2026-04-12T05:38:33.001Z</time></trkpt><trkpt lat="-31.185463018572754" lon="115.45736584058135"><ele>41.0</ele><time>2026-04-12T05:38:34.001Z</time></trkpt><trkpt lat="-31.185387138301635" lon="115.45729021309094"><ele>41.0</ele><time>2026-04-12T05:38:35.001Z</time></trkpt><trkpt lat="-31.185302526289615" lon="115.45721755173915"><ele>41.0</ele><time>2026-04-12T05:38:36.001Z</time></trkpt><trkpt lat="-31.185209543101784" lon="115.45714801040822"><ele>41.0</ele><time>2026-04-12T05:38:37.001Z</time></trkpt><trkpt lat="-31.18512033762177" lon="115.45706990237197"><ele>41.199999999999996</ele><time>2026-04-12T05:38:38.001Z</time></trkpt><trkpt lat="-31.185031689068943" lon="115.45699059759541"><ele>41.4</ele><time>2026-04-12T05:38:39.001Z</time></trkpt><trkpt lat="-31.184941717144557" lon="115.4569144089462"><ele>41.6</ele><time>2026-04-12T05:38:40.001Z</time></trkpt><trkpt lat="-31.184850500819756" lon="115.45684031706114"><ele>41.8</ele><time>2026-04-12T05:38:41.001Z</time></trkpt><trkpt lat="-31.184757783708722" lon="115.45677728185409"><ele>42.0</ele><time>2026-04-12T05:38:42.001Z</time></trkpt><trkpt lat="-31.18465991661618" lon="115.4567277607166"><ele>42.0</ele><time>2026-04-12T05:38:43.001Z</time></trkpt><trkpt lat="-31.184558797077788" lon="115.45669227665202"><ele>42.0</ele><time>2026-04-12T05:38:44.001Z</time></trkpt><trkpt lat="-31.184458003128686" lon="115.45666282681063"><ele>42.0</ele><time>2026-04-12T05:38:45.001Z</time></trkpt><trkpt lat="-31.184354815244703" lon="115.45665744333684"><ele>42.0</ele><time>2026-04-12T05:38:46.001Z</time></trkpt><trkpt lat="-31.18424050831673" lon="115.45666836114803"><ele>42.0</ele><time>2026-04-12T05:38:47.001Z</time></trkpt><trkpt lat="-31.1841126041704" lon="115.45668411503965"><ele>41.75</ele><time>2026-04-12T05:38:48.001Z</time></trkpt><trkpt lat="-31.18397674760457" lon="115.45669623487511"><ele>41.5</ele><time>2026-04-12T05:38:49.001Z</time></trkpt><trkpt lat="-31.183841449820406" lon="115.45670420595646"><ele>41.25</ele><time>2026-04-12T05:38:50.001Z</time></trkpt><trkpt lat="-31.18370590324132" lon="115.45671167284587"><ele>41.0</ele><time>2026-04-12T05:38:51.001Z</time></trkpt><trkpt lat="-31.183584286139926" lon="115.45670998031872"><ele>41.0</ele><time>2026-04-12T05:38:52.001Z</time></trkpt><trkpt lat="-31.183470104132734" lon="115.45670717104571"><ele>41.0</ele><time>2026-04-12T05:38:53.001Z</time></trkpt><trkpt lat="-31.183353712589355" lon="115.45671160863745"><ele>41.0</ele><time>2026-04-12T05:38:54.001Z</time></trkpt><trkpt lat="-31.183238545850674" lon="115.45671169978174"><ele>41.0</ele><time>2026-04-12T05:38:55.001Z</time></trkpt><trkpt lat="-31.18311707895268" lon="115.45669565094909"><ele>42.599999999999994</ele><time>2026-04-12T05:38:56.001Z</time></trkpt><trkpt lat="-31.182998754351686" lon="115.45668935424787"><ele>44.2</ele><time>2026-04-12T05:38:57.001Z</time></trkpt><trkpt lat="-31.18290117039588" lon="115.45669563323602"><ele>45.8</ele><time>2026-04-12T05:38:58.001Z</time></trkpt><trkpt lat="-31.18280375919971" lon="115.45670221270571"><ele>47.400000000000006</ele><time>2026-04-12T05:38:59.001Z</time></trkpt><trkpt lat="-31.182698222495347" lon="115.4567075591912"><ele>49.0</ele><time>2026-04-12T05:39:00.001Z</time></trkpt><trkpt lat="-31.182598315192415" lon="115.45670164565917"><ele>49.0</ele><time>2026-04-12T05:39:01.001Z</time></trkpt><trkpt lat="-31.182495459718652" lon="115.45669627098341"><ele>49.0</ele><time>2026-04-12T05:39:02.001Z</time></trkpt><trkpt lat="-31.182388238570866" lon="115.4566949641337"><ele>49.0</ele><time>2026-04-12T05:39:03.001Z</time></trkpt><trkpt lat="-31.18229234233017" lon="115.45669041998894"><ele>49.0</ele><time>2026-04-12T05:39:04.001Z</time></trkpt><trkpt lat="-31.18219791095378" lon="115.45669380925067"><ele>49.0</ele><time>2026-04-12T05:39:05.001Z</time></trkpt><trkpt lat="-31.182099870212234" lon="115.45670764593457"><ele>49.0</ele><time>2026-04-12T05:39:06.001Z</time></trkpt><trkpt lat="-31.182001240986857" lon="115.45672953623382"><ele>49.0</ele><time>2026-04-12T05:39:07.001Z</time></trkpt><trkpt lat="-31.181906367476753" lon="115.45673551534979"><ele>49.0</ele><time>2026-04-12T05:39:08.001Z</time></trkpt><trkpt lat="-31.181790210011094" lon="115.4567239513209"><ele>49.0</ele><time>2026-04-12T05:39:09.001Z</time></trkpt><trkpt lat="-31.18166071614272" lon="115.45672069845719"><ele>49.0</ele><time>2026-04-12T05:39:10.001Z</time></trkpt><trkpt lat="-31.181527148770588" lon="115.45672050814028"><ele>48.5</ele><time>2026-04-12T05:39:11.001Z</time></trkpt><trkpt lat="-31.181407832315585" lon="115.45671621726194"><ele>48.0</ele><time>2026-04-12T05:39:12.001Z</time></trkpt><trkpt lat="-31.181292835751474" lon="115.45670685145683"><ele>47.5</ele><time>2026-04-12T05:39:13.001Z</time></trkpt><trkpt lat="-31.181178685419198" lon="115.45670317505552"><ele>47.0</ele><time>2026-04-12T05:39:14.001Z</time></trkpt><trkpt lat="-31.181055731083717" lon="115.45670605024047"><ele>47.0</ele><time>2026-04-12T05:39:15.001Z</time></trkpt><trkpt lat="-31.18093478437285" lon="115.45671540798166"><ele>47.0</ele><time>2026-04-12T05:39:16.001Z</time></trkpt><trkpt lat="-31.180813920508513" lon="115.45671896814623"><ele>47.0</ele><time>2026-04-12T05:39:17.001Z</time></trkpt><trkpt lat="-31.18069616440255" lon="115.45672325827515"><ele>47.0</ele><time>2026-04-12T05:39:18.001Z</time></trkpt><trkpt lat="-31.180576610882675" lon="115.4567235333397"><ele>47.0</ele><time>2026-04-12T05:39:19.001Z</time></trkpt><trkpt lat="-31.180460772434312" lon="115.45672465454639"><ele>47.0</ele><time>2026-04-12T05:39:20.001Z</time></trkpt><trkpt lat="-31.180341193778194" lon="115.45672525776675"><ele>47.0</ele><time>2026-04-12T05:39:21.001Z</time></trkpt><trkpt lat="-31.180222326716194" lon="115.4567245975166"><ele>47.0</ele><time>2026-04-12T05:39:22.001Z</time></trkpt><trkpt lat="-31.18008814015282" lon="115.45672706310201"><ele>47.0</ele><time>2026-04-12T05:39:23.001Z</time></trkpt><trkpt lat="-31.179961672698738" lon="115.45673464905155"><ele>47.0</ele><time>2026-04-12T05:39:24.001Z</time></trkpt><trkpt lat="-31.179838006740596" lon="115.45673536139333"><ele>47.0</ele><time>2026-04-12T05:39:25.001Z</time></trkpt><trkpt lat="-31.179710967045647" lon="115.4567366356775"><ele>47.0</ele><time>2026-04-12T05:39:26.001Z</time></trkpt><trkpt lat="-31.179588303596983" lon="115.45674383552705"><ele>46.2</ele><time>2026-04-12T05:39:27.001Z</time></trkpt><trkpt lat="-31.179462945116065" lon="115.45675151308507"><ele>45.400000000000006</ele><time>2026-04-12T05:39:28.001Z</time></trkpt><trkpt lat="-31.179346344712336" lon="115.45676448967149"><ele>44.599999999999994</ele><time>2026-04-12T05:39:29.001Z</time></trkpt><trkpt lat="-31.179244313238772" lon="115.45679756759782"><ele>43.8</ele><time>2026-04-12T05:39:30.001Z</time></trkpt><trkpt lat="-31.179168665943475" lon="115.45684849170442"><ele>43.0</ele><time>2026-04-12T05:39:31.001Z</time></trkpt><trkpt lat="-31.179097500303005" lon="115.45691749512775"><ele>43.0</ele><time>2026-04-12T05:39:32.001Z</time></trkpt><trkpt lat="-31.179031315269746" lon="115.4570012919615"><ele>43.0</ele><time>2026-04-12T05:39:33.001Z</time></trkpt><trkpt lat="-31.178982126400314" lon="115.45707995001125"><ele>43.0</ele><time>2026-04-12T05:39:34.001Z</time></trkpt><trkpt lat="-31.178912923890042" lon="115.45716650652443"><ele>43.0</ele><time>2026-04-12T05:39:35.001Z</time></trkpt><trkpt lat="-31.17882584254935" lon="115.45725160621839"><ele>43.0</ele><time>2026-04-12T05:39:36.001Z</time></trkpt><trkpt lat="-31.178732676732565" lon="115.45735225524186"><ele>45.5</ele><time>2026-04-12T05:39:37.001Z</time></trkpt><trkpt lat="-31.17864456916546" lon="115.45746259183228"><ele>48.0</ele><time>2026-04-12T05:39:38.001Z</time></trkpt><trkpt lat="-31.17855378304069" lon="115.45758564178645"><ele>50.5</ele><time>2026-04-12T05:39:39.001Z</time></trkpt><trkpt lat="-31.17844524968958" lon="115.45771361845317"><ele>53.0</ele><time>2026-04-12T05:39:40.001Z</time></trkpt><trkpt lat="-31.178336858701705" lon="115.45784044397497"><ele>53.25</ele><time>2026-04-12T05:39:41.001Z</time></trkpt><trkpt lat="-31.178231688508344" lon="115.45796740117932"><ele>53.5</ele><time>2026-04-12T05:39:42.001Z</time></trkpt><trkpt lat="-31.178131373708542" lon="115.45808891346219"><ele>53.75</ele><time>2026-04-12T05:39:43.001Z</time></trkpt><trkpt lat="-31.178035093289846" lon="115.45818879025556"><ele>54.0</ele><time>2026-04-12T05:39:44.001Z</time></trkpt><trkpt lat="-31.1779380762502" lon="115.45828043034555"><ele>55.0</ele><time>2026-04-12T05:39:45.001Z</time></trkpt><trkpt lat="-31.17785310366989" lon="115.45838541359157"><ele>56.0</ele><time>2026-04-12T05:39:46.001Z</time></trkpt><trkpt lat="-31.17775946022899" lon="115.45850704133863"><ele>57.0</ele><time>2026-04-12T05:39:47.001Z</time></trkpt><trkpt lat="-31.177654290742154" lon="115.45862403441429"><ele>58.0</ele><time>2026-04-12T05:39:48.001Z</time></trkpt><trkpt lat="-31.17754555597082" lon="115.458748086486"><ele>58.0</ele><time>2026-04-12T05:39:49.001Z</time></trkpt><trkpt lat="-31.17743980314849" lon="115.4588759047415"><ele>58.0</ele><time>2026-04-12T05:39:50.001Z</time></trkpt><trkpt lat="-31.177328203061293" lon="115.45900864920843"><ele>58.0</ele><time>2026-04-12T05:39:51.001Z</time></trkpt><trkpt lat="-31.177213279882437" lon="115.45913852291768"><ele>57.666666666666664</ele><time>2026-04-12T05:39:52.001Z</time></trkpt><trkpt lat="-31.177103286492535" lon="115.45926611569251"><ele>57.33333333333333</ele><time>2026-04-12T05:39:53.001Z</time></trkpt><trkpt lat="-31.176996611374655" lon="115.45939620405049"><ele>57.0</ele><time>2026-04-12T05:39:54.001Z</time></trkpt><trkpt lat="-31.176886247642877" lon="115.45952059213597"><ele>58.33333333333333</ele><time>2026-04-12T05:39:55.001Z</time></trkpt><trkpt lat="-31.17677284484353" lon="115.45964284848742"><ele>59.666666666666664</ele><time>2026-04-12T05:39:56.001Z</time></trkpt><trkpt lat="-31.176668882438378" lon="115.45976637430758"><ele>61.0</ele><time>2026-04-12T05:39:57.001Z</time></trkpt><trkpt lat="-31.176559259185478" lon="115.45989386405603"><ele>60.25</ele><time>2026-04-12T05:39:58.001Z</time></trkpt><trkpt lat="-31.176458684530388" lon="115.4600217638573"><ele>59.5</ele><time>2026-04-12T05:39:59.001Z</time></trkpt><trkpt lat="-31.17636294872042" lon="115.46015192261207"><ele>58.75</ele><time>2026-04-12T05:40:00.001Z</time></trkpt><trkpt lat="-31.176261454816395" lon="115.46027413177143"><ele>58.0</ele><time>2026-04-12T05:40:01.001Z</time></trkpt><trkpt lat="-31.176166344959775" lon="115.4603950174019"><ele>58.5</ele><time>2026-04-12T05:40:02.001Z</time></trkpt><trkpt lat="-31.17606567567011" lon="115.4605085927589"><ele>59.0</ele><time>2026-04-12T05:40:03.001Z</time></trkpt><trkpt lat="-31.175960423872084" lon="115.46061659370741"><ele>59.5</ele><time>2026-04-12T05:40:04.001Z</time></trkpt><trkpt lat="-31.17585623943782" lon="115.4607293279552"><ele>60.0</ele><time>2026-04-12T05:40:05.001Z</time></trkpt><trkpt lat="-31.175766456940707" lon="115.46084614046755"><ele>60.0</ele><time>2026-04-12T05:40:06.001Z</time></trkpt><trkpt lat="-31.175683769086167" lon="115.46095656280394"><ele>60.0</ele><time>2026-04-12T05:40:07.001Z</time></trkpt><trkpt lat="-31.17561623964218" lon="115.46104548610074"><ele>60.0</ele><time>2026-04-12T05:40:08.001Z</time></trkpt><trkpt lat="-31.17555107817049" lon="115.46112022726643"><ele>60.0</ele><time>2026-04-12T05:40:09.001Z</time></trkpt><trkpt lat="-31.175482873297135" lon="115.4611810189612"><ele>60.0</ele><time>2026-04-12T05:40:10.001Z</time></trkpt><trkpt lat="-31.175406574242185" lon="115.46122344352621"><ele>60.0</ele><time>2026-04-12T05:40:11.001Z</time></trkpt><trkpt lat="-31.175319815414326" lon="115.46123852737166"><ele>60.0</ele><time>2026-04-12T05:40:12.001Z</time></trkpt><trkpt lat="-31.17521524649635" lon="115.46122951191109"><ele>60.0</ele><time>2026-04-12T05:40:13.001Z</time></trkpt><trkpt lat="-31.17509541414296" lon="115.46123003884078"><ele>60.0</ele><time>2026-04-12T05:40:14.001Z</time></trkpt><trkpt lat="-31.174963085830214" lon="115.46122542666937"><ele>60.0</ele><time>2026-04-12T05:40:15.001Z</time></trkpt><trkpt lat="-31.174820747465013" lon="115.46120612034713"><ele>60.25</ele><time>2026-04-12T05:40:16.001Z</time></trkpt><trkpt lat="-31.174672862387514" lon="115.46120025285084"><ele>60.5</ele><time>2026-04-12T05:40:17.001Z</time></trkpt><trkpt lat="-31.17453083317934" lon="115.46121260337931"><ele>60.75</ele><time>2026-04-12T05:40:18.001Z</time></trkpt><trkpt lat="-31.174378541140907" lon="115.46122025406814"><ele>61.0</ele><time>2026-04-12T05:40:19.001Z</time></trkpt><trkpt lat="-31.17423289154336" lon="115.46122480383818"><ele>61.0</ele><time>2026-04-12T05:40:20.001Z</time></trkpt><trkpt lat="-31.17407812069354" lon="115.4612307725924"><ele>61.0</ele><time>2026-04-12T05:40:21.001Z</time></trkpt><trkpt lat="-31.17391819698986" lon="115.46123628989038"><ele>61.0</ele><time>2026-04-12T05:40:22.001Z</time></trkpt><trkpt lat="-31.173760746165918" lon="115.46122790311594"><ele>60.33333333333333</ele><time>2026-04-12T05:40:23.001Z</time></trkpt><trkpt lat="-31.173607846803126" lon="115.46121699172868"><ele>59.66666666666667</ele><time>2026-04-12T05:40:24.001Z</time></trkpt><trkpt lat="-31.173458661018156" lon="115.46122459385914"><ele>59.0</ele><time>2026-04-12T05:40:25.001Z</time></trkpt><trkpt lat="-31.173304545423786" lon="115.46123017706465"><ele>57.66666666666667</ele><time>2026-04-12T05:40:26.001Z</time></trkpt><trkpt lat="-31.173138484784896" lon="115.46123025721674"><ele>56.33333333333333</ele><time>2026-04-12T05:40:27.001Z</time></trkpt><trkpt lat="-31.172981222839553" lon="115.46123408250146"><ele>55.0</ele><time>2026-04-12T05:40:28.001Z</time></trkpt><trkpt lat="-31.172817221681026" lon="115.46123526181717"><ele>55.0</ele><time>2026-04-12T05:40:29.001Z</time></trkpt><trkpt lat="-31.172654947673593" lon="115.4612327011086"><ele>55.0</ele><time>2026-04-12T05:40:30.001Z</time></trkpt><trkpt lat="-31.1724938143399" lon="115.46123060972266"><ele>55.0</ele><time>2026-04-12T05:40:31.001Z</time></trkpt><trkpt lat="-31.17232068678975" lon="115.46123293351125"><ele>55.33333333333333</ele><time>2026-04-12T05:40:32.001Z</time></trkpt><trkpt lat="-31.172148463314443" lon="115.46123917532233"><ele>55.66666666666667</ele><time>2026-04-12T05:40:33.001Z</time></trkpt><trkpt lat="-31.171979181985762" lon="115.4612406165743"><ele>56.0</ele><time>2026-04-12T05:40:34.001Z</time></trkpt><trkpt lat="-31.17181479394108" lon="115.46124171996055"><ele>56.0</ele><time>2026-04-12T05:40:35.001Z</time></trkpt><trkpt lat="-31.171657476732427" lon="115.46124712172926"><ele>56.0</ele><time>2026-04-12T05:40:36.001Z</time></trkpt><trkpt lat="-31.171505289311618" lon="115.46125713079581"><ele>56.0</ele><time>2026-04-12T05:40:37.001Z</time></trkpt><trkpt lat="-31.171358206207664" lon="115.4612706605935"><ele>57.0</ele><time>2026-04-12T05:40:38.001Z</time></trkpt><trkpt lat="-31.171211027867404" lon="115.46127866072425"><ele>58.0</ele><time>2026-04-12T05:40:39.001Z</time></trkpt><trkpt lat="-31.171072211169612" lon="115.46126927788114"><ele>59.0</ele><time>2026-04-12T05:40:40.001Z</time></trkpt><trkpt lat="-31.170932102300718" lon="115.46126126294439"><ele>60.0</ele><time>2026-04-12T05:40:41.001Z</time></trkpt><trkpt lat="-31.17079466798305" lon="115.46126073348638"><ele>60.25</ele><time>2026-04-12T05:40:42.001Z</time></trkpt><trkpt lat="-31.17065565235414" lon="115.4612719046427"><ele>60.5</ele><time>2026-04-12T05:40:43.001Z</time></trkpt><trkpt lat="-31.170511042417086" lon="115.46127895843439"><ele>60.75</ele><time>2026-04-12T05:40:44.001Z</time></trkpt><trkpt lat="-31.17038700413468" lon="115.4612879776761"><ele>61.0</ele><time>2026-04-12T05:40:45.001Z</time></trkpt><trkpt lat="-31.170266158124498" lon="115.4613020628954"><ele>61.0</ele><time>2026-04-12T05:40:46Z</time></trkpt><trkpt lat="-31.170148125440175" lon="115.4613043862369"><ele>61.0</ele><time>2026-04-12T05:40:47Z</time></trkpt><trkpt lat="-31.17003228921019" lon="115.46130140797132"><ele>61.0</ele><time>2026-04-12T05:40:48Z</time></trkpt><trkpt lat="-31.169911699655344" lon="115.46129245004056"><ele>61.0</ele><time>2026-04-12T05:40:49Z</time></trkpt><trkpt lat="-31.16979415787005" lon="115.46127763144581"><ele>60.0</ele><time>2026-04-12T05:40:50Z</time></trkpt><trkpt lat="-31.169669926307833" lon="115.46126443531787"><ele>59.0</ele><time>2026-04-12T05:40:51Z</time></trkpt><trkpt lat="-31.16953919757694" lon="115.46126306055771"><ele>58.0</ele><time>2026-04-12T05:40:52Z</time></trkpt><trkpt lat="-31.169411676916084" lon="115.46126864232869"><ele>57.0</ele><time>2026-04-12T05:40:53Z</time></trkpt><trkpt lat="-31.169293449039525" lon="115.46127102341487"><ele>57.0</ele><time>2026-04-12T05:40:54Z</time></trkpt><trkpt lat="-31.16918138063869" lon="115.46126532028416"><ele>57.0</ele><time>2026-04-12T05:40:55Z</time></trkpt><trkpt lat="-31.16907689573103" lon="115.46126788400962"><ele>57.0</ele><time>2026-04-12T05:40:56Z</time></trkpt><trkpt lat="-31.16898244888975" lon="115.46128783883857"><ele>57.0</ele><time>2026-04-12T05:40:57Z</time></trkpt><trkpt lat="-31.1688973279097" lon="115.46131495175396"><ele>57.0</ele><time>2026-04-12T05:40:58Z</time></trkpt><trkpt lat="-31.168812370086734" lon="115.4613381222467"><ele>57.5</ele><time>2026-04-12T05:40:59Z</time></trkpt><trkpt lat="-31.168719782216623" lon="115.46133958652011"><ele>58.0</ele><time>2026-04-12T05:41:00Z</time></trkpt><trkpt lat="-31.168604469178522" lon="115.46132587091512"><ele>58.5</ele><time>2026-04-12T05:41:01Z</time></trkpt><trkpt lat="-31.16847716216437" lon="115.46131209584219"><ele>59.0</ele><time>2026-04-12T05:41:02Z</time></trkpt><trkpt lat="-31.168346110075735" lon="115.46130964485609"><ele>59.0</ele><time>2026-04-12T05:41:03Z</time></trkpt><trkpt lat="-31.168206011010128" lon="115.46130656735245"><ele>59.0</ele><time>2026-04-12T05:41:04Z</time></trkpt><trkpt lat="-31.168062715472402" lon="115.46129965380534"><ele>59.0</ele><time>2026-04-12T05:41:05Z</time></trkpt><trkpt lat="-31.167912639522292" lon="115.46128879742409"><ele>59.0</ele><time>2026-04-12T05:41:06Z</time></trkpt><trkpt lat="-31.16775822418845" lon="115.46128450207506"><ele>58.333333333333336</ele><time>2026-04-12T05:41:07Z</time></trkpt><trkpt lat="-31.167604169219622" lon="115.4612887781801"><ele>57.66666666666667</ele><time>2026-04-12T05:41:08Z</time></trkpt><trkpt lat="-31.16744720525627" lon="115.46129407518148"><ele>57.0</ele><time>2026-04-12T05:41:09Z</time></trkpt><trkpt lat="-31.167288588857115" lon="115.46130320370585"><ele>56.66666666666667</ele><time>2026-04-12T05:41:10Z</time></trkpt><trkpt lat="-31.16713114387658" lon="115.46130554858341"><ele>56.333333333333336</ele><time>2026-04-12T05:41:11Z</time></trkpt><trkpt lat="-31.166977348561137" lon="115.46129843344852"><ele>56.0</ele><time>2026-04-12T05:41:12Z</time></trkpt><trkpt lat="-31.16683577858555" lon="115.46129226121025"><ele>56.0</ele><time>2026-04-12T05:41:13Z</time></trkpt><trkpt lat="-31.16670266958898" lon="115.46130084683318"><ele>56.0</ele><time>2026-04-12T05:41:14Z</time></trkpt><trkpt lat="-31.166561719465957" lon="115.46131724576941"><ele>56.0</ele><time>2026-04-12T05:41:15Z</time></trkpt><trkpt lat="-31.166422781184142" lon="115.46132663926215"><ele>56.0</ele><time>2026-04-12T05:41:16Z</time></trkpt><trkpt lat="-31.16628901218706" lon="115.46133278394937"><ele>56.199999999999996</ele><time>2026-04-12T05:41:17Z</time></trkpt><trkpt lat="-31.166162952214744" lon="115.46134817687665"><ele>56.39999999999999</ele><time>2026-04-12T05:41:18Z</time></trkpt><trkpt lat="-31.166050497976762" lon="115.46138106920567"><ele>56.6</ele><time>2026-04-12T05:41:19Z</time></trkpt><trkpt lat="-31.16594831136843" lon="115.46141327723178"><ele>56.8</ele><time>2026-04-12T05:41:20Z</time></trkpt><trkpt lat="-31.165861358750732" lon="115.4614240542385"><ele>57.0</ele><time>2026-04-12T05:41:21Z</time></trkpt><trkpt lat="-31.165768380912475" lon="115.46140373075637"><ele>57.5</ele><time>2026-04-12T05:41:22Z</time></trkpt><trkpt lat="-31.165669862760232" lon="115.46136270636322"><ele>58.0</ele><time>2026-04-12T05:41:23Z</time></trkpt><trkpt lat="-31.165567537438747" lon="115.46131781871628"><ele>58.5</ele><time>2026-04-12T05:41:24Z</time></trkpt><trkpt lat="-31.165453547993884" lon="115.46130372365054"><ele>59.0</ele><time>2026-04-12T05:41:25Z</time></trkpt><trkpt lat="-31.165319271170482" lon="115.4613114844837"><ele>59.0</ele><time>2026-04-12T05:41:26Z</time></trkpt><trkpt lat="-31.16518207682821" lon="115.46132268334857"><ele>59.0</ele><time>2026-04-12T05:41:27Z</time></trkpt><trkpt lat="-31.165038113830608" lon="115.46133823825679"><ele>59.0</ele><time>2026-04-12T05:41:28Z</time></trkpt><trkpt lat="-31.16489818678672" lon="115.46134501493101"><ele>59.0</ele><time>2026-04-12T05:41:29Z</time></trkpt><trkpt lat="-31.164757646424064" lon="115.46134009323771"><ele>60.0</ele><time>2026-04-12T05:41:30Z</time></trkpt><trkpt lat="-31.16462543863002" lon="115.46133717773478"><ele>61.0</ele><time>2026-04-12T05:41:31Z</time></trkpt><trkpt lat="-31.1645087114054" lon="115.46134770217981"><ele>62.0</ele><time>2026-04-12T05:41:32Z</time></trkpt><trkpt lat="-31.164390885802685" lon="115.4613378109611"><ele>63.0</ele><time>2026-04-12T05:41:33Z</time></trkpt><trkpt lat="-31.16427391251672" lon="115.46133154561379"><ele>63.0</ele><time>2026-04-12T05:41:34Z</time></trkpt><trkpt lat="-31.164170750628394" lon="115.46133999151817"><ele>63.0</ele><time>2026-04-12T05:41:35Z</time></trkpt><trkpt lat="-31.164071830115116" lon="115.4613501961324"><ele>63.0</ele><time>2026-04-12T05:41:36Z</time></trkpt><trkpt lat="-31.16395916574445" lon="115.46134705466379"><ele>63.0</ele><time>2026-04-12T05:41:37Z</time></trkpt><trkpt lat="-31.163846653014108" lon="115.46134537231188"><ele>63.0</ele><time>2026-04-12T05:41:38Z</time></trkpt><trkpt lat="-31.16374796512074" lon="115.46134575950332"><ele>63.0</ele><time>2026-04-12T05:41:39Z</time></trkpt><trkpt lat="-31.163654823600854" lon="115.46135172862718"><ele>63.0</ele><time>2026-04-12T05:41:40Z</time></trkpt><trkpt lat="-31.16358765244528" lon="115.46137728109716"><ele>63.0</ele><time>2026-04-12T05:41:41Z</time></trkpt><trkpt lat="-31.163502021183888" lon="115.46144811098652"><ele>63.0</ele><time>2026-04-12T05:41:43Z</time></trkpt><trkpt lat="-31.163386071606983" lon="115.46142963721866"><ele>63.0</ele><time>2026-04-12T05:41:45Z</time></trkpt><trkpt lat="-31.16331573210799" lon="115.4613870855648"><ele>63.599999999999994</ele><time>2026-04-12T05:41:46Z</time></trkpt><trkpt lat="-31.163194462660257" lon="115.46131610169657"><ele>64.19999999999999</ele><time>2026-04-12T05:41:48Z</time></trkpt><trkpt lat="-31.16312772723155" lon="115.46131310256452"><ele>64.8</ele><time>2026-04-12T05:41:49Z</time></trkpt><trkpt lat="-31.163050737363914" lon="115.4613409823078"><ele>65.39999999999999</ele><time>2026-04-12T05:41:50Z</time></trkpt><trkpt lat="-31.162959932886285" lon="115.46136399370609"><ele>66.0</ele><time>2026-04-12T05:41:51Z</time></trkpt><trkpt lat="-31.16285663881368" lon="115.46137632432502"><ele>66.0</ele><time>2026-04-12T05:41:52Z</time></trkpt><trkpt lat="-31.162740164201615" lon="115.46136864747794"><ele>66.0</ele><time>2026-04-12T05:41:53Z</time></trkpt><trkpt lat="-31.162634668089872" lon="115.4613436928153"><ele>66.0</ele><time>2026-04-12T05:41:54Z</time></trkpt><trkpt lat="-31.1625282878909" lon="115.46132344873605"><ele>66.0</ele><time>2026-04-12T05:41:55Z</time></trkpt><trkpt lat="-31.162414478774014" lon="115.46133509882365"><ele>66.0</ele><time>2026-04-12T05:41:56Z</time></trkpt><trkpt lat="-31.162290129395892" lon="115.46135099435021"><ele>65.75</ele><time>2026-04-12T05:41:57Z</time></trkpt><trkpt lat="-31.162168970034383" lon="115.46136201015646"><ele>65.5</ele><time>2026-04-12T05:41:58Z</time></trkpt><trkpt lat="-31.162043573749063" lon="115.4613565772426"><ele>65.25</ele><time>2026-04-12T05:41:59Z</time></trkpt><trkpt lat="-31.161930864867173" lon="115.4613550586674"><ele>65.0</ele><time>2026-04-12T05:42:00Z</time></trkpt><trkpt lat="-31.16182358499274" lon="115.4613479527216"><ele>65.0</ele><time>2026-04-12T05:42:01Z</time></trkpt><trkpt lat="-31.161712503311414" lon="115.46134189326507"><ele>65.0</ele><time>2026-04-12T05:42:02Z</time></trkpt><trkpt lat="-31.161599456115663" lon="115.46134062765101"><ele>65.0</ele><time>2026-04-12T05:42:03Z</time></trkpt><trkpt lat="-31.16149415374539" lon="115.46134563863174"><ele>65.0</ele><time>2026-04-12T05:42:04Z</time></trkpt><trkpt lat="-31.161394375693224" lon="115.46135069376196"><ele>65.0</ele><time>2026-04-12T05:42:05Z</time></trkpt><trkpt lat="-31.16129673280876" lon="115.46135124276915"><ele>65.16666666666667</ele><time>2026-04-12T05:42:06Z</time></trkpt><trkpt lat="-31.16121517644744" lon="115.46135698330734"><ele>65.33333333333334</ele><time>2026-04-12T05:42:07Z</time></trkpt><trkpt lat="-31.16114091083442" lon="115.46137923713725"><ele>65.5</ele><time>2026-04-12T05:42:08Z</time></trkpt><trkpt lat="-31.161064877990338" lon="115.46141578187847"><ele>65.66666666666667</ele><time>2026-04-12T05:42:09Z</time></trkpt><trkpt lat="-31.16099310585738" lon="115.46144049980505"><ele>65.83333333333333</ele><time>2026-04-12T05:42:10Z</time></trkpt><trkpt lat="-31.160918958249646" lon="115.46143648157954"><ele>66.0</ele><time>2026-04-12T05:42:11Z</time></trkpt><trkpt lat="-31.160839923266888" lon="115.46140257678526"><ele>66.0</ele><time>2026-04-12T05:42:12Z</time></trkpt><trkpt lat="-31.160774593881214" lon="115.4613380002871"><ele>66.0</ele><time>2026-04-12T05:42:13Z</time></trkpt><trkpt lat="-31.16070461431204" lon="115.46125860788395"><ele>66.0</ele><time>2026-04-12T05:42:14Z</time></trkpt><trkpt lat="-31.160635700358057" lon="115.46116426152344"><ele>66.0</ele><time>2026-04-12T05:42:15Z</time></trkpt><trkpt lat="-31.16056122620275" lon="115.46105749405957"><ele>66.0</ele><time>2026-04-12T05:42:16Z</time></trkpt><trkpt lat="-31.160495537490604" lon="115.46093978284979"><ele>65.75</ele><time>2026-04-12T05:42:17Z</time></trkpt><trkpt lat="-31.16042092614994" lon="115.46083364744386"><ele>65.5</ele><time>2026-04-12T05:42:18Z</time></trkpt><trkpt lat="-31.160328819493266" lon="115.46073806322595"><ele>65.25</ele><time>2026-04-12T05:42:19Z</time></trkpt><trkpt lat="-31.160227264102375" lon="115.4606365767019"><ele>65.0</ele><time>2026-04-12T05:42:20Z</time></trkpt><trkpt lat="-31.160121232200126" lon="115.46050879800576"><ele>64.33333333333334</ele><time>2026-04-12T05:42:21Z</time></trkpt><trkpt lat="-31.160013312857604" lon="115.46038385401178"><ele>63.66666666666667</ele><time>2026-04-12T05:42:22Z</time></trkpt><trkpt lat="-31.159902819061514" lon="115.46025321562665"><ele>63.0</ele><time>2026-04-12T05:42:23Z</time></trkpt><trkpt lat="-31.15979112415386" lon="115.46011411337007"><ele>63.0</ele><time>2026-04-12T05:42:24Z</time></trkpt><trkpt lat="-31.159685934240112" lon="115.45998653903024"><ele>63.0</ele><time>2026-04-12T05:42:25Z</time></trkpt><trkpt lat="-31.15958294344115" lon="115.45987021678818"><ele>63.0</ele><time>2026-04-12T05:42:26Z</time></trkpt><trkpt lat="-31.159481229882896" lon="115.45975706834753"><ele>63.0</ele><time>2026-04-12T05:42:27Z</time></trkpt><trkpt lat="-31.15937756313353" lon="115.4596594773199"><ele>62.75</ele><time>2026-04-12T05:42:28Z</time></trkpt><trkpt lat="-31.1592799979136" lon="115.45955679533505"><ele>62.5</ele><time>2026-04-12T05:42:29Z</time></trkpt><trkpt lat="-31.159191190824906" lon="115.45946778610592"><ele>62.25</ele><time>2026-04-12T05:42:30Z</time></trkpt><trkpt lat="-31.159109445028584" lon="115.45938395387977"><ele>62.0</ele><time>2026-04-12T05:42:31Z</time></trkpt><trkpt lat="-31.15903369784105" lon="115.45927492396447"><ele>62.0</ele><time>2026-04-12T05:42:32Z</time></trkpt><trkpt lat="-31.158954132345087" lon="115.45914836532768"><ele>62.0</ele><time>2026-04-12T05:42:33Z</time></trkpt><trkpt lat="-31.1588598565439" lon="115.45903527105779"><ele>62.0</ele><time>2026-04-12T05:42:34Z</time></trkpt><trkpt lat="-31.158764135780263" lon="115.45892770384714"><ele>62.0</ele><time>2026-04-12T05:42:35Z</time></trkpt><trkpt lat="-31.158658343448685" lon="115.45882680504702"><ele>61.75</ele><time>2026-04-12T05:42:36Z</time></trkpt><trkpt lat="-31.158557313557242" lon="115.45872445399947"><ele>61.5</ele><time>2026-04-12T05:42:37Z</time></trkpt><trkpt lat="-31.158462677532633" lon="115.45861246712491"><ele>61.25</ele><time>2026-04-12T05:42:38Z</time></trkpt><trkpt lat="-31.15836878752591" lon="115.45849327069035"><ele>61.0</ele><time>2026-04-12T05:42:39Z</time></trkpt><trkpt lat="-31.158276354801927" lon="115.45838688286445"><ele>60.5</ele><time>2026-04-12T05:42:40Z</time></trkpt><trkpt lat="-31.15818463948337" lon="115.4582770083833"><ele>60.0</ele><time>2026-04-12T05:42:41Z</time></trkpt><trkpt lat="-31.158089828131992" lon="115.45815246679153"><ele>59.5</ele><time>2026-04-12T05:42:42Z</time></trkpt><trkpt lat="-31.15798920451017" lon="115.45803367525525"><ele>59.0</ele><time>2026-04-12T05:42:43Z</time></trkpt><trkpt lat="-31.157890130342615" lon="115.4579177693091"><ele>58.25</ele><time>2026-04-12T05:42:44Z</time></trkpt><trkpt lat="-31.157795635413336" lon="115.45781050635149"><ele>57.5</ele><time>2026-04-12T05:42:45Z</time></trkpt><trkpt lat="-31.157705099189464" lon="115.45771694746001"><ele>56.75</ele><time>2026-04-12T05:42:46Z</time></trkpt><trkpt lat="-31.157607131254984" lon="115.45760629330486"><ele>56.0</ele><time>2026-04-12T05:42:47Z</time></trkpt><trkpt lat="-31.15751914500715" lon="115.45749802460617"><ele>56.0</ele><time>2026-04-12T05:42:48Z</time></trkpt><trkpt lat="-31.157429158093592" lon="115.4573962346989"><ele>56.0</ele><time>2026-04-12T05:42:49Z</time></trkpt><trkpt lat="-31.15733011558707" lon="115.45728587953982"><ele>56.0</ele><time>2026-04-12T05:42:50Z</time></trkpt><trkpt lat="-31.15721231520493" lon="115.45715506867487"><ele>56.0</ele><time>2026-04-12T05:42:51Z</time></trkpt><trkpt lat="-31.157089596399718" lon="115.45701399186326"><ele>56.0</ele><time>2026-04-12T05:42:52Z</time></trkpt><trkpt lat="-31.156970007031767" lon="115.4568663279117"><ele>56.0</ele><time>2026-04-12T05:42:53Z</time></trkpt><trkpt lat="-31.156847628897307" lon="115.45672215853553"><ele>56.0</ele><time>2026-04-12T05:42:54Z</time></trkpt><trkpt lat="-31.156722088149294" lon="115.45658149391244"><ele>56.0</ele><time>2026-04-12T05:42:55Z</time></trkpt><trkpt lat="-31.156598659243606" lon="115.45643748067123"><ele>56.0</ele><time>2026-04-12T05:42:56Z</time></trkpt><trkpt lat="-31.156472126028923" lon="115.45629104054868"><ele>56.0</ele><time>2026-04-12T05:42:57Z</time></trkpt><trkpt lat="-31.156344722905125" lon="115.45615029155726"><ele>55.66666666666667</ele><time>2026-04-12T05:42:58Z</time></trkpt><trkpt lat="-31.15621318221949" lon="115.45599753287995"><ele>55.33333333333333</ele><time>2026-04-12T05:42:59Z</time></trkpt><trkpt lat="-31.15608773660374" lon="115.45584371359362"><ele>55.0</ele><time>2026-04-12T05:43:00Z</time></trkpt><trkpt lat="-31.155963980846277" lon="115.45569972568748"><ele>55.0</ele><time>2026-04-12T05:43:01Z</time></trkpt><trkpt lat="-31.155838287499098" lon="115.4555615188074"><ele>55.0</ele><time>2026-04-12T05:43:02Z</time></trkpt><trkpt lat="-31.15571168462125" lon="115.45542222570367"><ele>55.0</ele><time>2026-04-12T05:43:03Z</time></trkpt><trkpt lat="-31.155584547565503" lon="115.45528676741517"><ele>55.25</ele><time>2026-04-12T05:43:04Z</time></trkpt><trkpt lat="-31.155467673386884" lon="115.45515596049128"><ele>55.5</ele><time>2026-04-12T05:43:05Z</time></trkpt><trkpt lat="-31.155366336029342" lon="115.45504026528997"><ele>55.75</ele><time>2026-04-12T05:43:06Z</time></trkpt><trkpt lat="-31.155261283384398" lon="115.45492193128693"><ele>56.0</ele><time>2026-04-12T05:43:07Z</time></trkpt><trkpt lat="-31.155158110499084" lon="115.45480157742608"><ele>56.0</ele><time>2026-04-12T05:43:08Z</time></trkpt><trkpt lat="-31.155055240064918" lon="115.45467926234103"><ele>56.0</ele><time>2026-04-12T05:43:09Z</time></trkpt><trkpt lat="-31.154951938173888" lon="115.45456332876475"><ele>56.0</ele><time>2026-04-12T05:43:10Z</time></trkpt><trkpt lat="-31.154840281634343" lon="115.45444343445487"><ele>56.0</ele><time>2026-04-12T05:43:11Z</time></trkpt><trkpt lat="-31.154728919341952" lon="115.45432064152085"><ele>54.75</ele><time>2026-04-12T05:43:12Z</time></trkpt><trkpt lat="-31.15462255535081" lon="115.45419934606095"><ele>53.5</ele><time>2026-04-12T05:43:13Z</time></trkpt><trkpt lat="-31.1545223312704" lon="115.45407753614107"><ele>52.25</ele><time>2026-04-12T05:43:14Z</time></trkpt><trkpt lat="-31.154422122327293" lon="115.45395942598337"><ele>51.0</ele><time>2026-04-12T05:43:15Z</time></trkpt><trkpt lat="-31.154319241218573" lon="115.45384484223094"><ele>50.0</ele><time>2026-04-12T05:43:16Z</time></trkpt><trkpt lat="-31.154217305728178" lon="115.4537316773099"><ele>49.0</ele><time>2026-04-12T05:43:17Z</time></trkpt><trkpt lat="-31.154117306337533" lon="115.45361941712054"><ele>48.0</ele><time>2026-04-12T05:43:18Z</time></trkpt><trkpt lat="-31.154028152965807" lon="115.4535149352411"><ele>47.0</ele><time>2026-04-12T05:43:19Z</time></trkpt><trkpt lat="-31.153948216439098" lon="115.45341796864507"><ele>47.0</ele><time>2026-04-12T05:43:20Z</time></trkpt><trkpt lat="-31.15387672690294" lon="115.45333076965747"><ele>47.0</ele><time>2026-04-12T05:43:21Z</time></trkpt><trkpt lat="-31.15381674964097" lon="115.45324970697875"><ele>47.0</ele><time>2026-04-12T05:43:22Z</time></trkpt><trkpt lat="-31.153755681513783" lon="115.45317843845373"><ele>47.0</ele><time>2026-04-12T05:43:23Z</time></trkpt><trkpt lat="-31.153680957443544" lon="115.4531177017153"><ele>47.0</ele><time>2026-04-12T05:43:24Z</time></trkpt><trkpt lat="-31.153584550097957" lon="115.45307795383094"><ele>47.0</ele><time>2026-04-12T05:43:25Z</time></trkpt><trkpt lat="-31.153476312275014" lon="115.45304619100004"><ele>47.0</ele><time>2026-04-12T05:43:26Z</time></trkpt><trkpt lat="-31.153360121263436" lon="115.45303692242013"><ele>47.0</ele><time>2026-04-12T05:43:27Z</time></trkpt><trkpt lat="-31.15322795728663" lon="115.45304831233554"><ele>47.0</ele><time>2026-04-12T05:43:28Z</time></trkpt><trkpt lat="-31.15309224405711" lon="115.4530623070785"><ele>46.5</ele><time>2026-04-12T05:43:29Z</time></trkpt><trkpt lat="-31.15296503887528" lon="115.45307244442883"><ele>46.0</ele><time>2026-04-12T05:43:30Z</time></trkpt><trkpt lat="-31.152844015054768" lon="115.45308646135493"><ele>45.5</ele><time>2026-04-12T05:43:31Z</time></trkpt><trkpt lat="-31.15273040350938" lon="115.45308995380265"><ele>45.0</ele><time>2026-04-12T05:43:32Z</time></trkpt><trkpt lat="-31.15262555594432" lon="115.45308474007905"><ele>45.0</ele><time>2026-04-12T05:43:33Z</time></trkpt><trkpt lat="-31.152531899179973" lon="115.45308190666303"><ele>45.0</ele><time>2026-04-12T05:43:34Z</time></trkpt><trkpt lat="-31.152436520513987" lon="115.45308880635724"><ele>45.0</ele><time>2026-04-12T05:43:35Z</time></trkpt><trkpt lat="-31.15234547583304" lon="115.45310791627855"><ele>45.0</ele><time>2026-04-12T05:43:36Z</time></trkpt><trkpt lat="-31.152284512061716" lon="115.45315185319814"><ele>45.0</ele><time>2026-04-12T05:43:37Z</time></trkpt><trkpt lat="-31.152224148353593" lon="115.4532049081517"><ele>45.0</ele><time>2026-04-12T05:43:38Z</time></trkpt><trkpt lat="-31.152155512424965" lon="115.45327058044138"><ele>44.4</ele><time>2026-04-12T05:43:39Z</time></trkpt><trkpt lat="-31.152089034830986" lon="115.45334512892889"><ele>43.8</ele><time>2026-04-12T05:43:40Z</time></trkpt><trkpt lat="-31.15202622732306" lon="115.45343322200236"><ele>43.2</ele><time>2026-04-12T05:43:41Z</time></trkpt><trkpt lat="-31.151973208517113" lon="115.45353427329458"><ele>42.6</ele><time>2026-04-12T05:43:42Z</time></trkpt><trkpt lat="-31.151905918910252" lon="115.45363264616809"><ele>42.0</ele><time>2026-04-12T05:43:43Z</time></trkpt><trkpt lat="-31.15180795092973" lon="115.45372963160511"><ele>42.5</ele><time>2026-04-12T05:43:44Z</time></trkpt><trkpt lat="-31.151697691947216" lon="115.4538364464142"><ele>43.0</ele><time>2026-04-12T05:43:45Z</time></trkpt><trkpt lat="-31.151600937052258" lon="115.45394507036691"><ele>43.5</ele><time>2026-04-12T05:43:46Z</time></trkpt><trkpt lat="-31.151514370874725" lon="115.45405795862203"><ele>44.0</ele><time>2026-04-12T05:43:47Z</time></trkpt><trkpt lat="-31.15142207076986" lon="115.45417309000439"><ele>43.0</ele><time>2026-04-12T05:43:48Z</time></trkpt><trkpt lat="-31.151323580742574" lon="115.45427722139814"><ele>42.0</ele><time>2026-04-12T05:43:49Z</time></trkpt><trkpt lat="-31.151219869279405" lon="115.45438340139317"><ele>41.0</ele><time>2026-04-12T05:43:50Z</time></trkpt><trkpt lat="-31.15112153789635" lon="115.45449869899643"><ele>40.0</ele><time>2026-04-12T05:43:51Z</time></trkpt><trkpt lat="-31.15103584372593" lon="115.45460002417208"><ele>40.66666666666667</ele><time>2026-04-12T05:43:52Z</time></trkpt><trkpt lat="-31.150969069985948" lon="115.45468174297682"><ele>41.333333333333336</ele><time>2026-04-12T05:43:53Z</time></trkpt><trkpt lat="-31.150908014190502" lon="115.45476067104504"><ele>42.0</ele><time>2026-04-12T05:43:54Z</time></trkpt><trkpt lat="-31.150855611139693" lon="115.45484201040941"><ele>42.666666666666664</ele><time>2026-04-12T05:43:55Z</time></trkpt><trkpt lat="-31.150808707737056" lon="115.4549254645177"><ele>43.33333333333333</ele><time>2026-04-12T05:43:56Z</time></trkpt><trkpt lat="-31.150762365257997" lon="115.45499088989094"><ele>44.0</ele><time>2026-04-12T05:43:57Z</time></trkpt><trkpt lat="-31.150691146652296" lon="115.4550417536799"><ele>44.0</ele><time>2026-04-12T05:43:58Z</time></trkpt><trkpt lat="-31.15060933967294" lon="115.45510268271053"><ele>44.0</ele><time>2026-04-12T05:43:59Z</time></trkpt><trkpt lat="-31.150534315280314" lon="115.45517521070867"><ele>44.0</ele><time>2026-04-12T05:44:00Z</time></trkpt><trkpt lat="-31.15047440540815" lon="115.4552607374371"><ele>44.0</ele><time>2026-04-12T05:44:01Z</time></trkpt><trkpt lat="-31.150421640086584" lon="115.4553568745586"><ele>44.0</ele><time>2026-04-12T05:44:02Z</time></trkpt><trkpt lat="-31.150357379297933" lon="115.45544514082371"><ele>44.5</ele><time>2026-04-12T05:44:03Z</time></trkpt><trkpt lat="-31.150278438277542" lon="115.4554933775506"><ele>45.0</ele><time>2026-04-12T05:44:04Z</time></trkpt><trkpt lat="-31.150191524834373" lon="115.45552722184073"><ele>45.5</ele><time>2026-04-12T05:44:05Z</time></trkpt><trkpt lat="-31.15011177903619" lon="115.4555390894236"><ele>46.0</ele><time>2026-04-12T05:44:06Z</time></trkpt><trkpt lat="-31.150033919611083" lon="115.455528852258"><ele>46.5</ele><time>2026-04-12T05:44:07Z</time></trkpt><trkpt lat="-31.149954010542686" lon="115.45552458080995"><ele>47.0</ele><time>2026-04-12T05:44:08Z</time></trkpt><trkpt lat="-31.14985091396029" lon="115.45550080564706"><ele>47.25</ele><time>2026-04-12T05:44:09Z</time></trkpt><trkpt lat="-31.14972637032931" lon="115.45548146707034"><ele>47.5</ele><time>2026-04-12T05:44:10Z</time></trkpt><trkpt lat="-31.149588912329428" lon="115.45547542868267"><ele>47.75</ele><time>2026-04-12T05:44:11Z</time></trkpt><trkpt lat="-31.14943713865" lon="115.4554779293065"><ele>48.0</ele><time>2026-04-12T05:44:12Z</time></trkpt><trkpt lat="-31.149280431425474" lon="115.45548148994601"><ele>48.0</ele><time>2026-04-12T05:44:13Z</time></trkpt><trkpt lat="-31.149111321878813" lon="115.45548719732798"><ele>48.0</ele><time>2026-04-12T05:44:14Z</time></trkpt><trkpt lat="-31.14893552270084" lon="115.45548357312452"><ele>48.0</ele><time>2026-04-12T05:44:15Z</time></trkpt><trkpt lat="-31.148762464442157" lon="115.45548564710315"><ele>48.33333333333333</ele><time>2026-04-12T05:44:16Z</time></trkpt><trkpt lat="-31.148598379173457" lon="115.45548627089434"><ele>48.666666666666664</ele><time>2026-04-12T05:44:17Z</time></trkpt><trkpt lat="-31.14843970446653" lon="115.45549873394035"><ele>49.0</ele><time>2026-04-12T05:44:18Z</time></trkpt><trkpt lat="-31.148277354213064" lon="115.4555128480755"><ele>49.666666666666664</ele><time>2026-04-12T05:44:19Z</time></trkpt><trkpt lat="-31.148101188544008" lon="115.45551328923999"><ele>50.33333333333333</ele><time>2026-04-12T05:44:20Z</time></trkpt><trkpt lat="-31.147917969156815" lon="115.45551187060695"><ele>51.0</ele><time>2026-04-12T05:44:21Z</time></trkpt><trkpt lat="-31.147736387551205" lon="115.45552102339173"><ele>51.0</ele><time>2026-04-12T05:44:22Z</time></trkpt><trkpt lat="-31.147562842821362" lon="115.45553048757183"><ele>51.0</ele><time>2026-04-12T05:44:23Z</time></trkpt><trkpt lat="-31.14740839309597" lon="115.45552916079657"><ele>51.0</ele><time>2026-04-12T05:44:24Z</time></trkpt><trkpt lat="-31.147252752160217" lon="115.4555310613744"><ele>51.0</ele><time>2026-04-12T05:44:25Z</time></trkpt><trkpt lat="-31.147099135812212" lon="115.4555383433828"><ele>51.0</ele><time>2026-04-12T05:44:26Z</time></trkpt><trkpt lat="-31.14694292209019" lon="115.45553711055886"><ele>51.0</ele><time>2026-04-12T05:44:27Z</time></trkpt><trkpt lat="-31.146790611490097" lon="115.45554164165449"><ele>51.0</ele><time>2026-04-12T05:44:28Z</time></trkpt><trkpt lat="-31.14664152507026" lon="115.45554072551933"><ele>51.0</ele><time>2026-04-12T05:44:29Z</time></trkpt><trkpt lat="-31.14648968479233" lon="115.45553317072516"><ele>51.0</ele><time>2026-04-12T05:44:30Z</time></trkpt><trkpt lat="-31.146359544755043" lon="115.45553975342433"><ele>51.0</ele><time>2026-04-12T05:44:31Z</time></trkpt><trkpt lat="-31.146231786942195" lon="115.45555292184652"><ele>51.25</ele><time>2026-04-12T05:44:32Z</time></trkpt><trkpt lat="-31.14610355706823" lon="115.45558206876693"><ele>51.5</ele><time>2026-04-12T05:44:33Z</time></trkpt><trkpt lat="-31.145981801196196" lon="115.45560482173222"><ele>51.75</ele><time>2026-04-12T05:44:34Z</time></trkpt><trkpt lat="-31.14586354237945" lon="115.45560384433945"><ele>52.0</ele><time>2026-04-12T05:44:35Z</time></trkpt><trkpt lat="-31.145742629322434" lon="115.45558591389225"><ele>52.0</ele><time>2026-04-12T05:44:36Z</time></trkpt><trkpt lat="-31.145609490976348" lon="115.45556895520171"><ele>52.0</ele><time>2026-04-12T05:44:37Z</time></trkpt><trkpt lat="-31.14546146701816" lon="115.45555717258527"><ele>52.0</ele><time>2026-04-12T05:44:38Z</time></trkpt><trkpt lat="-31.145306060552347" lon="115.45555120501729"><ele>52.0</ele><time>2026-04-12T05:44:39Z</time></trkpt><trkpt lat="-31.14514315089597" lon="115.45554958190665"><ele>52.0</ele><time>2026-04-12T05:44:40Z</time></trkpt><trkpt lat="-31.144977243522447" lon="115.4555436691208"><ele>52.0</ele><time>2026-04-12T05:44:41Z</time></trkpt><trkpt lat="-31.144809533414527" lon="115.45553846343466"><ele>52.0</ele><time>2026-04-12T05:44:42Z</time></trkpt><trkpt lat="-31.14464852353845" lon="115.45553889665473"><ele>51.666666666666664</ele><time>2026-04-12T05:44:43Z</time></trkpt><trkpt lat="-31.14448375001357" lon="115.45553845099552"><ele>51.33333333333333</ele><time>2026-04-12T05:44:44Z</time></trkpt><trkpt lat="-31.144316515726466" lon="115.45553708574715"><ele>51.0</ele><time>2026-04-12T05:44:45Z</time></trkpt><trkpt lat="-31.14414698280273" lon="115.45553822318577"><ele>51.0</ele><time>2026-04-12T05:44:46Z</time></trkpt><trkpt lat="-31.143971517254922" lon="115.45553546994543"><ele>51.0</ele><time>2026-04-12T05:44:47Z</time></trkpt><trkpt lat="-31.14379658317142" lon="115.45553708382172"><ele>51.0</ele><time>2026-04-12T05:44:48Z</time></trkpt><trkpt lat="-31.14362625393242" lon="115.45554037034076"><ele>51.0</ele><time>2026-04-12T05:44:49Z</time></trkpt><trkpt lat="-31.143452741217953" lon="115.45554152791918"><ele>51.0</ele><time>2026-04-12T05:44:50Z</time></trkpt><trkpt lat="-31.143289335397036" lon="115.45554419551492"><ele>51.0</ele><time>2026-04-12T05:44:51Z</time></trkpt><trkpt lat="-31.14314122991506" lon="115.45555316960707"><ele>50.75</ele><time>2026-04-12T05:44:52Z</time></trkpt><trkpt lat="-31.142987420792142" lon="115.45555703758936"><ele>50.5</ele><time>2026-04-12T05:44:53Z</time></trkpt><trkpt lat="-31.142842350637885" lon="115.45556144838173"><ele>50.25</ele><time>2026-04-12T05:44:54Z</time></trkpt><trkpt lat="-31.142703694327043" lon="115.45556496753406"><ele>50.0</ele><time>2026-04-12T05:44:55Z</time></trkpt><trkpt lat="-31.142575582072435" lon="115.45556644051928"><ele>50.0</ele><time>2026-04-12T05:44:56Z</time></trkpt><trkpt lat="-31.142462040939495" lon="115.45557373063636"><ele>50.0</ele><time>2026-04-12T05:44:57Z</time></trkpt><trkpt lat="-31.14235185879018" lon="115.45557826733777"><ele>50.0</ele><time>2026-04-12T05:44:58Z</time></trkpt><trkpt lat="-31.14222652614851" lon="115.45558038543483"><ele>50.0</ele><time>2026-04-12T05:44:59Z</time></trkpt><trkpt lat="-31.142098429045074" lon="115.45558135888298"><ele>50.0</ele><time>2026-04-12T05:45:00Z</time></trkpt><trkpt lat="-31.14196511546399" lon="115.45558072847702"><ele>50.0</ele><time>2026-04-12T05:45:01Z</time></trkpt><trkpt lat="-31.141818911199895" lon="115.4555704287721"><ele>50.0</ele><time>2026-04-12T05:45:02Z</time></trkpt><trkpt lat="-31.141651301864098" lon="115.45556148527774"><ele>50.0</ele><time>2026-04-12T05:45:03Z</time></trkpt><trkpt lat="-31.141475487951542" lon="115.4555567104071"><ele>50.66666666666667</ele><time>2026-04-12T05:45:04Z</time></trkpt><trkpt lat="-31.141297675898205" lon="115.45556026131032"><ele>51.33333333333333</ele><time>2026-04-12T05:45:05Z</time></trkpt><trkpt lat="-31.141117381312856" lon="115.45556493452517"><ele>52.0</ele><time>2026-04-12T05:45:06Z</time></trkpt><trkpt lat="-31.140934050432595" lon="115.45556477742164"><ele>52.0</ele><time>2026-04-12T05:45:07Z</time></trkpt><trkpt lat="-31.14076096241642" lon="115.45556284710341"><ele>52.0</ele><time>2026-04-12T05:45:08Z</time></trkpt><trkpt lat="-31.140573093161358" lon="115.45556270459187"><ele>52.0</ele><time>2026-04-12T05:45:09Z</time></trkpt><trkpt lat="-31.140397809034376" lon="115.45557128437943"><ele>51.666666666666664</ele><time>2026-04-12T05:45:10Z</time></trkpt><trkpt lat="-31.1402219643279" lon="115.45558203143717"><ele>51.33333333333333</ele><time>2026-04-12T05:45:11Z</time></trkpt><trkpt lat="-31.140054329529868" lon="115.45558891333226"><ele>51.0</ele><time>2026-04-12T05:45:12Z</time></trkpt><trkpt lat="-31.13989604266562" lon="115.45559292660333"><ele>51.5</ele><time>2026-04-12T05:45:13Z</time></trkpt><trkpt lat="-31.139748377535376" lon="115.45560441310542"><ele>52.0</ele><time>2026-04-12T05:45:14Z</time></trkpt><trkpt lat="-31.139604003802226" lon="115.45560785252351"><ele>52.5</ele><time>2026-04-12T05:45:15Z</time></trkpt><trkpt lat="-31.13946376749656" lon="115.45560265379335"><ele>53.0</ele><time>2026-04-12T05:45:16Z</time></trkpt><trkpt lat="-31.139317773298735" lon="115.45559105184348"><ele>53.0</ele><time>2026-04-12T05:45:17Z</time></trkpt><trkpt lat="-31.139181496745223" lon="115.45559061975247"><ele>53.0</ele><time>2026-04-12T05:45:18Z</time></trkpt><trkpt lat="-31.13904067519433" lon="115.45559652529792"><ele>53.0</ele><time>2026-04-12T05:45:19Z</time></trkpt><trkpt lat="-31.138897348492034" lon="115.45560129455438"><ele>53.0</ele><time>2026-04-12T05:45:20Z</time></trkpt><trkpt lat="-31.13875858023437" lon="115.45560812239256"><ele>52.5</ele><time>2026-04-12T05:45:21Z</time></trkpt><trkpt lat="-31.138622747575134" lon="115.45560364143998"><ele>52.0</ele><time>2026-04-12T05:45:22Z</time></trkpt><trkpt lat="-31.138484135670346" lon="115.45559136497927"><ele>51.5</ele><time>2026-04-12T05:45:23Z</time></trkpt><trkpt lat="-31.138338343682708" lon="115.45558040857692"><ele>51.0</ele><time>2026-04-12T05:45:24Z</time></trkpt><trkpt lat="-31.138192219291643" lon="115.45557148783608"><ele>52.0</ele><time>2026-04-12T05:45:25Z</time></trkpt><trkpt lat="-31.13804843677552" lon="115.45556389488627"><ele>53.0</ele><time>2026-04-12T05:45:26Z</time></trkpt><trkpt lat="-31.137901483298297" lon="115.45557311482214"><ele>54.0</ele><time>2026-04-12T05:45:27Z</time></trkpt><trkpt lat="-31.137752057803397" lon="115.45559154478806"><ele>55.0</ele><time>2026-04-12T05:45:28Z</time></trkpt><trkpt lat="-31.13760493104138" lon="115.45559753546144"><ele>55.0</ele><time>2026-04-12T05:45:29Z</time></trkpt><trkpt lat="-31.137460096723224" lon="115.45559233576563"><ele>55.0</ele><time>2026-04-12T05:45:30Z</time></trkpt><trkpt lat="-31.137310067888947" lon="115.45559477491179"><ele>55.0</ele><time>2026-04-12T05:45:31Z</time></trkpt><trkpt lat="-31.137154180128935" lon="115.45559568679928"><ele>55.666666666666664</ele><time>2026-04-12T05:45:32Z</time></trkpt><trkpt lat="-31.13698922607867" lon="115.45559576759514"><ele>56.33333333333333</ele><time>2026-04-12T05:45:33Z</time></trkpt><trkpt lat="-31.1368259738132" lon="115.45559440275646"><ele>57.0</ele><time>2026-04-12T05:45:34Z</time></trkpt><trkpt lat="-31.136669299181065" lon="115.45559303419252"><ele>58.0</ele><time>2026-04-12T05:45:35Z</time></trkpt><trkpt lat="-31.13651535847295" lon="115.45559721631415"><ele>59.0</ele><time>2026-04-12T05:45:36Z</time></trkpt><trkpt lat="-31.136359119817268" lon="115.45559538361411"><ele>60.0</ele><time>2026-04-12T05:45:37Z</time></trkpt><trkpt lat="-31.13620735342333" lon="115.4555957750866"><ele>60.0</ele><time>2026-04-12T05:45:38Z</time></trkpt><trkpt lat="-31.136061588303594" lon="115.45559978224539"><ele>60.0</ele><time>2026-04-12T05:45:39Z</time></trkpt><trkpt lat="-31.1359136457835" lon="115.45560205203452"><ele>60.0</ele><time>2026-04-12T05:45:40Z</time></trkpt><trkpt lat="-31.135762510652057" lon="115.45560286630543"><ele>60.0</ele><time>2026-04-12T05:45:41Z</time></trkpt><trkpt lat="-31.13561188218551" lon="115.4556061232962"><ele>60.0</ele><time>2026-04-12T05:45:42Z</time></trkpt><trkpt lat="-31.13546095708136" lon="115.45560829775062"><ele>60.0</ele><time>2026-04-12T05:45:43Z</time></trkpt><trkpt lat="-31.135309850152023" lon="115.45560527353533"><ele>60.0</ele><time>2026-04-12T05:45:44Z</time></trkpt><trkpt lat="-31.1351613638942" lon="115.45561158830712"><ele>60.0</ele><time>2026-04-12T05:45:45Z</time></trkpt><trkpt lat="-31.135016574186366" lon="115.45561736190984"><ele>60.0</ele><time>2026-04-12T05:45:46Z</time></trkpt><trkpt lat="-31.13487291727769" lon="115.45561567980538"><ele>60.0</ele><time>2026-04-12T05:45:47Z</time></trkpt><trkpt lat="-31.134726857869857" lon="115.4556139569428"><ele>60.0</ele><time>2026-04-12T05:45:48Z</time></trkpt><trkpt lat="-31.134585311785262" lon="115.45561196072109"><ele>60.5</ele><time>2026-04-12T05:45:49Z</time></trkpt><trkpt lat="-31.13444671732317" lon="115.45561672948078"><ele>61.0</ele><time>2026-04-12T05:45:50Z</time></trkpt><trkpt lat="-31.134308885485012" lon="115.45562685619504"><ele>61.5</ele><time>2026-04-12T05:45:51Z</time></trkpt><trkpt lat="-31.134178241550583" lon="115.45563613196248"><ele>62.0</ele><time>2026-04-12T05:45:52Z</time></trkpt><trkpt lat="-31.134051004758202" lon="115.4556367387737"><ele>62.75</ele><time>2026-04-12T05:45:53Z</time></trkpt><trkpt lat="-31.13392573074442" lon="115.4556288385163"><ele>63.5</ele><time>2026-04-12T05:45:54Z</time></trkpt><trkpt lat="-31.133797141883914" lon="115.45561496088237"><ele>64.25</ele><time>2026-04-12T05:45:55Z</time></trkpt><trkpt lat="-31.133655746372984" lon="115.45560774584102"><ele>65.0</ele><time>2026-04-12T05:45:56Z</time></trkpt><trkpt lat="-31.133505124530853" lon="115.45561003250401"><ele>65.0</ele><time>2026-04-12T05:45:57Z</time></trkpt><trkpt lat="-31.133352811674502" lon="115.45561749356447"><ele>65.0</ele><time>2026-04-12T05:45:58Z</time></trkpt><trkpt lat="-31.133201952202224" lon="115.45563141238367"><ele>65.0</ele><time>2026-04-12T05:45:59Z</time></trkpt><trkpt lat="-31.133052005007382" lon="115.45563860974414"><ele>66.33333333333334</ele><time>2026-04-12T05:46:00Z</time></trkpt><trkpt lat="-31.132897910045987" lon="115.45562891389426"><ele>67.66666666666667</ele><time>2026-04-12T05:46:01Z</time></trkpt><trkpt lat="-31.132738548729442" lon="115.45562836517611"><ele>69.0</ele><time>2026-04-12T05:46:02Z</time></trkpt><trkpt lat="-31.132584077175572" lon="115.45564201793084"><ele>69.0</ele><time>2026-04-12T05:46:03Z</time></trkpt><trkpt lat="-31.132428130926446" lon="115.45566250283495"><ele>69.0</ele><time>2026-04-12T05:46:04Z</time></trkpt><trkpt lat="-31.132270472330504" lon="115.45566549091656"><ele>69.0</ele><time>2026-04-12T05:46:05Z</time></trkpt><trkpt lat="-31.132107831327303" lon="115.45565820472231"><ele>70.33333333333333</ele><time>2026-04-12T05:46:06Z</time></trkpt><trkpt lat="-31.131948710633008" lon="115.45565800957756"><ele>71.66666666666666</ele><time>2026-04-12T05:46:07Z</time></trkpt><trkpt lat="-31.131792236041942" lon="115.45565678913106"><ele>73.0</ele><time>2026-04-12T05:46:08Z</time></trkpt><trkpt lat="-31.131645785730857" lon="115.45565418481016"><ele>72.75</ele><time>2026-04-12T05:46:09Z</time></trkpt><trkpt lat="-31.13149992920103" lon="115.4556490076419"><ele>72.5</ele><time>2026-04-12T05:46:10Z</time></trkpt><trkpt lat="-31.131366755341375" lon="115.45563762055899"><ele>72.25</ele><time>2026-04-12T05:46:11Z</time></trkpt><trkpt lat="-31.131232930660786" lon="115.45564374753815"><ele>72.0</ele><time>2026-04-12T05:46:12Z</time></trkpt><trkpt lat="-31.13110404684507" lon="115.45567089319856"><ele>72.0</ele><time>2026-04-12T05:46:13Z</time></trkpt><trkpt lat="-31.130955853659803" lon="115.45570660755457"><ele>72.0</ele><time>2026-04-12T05:46:14Z</time></trkpt><trkpt lat="-31.130801753035204" lon="115.45571624416027"><ele>72.0</ele><time>2026-04-12T05:46:15Z</time></trkpt><trkpt lat="-31.130641098739016" lon="115.45570300879577"><ele>71.66666666666667</ele><time>2026-04-12T05:46:16Z</time></trkpt><trkpt lat="-31.13047287765296" lon="115.45568934577595"><ele>71.33333333333334</ele><time>2026-04-12T05:46:17Z</time></trkpt><trkpt lat="-31.130302277281885" lon="115.45569004191381"><ele>71.0</ele><time>2026-04-12T05:46:18Z</time></trkpt><trkpt lat="-31.130137557763554" lon="115.45569454982383"><ele>71.0</ele><time>2026-04-12T05:46:19Z</time></trkpt><trkpt lat="-31.129979737637083" lon="115.45569627999036"><ele>71.0</ele><time>2026-04-12T05:46:20Z</time></trkpt><trkpt lat="-31.129831069442815" lon="115.45568975712551"><ele>71.0</ele><time>2026-04-12T05:46:21Z</time></trkpt><trkpt lat="-31.12968025048838" lon="115.4556707374542"><ele>71.0</ele><time>2026-04-12T05:46:22Z</time></trkpt><trkpt lat="-31.129528433086303" lon="115.45565259283684"><ele>71.0</ele><time>2026-04-12T05:46:23Z</time></trkpt><trkpt lat="-31.129366267685956" lon="115.45565175692087"><ele>71.0</ele><time>2026-04-12T05:46:24Z</time></trkpt><trkpt lat="-31.129189397167888" lon="115.45566408555534"><ele>71.66666666666667</ele><time>2026-04-12T05:46:25Z</time></trkpt><trkpt lat="-31.129000830195768" lon="115.45567608590886"><ele>72.33333333333333</ele><time>2026-04-12T05:46:26Z</time></trkpt><trkpt lat="-31.128803289099256" lon="115.45567742230038"><ele>73.0</ele><time>2026-04-12T05:46:27Z</time></trkpt><trkpt lat="-31.128612173770623" lon="115.45567249987516"><ele>73.0</ele><time>2026-04-12T05:46:28Z</time></trkpt><trkpt lat="-31.128431034038393" lon="115.45567251735508"><ele>73.0</ele><time>2026-04-12T05:46:29Z</time></trkpt><trkpt lat="-31.128264951776636" lon="115.45567260452407"><ele>73.0</ele><time>2026-04-12T05:46:30Z</time></trkpt><trkpt lat="-31.12810054101624" lon="115.45567340090442"><ele>72.33333333333333</ele><time>2026-04-12T05:46:31Z</time></trkpt><trkpt lat="-31.127935541378967" lon="115.45567592930018"><ele>71.66666666666667</ele><time>2026-04-12T05:46:32Z</time></trkpt><trkpt lat="-31.12777464854987" lon="115.45567778262308"><ele>71.0</ele><time>2026-04-12T05:46:33Z</time></trkpt><trkpt lat="-31.127626704873485" lon="115.45568145610713"><ele>71.0</ele><time>2026-04-12T05:46:34Z</time></trkpt><trkpt lat="-31.127481228945015" lon="115.45568768265203"><ele>71.0</ele><time>2026-04-12T05:46:35Z</time></trkpt><trkpt lat="-31.12733408963318" lon="115.45569466041721"><ele>71.0</ele><time>2026-04-12T05:46:36Z</time></trkpt><trkpt lat="-31.12718920091174" lon="115.45569686736212"><ele>71.0</ele><time>2026-04-12T05:46:37Z</time></trkpt><trkpt lat="-31.127046480416787" lon="115.45569460533407"><ele>71.75</ele><time>2026-04-12T05:46:38Z</time></trkpt><trkpt lat="-31.12691498532838" lon="115.45569282507974"><ele>72.5</ele><time>2026-04-12T05:46:39Z</time></trkpt><trkpt lat="-31.126793116348107" lon="115.45569233382686"><ele>73.25</ele><time>2026-04-12T05:46:40Z</time></trkpt><trkpt lat="-31.126689584102962" lon="115.45568637421026"><ele>74.0</ele><time>2026-04-12T05:46:41Z</time></trkpt><trkpt lat="-31.126589275506284" lon="115.45567243682092"><ele>74.0</ele><time>2026-04-12T05:46:42Z</time></trkpt><trkpt lat="-31.126509307949622" lon="115.4556539762845"><ele>74.0</ele><time>2026-04-12T05:46:43Z</time></trkpt><trkpt lat="-31.126414997480378" lon="115.45559293186137"><ele>74.0</ele><time>2026-04-12T05:46:45Z</time></trkpt><trkpt lat="-31.126347048188933" lon="115.4554387447172"><ele>74.0</ele><time>2026-04-12T05:46:47Z</time></trkpt><trkpt lat="-31.126297762477808" lon="115.45532618122822"><ele>74.0</ele><time>2026-04-12T05:46:48Z</time></trkpt><trkpt lat="-31.126252748483513" lon="115.45520980139806"><ele>74.0</ele><time>2026-04-12T05:46:49Z</time></trkpt><trkpt lat="-31.126207566328976" lon="115.45507344750847"><ele>74.0</ele><time>2026-04-12T05:46:50Z</time></trkpt><trkpt lat="-31.126179634549988" lon="115.45488957136968"><ele>74.0</ele><time>2026-04-12T05:46:51Z</time></trkpt><trkpt lat="-31.126107369810743" lon="115.45469670147448"><ele>73.33333333333334</ele><time>2026-04-12T05:46:52Z</time></trkpt><trkpt lat="-31.126031822536635" lon="115.45449493407679"><ele>72.66666666666667</ele><time>2026-04-12T05:46:53Z</time></trkpt><trkpt lat="-31.125949679501574" lon="115.45427530235212"><ele>72.0</ele><time>2026-04-12T05:46:54Z</time></trkpt><trkpt lat="-31.125863736537543" lon="115.4540422747396"><ele>72.0</ele><time>2026-04-12T05:46:55Z</time></trkpt><trkpt lat="-31.12577991316599" lon="115.4538136021123"><ele>72.0</ele><time>2026-04-12T05:46:56Z</time></trkpt><trkpt lat="-31.125690430418796" lon="115.45356285279725"><ele>72.0</ele><time>2026-04-12T05:46:57Z</time></trkpt><trkpt lat="-31.12560244305327" lon="115.45331866607293"><ele>70.5</ele><time>2026-04-12T05:46:58Z</time></trkpt><trkpt lat="-31.125511075049374" lon="115.45306954031308"><ele>69.0</ele><time>2026-04-12T05:46:59Z</time></trkpt><trkpt lat="-31.12542016384569" lon="115.45282015125034"><ele>69.0</ele><time>2026-04-12T05:47:00Z</time></trkpt><trkpt lat="-31.12532843524131" lon="115.45256851988171"><ele>69.0</ele><time>2026-04-12T05:47:01Z</time></trkpt><trkpt lat="-31.12523647902381" lon="115.45231502955781"><ele>69.0</ele><time>2026-04-12T05:47:02Z</time></trkpt><trkpt lat="-31.1251473330396" lon="115.45207051952697"><ele>69.0</ele><time>2026-04-12T05:47:03Z</time></trkpt><trkpt lat="-31.12504386503603" lon="115.4518351266754"><ele>69.0</ele><time>2026-04-12T05:47:04Z</time></trkpt><trkpt lat="-31.124957130131985" lon="115.45159402215882"><ele>69.0</ele><time>2026-04-12T05:47:05Z</time></trkpt><trkpt lat="-31.124870679373895" lon="115.45135515361365"><ele>69.0</ele><time>2026-04-12T05:47:06Z</time></trkpt><trkpt lat="-31.124784540051916" lon="115.45112107787975"><ele>69.66666666666667</ele><time>2026-04-12T05:47:07Z</time></trkpt><trkpt lat="-31.1247153916901" lon="115.45088554805594"><ele>70.33333333333334</ele><time>2026-04-12T05:47:08Z</time></trkpt><trkpt lat="-31.124632756901576" lon="115.45065963554576"><ele>71.0</ele><time>2026-04-12T05:47:09Z</time></trkpt><trkpt lat="-31.124550946042348" lon="115.4504366256313"><ele>71.33333333333334</ele><time>2026-04-12T05:47:10Z</time></trkpt><trkpt lat="-31.12446820509712" lon="115.45020790386764"><ele>71.66666666666667</ele><time>2026-04-12T05:47:11Z</time></trkpt><trkpt lat="-31.12438398794296" lon="115.44997548438712"><ele>72.0</ele><time>2026-04-12T05:47:12Z</time></trkpt><trkpt lat="-31.124299869692877" lon="115.44974419962544"><ele>71.66666666666667</ele><time>2026-04-12T05:47:13Z</time></trkpt><trkpt lat="-31.124216138523142" lon="115.44951367241916"><ele>71.33333333333334</ele><time>2026-04-12T05:47:14Z</time></trkpt><trkpt lat="-31.124131035040424" lon="115.4492788535971"><ele>71.0</ele><time>2026-04-12T05:47:15Z</time></trkpt><trkpt lat="-31.12404549587342" lon="115.44904283263193"><ele>71.0</ele><time>2026-04-12T05:47:16Z</time></trkpt><trkpt lat="-31.12395911784056" lon="115.44880449705533"><ele>71.0</ele><time>2026-04-12T05:47:17Z</time></trkpt><trkpt lat="-31.12387793132657" lon="115.4485800990758"><ele>71.0</ele><time>2026-04-12T05:47:18Z</time></trkpt><trkpt lat="-31.12379806102374" lon="115.44835879587664"><ele>71.66666666666667</ele><time>2026-04-12T05:47:19Z</time></trkpt><trkpt lat="-31.123717616398324" lon="115.44813590135098"><ele>72.33333333333333</ele><time>2026-04-12T05:47:20Z</time></trkpt><trkpt lat="-31.123636597563987" lon="115.44790772584898"><ele>73.0</ele><time>2026-04-12T05:47:21Z</time></trkpt><trkpt lat="-31.12355382776274" lon="115.44767453663958"><ele>73.33333333333333</ele><time>2026-04-12T05:47:22Z</time></trkpt><trkpt lat="-31.12346949676925" lon="115.4474355099525"><ele>73.66666666666667</ele><time>2026-04-12T05:47:23Z</time></trkpt><trkpt lat="-31.12336785935887" lon="115.44720354813491"><ele>74.0</ele><time>2026-04-12T05:47:24Z</time></trkpt><trkpt lat="-31.12328483867309" lon="115.4469653365509"><ele>72.33333333333334</ele><time>2026-04-12T05:47:25Z</time></trkpt><trkpt lat="-31.123196232782508" lon="115.44672836461743"><ele>70.66666666666667</ele><time>2026-04-12T05:47:26Z</time></trkpt><trkpt lat="-31.1231244273315" lon="115.44649598369669"><ele>69.0</ele><time>2026-04-12T05:47:27Z</time></trkpt><trkpt lat="-31.123044769923887" lon="115.44628728446395"><ele>69.0</ele><time>2026-04-12T05:47:27.999Z</time></trkpt><trkpt lat="-31.122970280186365" lon="115.44609213006595"><ele>69.0</ele><time>2026-04-12T05:47:28.999Z</time></trkpt><trkpt lat="-31.12290361591514" lon="115.44591594942518"><ele>69.0</ele><time>2026-04-12T05:47:29.999Z</time></trkpt><trkpt lat="-31.122831653561658" lon="115.44576580780884"><ele>69.0</ele><time>2026-04-12T05:47:30.999Z</time></trkpt><trkpt lat="-31.12278449787835" lon="115.44562959249537"><ele>69.0</ele><time>2026-04-12T05:47:31.999Z</time></trkpt><trkpt lat="-31.12274658383626" lon="115.44551345578452"><ele>69.0</ele><time>2026-04-12T05:47:32.999Z</time></trkpt><trkpt lat="-31.1227142890899" lon="115.44541416524933"><ele>69.0</ele><time>2026-04-12T05:47:33.999Z</time></trkpt><trkpt lat="-31.1226786491534" lon="115.44531348701972"><ele>69.0</ele><time>2026-04-12T05:47:34.999Z</time></trkpt><trkpt lat="-31.1226387316991" lon="115.44522181751083"><ele>68.66666666666667</ele><time>2026-04-12T05:47:35.999Z</time></trkpt><trkpt lat="-31.12260371869798" lon="115.44513040280339"><ele>68.33333333333333</ele><time>2026-04-12T05:47:36.999Z</time></trkpt><trkpt lat="-31.122573939263297" lon="115.44504122867578"><ele>68.0</ele><time>2026-04-12T05:47:37.999Z</time></trkpt><trkpt lat="-31.122542083510893" lon="115.44495544154202"><ele>67.66666666666666</ele><time>2026-04-12T05:47:38.999Z</time></trkpt><trkpt lat="-31.1225151808828" lon="115.44487566374559"><ele>67.33333333333333</ele><time>2026-04-12T05:47:39.999Z</time></trkpt><trkpt lat="-31.122490577259672" lon="115.4448058271598"><ele>67.0</ele><time>2026-04-12T05:47:40.999Z</time></trkpt><trkpt lat="-31.122464349639962" lon="115.44472171981842"><ele>67.0</ele><time>2026-04-12T05:47:42.999Z</time></trkpt><trkpt lat="-31.12242250348518" lon="115.44464993190296"><ele>67.0</ele><time>2026-04-12T05:47:55.999Z</time></trkpt><trkpt lat="-31.12241085263131" lon="115.44457178195445"><ele>67.0</ele><time>2026-04-12T05:50:04Z</time></trkpt><trkpt lat="-31.1224125804582" lon="115.44468578082854"><ele>67.0</ele><time>2026-04-12T05:52:06.748Z</time></trkpt><trkpt lat="-31.12239081538522" lon="115.44461009493986"><ele>67.0</ele><time>2026-04-12T05:52:43Z</time></trkpt><trkpt lat="-31.12234676974942" lon="115.44455287026821"><ele>67.0</ele><time>2026-04-12T05:53:13Z</time></trkpt><trkpt lat="-31.122319480052155" lon="115.44442812030448"><ele>65.6</ele><time>2026-04-12T05:53:15Z</time></trkpt><trkpt lat="-31.122266704703726" lon="115.44428546735925"><ele>64.2</ele><time>2026-04-12T05:53:17Z</time></trkpt><trkpt lat="-31.122243602519394" lon="115.44418326530686"><ele>62.8</ele><time>2026-04-12T05:53:18Z</time></trkpt><trkpt lat="-31.122226988274694" lon="115.44406835238141"><ele>61.4</ele><time>2026-04-12T05:53:19Z</time></trkpt><trkpt lat="-31.1221855171767" lon="115.44395462102557"><ele>60.0</ele><time>2026-04-12T05:53:20Z</time></trkpt><trkpt lat="-31.122142720820907" lon="115.44383789875643"><ele>60.0</ele><time>2026-04-12T05:53:21Z</time></trkpt><trkpt lat="-31.122094862564815" lon="115.44370872757219"><ele>60.0</ele><time>2026-04-12T05:53:22Z</time></trkpt><trkpt lat="-31.122047666126175" lon="115.44358309329468"><ele>60.0</ele><time>2026-04-12T05:53:23Z</time></trkpt><trkpt lat="-31.121999231475407" lon="115.44345205033221"><ele>60.0</ele><time>2026-04-12T05:53:24Z</time></trkpt><trkpt lat="-31.121947849201245" lon="115.44331302359086"><ele>60.0</ele><time>2026-04-12T05:53:25Z</time></trkpt><trkpt lat="-31.121882499831397" lon="115.44317620685787"><ele>60.0</ele><time>2026-04-12T05:53:26Z</time></trkpt><trkpt lat="-31.121829360563332" lon="115.44302450585515"><ele>60.0</ele><time>2026-04-12T05:53:27Z</time></trkpt><trkpt lat="-31.121778155155997" lon="115.44285229551777"><ele>60.0</ele><time>2026-04-12T05:53:28Z</time></trkpt><trkpt lat="-31.121706358302035" lon="115.4426907139661"><ele>60.33333333333333</ele><time>2026-04-12T05:53:29Z</time></trkpt><trkpt lat="-31.121644928908967" lon="115.44252246768336"><ele>60.666666666666664</ele><time>2026-04-12T05:53:30Z</time></trkpt><trkpt lat="-31.121580112657117" lon="115.44234726270034"><ele>61.0</ele><time>2026-04-12T05:53:31Z</time></trkpt><trkpt lat="-31.121534826214866" lon="115.44215893054803"><ele>60.33333333333333</ele><time>2026-04-12T05:53:32Z</time></trkpt><trkpt lat="-31.121473287710177" lon="115.4419770563027"><ele>59.66666666666667</ele><time>2026-04-12T05:53:33Z</time></trkpt><trkpt lat="-31.121419857942588" lon="115.44181029011861"><ele>59.0</ele><time>2026-04-12T05:53:34Z</time></trkpt><trkpt lat="-31.12137776429532" lon="115.4416485181179"><ele>59.0</ele><time>2026-04-12T05:53:35Z</time></trkpt><trkpt lat="-31.12134681272917" lon="115.44150937824284"><ele>59.00000000000001</ele><time>2026-04-12T05:53:36Z</time></trkpt><trkpt lat="-31.12132411804718" lon="115.44139733272974"><ele>59.00000000000001</ele><time>2026-04-12T05:53:37Z</time></trkpt><trkpt lat="-31.12130700775161" lon="115.44130470288903"><ele>59.0</ele><time>2026-04-12T05:53:38Z</time></trkpt><trkpt lat="-31.12128679203532" lon="115.44119357638559"><ele>59.0</ele><time>2026-04-12T05:53:40Z</time></trkpt><trkpt lat="-31.121272701870446" lon="115.44111598681303"><ele>59.2</ele><time>2026-04-12T05:53:54Z</time></trkpt><trkpt lat="-31.121245930957514" lon="115.4409685688579"><ele>59.400000000000006</ele><time>2026-04-12T05:53:56Z</time></trkpt><trkpt lat="-31.121213969834383" lon="115.44086634258858"><ele>59.6</ele><time>2026-04-12T05:53:57Z</time></trkpt><trkpt lat="-31.12120265087304" lon="115.44075533332125"><ele>59.8</ele><time>2026-04-12T05:53:58Z</time></trkpt><trkpt lat="-31.121176780015546" lon="115.44062680342142"><ele>60.0</ele><time>2026-04-12T05:53:59Z</time></trkpt><trkpt lat="-31.121152966529817" lon="115.44047432475558"><ele>59.66666666666667</ele><time>2026-04-12T05:54:00Z</time></trkpt><trkpt lat="-31.12112803254091" lon="115.44031365708895"><ele>59.333333333333336</ele><time>2026-04-12T05:54:01Z</time></trkpt><trkpt lat="-31.12109427708431" lon="115.44012568736716"><ele>59.0</ele><time>2026-04-12T05:54:02Z</time></trkpt><trkpt lat="-31.121055024246008" lon="115.43990978416646"><ele>59.0</ele><time>2026-04-12T05:54:03Z</time></trkpt><trkpt lat="-31.121010818470555" lon="115.43967466585637"><ele>59.0</ele><time>2026-04-12T05:54:04Z</time></trkpt><trkpt lat="-31.120968843628308" lon="115.4394374333254"><ele>59.0</ele><time>2026-04-12T05:54:05Z</time></trkpt><trkpt lat="-31.120924287941424" lon="115.43918660299236"><ele>58.333333333333336</ele><time>2026-04-12T05:54:06Z</time></trkpt><trkpt lat="-31.12087997346248" lon="115.43893838929617"><ele>57.66666666666667</ele><time>2026-04-12T05:54:07Z</time></trkpt><trkpt lat="-31.1208331150244" lon="115.43868607501999"><ele>57.0</ele><time>2026-04-12T05:54:08Z</time></trkpt><trkpt lat="-31.120787531200268" lon="115.43843405098355"><ele>57.0</ele><time>2026-04-12T05:54:09Z</time></trkpt><trkpt lat="-31.120743305127554" lon="115.43818752210953"><ele>57.0</ele><time>2026-04-12T05:54:10Z</time></trkpt><trkpt lat="-31.120698074127244" lon="115.43794117692222"><ele>57.0</ele><time>2026-04-12T05:54:11Z</time></trkpt><trkpt lat="-31.1206481075076" lon="115.43769733661611"><ele>57.66666666666667</ele><time>2026-04-12T05:54:12Z</time></trkpt><trkpt lat="-31.120597544271458" lon="115.43745086943797"><ele>58.333333333333336</ele><time>2026-04-12T05:54:13Z</time></trkpt><trkpt lat="-31.120548434677602" lon="115.43720380371994"><ele>59.0</ele><time>2026-04-12T05:54:14Z</time></trkpt><trkpt lat="-31.120499070141612" lon="115.43695031023364"><ele>56.0</ele><time>2026-04-12T05:54:15Z</time></trkpt><trkpt lat="-31.120451969361785" lon="115.43670271607539"><ele>53.0</ele><time>2026-04-12T05:54:16Z</time></trkpt><trkpt lat="-31.120404621240304" lon="115.4364506375008"><ele>50.0</ele><time>2026-04-12T05:54:17Z</time></trkpt><trkpt lat="-31.12035677575186" lon="115.43620071268117"><ele>49.66666666666667</ele><time>2026-04-12T05:54:18Z</time></trkpt><trkpt lat="-31.120306777218445" lon="115.43595215294783"><ele>49.33333333333333</ele><time>2026-04-12T05:54:19Z</time></trkpt><trkpt lat="-31.12025798235205" lon="115.43570058092233"><ele>49.0</ele><time>2026-04-12T05:54:20Z</time></trkpt><trkpt lat="-31.12020941627375" lon="115.43544849484886"><ele>49.0</ele><time>2026-04-12T05:54:21Z</time></trkpt><trkpt lat="-31.12015818855591" lon="115.43519838772569"><ele>49.0</ele><time>2026-04-12T05:54:22Z</time></trkpt><trkpt lat="-31.120107933274017" lon="115.43494889709966"><ele>49.0</ele><time>2026-04-12T05:54:23Z</time></trkpt><trkpt lat="-31.12005849528019" lon="115.43469734454182"><ele>47.666666666666664</ele><time>2026-04-12T05:54:24Z</time></trkpt><trkpt lat="-31.120007630857295" lon="115.43444807335125"><ele>46.33333333333333</ele><time>2026-04-12T05:54:25Z</time></trkpt><trkpt lat="-31.11995751964611" lon="115.43419495792209"><ele>45.0</ele><time>2026-04-12T05:54:26Z</time></trkpt><trkpt lat="-31.119906301346433" lon="115.43393825285648"><ele>44.5</ele><time>2026-04-12T05:54:27Z</time></trkpt><trkpt lat="-31.119871915811057" lon="115.43367743505674"><ele>44.0</ele><time>2026-04-12T05:54:28Z</time></trkpt><trkpt lat="-31.119823293856207" lon="115.43341798951181"><ele>44.0</ele><time>2026-04-12T05:54:29Z</time></trkpt><trkpt lat="-31.119774094707317" lon="115.43315790149614"><ele>44.0</ele><time>2026-04-12T05:54:30Z</time></trkpt><trkpt lat="-31.11971052600544" lon="115.43290115882941"><ele>43.0</ele><time>2026-04-12T05:54:31Z</time></trkpt><trkpt lat="-31.119661897001436" lon="115.43263946971146"><ele>42.0</ele><time>2026-04-12T05:54:32Z</time></trkpt><trkpt lat="-31.119612281905763" lon="115.43237709734126"><ele>40.5</ele><time>2026-04-12T05:54:33Z</time></trkpt><trkpt lat="-31.119561528965168" lon="115.43211527047777"><ele>39.0</ele><time>2026-04-12T05:54:34Z</time></trkpt><trkpt lat="-31.11952628266098" lon="115.43184805160925"><ele>39.0</ele><time>2026-04-12T05:54:35Z</time></trkpt><trkpt lat="-31.11947589006371" lon="115.43158254562739"><ele>39.0</ele><time>2026-04-12T05:54:36Z</time></trkpt><trkpt lat="-31.11942600039132" lon="115.43131495608748"><ele>38.5</ele><time>2026-04-12T05:54:37Z</time></trkpt><trkpt lat="-31.11937568700497" lon="115.43105042453074"><ele>38.0</ele><time>2026-04-12T05:54:38Z</time></trkpt><trkpt lat="-31.11931282005684" lon="115.43078871543199"><ele>38.0</ele><time>2026-04-12T05:54:39Z</time></trkpt><trkpt lat="-31.119266211235818" lon="115.43054280380632"><ele>38.0</ele><time>2026-04-12T05:54:40Z</time></trkpt><trkpt lat="-31.11921841209471" lon="115.43030049035704"><ele>38.0</ele><time>2026-04-12T05:54:41Z</time></trkpt><trkpt lat="-31.11916985119909" lon="115.43004880101533"><ele>37.5</ele><time>2026-04-12T05:54:42Z</time></trkpt><trkpt lat="-31.119122853377" lon="115.42978453452403"><ele>37.0</ele><time>2026-04-12T05:54:43Z</time></trkpt><trkpt lat="-31.11907266544809" lon="115.42952001645894"><ele>37.0</ele><time>2026-04-12T05:54:44Z</time></trkpt><trkpt lat="-31.119022469894098" lon="115.42925571575198"><ele>37.0</ele><time>2026-04-12T05:54:45Z</time></trkpt><trkpt lat="-31.118973476024106" lon="115.428996059253"><ele>36.5</ele><time>2026-04-12T05:54:46Z</time></trkpt><trkpt lat="-31.11892497681371" lon="115.42873083813215"><ele>36.0</ele><time>2026-04-12T05:54:47Z</time></trkpt><trkpt lat="-31.11887667582222" lon="115.42846223676482"><ele>36.0</ele><time>2026-04-12T05:54:48Z</time></trkpt><trkpt lat="-31.118826571341547" lon="115.4281962202196"><ele>36.0</ele><time>2026-04-12T05:54:49Z</time></trkpt><trkpt lat="-31.11877439061947" lon="115.42793565972202"><ele>35.0</ele><time>2026-04-12T05:54:50Z</time></trkpt><trkpt lat="-31.11872574519521" lon="115.42767532879363"><ele>34.0</ele><time>2026-04-12T05:54:51Z</time></trkpt><trkpt lat="-31.11867415169685" lon="115.42740685256"><ele>33.0</ele><time>2026-04-12T05:54:52Z</time></trkpt><trkpt lat="-31.118621925283204" lon="115.42714194122306"><ele>32.0</ele><time>2026-04-12T05:54:53Z</time></trkpt><trkpt lat="-31.118569807701093" lon="115.42687783533776"><ele>32.0</ele><time>2026-04-12T05:54:54Z</time></trkpt><trkpt lat="-31.118518917860527" lon="115.42662557034173"><ele>32.0</ele><time>2026-04-12T05:54:55Z</time></trkpt><trkpt lat="-31.11847119742501" lon="115.42639263556795"><ele>32.0</ele><time>2026-04-12T05:54:56Z</time></trkpt><trkpt lat="-31.11843946804622" lon="115.4261738078762"><ele>31.0</ele><time>2026-04-12T05:54:57Z</time></trkpt><trkpt lat="-31.118395371658853" lon="115.4259534605605"><ele>30.0</ele><time>2026-04-12T05:54:58Z</time></trkpt><trkpt lat="-31.118349447870422" lon="115.4257194138812"><ele>29.0</ele><time>2026-04-12T05:54:59Z</time></trkpt><trkpt lat="-31.118304092177645" lon="115.42548704995724"><ele>28.0</ele><time>2026-04-12T05:55:00Z</time></trkpt><trkpt lat="-31.118266988288347" lon="115.42527155061816"><ele>27.0</ele><time>2026-04-12T05:55:01Z</time></trkpt><trkpt lat="-31.118238076269254" lon="115.42507918237983"><ele>26.0</ele><time>2026-04-12T05:55:02Z</time></trkpt><trkpt lat="-31.118225150105133" lon="115.42492977511485"><ele>26.0</ele><time>2026-04-12T05:55:03Z</time></trkpt><trkpt lat="-31.118226585900317" lon="115.42482189695863"><ele>26.0</ele><time>2026-04-12T05:55:04Z</time></trkpt><trkpt lat="-31.118233261738954" lon="115.42474070931205"><ele>26.0</ele><time>2026-04-12T05:55:05Z</time></trkpt><trkpt lat="-31.118241079578148" lon="115.42466385340329"><ele>26.0</ele><time>2026-04-12T05:55:07Z</time></trkpt><trkpt lat="-31.118250099958928" lon="115.42456705324365"><ele>26.0</ele><time>2026-04-12T05:55:10Z</time></trkpt><trkpt lat="-31.118072037719823" lon="115.42448863704628"><ele>25.75</ele><time>2026-04-12T05:55:11Z</time></trkpt><trkpt lat="-31.117981267813352" lon="115.42444752124429"><ele>25.5</ele><time>2026-04-12T05:55:12Z</time></trkpt><trkpt lat="-31.1178618091706" lon="115.42441563799792"><ele>25.25</ele><time>2026-04-12T05:55:13Z</time></trkpt><trkpt lat="-31.117719500516337" lon="115.4243708615204"><ele>25.0</ele><time>2026-04-12T05:55:14Z</time></trkpt><trkpt lat="-31.117572172929552" lon="115.42431296138952"><ele>25.0</ele><time>2026-04-12T05:55:15Z</time></trkpt><trkpt lat="-31.117407325774177" lon="115.424240541443"><ele>25.0</ele><time>2026-04-12T05:55:16Z</time></trkpt><trkpt lat="-31.11722575347393" lon="115.42415742135202"><ele>25.0</ele><time>2026-04-12T05:55:17Z</time></trkpt><trkpt lat="-31.11704267884562" lon="115.42406867923015"><ele>24.666666666666668</ele><time>2026-04-12T05:55:18Z</time></trkpt><trkpt lat="-31.116855453430382" lon="115.4239677471356"><ele>24.333333333333336</ele><time>2026-04-12T05:55:19Z</time></trkpt><trkpt lat="-31.116654713395633" lon="115.42385526736467"><ele>24.0</ele><time>2026-04-12T05:55:20Z</time></trkpt><trkpt lat="-31.11644932291049" lon="115.42373699609658"><ele>25.5</ele><time>2026-04-12T05:55:21Z</time></trkpt><trkpt lat="-31.116245058937903" lon="115.42361840614976"><ele>27.0</ele><time>2026-04-12T05:55:22Z</time></trkpt><trkpt lat="-31.116032638339583" lon="115.42349794790756"><ele>27.0</ele><time>2026-04-12T05:55:23Z</time></trkpt><trkpt lat="-31.115810698334865" lon="115.42337546669656"><ele>27.0</ele><time>2026-04-12T05:55:24Z</time></trkpt><trkpt lat="-31.11559147145254" lon="115.42325490461147"><ele>27.5</ele><time>2026-04-12T05:55:25Z</time></trkpt><trkpt lat="-31.115378313619946" lon="115.42313562654304"><ele>28.0</ele><time>2026-04-12T05:55:26Z</time></trkpt><trkpt lat="-31.115165561309418" lon="115.42301677741389"><ele>30.0</ele><time>2026-04-12T05:55:27Z</time></trkpt><trkpt lat="-31.11495155416263" lon="115.42289923565998"><ele>32.0</ele><time>2026-04-12T05:55:28Z</time></trkpt><trkpt lat="-31.11473935935676" lon="115.42278300942478"><ele>33.5</ele><time>2026-04-12T05:55:29Z</time></trkpt><trkpt lat="-31.114528564005447" lon="115.42266805512828"><ele>35.0</ele><time>2026-04-12T05:55:30Z</time></trkpt><trkpt lat="-31.114315017958404" lon="115.42255201315936"><ele>35.0</ele><time>2026-04-12T05:55:31Z</time></trkpt><trkpt lat="-31.114103190725704" lon="115.42243364187524"><ele>35.0</ele><time>2026-04-12T05:55:32Z</time></trkpt><trkpt lat="-31.113890311444806" lon="115.42231475212539"><ele>36.5</ele><time>2026-04-12T05:55:33Z</time></trkpt><trkpt lat="-31.113673843589734" lon="115.42219630751302"><ele>38.0</ele><time>2026-04-12T05:55:34Z</time></trkpt><trkpt lat="-31.113456556667526" lon="115.42207915244963"><ele>38.5</ele><time>2026-04-12T05:55:35Z</time></trkpt><trkpt lat="-31.11324009735127" lon="115.42195907826623"><ele>39.0</ele><time>2026-04-12T05:55:36Z</time></trkpt><trkpt lat="-31.11302286611618" lon="115.4218384580267"><ele>40.5</ele><time>2026-04-12T05:55:37Z</time></trkpt><trkpt lat="-31.112805296619303" lon="115.42171848082185"><ele>42.0</ele><time>2026-04-12T05:55:38Z</time></trkpt><trkpt lat="-31.112585773411585" lon="115.42160098352319"><ele>43.0</ele><time>2026-04-12T05:55:39Z</time></trkpt><trkpt lat="-31.112366839699103" lon="115.42148342798252"><ele>44.0</ele><time>2026-04-12T05:55:40Z</time></trkpt><trkpt lat="-31.112148248055664" lon="115.42136293202034"><ele>44.5</ele><time>2026-04-12T05:55:41Z</time></trkpt><trkpt lat="-31.111930407351473" lon="115.42124025341613"><ele>45.0</ele><time>2026-04-12T05:55:42Z</time></trkpt><trkpt lat="-31.111711752070978" lon="115.42111704087498"><ele>46.0</ele><time>2026-04-12T05:55:43Z</time></trkpt><trkpt lat="-31.111487494364106" lon="115.42099280312718"><ele>47.0</ele><time>2026-04-12T05:55:44Z</time></trkpt><trkpt lat="-31.11126856391615" lon="115.42087050844485"><ele>47.0</ele><time>2026-04-12T05:55:45Z</time></trkpt><trkpt lat="-31.111052535610114" lon="115.42075158811504"><ele>47.0</ele><time>2026-04-12T05:55:46Z</time></trkpt><trkpt lat="-31.110835542188276" lon="115.42063191006758"><ele>46.0</ele><time>2026-04-12T05:55:47Z</time></trkpt><trkpt lat="-31.110618144861615" lon="115.42050903013272"><ele>45.0</ele><time>2026-04-12T05:55:48Z</time></trkpt><trkpt lat="-31.11039957324607" lon="115.42038570091043"><ele>45.0</ele><time>2026-04-12T05:55:49Z</time></trkpt><trkpt lat="-31.110177517152177" lon="115.42026370634994"><ele>45.0</ele><time>2026-04-12T05:55:50Z</time></trkpt><trkpt lat="-31.109951906128796" lon="115.42014256527436"><ele>43.0</ele><time>2026-04-12T05:55:51Z</time></trkpt><trkpt lat="-31.109724758995426" lon="115.42002155713212"><ele>41.0</ele><time>2026-04-12T05:55:52Z</time></trkpt><trkpt lat="-31.10949760246628" lon="115.41989918465558"><ele>41.0</ele><time>2026-04-12T05:55:53Z</time></trkpt><trkpt lat="-31.10927117486427" lon="115.41977337495337"><ele>41.0</ele><time>2026-04-12T05:55:54Z</time></trkpt><trkpt lat="-31.109044687929664" lon="115.41964744085861"><ele>39.0</ele><time>2026-04-12T05:55:55Z</time></trkpt><trkpt lat="-31.108819188732433" lon="115.41952385407902"><ele>37.0</ele><time>2026-04-12T05:55:56Z</time></trkpt><trkpt lat="-31.108589628147424" lon="115.41939869891596"><ele>37.0</ele><time>2026-04-12T05:55:57Z</time></trkpt><trkpt lat="-31.10835925820209" lon="115.41927200603816"><ele>37.0</ele><time>2026-04-12T05:55:58Z</time></trkpt><trkpt lat="-31.10812732562534" lon="115.41914189965135"><ele>36.0</ele><time>2026-04-12T05:55:59Z</time></trkpt><trkpt lat="-31.107896313836385" lon="115.41901607509374"><ele>35.0</ele><time>2026-04-12T05:56:00Z</time></trkpt><trkpt lat="-31.107664445539502" lon="115.41889135031118"><ele>35.5</ele><time>2026-04-12T05:56:01Z</time></trkpt><trkpt lat="-31.10743893919498" lon="115.41876827140553"><ele>36.0</ele><time>2026-04-12T05:56:02.001Z</time></trkpt><trkpt lat="-31.107214453786906" lon="115.41864446245062"><ele>36.0</ele><time>2026-04-12T05:56:03.001Z</time></trkpt><trkpt lat="-31.1069915082049" lon="115.41851915663783"><ele>36.0</ele><time>2026-04-12T05:56:04.001Z</time></trkpt><trkpt lat="-31.106767059509387" lon="115.41839555881884"><ele>37.0</ele><time>2026-04-12T05:56:05.001Z</time></trkpt><trkpt lat="-31.10654258434944" lon="115.41827376181163"><ele>38.0</ele><time>2026-04-12T05:56:06.001Z</time></trkpt><trkpt lat="-31.106317731421203" lon="115.41814984408876"><ele>38.0</ele><time>2026-04-12T05:56:07.001Z</time></trkpt><trkpt lat="-31.10609616616086" lon="115.41802673424486"><ele>38.0</ele><time>2026-04-12T05:56:08.001Z</time></trkpt><trkpt lat="-31.10587316137093" lon="115.41790319706145"><ele>37.5</ele><time>2026-04-12T05:56:09.001Z</time></trkpt><trkpt lat="-31.105649367118826" lon="115.41778078179084"><ele>37.0</ele><time>2026-04-12T05:56:10.001Z</time></trkpt><trkpt lat="-31.10542204373719" lon="115.41765660297436"><ele>37.0</ele><time>2026-04-12T05:56:11.001Z</time></trkpt><trkpt lat="-31.105199309803492" lon="115.41753340175659"><ele>37.0</ele><time>2026-04-12T05:56:12.001Z</time></trkpt><trkpt lat="-31.10497788666547" lon="115.4174114117688"><ele>39.0</ele><time>2026-04-12T05:56:13.001Z</time></trkpt><trkpt lat="-31.10475560913932" lon="115.41728721781142"><ele>41.0</ele><time>2026-04-12T05:56:14.001Z</time></trkpt><trkpt lat="-31.1045337007986" lon="115.41716429073756"><ele>41.5</ele><time>2026-04-12T05:56:15.001Z</time></trkpt><trkpt lat="-31.104309838774782" lon="115.41704075997549"><ele>42.0</ele><time>2026-04-12T05:56:16.001Z</time></trkpt><trkpt lat="-31.104085793673747" lon="115.41691623449618"><ele>41.5</ele><time>2026-04-12T05:56:17.001Z</time></trkpt><trkpt lat="-31.103864919168284" lon="115.41678690086256"><ele>41.0</ele><time>2026-04-12T05:56:18.001Z</time></trkpt><trkpt lat="-31.103644819124067" lon="115.4166453039794"><ele>41.0</ele><time>2026-04-12T05:56:19.001Z</time></trkpt><trkpt lat="-31.10343208197221" lon="115.41649166845531"><ele>41.0</ele><time>2026-04-12T05:56:20.001Z</time></trkpt><trkpt lat="-31.103224071219554" lon="115.4163302746245"><ele>39.5</ele><time>2026-04-12T05:56:21Z</time></trkpt><trkpt lat="-31.103018835754423" lon="115.41616249394242"><ele>38.0</ele><time>2026-04-12T05:56:22Z</time></trkpt><trkpt lat="-31.10281814499413" lon="115.41599088840891"><ele>38.0</ele><time>2026-04-12T05:56:23Z</time></trkpt><trkpt lat="-31.102625138320935" lon="115.41581888754216"><ele>38.0</ele><time>2026-04-12T05:56:24Z</time></trkpt><trkpt lat="-31.102437435606312" lon="115.41563828079651"><ele>38.5</ele><time>2026-04-12T05:56:25Z</time></trkpt><trkpt lat="-31.102258146791893" lon="115.41544914027138"><ele>39.0</ele><time>2026-04-12T05:56:26Z</time></trkpt><trkpt lat="-31.10208365964604" lon="115.41525146406059"><ele>39.0</ele><time>2026-04-12T05:56:27Z</time></trkpt><trkpt lat="-31.10191548420357" lon="115.41505087935747"><ele>39.0</ele><time>2026-04-12T05:56:28Z</time></trkpt><trkpt lat="-31.101750808054934" lon="115.41484407360306"><ele>39.5</ele><time>2026-04-12T05:56:29Z</time></trkpt><trkpt lat="-31.10159128700808" lon="115.41463252369753"><ele>40.0</ele><time>2026-04-12T05:56:30Z</time></trkpt><trkpt lat="-31.101433717240205" lon="115.41442011561917"><ele>39.0</ele><time>2026-04-12T05:56:31Z</time></trkpt><trkpt lat="-31.10127385755609" lon="115.41420594295555"><ele>38.0</ele><time>2026-04-12T05:56:32Z</time></trkpt><trkpt lat="-31.101112167679478" lon="115.41398870657329"><ele>36.0</ele><time>2026-04-12T05:56:33Z</time></trkpt><trkpt lat="-31.100948407905154" lon="115.41376657798114"><ele>34.0</ele><time>2026-04-12T05:56:34Z</time></trkpt><trkpt lat="-31.100787512529518" lon="115.41354847595518"><ele>36.5</ele><time>2026-04-12T05:56:35Z</time></trkpt><trkpt lat="-31.10062633841154" lon="115.41333224633642"><ele>39.0</ele><time>2026-04-12T05:56:36Z</time></trkpt><trkpt lat="-31.10046531601244" lon="115.41311807486294"><ele>38.5</ele><time>2026-04-12T05:56:37Z</time></trkpt><trkpt lat="-31.100304547344948" lon="115.41290463006128"><ele>38.0</ele><time>2026-04-12T05:56:38Z</time></trkpt><trkpt lat="-31.100142986083398" lon="115.41269123111628"><ele>38.0</ele><time>2026-04-12T05:56:39Z</time></trkpt><trkpt lat="-31.099978317139986" lon="115.41248006555735"><ele>38.0</ele><time>2026-04-12T05:56:40Z</time></trkpt><trkpt lat="-31.09981079050887" lon="115.41227173489656"><ele>38.5</ele><time>2026-04-12T05:56:41Z</time></trkpt><trkpt lat="-31.09963739373877" lon="115.41207331032459"><ele>39.0</ele><time>2026-04-12T05:56:42Z</time></trkpt><trkpt lat="-31.099454591896002" lon="115.41187991925132"><ele>39.0</ele><time>2026-04-12T05:56:43Z</time></trkpt><trkpt lat="-31.099267591738744" lon="115.41169672317069"><ele>39.0</ele><time>2026-04-12T05:56:44Z</time></trkpt><trkpt lat="-31.09907564037623" lon="115.41151250657954"><ele>38.5</ele><time>2026-04-12T05:56:45Z</time></trkpt><trkpt lat="-31.09888315628783" lon="115.41133380934339"><ele>38.0</ele><time>2026-04-12T05:56:46Z</time></trkpt><trkpt lat="-31.09868568510522" lon="115.41116521007098"><ele>38.0</ele><time>2026-04-12T05:56:47Z</time></trkpt><trkpt lat="-31.098482928100037" lon="115.41100406340921"><ele>38.0</ele><time>2026-04-12T05:56:48Z</time></trkpt><trkpt lat="-31.09827499669195" lon="115.41085167496014"><ele>38.5</ele><time>2026-04-12T05:56:49Z</time></trkpt><trkpt lat="-31.098064266909603" lon="115.41070132973866"><ele>39.0</ele><time>2026-04-12T05:56:50Z</time></trkpt><trkpt lat="-31.097851197339022" lon="115.41055138069515"><ele>39.5</ele><time>2026-04-12T05:56:51Z</time></trkpt><trkpt lat="-31.09763780972603" lon="115.41040182417741"><ele>40.0</ele><time>2026-04-12T05:56:52Z</time></trkpt><trkpt lat="-31.097425552289927" lon="115.41024967483463"><ele>38.0</ele><time>2026-04-12T05:56:53Z</time></trkpt><trkpt lat="-31.097212219558585" lon="115.41009519856144"><ele>36.0</ele><time>2026-04-12T05:56:54Z</time></trkpt><trkpt lat="-31.096999259764033" lon="115.40994110789114"><ele>36.0</ele><time>2026-04-12T05:56:55Z</time></trkpt><trkpt lat="-31.09678803187201" lon="115.40978741726099"><ele>36.0</ele><time>2026-04-12T05:56:56Z</time></trkpt><trkpt lat="-31.096573296580004" lon="115.4096318756273"><ele>35.0</ele><time>2026-04-12T05:56:57Z</time></trkpt><trkpt lat="-31.09635590462949" lon="115.40947533518063"><ele>34.0</ele><time>2026-04-12T05:56:58Z</time></trkpt><trkpt lat="-31.09613394505053" lon="115.4093196303006"><ele>34.0</ele><time>2026-04-12T05:56:59Z</time></trkpt><trkpt lat="-31.09591098658558" lon="115.40916383883292"><ele>34.0</ele><time>2026-04-12T05:57:00Z</time></trkpt><trkpt lat="-31.095692670310978" lon="115.4090067801882"><ele>33.5</ele><time>2026-04-12T05:57:01Z</time></trkpt><trkpt lat="-31.095475196355515" lon="115.408850283905"><ele>33.0</ele><time>2026-04-12T05:57:02Z</time></trkpt><trkpt lat="-31.09526779343134" lon="115.40870160772599"><ele>32.5</ele><time>2026-04-12T05:57:03Z</time></trkpt><trkpt lat="-31.09506709120645" lon="115.40856056389927"><ele>32.0</ele><time>2026-04-12T05:57:04Z</time></trkpt><trkpt lat="-31.09487150799638" lon="115.40842314254131"><ele>32.0</ele><time>2026-04-12T05:57:05Z</time></trkpt><trkpt lat="-31.094679475142932" lon="115.40828832723032"><ele>32.0</ele><time>2026-04-12T05:57:06Z</time></trkpt><trkpt lat="-31.094489837026845" lon="115.40815164806462"><ele>32.0</ele><time>2026-04-12T05:57:07Z</time></trkpt><trkpt lat="-31.094305283668792" lon="115.40801585616971"><ele>30.666666666666664</ele><time>2026-04-12T05:57:08Z</time></trkpt><trkpt lat="-31.09412655515898" lon="115.40788755417742"><ele>29.333333333333336</ele><time>2026-04-12T05:57:09Z</time></trkpt><trkpt lat="-31.093959051577198" lon="115.40776896872129"><ele>28.0</ele><time>2026-04-12T05:57:10Z</time></trkpt><trkpt lat="-31.09379767434892" lon="115.40765192419369"><ele>28.0</ele><time>2026-04-12T05:57:11Z</time></trkpt><trkpt lat="-31.09364672455135" lon="115.4075367712362"><ele>28.0</ele><time>2026-04-12T05:57:12Z</time></trkpt><trkpt lat="-31.093505137505243" lon="115.40742452730778"><ele>28.0</ele><time>2026-04-12T05:57:13Z</time></trkpt><trkpt lat="-31.093380513621096" lon="115.40732479204223"><ele>28.0</ele><time>2026-04-12T05:57:14Z</time></trkpt><trkpt lat="-31.09326913563887" lon="115.40724308911406"><ele>27.999999999999996</ele><time>2026-04-12T05:57:15Z</time></trkpt><trkpt lat="-31.093175059677183" lon="115.40717963085137"><ele>27.999999999999996</ele><time>2026-04-12T05:57:16Z</time></trkpt><trkpt lat="-31.09310898283064" lon="115.40711737407776"><ele>28.0</ele><time>2026-04-12T05:57:17Z</time></trkpt><trkpt lat="-31.093068985794584" lon="115.40704188202031"><ele>28.0</ele><time>2026-04-12T05:57:18.001Z</time></trkpt><trkpt lat="-31.093099853703606" lon="115.4068534686012"><ele>27.75</ele><time>2026-04-12T05:57:20.001Z</time></trkpt><trkpt lat="-31.093151995452775" lon="115.40675089947194"><ele>27.5</ele><time>2026-04-12T05:57:21.001Z</time></trkpt><trkpt lat="-31.093202711979462" lon="115.40663377279853"><ele>27.25</ele><time>2026-04-12T05:57:22.001Z</time></trkpt><trkpt lat="-31.093276357317286" lon="115.4065076884242"><ele>27.0</ele><time>2026-04-12T05:57:23.001Z</time></trkpt><trkpt lat="-31.093351370438434" lon="115.4063629024549"><ele>27.333333333333336</ele><time>2026-04-12T05:57:24.001Z</time></trkpt><trkpt lat="-31.093435754850127" lon="115.40620298018428"><ele>27.666666666666668</ele><time>2026-04-12T05:57:25.001Z</time></trkpt><trkpt lat="-31.093528542064327" lon="115.40602714091469"><ele>28.0</ele><time>2026-04-12T05:57:26.001Z</time></trkpt><trkpt lat="-31.093628006218626" lon="115.40584304130134"><ele>28.0</ele><time>2026-04-12T05:57:27.001Z</time></trkpt><trkpt lat="-31.093726740928417" lon="115.40566601189968"><ele>28.0</ele><time>2026-04-12T05:57:28.001Z</time></trkpt><trkpt lat="-31.09383732615435" lon="115.40548652410853"><ele>28.0</ele><time>2026-04-12T05:57:29.001Z</time></trkpt><trkpt lat="-31.093962840921996" lon="115.40530925205171"><ele>27.333333333333336</ele><time>2026-04-12T05:57:30.001Z</time></trkpt><trkpt lat="-31.094103097069674" lon="115.40513592117588"><ele>26.666666666666664</ele><time>2026-04-12T05:57:31.001Z</time></trkpt><trkpt lat="-31.09425590409967" lon="115.4049713413668"><ele>26.0</ele><time>2026-04-12T05:57:32.001Z</time></trkpt><trkpt lat="-31.094411033449784" lon="115.40482240369764"><ele>26.0</ele><time>2026-04-12T05:57:33.001Z</time></trkpt><trkpt lat="-31.09456795923947" lon="115.40469379566443"><ele>26.0</ele><time>2026-04-12T05:57:34.001Z</time></trkpt><trkpt lat="-31.09473517514556" lon="115.40457863698425"><ele>26.0</ele><time>2026-04-12T05:57:35.001Z</time></trkpt><trkpt lat="-31.094908299558227" lon="115.40446681965285"><ele>28.666666666666664</ele><time>2026-04-12T05:57:36.001Z</time></trkpt><trkpt lat="-31.095091680253045" lon="115.40436146346029"><ele>31.333333333333336</ele><time>2026-04-12T05:57:37.001Z</time></trkpt><trkpt lat="-31.09528395577979" lon="115.40427337509014"><ele>34.0</ele><time>2026-04-12T05:57:38.001Z</time></trkpt><trkpt lat="-31.095489973586144" lon="115.40419734294272"><ele>34.0</ele><time>2026-04-12T05:57:39.001Z</time></trkpt><trkpt lat="-31.09570604484812" lon="115.40413157362359"><ele>34.0</ele><time>2026-04-12T05:57:40.001Z</time></trkpt><trkpt lat="-31.095930033607846" lon="115.40407753737826"><ele>35.333333333333336</ele><time>2026-04-12T05:57:41.001Z</time></trkpt><trkpt lat="-31.09615105455942" lon="115.40403301840836"><ele>36.666666666666664</ele><time>2026-04-12T05:57:42.001Z</time></trkpt><trkpt lat="-31.09636149234043" lon="115.40399355238063"><ele>38.0</ele><time>2026-04-12T05:57:43.001Z</time></trkpt><trkpt lat="-31.096567589680735" lon="115.40395742873078"><ele>37.33333333333333</ele><time>2026-04-12T05:57:44.001Z</time></trkpt><trkpt lat="-31.09677501564387" lon="115.40392093661582"><ele>36.666666666666664</ele><time>2026-04-12T05:57:45.001Z</time></trkpt><trkpt lat="-31.096979624216758" lon="115.40387610747487"><ele>36.0</ele><time>2026-04-12T05:57:46.001Z</time></trkpt><trkpt lat="-31.09718374387031" lon="115.40381304007978"><ele>37.333333333333336</ele><time>2026-04-12T05:57:47.001Z</time></trkpt><trkpt lat="-31.097384361916927" lon="115.40373404811702"><ele>38.66666666666667</ele><time>2026-04-12T05:57:48.001Z</time></trkpt><trkpt lat="-31.097584716800956" lon="115.40364220536301"><ele>40.0</ele><time>2026-04-12T05:57:49.001Z</time></trkpt><trkpt lat="-31.09778625821688" lon="115.40354276455217"><ele>40.0</ele><time>2026-04-12T05:57:50.001Z</time></trkpt><trkpt lat="-31.097982750857998" lon="115.40343181213909"><ele>40.0</ele><time>2026-04-12T05:57:51.001Z</time></trkpt><trkpt lat="-31.098171747890163" lon="115.40330573149784"><ele>40.0</ele><time>2026-04-12T05:57:52.001Z</time></trkpt><trkpt lat="-31.098355403072816" lon="115.40316732289493"><ele>39.66666666666667</ele><time>2026-04-12T05:57:53.001Z</time></trkpt><trkpt lat="-31.09853672215824" lon="115.40302097417653"><ele>39.333333333333336</ele><time>2026-04-12T05:57:54.001Z</time></trkpt><trkpt lat="-31.098715186849528" lon="115.40286410762289"><ele>39.0</ele><time>2026-04-12T05:57:55.001Z</time></trkpt><trkpt lat="-31.098890787155053" lon="115.40270019625159"><ele>40.0</ele><time>2026-04-12T05:57:56.001Z</time></trkpt><trkpt lat="-31.099061882839088" lon="115.40252820678096"><ele>41.0</ele><time>2026-04-12T05:57:57.001Z</time></trkpt><trkpt lat="-31.099232853886733" lon="115.40235563139643"><ele>41.0</ele><time>2026-04-12T05:57:58.001Z</time></trkpt><trkpt lat="-31.09940360005767" lon="115.40218421015973"><ele>41.0</ele><time>2026-04-12T05:57:59.001Z</time></trkpt><trkpt lat="-31.099570178916306" lon="115.4020129934948"><ele>41.0</ele><time>2026-04-12T05:58:00.001Z</time></trkpt><trkpt lat="-31.099728342750808" lon="115.40183994935259"><ele>41.33333333333333</ele><time>2026-04-12T05:58:01.001Z</time></trkpt><trkpt lat="-31.09988191981518" lon="115.40166063169403"><ele>41.666666666666664</ele><time>2026-04-12T05:58:02.001Z</time></trkpt><trkpt lat="-31.100027913152054" lon="115.40147259520853"><ele>42.0</ele><time>2026-04-12T05:58:03.001Z</time></trkpt><trkpt lat="-31.100170127412458" lon="115.40127860636657"><ele>41.0</ele><time>2026-04-12T05:58:04.001Z</time></trkpt><trkpt lat="-31.100307393363984" lon="115.40107737710609"><ele>40.0</ele><time>2026-04-12T05:58:05.001Z</time></trkpt><trkpt lat="-31.10042860337437" lon="115.40086801686279"><ele>39.0</ele><time>2026-04-12T05:58:06.001Z</time></trkpt><trkpt lat="-31.10054418148362" lon="115.40064883126752"><ele>38.666666666666664</ele><time>2026-04-12T05:58:07.001Z</time></trkpt><trkpt lat="-31.100661125349017" lon="115.40042988161655"><ele>38.33333333333333</ele><time>2026-04-12T05:58:08.001Z</time></trkpt><trkpt lat="-31.100779074926262" lon="115.40021112173106"><ele>38.0</ele><time>2026-04-12T05:58:09.001Z</time></trkpt><trkpt lat="-31.10089572684437" lon="115.39999078594371"><ele>38.0</ele><time>2026-04-12T05:58:10.001Z</time></trkpt><trkpt lat="-31.1010126059126" lon="115.3997721697557"><ele>38.0</ele><time>2026-04-12T05:58:11.001Z</time></trkpt><trkpt lat="-31.10112929062631" lon="115.39955152410285"><ele>38.0</ele><time>2026-04-12T05:58:12.001Z</time></trkpt><trkpt lat="-31.101238895886297" lon="115.39932452613539"><ele>37.666666666666664</ele><time>2026-04-12T05:58:13.001Z</time></trkpt><trkpt lat="-31.101337886105473" lon="115.39909264338107"><ele>37.333333333333336</ele><time>2026-04-12T05:58:14.001Z</time></trkpt><trkpt lat="-31.10142054199498" lon="115.39885339038275"><ele>37.0</ele><time>2026-04-12T05:58:15.001Z</time></trkpt><trkpt lat="-31.10148741529777" lon="115.398602765595"><ele>37.0</ele><time>2026-04-12T05:58:16.001Z</time></trkpt><trkpt lat="-31.101535578249873" lon="115.39834827202262"><ele>37.0</ele><time>2026-04-12T05:58:17.001Z</time></trkpt><trkpt lat="-31.101566077675134" lon="115.3980874383162"><ele>37.0</ele><time>2026-04-12T05:58:18.001Z</time></trkpt><trkpt lat="-31.1015750931365" lon="115.39782850456687"><ele>38.0</ele><time>2026-04-12T05:58:19.001Z</time></trkpt><trkpt lat="-31.101564956176166" lon="115.3975704381176"><ele>39.0</ele><time>2026-04-12T05:58:20.001Z</time></trkpt><trkpt lat="-31.101536906723485" lon="115.39731036645293"><ele>40.0</ele><time>2026-04-12T05:58:21.001Z</time></trkpt><trkpt lat="-31.10149447459117" lon="115.39704876703618"><ele>40.0</ele><time>2026-04-12T05:58:22.001Z</time></trkpt><trkpt lat="-31.101434220345986" lon="115.39679823127992"><ele>40.0</ele><time>2026-04-12T05:58:23.001Z</time></trkpt><trkpt lat="-31.10135625787887" lon="115.3965541130529"><ele>40.0</ele><time>2026-04-12T05:58:24.001Z</time></trkpt><trkpt lat="-31.10125817925145" lon="115.3963161627336"><ele>39.5</ele><time>2026-04-12T05:58:25.001Z</time></trkpt><trkpt lat="-31.101145338086326" lon="115.39608545773135"><ele>39.0</ele><time>2026-04-12T05:58:26.001Z</time></trkpt><trkpt lat="-31.10103089357664" lon="115.39585613478906"><ele>39.0</ele><time>2026-04-12T05:58:27.001Z</time></trkpt><trkpt lat="-31.100928977486554" lon="115.3956158853541"><ele>39.0</ele><time>2026-04-12T05:58:28.001Z</time></trkpt><trkpt lat="-31.10083864150556" lon="115.39536788749997"><ele>39.0</ele><time>2026-04-12T05:58:29.001Z</time></trkpt><trkpt lat="-31.10076384495138" lon="115.39511456553126"><ele>39.0</ele><time>2026-04-12T05:58:30.001Z</time></trkpt><trkpt lat="-31.10070766190764" lon="115.39485156203787"><ele>38.5</ele><time>2026-04-12T05:58:31.001Z</time></trkpt><trkpt lat="-31.100672556390577" lon="115.39458462122111"><ele>38.0</ele><time>2026-04-12T05:58:32.001Z</time></trkpt><trkpt lat="-31.10065390189153" lon="115.39431402951973"><ele>38.0</ele><time>2026-04-12T05:58:33.001Z</time></trkpt><trkpt lat="-31.10065923686918" lon="115.39404427913246"><ele>38.0</ele><time>2026-04-12T05:58:34.001Z</time></trkpt><trkpt lat="-31.100683286754187" lon="115.39376944319369"><ele>37.0</ele><time>2026-04-12T05:58:35.001Z</time></trkpt><trkpt lat="-31.100726617447002" lon="115.39349999679227"><ele>36.0</ele><time>2026-04-12T05:58:36.001Z</time></trkpt><trkpt lat="-31.100792912793132" lon="115.39324150460837"><ele>36.0</ele><time>2026-04-12T05:58:37.001Z</time></trkpt><trkpt lat="-31.100882513030207" lon="115.39298996598838"><ele>36.0</ele><time>2026-04-12T05:58:38.001Z</time></trkpt><trkpt lat="-31.100985845213273" lon="115.39274436130454"><ele>36.0</ele><time>2026-04-12T05:58:39.001Z</time></trkpt><trkpt lat="-31.10109318132011" lon="115.39250565134931"><ele>36.0</ele><time>2026-04-12T05:58:40.001Z</time></trkpt><trkpt lat="-31.101201094447998" lon="115.39226639530918"><ele>37.5</ele><time>2026-04-12T05:58:41.001Z</time></trkpt><trkpt lat="-31.101310739217077" lon="115.39202940684274"><ele>39.0</ele><time>2026-04-12T05:58:42.001Z</time></trkpt><trkpt lat="-31.101420416851223" lon="115.39178832370533"><ele>39.0</ele><time>2026-04-12T05:58:43.001Z</time></trkpt><trkpt lat="-31.101526075612487" lon="115.39154910493542"><ele>39.0</ele><time>2026-04-12T05:58:44.001Z</time></trkpt><trkpt lat="-31.10163480758703" lon="115.39130809160896"><ele>38.0</ele><time>2026-04-12T05:58:45.001Z</time></trkpt><trkpt lat="-31.101743361925084" lon="115.391072373238"><ele>37.0</ele><time>2026-04-12T05:58:46.001Z</time></trkpt><trkpt lat="-31.10184964718647" lon="115.39082981305654"><ele>37.0</ele><time>2026-04-12T05:58:47.001Z</time></trkpt><trkpt lat="-31.10195534021365" lon="115.39058880441291"><ele>37.0</ele><time>2026-04-12T05:58:48.001Z</time></trkpt><trkpt lat="-31.102058600581017" lon="115.39034635617038"><ele>37.0</ele><time>2026-04-12T05:58:49.001Z</time></trkpt><trkpt lat="-31.10215622484009" lon="115.39010229875855"><ele>37.0</ele><time>2026-04-12T05:58:50.001Z</time></trkpt><trkpt lat="-31.102250581189573" lon="115.38985825146116"><ele>37.5</ele><time>2026-04-12T05:58:51.001Z</time></trkpt><trkpt lat="-31.102327699615472" lon="115.3896153849458"><ele>38.0</ele><time>2026-04-12T05:58:52.001Z</time></trkpt><trkpt lat="-31.102390267651028" lon="115.38935554596678"><ele>37.0</ele><time>2026-04-12T05:58:53.001Z</time></trkpt><trkpt lat="-31.10243631588607" lon="115.38908481485252"><ele>36.0</ele><time>2026-04-12T05:58:54.001Z</time></trkpt><trkpt lat="-31.102464524275895" lon="115.38881266242785"><ele>36.0</ele><time>2026-04-12T05:58:55.001Z</time></trkpt><trkpt lat="-31.102471176848717" lon="115.38854398668477"><ele>36.0</ele><time>2026-04-12T05:58:56.001Z</time></trkpt><trkpt lat="-31.102461014503536" lon="115.38827073345105"><ele>36.0</ele><time>2026-04-12T05:58:57.001Z</time></trkpt><trkpt lat="-31.102434085516514" lon="115.38800120357028"><ele>36.0</ele><time>2026-04-12T05:58:58.001Z</time></trkpt><trkpt lat="-31.1023928252087" lon="115.3877312132134"><ele>37.0</ele><time>2026-04-12T05:58:59.001Z</time></trkpt><trkpt lat="-31.10233890898077" lon="115.38746774358238"><ele>38.0</ele><time>2026-04-12T05:59:00.001Z</time></trkpt><trkpt lat="-31.102268835722455" lon="115.38722117184003"><ele>36.666666666666664</ele><time>2026-04-12T05:59:01.001Z</time></trkpt><trkpt lat="-31.102185080060362" lon="115.38698662728514"><ele>35.333333333333336</ele><time>2026-04-12T05:59:02.001Z</time></trkpt><trkpt lat="-31.10209179932373" lon="115.38675764162325"><ele>34.0</ele><time>2026-04-12T05:59:03.001Z</time></trkpt><trkpt lat="-31.10199146634496" lon="115.38654453349596"><ele>34.0</ele><time>2026-04-12T05:59:04.001Z</time></trkpt><trkpt lat="-31.101868422006955" lon="115.38634498770219"><ele>34.0</ele><time>2026-04-12T05:59:05.001Z</time></trkpt><trkpt lat="-31.101728578689112" lon="115.38614908961"><ele>34.0</ele><time>2026-04-12T05:59:06.001Z</time></trkpt><trkpt lat="-31.101578671228623" lon="115.3859476935815"><ele>32.5</ele><time>2026-04-12T05:59:07.001Z</time></trkpt><trkpt lat="-31.101422653646274" lon="115.38575786796758"><ele>31.0</ele><time>2026-04-12T05:59:08.001Z</time></trkpt><trkpt lat="-31.101255661121222" lon="115.38558084718234"><ele>30.666666666666668</ele><time>2026-04-12T05:59:09.001Z</time></trkpt><trkpt lat="-31.10108023292476" lon="115.38542492015978"><ele>30.333333333333336</ele><time>2026-04-12T05:59:10.001Z</time></trkpt><trkpt lat="-31.100897639628723" lon="115.3852693541103"><ele>30.0</ele><time>2026-04-12T05:59:11.001Z</time></trkpt><trkpt lat="-31.100720159481824" lon="115.38510416195352"><ele>30.0</ele><time>2026-04-12T05:59:12.001Z</time></trkpt><trkpt lat="-31.100562802074087" lon="115.38494077576081"><ele>30.0</ele><time>2026-04-12T05:59:13.001Z</time></trkpt><trkpt lat="-31.100418222746303" lon="115.3847837147113"><ele>30.0</ele><time>2026-04-12T05:59:14.001Z</time></trkpt><trkpt lat="-31.100287987547404" lon="115.38462417896697"><ele>30.0</ele><time>2026-04-12T05:59:15.001Z</time></trkpt><trkpt lat="-31.100171841271223" lon="115.3844589958965"><ele>30.0</ele><time>2026-04-12T05:59:16.001Z</time></trkpt><trkpt lat="-31.100068038226787" lon="115.38429412450304"><ele>30.0</ele><time>2026-04-12T05:59:17.001Z</time></trkpt><trkpt lat="-31.09996823195444" lon="115.38412242692819"><ele>29.666666666666664</ele><time>2026-04-12T05:59:18.001Z</time></trkpt><trkpt lat="-31.099876883044864" lon="115.38395073126415"><ele>29.333333333333332</ele><time>2026-04-12T05:59:19.001Z</time></trkpt><trkpt lat="-31.099800137507813" lon="115.38378467790905"><ele>29.0</ele><time>2026-04-12T05:59:20.001Z</time></trkpt><trkpt lat="-31.09972759165366" lon="115.38361055211918"><ele>29.0</ele><time>2026-04-12T05:59:21.001Z</time></trkpt><trkpt lat="-31.099666221099632" lon="115.38342465590095"><ele>29.0</ele><time>2026-04-12T05:59:22.001Z</time></trkpt><trkpt lat="-31.099617531929717" lon="115.3832308134222"><ele>29.0</ele><time>2026-04-12T05:59:23.001Z</time></trkpt><trkpt lat="-31.099574015971005" lon="115.3830450600013"><ele>29.0</ele><time>2026-04-12T05:59:24.001Z</time></trkpt><trkpt lat="-31.099538770671902" lon="115.38287224073922"><ele>29.0</ele><time>2026-04-12T05:59:25.001Z</time></trkpt><trkpt lat="-31.09951503188193" lon="115.38269734638223"><ele>29.0</ele><time>2026-04-12T05:59:26.001Z</time></trkpt><trkpt lat="-31.099497783906955" lon="115.3825140342594"><ele>29.0</ele><time>2026-04-12T05:59:27.001Z</time></trkpt><trkpt lat="-31.0994882605185" lon="115.3823311787324"><ele>29.0</ele><time>2026-04-12T05:59:28.001Z</time></trkpt><trkpt lat="-31.099489102264954" lon="115.38216393250032"><ele>29.0</ele><time>2026-04-12T05:59:29.001Z</time></trkpt><trkpt lat="-31.099499276758493" lon="115.38200689718788"><ele>29.0</ele><time>2026-04-12T05:59:30.001Z</time></trkpt><trkpt lat="-31.099512084336617" lon="115.3818515882233"><ele>28.25</ele><time>2026-04-12T05:59:31.001Z</time></trkpt><trkpt lat="-31.09952924558127" lon="115.3816975210807"><ele>27.5</ele><time>2026-04-12T05:59:32.001Z</time></trkpt><trkpt lat="-31.099554513184245" lon="115.38152809444477"><ele>26.75</ele><time>2026-04-12T05:59:33.001Z</time></trkpt><trkpt lat="-31.09958828908768" lon="115.38134549862635"><ele>26.0</ele><time>2026-04-12T05:59:34.001Z</time></trkpt><trkpt lat="-31.099626859282026" lon="115.38115478498754"><ele>25.666666666666664</ele><time>2026-04-12T05:59:35.001Z</time></trkpt><trkpt lat="-31.099672525700957" lon="115.38097186187062"><ele>25.333333333333336</ele><time>2026-04-12T05:59:36.001Z</time></trkpt><trkpt lat="-31.099733070315423" lon="115.3807890418186"><ele>25.0</ele><time>2026-04-12T05:59:37.001Z</time></trkpt><trkpt lat="-31.09980330676473" lon="115.38060590811342"><ele>25.0</ele><time>2026-04-12T05:59:38.001Z</time></trkpt><trkpt lat="-31.09988111873744" lon="115.3804251608949"><ele>25.0</ele><time>2026-04-12T05:59:39.001Z</time></trkpt><trkpt lat="-31.09997525274607" lon="115.38024695632474"><ele>25.0</ele><time>2026-04-12T05:59:40.001Z</time></trkpt><trkpt lat="-31.1000758971123" lon="115.38008173665948"><ele>25.0</ele><time>2026-04-12T05:59:41.001Z</time></trkpt><trkpt lat="-31.100181207139332" lon="115.37992132898596"><ele>25.0</ele><time>2026-04-12T05:59:42.001Z</time></trkpt><trkpt lat="-31.100298772269117" lon="115.37976446569103"><ele>25.0</ele><time>2026-04-12T05:59:43.001Z</time></trkpt><trkpt lat="-31.100424356095573" lon="115.37961424720484"><ele>23.666666666666668</ele><time>2026-04-12T05:59:44.001Z</time></trkpt><trkpt lat="-31.100554602598628" lon="115.37946736422423"><ele>22.333333333333336</ele><time>2026-04-12T05:59:45.001Z</time></trkpt><trkpt lat="-31.100684924849972" lon="115.37933776065181"><ele>21.0</ele><time>2026-04-12T05:59:46.001Z</time></trkpt><trkpt lat="-31.10081512848678" lon="115.37923003069116"><ele>20.0</ele><time>2026-04-12T05:59:47.001Z</time></trkpt><trkpt lat="-31.100948733515672" lon="115.37913323368915"><ele>19.0</ele><time>2026-04-12T05:59:48.001Z</time></trkpt><trkpt lat="-31.101063362056735" lon="115.37905209275631"><ele>18.0</ele><time>2026-04-12T05:59:49.001Z</time></trkpt><trkpt lat="-31.101152044892522" lon="115.37899512921443"><ele>17.0</ele><time>2026-04-12T05:59:50.001Z</time></trkpt><trkpt lat="-31.101216198812967" lon="115.37895971085514"><ele>17.0</ele><time>2026-04-12T05:59:51.001Z</time></trkpt><trkpt lat="-31.101290068787094" lon="115.37894428030029"><ele>17.0</ele><time>2026-04-12T05:59:53.001Z</time></trkpt><trkpt lat="-31.101340512897295" lon="115.37889396343073"><ele>17.0</ele><time>2026-04-12T05:59:56.001Z</time></trkpt><trkpt lat="-31.101277177632472" lon="115.37877288595624"><ele>17.0</ele><time>2026-04-12T06:00:01.001Z</time></trkpt><trkpt lat="-31.101108904146194" lon="115.37897630593444"><ele>17.0</ele><time>2026-04-12T06:00:03.001Z</time></trkpt><trkpt lat="-31.101012897226262" lon="115.37905367823394"><ele>17.0</ele><time>2026-04-12T06:00:04.001Z</time></trkpt><trkpt lat="-31.100904566357368" lon="115.3791168232371"><ele>17.0</ele><time>2026-04-12T06:00:05.001Z</time></trkpt><trkpt lat="-31.100781583041133" lon="115.37920653239308"><ele>17.0</ele><time>2026-04-12T06:00:06.001Z</time></trkpt><trkpt lat="-31.10065443645143" lon="115.37931592947766"><ele>18.333333333333336</ele><time>2026-04-12T06:00:07.001Z</time></trkpt><trkpt lat="-31.100521076097873" lon="115.37944329861553"><ele>19.666666666666668</ele><time>2026-04-12T06:00:08.001Z</time></trkpt><trkpt lat="-31.100381612265128" lon="115.3795929036746"><ele>21.0</ele><time>2026-04-12T06:00:09.001Z</time></trkpt><trkpt lat="-31.100252205876597" lon="115.3797570224274"><ele>22.0</ele><time>2026-04-12T06:00:10.001Z</time></trkpt><trkpt lat="-31.100127000714796" lon="115.37993515942449"><ele>23.0</ele><time>2026-04-12T06:00:11.001Z</time></trkpt><trkpt lat="-31.10000742047009" lon="115.38012087975535"><ele>24.0</ele><time>2026-04-12T06:00:12.001Z</time></trkpt><trkpt lat="-31.099898180698823" lon="115.3803111529779"><ele>24.0</ele><time>2026-04-12T06:00:13.001Z</time></trkpt><trkpt lat="-31.099804685028776" lon="115.3805122887535"><ele>24.0</ele><time>2026-04-12T06:00:14.001Z</time></trkpt><trkpt lat="-31.09971644283291" lon="115.38073809950782"><ele>24.0</ele><time>2026-04-12T06:00:15.001Z</time></trkpt><trkpt lat="-31.099642979573535" lon="115.38096727897388"><ele>24.333333333333336</ele><time>2026-04-12T06:00:16.001Z</time></trkpt><trkpt lat="-31.09957840596548" lon="115.38119933300963"><ele>24.666666666666668</ele><time>2026-04-12T06:00:17.001Z</time></trkpt><trkpt lat="-31.099523391627987" lon="115.3814264879143"><ele>25.0</ele><time>2026-04-12T06:00:18.001Z</time></trkpt><trkpt lat="-31.09948351645832" lon="115.38164472157347"><ele>25.333333333333336</ele><time>2026-04-12T06:00:19.001Z</time></trkpt><trkpt lat="-31.099460129032796" lon="115.38184975374821"><ele>25.666666666666664</ele><time>2026-04-12T06:00:20.001Z</time></trkpt><trkpt lat="-31.099453808664734" lon="115.38204466414017"><ele>26.0</ele><time>2026-04-12T06:00:21.001Z</time></trkpt><trkpt lat="-31.099449305226027" lon="115.38224448495355"><ele>27.0</ele><time>2026-04-12T06:00:22.001Z</time></trkpt><trkpt lat="-31.09944718034109" lon="115.38244057885719"><ele>28.0</ele><time>2026-04-12T06:00:23.001Z</time></trkpt><trkpt lat="-31.099458244517095" lon="115.38263419154433"><ele>29.0</ele><time>2026-04-12T06:00:24.001Z</time></trkpt><trkpt lat="-31.099483765370127" lon="115.38282488051368"><ele>29.0</ele><time>2026-04-12T06:00:25.001Z</time></trkpt><trkpt lat="-31.099520009840838" lon="115.38301910436019"><ele>29.0</ele><time>2026-04-12T06:00:26.001Z</time></trkpt><trkpt lat="-31.09956631818956" lon="115.38321519993625"><ele>29.0</ele><time>2026-04-12T06:00:27.001Z</time></trkpt><trkpt lat="-31.09961646323742" lon="115.3834140593869"><ele>29.0</ele><time>2026-04-12T06:00:28.001Z</time></trkpt><trkpt lat="-31.09967554216583" lon="115.38360109117497"><ele>29.0</ele><time>2026-04-12T06:00:29.001Z</time></trkpt><trkpt lat="-31.09974322346709" lon="115.38377289523093"><ele>29.0</ele><time>2026-04-12T06:00:30.001Z</time></trkpt><trkpt lat="-31.09981540761146" lon="115.38392833047773"><ele>29.0</ele><time>2026-04-12T06:00:31.001Z</time></trkpt><trkpt lat="-31.099888126715978" lon="115.38408072894757"><ele>29.0</ele><time>2026-04-12T06:00:32.001Z</time></trkpt><trkpt lat="-31.09995727174515" lon="115.38421110310402"><ele>29.0</ele><time>2026-04-12T06:00:33.001Z</time></trkpt><trkpt lat="-31.10001710497286" lon="115.38431851006466"><ele>29.0</ele><time>2026-04-12T06:00:34.001Z</time></trkpt><trkpt lat="-31.100061057523458" lon="115.3844040811067"><ele>29.0</ele><time>2026-04-12T06:00:35.001Z</time></trkpt><trkpt lat="-31.100079693206588" lon="115.38447908362174"><ele>29.0</ele><time>2026-04-12T06:00:36.001Z</time></trkpt><trkpt lat="-31.099901714758655" lon="115.38464682765535"><ele>29.0</ele><time>2026-04-12T06:00:39.001Z</time></trkpt><trkpt lat="-31.09981639135487" lon="115.38472388353651"><ele>29.0</ele><time>2026-04-12T06:00:40.001Z</time></trkpt><trkpt lat="-31.099704543560737" lon="115.38479262824833"><ele>28.5</ele><time>2026-04-12T06:00:41.001Z</time></trkpt><trkpt lat="-31.099577548662037" lon="115.38487087858776"><ele>28.0</ele><time>2026-04-12T06:00:42.001Z</time></trkpt><trkpt lat="-31.099444885481635" lon="115.38492974587513"><ele>27.5</ele><time>2026-04-12T06:00:43.001Z</time></trkpt><trkpt lat="-31.099314435068763" lon="115.38493214314292"><ele>27.0</ele><time>2026-04-12T06:00:44.001Z</time></trkpt><trkpt lat="-31.099196048198632" lon="115.38492231601421"><ele>27.0</ele><time>2026-04-12T06:00:45.001Z</time></trkpt><trkpt lat="-31.09906216601343" lon="115.38489829686932"><ele>27.0</ele><time>2026-04-12T06:00:46.001Z</time></trkpt><trkpt lat="-31.098910166153193" lon="115.38486139527845"><ele>27.0</ele><time>2026-04-12T06:00:47.001Z</time></trkpt><trkpt lat="-31.098737404200737" lon="115.38482174419119"><ele>27.0</ele><time>2026-04-12T06:00:48.001Z</time></trkpt><trkpt lat="-31.098560964629364" lon="115.38478314301143"><ele>27.0</ele><time>2026-04-12T06:00:49.001Z</time></trkpt><trkpt lat="-31.098390373158004" lon="115.38474522955092"><ele>27.0</ele><time>2026-04-12T06:00:50.001Z</time></trkpt><trkpt lat="-31.09822327463293" lon="115.38470721391661"><ele>27.666666666666664</ele><time>2026-04-12T06:00:51.001Z</time></trkpt><trkpt lat="-31.098054925826904" lon="115.38466882268236"><ele>28.333333333333332</ele><time>2026-04-12T06:00:52.001Z</time></trkpt><trkpt lat="-31.097894604158885" lon="115.38463226199262"><ele>29.0</ele><time>2026-04-12T06:00:53.001Z</time></trkpt><trkpt lat="-31.097737253671642" lon="115.38459637892703"><ele>29.0</ele><time>2026-04-12T06:00:54.001Z</time></trkpt><trkpt lat="-31.097570731573867" lon="115.38455840425699"><ele>29.0</ele><time>2026-04-12T06:00:55.001Z</time></trkpt><trkpt lat="-31.097390716639914" lon="115.38451735258568"><ele>29.0</ele><time>2026-04-12T06:00:56.001Z</time></trkpt><trkpt lat="-31.09720477454148" lon="115.3844756218495"><ele>29.0</ele><time>2026-04-12T06:00:57.001Z</time></trkpt><trkpt lat="-31.09701355888061" lon="115.3844333857242"><ele>29.0</ele><time>2026-04-12T06:00:58.001Z</time></trkpt><trkpt lat="-31.096827013635764" lon="115.38439218116454"><ele>29.0</ele><time>2026-04-12T06:00:59.001Z</time></trkpt><trkpt lat="-31.09663280007573" lon="115.38434928381191"><ele>28.666666666666664</ele><time>2026-04-12T06:01:00.001Z</time></trkpt><trkpt lat="-31.096433628549583" lon="115.38430530364941"><ele>28.333333333333336</ele><time>2026-04-12T06:01:01.001Z</time></trkpt><trkpt lat="-31.096238251247176" lon="115.38426216232418"><ele>28.0</ele><time>2026-04-12T06:01:02.001Z</time></trkpt><trkpt lat="-31.09605146776151" lon="115.38422091860727"><ele>28.0</ele><time>2026-04-12T06:01:03.001Z</time></trkpt><trkpt lat="-31.095865215565457" lon="115.38417979218929"><ele>28.0</ele><time>2026-04-12T06:01:04.001Z</time></trkpt><trkpt lat="-31.09568254275965" lon="115.38413945614543"><ele>28.0</ele><time>2026-04-12T06:01:05.001Z</time></trkpt><trkpt lat="-31.095528776372184" lon="115.38410393514854"><ele>27.4</ele><time>2026-04-12T06:01:06.001Z</time></trkpt><trkpt lat="-31.095402889512247" lon="115.38407461775277"><ele>26.799999999999997</ele><time>2026-04-12T06:01:07.001Z</time></trkpt><trkpt lat="-31.09529655349699" lon="115.3840687731914"><ele>26.2</ele><time>2026-04-12T06:01:08.001Z</time></trkpt><trkpt lat="-31.095213183457634" lon="115.38403302986214"><ele>25.6</ele><time>2026-04-12T06:01:09.001Z</time></trkpt><trkpt lat="-31.095147402300757" lon="115.38400727091391"><ele>25.0</ele><time>2026-04-12T06:01:10.001Z</time></trkpt><trkpt lat="-31.095072341564517" lon="115.38398337251702"><ele>25.0</ele><time>2026-04-12T06:01:12.001Z</time></trkpt><trkpt lat="-31.094995384226607" lon="115.38397572641102"><ele>25.0</ele><time>2026-04-12T06:01:15.001Z</time></trkpt><trkpt lat="-31.09489063900562" lon="115.38400755361386"><ele>25.0</ele><time>2026-04-12T06:01:17.001Z</time></trkpt><trkpt lat="-31.09477609886033" lon="115.38406445432594"><ele>25.0</ele><time>2026-04-12T06:01:19.001Z</time></trkpt><trkpt lat="-31.09470987346148" lon="115.3840501097377"><ele>25.0</ele><time>2026-04-12T06:01:20.001Z</time></trkpt><trkpt lat="-31.094640913449666" lon="115.38402230412098"><ele>25.4</ele><time>2026-04-12T06:01:21.001Z</time></trkpt><trkpt lat="-31.094546521066025" lon="115.38398728250085"><ele>25.8</ele><time>2026-04-12T06:01:22.001Z</time></trkpt><trkpt lat="-31.094447207558357" lon="115.38395168358026"><ele>26.200000000000003</ele><time>2026-04-12T06:01:23.001Z</time></trkpt><trkpt lat="-31.094339491844757" lon="115.38392458389269"><ele>26.6</ele><time>2026-04-12T06:01:24.001Z</time></trkpt><trkpt lat="-31.094227745933576" lon="115.38391537462576"><ele>27.0</ele><time>2026-04-12T06:01:25.001Z</time></trkpt><trkpt lat="-31.0941167676948" lon="115.38389006614537"><ele>27.75</ele><time>2026-04-12T06:01:26.001Z</time></trkpt><trkpt lat="-31.09400218736617" lon="115.3838388819711"><ele>28.5</ele><time>2026-04-12T06:01:27.001Z</time></trkpt><trkpt lat="-31.093879129718097" lon="115.38380125819991"><ele>29.25</ele><time>2026-04-12T06:01:28.001Z</time></trkpt><trkpt lat="-31.093753107137317" lon="115.38375804084124"><ele>30.0</ele><time>2026-04-12T06:01:29.001Z</time></trkpt><trkpt lat="-31.093631366329536" lon="115.38371106011833"><ele>30.0</ele><time>2026-04-12T06:01:30.001Z</time></trkpt><trkpt lat="-31.093515775906383" lon="115.38365839525089"><ele>30.0</ele><time>2026-04-12T06:01:31.001Z</time></trkpt><trkpt lat="-31.093404678274922" lon="115.38360394717972"><ele>30.0</ele><time>2026-04-12T06:01:32.001Z</time></trkpt><trkpt lat="-31.0932923287865" lon="115.38355083423646"><ele>30.0</ele><time>2026-04-12T06:01:33.001Z</time></trkpt><trkpt lat="-31.09317506328494" lon="115.38351574279298"><ele>29.25</ele><time>2026-04-12T06:01:34.001Z</time></trkpt><trkpt lat="-31.09306529826878" lon="115.3834456652233"><ele>28.5</ele><time>2026-04-12T06:01:35.001Z</time></trkpt><trkpt lat="-31.09294969751244" lon="115.38341098459453"><ele>27.75</ele><time>2026-04-12T06:01:36.001Z</time></trkpt><trkpt lat="-31.092845258585474" lon="115.38336083080114"><ele>27.0</ele><time>2026-04-12T06:01:37.001Z</time></trkpt><trkpt lat="-31.092738484322098" lon="115.38331281218659"><ele>27.0</ele><time>2026-04-12T06:01:38.001Z</time></trkpt><trkpt lat="-31.092629730785827" lon="115.38326324337592"><ele>27.0</ele><time>2026-04-12T06:01:39.001Z</time></trkpt><trkpt lat="-31.092519068213107" lon="115.38320715587584"><ele>27.0</ele><time>2026-04-12T06:01:40.001Z</time></trkpt><trkpt lat="-31.092411013522774" lon="115.38314995967528"><ele>27.0</ele><time>2026-04-12T06:01:41.001Z</time></trkpt><trkpt lat="-31.092305535052024" lon="115.38309968901123"><ele>27.75</ele><time>2026-04-12T06:01:42.001Z</time></trkpt><trkpt lat="-31.092195432498436" lon="115.38305186305908"><ele>28.5</ele><time>2026-04-12T06:01:43.001Z</time></trkpt><trkpt lat="-31.09208600679168" lon="115.38300643136108"><ele>29.25</ele><time>2026-04-12T06:01:44.001Z</time></trkpt><trkpt lat="-31.09197721931996" lon="115.38295454791653"><ele>30.0</ele><time>2026-04-12T06:01:45.001Z</time></trkpt><trkpt lat="-31.09186913173454" lon="115.38290169947605"><ele>30.0</ele><time>2026-04-12T06:01:46.001Z</time></trkpt><trkpt lat="-31.09176197081067" lon="115.38285579456046"><ele>30.0</ele><time>2026-04-12T06:01:47.001Z</time></trkpt><trkpt lat="-31.09164825923853" lon="115.3828090145755"><ele>30.0</ele><time>2026-04-12T06:01:48.001Z</time></trkpt><trkpt lat="-31.091530329282286" lon="115.38274933075873"><ele>30.0</ele><time>2026-04-12T06:01:49.001Z</time></trkpt><trkpt lat="-31.091417964860387" lon="115.3826806264716"><ele>30.2</ele><time>2026-04-12T06:01:50.001Z</time></trkpt><trkpt lat="-31.091310976579496" lon="115.38262751454498"><ele>30.4</ele><time>2026-04-12T06:01:51.001Z</time></trkpt><trkpt lat="-31.09121622937282" lon="115.38257824449629"><ele>30.6</ele><time>2026-04-12T06:01:52.001Z</time></trkpt><trkpt lat="-31.091123383433107" lon="115.38252944737526"><ele>30.8</ele><time>2026-04-12T06:01:53.001Z</time></trkpt><trkpt lat="-31.091023307401716" lon="115.38247503590219"><ele>31.0</ele><time>2026-04-12T06:01:54.001Z</time></trkpt><trkpt lat="-31.09091522313002" lon="115.38241499165107"><ele>31.0</ele><time>2026-04-12T06:01:55.001Z</time></trkpt><trkpt lat="-31.090790540079006" lon="115.38236238148929"><ele>31.0</ele><time>2026-04-12T06:01:56.001Z</time></trkpt><trkpt lat="-31.090676165054905" lon="115.38228719887675"><ele>31.0</ele><time>2026-04-12T06:01:57.001Z</time></trkpt><trkpt lat="-31.090566725688884" lon="115.38220338253952"><ele>31.0</ele><time>2026-04-12T06:01:58.001Z</time></trkpt><trkpt lat="-31.090478876770344" lon="115.38209038126985"><ele>31.5</ele><time>2026-04-12T06:01:59.001Z</time></trkpt><trkpt lat="-31.090393761369054" lon="115.3819944622427"><ele>32.0</ele><time>2026-04-12T06:02:00.001Z</time></trkpt><trkpt lat="-31.090318288932398" lon="115.38189211397851"><ele>32.5</ele><time>2026-04-12T06:02:01.001Z</time></trkpt><trkpt lat="-31.090253615975534" lon="115.38177982017854"><ele>33.0</ele><time>2026-04-12T06:02:02.001Z</time></trkpt><trkpt lat="-31.09018546974493" lon="115.3816546477211"><ele>33.0</ele><time>2026-04-12T06:02:03.001Z</time></trkpt><trkpt lat="-31.090121243876702" lon="115.38151499159552"><ele>33.0</ele><time>2026-04-12T06:02:04.001Z</time></trkpt><trkpt lat="-31.09007198712743" lon="115.38136852083724"><ele>33.0</ele><time>2026-04-12T06:02:05.001Z</time></trkpt><trkpt lat="-31.09003215267808" lon="115.38122394391455"><ele>33.0</ele><time>2026-04-12T06:02:06.001Z</time></trkpt><trkpt lat="-31.089999275855863" lon="115.3810875107222"><ele>34.75</ele><time>2026-04-12T06:02:07.001Z</time></trkpt><trkpt lat="-31.08996981356797" lon="115.3809446146633"><ele>36.5</ele><time>2026-04-12T06:02:08.001Z</time></trkpt><trkpt lat="-31.08994364199087" lon="115.38079760082918"><ele>38.25</ele><time>2026-04-12T06:02:09.001Z</time></trkpt><trkpt lat="-31.08992267998285" lon="115.38064204444039"><ele>40.0</ele><time>2026-04-12T06:02:10.001Z</time></trkpt><trkpt lat="-31.089909669056972" lon="115.38048782261455"><ele>40.75</ele><time>2026-04-12T06:02:11.001Z</time></trkpt><trkpt lat="-31.08989827113338" lon="115.38033491409888"><ele>41.5</ele><time>2026-04-12T06:02:12.001Z</time></trkpt><trkpt lat="-31.08988368986729" lon="115.38017957640966"><ele>42.25</ele><time>2026-04-12T06:02:13.001Z</time></trkpt><trkpt lat="-31.08986622281307" lon="115.38003654876572"><ele>43.0</ele><time>2026-04-12T06:02:14.001Z</time></trkpt><trkpt lat="-31.08984776882822" lon="115.37990304335179"><ele>43.0</ele><time>2026-04-12T06:02:15.001Z</time></trkpt><trkpt lat="-31.08982325427714" lon="115.37978190080379"><ele>43.0</ele><time>2026-04-12T06:02:16.001Z</time></trkpt><trkpt lat="-31.08978764117438" lon="115.37965694183487"><ele>43.0</ele><time>2026-04-12T06:02:17.001Z</time></trkpt><trkpt lat="-31.08974309890429" lon="115.37953287130986"><ele>43.0</ele><time>2026-04-12T06:02:18.001Z</time></trkpt><trkpt lat="-31.089688775696615" lon="115.3794077056455"><ele>42.0</ele><time>2026-04-12T06:02:19.001Z</time></trkpt><trkpt lat="-31.089630020690397" lon="115.37929852286231"><ele>41.0</ele><time>2026-04-12T06:02:20.001Z</time></trkpt><trkpt lat="-31.089562489160798" lon="115.37920203381661"><ele>40.0</ele><time>2026-04-12T06:02:21.001Z</time></trkpt><trkpt lat="-31.089484673565227" lon="115.3791386523828"><ele>39.0</ele><time>2026-04-12T06:02:22.001Z</time></trkpt><trkpt lat="-31.08941915790695" lon="115.3790828138039"><ele>38.0</ele><time>2026-04-12T06:02:23.001Z</time></trkpt><trkpt lat="-31.08935955295484" lon="115.37901032265307"><ele>38.0</ele><time>2026-04-12T06:02:24.001Z</time></trkpt><trkpt lat="-31.089269110820563" lon="115.37894634956662"><ele>38.0</ele><time>2026-04-12T06:02:25.001Z</time></trkpt><trkpt lat="-31.089174037255514" lon="115.37891099854836"><ele>38.0</ele><time>2026-04-12T06:02:26.001Z</time></trkpt><trkpt lat="-31.089106450947824" lon="115.37887445715502"><ele>38.0</ele><time>2026-04-12T06:02:27.001Z</time></trkpt><trkpt lat="-31.08904300419581" lon="115.37884250091899"><ele>38.0</ele><time>2026-04-12T06:02:28.001Z</time></trkpt><trkpt lat="-31.088969013374687" lon="115.37882430405118"><ele>38.0</ele><time>2026-04-12T06:02:29.001Z</time></trkpt><trkpt lat="-31.088894782167074" lon="115.37881090158919"><ele>36.199999999999996</ele><time>2026-04-12T06:02:30.001Z</time></trkpt><trkpt lat="-31.08882799825798" lon="115.37879978163619"><ele>34.4</ele><time>2026-04-12T06:02:31.001Z</time></trkpt><trkpt lat="-31.088761582605063" lon="115.37879319170491"><ele>32.599999999999994</ele><time>2026-04-12T06:02:32.001Z</time></trkpt><trkpt lat="-31.088676730091812" lon="115.37880187490993"><ele>30.799999999999997</ele><time>2026-04-12T06:02:33.001Z</time></trkpt><trkpt lat="-31.088569146491604" lon="115.3787861539476"><ele>29.0</ele><time>2026-04-12T06:02:34.001Z</time></trkpt><trkpt lat="-31.088442585932345" lon="115.37880075156966"><ele>29.0</ele><time>2026-04-12T06:02:35.001Z</time></trkpt><trkpt lat="-31.088312664632266" lon="115.3788434100294"><ele>29.0</ele><time>2026-04-12T06:02:36.001Z</time></trkpt><trkpt lat="-31.088192036348033" lon="115.37887074710136"><ele>29.0</ele><time>2026-04-12T06:02:37.001Z</time></trkpt><trkpt lat="-31.08807515962857" lon="115.37887968489628"><ele>29.0</ele><time>2026-04-12T06:02:38.001Z</time></trkpt><trkpt lat="-31.0879725287292" lon="115.37890907710663"><ele>29.0</ele><time>2026-04-12T06:02:39.001Z</time></trkpt><trkpt lat="-31.087883789520756" lon="115.37893271220132"><ele>29.0</ele><time>2026-04-12T06:02:40.001Z</time></trkpt><trkpt lat="-31.08779885415776" lon="115.37894363063046"><ele>29.0</ele><time>2026-04-12T06:02:41.001Z</time></trkpt><trkpt lat="-31.087695440694933" lon="115.37894913489583"><ele>29.0</ele><time>2026-04-12T06:02:42.001Z</time></trkpt><trkpt lat="-31.087579858398364" lon="115.37895072079097"><ele>29.0</ele><time>2026-04-12T06:02:43.001Z</time></trkpt><trkpt lat="-31.08745075172376" lon="115.37895534427399"><ele>27.75</ele><time>2026-04-12T06:02:44.001Z</time></trkpt><trkpt lat="-31.08732117305212" lon="115.37896956580943"><ele>26.5</ele><time>2026-04-12T06:02:45.001Z</time></trkpt><trkpt lat="-31.08719260024174" lon="115.37899291874074"><ele>25.25</ele><time>2026-04-12T06:02:46.001Z</time></trkpt><trkpt lat="-31.087065727368405" lon="115.3790185754131"><ele>24.0</ele><time>2026-04-12T06:02:47.001Z</time></trkpt><trkpt lat="-31.08694908919284" lon="115.37904215886282"><ele>24.0</ele><time>2026-04-12T06:02:48.001Z</time></trkpt><trkpt lat="-31.08684342222573" lon="115.3790596122172"><ele>24.0</ele><time>2026-04-12T06:02:49.001Z</time></trkpt><trkpt lat="-31.086747355638366" lon="115.37908700315089"><ele>24.0</ele><time>2026-04-12T06:02:50.001Z</time></trkpt><trkpt lat="-31.086641114364934" lon="115.37909690264833"><ele>24.0</ele><time>2026-04-12T06:02:51.001Z</time></trkpt><trkpt lat="-31.08653644482109" lon="115.37908975746845"><ele>24.0</ele><time>2026-04-12T06:02:52.001Z</time></trkpt><trkpt lat="-31.086428535880174" lon="115.37910017021153"><ele>24.2</ele><time>2026-04-12T06:02:53.001Z</time></trkpt><trkpt lat="-31.086322259919886" lon="115.37911375027296"><ele>24.4</ele><time>2026-04-12T06:02:54.001Z</time></trkpt><trkpt lat="-31.08622079706081" lon="115.3791295937083"><ele>24.6</ele><time>2026-04-12T06:02:55.001Z</time></trkpt><trkpt lat="-31.08612094237768" lon="115.37916520138319"><ele>24.8</ele><time>2026-04-12T06:02:56.001Z</time></trkpt><trkpt lat="-31.08601612789126" lon="115.37917694179265"><ele>25.0</ele><time>2026-04-12T06:02:57.001Z</time></trkpt><trkpt lat="-31.08591902646148" lon="115.37917290654272"><ele>25.0</ele><time>2026-04-12T06:02:58.001Z</time></trkpt><trkpt lat="-31.085827278961485" lon="115.37918296027132"><ele>25.0</ele><time>2026-04-12T06:02:59.001Z</time></trkpt><trkpt lat="-31.085734212007885" lon="115.37919073439727"><ele>25.0</ele><time>2026-04-12T06:03:00.001Z</time></trkpt><trkpt lat="-31.08564171840358" lon="115.37919797460185"><ele>25.0</ele><time>2026-04-12T06:03:01.001Z</time></trkpt><trkpt lat="-31.08554077887652" lon="115.37920490714055"><ele>25.0</ele><time>2026-04-12T06:03:02.001Z</time></trkpt><trkpt lat="-31.085435050179953" lon="115.37920715227759"><ele>24.75</ele><time>2026-04-12T06:03:03.001Z</time></trkpt><trkpt lat="-31.085323114951784" lon="115.37920956996435"><ele>24.5</ele><time>2026-04-12T06:03:04.001Z</time></trkpt><trkpt lat="-31.08520603215142" lon="115.37922825997623"><ele>24.25</ele><time>2026-04-12T06:03:05.001Z</time></trkpt><trkpt lat="-31.08508193373079" lon="115.37923572127708"><ele>24.0</ele><time>2026-04-12T06:03:06.001Z</time></trkpt><trkpt lat="-31.084954096640832" lon="115.37924237287528"><ele>23.5</ele><time>2026-04-12T06:03:07.001Z</time></trkpt><trkpt lat="-31.084822210283775" lon="115.37925296965264"><ele>23.0</ele><time>2026-04-12T06:03:08.001Z</time></trkpt><trkpt lat="-31.084679226379304" lon="115.37925710598243"><ele>22.5</ele><time>2026-04-12T06:03:09.001Z</time></trkpt><trkpt lat="-31.084534355390744" lon="115.37926553173867"><ele>22.0</ele><time>2026-04-12T06:03:10.001Z</time></trkpt><trkpt lat="-31.08439724577765" lon="115.37926882271601"><ele>22.0</ele><time>2026-04-12T06:03:11.001Z</time></trkpt><trkpt lat="-31.084260977641513" lon="115.37927284957233"><ele>22.0</ele><time>2026-04-12T06:03:12.001Z</time></trkpt><trkpt lat="-31.084127527469214" lon="115.37927459808624"><ele>22.0</ele><time>2026-04-12T06:03:13.001Z</time></trkpt><trkpt lat="-31.084002468648343" lon="115.37927341436831"><ele>22.0</ele><time>2026-04-12T06:03:14.001Z</time></trkpt><trkpt lat="-31.083879087364533" lon="115.37927383809283"><ele>22.0</ele><time>2026-04-12T06:03:15.001Z</time></trkpt><trkpt lat="-31.083765825422415" lon="115.37927858162455"><ele>22.0</ele><time>2026-04-12T06:03:16.001Z</time></trkpt><trkpt lat="-31.083658239630978" lon="115.3792934798268"><ele>22.0</ele><time>2026-04-12T06:03:17.001Z</time></trkpt><trkpt lat="-31.083558334500193" lon="115.37929953094498"><ele>22.0</ele><time>2026-04-12T06:03:18.001Z</time></trkpt><trkpt lat="-31.083473698778565" lon="115.37930499778037"><ele>22.0</ele><time>2026-04-12T06:03:19.001Z</time></trkpt><trkpt lat="-31.083396552573078" lon="115.37930243750536"><ele>22.0</ele><time>2026-04-12T06:03:20.001Z</time></trkpt><trkpt lat="-31.083311488501472" lon="115.37929688080297"><ele>22.0</ele><time>2026-04-12T06:03:21.001Z</time></trkpt><trkpt lat="-31.083215939094057" lon="115.37931141876402"><ele>22.0</ele><time>2026-04-12T06:03:22.001Z</time></trkpt><trkpt lat="-31.083111713778404" lon="115.37929638873128"><ele>22.0</ele><time>2026-04-12T06:03:23.001Z</time></trkpt><trkpt lat="-31.083002289461596" lon="115.37932060502486"><ele>22.0</ele><time>2026-04-12T06:03:24.001Z</time></trkpt><trkpt lat="-31.082886054016377" lon="115.37932146415004"><ele>22.25</ele><time>2026-04-12T06:03:25.001Z</time></trkpt><trkpt lat="-31.082769346854704" lon="115.37933716813392"><ele>22.5</ele><time>2026-04-12T06:03:26.001Z</time></trkpt><trkpt lat="-31.082641564602728" lon="115.37935145267069"><ele>22.75</ele><time>2026-04-12T06:03:27.001Z</time></trkpt><trkpt lat="-31.082518425860243" lon="115.37933935072805"><ele>23.0</ele><time>2026-04-12T06:03:28.001Z</time></trkpt><trkpt lat="-31.082389968929924" lon="115.3793403105756"><ele>23.0</ele><time>2026-04-12T06:03:29.001Z</time></trkpt><trkpt lat="-31.082276068749145" lon="115.37934079087778"><ele>23.0</ele><time>2026-04-12T06:03:30.001Z</time></trkpt><trkpt lat="-31.082167631034036" lon="115.3793412481456"><ele>23.0</ele><time>2026-04-12T06:03:31.001Z</time></trkpt><trkpt lat="-31.082049269950677" lon="115.37934112060157"><ele>23.0</ele><time>2026-04-12T06:03:32.001Z</time></trkpt><trkpt lat="-31.081915692922983" lon="115.37934018509384"><ele>23.0</ele><time>2026-04-12T06:03:33.001Z</time></trkpt><trkpt lat="-31.081781439527155" lon="115.37936263568268"><ele>23.0</ele><time>2026-04-12T06:03:34.001Z</time></trkpt><trkpt lat="-31.081659740194652" lon="115.37936989970584"><ele>23.0</ele><time>2026-04-12T06:03:35.001Z</time></trkpt><trkpt lat="-31.08153845189316" lon="115.37936348268204"><ele>23.0</ele><time>2026-04-12T06:03:36.001Z</time></trkpt><trkpt lat="-31.081415542740192" lon="115.379365799076"><ele>22.799999999999997</ele><time>2026-04-12T06:03:37.001Z</time></trkpt><trkpt lat="-31.081304840490358" lon="115.3793664605529"><ele>22.6</ele><time>2026-04-12T06:03:38.001Z</time></trkpt><trkpt lat="-31.081196177331385" lon="115.37936701196861"><ele>22.4</ele><time>2026-04-12T06:03:39.001Z</time></trkpt><trkpt lat="-31.08109601950006" lon="115.37936573424179"><ele>22.200000000000003</ele><time>2026-04-12T06:03:40.001Z</time></trkpt><trkpt lat="-31.08099764897058" lon="115.37937555128012"><ele>22.0</ele><time>2026-04-12T06:03:41.001Z</time></trkpt><trkpt lat="-31.080894047808577" lon="115.37937096324926"><ele>22.0</ele><time>2026-04-12T06:03:42.001Z</time></trkpt><trkpt lat="-31.080787371096136" lon="115.37937935071845"><ele>22.0</ele><time>2026-04-12T06:03:43.001Z</time></trkpt><trkpt lat="-31.080685756212258" lon="115.37936736582365"><ele>22.0</ele><time>2026-04-12T06:03:44.001Z</time></trkpt><trkpt lat="-31.080591838104926" lon="115.37936193509023"><ele>22.0</ele><time>2026-04-12T06:03:45.001Z</time></trkpt><trkpt lat="-31.080476730773377" lon="115.37935185119609"><ele>22.0</ele><time>2026-04-12T06:03:46.001Z</time></trkpt><trkpt lat="-31.080352291673524" lon="115.37934951293273"><ele>22.200000000000003</ele><time>2026-04-12T06:03:47.001Z</time></trkpt><trkpt lat="-31.080240140464614" lon="115.37936643994296"><ele>22.4</ele><time>2026-04-12T06:03:48.001Z</time></trkpt><trkpt lat="-31.080143440529945" lon="115.37934703302507"><ele>22.6</ele><time>2026-04-12T06:03:49.001Z</time></trkpt><trkpt lat="-31.080053415920258" lon="115.37934240529323"><ele>22.799999999999997</ele><time>2026-04-12T06:03:50.001Z</time></trkpt><trkpt lat="-31.079955456500617" lon="115.3793372509764"><ele>23.0</ele><time>2026-04-12T06:03:51.001Z</time></trkpt><trkpt lat="-31.07984668590457" lon="115.37933697414651"><ele>23.25</ele><time>2026-04-12T06:03:52.001Z</time></trkpt><trkpt lat="-31.079723105657134" lon="115.37933157543753"><ele>23.5</ele><time>2026-04-12T06:03:53.001Z</time></trkpt><trkpt lat="-31.079604095415927" lon="115.37933191166704"><ele>23.75</ele><time>2026-04-12T06:03:54.001Z</time></trkpt><trkpt lat="-31.079489708632263" lon="115.37932829976472"><ele>24.0</ele><time>2026-04-12T06:03:55.001Z</time></trkpt><trkpt lat="-31.079384824636904" lon="115.37930187371906"><ele>24.0</ele><time>2026-04-12T06:03:56.001Z</time></trkpt><trkpt lat="-31.07928957417345" lon="115.37930346216181"><ele>24.0</ele><time>2026-04-12T06:03:57.001Z</time></trkpt><trkpt lat="-31.079191663039186" lon="115.37928838928842"><ele>24.0</ele><time>2026-04-12T06:03:58.001Z</time></trkpt><trkpt lat="-31.079091217418213" lon="115.37929323560768"><ele>24.0</ele><time>2026-04-12T06:03:59.001Z</time></trkpt><trkpt lat="-31.0789867568452" lon="115.37927528566742"><ele>24.0</ele><time>2026-04-12T06:04:00.001Z</time></trkpt><trkpt lat="-31.078878602821977" lon="115.37926886736074"><ele>23.25</ele><time>2026-04-12T06:04:01.001Z</time></trkpt><trkpt lat="-31.078775375631558" lon="115.37927529579838"><ele>22.5</ele><time>2026-04-12T06:04:02.001Z</time></trkpt><trkpt lat="-31.078666463404076" lon="115.37927516585351"><ele>21.75</ele><time>2026-04-12T06:04:03.001Z</time></trkpt><trkpt lat="-31.078547432181168" lon="115.37924874224231"><ele>21.0</ele><time>2026-04-12T06:04:04.001Z</time></trkpt><trkpt lat="-31.078417622765013" lon="115.3792600078694"><ele>21.0</ele><time>2026-04-12T06:04:05.001Z</time></trkpt><trkpt lat="-31.078293042772124" lon="115.37924548814732"><ele>21.0</ele><time>2026-04-12T06:04:06.001Z</time></trkpt><trkpt lat="-31.07817883708121" lon="115.37922387226293"><ele>21.0</ele><time>2026-04-12T06:04:07.001Z</time></trkpt><trkpt lat="-31.07807624872869" lon="115.37921257436594"><ele>21.0</ele><time>2026-04-12T06:04:08.001Z</time></trkpt><trkpt lat="-31.07797992133261" lon="115.37919584193799"><ele>21.0</ele><time>2026-04-12T06:04:09.001Z</time></trkpt><trkpt lat="-31.077884361897606" lon="115.37917327381273"><ele>21.166666666666668</ele><time>2026-04-12T06:04:10.001Z</time></trkpt><trkpt lat="-31.07778272667931" lon="115.37915445395893"><ele>21.333333333333332</ele><time>2026-04-12T06:04:11.001Z</time></trkpt><trkpt lat="-31.07769098079336" lon="115.37915300209258"><ele>21.5</ele><time>2026-04-12T06:04:12.001Z</time></trkpt><trkpt lat="-31.077606494961703" lon="115.37915152702558"><ele>21.666666666666664</ele><time>2026-04-12T06:04:13.001Z</time></trkpt><trkpt lat="-31.07753607681298" lon="115.37914883810228"><ele>21.833333333333332</ele><time>2026-04-12T06:04:14.001Z</time></trkpt><trkpt lat="-31.07746863450234" lon="115.37914482510527"><ele>22.0</ele><time>2026-04-12T06:04:15.001Z</time></trkpt><trkpt lat="-31.077357489966367" lon="115.3791369720413"><ele>22.0</ele><time>2026-04-12T06:04:17.001Z</time></trkpt><trkpt lat="-31.077270285959028" lon="115.37917004727528"><ele>22.0</ele><time>2026-04-12T06:04:19.001Z</time></trkpt><trkpt lat="-31.077162063141184" lon="115.37916163287841"><ele>22.0</ele><time>2026-04-12T06:06:38.001Z</time></trkpt><trkpt lat="-31.07703456162705" lon="115.37915163104199"><ele>22.0</ele><time>2026-04-12T06:06:40.001Z</time></trkpt><trkpt lat="-31.07695361606649" lon="115.37914872212109"><ele>22.0</ele><time>2026-04-12T06:06:41.001Z</time></trkpt><trkpt lat="-31.076867554591963" lon="115.3791409981916"><ele>22.0</ele><time>2026-04-12T06:06:42.001Z</time></trkpt><trkpt lat="-31.076776663886573" lon="115.37913101201542"><ele>22.0</ele><time>2026-04-12T06:06:43.001Z</time></trkpt><trkpt lat="-31.076688178103545" lon="115.3790831305857"><ele>22.0</ele><time>2026-04-12T06:06:44.001Z</time></trkpt><trkpt lat="-31.076607839476512" lon="115.37907199059084"><ele>22.0</ele><time>2026-04-12T06:06:45.001Z</time></trkpt><trkpt lat="-31.076511380937575" lon="115.37905592529596"><ele>22.0</ele><time>2026-04-12T06:06:46.001Z</time></trkpt><trkpt lat="-31.076405967171105" lon="115.37903456452042"><ele>22.400000000000002</ele><time>2026-04-12T06:06:47.001Z</time></trkpt><trkpt lat="-31.076305974051223" lon="115.37901231027597"><ele>22.8</ele><time>2026-04-12T06:06:48.001Z</time></trkpt><trkpt lat="-31.076209477739965" lon="115.37899010321131"><ele>23.2</ele><time>2026-04-12T06:06:49.001Z</time></trkpt><trkpt lat="-31.07611175398568" lon="115.37896434338515"><ele>23.6</ele><time>2026-04-12T06:06:50.001Z</time></trkpt><trkpt lat="-31.076011057447758" lon="115.37893107647564"><ele>24.0</ele><time>2026-04-12T06:06:51.001Z</time></trkpt><trkpt lat="-31.075911145345472" lon="115.37889730321092"><ele>24.0</ele><time>2026-04-12T06:06:52.001Z</time></trkpt><trkpt lat="-31.075818317327354" lon="115.37887613417993"><ele>24.0</ele><time>2026-04-12T06:06:53.001Z</time></trkpt><trkpt lat="-31.075726558131326" lon="115.37887035186888"><ele>24.0</ele><time>2026-04-12T06:06:54.001Z</time></trkpt><trkpt lat="-31.07563518694972" lon="115.37885244248784"><ele>24.0</ele><time>2026-04-12T06:06:55.001Z</time></trkpt><trkpt lat="-31.075546085856875" lon="115.37882188936784"><ele>24.0</ele><time>2026-04-12T06:06:56.001Z</time></trkpt><trkpt lat="-31.075457358910587" lon="115.37879083751763"><ele>24.0</ele><time>2026-04-12T06:06:57.001Z</time></trkpt><trkpt lat="-31.075378754141845" lon="115.3787642390338"><ele>24.0</ele><time>2026-04-12T06:06:58.001Z</time></trkpt><trkpt lat="-31.07531005569876" lon="115.37874233522307"><ele>24.0</ele><time>2026-04-12T06:06:59.001Z</time></trkpt><trkpt lat="-31.075236001964686" lon="115.37873901812074"><ele>24.0</ele><time>2026-04-12T06:07:00.001Z</time></trkpt><trkpt lat="-31.075162509661297" lon="115.378723491312"><ele>24.0</ele><time>2026-04-12T06:07:01.001Z</time></trkpt><trkpt lat="-31.075082890802992" lon="115.3787075213967"><ele>24.0</ele><time>2026-04-12T06:07:02.001Z</time></trkpt><trkpt lat="-31.07501035539997" lon="115.37866336299476"><ele>24.0</ele><time>2026-04-12T06:07:03.001Z</time></trkpt><trkpt lat="-31.074937768441195" lon="115.37863085672271"><ele>24.0</ele><time>2026-04-12T06:07:04.001Z</time></trkpt><trkpt lat="-31.074863727414133" lon="115.37861526636709"><ele>24.0</ele><time>2026-04-12T06:07:05.001Z</time></trkpt><trkpt lat="-31.07477852109585" lon="115.37860471592978"><ele>24.0</ele><time>2026-04-12T06:07:06.001Z</time></trkpt><trkpt lat="-31.074684348063325" lon="115.37859412867296"><ele>24.0</ele><time>2026-04-12T06:07:07.001Z</time></trkpt><trkpt lat="-31.074588983747077" lon="115.37856452453084"><ele>24.0</ele><time>2026-04-12T06:07:08.001Z</time></trkpt><trkpt lat="-31.07448539336405" lon="115.37851482962319"><ele>23.833333333333332</ele><time>2026-04-12T06:07:09.001Z</time></trkpt><trkpt lat="-31.07439658052987" lon="115.37846662296772"><ele>23.666666666666668</ele><time>2026-04-12T06:07:10.001Z</time></trkpt><trkpt lat="-31.074312316906184" lon="115.37842307866825"><ele>23.5</ele><time>2026-04-12T06:07:11.001Z</time></trkpt><trkpt lat="-31.07423503395581" lon="115.37839994813939"><ele>23.333333333333336</ele><time>2026-04-12T06:07:12.001Z</time></trkpt><trkpt lat="-31.07415720648198" lon="115.37839194734222"><ele>23.166666666666668</ele><time>2026-04-12T06:07:13.001Z</time></trkpt><trkpt lat="-31.07408306099526" lon="115.37839507170203"><ele>23.0</ele><time>2026-04-12T06:07:14.001Z</time></trkpt><trkpt lat="-31.074012397241415" lon="115.37839750143073"><ele>23.0</ele><time>2026-04-12T06:07:15.001Z</time></trkpt><trkpt lat="-31.07394263403562" lon="115.37837233841188"><ele>23.0</ele><time>2026-04-12T06:07:16.001Z</time></trkpt><trkpt lat="-31.073866654372626" lon="115.37831616417597"><ele>23.0</ele><time>2026-04-12T06:07:17.001Z</time></trkpt><trkpt lat="-31.073786871871157" lon="115.37825976487491"><ele>23.0</ele><time>2026-04-12T06:07:18.001Z</time></trkpt><trkpt lat="-31.07369728149089" lon="115.37823215612394"><ele>23.0</ele><time>2026-04-12T06:07:19.001Z</time></trkpt><trkpt lat="-31.073585240467814" lon="115.37822467190561"><ele>23.0</ele><time>2026-04-12T06:07:20.001Z</time></trkpt><trkpt lat="-31.07346300405677" lon="115.37821073359363"><ele>23.0</ele><time>2026-04-12T06:07:21.001Z</time></trkpt><trkpt lat="-31.073337596447146" lon="115.37816848697341"><ele>23.0</ele><time>2026-04-12T06:07:22.001Z</time></trkpt><trkpt lat="-31.07322514013413" lon="115.37811168928593"><ele>23.0</ele><time>2026-04-12T06:07:23.001Z</time></trkpt><trkpt lat="-31.07311766699706" lon="115.37806895795518"><ele>23.25</ele><time>2026-04-12T06:07:24.001Z</time></trkpt><trkpt lat="-31.072992688016964" lon="115.3780396814096"><ele>23.5</ele><time>2026-04-12T06:07:25.001Z</time></trkpt><trkpt lat="-31.072863127189027" lon="115.37800511660349"><ele>23.75</ele><time>2026-04-12T06:07:26.001Z</time></trkpt><trkpt lat="-31.072747386941966" lon="115.37796801834781"><ele>24.0</ele><time>2026-04-12T06:07:27.001Z</time></trkpt><trkpt lat="-31.072647950361013" lon="115.3779286628344"><ele>24.0</ele><time>2026-04-12T06:07:28.001Z</time></trkpt><trkpt lat="-31.072556623378684" lon="115.37789517873523"><ele>24.0</ele><time>2026-04-12T06:07:29.001Z</time></trkpt><trkpt lat="-31.07245938391358" lon="115.37787229112648"><ele>24.0</ele><time>2026-04-12T06:07:30.001Z</time></trkpt><trkpt lat="-31.072361329359303" lon="115.37784617440083"><ele>24.0</ele><time>2026-04-12T06:07:31.001Z</time></trkpt><trkpt lat="-31.072269344942438" lon="115.37780968053721"><ele>24.0</ele><time>2026-04-12T06:07:32.001Z</time></trkpt><trkpt lat="-31.072177662072193" lon="115.37778184285257"><ele>24.333333333333332</ele><time>2026-04-12T06:07:33.001Z</time></trkpt><trkpt lat="-31.072082286279873" lon="115.37775983363039"><ele>24.666666666666664</ele><time>2026-04-12T06:07:34.001Z</time></trkpt><trkpt lat="-31.071989614583458" lon="115.3777272007565"><ele>25.0</ele><time>2026-04-12T06:07:35.001Z</time></trkpt><trkpt lat="-31.07190977239264" lon="115.37769789782652"><ele>25.333333333333332</ele><time>2026-04-12T06:07:36.001Z</time></trkpt><trkpt lat="-31.071833514166997" lon="115.37768752749544"><ele>25.666666666666664</ele><time>2026-04-12T06:07:37.001Z</time></trkpt><trkpt lat="-31.071749641600494" lon="115.37767711305294"><ele>26.0</ele><time>2026-04-12T06:07:38.001Z</time></trkpt><trkpt lat="-31.07166226923344" lon="115.37765939907601"><ele>25.6</ele><time>2026-04-12T06:07:39.001Z</time></trkpt><trkpt lat="-31.071569333373347" lon="115.37762205025201"><ele>25.200000000000003</ele><time>2026-04-12T06:07:40.001Z</time></trkpt><trkpt lat="-31.071477428136504" lon="115.3775743360574"><ele>24.799999999999997</ele><time>2026-04-12T06:07:41.001Z</time></trkpt><trkpt lat="-31.071379631515292" lon="115.37754059448162"><ele>24.4</ele><time>2026-04-12T06:07:42.001Z</time></trkpt><trkpt lat="-31.07127631784203" lon="115.37750841602163"><ele>24.0</ele><time>2026-04-12T06:07:43.001Z</time></trkpt><trkpt lat="-31.07118143709879" lon="115.37747469806861"><ele>24.0</ele><time>2026-04-12T06:07:44.001Z</time></trkpt><trkpt lat="-31.071083782844212" lon="115.3774276527317"><ele>24.0</ele><time>2026-04-12T06:07:45.001Z</time></trkpt><trkpt lat="-31.070986982765444" lon="115.37737715968896"><ele>24.0</ele><time>2026-04-12T06:07:46.001Z</time></trkpt><trkpt lat="-31.070899102350435" lon="115.37732949235262"><ele>24.0</ele><time>2026-04-12T06:07:47.001Z</time></trkpt><trkpt lat="-31.07081865885757" lon="115.37727740329369"><ele>24.0</ele><time>2026-04-12T06:07:48.001Z</time></trkpt><trkpt lat="-31.070744610516872" lon="115.37721809265186"><ele>23.6</ele><time>2026-04-12T06:07:49.001Z</time></trkpt><trkpt lat="-31.070665661035147" lon="115.37715457471785"><ele>23.2</ele><time>2026-04-12T06:07:50.001Z</time></trkpt><trkpt lat="-31.070592965845524" lon="115.3770774317108"><ele>22.8</ele><time>2026-04-12T06:07:51.001Z</time></trkpt><trkpt lat="-31.070530390312854" lon="115.37700146312329"><ele>22.400000000000002</ele><time>2026-04-12T06:07:52.001Z</time></trkpt><trkpt lat="-31.070463833836538" lon="115.37692377819702"><ele>22.0</ele><time>2026-04-12T06:07:53.001Z</time></trkpt><trkpt lat="-31.070398028481463" lon="115.37683500073256"><ele>22.0</ele><time>2026-04-12T06:07:54.001Z</time></trkpt><trkpt lat="-31.07034890629333" lon="115.37674366740654"><ele>22.0</ele><time>2026-04-12T06:07:55.001Z</time></trkpt><trkpt lat="-31.070308434392054" lon="115.37664965655252"><ele>22.0</ele><time>2026-04-12T06:07:56.001Z</time></trkpt><trkpt lat="-31.07025638857576" lon="115.37656803990771"><ele>22.0</ele><time>2026-04-12T06:07:57.001Z</time></trkpt><trkpt lat="-31.070204541943344" lon="115.37647758240782"><ele>22.0</ele><time>2026-04-12T06:07:58.001Z</time></trkpt><trkpt lat="-31.070156991670615" lon="115.37637552791755"><ele>22.0</ele><time>2026-04-12T06:07:59.001Z</time></trkpt><trkpt lat="-31.07011405359784" lon="115.37627312546743"><ele>22.0</ele><time>2026-04-12T06:08:00.001Z</time></trkpt><trkpt lat="-31.070072305538613" lon="115.3761737033565"><ele>22.0</ele><time>2026-04-12T06:08:01.001Z</time></trkpt><trkpt lat="-31.07003812776531" lon="115.37606994271127"><ele>22.0</ele><time>2026-04-12T06:08:02.001Z</time></trkpt><trkpt lat="-31.07001072913948" lon="115.37597666249334"><ele>22.0</ele><time>2026-04-12T06:08:03.001Z</time></trkpt><trkpt lat="-31.069984013709078" lon="115.37588051803546"><ele>22.0</ele><time>2026-04-12T06:08:04.001Z</time></trkpt><trkpt lat="-31.069957464248134" lon="115.37577386192493"><ele>22.0</ele><time>2026-04-12T06:08:05.001Z</time></trkpt><trkpt lat="-31.069936047858572" lon="115.37567866058383"><ele>22.0</ele><time>2026-04-12T06:08:06.001Z</time></trkpt><trkpt lat="-31.069919263979436" lon="115.37556641247598"><ele>22.0</ele><time>2026-04-12T06:08:07.001Z</time></trkpt><trkpt lat="-31.069904215968368" lon="115.37544999644352"><ele>22.0</ele><time>2026-04-12T06:08:08.001Z</time></trkpt><trkpt lat="-31.069890488585685" lon="115.37533175663394"><ele>21.6</ele><time>2026-04-12T06:08:09.001Z</time></trkpt><trkpt lat="-31.069871444921752" lon="115.37521954476294"><ele>21.200000000000003</ele><time>2026-04-12T06:08:10.001Z</time></trkpt><trkpt lat="-31.069852817714686" lon="115.37511314016184"><ele>20.8</ele><time>2026-04-12T06:08:11.001Z</time></trkpt><trkpt lat="-31.06983794057308" lon="115.37500724241806"><ele>20.4</ele><time>2026-04-12T06:08:12.001Z</time></trkpt><trkpt lat="-31.069820138930716" lon="115.37490171236229"><ele>20.0</ele><time>2026-04-12T06:08:13.001Z</time></trkpt><trkpt lat="-31.06980048306821" lon="115.37480088270988"><ele>19.25</ele><time>2026-04-12T06:08:14.001Z</time></trkpt><trkpt lat="-31.06978964982984" lon="115.37468567973986"><ele>18.5</ele><time>2026-04-12T06:08:15.001Z</time></trkpt><trkpt lat="-31.069791037115955" lon="115.37455474852618"><ele>17.75</ele><time>2026-04-12T06:08:16.001Z</time></trkpt><trkpt lat="-31.069789584583763" lon="115.37440973655771"><ele>17.0</ele><time>2026-04-12T06:08:17.001Z</time></trkpt><trkpt lat="-31.069779397142796" lon="115.37426705888394"><ele>17.0</ele><time>2026-04-12T06:08:18.001Z</time></trkpt><trkpt lat="-31.0697590284957" lon="115.37410697555576"><ele>17.0</ele><time>2026-04-12T06:08:19.001Z</time></trkpt><trkpt lat="-31.069734354836616" lon="115.37394915356826"><ele>17.0</ele><time>2026-04-12T06:08:20.001Z</time></trkpt><trkpt lat="-31.069720140692073" lon="115.37378337814955"><ele>17.0</ele><time>2026-04-12T06:08:21.001Z</time></trkpt><trkpt lat="-31.06972154714798" lon="115.37361647584467"><ele>17.0</ele><time>2026-04-12T06:08:22.001Z</time></trkpt><trkpt lat="-31.069734023627685" lon="115.37344679397587"><ele>17.0</ele><time>2026-04-12T06:08:23.001Z</time></trkpt><trkpt lat="-31.069744760055556" lon="115.37329871125242"><ele>17.0</ele><time>2026-04-12T06:08:24.001Z</time></trkpt><trkpt lat="-31.069755804644917" lon="115.37316695877485"><ele>17.0</ele><time>2026-04-12T06:08:25.001Z</time></trkpt><trkpt lat="-31.06975705718477" lon="115.37304967560308"><ele>17.0</ele><time>2026-04-12T06:08:26.001Z</time></trkpt><trkpt lat="-31.069743819400383" lon="115.37292754892597"><ele>17.0</ele><time>2026-04-12T06:08:27.001Z</time></trkpt><trkpt lat="-31.069728843542585" lon="115.37278686688633"><ele>17.0</ele><time>2026-04-12T06:08:28.001Z</time></trkpt><trkpt lat="-31.06972036121816" lon="115.37265034473704"><ele>17.0</ele><time>2026-04-12T06:08:29.001Z</time></trkpt><trkpt lat="-31.069733636933854" lon="115.3725168289468"><ele>17.0</ele><time>2026-04-12T06:08:30.001Z</time></trkpt><trkpt lat="-31.069748602286403" lon="115.37237935236836"><ele>17.0</ele><time>2026-04-12T06:08:31.001Z</time></trkpt><trkpt lat="-31.06977740801344" lon="115.37224149975012"><ele>17.0</ele><time>2026-04-12T06:08:32.001Z</time></trkpt><trkpt lat="-31.06977587430738" lon="115.37209156106758"><ele>17.0</ele><time>2026-04-12T06:08:33.001Z</time></trkpt><trkpt lat="-31.06977330187615" lon="115.37192124780525"><ele>16.333333333333336</ele><time>2026-04-12T06:08:34.001Z</time></trkpt><trkpt lat="-31.06976870012973" lon="115.37174363265338"><ele>15.666666666666668</ele><time>2026-04-12T06:08:35.001Z</time></trkpt><trkpt lat="-31.06976361660184" lon="115.37156727359786"><ele>15.0</ele><time>2026-04-12T06:08:36.001Z</time></trkpt><trkpt lat="-31.0697586761176" lon="115.37138891522912"><ele>14.666666666666668</ele><time>2026-04-12T06:08:37.001Z</time></trkpt><trkpt lat="-31.069753653781223" lon="115.37120297043012"><ele>14.333333333333334</ele><time>2026-04-12T06:08:38.001Z</time></trkpt><trkpt lat="-31.06974884310078" lon="115.37102172098832"><ele>14.0</ele><time>2026-04-12T06:08:39.001Z</time></trkpt><trkpt lat="-31.06974907620484" lon="115.37084743206796"><ele>14.0</ele><time>2026-04-12T06:08:40.001Z</time></trkpt><trkpt lat="-31.069751020277106" lon="115.37067899932585"><ele>14.0</ele><time>2026-04-12T06:08:41.001Z</time></trkpt><trkpt lat="-31.069753504854603" lon="115.37052906052011"><ele>14.0</ele><time>2026-04-12T06:08:42.001Z</time></trkpt><trkpt lat="-31.069754086049716" lon="115.37037690290786"><ele>14.0</ele><time>2026-04-12T06:08:43.001Z</time></trkpt><trkpt lat="-31.06974685544301" lon="115.37022841710522"><ele>14.799999999999999</ele><time>2026-04-12T06:08:44.001Z</time></trkpt><trkpt lat="-31.06973662590361" lon="115.37008304041586"><ele>15.599999999999998</ele><time>2026-04-12T06:08:45.001Z</time></trkpt><trkpt lat="-31.069728603670242" lon="115.36995268349598"><ele>16.4</ele><time>2026-04-12T06:08:46.001Z</time></trkpt><trkpt lat="-31.069717154604035" lon="115.36983254029639"><ele>17.2</ele><time>2026-04-12T06:08:47.001Z</time></trkpt><trkpt lat="-31.069736023669325" lon="115.36973548872636"><ele>18.0</ele><time>2026-04-12T06:08:48.001Z</time></trkpt><trkpt lat="-31.069763251066362" lon="115.36964885103751"><ele>18.2</ele><time>2026-04-12T06:08:49.001Z</time></trkpt><trkpt lat="-31.069786401577552" lon="115.36956017278838"><ele>18.4</ele><time>2026-04-12T06:08:50.001Z</time></trkpt><trkpt lat="-31.069811607941944" lon="115.36946352513502"><ele>18.599999999999998</ele><time>2026-04-12T06:08:51.001Z</time></trkpt><trkpt lat="-31.06982290216731" lon="115.36935281880017"><ele>18.8</ele><time>2026-04-12T06:08:52.001Z</time></trkpt><trkpt lat="-31.069831992291345" lon="115.36923739617849"><ele>19.0</ele><time>2026-04-12T06:08:53.001Z</time></trkpt><trkpt lat="-31.069839826848117" lon="115.36912189862753"><ele>19.0</ele><time>2026-04-12T06:08:54.001Z</time></trkpt><trkpt lat="-31.069832857856028" lon="115.36899475479318"><ele>19.0</ele><time>2026-04-12T06:08:55.001Z</time></trkpt><trkpt lat="-31.069849689884702" lon="115.36886648375483"><ele>19.0</ele><time>2026-04-12T06:08:56Z</time></trkpt><trkpt lat="-31.06986058116685" lon="115.3687384789277"><ele>19.0</ele><time>2026-04-12T06:08:57Z</time></trkpt><trkpt lat="-31.06987398784126" lon="115.36860888403814"><ele>19.0</ele><time>2026-04-12T06:08:58Z</time></trkpt><trkpt lat="-31.069880219141247" lon="115.36848139579008"><ele>18.599999999999998</ele><time>2026-04-12T06:08:59Z</time></trkpt><trkpt lat="-31.069903919066068" lon="115.36835722105046"><ele>18.2</ele><time>2026-04-12T06:09:00Z</time></trkpt><trkpt lat="-31.069916040435828" lon="115.368227162082"><ele>17.799999999999997</ele><time>2026-04-12T06:09:01Z</time></trkpt><trkpt lat="-31.069913248826293" lon="115.36810772695571"><ele>17.4</ele><time>2026-04-12T06:09:02Z</time></trkpt><trkpt lat="-31.069924526665307" lon="115.36799454142519"><ele>17.0</ele><time>2026-04-12T06:09:03Z</time></trkpt><trkpt lat="-31.069939022186837" lon="115.36787728985536"><ele>16.6</ele><time>2026-04-12T06:09:04Z</time></trkpt><trkpt lat="-31.06994442268933" lon="115.36775950860289"><ele>16.2</ele><time>2026-04-12T06:09:05Z</time></trkpt><trkpt lat="-31.06994934772218" lon="115.36764027594634"><ele>15.8</ele><time>2026-04-12T06:09:06Z</time></trkpt><trkpt lat="-31.06993935853082" lon="115.36752574909288"><ele>15.4</ele><time>2026-04-12T06:09:07Z</time></trkpt><trkpt lat="-31.06995967011265" lon="115.36740904459671"><ele>15.0</ele><time>2026-04-12T06:09:08Z</time></trkpt><trkpt lat="-31.069965327496107" lon="115.36728739236817"><ele>14.2</ele><time>2026-04-12T06:09:09Z</time></trkpt><trkpt lat="-31.069970792833104" lon="115.3671690915067"><ele>13.4</ele><time>2026-04-12T06:09:10Z</time></trkpt><trkpt lat="-31.06996196775818" lon="115.36705289572775"><ele>12.600000000000001</ele><time>2026-04-12T06:09:11Z</time></trkpt><trkpt lat="-31.069979335939745" lon="115.36692696557306"><ele>11.8</ele><time>2026-04-12T06:09:12Z</time></trkpt><trkpt lat="-31.069992565640018" lon="115.36681324427832"><ele>11.0</ele><time>2026-04-12T06:09:13Z</time></trkpt><trkpt lat="-31.0700057609174" lon="115.3667183734003"><ele>11.0</ele><time>2026-04-12T06:09:14Z</time></trkpt><trkpt lat="-31.070011032741057" lon="115.3666397934621"><ele>11.0</ele><time>2026-04-12T06:09:15Z</time></trkpt><trkpt lat="-31.07001280307249" lon="115.36654113366122"><ele>11.0</ele><time>2026-04-12T06:09:16Z</time></trkpt><trkpt lat="-31.070011630374786" lon="115.36644412193685"><ele>11.0</ele><time>2026-04-12T06:09:17Z</time></trkpt><trkpt lat="-31.0700043714462" lon="115.36627161992854"><ele>11.0</ele><time>2026-04-12T06:09:19Z</time></trkpt><trkpt lat="-31.07000029397461" lon="115.36614799558019"><ele>10.25</ele><time>2026-04-12T06:09:20Z</time></trkpt><trkpt lat="-31.069995752760438" lon="115.36600926163747"><ele>9.5</ele><time>2026-04-12T06:09:21Z</time></trkpt><trkpt lat="-31.069992206352325" lon="115.3658648319371"><ele>8.75</ele><time>2026-04-12T06:09:22Z</time></trkpt><trkpt lat="-31.06999020088776" lon="115.36571653250331"><ele>8.0</ele><time>2026-04-12T06:09:23Z</time></trkpt><trkpt lat="-31.069990078504333" lon="115.36556231304584"><ele>8.0</ele><time>2026-04-12T06:09:24Z</time></trkpt><trkpt lat="-31.0699916717681" lon="115.3653811661115"><ele>8.0</ele><time>2026-04-12T06:09:25Z</time></trkpt><trkpt lat="-31.069994253167284" lon="115.36519813846107"><ele>8.0</ele><time>2026-04-12T06:09:26Z</time></trkpt><trkpt lat="-31.06999857314998" lon="115.36502448828682"><ele>8.0</ele><time>2026-04-12T06:09:27Z</time></trkpt><trkpt lat="-31.070003456574245" lon="115.36485532827164"><ele>8.0</ele><time>2026-04-12T06:09:28Z</time></trkpt><trkpt lat="-31.070008985908313" lon="115.36468875684918"><ele>8.0</ele><time>2026-04-12T06:09:29Z</time></trkpt><trkpt lat="-31.07000753315674" lon="115.36453732783448"><ele>8.0</ele><time>2026-04-12T06:09:30Z</time></trkpt><trkpt lat="-31.070015793024503" lon="115.36440407549615"><ele>7.999999999999999</ele><time>2026-04-12T06:09:31Z</time></trkpt><trkpt lat="-31.07001635307545" lon="115.3642895276945"><ele>8.0</ele><time>2026-04-12T06:09:32Z</time></trkpt><trkpt lat="-31.070019172687676" lon="115.3641862664517"><ele>8.0</ele><time>2026-04-12T06:09:33Z</time></trkpt><trkpt lat="-31.07003932660813" lon="115.36408916162648"><ele>8.0</ele><time>2026-04-12T06:09:34Z</time></trkpt><trkpt lat="-31.07004569503682" lon="115.36399302270974"><ele>7.999999999999999</ele><time>2026-04-12T06:09:35Z</time></trkpt><trkpt lat="-31.07006537159129" lon="115.36390451092802"><ele>8.0</ele><time>2026-04-12T06:09:36Z</time></trkpt><trkpt lat="-31.070084752071562" lon="115.3638068878664"><ele>7.800000000000001</ele><time>2026-04-12T06:09:37Z</time></trkpt><trkpt lat="-31.07010284193399" lon="115.36371599595661"><ele>7.6000000000000005</ele><time>2026-04-12T06:09:38Z</time></trkpt><trkpt lat="-31.070123311080454" lon="115.36361314939307"><ele>7.3999999999999995</ele><time>2026-04-12T06:09:39Z</time></trkpt><trkpt lat="-31.07014331840343" lon="115.3635126232539"><ele>7.199999999999999</ele><time>2026-04-12T06:09:40Z</time></trkpt><trkpt lat="-31.07016578277845" lon="115.36339918356101"><ele>7.0</ele><time>2026-04-12T06:09:41Z</time></trkpt><trkpt lat="-31.070188313850007" lon="115.36328292009838"><ele>7.0</ele><time>2026-04-12T06:09:42Z</time></trkpt><trkpt lat="-31.070198313737713" lon="115.36317086646282"><ele>6.999999999999999</ele><time>2026-04-12T06:09:43Z</time></trkpt><trkpt lat="-31.070219715030518" lon="115.36306585697423"><ele>6.999999999999999</ele><time>2026-04-12T06:09:44Z</time></trkpt><trkpt lat="-31.070238886371598" lon="115.36294678271682"><ele>7.0</ele><time>2026-04-12T06:09:45Z</time></trkpt><trkpt lat="-31.07025502293319" lon="115.36283077707775"><ele>7.0</ele><time>2026-04-12T06:09:46Z</time></trkpt><trkpt lat="-31.070276201310815" lon="115.36271177075858"><ele>7.199999999999999</ele><time>2026-04-12T06:09:47Z</time></trkpt><trkpt lat="-31.070302804731732" lon="115.36259316668134"><ele>7.3999999999999995</ele><time>2026-04-12T06:09:48Z</time></trkpt><trkpt lat="-31.070315126068333" lon="115.36247368506851"><ele>7.6000000000000005</ele><time>2026-04-12T06:09:49Z</time></trkpt><trkpt lat="-31.070316756728463" lon="115.36234055666604"><ele>7.800000000000001</ele><time>2026-04-12T06:09:50Z</time></trkpt><trkpt lat="-31.07033356778382" lon="115.36221802079005"><ele>8.0</ele><time>2026-04-12T06:09:51Z</time></trkpt><trkpt lat="-31.070360663860168" lon="115.36209958736058"><ele>8.25</ele><time>2026-04-12T06:09:52Z</time></trkpt><trkpt lat="-31.070376076682066" lon="115.36198027961007"><ele>8.5</ele><time>2026-04-12T06:09:53Z</time></trkpt><trkpt lat="-31.070378161958864" lon="115.36183273125896"><ele>8.75</ele><time>2026-04-12T06:09:54Z</time></trkpt><trkpt lat="-31.070354328250705" lon="115.3616783072129"><ele>9.0</ele><time>2026-04-12T06:09:55Z</time></trkpt><trkpt lat="-31.070322796043477" lon="115.36151311925498"><ele>10.0</ele><time>2026-04-12T06:09:56Z</time></trkpt><trkpt lat="-31.070273480176176" lon="115.36133476879668"><ele>11.0</ele><time>2026-04-12T06:09:57Z</time></trkpt><trkpt lat="-31.070215292865072" lon="115.36113889066347"><ele>12.0</ele><time>2026-04-12T06:09:58Z</time></trkpt><trkpt lat="-31.070143916872595" lon="115.36093677950275"><ele>12.0</ele><time>2026-04-12T06:09:59Z</time></trkpt><trkpt lat="-31.07006707535034" lon="115.36074073889557"><ele>12.0</ele><time>2026-04-12T06:10:00Z</time></trkpt><trkpt lat="-31.069974098875928" lon="115.36053863313235"><ele>12.0</ele><time>2026-04-12T06:10:01Z</time></trkpt><trkpt lat="-31.069867124165526" lon="115.3603149508169"><ele>11.0</ele><time>2026-04-12T06:10:02Z</time></trkpt><trkpt lat="-31.06977696768899" lon="115.36007980470153"><ele>10.0</ele><time>2026-04-12T06:10:03Z</time></trkpt><trkpt lat="-31.06966828958939" lon="115.35985440847462"><ele>9.0</ele><time>2026-04-12T06:10:04Z</time></trkpt><trkpt lat="-31.069556283735498" lon="115.35963445924195"><ele>8.0</ele><time>2026-04-12T06:10:05Z</time></trkpt><trkpt lat="-31.069428588126776" lon="115.35941740349156"><ele>7.0</ele><time>2026-04-12T06:10:06Z</time></trkpt><trkpt lat="-31.0693229443477" lon="115.35920319775786"><ele>6.0</ele><time>2026-04-12T06:10:07Z</time></trkpt><trkpt lat="-31.0692152477215" lon="115.35899189745733"><ele>6.333333333333334</ele><time>2026-04-12T06:10:08Z</time></trkpt><trkpt lat="-31.069099066290935" lon="115.3588039819446"><ele>6.666666666666667</ele><time>2026-04-12T06:10:09Z</time></trkpt><trkpt lat="-31.068963377802625" lon="115.35863788439146"><ele>7.0</ele><time>2026-04-12T06:10:10Z</time></trkpt><trkpt lat="-31.068805183308537" lon="115.35849011657365"><ele>7.0</ele><time>2026-04-12T06:10:11Z</time></trkpt><trkpt lat="-31.068632492731965" lon="115.35836340696842"><ele>7.0</ele><time>2026-04-12T06:10:12Z</time></trkpt><trkpt lat="-31.068452776749886" lon="115.35825618503961"><ele>7.0</ele><time>2026-04-12T06:10:13Z</time></trkpt><trkpt lat="-31.0682659466711" lon="115.35817000217429"><ele>6.666666666666667</ele><time>2026-04-12T06:10:14Z</time></trkpt><trkpt lat="-31.06808173492117" lon="115.35811464090065"><ele>6.333333333333334</ele><time>2026-04-12T06:10:15Z</time></trkpt><trkpt lat="-31.06788423167764" lon="115.35807851050471"><ele>6.0</ele><time>2026-04-12T06:10:16Z</time></trkpt><trkpt lat="-31.067680096814826" lon="115.35806334413877"><ele>6.0</ele><time>2026-04-12T06:10:17Z</time></trkpt><trkpt lat="-31.067465606938473" lon="115.358060202852"><ele>6.0</ele><time>2026-04-12T06:10:18Z</time></trkpt><trkpt lat="-31.067257408015116" lon="115.35805723779379"><ele>6.0</ele><time>2026-04-12T06:10:19Z</time></trkpt><trkpt lat="-31.06705344032073" lon="115.35804199467185"><ele>5.5</ele><time>2026-04-12T06:10:20Z</time></trkpt><trkpt lat="-31.06683689762943" lon="115.35799590809982"><ele>5.0</ele><time>2026-04-12T06:10:21Z</time></trkpt><trkpt lat="-31.066608672165188" lon="115.35793047296971"><ele>6.0</ele><time>2026-04-12T06:10:22Z</time></trkpt><trkpt lat="-31.06637126609873" lon="115.35784975127528"><ele>7.0</ele><time>2026-04-12T06:10:23Z</time></trkpt><trkpt lat="-31.066145317106226" lon="115.35776992701865"><ele>7.0</ele><time>2026-04-12T06:10:24Z</time></trkpt><trkpt lat="-31.065918417681576" lon="115.35769330920748"><ele>7.0</ele><time>2026-04-12T06:10:25Z</time></trkpt><trkpt lat="-31.065692557994506" lon="115.35761665736423"><ele>7.5</ele><time>2026-04-12T06:10:26Z</time></trkpt><trkpt lat="-31.06546094453111" lon="115.35753363378352"><ele>8.0</ele><time>2026-04-12T06:10:27Z</time></trkpt><trkpt lat="-31.065234028966543" lon="115.35745582081434"><ele>8.0</ele><time>2026-04-12T06:10:28Z</time></trkpt><trkpt lat="-31.0650030214433" lon="115.3573724003523"><ele>8.0</ele><time>2026-04-12T06:10:29Z</time></trkpt><trkpt lat="-31.064768060870097" lon="115.35728855525629"><ele>7.5</ele><time>2026-04-12T06:10:30Z</time></trkpt><trkpt lat="-31.064532061295978" lon="115.35720679371003"><ele>7.0</ele><time>2026-04-12T06:10:31Z</time></trkpt><trkpt lat="-31.064289812058117" lon="115.3571246521962"><ele>6.0</ele><time>2026-04-12T06:10:32Z</time></trkpt><trkpt lat="-31.06404601088293" lon="115.35704397651104"><ele>5.0</ele><time>2026-04-12T06:10:33Z</time></trkpt><trkpt lat="-31.063804844760025" lon="115.35696100013664"><ele>5.0</ele><time>2026-04-12T06:10:34Z</time></trkpt><trkpt lat="-31.06356621760736" lon="115.35688003727901"><ele>5.0</ele><time>2026-04-12T06:10:35Z</time></trkpt><trkpt lat="-31.063325676288613" lon="115.35679674164787"><ele>6.0</ele><time>2026-04-12T06:10:36Z</time></trkpt><trkpt lat="-31.063089982691785" lon="115.35671803966154"><ele>7.0</ele><time>2026-04-12T06:10:37Z</time></trkpt><trkpt lat="-31.062851897776554" lon="115.35663524938663"><ele>7.0</ele><time>2026-04-12T06:10:38Z</time></trkpt><trkpt lat="-31.062611266451633" lon="115.35655083073475"><ele>7.0</ele><time>2026-04-12T06:10:39Z</time></trkpt><trkpt lat="-31.062372928654206" lon="115.35646713250625"><ele>6.0</ele><time>2026-04-12T06:10:40Z</time></trkpt><trkpt lat="-31.062135019569403" lon="115.35638112292807"><ele>5.0</ele><time>2026-04-12T06:10:41Z</time></trkpt><trkpt lat="-31.06189638868144" lon="115.35629445516444"><ele>5.5</ele><time>2026-04-12T06:10:42Z</time></trkpt><trkpt lat="-31.061673775936722" lon="115.35621741257563"><ele>6.0</ele><time>2026-04-12T06:10:43Z</time></trkpt><trkpt lat="-31.061463473614722" lon="115.35614543790223"><ele>6.0</ele><time>2026-04-12T06:10:44Z</time></trkpt><trkpt lat="-31.06125840263919" lon="115.35608077433893"><ele>6.0</ele><time>2026-04-12T06:10:45Z</time></trkpt><trkpt lat="-31.061048772421348" lon="115.35603063581199"><ele>6.0</ele><time>2026-04-12T06:10:46Z</time></trkpt><trkpt lat="-31.060821151068215" lon="115.35598885844989"><ele>6.333333333333334</ele><time>2026-04-12T06:10:47Z</time></trkpt><trkpt lat="-31.060600752329314" lon="115.35596660801372"><ele>6.666666666666667</ele><time>2026-04-12T06:10:48Z</time></trkpt><trkpt lat="-31.06038294096091" lon="115.35594918639339"><ele>7.0</ele><time>2026-04-12T06:10:49Z</time></trkpt><trkpt lat="-31.06012995960632" lon="115.35591928869086"><ele>7.0</ele><time>2026-04-12T06:10:50Z</time></trkpt><trkpt lat="-31.05989148620756" lon="115.35589441544866"><ele>7.0</ele><time>2026-04-12T06:10:51Z</time></trkpt><trkpt lat="-31.05965686181252" lon="115.35587486012895"><ele>7.0</ele><time>2026-04-12T06:10:52Z</time></trkpt><trkpt lat="-31.05941552298859" lon="115.35585515274809"><ele>7.0</ele><time>2026-04-12T06:10:53Z</time></trkpt><trkpt lat="-31.05918207336303" lon="115.35583575104317"><ele>6.5</ele><time>2026-04-12T06:10:54Z</time></trkpt><trkpt lat="-31.05895597529146" lon="115.35581598790142"><ele>6.0</ele><time>2026-04-12T06:10:55Z</time></trkpt><trkpt lat="-31.058714343501112" lon="115.35579448262261"><ele>6.0</ele><time>2026-04-12T06:10:56Z</time></trkpt><trkpt lat="-31.058476055879616" lon="115.35577420524382"><ele>6.0</ele><time>2026-04-12T06:10:57Z</time></trkpt><trkpt lat="-31.058238655663015" lon="115.35575425226904"><ele>6.5</ele><time>2026-04-12T06:10:58Z</time></trkpt><trkpt lat="-31.05799789885886" lon="115.35573630621147"><ele>7.0</ele><time>2026-04-12T06:10:59Z</time></trkpt><trkpt lat="-31.05775737412193" lon="115.35572115904405"><ele>7.0</ele><time>2026-04-12T06:11:00Z</time></trkpt><trkpt lat="-31.05751340570007" lon="115.35570599971099"><ele>7.0</ele><time>2026-04-12T06:11:01Z</time></trkpt><trkpt lat="-31.057267769646298" lon="115.35569018402764"><ele>6.5</ele><time>2026-04-12T06:11:02Z</time></trkpt><trkpt lat="-31.057021783043496" lon="115.3556706708484"><ele>6.0</ele><time>2026-04-12T06:11:03Z</time></trkpt><trkpt lat="-31.05677415299211" lon="115.35565117259848"><ele>6.0</ele><time>2026-04-12T06:11:04Z</time></trkpt><trkpt lat="-31.056534266030102" lon="115.35563439530573"><ele>6.0</ele><time>2026-04-12T06:11:05Z</time></trkpt><trkpt lat="-31.05628389659094" lon="115.35562058907492"><ele>6.0</ele><time>2026-04-12T06:11:06Z</time></trkpt><trkpt lat="-31.056048554939984" lon="115.35560459865837"><ele>6.0</ele><time>2026-04-12T06:11:07Z</time></trkpt><trkpt lat="-31.05581488041332" lon="115.3555851833047"><ele>6.0</ele><time>2026-04-12T06:11:08Z</time></trkpt><trkpt lat="-31.05557411551535" lon="115.3555646376707"><ele>6.0</ele><time>2026-04-12T06:11:09Z</time></trkpt><trkpt lat="-31.055321904581255" lon="115.35554711990864"><ele>6.0</ele><time>2026-04-12T06:11:10Z</time></trkpt><trkpt lat="-31.055069604526484" lon="115.3555340357732"><ele>6.0</ele><time>2026-04-12T06:11:11Z</time></trkpt><trkpt lat="-31.05482268161874" lon="115.35552160418582"><ele>6.0</ele><time>2026-04-12T06:11:12Z</time></trkpt><trkpt lat="-31.054576023715004" lon="115.35549818223753"><ele>6.0</ele><time>2026-04-12T06:11:13Z</time></trkpt><trkpt lat="-31.05432478960117" lon="115.35546093407267"><ele>4.5</ele><time>2026-04-12T06:11:14Z</time></trkpt><trkpt lat="-31.054072445063372" lon="115.3554097353238"><ele>3.0</ele><time>2026-04-12T06:11:15Z</time></trkpt><trkpt lat="-31.053820426558442" lon="115.3553510326395"><ele>3.0</ele><time>2026-04-12T06:11:16Z</time></trkpt><trkpt lat="-31.053575991915952" lon="115.35529014980176"><ele>3.0</ele><time>2026-04-12T06:11:17Z</time></trkpt><trkpt lat="-31.053333894589866" lon="115.35523128666138"><ele>5.5</ele><time>2026-04-12T06:11:18Z</time></trkpt><trkpt lat="-31.05309004572569" lon="115.35517333438627"><ele>8.0</ele><time>2026-04-12T06:11:19Z</time></trkpt><trkpt lat="-31.05285158700345" lon="115.35511619391008"><ele>8.0</ele><time>2026-04-12T06:11:20Z</time></trkpt><trkpt lat="-31.052620771051654" lon="115.35506241541364"><ele>8.0</ele><time>2026-04-12T06:11:21Z</time></trkpt><trkpt lat="-31.05239111084369" lon="115.35501256267236"><ele>8.5</ele><time>2026-04-12T06:11:22Z</time></trkpt><trkpt lat="-31.0521546913398" lon="115.35497288507233"><ele>9.0</ele><time>2026-04-12T06:11:23Z</time></trkpt><trkpt lat="-31.051917531872085" lon="115.35494422521478"><ele>9.0</ele><time>2026-04-12T06:11:24Z</time></trkpt><trkpt lat="-31.051675950160174" lon="115.35491817505667"><ele>9.0</ele><time>2026-04-12T06:11:25Z</time></trkpt><trkpt lat="-31.051428221962183" lon="115.35489041934758"><ele>8.0</ele><time>2026-04-12T06:11:26Z</time></trkpt><trkpt lat="-31.051180728676947" lon="115.35485793011235"><ele>7.0</ele><time>2026-04-12T06:11:27Z</time></trkpt><trkpt lat="-31.050934741217066" lon="115.35482723560443"><ele>6.0</ele><time>2026-04-12T06:11:28Z</time></trkpt><trkpt lat="-31.05068800039888" lon="115.35480144468286"><ele>5.0</ele><time>2026-04-12T06:11:29Z</time></trkpt><trkpt lat="-31.05044012924677" lon="115.35477598345071"><ele>5.0</ele><time>2026-04-12T06:11:30Z</time></trkpt><trkpt lat="-31.050190805946027" lon="115.35474797963505"><ele>5.0</ele><time>2026-04-12T06:11:31Z</time></trkpt><trkpt lat="-31.04993932509757" lon="115.3547153735634"><ele>7.0</ele><time>2026-04-12T06:11:32Z</time></trkpt><trkpt lat="-31.049691945837946" lon="115.35468032039219"><ele>9.0</ele><time>2026-04-12T06:11:33Z</time></trkpt><trkpt lat="-31.049446981123374" lon="115.35464834913759"><ele>9.0</ele><time>2026-04-12T06:11:34Z</time></trkpt><trkpt lat="-31.049200786070998" lon="115.35461873161708"><ele>9.0</ele><time>2026-04-12T06:11:35Z</time></trkpt><trkpt lat="-31.04895672514512" lon="115.35458972032015"><ele>8.0</ele><time>2026-04-12T06:11:36Z</time></trkpt><trkpt lat="-31.048711166758437" lon="115.35456032638497"><ele>7.0</ele><time>2026-04-12T06:11:37Z</time></trkpt><trkpt lat="-31.048465814593833" lon="115.35452940821429"><ele>8.0</ele><time>2026-04-12T06:11:38Z</time></trkpt><trkpt lat="-31.048220231895392" lon="115.35449765995797"><ele>9.0</ele><time>2026-04-12T06:11:39Z</time></trkpt><trkpt lat="-31.047976504127224" lon="115.35446966619953"><ele>9.0</ele><time>2026-04-12T06:11:40Z</time></trkpt><trkpt lat="-31.047732763793196" lon="115.35444241199224"><ele>9.0</ele><time>2026-04-12T06:11:41Z</time></trkpt><trkpt lat="-31.04748580901138" lon="115.35441143791249"><ele>7.5</ele><time>2026-04-12T06:11:42Z</time></trkpt><trkpt lat="-31.04723813261601" lon="115.35437483546204"><ele>6.0</ele><time>2026-04-12T06:11:43Z</time></trkpt><trkpt lat="-31.04700543416507" lon="115.35433432607513"><ele>6.0</ele><time>2026-04-12T06:11:44Z</time></trkpt><trkpt lat="-31.04679075965171" lon="115.3542875360085"><ele>6.0</ele><time>2026-04-12T06:11:45Z</time></trkpt><trkpt lat="-31.046581362441234" lon="115.35423893851043"><ele>6.0</ele><time>2026-04-12T06:11:46Z</time></trkpt><trkpt lat="-31.046387732323108" lon="115.35418956607374"><ele>7.0</ele><time>2026-04-12T06:11:47Z</time></trkpt><trkpt lat="-31.04621135035551" lon="115.35414454163937"><ele>8.0</ele><time>2026-04-12T06:11:48Z</time></trkpt><trkpt lat="-31.046069071144014" lon="115.35411611520829"><ele>9.0</ele><time>2026-04-12T06:11:49Z</time></trkpt><trkpt lat="-31.045954563378938" lon="115.35411156098071"><ele>10.0</ele><time>2026-04-12T06:11:50Z</time></trkpt><trkpt lat="-31.04587816842523" lon="115.35415992574741"><ele>10.0</ele><time>2026-04-12T06:11:51Z</time></trkpt><trkpt lat="-31.045820721406564" lon="115.35419105736753"><ele>10.0</ele><time>2026-04-12T06:11:52Z</time></trkpt><trkpt lat="-31.045740441022758" lon="115.35408845682147"><ele>10.0</ele><time>2026-04-12T06:11:55Z</time></trkpt><trkpt lat="-31.045674512087015" lon="115.35401173223204"><ele>10.0</ele><time>2026-04-12T06:12:02Z</time></trkpt><trkpt lat="-31.045644824290513" lon="115.35393774581777"><ele>10.0</ele><time>2026-04-12T06:12:03Z</time></trkpt><trkpt lat="-31.04561957115078" lon="115.35386398507713"><ele>10.0</ele><time>2026-04-12T06:12:04Z</time></trkpt><trkpt lat="-31.04557865792104" lon="115.35375707569503"><ele>10.0</ele><time>2026-04-12T06:12:06Z</time></trkpt><trkpt lat="-31.045552143917362" lon="115.35368255797357"><ele>10.0</ele><time>2026-04-12T06:12:09Z</time></trkpt><trkpt lat="-31.045529045914737" lon="115.35360385579226"><ele>10.0</ele><time>2026-04-12T06:12:11Z</time></trkpt><trkpt lat="-31.045479587625085" lon="115.3535111557713"><ele>10.0</ele><time>2026-04-12T06:12:13Z</time></trkpt><trkpt lat="-31.04545396931956" lon="115.35344324428446"><ele>10.0</ele><time>2026-04-12T06:12:14Z</time></trkpt><trkpt lat="-31.045425819249367" lon="115.35336559608363"><ele>10.0</ele><time>2026-04-12T06:12:15Z</time></trkpt><trkpt lat="-31.04539207779299" lon="115.35328805687381"><ele>10.0</ele><time>2026-04-12T06:12:16Z</time></trkpt><trkpt lat="-31.045354115135293" lon="115.35320034568353"><ele>10.0</ele><time>2026-04-12T06:12:17Z</time></trkpt><trkpt lat="-31.045316031897" lon="115.3530892577262"><ele>10.0</ele><time>2026-04-12T06:12:18Z</time></trkpt><trkpt lat="-31.04526552119873" lon="115.35295634788756"><ele>10.0</ele><time>2026-04-12T06:12:19Z</time></trkpt><trkpt lat="-31.045218277162792" lon="115.35278896709595"><ele>10.0</ele><time>2026-04-12T06:12:20Z</time></trkpt><trkpt lat="-31.045164498638012" lon="115.35260618743676"><ele>9.666666666666668</ele><time>2026-04-12T06:12:21Z</time></trkpt><trkpt lat="-31.04511102153475" lon="115.35240891155085"><ele>9.333333333333334</ele><time>2026-04-12T06:12:22Z</time></trkpt><trkpt lat="-31.04506387745954" lon="115.35219534850384"><ele>9.0</ele><time>2026-04-12T06:12:23Z</time></trkpt><trkpt lat="-31.045015342147487" lon="115.35199911844383"><ele>9.333333333333334</ele><time>2026-04-12T06:12:24Z</time></trkpt><trkpt lat="-31.044990726547905" lon="115.35180858744927"><ele>9.666666666666668</ele><time>2026-04-12T06:12:25Z</time></trkpt><trkpt lat="-31.04496635548263" lon="115.3516258886514"><ele>10.0</ele><time>2026-04-12T06:12:26Z</time></trkpt><trkpt lat="-31.044936321594356" lon="115.35144409385599"><ele>10.0</ele><time>2026-04-12T06:12:27Z</time></trkpt><trkpt lat="-31.04490363472345" lon="115.35126165268277"><ele>10.0</ele><time>2026-04-12T06:12:28Z</time></trkpt><trkpt lat="-31.044867170808196" lon="115.35107037623207"><ele>10.0</ele><time>2026-04-12T06:12:29Z</time></trkpt><trkpt lat="-31.044829376265415" lon="115.35087558452025"><ele>10.0</ele><time>2026-04-12T06:12:30Z</time></trkpt><trkpt lat="-31.044784511995758" lon="115.35067863238896"><ele>10.0</ele><time>2026-04-12T06:12:31Z</time></trkpt><trkpt lat="-31.044731324665293" lon="115.35048483674886"><ele>10.0</ele><time>2026-04-12T06:12:32Z</time></trkpt><trkpt lat="-31.044669366153276" lon="115.35029931745403"><ele>10.666666666666668</ele><time>2026-04-12T06:12:33Z</time></trkpt><trkpt lat="-31.04460552713858" lon="115.35012574425676"><ele>11.333333333333334</ele><time>2026-04-12T06:12:34Z</time></trkpt><trkpt lat="-31.044536625263973" lon="115.34995640908923"><ele>12.0</ele><time>2026-04-12T06:12:35Z</time></trkpt><trkpt lat="-31.044457789271824" lon="115.34978147375634"><ele>12.333333333333332</ele><time>2026-04-12T06:12:36Z</time></trkpt><trkpt lat="-31.044375811450184" lon="115.34960742103719"><ele>12.666666666666666</ele><time>2026-04-12T06:12:37Z</time></trkpt><trkpt lat="-31.044294228506622" lon="115.34943954315897"><ele>13.0</ele><time>2026-04-12T06:12:38Z</time></trkpt><trkpt lat="-31.044204692296812" lon="115.34927160087109"><ele>12.666666666666666</ele><time>2026-04-12T06:12:39Z</time></trkpt><trkpt lat="-31.044105758857054" lon="115.34910652130468"><ele>12.333333333333332</ele><time>2026-04-12T06:12:40Z</time></trkpt><trkpt lat="-31.043998031811302" lon="115.3489511791911"><ele>12.0</ele><time>2026-04-12T06:12:41Z</time></trkpt><trkpt lat="-31.043886677092562" lon="115.34880273503977"><ele>12.666666666666668</ele><time>2026-04-12T06:12:42Z</time></trkpt><trkpt lat="-31.04376391930448" lon="115.34865617914792"><ele>13.333333333333334</ele><time>2026-04-12T06:12:43Z</time></trkpt><trkpt lat="-31.043634447627657" lon="115.34851405217672"><ele>14.0</ele><time>2026-04-12T06:12:44Z</time></trkpt><trkpt lat="-31.04350175394282" lon="115.34837236606289"><ele>14.0</ele><time>2026-04-12T06:12:45Z</time></trkpt><trkpt lat="-31.04336528281638" lon="115.34822928470116"><ele>14.0</ele><time>2026-04-12T06:12:46Z</time></trkpt><trkpt lat="-31.043226512252666" lon="115.34810124002252"><ele>14.0</ele><time>2026-04-12T06:12:47Z</time></trkpt><trkpt lat="-31.043071852363138" lon="115.34799202847576"><ele>12.666666666666668</ele><time>2026-04-12T06:12:48Z</time></trkpt><trkpt lat="-31.042901911278467" lon="115.3478945664443"><ele>11.333333333333334</ele><time>2026-04-12T06:12:49Z</time></trkpt><trkpt lat="-31.042726165342522" lon="115.34779867111347"><ele>10.0</ele><time>2026-04-12T06:12:50Z</time></trkpt><trkpt lat="-31.042560344290226" lon="115.34769836131608"><ele>9.666666666666668</ele><time>2026-04-12T06:12:51Z</time></trkpt><trkpt lat="-31.04239030954942" lon="115.34759423090591"><ele>9.333333333333334</ele><time>2026-04-12T06:12:52Z</time></trkpt><trkpt lat="-31.04221698163527" lon="115.34749161164957"><ele>9.0</ele><time>2026-04-12T06:12:53Z</time></trkpt><trkpt lat="-31.04204237598025" lon="115.34739186245092"><ele>9.0</ele><time>2026-04-12T06:12:54Z</time></trkpt><trkpt lat="-31.04187241723095" lon="115.34729111185474"><ele>9.0</ele><time>2026-04-12T06:12:55Z</time></trkpt><trkpt lat="-31.04170142678162" lon="115.34717983926949"><ele>9.0</ele><time>2026-04-12T06:12:56Z</time></trkpt><trkpt lat="-31.041529500146734" lon="115.34705997733224"><ele>9.0</ele><time>2026-04-12T06:12:57Z</time></trkpt><trkpt lat="-31.041358116026224" lon="115.3469338391508"><ele>9.0</ele><time>2026-04-12T06:12:58Z</time></trkpt><trkpt lat="-31.041189486718924" lon="115.34679950257907"><ele>9.0</ele><time>2026-04-12T06:12:59Z</time></trkpt><trkpt lat="-31.04102742878704" lon="115.34665858668946"><ele>9.0</ele><time>2026-04-12T06:13:00Z</time></trkpt><trkpt lat="-31.04087499244261" lon="115.34651104391065"><ele>9.0</ele><time>2026-04-12T06:13:01Z</time></trkpt><trkpt lat="-31.040729679863453" lon="115.34635144808934"><ele>9.0</ele><time>2026-04-12T06:13:02Z</time></trkpt><trkpt lat="-31.04059005633819" lon="115.34617798776245"><ele>8.666666666666666</ele><time>2026-04-12T06:13:03Z</time></trkpt><trkpt lat="-31.04046062394234" lon="115.3459978222156"><ele>8.333333333333332</ele><time>2026-04-12T06:13:04Z</time></trkpt><trkpt lat="-31.040341562957025" lon="115.34581246113481"><ele>8.0</ele><time>2026-04-12T06:13:05Z</time></trkpt><trkpt lat="-31.040235407235578" lon="115.34562176969303"><ele>7.666666666666666</ele><time>2026-04-12T06:13:06Z</time></trkpt><trkpt lat="-31.04014010252779" lon="115.34542555115534"><ele>7.333333333333334</ele><time>2026-04-12T06:13:07Z</time></trkpt><trkpt lat="-31.040050637051355" lon="115.34522136590677"><ele>7.0</ele><time>2026-04-12T06:13:08Z</time></trkpt><trkpt lat="-31.039958498263637" lon="115.34500948986668"><ele>7.0</ele><time>2026-04-12T06:13:09Z</time></trkpt><trkpt lat="-31.03986826840027" lon="115.344797882625"><ele>7.0</ele><time>2026-04-12T06:13:10Z</time></trkpt><trkpt lat="-31.03978055841079" lon="115.34458413987892"><ele>7.0</ele><time>2026-04-12T06:13:11Z</time></trkpt><trkpt lat="-31.03969381495782" lon="115.34437136593007"><ele>7.0</ele><time>2026-04-12T06:13:12Z</time></trkpt><trkpt lat="-31.03960203009773" lon="115.34416464893339"><ele>7.0</ele><time>2026-04-12T06:13:13Z</time></trkpt><trkpt lat="-31.039505540030977" lon="115.34396849910212"><ele>7.0</ele><time>2026-04-12T06:13:14Z</time></trkpt><trkpt lat="-31.0394027764702" lon="115.34377990200373"><ele>6.666666666666667</ele><time>2026-04-12T06:13:15Z</time></trkpt><trkpt lat="-31.039295919708728" lon="115.34359488262403"><ele>6.333333333333334</ele><time>2026-04-12T06:13:16Z</time></trkpt><trkpt lat="-31.039185059176585" lon="115.3434203782645"><ele>6.0</ele><time>2026-04-12T06:13:17Z</time></trkpt><trkpt lat="-31.03906286733703" lon="115.34325226105605"><ele>6.0</ele><time>2026-04-12T06:13:18Z</time></trkpt><trkpt lat="-31.03892983817166" lon="115.34308793494709"><ele>6.0</ele><time>2026-04-12T06:13:19Z</time></trkpt><trkpt lat="-31.038777088169837" lon="115.34291899408107"><ele>6.0</ele><time>2026-04-12T06:13:20Z</time></trkpt><trkpt lat="-31.03862688715986" lon="115.34276037412079"><ele>5.666666666666667</ele><time>2026-04-12T06:13:21Z</time></trkpt><trkpt lat="-31.038481074151257" lon="115.34259971794411"><ele>5.333333333333334</ele><time>2026-04-12T06:13:22Z</time></trkpt><trkpt lat="-31.03832817936102" lon="115.34245449307262"><ele>5.0</ele><time>2026-04-12T06:13:23Z</time></trkpt><trkpt lat="-31.03815914030235" lon="115.34232446224676"><ele>5.333333333333334</ele><time>2026-04-12T06:13:24Z</time></trkpt><trkpt lat="-31.03798038958008" lon="115.34220487371054"><ele>5.666666666666667</ele><time>2026-04-12T06:13:25Z</time></trkpt><trkpt lat="-31.03780794194804" lon="115.34208997704565"><ele>6.0</ele><time>2026-04-12T06:13:26Z</time></trkpt><trkpt lat="-31.03763466069921" lon="115.34198326603519"><ele>5.333333333333333</ele><time>2026-04-12T06:13:27Z</time></trkpt><trkpt lat="-31.03744087067684" lon="115.34189583288818"><ele>4.666666666666666</ele><time>2026-04-12T06:13:28Z</time></trkpt><trkpt lat="-31.03722301415382" lon="115.34180259916262"><ele>4.0</ele><time>2026-04-12T06:13:29Z</time></trkpt><trkpt lat="-31.03699042510415" lon="115.34172067133981"><ele>4.0</ele><time>2026-04-12T06:13:30Z</time></trkpt><trkpt lat="-31.036752512784222" lon="115.34165129137337"><ele>4.0</ele><time>2026-04-12T06:13:31Z</time></trkpt><trkpt lat="-31.03651745020015" lon="115.34159031547429"><ele>3.333333333333333</ele><time>2026-04-12T06:13:32Z</time></trkpt><trkpt lat="-31.03630199675598" lon="115.34152384604067"><ele>2.6666666666666665</ele><time>2026-04-12T06:13:33Z</time></trkpt><trkpt lat="-31.036099038899287" lon="115.34147045132174"><ele>2.0</ele><time>2026-04-12T06:13:34Z</time></trkpt><trkpt lat="-31.03589850084453" lon="115.34142907375785"><ele>2.333333333333333</ele><time>2026-04-12T06:13:35Z</time></trkpt><trkpt lat="-31.03569628219438" lon="115.34139633937636"><ele>2.6666666666666665</ele><time>2026-04-12T06:13:36Z</time></trkpt><trkpt lat="-31.035495499736324" lon="115.3413745542567"><ele>3.0</ele><time>2026-04-12T06:13:37Z</time></trkpt><trkpt lat="-31.035299983814284" lon="115.34136812951961"><ele>3.0</ele><time>2026-04-12T06:13:38Z</time></trkpt><trkpt lat="-31.03511598409758" lon="115.34137537517825"><ele>3.0</ele><time>2026-04-12T06:13:39Z</time></trkpt><trkpt lat="-31.034933485359247" lon="115.3413846000182"><ele>3.0</ele><time>2026-04-12T06:13:40Z</time></trkpt><trkpt lat="-31.03475016203116" lon="115.34139841613685"><ele>3.666666666666667</ele><time>2026-04-12T06:13:41Z</time></trkpt><trkpt lat="-31.034568747854223" lon="115.34141948008995"><ele>4.333333333333334</ele><time>2026-04-12T06:13:42Z</time></trkpt><trkpt lat="-31.03439072074497" lon="115.34144333915907"><ele>5.0</ele><time>2026-04-12T06:13:43Z</time></trkpt><trkpt lat="-31.034211988455283" lon="115.34146609074453"><ele>5.333333333333334</ele><time>2026-04-12T06:13:44Z</time></trkpt><trkpt lat="-31.034026957551774" lon="115.34149101471817"><ele>5.666666666666667</ele><time>2026-04-12T06:13:45Z</time></trkpt><trkpt lat="-31.033852852845197" lon="115.34151781968993"><ele>6.0</ele><time>2026-04-12T06:13:46Z</time></trkpt><trkpt lat="-31.033689532221658" lon="115.34154355294724"><ele>6.0</ele><time>2026-04-12T06:13:47Z</time></trkpt><trkpt lat="-31.033532623366465" lon="115.34156782615578"><ele>6.0</ele><time>2026-04-12T06:13:48Z</time></trkpt><trkpt lat="-31.03337749438242" lon="115.34159032765245"><ele>6.0</ele><time>2026-04-12T06:13:49Z</time></trkpt><trkpt lat="-31.033211260849818" lon="115.34161204364032"><ele>5.333333333333333</ele><time>2026-04-12T06:13:50Z</time></trkpt><trkpt lat="-31.033039585516647" lon="115.34163372389655"><ele>4.666666666666666</ele><time>2026-04-12T06:13:51Z</time></trkpt><trkpt lat="-31.032883462504778" lon="115.3416496112317"><ele>4.0</ele><time>2026-04-12T06:13:52Z</time></trkpt><trkpt lat="-31.03272211469636" lon="115.3416671641935"><ele>4.0</ele><time>2026-04-12T06:13:53Z</time></trkpt><trkpt lat="-31.03255358131572" lon="115.34167815235149"><ele>4.0</ele><time>2026-04-12T06:13:54Z</time></trkpt><trkpt lat="-31.03237302887261" lon="115.34168144881345"><ele>4.0</ele><time>2026-04-12T06:13:55Z</time></trkpt><trkpt lat="-31.03216979558801" lon="115.34167681765896"><ele>4.5</ele><time>2026-04-12T06:13:56Z</time></trkpt><trkpt lat="-31.03195124989848" lon="115.34166878667672"><ele>5.0</ele><time>2026-04-12T06:13:57Z</time></trkpt><trkpt lat="-31.031720402022906" lon="115.34163984281143"><ele>5.5</ele><time>2026-04-12T06:13:58Z</time></trkpt><trkpt lat="-31.03148682978185" lon="115.34159081776916"><ele>6.0</ele><time>2026-04-12T06:13:59Z</time></trkpt><trkpt lat="-31.031243908646047" lon="115.34151698641088"><ele>6.0</ele><time>2026-04-12T06:14:00Z</time></trkpt><trkpt lat="-31.030995919457865" lon="115.34142956884467"><ele>6.0</ele><time>2026-04-12T06:14:01Z</time></trkpt><trkpt lat="-31.030762703828763" lon="115.34133624942758"><ele>5.666666666666667</ele><time>2026-04-12T06:14:02Z</time></trkpt><trkpt lat="-31.030553504018627" lon="115.34124031810818"><ele>5.333333333333334</ele><time>2026-04-12T06:14:03Z</time></trkpt><trkpt lat="-31.030351773400792" lon="115.34113930378653"><ele>5.0</ele><time>2026-04-12T06:14:04Z</time></trkpt><trkpt lat="-31.030160718559998" lon="115.34103975947106"><ele>5.0</ele><time>2026-04-12T06:14:05Z</time></trkpt><trkpt lat="-31.02997971371753" lon="115.34094921145858"><ele>5.0</ele><time>2026-04-12T06:14:06Z</time></trkpt><trkpt lat="-31.02980167775915" lon="115.34085746786148"><ele>5.0</ele><time>2026-04-12T06:14:07Z</time></trkpt><trkpt lat="-31.029621755595986" lon="115.34076696982117"><ele>5.0</ele><time>2026-04-12T06:14:08Z</time></trkpt><trkpt lat="-31.029446145837493" lon="115.34068025224856"><ele>5.0</ele><time>2026-04-12T06:14:09Z</time></trkpt><trkpt lat="-31.029272879081503" lon="115.34059642170557"><ele>5.0</ele><time>2026-04-12T06:14:10Z</time></trkpt><trkpt lat="-31.02909733191744" lon="115.34050921054471"><ele>5.0</ele><time>2026-04-12T06:14:11Z</time></trkpt><trkpt lat="-31.02892586718668" lon="115.34041624875802"><ele>5.0</ele><time>2026-04-12T06:14:12Z</time></trkpt><trkpt lat="-31.028759016550158" lon="115.34032670404511"><ele>5.0</ele><time>2026-04-12T06:14:13Z</time></trkpt><trkpt lat="-31.028588664804317" lon="115.34023846036527"><ele>5.0</ele><time>2026-04-12T06:14:14Z</time></trkpt><trkpt lat="-31.02841879604265" lon="115.34015466400344"><ele>5.0</ele><time>2026-04-12T06:14:15Z</time></trkpt><trkpt lat="-31.028248417416847" lon="115.34007273259162"><ele>5.0</ele><time>2026-04-12T06:14:16Z</time></trkpt><trkpt lat="-31.02807723698971" lon="115.33998704031626"><ele>5.333333333333334</ele><time>2026-04-12T06:14:17Z</time></trkpt><trkpt lat="-31.027906167937296" lon="115.33989929879603"><ele>5.666666666666667</ele><time>2026-04-12T06:14:18Z</time></trkpt><trkpt lat="-31.027735262109935" lon="115.33981231721607"><ele>6.0</ele><time>2026-04-12T06:14:19Z</time></trkpt><trkpt lat="-31.02756187657866" lon="115.33972353013388"><ele>5.666666666666667</ele><time>2026-04-12T06:14:20Z</time></trkpt><trkpt lat="-31.027386934808618" lon="115.33963524387629"><ele>5.333333333333334</ele><time>2026-04-12T06:14:21Z</time></trkpt><trkpt lat="-31.02721201373675" lon="115.33954564469755"><ele>5.0</ele><time>2026-04-12T06:14:22Z</time></trkpt><trkpt lat="-31.027039435664612" lon="115.33945878301337"><ele>5.0</ele><time>2026-04-12T06:14:23Z</time></trkpt><trkpt lat="-31.026868094505456" lon="115.33937687773289"><ele>5.0</ele><time>2026-04-12T06:14:24Z</time></trkpt><trkpt lat="-31.026700464728517" lon="115.33929246184239"><ele>5.0</ele><time>2026-04-12T06:14:25Z</time></trkpt><trkpt lat="-31.02653323921629" lon="115.33920663259855"><ele>4.333333333333334</ele><time>2026-04-12T06:14:26Z</time></trkpt><trkpt lat="-31.02636591718233" lon="115.33912029450299"><ele>3.666666666666667</ele><time>2026-04-12T06:14:27Z</time></trkpt><trkpt lat="-31.0261951230049" lon="115.3390342367972"><ele>3.0</ele><time>2026-04-12T06:14:28Z</time></trkpt><trkpt lat="-31.026023787690075" lon="115.33894387887092"><ele>3.666666666666667</ele><time>2026-04-12T06:14:29Z</time></trkpt><trkpt lat="-31.025852547371514" lon="115.33885111911425"><ele>4.333333333333334</ele><time>2026-04-12T06:14:30Z</time></trkpt><trkpt lat="-31.02568212794889" lon="115.33876197670523"><ele>5.0</ele><time>2026-04-12T06:14:31Z</time></trkpt><trkpt lat="-31.025515579855007" lon="115.33867979330496"><ele>5.0</ele><time>2026-04-12T06:14:32Z</time></trkpt><trkpt lat="-31.02535774709779" lon="115.33860055657024"><ele>5.0</ele><time>2026-04-12T06:14:33Z</time></trkpt><trkpt lat="-31.025210380164673" lon="115.33852570820065"><ele>5.0</ele><time>2026-04-12T06:14:34Z</time></trkpt><trkpt lat="-31.02507107822185" lon="115.33845431400094"><ele>5.666666666666667</ele><time>2026-04-12T06:14:35Z</time></trkpt><trkpt lat="-31.024925624428576" lon="115.33837697675287"><ele>6.333333333333334</ele><time>2026-04-12T06:14:36Z</time></trkpt><trkpt lat="-31.0247684233862" lon="115.3382957422979"><ele>7.0</ele><time>2026-04-12T06:14:37Z</time></trkpt><trkpt lat="-31.024600032079423" lon="115.33820867782558"><ele>7.0</ele><time>2026-04-12T06:14:38Z</time></trkpt><trkpt lat="-31.024428174992725" lon="115.33811862824567"><ele>7.0</ele><time>2026-04-12T06:14:39Z</time></trkpt><trkpt lat="-31.024256109371688" lon="115.33802409498298"><ele>7.0</ele><time>2026-04-12T06:14:40Z</time></trkpt><trkpt lat="-31.024086560412382" lon="115.3379215984931"><ele>6.333333333333334</ele><time>2026-04-12T06:14:41Z</time></trkpt><trkpt lat="-31.023916696447916" lon="115.33780225781598"><ele>5.666666666666667</ele><time>2026-04-12T06:14:42Z</time></trkpt><trkpt lat="-31.0237480593802" lon="115.33767245806533"><ele>5.0</ele><time>2026-04-12T06:14:43Z</time></trkpt><trkpt lat="-31.023592155986478" lon="115.33753699694283"><ele>5.0</ele><time>2026-04-12T06:14:44Z</time></trkpt><trkpt lat="-31.02345093325716" lon="115.33738654945206"><ele>5.0</ele><time>2026-04-12T06:14:45Z</time></trkpt><trkpt lat="-31.02331299235055" lon="115.33721734500241"><ele>5.0</ele><time>2026-04-12T06:14:46Z</time></trkpt><trkpt lat="-31.023182706721943" lon="115.33704052439225"><ele>5.333333333333334</ele><time>2026-04-12T06:14:47Z</time></trkpt><trkpt lat="-31.02306278622979" lon="115.33685787292684"><ele>5.666666666666667</ele><time>2026-04-12T06:14:48Z</time></trkpt><trkpt lat="-31.022953334447273" lon="115.33665990537023"><ele>6.0</ele><time>2026-04-12T06:14:49Z</time></trkpt><trkpt lat="-31.02286029131307" lon="115.33645423986934"><ele>5.666666666666667</ele><time>2026-04-12T06:14:50Z</time></trkpt><trkpt lat="-31.02277921697047" lon="115.33624717998191"><ele>5.333333333333334</ele><time>2026-04-12T06:14:51Z</time></trkpt><trkpt lat="-31.022704278101635" lon="115.33603522874417"><ele>5.0</ele><time>2026-04-12T06:14:52Z</time></trkpt><trkpt lat="-31.02263464495859" lon="115.3358170342444"><ele>5.0</ele><time>2026-04-12T06:14:53Z</time></trkpt><trkpt lat="-31.02257166718716" lon="115.33559915730461"><ele>5.0</ele><time>2026-04-12T06:14:54Z</time></trkpt><trkpt lat="-31.022509692191253" lon="115.33538700660976"><ele>5.0</ele><time>2026-04-12T06:14:55Z</time></trkpt><trkpt lat="-31.02244147723814" lon="115.335173706745"><ele>5.333333333333334</ele><time>2026-04-12T06:14:56Z</time></trkpt><trkpt lat="-31.022371203094302" lon="115.33495883016295"><ele>5.666666666666667</ele><time>2026-04-12T06:14:57Z</time></trkpt><trkpt lat="-31.02230811217396" lon="115.33475010023236"><ele>6.0</ele><time>2026-04-12T06:14:58Z</time></trkpt><trkpt lat="-31.022248564727185" lon="115.33454512283147"><ele>6.0</ele><time>2026-04-12T06:14:59Z</time></trkpt><trkpt lat="-31.02218833707943" lon="115.33434193381487"><ele>6.0</ele><time>2026-04-12T06:15:00Z</time></trkpt><trkpt lat="-31.02212991319538" lon="115.33414446147907"><ele>6.0</ele><time>2026-04-12T06:15:01Z</time></trkpt><trkpt lat="-31.022074279220607" lon="115.33395904357803"><ele>6.0</ele><time>2026-04-12T06:15:02Z</time></trkpt><trkpt lat="-31.02202522808152" lon="115.33378988817826"><ele>6.0</ele><time>2026-04-12T06:15:03Z</time></trkpt><trkpt lat="-31.021984239476843" lon="115.33365018026632"><ele>6.0</ele><time>2026-04-12T06:15:04Z</time></trkpt><trkpt lat="-31.021957301353268" lon="115.33354661137696"><ele>6.0</ele><time>2026-04-12T06:15:05Z</time></trkpt><trkpt lat="-31.02193874819637" lon="115.33347588138977"><ele>6.0</ele><time>2026-04-12T06:15:06Z</time></trkpt><trkpt lat="-31.021899929089056" lon="115.33339831033108"><ele>6.0</ele><time>2026-04-12T06:15:10Z</time></trkpt><trkpt lat="-31.021776481475786" lon="115.33344716653335"><ele>6.0</ele><time>2026-04-12T06:15:13Z</time></trkpt><trkpt lat="-31.021699343384334" lon="115.33346193636017"><ele>6.0</ele><time>2026-04-12T06:15:15Z</time></trkpt><trkpt lat="-31.021609379637887" lon="115.33347509028668"><ele>6.0</ele><time>2026-04-12T06:15:17Z</time></trkpt><trkpt lat="-31.02154516738627" lon="115.33347680357038"><ele>6.0</ele><time>2026-04-12T06:15:18Z</time></trkpt><trkpt lat="-31.02146644076214" lon="115.33347184336587"><ele>6.0</ele><time>2026-04-12T06:15:19Z</time></trkpt><trkpt lat="-31.021370031680803" lon="115.33347574633358"><ele>5.5</ele><time>2026-04-12T06:15:20Z</time></trkpt><trkpt lat="-31.0212586682281" lon="115.33347937099047"><ele>5.0</ele><time>2026-04-12T06:15:21Z</time></trkpt><trkpt lat="-31.021134178629154" lon="115.33350161145627"><ele>4.5</ele><time>2026-04-12T06:15:22Z</time></trkpt><trkpt lat="-31.02102253575331" lon="115.33349924124326"><ele>4.0</ele><time>2026-04-12T06:15:23Z</time></trkpt><trkpt lat="-31.020921222248276" lon="115.33349755470834"><ele>3.9999999999999996</ele><time>2026-04-12T06:15:24Z</time></trkpt><trkpt lat="-31.020828736887506" lon="115.33349729958545"><ele>4.0</ele><time>2026-04-12T06:15:25Z</time></trkpt><trkpt lat="-31.020743736496197" lon="115.3334974793323"><ele>4.0</ele><time>2026-04-12T06:15:26Z</time></trkpt><trkpt lat="-31.020667185477826" lon="115.33349886203064"><ele>4.0</ele><time>2026-04-12T06:15:27Z</time></trkpt><trkpt lat="-31.02060330396964" lon="115.33350146789097"><ele>3.9999999999999996</ele><time>2026-04-12T06:15:28Z</time></trkpt><trkpt lat="-31.02050945003489" lon="115.333485570431"><ele>4.0</ele><time>2026-04-12T06:15:30Z</time></trkpt><trkpt lat="-31.020465202760175" lon="115.33332321724393"><ele>4.166666666666666</ele><time>2026-04-12T06:15:32Z</time></trkpt><trkpt lat="-31.020467667356723" lon="115.33324244293895"><ele>4.333333333333333</ele><time>2026-04-12T06:15:33Z</time></trkpt><trkpt lat="-31.02046264039371" lon="115.3331174932957"><ele>4.5</ele><time>2026-04-12T06:15:35Z</time></trkpt><trkpt lat="-31.020467640773354" lon="115.33301025381351"><ele>4.666666666666667</ele><time>2026-04-12T06:15:37Z</time></trkpt><trkpt lat="-31.020464766203077" lon="115.33292285958217"><ele>4.833333333333334</ele><time>2026-04-12T06:15:39Z</time></trkpt><trkpt lat="-31.02046224794552" lon="115.33283915482959"><ele>5.0</ele><time>2026-04-12T06:15:41Z</time></trkpt><trkpt lat="-31.020459469907244" lon="115.33274681514028"><ele>5.0</ele><time>2026-04-12T06:15:44Z</time></trkpt><trkpt lat="-31.020457783257072" lon="115.33266237137155"><ele>5.0</ele><time>2026-04-12T06:15:50Z</time></trkpt><trkpt lat="-31.02045528692896" lon="115.3325673752272"><ele>5.0</ele><time>2026-04-12T06:15:53Z</time></trkpt></trkseg></trk></gpx>